<?xml version='1.0' encoding='UTF-8'?><gpx version="1.1" creator="JPX - https://github.com/jenetics/jpx" xmlns="http://www.topografix.com/GPX/1/1"><trk><trkseg><trkpt lat="41.99007123511565" lon="2.8122780327913857"><ele>71.0</ele><time>2026-05-02T05:10:56Z</time></trkpt><trkpt lat="41.990010369945296" lon="2.812253663131254"><ele>71.0</ele><time>2026-05-02T05:22:58Z</time></trkpt><trkpt lat="41.98995204846795" lon="2.8121852287694225"><ele>71.0</ele><time>2026-05-02T05:40:09Z</time></trkpt><trkpt lat="41.9898945420236" lon="2.812115600835023"><ele>71.0</ele><time>2026-05-02T05:40:17Z</time></trkpt><trkpt lat="41.989847870084425" lon="2.812021340882551"><ele>71.0</ele><time>2026-05-02T05:40:21Z</time></trkpt><trkpt lat="41.98977840451853" lon="2.8119494735620334"><ele>71.0</ele><time>2026-05-02T05:40:24Z</time></trkpt><trkpt lat="41.989722791993366" lon="2.811853173335082"><ele>72.0</ele><time>2026-05-02T05:40:26Z</time></trkpt><trkpt lat="41.98966596348591" lon="2.811769041419745"><ele>73.0</ele><time>2026-05-02T05:40:27.999Z</time></trkpt><trkpt lat="41.989607244069134" lon="2.811673156668219"><ele>74.0</ele><time>2026-05-02T05:40:29.999Z</time></trkpt><trkpt lat="41.989544476272656" lon="2.8115710638507516"><ele>75.0</ele><time>2026-05-02T05:40:31.999Z</time></trkpt><trkpt lat="41.989481358894515" lon="2.811470531813518"><ele>76.0</ele><time>2026-05-02T05:40:33.999Z</time></trkpt><trkpt lat="41.98942299572891" lon="2.811383064457524"><ele>76.0</ele><time>2026-05-02T05:40:35.999Z</time></trkpt><trkpt lat="41.98937547418782" lon="2.8112928888292816"><ele>76.0</ele><time>2026-05-02T05:40:37.999Z</time></trkpt><trkpt lat="41.989326017810825" lon="2.8112045048680234"><ele>76.0</ele><time>2026-05-02T05:40:40.999Z</time></trkpt><trkpt lat="41.98927748706125" lon="2.8111166615066283"><ele>76.0</ele><time>2026-05-02T05:40:43.999Z</time></trkpt><trkpt lat="41.98923867717432" lon="2.811021240480863"><ele>76.0</ele><time>2026-05-02T05:40:45.999Z</time></trkpt><trkpt lat="41.98924251203211" lon="2.8109204476171095"><ele>76.0</ele><time>2026-05-02T05:40:48.999Z</time></trkpt><trkpt lat="41.98929273417789" lon="2.8108457084728022"><ele>76.42857142857143</ele><time>2026-05-02T05:40:51.999Z</time></trkpt><trkpt lat="41.98935743131096" lon="2.8108206000307523"><ele>76.85714285714286</ele><time>2026-05-02T05:40:53.999Z</time></trkpt><trkpt lat="41.989421713548815" lon="2.8108062120527824"><ele>77.28571428571429</ele><time>2026-05-02T05:40:55.999Z</time></trkpt><trkpt lat="41.989485588204865" lon="2.8107977166577838"><ele>77.71428571428572</ele><time>2026-05-02T05:40:57.999Z</time></trkpt><trkpt lat="41.989567460591665" lon="2.8107891051677356"><ele>78.14285714285714</ele><time>2026-05-02T05:41:01.999Z</time></trkpt><trkpt lat="41.989639713099784" lon="2.8107577946718454"><ele>78.57142857142858</ele><time>2026-05-02T05:41:05.999Z</time></trkpt><trkpt lat="41.98971223585537" lon="2.810746421875364"><ele>79.0</ele><time>2026-05-02T05:41:09.999Z</time></trkpt><trkpt lat="41.98979108880148" lon="2.8107518721013403"><ele>79.0</ele><time>2026-05-02T05:41:13.999Z</time></trkpt><trkpt lat="41.989907552289495" lon="2.810703641756491"><ele>79.0</ele><time>2026-05-02T05:41:18.999Z</time></trkpt><trkpt lat="41.98997506171318" lon="2.810641021231553"><ele>79.0</ele><time>2026-05-02T05:41:20.999Z</time></trkpt><trkpt lat="41.99005544158386" lon="2.81058809727045"><ele>79.0</ele><time>2026-05-02T05:41:22.999Z</time></trkpt><trkpt lat="41.990128759087426" lon="2.810533698693278"><ele>79.0</ele><time>2026-05-02T05:41:24.999Z</time></trkpt><trkpt lat="41.990207491749736" lon="2.8104609047663027"><ele>79.0</ele><time>2026-05-02T05:41:26.999Z</time></trkpt><trkpt lat="41.990276413317275" lon="2.81037719559943"><ele>79.0</ele><time>2026-05-02T05:41:28.999Z</time></trkpt><trkpt lat="41.99033477991655" lon="2.8103169844175246"><ele>79.0</ele><time>2026-05-02T05:41:30.999Z</time></trkpt><trkpt lat="41.99038537058288" lon="2.8102589480629065"><ele>79.0</ele><time>2026-05-02T05:41:32.999Z</time></trkpt><trkpt lat="41.9904416040028" lon="2.810184518017093"><ele>79.0</ele><time>2026-05-02T05:41:34.999Z</time></trkpt><trkpt lat="41.99050938326938" lon="2.8101037542679266"><ele>79.0</ele><time>2026-05-02T05:41:36.999Z</time></trkpt><trkpt lat="41.99057710066842" lon="2.810041452213067"><ele>78.5</ele><time>2026-05-02T05:41:38.999Z</time></trkpt><trkpt lat="41.990645028397665" lon="2.809972567276598"><ele>78.0</ele><time>2026-05-02T05:41:40.999Z</time></trkpt><trkpt lat="41.99071308119408" lon="2.8099088390310047"><ele>77.5</ele><time>2026-05-02T05:41:43Z</time></trkpt><trkpt lat="41.99079172620593" lon="2.8098648977900176"><ele>77.0</ele><time>2026-05-02T05:41:45Z</time></trkpt><trkpt lat="41.99085947379949" lon="2.809836744734679"><ele>76.5</ele><time>2026-05-02T05:41:47Z</time></trkpt><trkpt lat="41.99094882997541" lon="2.8098588296370233"><ele>76.0</ele><time>2026-05-02T05:41:50Z</time></trkpt><trkpt lat="41.9910220821965" lon="2.809968137368102"><ele>76.0</ele><time>2026-05-02T05:41:52Z</time></trkpt><trkpt lat="41.991080926769236" lon="2.810094061307445"><ele>76.0</ele><time>2026-05-02T05:41:54Z</time></trkpt><trkpt lat="41.99115031744524" lon="2.8102248047828993"><ele>76.0</ele><time>2026-05-02T05:41:56Z</time></trkpt><trkpt lat="41.991188597083834" lon="2.8103044771354786"><ele>76.0</ele><time>2026-05-02T05:41:57Z</time></trkpt><trkpt lat="41.99123019357302" lon="2.81038398341966"><ele>76.0</ele><time>2026-05-02T05:41:58Z</time></trkpt><trkpt lat="41.991274870448166" lon="2.810460736474413"><ele>76.0</ele><time>2026-05-02T05:41:59Z</time></trkpt><trkpt lat="41.991324207922965" lon="2.8105394310989764"><ele>76.0</ele><time>2026-05-02T05:42:00Z</time></trkpt><trkpt lat="41.99137600892213" lon="2.8106183514903997"><ele>76.0</ele><time>2026-05-02T05:42:01Z</time></trkpt><trkpt lat="41.991431893596705" lon="2.810700966677231"><ele>76.0</ele><time>2026-05-02T05:42:02Z</time></trkpt><trkpt lat="41.99149163704379" lon="2.8107797226036473"><ele>76.0</ele><time>2026-05-02T05:42:03Z</time></trkpt><trkpt lat="41.99155441030863" lon="2.8108615241687724"><ele>76.0</ele><time>2026-05-02T05:42:04Z</time></trkpt><trkpt lat="41.991620512460166" lon="2.810943614311051"><ele>76.0</ele><time>2026-05-02T05:42:05Z</time></trkpt><trkpt lat="41.99169041999824" lon="2.811019888990466"><ele>76.0</ele><time>2026-05-02T05:42:06Z</time></trkpt><trkpt lat="41.99175775294495" lon="2.811092785991521"><ele>76.0</ele><time>2026-05-02T05:42:07Z</time></trkpt><trkpt lat="41.99181820910306" lon="2.8111608601723876"><ele>76.0</ele><time>2026-05-02T05:42:08Z</time></trkpt><trkpt lat="41.991874668844105" lon="2.8112246251298005"><ele>76.0</ele><time>2026-05-02T05:42:09Z</time></trkpt><trkpt lat="41.99192845105233" lon="2.81129039295803"><ele>76.0</ele><time>2026-05-02T05:42:10Z</time></trkpt><trkpt lat="41.991977849069535" lon="2.8113604987860947"><ele>76.0</ele><time>2026-05-02T05:42:11Z</time></trkpt><trkpt lat="41.99202470594225" lon="2.811439103479246"><ele>76.0</ele><time>2026-05-02T05:42:12Z</time></trkpt><trkpt lat="41.99205483119527" lon="2.811526456896408"><ele>76.0</ele><time>2026-05-02T05:42:13Z</time></trkpt><trkpt lat="41.992067269155676" lon="2.8116207364308097"><ele>76.0</ele><time>2026-05-02T05:42:14Z</time></trkpt><trkpt lat="41.992079203990464" lon="2.8117140954578037"><ele>76.0</ele><time>2026-05-02T05:42:15Z</time></trkpt><trkpt lat="41.99210198320332" lon="2.8118048087467225"><ele>76.0</ele><time>2026-05-02T05:42:16Z</time></trkpt><trkpt lat="41.99214316267482" lon="2.8118793743057307"><ele>76.0</ele><time>2026-05-02T05:42:17Z</time></trkpt><trkpt lat="41.99219319189348" lon="2.8119382528878862"><ele>76.0</ele><time>2026-05-02T05:42:18Z</time></trkpt><trkpt lat="41.99225629891028" lon="2.811975514002815"><ele>76.28571428571428</ele><time>2026-05-02T05:42:19Z</time></trkpt><trkpt lat="41.99232250629641" lon="2.811996541964258"><ele>76.57142857142858</ele><time>2026-05-02T05:42:20Z</time></trkpt><trkpt lat="41.9923921685437" lon="2.811999149228291"><ele>76.85714285714286</ele><time>2026-05-02T05:42:21Z</time></trkpt><trkpt lat="41.99246084506179" lon="2.8119888514708884"><ele>77.14285714285714</ele><time>2026-05-02T05:42:22Z</time></trkpt><trkpt lat="41.99252802261171" lon="2.811991164051274"><ele>77.42857142857142</ele><time>2026-05-02T05:42:23Z</time></trkpt><trkpt lat="41.99259235254681" lon="2.8120173127837154"><ele>77.71428571428572</ele><time>2026-05-02T05:42:24Z</time></trkpt><trkpt lat="41.99264976864378" lon="2.812064053611244"><ele>78.0</ele><time>2026-05-02T05:42:25Z</time></trkpt><trkpt lat="41.992698214631524" lon="2.812119237117983"><ele>78.14285714285715</ele><time>2026-05-02T05:42:26Z</time></trkpt><trkpt lat="41.99275094352372" lon="2.8121828833811446"><ele>78.28571428571428</ele><time>2026-05-02T05:42:27Z</time></trkpt><trkpt lat="41.99280330693546" lon="2.812245403882399"><ele>78.42857142857143</ele><time>2026-05-02T05:42:28Z</time></trkpt><trkpt lat="41.99285939823514" lon="2.8123084583935625"><ele>78.57142857142858</ele><time>2026-05-02T05:42:29Z</time></trkpt><trkpt lat="41.992916801585615" lon="2.8123718817737076"><ele>78.71428571428572</ele><time>2026-05-02T05:42:30Z</time></trkpt><trkpt lat="41.99297388860602" lon="2.8124324599200152"><ele>78.85714285714286</ele><time>2026-05-02T05:42:31Z</time></trkpt><trkpt lat="41.993029650775995" lon="2.8124941842965367"><ele>79.0</ele><time>2026-05-02T05:42:32Z</time></trkpt><trkpt lat="41.99308539007181" lon="2.8125562817118164"><ele>79.00000000000001</ele><time>2026-05-02T05:42:33Z</time></trkpt><trkpt lat="41.99313961954492" lon="2.8126156696023896"><ele>79.0</ele><time>2026-05-02T05:42:34Z</time></trkpt><trkpt lat="41.99319656351276" lon="2.812675385649799"><ele>79.0</ele><time>2026-05-02T05:42:35Z</time></trkpt><trkpt lat="41.99325499184122" lon="2.812736771253346"><ele>79.0</ele><time>2026-05-02T05:42:36Z</time></trkpt><trkpt lat="41.99331339292086" lon="2.8128012279421872"><ele>79.0</ele><time>2026-05-02T05:42:37Z</time></trkpt><trkpt lat="41.9933703752556" lon="2.8128651439003924"><ele>79.00000000000001</ele><time>2026-05-02T05:42:38Z</time></trkpt><trkpt lat="41.99342910475504" lon="2.8129274437611023"><ele>79.0</ele><time>2026-05-02T05:42:39Z</time></trkpt><trkpt lat="41.993487411407635" lon="2.8129907817534323"><ele>79.42857142857143</ele><time>2026-05-02T05:42:40Z</time></trkpt><trkpt lat="41.993544424329336" lon="2.813056222639489"><ele>79.85714285714286</ele><time>2026-05-02T05:42:41Z</time></trkpt><trkpt lat="41.99360269640024" lon="2.813118498302654"><ele>80.28571428571428</ele><time>2026-05-02T05:42:42Z</time></trkpt><trkpt lat="41.99366036181269" lon="2.8131818849596573"><ele>80.71428571428572</ele><time>2026-05-02T05:42:43Z</time></trkpt><trkpt lat="41.99371265500491" lon="2.8132458823802704"><ele>81.14285714285714</ele><time>2026-05-02T05:42:44Z</time></trkpt><trkpt lat="41.99376831590341" lon="2.8133071995441488"><ele>81.57142857142857</ele><time>2026-05-02T05:42:44.999Z</time></trkpt><trkpt lat="41.99382581538795" lon="2.8133663910082776"><ele>82.0</ele><time>2026-05-02T05:42:45.999Z</time></trkpt><trkpt lat="41.993883553364746" lon="2.8134288361218385"><ele>81.5</ele><time>2026-05-02T05:42:46.999Z</time></trkpt><trkpt lat="41.99394219902188" lon="2.813491373597281"><ele>81.0</ele><time>2026-05-02T05:42:47.999Z</time></trkpt><trkpt lat="41.993999017610804" lon="2.8135509064131736"><ele>80.5</ele><time>2026-05-02T05:42:48.999Z</time></trkpt><trkpt lat="41.99405742298181" lon="2.813617923161152"><ele>80.0</ele><time>2026-05-02T05:42:49.999Z</time></trkpt><trkpt lat="41.99411602115593" lon="2.8136809461781684"><ele>79.5</ele><time>2026-05-02T05:42:50.999Z</time></trkpt><trkpt lat="41.99417389234735" lon="2.813747217060978"><ele>79.0</ele><time>2026-05-02T05:42:51.999Z</time></trkpt><trkpt lat="41.994231124362436" lon="2.8138122852282055"><ele>81.33333333333333</ele><time>2026-05-02T05:42:52.999Z</time></trkpt><trkpt lat="41.994289572750056" lon="2.8138818112005475"><ele>83.66666666666666</ele><time>2026-05-02T05:42:53.999Z</time></trkpt><trkpt lat="41.99434848478054" lon="2.8139480145156357"><ele>86.0</ele><time>2026-05-02T05:42:54.999Z</time></trkpt><trkpt lat="41.994408380327734" lon="2.8140138807963693"><ele>88.33333333333333</ele><time>2026-05-02T05:42:55.999Z</time></trkpt><trkpt lat="41.99446778978609" lon="2.8140805743049153"><ele>90.66666666666667</ele><time>2026-05-02T05:42:56.999Z</time></trkpt><trkpt lat="41.99452659588523" lon="2.814145698216242"><ele>93.0</ele><time>2026-05-02T05:42:57.999Z</time></trkpt><trkpt lat="41.99458799110906" lon="2.814212062197265"><ele>93.0</ele><time>2026-05-02T05:42:58.999Z</time></trkpt><trkpt lat="41.994649753103" lon="2.8142786328778255"><ele>93.0</ele><time>2026-05-02T05:42:59.999Z</time></trkpt><trkpt lat="41.99470946178484" lon="2.814343996857626"><ele>93.0</ele><time>2026-05-02T05:43:00.999Z</time></trkpt><trkpt lat="41.99476874153698" lon="2.8144121696722935"><ele>93.0</ele><time>2026-05-02T05:43:01.999Z</time></trkpt><trkpt lat="41.994826323930035" lon="2.8144795704136962"><ele>93.0</ele><time>2026-05-02T05:43:02.999Z</time></trkpt><trkpt lat="41.994883544011145" lon="2.814545326889313"><ele>93.0</ele><time>2026-05-02T05:43:03.999Z</time></trkpt><trkpt lat="41.9949419289889" lon="2.814610459933244"><ele>92.71428571428572</ele><time>2026-05-02T05:43:04.999Z</time></trkpt><trkpt lat="41.9950024833644" lon="2.8146723474680773"><ele>92.42857142857143</ele><time>2026-05-02T05:43:05.999Z</time></trkpt><trkpt lat="41.995061268246" lon="2.814733041824048"><ele>92.14285714285714</ele><time>2026-05-02T05:43:06.999Z</time></trkpt><trkpt lat="41.99511539782792" lon="2.8147926503788683"><ele>91.85714285714286</ele><time>2026-05-02T05:43:07.999Z</time></trkpt><trkpt lat="41.99516912929931" lon="2.814853965615443"><ele>91.57142857142857</ele><time>2026-05-02T05:43:08.999Z</time></trkpt><trkpt lat="41.99522075058738" lon="2.8149129746161536"><ele>91.28571428571429</ele><time>2026-05-02T05:43:09.999Z</time></trkpt><trkpt lat="41.995272814188404" lon="2.814974049451636"><ele>91.0</ele><time>2026-05-02T05:43:10.999Z</time></trkpt><trkpt lat="41.995326847241884" lon="2.8150321413704478"><ele>91.0</ele><time>2026-05-02T05:43:11.999Z</time></trkpt><trkpt lat="41.995381884882036" lon="2.8150889263655166"><ele>91.0</ele><time>2026-05-02T05:43:12.999Z</time></trkpt><trkpt lat="41.99543606333343" lon="2.8151445631603855"><ele>91.0</ele><time>2026-05-02T05:43:13.999Z</time></trkpt><trkpt lat="41.99549244929082" lon="2.815199497416236"><ele>91.0</ele><time>2026-05-02T05:43:14.999Z</time></trkpt><trkpt lat="41.99554814956839" lon="2.8152579317729693"><ele>91.0</ele><time>2026-05-02T05:43:15.999Z</time></trkpt><trkpt lat="41.995604204951704" lon="2.815314105910229"><ele>91.0</ele><time>2026-05-02T05:43:16.999Z</time></trkpt><trkpt lat="41.99565637787218" lon="2.815370953426017"><ele>91.0</ele><time>2026-05-02T05:43:17.999Z</time></trkpt><trkpt lat="41.99571162957149" lon="2.815426174459963"><ele>90.71428571428571</ele><time>2026-05-02T05:43:18.999Z</time></trkpt><trkpt lat="41.995767946985154" lon="2.8154796957175785"><ele>90.42857142857143</ele><time>2026-05-02T05:43:19.999Z</time></trkpt><trkpt lat="41.9958243506822" lon="2.8155330371108676"><ele>90.14285714285714</ele><time>2026-05-02T05:43:20.999Z</time></trkpt><trkpt lat="41.99588410366924" lon="2.81558738896066"><ele>89.85714285714286</ele><time>2026-05-02T05:43:21.999Z</time></trkpt><trkpt lat="41.99594712871501" lon="2.81564151355646"><ele>89.57142857142857</ele><time>2026-05-02T05:43:22.999Z</time></trkpt><trkpt lat="41.9960006545375" lon="2.8157091314959786"><ele>89.28571428571428</ele><time>2026-05-02T05:43:23.999Z</time></trkpt><trkpt lat="41.99606448722447" lon="2.8157612694165106"><ele>89.0</ele><time>2026-05-02T05:43:24.999Z</time></trkpt><trkpt lat="41.99613014918376" lon="2.8158082576915486"><ele>89.0</ele><time>2026-05-02T05:43:25.999Z</time></trkpt><trkpt lat="41.99620269155376" lon="2.8158558001481246"><ele>89.0</ele><time>2026-05-02T05:43:26.999Z</time></trkpt><trkpt lat="41.996273894186515" lon="2.8158984443076975"><ele>89.0</ele><time>2026-05-02T05:43:27.999Z</time></trkpt><trkpt lat="41.99635609919136" lon="2.815921407531503"><ele>89.0</ele><time>2026-05-02T05:43:28.999Z</time></trkpt><trkpt lat="41.996431110233836" lon="2.8159636707407762"><ele>89.0</ele><time>2026-05-02T05:43:29.999Z</time></trkpt><trkpt lat="41.99650370500909" lon="2.8160067579071293"><ele>89.0</ele><time>2026-05-02T05:43:30.999Z</time></trkpt><trkpt lat="41.99657883705773" lon="2.8160472980402127"><ele>88.16666666666667</ele><time>2026-05-02T05:43:31.999Z</time></trkpt><trkpt lat="41.99665534607803" lon="2.8160907885554867"><ele>87.33333333333334</ele><time>2026-05-02T05:43:32.999Z</time></trkpt><trkpt lat="41.99673497310278" lon="2.816130593227898"><ele>86.5</ele><time>2026-05-02T05:43:33.999Z</time></trkpt><trkpt lat="41.99681359760235" lon="2.8161726093221997"><ele>85.66666666666667</ele><time>2026-05-02T05:43:34.999Z</time></trkpt><trkpt lat="41.996890521454056" lon="2.8162088073257587"><ele>84.83333333333333</ele><time>2026-05-02T05:43:35.999Z</time></trkpt><trkpt lat="41.99696779829946" lon="2.816239671068907"><ele>84.0</ele><time>2026-05-02T05:43:36.999Z</time></trkpt><trkpt lat="41.99704812571847" lon="2.816266490981621"><ele>84.0</ele><time>2026-05-02T05:43:37.999Z</time></trkpt><trkpt lat="41.99712951719212" lon="2.81630148156219"><ele>84.0</ele><time>2026-05-02T05:43:38.999Z</time></trkpt><trkpt lat="41.997211655080264" lon="2.8163401395642946"><ele>84.0</ele><time>2026-05-02T05:43:39.999Z</time></trkpt><trkpt lat="41.99729684743794" lon="2.816378487095783"><ele>84.0</ele><time>2026-05-02T05:43:40.999Z</time></trkpt><trkpt lat="41.99738333512065" lon="2.816414037982881"><ele>84.0</ele><time>2026-05-02T05:43:41.999Z</time></trkpt><trkpt lat="41.997471967933215" lon="2.816453246712479"><ele>84.0</ele><time>2026-05-02T05:43:42.999Z</time></trkpt><trkpt lat="41.997556943472816" lon="2.8164961414433796"><ele>83.6</ele><time>2026-05-02T05:43:43.999Z</time></trkpt><trkpt lat="41.99764429092791" lon="2.8165391096122487"><ele>83.2</ele><time>2026-05-02T05:43:44.999Z</time></trkpt><trkpt lat="41.99773423793326" lon="2.8165823650885216"><ele>82.8</ele><time>2026-05-02T05:43:45.999Z</time></trkpt><trkpt lat="41.99782367708516" lon="2.8166285778308615"><ele>82.39999999999999</ele><time>2026-05-02T05:43:46.999Z</time></trkpt><trkpt lat="41.99791878400224" lon="2.8166788469054995"><ele>82.0</ele><time>2026-05-02T05:43:48Z</time></trkpt><trkpt lat="41.998016932683015" lon="2.8167278864535663"><ele>82.0</ele><time>2026-05-02T05:43:49Z</time></trkpt><trkpt lat="41.99812265297504" lon="2.8167772997773017"><ele>82.0</ele><time>2026-05-02T05:43:50Z</time></trkpt><trkpt lat="41.99822649733507" lon="2.8168147435030106"><ele>82.0</ele><time>2026-05-02T05:43:51Z</time></trkpt><trkpt lat="41.99833709449014" lon="2.8168583530162525"><ele>82.0</ele><time>2026-05-02T05:43:52Z</time></trkpt><trkpt lat="41.99845184556033" lon="2.816902476511804"><ele>80.75</ele><time>2026-05-02T05:43:53Z</time></trkpt><trkpt lat="41.998561349848295" lon="2.8169556985222166"><ele>79.5</ele><time>2026-05-02T05:43:54Z</time></trkpt><trkpt lat="41.99867579916116" lon="2.817006520938473"><ele>78.25</ele><time>2026-05-02T05:43:55Z</time></trkpt><trkpt lat="41.99878499458528" lon="2.8170581102550316"><ele>77.0</ele><time>2026-05-02T05:43:56Z</time></trkpt><trkpt lat="41.99889824917361" lon="2.817114436235446"><ele>77.0</ele><time>2026-05-02T05:43:57Z</time></trkpt><trkpt lat="41.99900791646321" lon="2.817169525227567"><ele>77.0</ele><time>2026-05-02T05:43:58Z</time></trkpt><trkpt lat="41.999115956864856" lon="2.8172237550011676"><ele>77.0</ele><time>2026-05-02T05:43:59Z</time></trkpt><trkpt lat="41.999216562811455" lon="2.817273132551457"><ele>77.0</ele><time>2026-05-02T05:44:00Z</time></trkpt><trkpt lat="41.999303021793715" lon="2.8173126437030147"><ele>77.0</ele><time>2026-05-02T05:44:01Z</time></trkpt><trkpt lat="41.999379837731716" lon="2.8173516330754347"><ele>77.0</ele><time>2026-05-02T05:44:02Z</time></trkpt><trkpt lat="41.9994452941863" lon="2.8173909995655784"><ele>77.0</ele><time>2026-05-02T05:44:03Z</time></trkpt><trkpt lat="41.99950322045538" lon="2.817441998960503"><ele>77.0</ele><time>2026-05-02T05:44:04Z</time></trkpt><trkpt lat="41.999553394485645" lon="2.817506841642758"><ele>77.0</ele><time>2026-05-02T05:44:05Z</time></trkpt><trkpt lat="41.999591935322606" lon="2.81758171628597"><ele>77.0</ele><time>2026-05-02T05:44:06Z</time></trkpt><trkpt lat="41.999627559778716" lon="2.8176628581283287"><ele>77.0</ele><time>2026-05-02T05:44:07Z</time></trkpt><trkpt lat="41.99966706303653" lon="2.817736280310684"><ele>77.0</ele><time>2026-05-02T05:44:08Z</time></trkpt><trkpt lat="41.99971809903793" lon="2.8177888627877503"><ele>77.0</ele><time>2026-05-02T05:44:09Z</time></trkpt><trkpt lat="41.999779645624585" lon="2.8178203517129154"><ele>77.0</ele><time>2026-05-02T05:44:10Z</time></trkpt><trkpt lat="41.99984734252816" lon="2.8178253149745527"><ele>77.0</ele><time>2026-05-02T05:44:11Z</time></trkpt><trkpt lat="41.99991343589067" lon="2.8178058491715388"><ele>77.0</ele><time>2026-05-02T05:44:12Z</time></trkpt><trkpt lat="41.999970664061905" lon="2.817762638551582"><ele>77.0</ele><time>2026-05-02T05:44:13Z</time></trkpt><trkpt lat="42.000015969469345" lon="2.817691504624146"><ele>77.0</ele><time>2026-05-02T05:44:14Z</time></trkpt><trkpt lat="42.00004388586659" lon="2.817597559987899"><ele>77.0</ele><time>2026-05-02T05:44:15Z</time></trkpt><trkpt lat="42.00006864651703" lon="2.817499168003618"><ele>76.66666666666667</ele><time>2026-05-02T05:44:16Z</time></trkpt><trkpt lat="42.0000969368322" lon="2.8173976595286776"><ele>76.33333333333334</ele><time>2026-05-02T05:44:17Z</time></trkpt><trkpt lat="42.00012892424506" lon="2.8172970683660603"><ele>76.0</ele><time>2026-05-02T05:44:18Z</time></trkpt><trkpt lat="42.00016886561006" lon="2.817199794399567"><ele>75.66666666666667</ele><time>2026-05-02T05:44:19Z</time></trkpt><trkpt lat="42.00022145993018" lon="2.817118252075395"><ele>75.33333333333333</ele><time>2026-05-02T05:44:20Z</time></trkpt><trkpt lat="42.00028639321289" lon="2.8170465602518338"><ele>75.0</ele><time>2026-05-02T05:44:21Z</time></trkpt><trkpt lat="42.00035709310424" lon="2.816983316503379"><ele>75.0</ele><time>2026-05-02T05:44:22Z</time></trkpt><trkpt lat="42.0004316937989" lon="2.8169212006606923"><ele>75.0</ele><time>2026-05-02T05:44:23Z</time></trkpt><trkpt lat="42.00051069800733" lon="2.816859177090808"><ele>75.0</ele><time>2026-05-02T05:44:24Z</time></trkpt><trkpt lat="42.0005920408484" lon="2.816794624331956"><ele>75.0</ele><time>2026-05-02T05:44:25Z</time></trkpt><trkpt lat="42.00067749368073" lon="2.8167256585177034"><ele>75.0</ele><time>2026-05-02T05:44:26Z</time></trkpt><trkpt lat="42.00076852813133" lon="2.8166615899619294"><ele>74.8</ele><time>2026-05-02T05:44:27Z</time></trkpt><trkpt lat="42.00085985107316" lon="2.8165900744629133"><ele>74.6</ele><time>2026-05-02T05:44:28Z</time></trkpt><trkpt lat="42.00096068222685" lon="2.8165270926158534"><ele>74.4</ele><time>2026-05-02T05:44:29Z</time></trkpt><trkpt lat="42.00106355925837" lon="2.8164685179606335"><ele>74.2</ele><time>2026-05-02T05:44:30Z</time></trkpt><trkpt lat="42.00116788523729" lon="2.8164197491641167"><ele>74.0</ele><time>2026-05-02T05:44:31Z</time></trkpt><trkpt lat="42.00127654202777" lon="2.8163749785061607"><ele>74.0</ele><time>2026-05-02T05:44:32Z</time></trkpt><trkpt lat="42.001391027006434" lon="2.8163399135336795"><ele>74.0</ele><time>2026-05-02T05:44:33Z</time></trkpt><trkpt lat="42.001504258605586" lon="2.8163110310256934"><ele>74.0</ele><time>2026-05-02T05:44:34Z</time></trkpt><trkpt lat="42.001622809099445" lon="2.816293348550949"><ele>74.0</ele><time>2026-05-02T05:44:35Z</time></trkpt><trkpt lat="42.00173970138132" lon="2.816273026682151"><ele>73.5</ele><time>2026-05-02T05:44:36Z</time></trkpt><trkpt lat="42.001856162254754" lon="2.81625248622562"><ele>73.0</ele><time>2026-05-02T05:44:37Z</time></trkpt><trkpt lat="42.00197547795852" lon="2.8162367212914696"><ele>72.5</ele><time>2026-05-02T05:44:38Z</time></trkpt><trkpt lat="42.00209576266598" lon="2.8162280416336403"><ele>72.0</ele><time>2026-05-02T05:44:39Z</time></trkpt><trkpt lat="42.002210921234976" lon="2.8162099960340106"><ele>72.0</ele><time>2026-05-02T05:44:40Z</time></trkpt><trkpt lat="42.00232431253886" lon="2.8161798132211233"><ele>72.0</ele><time>2026-05-02T05:44:41Z</time></trkpt><trkpt lat="42.00243605319387" lon="2.816146090604471"><ele>72.0</ele><time>2026-05-02T05:44:42Z</time></trkpt><trkpt lat="42.00254572386552" lon="2.8161171108476455"><ele>72.0</ele><time>2026-05-02T05:44:43Z</time></trkpt><trkpt lat="42.00265656898759" lon="2.8160927671863996"><ele>71.25</ele><time>2026-05-02T05:44:44Z</time></trkpt><trkpt lat="42.002768402906504" lon="2.8160706795351063"><ele>70.5</ele><time>2026-05-02T05:44:45Z</time></trkpt><trkpt lat="42.002884969868745" lon="2.816055217637439"><ele>69.75</ele><time>2026-05-02T05:44:46Z</time></trkpt><trkpt lat="42.003000543048174" lon="2.8160501014503008"><ele>69.0</ele><time>2026-05-02T05:44:47Z</time></trkpt><trkpt lat="42.003117601770946" lon="2.816064264301068"><ele>69.0</ele><time>2026-05-02T05:44:48Z</time></trkpt><trkpt lat="42.00323433165189" lon="2.8160838548050706"><ele>69.0</ele><time>2026-05-02T05:44:49Z</time></trkpt><trkpt lat="42.00335019823956" lon="2.816107768883254"><ele>69.0</ele><time>2026-05-02T05:44:50Z</time></trkpt><trkpt lat="42.00346652190143" lon="2.8161311250949863"><ele>69.0</ele><time>2026-05-02T05:44:51Z</time></trkpt><trkpt lat="42.003580889526354" lon="2.8161495433827057"><ele>68.60000000000001</ele><time>2026-05-02T05:44:52Z</time></trkpt><trkpt lat="42.00369421946835" lon="2.816164209185804"><ele>68.2</ele><time>2026-05-02T05:44:52.999Z</time></trkpt><trkpt lat="42.003805445605735" lon="2.8161773206768688"><ele>67.80000000000001</ele><time>2026-05-02T05:44:53.999Z</time></trkpt><trkpt lat="42.00391636038139" lon="2.8161946041081554"><ele>67.4</ele><time>2026-05-02T05:44:54.999Z</time></trkpt><trkpt lat="42.00402471607967" lon="2.816212425342785"><ele>67.0</ele><time>2026-05-02T05:44:55.999Z</time></trkpt><trkpt lat="42.00413446080041" lon="2.816229354261094"><ele>67.4</ele><time>2026-05-02T05:44:56.999Z</time></trkpt><trkpt lat="42.00424506000343" lon="2.816242288683241"><ele>67.80000000000001</ele><time>2026-05-02T05:44:57.999Z</time></trkpt><trkpt lat="42.00435471967465" lon="2.8162595544276536"><ele>68.2</ele><time>2026-05-02T05:44:58.999Z</time></trkpt><trkpt lat="42.004465791587805" lon="2.816274226451219"><ele>68.60000000000001</ele><time>2026-05-02T05:44:59.999Z</time></trkpt><trkpt lat="42.00457178550428" lon="2.8162869195410307"><ele>69.0</ele><time>2026-05-02T05:45:00.999Z</time></trkpt><trkpt lat="42.0046803726122" lon="2.8163049281733223"><ele>69.0</ele><time>2026-05-02T05:45:01.999Z</time></trkpt><trkpt lat="42.004790375249655" lon="2.8163231634203454"><ele>69.0</ele><time>2026-05-02T05:45:02.999Z</time></trkpt><trkpt lat="42.00490123562899" lon="2.8163420871285356"><ele>69.0</ele><time>2026-05-02T05:45:03.999Z</time></trkpt><trkpt lat="42.005012924518034" lon="2.8163623718732147"><ele>69.0</ele><time>2026-05-02T05:45:04.999Z</time></trkpt><trkpt lat="42.00512404815718" lon="2.816381551878963"><ele>69.0</ele><time>2026-05-02T05:45:05.999Z</time></trkpt><trkpt lat="42.00523446688825" lon="2.816401786968711"><ele>68.75</ele><time>2026-05-02T05:45:06.999Z</time></trkpt><trkpt lat="42.00534701415971" lon="2.8164222241046404"><ele>68.5</ele><time>2026-05-02T05:45:07.999Z</time></trkpt><trkpt lat="42.00545835380258" lon="2.8164386562286303"><ele>68.25</ele><time>2026-05-02T05:45:08.999Z</time></trkpt><trkpt lat="42.0055714126896" lon="2.816457257303388"><ele>68.0</ele><time>2026-05-02T05:45:09.999Z</time></trkpt><trkpt lat="42.005685108213456" lon="2.8164760760013348"><ele>68.0</ele><time>2026-05-02T05:45:10.999Z</time></trkpt><trkpt lat="42.00579822784569" lon="2.816492684842574"><ele>68.0</ele><time>2026-05-02T05:45:11.999Z</time></trkpt><trkpt lat="42.00591077721795" lon="2.8165102326407876"><ele>68.0</ele><time>2026-05-02T05:45:12.999Z</time></trkpt><trkpt lat="42.00602336695404" lon="2.816528593555566"><ele>68.0</ele><time>2026-05-02T05:45:13.999Z</time></trkpt><trkpt lat="42.0061351370293" lon="2.8165455851618697"><ele>68.2</ele><time>2026-05-02T05:45:14.999Z</time></trkpt><trkpt lat="42.00624531823534" lon="2.8165646122868715"><ele>68.4</ele><time>2026-05-02T05:45:15.999Z</time></trkpt><trkpt lat="42.00635604387361" lon="2.8165843842363536"><ele>68.60000000000001</ele><time>2026-05-02T05:45:16.999Z</time></trkpt><trkpt lat="42.00646522753828" lon="2.816602505536381"><ele>68.8</ele><time>2026-05-02T05:45:17.999Z</time></trkpt><trkpt lat="42.00657354947212" lon="2.8166198576448327"><ele>69.0</ele><time>2026-05-02T05:45:18.999Z</time></trkpt><trkpt lat="42.006683687919335" lon="2.8166358917644247"><ele>68.4</ele><time>2026-05-02T05:45:19.999Z</time></trkpt><trkpt lat="42.006793029514355" lon="2.8166524956586274"><ele>67.80000000000001</ele><time>2026-05-02T05:45:20.999Z</time></trkpt><trkpt lat="42.00690284556523" lon="2.8166715869927788"><ele>67.19999999999999</ele><time>2026-05-02T05:45:21.999Z</time></trkpt><trkpt lat="42.00701427457738" lon="2.816688167458381"><ele>66.6</ele><time>2026-05-02T05:45:22.999Z</time></trkpt><trkpt lat="42.00712512684055" lon="2.8167067635046874"><ele>66.0</ele><time>2026-05-02T05:45:23.999Z</time></trkpt><trkpt lat="42.007236951408075" lon="2.8167252794056172"><ele>66.0</ele><time>2026-05-02T05:45:24.999Z</time></trkpt><trkpt lat="42.00734747008538" lon="2.816739576402574"><ele>66.0</ele><time>2026-05-02T05:45:25.999Z</time></trkpt><trkpt lat="42.007458777567926" lon="2.8167579895555885"><ele>66.0</ele><time>2026-05-02T05:45:26.999Z</time></trkpt><trkpt lat="42.00757076957542" lon="2.816775041542925"><ele>66.0</ele><time>2026-05-02T05:45:27.999Z</time></trkpt><trkpt lat="42.007683284688476" lon="2.8167924931380455"><ele>66.0</ele><time>2026-05-02T05:45:28.999Z</time></trkpt><trkpt lat="42.00779415210513" lon="2.816812701496728"><ele>65.6</ele><time>2026-05-02T05:45:29.999Z</time></trkpt><trkpt lat="42.007898817274636" lon="2.8168319218650026"><ele>65.19999999999999</ele><time>2026-05-02T05:45:30.999Z</time></trkpt><trkpt lat="42.00800313651026" lon="2.816848937164228"><ele>64.80000000000001</ele><time>2026-05-02T05:45:31.999Z</time></trkpt><trkpt lat="42.00810552846643" lon="2.8168661619563875"><ele>64.4</ele><time>2026-05-02T05:45:32.999Z</time></trkpt><trkpt lat="42.00820628710655" lon="2.8168815519344568"><ele>64.0</ele><time>2026-05-02T05:45:33.999Z</time></trkpt><trkpt lat="42.008306261248215" lon="2.816897239342414"><ele>63.49999999999999</ele><time>2026-05-02T05:45:34.999Z</time></trkpt><trkpt lat="42.0084016616317" lon="2.8169111000381073"><ele>63.0</ele><time>2026-05-02T05:45:35.999Z</time></trkpt><trkpt lat="42.008492354031354" lon="2.8169275175598636"><ele>62.5</ele><time>2026-05-02T05:45:36.999Z</time></trkpt><trkpt lat="42.008574709888954" lon="2.8169463879566874"><ele>62.0</ele><time>2026-05-02T05:45:37.999Z</time></trkpt><trkpt lat="42.00865400034235" lon="2.816971108722147"><ele>61.49999999999999</ele><time>2026-05-02T05:45:38.999Z</time></trkpt><trkpt lat="42.008729327412674" lon="2.8170153106381277"><ele>61.0</ele><time>2026-05-02T05:45:39.999Z</time></trkpt><trkpt lat="42.00879806629215" lon="2.817076272811252"><ele>61.0</ele><time>2026-05-02T05:45:40.999Z</time></trkpt><trkpt lat="42.00886363433259" lon="2.8171521002890234"><ele>60.99999999999999</ele><time>2026-05-02T05:45:41.999Z</time></trkpt><trkpt lat="42.00893053888433" lon="2.8172307241455417"><ele>60.99999999999999</ele><time>2026-05-02T05:45:42.999Z</time></trkpt><trkpt lat="42.00901007779876" lon="2.817278758696317"><ele>61.0</ele><time>2026-05-02T05:45:43.999Z</time></trkpt><trkpt lat="42.009084194653795" lon="2.817370663329263"><ele>61.0</ele><time>2026-05-02T05:45:44.999Z</time></trkpt><trkpt lat="42.00916913426076" lon="2.817429676670072"><ele>61.199999999999996</ele><time>2026-05-02T05:45:45.999Z</time></trkpt><trkpt lat="42.00925784945836" lon="2.8174844843744538"><ele>61.39999999999999</ele><time>2026-05-02T05:45:46.999Z</time></trkpt><trkpt lat="42.00934683835838" lon="2.817543293253957"><ele>61.6</ele><time>2026-05-02T05:45:47.999Z</time></trkpt><trkpt lat="42.009434890660074" lon="2.8176024370834964"><ele>61.8</ele><time>2026-05-02T05:45:48.999Z</time></trkpt><trkpt lat="42.00952264809487" lon="2.817663113554772"><ele>62.0</ele><time>2026-05-02T05:45:49.999Z</time></trkpt><trkpt lat="42.00960878841078" lon="2.817723767792202"><ele>62.0</ele><time>2026-05-02T05:45:50.999Z</time></trkpt><trkpt lat="42.00969211552562" lon="2.817785313469077"><ele>62.0</ele><time>2026-05-02T05:45:51.999Z</time></trkpt><trkpt lat="42.00977354333714" lon="2.8178457237895773"><ele>62.0</ele><time>2026-05-02T05:45:52.999Z</time></trkpt><trkpt lat="42.00985425256149" lon="2.817905937386805"><ele>62.0</ele><time>2026-05-02T05:45:54Z</time></trkpt><trkpt lat="42.00993591405341" lon="2.8179654044449434"><ele>62.0</ele><time>2026-05-02T05:45:55Z</time></trkpt><trkpt lat="42.01001941338403" lon="2.8180265603012904"><ele>62.400000000000006</ele><time>2026-05-02T05:45:56Z</time></trkpt><trkpt lat="42.01010294732771" lon="2.8180859096800095"><ele>62.800000000000004</ele><time>2026-05-02T05:45:57Z</time></trkpt><trkpt lat="42.01018652247646" lon="2.8181463470181383"><ele>63.2</ele><time>2026-05-02T05:45:58Z</time></trkpt><trkpt lat="42.01027108860214" lon="2.8182066578029814"><ele>63.6</ele><time>2026-05-02T05:45:59Z</time></trkpt><trkpt lat="42.01035605155243" lon="2.818268857508102"><ele>64.0</ele><time>2026-05-02T05:46:00Z</time></trkpt><trkpt lat="42.010440873109864" lon="2.8183314177720353"><ele>64.0</ele><time>2026-05-02T05:46:01Z</time></trkpt><trkpt lat="42.010524652642694" lon="2.818395273260815"><ele>64.0</ele><time>2026-05-02T05:46:02Z</time></trkpt><trkpt lat="42.010608492124526" lon="2.818459047700928"><ele>64.0</ele><time>2026-05-02T05:46:03Z</time></trkpt><trkpt lat="42.010693247587916" lon="2.818520412380306"><ele>64.0</ele><time>2026-05-02T05:46:04Z</time></trkpt><trkpt lat="42.0107792625544" lon="2.8185821799861026"><ele>64.0</ele><time>2026-05-02T05:46:05Z</time></trkpt><trkpt lat="42.01086460276273" lon="2.8186448090433647"><ele>64.2</ele><time>2026-05-02T05:46:06Z</time></trkpt><trkpt lat="42.010950156023455" lon="2.818710990396065"><ele>64.4</ele><time>2026-05-02T05:46:07Z</time></trkpt><trkpt lat="42.011035933407726" lon="2.818775868149175"><ele>64.6</ele><time>2026-05-02T05:46:08Z</time></trkpt><trkpt lat="42.01112250791752" lon="2.8188405817967506"><ele>64.8</ele><time>2026-05-02T05:46:09Z</time></trkpt><trkpt lat="42.01120919214316" lon="2.8189065599682612"><ele>65.0</ele><time>2026-05-02T05:46:10Z</time></trkpt><trkpt lat="42.01129686228217" lon="2.8189717697855228"><ele>65.0</ele><time>2026-05-02T05:46:11Z</time></trkpt><trkpt lat="42.01138509660014" lon="2.819033460983188"><ele>65.0</ele><time>2026-05-02T05:46:12Z</time></trkpt><trkpt lat="42.011473514837974" lon="2.8190944224808523"><ele>65.0</ele><time>2026-05-02T05:46:13Z</time></trkpt><trkpt lat="42.011561925788556" lon="2.819157496515889"><ele>65.0</ele><time>2026-05-02T05:46:14Z</time></trkpt><trkpt lat="42.011651921248344" lon="2.819222554660301"><ele>65.0</ele><time>2026-05-02T05:46:15Z</time></trkpt><trkpt lat="42.01174230178034" lon="2.8192893571647795"><ele>65.6</ele><time>2026-05-02T05:46:16Z</time></trkpt><trkpt lat="42.01183287860644" lon="2.8193534815092405"><ele>66.2</ele><time>2026-05-02T05:46:17Z</time></trkpt><trkpt lat="42.011923980170934" lon="2.8194192533301825"><ele>66.8</ele><time>2026-05-02T05:46:18Z</time></trkpt><trkpt lat="42.012015090692955" lon="2.8194860921939116"><ele>67.4</ele><time>2026-05-02T05:46:19Z</time></trkpt><trkpt lat="42.01210706837803" lon="2.8195532323845796"><ele>68.0</ele><time>2026-05-02T05:46:20Z</time></trkpt><trkpt lat="42.01219878754487" lon="2.8196267325875035"><ele>68.0</ele><time>2026-05-02T05:46:21Z</time></trkpt><trkpt lat="42.01228571993515" lon="2.819699992599862"><ele>68.0</ele><time>2026-05-02T05:46:22Z</time></trkpt><trkpt lat="42.01237422207763" lon="2.8197805789001524"><ele>68.0</ele><time>2026-05-02T05:46:23Z</time></trkpt><trkpt lat="42.0124600720809" lon="2.819860712727416"><ele>68.0</ele><time>2026-05-02T05:46:24Z</time></trkpt><trkpt lat="42.01254527960987" lon="2.8199462126951373"><ele>68.0</ele><time>2026-05-02T05:46:25Z</time></trkpt><trkpt lat="42.012625291835526" lon="2.82004128537508"><ele>68.0</ele><time>2026-05-02T05:46:26Z</time></trkpt><trkpt lat="42.01270439034011" lon="2.820131645782817"><ele>68.0</ele><time>2026-05-02T05:46:27Z</time></trkpt><trkpt lat="42.01278559931869" lon="2.820223218961711"><ele>68.0</ele><time>2026-05-02T05:46:28Z</time></trkpt><trkpt lat="42.012868424545836" lon="2.8203120821025434"><ele>68.0</ele><time>2026-05-02T05:46:29Z</time></trkpt><trkpt lat="42.012947585856345" lon="2.820407079385136"><ele>68.0</ele><time>2026-05-02T05:46:30Z</time></trkpt><trkpt lat="42.01302513445039" lon="2.820503065586305"><ele>67.8</ele><time>2026-05-02T05:46:31Z</time></trkpt><trkpt lat="42.01310318960542" lon="2.8205941860894383"><ele>67.6</ele><time>2026-05-02T05:46:32Z</time></trkpt><trkpt lat="42.01317917460591" lon="2.820682969074603"><ele>67.4</ele><time>2026-05-02T05:46:33Z</time></trkpt><trkpt lat="42.0132522199683" lon="2.820771676807231"><ele>67.2</ele><time>2026-05-02T05:46:34Z</time></trkpt><trkpt lat="42.013326917166644" lon="2.8208609520558983"><ele>67.0</ele><time>2026-05-02T05:46:35Z</time></trkpt><trkpt lat="42.0133961192219" lon="2.8209458129766145"><ele>66.8</ele><time>2026-05-02T05:46:36Z</time></trkpt><trkpt lat="42.013465465521364" lon="2.8210274016359103"><ele>66.6</ele><time>2026-05-02T05:46:37Z</time></trkpt><trkpt lat="42.013532532969435" lon="2.821109932493277"><ele>66.39999999999999</ele><time>2026-05-02T05:46:38Z</time></trkpt><trkpt lat="42.01360383702193" lon="2.821194041567024"><ele>66.2</ele><time>2026-05-02T05:46:39Z</time></trkpt><trkpt lat="42.01366463253702" lon="2.8212868117429464"><ele>66.0</ele><time>2026-05-02T05:46:40Z</time></trkpt><trkpt lat="42.01372309078453" lon="2.8213898902654297"><ele>66.0</ele><time>2026-05-02T05:46:41Z</time></trkpt><trkpt lat="42.01376988442228" lon="2.8215068061530935"><ele>66.0</ele><time>2026-05-02T05:46:42Z</time></trkpt><trkpt lat="42.013804343449436" lon="2.821630666491967"><ele>66.0</ele><time>2026-05-02T05:46:43Z</time></trkpt><trkpt lat="42.01383048077373" lon="2.8217589862492996"><ele>66.0</ele><time>2026-05-02T05:46:44Z</time></trkpt><trkpt lat="42.01385490420036" lon="2.8218890653272832"><ele>66.0</ele><time>2026-05-02T05:46:45Z</time></trkpt><trkpt lat="42.01387735013656" lon="2.8220191682358635"><ele>65.8</ele><time>2026-05-02T05:46:46Z</time></trkpt><trkpt lat="42.013901628672166" lon="2.8221484474923546"><ele>65.6</ele><time>2026-05-02T05:46:47Z</time></trkpt><trkpt lat="42.01392536833121" lon="2.8222791982335624"><ele>65.4</ele><time>2026-05-02T05:46:48Z</time></trkpt><trkpt lat="42.01394909246867" lon="2.8224089512669472"><ele>65.2</ele><time>2026-05-02T05:46:49Z</time></trkpt><trkpt lat="42.01397238683904" lon="2.8225360957113175"><ele>65.0</ele><time>2026-05-02T05:46:50Z</time></trkpt><trkpt lat="42.01399615409685" lon="2.8226634840531966"><ele>63.6</ele><time>2026-05-02T05:46:51Z</time></trkpt><trkpt lat="42.0140206955373" lon="2.822789767544093"><ele>62.2</ele><time>2026-05-02T05:46:52Z</time></trkpt><trkpt lat="42.01404743001893" lon="2.822913292073247"><ele>60.8</ele><time>2026-05-02T05:46:53Z</time></trkpt><trkpt lat="42.01407251568197" lon="2.82303720753166"><ele>59.4</ele><time>2026-05-02T05:46:54Z</time></trkpt><trkpt lat="42.0141001149834" lon="2.8231560893232395"><ele>58.0</ele><time>2026-05-02T05:46:55Z</time></trkpt><trkpt lat="42.01412833223701" lon="2.8232732200072963"><ele>58.49999999999999</ele><time>2026-05-02T05:46:56Z</time></trkpt><trkpt lat="42.014158616889404" lon="2.823389194970379"><ele>59.0</ele><time>2026-05-02T05:46:57Z</time></trkpt><trkpt lat="42.01419081718872" lon="2.8235050915268456"><ele>59.5</ele><time>2026-05-02T05:46:58Z</time></trkpt><trkpt lat="42.01422581424368" lon="2.8236170539217724"><ele>60.0</ele><time>2026-05-02T05:46:59Z</time></trkpt><trkpt lat="42.014260001916654" lon="2.82372214663813"><ele>60.49999999999999</ele><time>2026-05-02T05:47:00Z</time></trkpt><trkpt lat="42.01429369440172" lon="2.8238251586443135"><ele>61.0</ele><time>2026-05-02T05:47:01Z</time></trkpt><trkpt lat="42.01432580001675" lon="2.8239254883242375"><ele>60.99999999999999</ele><time>2026-05-02T05:47:02Z</time></trkpt><trkpt lat="42.014358124603895" lon="2.824025038878512"><ele>61.0</ele><time>2026-05-02T05:47:03Z</time></trkpt><trkpt lat="42.01439079346567" lon="2.824127432658931"><ele>61.0</ele><time>2026-05-02T05:47:04Z</time></trkpt><trkpt lat="42.01442320362762" lon="2.8242269209799598"><ele>61.0</ele><time>2026-05-02T05:47:05Z</time></trkpt><trkpt lat="42.01445638573593" lon="2.8243133912420983"><ele>60.99999999999999</ele><time>2026-05-02T05:47:06Z</time></trkpt><trkpt lat="42.01449413606512" lon="2.824390680826476"><ele>61.0</ele><time>2026-05-02T05:47:07Z</time></trkpt><trkpt lat="42.01453583869001" lon="2.824464735131174"><ele>60.49999999999999</ele><time>2026-05-02T05:47:08Z</time></trkpt><trkpt lat="42.014571894369496" lon="2.8245390135357753"><ele>60.0</ele><time>2026-05-02T05:47:09Z</time></trkpt><trkpt lat="42.01464650623696" lon="2.8246327934347124"><ele>59.5</ele><time>2026-05-02T05:47:11Z</time></trkpt><trkpt lat="42.01454803902748" lon="2.8247610933116984"><ele>59.0</ele><time>2026-05-02T05:47:12Z</time></trkpt><trkpt lat="42.01450543343721" lon="2.8248325085984973"><ele>58.49999999999999</ele><time>2026-05-02T05:47:12.999Z</time></trkpt><trkpt lat="42.01445996981906" lon="2.824908714392153"><ele>58.0</ele><time>2026-05-02T05:47:13.999Z</time></trkpt><trkpt lat="42.01441235626829" lon="2.824988523936346"><ele>57.99999999999999</ele><time>2026-05-02T05:47:14.999Z</time></trkpt><trkpt lat="42.014363051751175" lon="2.8250711678262497"><ele>58.0</ele><time>2026-05-02T05:47:15.999Z</time></trkpt><trkpt lat="42.014312101512424" lon="2.825156570279536"><ele>58.0</ele><time>2026-05-02T05:47:16.999Z</time></trkpt><trkpt lat="42.01425948758483" lon="2.82524476139392"><ele>58.0</ele><time>2026-05-02T05:47:17.999Z</time></trkpt><trkpt lat="42.014205908753176" lon="2.825334224063611"><ele>57.99999999999999</ele><time>2026-05-02T05:47:18.999Z</time></trkpt><trkpt lat="42.014151511833134" lon="2.8254248855969704"><ele>58.0</ele><time>2026-05-02T05:47:19.999Z</time></trkpt><trkpt lat="42.01409674512944" lon="2.82551616343839"><ele>58.83333333333333</ele><time>2026-05-02T05:47:20.999Z</time></trkpt><trkpt lat="42.01404172203974" lon="2.825607868588393"><ele>59.666666666666664</ele><time>2026-05-02T05:47:21.999Z</time></trkpt><trkpt lat="42.01398719194659" lon="2.8256987520853256"><ele>60.5</ele><time>2026-05-02T05:47:22.999Z</time></trkpt><trkpt lat="42.013933594276736" lon="2.8257880815422456"><ele>61.33333333333333</ele><time>2026-05-02T05:47:23.999Z</time></trkpt><trkpt lat="42.01388330772803" lon="2.8258718028627645"><ele>62.166666666666664</ele><time>2026-05-02T05:47:24.999Z</time></trkpt><trkpt lat="42.01383369208855" lon="2.8259541289156465"><ele>63.0</ele><time>2026-05-02T05:47:25.999Z</time></trkpt><trkpt lat="42.01378500010568" lon="2.8260349223739527"><ele>63.2</ele><time>2026-05-02T05:47:26.999Z</time></trkpt><trkpt lat="42.01373796498916" lon="2.8261129666419067"><ele>63.4</ele><time>2026-05-02T05:47:27.999Z</time></trkpt><trkpt lat="42.013694009107176" lon="2.826188840729445"><ele>63.60000000000001</ele><time>2026-05-02T05:47:28.999Z</time></trkpt><trkpt lat="42.013654749472806" lon="2.8262581262194284"><ele>63.800000000000004</ele><time>2026-05-02T05:47:29.999Z</time></trkpt><trkpt lat="42.01358206167185" lon="2.826381017574086"><ele>64.0</ele><time>2026-05-02T05:47:31.999Z</time></trkpt><trkpt lat="42.013677908349955" lon="2.8266235277459257"><ele>64.0</ele><time>2026-05-02T05:47:33.999Z</time></trkpt><trkpt lat="42.01373080027975" lon="2.826714468597449"><ele>64.0</ele><time>2026-05-02T05:47:34.999Z</time></trkpt><trkpt lat="42.01379056790073" lon="2.826805056900331"><ele>64.0</ele><time>2026-05-02T05:47:35.999Z</time></trkpt><trkpt lat="42.01384924372339" lon="2.826898757323265"><ele>64.0</ele><time>2026-05-02T05:47:36.999Z</time></trkpt><trkpt lat="42.013906750458354" lon="2.8270000385536855"><ele>64.0</ele><time>2026-05-02T05:47:37.999Z</time></trkpt><trkpt lat="42.01396475174566" lon="2.8271083900501943"><ele>64.0</ele><time>2026-05-02T05:47:38.999Z</time></trkpt><trkpt lat="42.01402310139887" lon="2.8272202832805635"><ele>64.0</ele><time>2026-05-02T05:47:39.999Z</time></trkpt><trkpt lat="42.01408346437507" lon="2.827332502140522"><ele>64.0</ele><time>2026-05-02T05:47:40.999Z</time></trkpt><trkpt lat="42.01414708435053" lon="2.8274436511029153"><ele>64.0</ele><time>2026-05-02T05:47:41.999Z</time></trkpt><trkpt lat="42.0142120086165" lon="2.827554562887945"><ele>64.0</ele><time>2026-05-02T05:47:42.999Z</time></trkpt><trkpt lat="42.01427938969265" lon="2.8276634413435113"><ele>65.0</ele><time>2026-05-02T05:47:43.999Z</time></trkpt><trkpt lat="42.01434698164855" lon="2.827770689782359"><ele>66.0</ele><time>2026-05-02T05:47:44.999Z</time></trkpt><trkpt lat="42.01442430289199" lon="2.82786934747006"><ele>67.0</ele><time>2026-05-02T05:47:45.999Z</time></trkpt><trkpt lat="42.014504507247665" lon="2.827957998912977"><ele>68.0</ele><time>2026-05-02T05:47:46.999Z</time></trkpt><trkpt lat="42.0145845289418" lon="2.8280424393135197"><ele>69.0</ele><time>2026-05-02T05:47:47.999Z</time></trkpt><trkpt lat="42.01466734650771" lon="2.8281271155883236"><ele>69.0</ele><time>2026-05-02T05:47:48.999Z</time></trkpt><trkpt lat="42.01474978809301" lon="2.82821238738839"><ele>69.0</ele><time>2026-05-02T05:47:49.999Z</time></trkpt><trkpt lat="42.014830899492864" lon="2.8282952794787897"><ele>69.0</ele><time>2026-05-02T05:47:50.999Z</time></trkpt><trkpt lat="42.01491636632794" lon="2.8283638388033445"><ele>69.0</ele><time>2026-05-02T05:47:51.999Z</time></trkpt><trkpt lat="42.015008341814166" lon="2.8284064613963316"><ele>69.0</ele><time>2026-05-02T05:47:52.999Z</time></trkpt><trkpt lat="42.01510378523386" lon="2.828436559187574"><ele>68.0</ele><time>2026-05-02T05:47:53.999Z</time></trkpt><trkpt lat="42.01519758430776" lon="2.8284544043032342"><ele>67.0</ele><time>2026-05-02T05:47:54.999Z</time></trkpt><trkpt lat="42.0152882593346" lon="2.8284723120124573"><ele>66.0</ele><time>2026-05-02T05:47:55.999Z</time></trkpt><trkpt lat="42.01537664894306" lon="2.828489517139214"><ele>65.0</ele><time>2026-05-02T05:47:56.999Z</time></trkpt><trkpt lat="42.0154670239916" lon="2.8285091528055"><ele>64.0</ele><time>2026-05-02T05:47:57.999Z</time></trkpt><trkpt lat="42.015558503179726" lon="2.8285281156106934"><ele>66.8</ele><time>2026-05-02T05:47:58.999Z</time></trkpt><trkpt lat="42.01565450854781" lon="2.828543860293217"><ele>69.60000000000001</ele><time>2026-05-02T05:48:00Z</time></trkpt><trkpt lat="42.01574913817914" lon="2.828551661565051"><ele>72.4</ele><time>2026-05-02T05:48:01Z</time></trkpt><trkpt lat="42.01584282262532" lon="2.8285587620293704"><ele>75.2</ele><time>2026-05-02T05:48:02Z</time></trkpt><trkpt lat="42.015938514058675" lon="2.8285686800287797"><ele>78.0</ele><time>2026-05-02T05:48:03Z</time></trkpt><trkpt lat="42.01603389710843" lon="2.8285822533638885"><ele>78.0</ele><time>2026-05-02T05:48:04Z</time></trkpt><trkpt lat="42.016129604280295" lon="2.828599394106724"><ele>78.0</ele><time>2026-05-02T05:48:05Z</time></trkpt><trkpt lat="42.01622422005441" lon="2.8286177692222516"><ele>78.0</ele><time>2026-05-02T05:48:06Z</time></trkpt><trkpt lat="42.01632042901581" lon="2.828625365939273"><ele>78.0</ele><time>2026-05-02T05:48:07Z</time></trkpt><trkpt lat="42.01641387645917" lon="2.828635435120243"><ele>78.0</ele><time>2026-05-02T05:48:08Z</time></trkpt><trkpt lat="42.01650693019244" lon="2.8286454510080685"><ele>78.0</ele><time>2026-05-02T05:48:09Z</time></trkpt><trkpt lat="42.01659817711244" lon="2.8286571238165457"><ele>78.0</ele><time>2026-05-02T05:48:10Z</time></trkpt><trkpt lat="42.016688550657406" lon="2.8286704409227847"><ele>78.0</ele><time>2026-05-02T05:48:11Z</time></trkpt><trkpt lat="42.01677747131727" lon="2.8286834329242385"><ele>78.0</ele><time>2026-05-02T05:48:12Z</time></trkpt><trkpt lat="42.01686670926392" lon="2.82869926556056"><ele>78.0</ele><time>2026-05-02T05:48:13Z</time></trkpt><trkpt lat="42.016954807665655" lon="2.8287137610696917"><ele>77.0</ele><time>2026-05-02T05:48:14Z</time></trkpt><trkpt lat="42.01704176999885" lon="2.828726057930914"><ele>76.0</ele><time>2026-05-02T05:48:15Z</time></trkpt><trkpt lat="42.017129828407434" lon="2.828741430587461"><ele>75.0</ele><time>2026-05-02T05:48:16Z</time></trkpt><trkpt lat="42.01721718706273" lon="2.828756473695395"><ele>74.0</ele><time>2026-05-02T05:48:17Z</time></trkpt><trkpt lat="42.01730291498" lon="2.8287698330159063"><ele>73.0</ele><time>2026-05-02T05:48:18Z</time></trkpt><trkpt lat="42.017387614923955" lon="2.8287822157831273"><ele>72.0</ele><time>2026-05-02T05:48:19Z</time></trkpt><trkpt lat="42.01747064026024" lon="2.828797164769362"><ele>71.71428571428572</ele><time>2026-05-02T05:48:20Z</time></trkpt><trkpt lat="42.01754872802398" lon="2.82880659614592"><ele>71.42857142857143</ele><time>2026-05-02T05:48:21Z</time></trkpt><trkpt lat="42.0176235822247" lon="2.8288172817041004"><ele>71.14285714285714</ele><time>2026-05-02T05:48:22Z</time></trkpt><trkpt lat="42.01769452360543" lon="2.8288254583352854"><ele>70.85714285714286</ele><time>2026-05-02T05:48:23Z</time></trkpt><trkpt lat="42.01776739211531" lon="2.8288401245597417"><ele>70.57142857142857</ele><time>2026-05-02T05:48:24Z</time></trkpt><trkpt lat="42.01783707454636" lon="2.82885194554785"><ele>70.28571428571429</ele><time>2026-05-02T05:48:25Z</time></trkpt><trkpt lat="42.01790434956127" lon="2.8288599461677117"><ele>70.0</ele><time>2026-05-02T05:48:26Z</time></trkpt><trkpt lat="42.01797050699228" lon="2.8288675395145813"><ele>70.0</ele><time>2026-05-02T05:48:27Z</time></trkpt><trkpt lat="42.018094401853034" lon="2.8288788655997794"><ele>70.0</ele><time>2026-05-02T05:48:29Z</time></trkpt><trkpt lat="42.01821802768392" lon="2.828888739017879"><ele>70.0</ele><time>2026-05-02T05:48:31Z</time></trkpt><trkpt lat="42.018333786957484" lon="2.8289040081970707"><ele>70.0</ele><time>2026-05-02T05:48:33Z</time></trkpt><trkpt lat="42.01844665630029" lon="2.828924624313976"><ele>69.8</ele><time>2026-05-02T05:48:35Z</time></trkpt><trkpt lat="42.01855668666337" lon="2.8289508355699566"><ele>69.6</ele><time>2026-05-02T05:48:37Z</time></trkpt><trkpt lat="42.01866118007515" lon="2.8289734775129567"><ele>69.4</ele><time>2026-05-02T05:48:39Z</time></trkpt><trkpt lat="42.01876883039292" lon="2.8289864840551666"><ele>69.2</ele><time>2026-05-02T05:48:41Z</time></trkpt><trkpt lat="42.01887799018643" lon="2.8289909875512365"><ele>69.0</ele><time>2026-05-02T05:48:43Z</time></trkpt><trkpt lat="42.01898892521779" lon="2.8289991890437047"><ele>69.0</ele><time>2026-05-02T05:48:45Z</time></trkpt><trkpt lat="42.01910371514129" lon="2.829018970021935"><ele>69.0</ele><time>2026-05-02T05:48:47Z</time></trkpt><trkpt lat="42.019218222822374" lon="2.829042794183412"><ele>69.0</ele><time>2026-05-02T05:48:49Z</time></trkpt><trkpt lat="42.01933428590131" lon="2.8290695668544705"><ele>69.0</ele><time>2026-05-02T05:48:51Z</time></trkpt><trkpt lat="42.019450880577565" lon="2.8291191833588143"><ele>69.60000000000001</ele><time>2026-05-02T05:48:53Z</time></trkpt><trkpt lat="42.01950564123378" lon="2.829161378271014"><ele>70.2</ele><time>2026-05-02T05:48:54Z</time></trkpt><trkpt lat="42.01960533933847" lon="2.8292542687308777"><ele>70.80000000000001</ele><time>2026-05-02T05:48:56Z</time></trkpt><trkpt lat="42.01969493977931" lon="2.8293754359768513"><ele>71.4</ele><time>2026-05-02T05:48:58Z</time></trkpt><trkpt lat="42.01971853311112" lon="2.8294566665107213"><ele>72.0</ele><time>2026-05-02T05:48:59Z</time></trkpt><trkpt lat="42.01977235927183" lon="2.8296124433709253"><ele>73.14285714285715</ele><time>2026-05-02T05:49:01Z</time></trkpt><trkpt lat="42.01979033883278" lon="2.829696869144192"><ele>74.28571428571429</ele><time>2026-05-02T05:49:02Z</time></trkpt><trkpt lat="42.01980337621757" lon="2.829783013284154"><ele>75.42857142857143</ele><time>2026-05-02T05:49:03Z</time></trkpt><trkpt lat="42.01981768435057" lon="2.82987157916524"><ele>76.57142857142858</ele><time>2026-05-02T05:49:04Z</time></trkpt><trkpt lat="42.01982820846012" lon="2.8299584561215294"><ele>77.71428571428572</ele><time>2026-05-02T05:49:05Z</time></trkpt><trkpt lat="42.01983910100484" lon="2.8300449895424684"><ele>78.85714285714286</ele><time>2026-05-02T05:49:06Z</time></trkpt><trkpt lat="42.01985210144431" lon="2.83013133082389"><ele>80.0</ele><time>2026-05-02T05:49:07Z</time></trkpt><trkpt lat="42.01987070763433" lon="2.830216460680502"><ele>80.66666666666667</ele><time>2026-05-02T05:49:08Z</time></trkpt><trkpt lat="42.01989091966621" lon="2.8303019753498466"><ele>81.33333333333334</ele><time>2026-05-02T05:49:09Z</time></trkpt><trkpt lat="42.019912776343006" lon="2.830394448255182"><ele>82.0</ele><time>2026-05-02T05:49:10Z</time></trkpt><trkpt lat="42.01997092101622" lon="2.830485140844073"><ele>82.66666666666667</ele><time>2026-05-02T05:49:11Z</time></trkpt><trkpt lat="42.020017326241856" lon="2.830571825694938"><ele>83.33333333333333</ele><time>2026-05-02T05:49:12Z</time></trkpt><trkpt lat="42.02009327542733" lon="2.830655310227445"><ele>84.0</ele><time>2026-05-02T05:49:13Z</time></trkpt><trkpt lat="42.02017492462037" lon="2.8307263102962095"><ele>84.0</ele><time>2026-05-02T05:49:14Z</time></trkpt><trkpt lat="42.02025980342058" lon="2.830784853119456"><ele>84.0</ele><time>2026-05-02T05:49:15Z</time></trkpt><trkpt lat="42.020343522604335" lon="2.8308416784254"><ele>84.0</ele><time>2026-05-02T05:49:16Z</time></trkpt><trkpt lat="42.020424394610586" lon="2.8308999885823853"><ele>84.0</ele><time>2026-05-02T05:49:17Z</time></trkpt><trkpt lat="42.02050440048802" lon="2.8309664461692603"><ele>84.0</ele><time>2026-05-02T05:49:18Z</time></trkpt><trkpt lat="42.020594924487796" lon="2.8310236905384607"><ele>83.6</ele><time>2026-05-02T05:49:19Z</time></trkpt><trkpt lat="42.02067788428294" lon="2.8311084146091203"><ele>83.2</ele><time>2026-05-02T05:49:20Z</time></trkpt><trkpt lat="42.02075984520785" lon="2.8312026160041928"><ele>82.8</ele><time>2026-05-02T05:49:21Z</time></trkpt><trkpt lat="42.020841507095675" lon="2.8313097095638975"><ele>82.39999999999999</ele><time>2026-05-02T05:49:22Z</time></trkpt><trkpt lat="42.02091924796726" lon="2.8314240854075083"><ele>82.0</ele><time>2026-05-02T05:49:22.999Z</time></trkpt><trkpt lat="42.02099835840873" lon="2.8315471288767"><ele>82.0</ele><time>2026-05-02T05:49:23.999Z</time></trkpt><trkpt lat="42.0210750206514" lon="2.831676407620307"><ele>82.0</ele><time>2026-05-02T05:49:24.999Z</time></trkpt><trkpt lat="42.02112573055537" lon="2.831831179506786"><ele>82.0</ele><time>2026-05-02T05:49:25.999Z</time></trkpt><trkpt lat="42.021185969936695" lon="2.8319809704348677"><ele>82.0</ele><time>2026-05-02T05:49:26.999Z</time></trkpt><trkpt lat="42.02125928376962" lon="2.8321218083727926"><ele>82.75</ele><time>2026-05-02T05:49:27.999Z</time></trkpt><trkpt lat="42.021314685911136" lon="2.8322742398566367"><ele>83.5</ele><time>2026-05-02T05:49:28.999Z</time></trkpt><trkpt lat="42.021369206171705" lon="2.8324271105551864"><ele>84.25</ele><time>2026-05-02T05:49:29.999Z</time></trkpt><trkpt lat="42.021425312588946" lon="2.8325756964526545"><ele>85.0</ele><time>2026-05-02T05:49:30.999Z</time></trkpt><trkpt lat="42.02148096187091" lon="2.83272461477412"><ele>85.0</ele><time>2026-05-02T05:49:31.999Z</time></trkpt><trkpt lat="42.02153955902276" lon="2.8328728743572245"><ele>85.0</ele><time>2026-05-02T05:49:32.999Z</time></trkpt><trkpt lat="42.02159895602431" lon="2.833021056860358"><ele>85.0</ele><time>2026-05-02T05:49:33.999Z</time></trkpt><trkpt lat="42.021656085887734" lon="2.833165583859988"><ele>85.0</ele><time>2026-05-02T05:49:34.999Z</time></trkpt><trkpt lat="42.02171540313664" lon="2.8333078760775994"><ele>80.0</ele><time>2026-05-02T05:49:35.999Z</time></trkpt><trkpt lat="42.021769223315076" lon="2.83345204040089"><ele>75.0</ele><time>2026-05-02T05:49:36.999Z</time></trkpt><trkpt lat="42.02182410212945" lon="2.833589848397561"><ele>70.0</ele><time>2026-05-02T05:49:37.999Z</time></trkpt><trkpt lat="42.02187794775759" lon="2.833728196353514"><ele>65.0</ele><time>2026-05-02T05:49:38.999Z</time></trkpt><trkpt lat="42.021930055424136" lon="2.8338690804303677"><ele>64.5</ele><time>2026-05-02T05:49:39.999Z</time></trkpt><trkpt lat="42.02198404171962" lon="2.8340110438556056"><ele>64.0</ele><time>2026-05-02T05:49:40.999Z</time></trkpt><trkpt lat="42.02203915628558" lon="2.834148822691955"><ele>63.5</ele><time>2026-05-02T05:49:41.999Z</time></trkpt><trkpt lat="42.02209446080269" lon="2.8342888633495082"><ele>63.0</ele><time>2026-05-02T05:49:42.999Z</time></trkpt><trkpt lat="42.022150394548184" lon="2.8344292707370347"><ele>62.75</ele><time>2026-05-02T05:49:43.999Z</time></trkpt><trkpt lat="42.022206813439105" lon="2.834571234716947"><ele>62.5</ele><time>2026-05-02T05:49:44.999Z</time></trkpt><trkpt lat="42.02226318445322" lon="2.834711394092814"><ele>62.25</ele><time>2026-05-02T05:49:45.999Z</time></trkpt><trkpt lat="42.022318812857755" lon="2.834850030690044"><ele>62.0</ele><time>2026-05-02T05:49:46.999Z</time></trkpt><trkpt lat="42.022373724745144" lon="2.8349925956402635"><ele>62.0</ele><time>2026-05-02T05:49:47.999Z</time></trkpt><trkpt lat="42.022425863613904" lon="2.8351355348720095"><ele>62.0</ele><time>2026-05-02T05:49:48.999Z</time></trkpt><trkpt lat="42.02247627171863" lon="2.8352734076783106"><ele>62.0</ele><time>2026-05-02T05:49:49.999Z</time></trkpt><trkpt lat="42.02252648202411" lon="2.835408817620674"><ele>62.0</ele><time>2026-05-02T05:49:50.999Z</time></trkpt><trkpt lat="42.02257686362694" lon="2.8355422967164325"><ele>62.0</ele><time>2026-05-02T05:49:51.999Z</time></trkpt><trkpt lat="42.02262766558818" lon="2.8356735508631767"><ele>62.0</ele><time>2026-05-02T05:49:52.999Z</time></trkpt><trkpt lat="42.02267945176558" lon="2.8358043696575717"><ele>62.0</ele><time>2026-05-02T05:49:53.999Z</time></trkpt><trkpt lat="42.022732441260395" lon="2.8359341426768383"><ele>62.0</ele><time>2026-05-02T05:49:54.999Z</time></trkpt><trkpt lat="42.0227826656373" lon="2.836062462880553"><ele>62.0</ele><time>2026-05-02T05:49:55.999Z</time></trkpt><trkpt lat="42.02283393156967" lon="2.836186916596398"><ele>62.0</ele><time>2026-05-02T05:49:56.999Z</time></trkpt><trkpt lat="42.02288337974805" lon="2.836314688867741"><ele>62.0</ele><time>2026-05-02T05:49:57.999Z</time></trkpt><trkpt lat="42.02293032334782" lon="2.8364408110106623"><ele>62.0</ele><time>2026-05-02T05:49:58.999Z</time></trkpt><trkpt lat="42.02298017898127" lon="2.836565150294284"><ele>62.0</ele><time>2026-05-02T05:49:59.999Z</time></trkpt><trkpt lat="42.023028573727295" lon="2.8366898713411905"><ele>62.0</ele><time>2026-05-02T05:50:00.999Z</time></trkpt><trkpt lat="42.023078771700376" lon="2.836813663181234"><ele>61.8</ele><time>2026-05-02T05:50:01.999Z</time></trkpt><trkpt lat="42.02312840606783" lon="2.836937823865884"><ele>61.6</ele><time>2026-05-02T05:50:02.999Z</time></trkpt><trkpt lat="42.023178797984215" lon="2.837060258522247"><ele>61.39999999999999</ele><time>2026-05-02T05:50:03.999Z</time></trkpt><trkpt lat="42.02322871998495" lon="2.8371802690062338"><ele>61.199999999999996</ele><time>2026-05-02T05:50:04.999Z</time></trkpt><trkpt lat="42.02327663342816" lon="2.837300453956863"><ele>61.0</ele><time>2026-05-02T05:50:06Z</time></trkpt><trkpt lat="42.02332505495035" lon="2.83741802978806"><ele>61.0</ele><time>2026-05-02T05:50:07Z</time></trkpt><trkpt lat="42.02337175761648" lon="2.8375305720310915"><ele>60.99999999999999</ele><time>2026-05-02T05:50:08Z</time></trkpt><trkpt lat="42.02341713196747" lon="2.837641345944855"><ele>60.99999999999999</ele><time>2026-05-02T05:50:09Z</time></trkpt><trkpt lat="42.023435777411684" lon="2.837766602362121"><ele>61.0</ele><time>2026-05-02T05:50:10Z</time></trkpt><trkpt lat="42.02347651291611" lon="2.837870791154588"><ele>61.0</ele><time>2026-05-02T05:50:11Z</time></trkpt><trkpt lat="42.02351396923423" lon="2.837966767927847"><ele>61.166666666666664</ele><time>2026-05-02T05:50:12Z</time></trkpt><trkpt lat="42.02354910393812" lon="2.838056795973571"><ele>61.33333333333333</ele><time>2026-05-02T05:50:13Z</time></trkpt><trkpt lat="42.02358259523897" lon="2.8381426128712333"><ele>61.5</ele><time>2026-05-02T05:50:14Z</time></trkpt><trkpt lat="42.02361365602569" lon="2.8382222019696286"><ele>61.66666666666667</ele><time>2026-05-02T05:50:15Z</time></trkpt><trkpt lat="42.02367147186696" lon="2.8383483447273803"><ele>61.833333333333336</ele><time>2026-05-02T05:50:17Z</time></trkpt><trkpt lat="42.02363354110255" lon="2.8384875315063764"><ele>62.0</ele><time>2026-05-02T05:50:19Z</time></trkpt><trkpt lat="42.023527003632665" lon="2.8385296679965313"><ele>62.00000000000001</ele><time>2026-05-02T05:50:21Z</time></trkpt><trkpt lat="42.023418175108546" lon="2.8386093986624186"><ele>62.0</ele><time>2026-05-02T05:50:23Z</time></trkpt><trkpt lat="42.02336595122732" lon="2.8386581985200565"><ele>62.0</ele><time>2026-05-02T05:50:24Z</time></trkpt><trkpt lat="42.02331342656153" lon="2.8387137420618593"><ele>62.0</ele><time>2026-05-02T05:50:25Z</time></trkpt><trkpt lat="42.02325954889453" lon="2.8387769251899693"><ele>62.00000000000001</ele><time>2026-05-02T05:50:26Z</time></trkpt><trkpt lat="42.02320720739193" lon="2.838846451936535"><ele>62.0</ele><time>2026-05-02T05:50:27Z</time></trkpt><trkpt lat="42.023153187130326" lon="2.8389222772329483"><ele>62.0</ele><time>2026-05-02T05:50:28Z</time></trkpt><trkpt lat="42.02310076742627" lon="2.8389992429884785"><ele>62.00000000000001</ele><time>2026-05-02T05:50:29Z</time></trkpt><trkpt lat="42.023051935075664" lon="2.839075492731633"><ele>62.0</ele><time>2026-05-02T05:50:30Z</time></trkpt><trkpt lat="42.0230029940257" lon="2.8391524981694722"><ele>62.0</ele><time>2026-05-02T05:50:31Z</time></trkpt><trkpt lat="42.02295575001239" lon="2.8392270201070295"><ele>62.00000000000001</ele><time>2026-05-02T05:50:32Z</time></trkpt><trkpt lat="42.02291106923211" lon="2.8393003442203493"><ele>62.0</ele><time>2026-05-02T05:50:33Z</time></trkpt><trkpt lat="42.02286463834245" lon="2.8393792544266963"><ele>62.0</ele><time>2026-05-02T05:50:34Z</time></trkpt><trkpt lat="42.022819892952256" lon="2.839459316688818"><ele>62.0</ele><time>2026-05-02T05:50:35Z</time></trkpt><trkpt lat="42.0227776843126" lon="2.839545949910262"><ele>62.00000000000001</ele><time>2026-05-02T05:50:36Z</time></trkpt><trkpt lat="42.022749678217785" lon="2.839638556023651"><ele>62.0</ele><time>2026-05-02T05:50:37Z</time></trkpt><trkpt lat="42.02270675091591" lon="2.83972328531384"><ele>62.0</ele><time>2026-05-02T05:50:38Z</time></trkpt><trkpt lat="42.022657731921036" lon="2.8397936451636356"><ele>62.00000000000001</ele><time>2026-05-02T05:50:39Z</time></trkpt><trkpt lat="42.022616083913775" lon="2.839871610191763"><ele>62.0</ele><time>2026-05-02T05:50:40Z</time></trkpt><trkpt lat="42.02257230982263" lon="2.8399544478287306"><ele>62.0</ele><time>2026-05-02T05:50:41Z</time></trkpt><trkpt lat="42.02252753152041" lon="2.8400391858299745"><ele>62.00000000000001</ele><time>2026-05-02T05:50:42Z</time></trkpt><trkpt lat="42.022497787629646" lon="2.840132810013935"><ele>62.0</ele><time>2026-05-02T05:50:43Z</time></trkpt><trkpt lat="42.022451732241954" lon="2.8402166056260594"><ele>62.0</ele><time>2026-05-02T05:50:44Z</time></trkpt><trkpt lat="42.0224070007686" lon="2.8402975312607066"><ele>62.0</ele><time>2026-05-02T05:50:45Z</time></trkpt><trkpt lat="42.022343323237145" lon="2.8403599777320365"><ele>62.00000000000001</ele><time>2026-05-02T05:50:46Z</time></trkpt><trkpt lat="42.02228969988281" lon="2.8404324489890564"><ele>62.0</ele><time>2026-05-02T05:50:47Z</time></trkpt><trkpt lat="42.02223597550505" lon="2.8404958514281886"><ele>62.714285714285715</ele><time>2026-05-02T05:50:48Z</time></trkpt><trkpt lat="42.02217953798264" lon="2.840558324950373"><ele>63.42857142857143</ele><time>2026-05-02T05:50:49Z</time></trkpt><trkpt lat="42.022125960214446" lon="2.8406171669732854"><ele>64.14285714285714</ele><time>2026-05-02T05:50:50Z</time></trkpt><trkpt lat="42.022074865075766" lon="2.840668835897746"><ele>64.85714285714286</ele><time>2026-05-02T05:50:51Z</time></trkpt><trkpt lat="42.022020798428855" lon="2.8407199004911616"><ele>65.57142857142857</ele><time>2026-05-02T05:50:52Z</time></trkpt><trkpt lat="42.02196009354155" lon="2.8407714009012466"><ele>66.28571428571429</ele><time>2026-05-02T05:50:53Z</time></trkpt><trkpt lat="42.021898383222954" lon="2.840821651780793"><ele>67.0</ele><time>2026-05-02T05:50:54Z</time></trkpt><trkpt lat="42.02183834917636" lon="2.8408705376990917"><ele>67.0</ele><time>2026-05-02T05:50:55Z</time></trkpt><trkpt lat="42.0217791763943" lon="2.840922266757312"><ele>67.0</ele><time>2026-05-02T05:50:56Z</time></trkpt><trkpt lat="42.02172340590843" lon="2.840971011446665"><ele>67.0</ele><time>2026-05-02T05:50:57Z</time></trkpt><trkpt lat="42.021673194693804" lon="2.8410412516870833"><ele>67.0</ele><time>2026-05-02T05:50:58Z</time></trkpt><trkpt lat="42.021614101605174" lon="2.841090267942649"><ele>67.0</ele><time>2026-05-02T05:50:59Z</time></trkpt><trkpt lat="42.0215536628212" lon="2.8411396121568746"><ele>67.0</ele><time>2026-05-02T05:51:00Z</time></trkpt><trkpt lat="42.02149621939412" lon="2.8411912460418525"><ele>67.0</ele><time>2026-05-02T05:51:01Z</time></trkpt><trkpt lat="42.02143717275539" lon="2.84124840439149"><ele>68.0</ele><time>2026-05-02T05:51:02Z</time></trkpt><trkpt lat="42.02138327587549" lon="2.8412980024163947"><ele>69.0</ele><time>2026-05-02T05:51:03Z</time></trkpt><trkpt lat="42.021328185007135" lon="2.8413505171266307"><ele>70.0</ele><time>2026-05-02T05:51:04Z</time></trkpt><trkpt lat="42.021218745889264" lon="2.8414190267475687"><ele>71.0</ele><time>2026-05-02T05:51:06Z</time></trkpt><trkpt lat="42.021159636967695" lon="2.8414611285717757"><ele>72.0</ele><time>2026-05-02T05:51:07Z</time></trkpt><trkpt lat="42.021060373156956" lon="2.8415157388342798"><ele>73.0</ele><time>2026-05-02T05:51:09Z</time></trkpt><trkpt lat="42.02095021636657" lon="2.84155234473991"><ele>73.0</ele><time>2026-05-02T05:51:11Z</time></trkpt><trkpt lat="42.02086081605798" lon="2.8415614159478197"><ele>73.0</ele><time>2026-05-02T05:51:13Z</time></trkpt><trkpt lat="42.020776611609634" lon="2.84159231088979"><ele>73.0</ele><time>2026-05-02T05:51:15Z</time></trkpt><trkpt lat="42.02067193518637" lon="2.8416722035150155"><ele>73.0</ele><time>2026-05-02T05:51:17Z</time></trkpt><trkpt lat="42.02060187681522" lon="2.841743153525679"><ele>73.0</ele><time>2026-05-02T05:51:19Z</time></trkpt><trkpt lat="42.02055117983251" lon="2.841833047297424"><ele>76.66666666666666</ele><time>2026-05-02T05:51:22Z</time></trkpt><trkpt lat="42.020534464030426" lon="2.8419302561320667"><ele>80.33333333333333</ele><time>2026-05-02T05:51:25Z</time></trkpt><trkpt lat="42.02055422189502" lon="2.8420310940576816"><ele>84.0</ele><time>2026-05-02T05:51:28Z</time></trkpt><trkpt lat="42.02056718327684" lon="2.842121729607906"><ele>87.66666666666667</ele><time>2026-05-02T05:51:31Z</time></trkpt><trkpt lat="42.020599512522026" lon="2.842235590232423"><ele>91.33333333333334</ele><time>2026-05-02T05:51:35Z</time></trkpt><trkpt lat="42.02064623736227" lon="2.842335912147802"><ele>95.0</ele><time>2026-05-02T05:51:37.999Z</time></trkpt><trkpt lat="42.02071750197215" lon="2.842436815397783"><ele>95.0</ele><time>2026-05-02T05:51:40.999Z</time></trkpt><trkpt lat="42.02077077875639" lon="2.842513578115254"><ele>95.0</ele><time>2026-05-02T05:51:43.999Z</time></trkpt><trkpt lat="42.02083825837962" lon="2.842584659064067"><ele>95.0</ele><time>2026-05-02T05:51:46.999Z</time></trkpt><trkpt lat="42.02090669089876" lon="2.842655127264523"><ele>95.0</ele><time>2026-05-02T05:51:49.999Z</time></trkpt><trkpt lat="42.02097216597172" lon="2.84271924897724"><ele>95.0</ele><time>2026-05-02T05:51:52.999Z</time></trkpt><trkpt lat="42.021041933851215" lon="2.8427693714815283"><ele>95.0</ele><time>2026-05-02T05:51:55.999Z</time></trkpt><trkpt lat="42.021107558712146" lon="2.8428258110102007"><ele>96.57142857142857</ele><time>2026-05-02T05:51:58.999Z</time></trkpt><trkpt lat="42.02116888927844" lon="2.8428699700541014"><ele>98.14285714285714</ele><time>2026-05-02T05:52:01.999Z</time></trkpt><trkpt lat="42.021228651661815" lon="2.842917670795426"><ele>99.71428571428572</ele><time>2026-05-02T05:52:04.999Z</time></trkpt><trkpt lat="42.02128606551704" lon="2.842965282343506"><ele>101.28571428571428</ele><time>2026-05-02T05:52:07.999Z</time></trkpt><trkpt lat="42.02134228700823" lon="2.843017705926673"><ele>102.85714285714285</ele><time>2026-05-02T05:52:10.999Z</time></trkpt><trkpt lat="42.02139973322264" lon="2.8430682494442334"><ele>104.42857142857143</ele><time>2026-05-02T05:52:14Z</time></trkpt><trkpt lat="42.02145824575037" lon="2.8431170050564063"><ele>106.0</ele><time>2026-05-02T05:52:17Z</time></trkpt><trkpt lat="42.02151632622484" lon="2.8431665614583377"><ele>106.0</ele><time>2026-05-02T05:52:20Z</time></trkpt><trkpt lat="42.02157464070839" lon="2.8432184237245197"><ele>106.0</ele><time>2026-05-02T05:52:23Z</time></trkpt><trkpt lat="42.021651158965334" lon="2.843274826478008"><ele>106.0</ele><time>2026-05-02T05:52:27Z</time></trkpt><trkpt lat="42.02170988179268" lon="2.8433314483208947"><ele>106.0</ele><time>2026-05-02T05:52:30Z</time></trkpt><trkpt lat="42.02176299646669" lon="2.843389944394319"><ele>106.0</ele><time>2026-05-02T05:52:33Z</time></trkpt><trkpt lat="42.02182341273052" lon="2.8434386187485208"><ele>106.0</ele><time>2026-05-02T05:52:36Z</time></trkpt><trkpt lat="42.02187887034965" lon="2.843508911605208"><ele>106.0</ele><time>2026-05-02T05:52:39Z</time></trkpt><trkpt lat="42.02193261087947" lon="2.843579085291585"><ele>105.28571428571429</ele><time>2026-05-02T05:52:42Z</time></trkpt><trkpt lat="42.021979321488594" lon="2.843652984204118"><ele>104.57142857142857</ele><time>2026-05-02T05:52:45Z</time></trkpt><trkpt lat="42.022004978863635" lon="2.8437429549704345"><ele>103.85714285714286</ele><time>2026-05-02T05:52:48Z</time></trkpt><trkpt lat="42.02196641679911" lon="2.843840428180929"><ele>103.14285714285714</ele><time>2026-05-02T05:52:52Z</time></trkpt><trkpt lat="42.02190639521167" lon="2.8438746575757077"><ele>102.42857142857142</ele><time>2026-05-02T05:52:55Z</time></trkpt><trkpt lat="42.02183460057715" lon="2.8438691444530857"><ele>101.71428571428571</ele><time>2026-05-02T05:52:58Z</time></trkpt><trkpt lat="42.021765340908665" lon="2.8438504916821676"><ele>101.0</ele><time>2026-05-02T05:53:01Z</time></trkpt><trkpt lat="42.021700933649036" lon="2.843848686505916"><ele>101.66666666666666</ele><time>2026-05-02T05:53:03Z</time></trkpt><trkpt lat="42.02162673829518" lon="2.843830894256506"><ele>102.33333333333333</ele><time>2026-05-02T05:53:05Z</time></trkpt><trkpt lat="42.021552702120886" lon="2.8437991889254293"><ele>103.0</ele><time>2026-05-02T05:53:07Z</time></trkpt><trkpt lat="42.02147514040617" lon="2.8437814919437154"><ele>103.66666666666666</ele><time>2026-05-02T05:53:09Z</time></trkpt><trkpt lat="42.02139359584242" lon="2.843747312460665"><ele>104.33333333333333</ele><time>2026-05-02T05:53:11Z</time></trkpt><trkpt lat="42.0213039213483" lon="2.8437101398901103"><ele>105.0</ele><time>2026-05-02T05:53:13Z</time></trkpt><trkpt lat="42.02121766539107" lon="2.843677899101666"><ele>105.0</ele><time>2026-05-02T05:53:15Z</time></trkpt><trkpt lat="42.02112328411559" lon="2.8436238233583113"><ele>105.0</ele><time>2026-05-02T05:53:17Z</time></trkpt><trkpt lat="42.021033449858386" lon="2.8435716566692206"><ele>105.0</ele><time>2026-05-02T05:53:19Z</time></trkpt><trkpt lat="42.02093288580674" lon="2.8435206552248835"><ele>105.0</ele><time>2026-05-02T05:53:21Z</time></trkpt><trkpt lat="42.02091341582734" lon="2.843427389876555"><ele>105.0</ele><time>2026-05-02T05:53:22Z</time></trkpt><trkpt lat="42.02082315120784" lon="2.8433631184350308"><ele>105.8</ele><time>2026-05-02T05:53:24Z</time></trkpt><trkpt lat="42.02072214981155" lon="2.8432956407485546"><ele>106.6</ele><time>2026-05-02T05:53:26Z</time></trkpt><trkpt lat="42.02063058751633" lon="2.8432414162569923"><ele>107.4</ele><time>2026-05-02T05:53:28Z</time></trkpt><trkpt lat="42.02056056440942" lon="2.843193309706437"><ele>108.2</ele><time>2026-05-02T05:53:31Z</time></trkpt><trkpt lat="42.02044313648897" lon="2.8431134832934672"><ele>109.0</ele><time>2026-05-02T05:53:32Z</time></trkpt><trkpt lat="42.02037914540715" lon="2.8431491636618698"><ele>109.0</ele><time>2026-05-02T05:53:33Z</time></trkpt><trkpt lat="42.02027966451427" lon="2.843091018649651"><ele>109.0</ele><time>2026-05-02T05:53:35Z</time></trkpt><trkpt lat="42.02016071049333" lon="2.84303683534903"><ele>109.0</ele><time>2026-05-02T05:53:36.999Z</time></trkpt><trkpt lat="42.020095854033656" lon="2.8430136720141626"><ele>109.0</ele><time>2026-05-02T05:53:37.999Z</time></trkpt><trkpt lat="42.020026195840444" lon="2.8429987246755646"><ele>109.0</ele><time>2026-05-02T05:53:38.999Z</time></trkpt><trkpt lat="42.01996015292547" lon="2.842935302739932"><ele>109.50000000000001</ele><time>2026-05-02T05:53:39.999Z</time></trkpt><trkpt lat="42.01988272559019" lon="2.8429325294254553"><ele>110.0</ele><time>2026-05-02T05:53:40.999Z</time></trkpt><trkpt lat="42.01981239278579" lon="2.8429292933578996"><ele>110.5</ele><time>2026-05-02T05:53:41.999Z</time></trkpt><trkpt lat="42.01973680877157" lon="2.8429247634295747"><ele>111.0</ele><time>2026-05-02T05:53:42.999Z</time></trkpt><trkpt lat="42.01965926115541" lon="2.842918455427626"><ele>111.50000000000001</ele><time>2026-05-02T05:53:43.999Z</time></trkpt><trkpt lat="42.019581271662176" lon="2.8429121114828275"><ele>112.0</ele><time>2026-05-02T05:53:44.999Z</time></trkpt><trkpt lat="42.019502453637266" lon="2.842906538452373"><ele>112.00000000000001</ele><time>2026-05-02T05:53:45.999Z</time></trkpt><trkpt lat="42.01942530688176" lon="2.842904078874913"><ele>112.0</ele><time>2026-05-02T05:53:46.999Z</time></trkpt><trkpt lat="42.019347182818734" lon="2.8429052100576024"><ele>112.0</ele><time>2026-05-02T05:53:47.999Z</time></trkpt><trkpt lat="42.01926746997053" lon="2.842912787974825"><ele>112.0</ele><time>2026-05-02T05:53:48.999Z</time></trkpt><trkpt lat="42.01917512162758" lon="2.842927145545438"><ele>112.00000000000001</ele><time>2026-05-02T05:53:49.999Z</time></trkpt><trkpt lat="42.01910021767262" lon="2.842960597517773"><ele>112.0</ele><time>2026-05-02T05:53:50.999Z</time></trkpt><trkpt lat="42.019024993168976" lon="2.842950438026328"><ele>112.66666666666667</ele><time>2026-05-02T05:53:51.999Z</time></trkpt><trkpt lat="42.01895459069134" lon="2.8429593628030525"><ele>113.33333333333334</ele><time>2026-05-02T05:53:52.999Z</time></trkpt><trkpt lat="42.01887649890589" lon="2.8429623367165564"><ele>114.0</ele><time>2026-05-02T05:53:53.999Z</time></trkpt><trkpt lat="42.01880009917622" lon="2.842965800068624"><ele>114.66666666666666</ele><time>2026-05-02T05:53:54.999Z</time></trkpt><trkpt lat="42.018725120800426" lon="2.8429751747704586"><ele>115.33333333333333</ele><time>2026-05-02T05:53:55.999Z</time></trkpt><trkpt lat="42.01865543367693" lon="2.8429901333063543"><ele>116.0</ele><time>2026-05-02T05:53:56.999Z</time></trkpt><trkpt lat="42.01857704465789" lon="2.843028257866297"><ele>115.99999999999999</ele><time>2026-05-02T05:53:57.999Z</time></trkpt><trkpt lat="42.01851346043844" lon="2.843067789513747"><ele>116.0</ele><time>2026-05-02T05:53:58.999Z</time></trkpt><trkpt lat="42.0184132834723" lon="2.843130443820927"><ele>116.0</ele><time>2026-05-02T05:54:00.999Z</time></trkpt><trkpt lat="42.01833172614069" lon="2.8431800975566777"><ele>116.0</ele><time>2026-05-02T05:54:02.999Z</time></trkpt><trkpt lat="42.01826487123754" lon="2.8432156496473384"><ele>115.99999999999999</ele><time>2026-05-02T05:54:04.999Z</time></trkpt><trkpt lat="42.01820158847525" lon="2.843242502354646"><ele>116.0</ele><time>2026-05-02T05:54:06.999Z</time></trkpt><trkpt lat="42.018138166381554" lon="2.8432658027114344"><ele>116.66666666666666</ele><time>2026-05-02T05:54:08.999Z</time></trkpt><trkpt lat="42.0180669251948" lon="2.843291892711921"><ele>117.33333333333333</ele><time>2026-05-02T05:54:10.999Z</time></trkpt><trkpt lat="42.01799813245653" lon="2.8433168111456135"><ele>118.0</ele><time>2026-05-02T05:54:12.999Z</time></trkpt><trkpt lat="42.01792655481328" lon="2.843341517050201"><ele>118.66666666666666</ele><time>2026-05-02T05:54:14.999Z</time></trkpt><trkpt lat="42.01785164492035" lon="2.8433636272826615"><ele>119.33333333333333</ele><time>2026-05-02T05:54:16.999Z</time></trkpt><trkpt lat="42.017773708811085" lon="2.8434381465241305"><ele>120.0</ele><time>2026-05-02T05:54:20Z</time></trkpt><trkpt lat="42.01769952588323" lon="2.843445399204861"><ele>120.0</ele><time>2026-05-02T05:54:22Z</time></trkpt><trkpt lat="42.01763012327717" lon="2.8434485113335204"><ele>120.0</ele><time>2026-05-02T05:54:24Z</time></trkpt><trkpt lat="42.01754992065953" lon="2.84343492400748"><ele>120.0</ele><time>2026-05-02T05:54:26Z</time></trkpt><trkpt lat="42.01747373469717" lon="2.8434143205249174"><ele>120.0</ele><time>2026-05-02T05:54:28Z</time></trkpt><trkpt lat="42.01739442224463" lon="2.843398154844751"><ele>120.0</ele><time>2026-05-02T05:54:30Z</time></trkpt><trkpt lat="42.0173198022878" lon="2.8434077978199728"><ele>120.0</ele><time>2026-05-02T05:54:32Z</time></trkpt><trkpt lat="42.01725581661434" lon="2.843432533676428"><ele>121.0</ele><time>2026-05-02T05:54:34Z</time></trkpt><trkpt lat="42.01719509550009" lon="2.8434624250223854"><ele>122.0</ele><time>2026-05-02T05:54:36Z</time></trkpt><trkpt lat="42.017127838811234" lon="2.843481926579881"><ele>123.0</ele><time>2026-05-02T05:54:38Z</time></trkpt><trkpt lat="42.01704105893904" lon="2.843505556363402"><ele>124.0</ele><time>2026-05-02T05:54:41Z</time></trkpt><trkpt lat="42.016955692018115" lon="2.8435241294373728"><ele>125.0</ele><time>2026-05-02T05:54:44Z</time></trkpt><trkpt lat="42.01687318564264" lon="2.843548397415539"><ele>126.0</ele><time>2026-05-02T05:54:47Z</time></trkpt><trkpt lat="42.016792700847866" lon="2.8435911326546734"><ele>127.28571428571428</ele><time>2026-05-02T05:54:50Z</time></trkpt><trkpt lat="42.01672548255715" lon="2.8436259796459877"><ele>128.57142857142856</ele><time>2026-05-02T05:54:53Z</time></trkpt><trkpt lat="42.01665668594232" lon="2.843655819281525"><ele>129.85714285714286</ele><time>2026-05-02T05:54:56Z</time></trkpt><trkpt lat="42.01659349367719" lon="2.8436935852777667"><ele>131.14285714285714</ele><time>2026-05-02T05:54:59Z</time></trkpt><trkpt lat="42.01653147016033" lon="2.843727214764534"><ele>132.42857142857142</ele><time>2026-05-02T05:55:02Z</time></trkpt><trkpt lat="42.01646212482572" lon="2.843786208468952"><ele>133.71428571428572</ele><time>2026-05-02T05:55:06Z</time></trkpt><trkpt lat="42.016390078447095" lon="2.8438143996686356"><ele>135.0</ele><time>2026-05-02T05:55:09Z</time></trkpt><trkpt lat="42.01632599032758" lon="2.843851966200783"><ele>135.83333333333334</ele><time>2026-05-02T05:55:12Z</time></trkpt><trkpt lat="42.01625776386332" lon="2.8438944208399555"><ele>136.66666666666666</ele><time>2026-05-02T05:55:15Z</time></trkpt><trkpt lat="42.01619482509302" lon="2.8439466151479014"><ele>137.5</ele><time>2026-05-02T05:55:18Z</time></trkpt><trkpt lat="42.01613544619809" lon="2.843999889236758"><ele>138.33333333333331</ele><time>2026-05-02T05:55:21Z</time></trkpt><trkpt lat="42.016072176725416" lon="2.8440372682166815"><ele>139.16666666666666</ele><time>2026-05-02T05:55:24Z</time></trkpt><trkpt lat="42.01599404103228" lon="2.8440616687421914"><ele>140.0</ele><time>2026-05-02T05:55:27Z</time></trkpt><trkpt lat="42.015910301087544" lon="2.844081702025305"><ele>140.0</ele><time>2026-05-02T05:55:30Z</time></trkpt><trkpt lat="42.0158472783857" lon="2.8440817868947805"><ele>140.0</ele><time>2026-05-02T05:55:32Z</time></trkpt><trkpt lat="42.01576648130185" lon="2.84407789603867"><ele>140.0</ele><time>2026-05-02T05:55:34Z</time></trkpt><trkpt lat="42.01567909813467" lon="2.844071071736362"><ele>140.0</ele><time>2026-05-02T05:55:36Z</time></trkpt><trkpt lat="42.015604057562726" lon="2.8440730490564046"><ele>140.0</ele><time>2026-05-02T05:55:38Z</time></trkpt><trkpt lat="42.015531942281264" lon="2.8440735554984213"><ele>140.0</ele><time>2026-05-02T05:55:40Z</time></trkpt><trkpt lat="42.015457561944466" lon="2.8440771351262786"><ele>141.0</ele><time>2026-05-02T05:55:42Z</time></trkpt><trkpt lat="42.01539536445349" lon="2.8440978687227894"><ele>142.0</ele><time>2026-05-02T05:55:44Z</time></trkpt><trkpt lat="42.01531700667518" lon="2.844092244491196"><ele>143.0</ele><time>2026-05-02T05:55:47Z</time></trkpt><trkpt lat="42.015243560826804" lon="2.8441110647829566"><ele>144.0</ele><time>2026-05-02T05:55:50Z</time></trkpt><trkpt lat="42.01516881481791" lon="2.8441198871053297"><ele>145.0</ele><time>2026-05-02T05:55:52.999Z</time></trkpt><trkpt lat="42.01507945980926" lon="2.844144588047155"><ele>146.0</ele><time>2026-05-02T05:55:55.999Z</time></trkpt><trkpt lat="42.01501405591169" lon="2.8441586878297933"><ele>147.28571428571428</ele><time>2026-05-02T05:55:57.999Z</time></trkpt><trkpt lat="42.01494058028115" lon="2.844181152739529"><ele>148.57142857142858</ele><time>2026-05-02T05:56:00.999Z</time></trkpt><trkpt lat="42.01487861642581" lon="2.84421609544411"><ele>149.85714285714286</ele><time>2026-05-02T05:56:02.999Z</time></trkpt><trkpt lat="42.01480497188272" lon="2.844230772088018"><ele>151.14285714285714</ele><time>2026-05-02T05:56:04.999Z</time></trkpt><trkpt lat="42.014741334819554" lon="2.844267626459153"><ele>152.42857142857142</ele><time>2026-05-02T05:56:07.999Z</time></trkpt><trkpt lat="42.01466315903209" lon="2.8442991669540447"><ele>153.71428571428572</ele><time>2026-05-02T05:56:11.999Z</time></trkpt><trkpt lat="42.01458804927461" lon="2.84430236985018"><ele>155.0</ele><time>2026-05-02T05:56:14.999Z</time></trkpt><trkpt lat="42.014503003116594" lon="2.844315527114392"><ele>155.0</ele><time>2026-05-02T05:56:17.999Z</time></trkpt><trkpt lat="42.014425148869165" lon="2.8443279777099937"><ele>155.0</ele><time>2026-05-02T05:56:19.999Z</time></trkpt><trkpt lat="42.014355590048766" lon="2.844362870106328"><ele>155.0</ele><time>2026-05-02T05:56:21.999Z</time></trkpt><trkpt lat="42.01427216260106" lon="2.844390683190489"><ele>155.0</ele><time>2026-05-02T05:56:24Z</time></trkpt><trkpt lat="42.01420939765754" lon="2.8444538056545885"><ele>155.0</ele><time>2026-05-02T05:56:26Z</time></trkpt><trkpt lat="42.014143091114306" lon="2.8444869804910726"><ele>155.0</ele><time>2026-05-02T05:56:28Z</time></trkpt><trkpt lat="42.01406002435407" lon="2.8445145510664345"><ele>157.33333333333331</ele><time>2026-05-02T05:56:30Z</time></trkpt><trkpt lat="42.013994240806475" lon="2.8445515972765385"><ele>159.66666666666666</ele><time>2026-05-02T05:56:32Z</time></trkpt><trkpt lat="42.01392022987482" lon="2.8446078909534736"><ele>162.0</ele><time>2026-05-02T05:56:34Z</time></trkpt><trkpt lat="42.013865365968485" lon="2.8446768475449233"><ele>164.33333333333334</ele><time>2026-05-02T05:56:36Z</time></trkpt><trkpt lat="42.013825427139196" lon="2.8447513757470517"><ele>166.66666666666669</ele><time>2026-05-02T05:56:38Z</time></trkpt><trkpt lat="42.01378383963189" lon="2.8448153853219105"><ele>169.0</ele><time>2026-05-02T05:56:40Z</time></trkpt><trkpt lat="42.01372485505492" lon="2.844906000848773"><ele>169.0</ele><time>2026-05-02T05:56:43Z</time></trkpt><trkpt lat="42.01367870816841" lon="2.844967083358876"><ele>169.0</ele><time>2026-05-02T05:56:45Z</time></trkpt><trkpt lat="42.01362869313062" lon="2.84503639146752"><ele>169.0</ele><time>2026-05-02T05:56:47Z</time></trkpt><trkpt lat="42.01357534167245" lon="2.8451074320284744"><ele>169.0</ele><time>2026-05-02T05:56:49Z</time></trkpt><trkpt lat="42.0135150565245" lon="2.8451743006996884"><ele>169.0</ele><time>2026-05-02T05:56:51Z</time></trkpt><trkpt lat="42.01345905046636" lon="2.845246522487155"><ele>169.0</ele><time>2026-05-02T05:56:53Z</time></trkpt><trkpt lat="42.01340029989119" lon="2.845315568814998"><ele>169.0</ele><time>2026-05-02T05:56:55Z</time></trkpt><trkpt lat="42.0133508685766" lon="2.845394515219874"><ele>168.16666666666669</ele><time>2026-05-02T05:56:57Z</time></trkpt><trkpt lat="42.0132938108442" lon="2.8454678725939067"><ele>167.33333333333334</ele><time>2026-05-02T05:56:59Z</time></trkpt><trkpt lat="42.01323316252145" lon="2.8455156669324886"><ele>166.5</ele><time>2026-05-02T05:57:01Z</time></trkpt><trkpt lat="42.01315237374152" lon="2.845464381965928"><ele>165.66666666666666</ele><time>2026-05-02T05:57:04Z</time></trkpt><trkpt lat="42.013130908256066" lon="2.845378010837499"><ele>164.83333333333331</ele><time>2026-05-02T05:57:29Z</time></trkpt><trkpt lat="42.01312357910139" lon="2.84526931179458"><ele>164.0</ele><time>2026-05-02T05:57:34Z</time></trkpt><trkpt lat="42.01313782593115" lon="2.8451843605377585"><ele>164.7142857142857</ele><time>2026-05-02T05:57:37Z</time></trkpt><trkpt lat="42.013155588615604" lon="2.845101421637792"><ele>165.42857142857142</ele><time>2026-05-02T05:57:40Z</time></trkpt><trkpt lat="42.01316182628958" lon="2.8450153414335215"><ele>166.14285714285714</ele><time>2026-05-02T05:57:43Z</time></trkpt><trkpt lat="42.01317925908745" lon="2.844927715382815"><ele>166.85714285714283</ele><time>2026-05-02T05:57:46Z</time></trkpt><trkpt lat="42.013187215225976" lon="2.8448302312099103"><ele>167.57142857142856</ele><time>2026-05-02T05:57:49Z</time></trkpt><trkpt lat="42.01318726873811" lon="2.8447179628622"><ele>168.28571428571428</ele><time>2026-05-02T05:57:52Z</time></trkpt><trkpt lat="42.01318285886912" lon="2.844628616645782"><ele>169.0</ele><time>2026-05-02T05:57:54Z</time></trkpt><trkpt lat="42.01318590240081" lon="2.8445330408293006"><ele>169.0</ele><time>2026-05-02T05:57:56Z</time></trkpt><trkpt lat="42.01318287859714" lon="2.844428513438159"><ele>169.0</ele><time>2026-05-02T05:57:58Z</time></trkpt><trkpt lat="42.01317632606662" lon="2.8443191512483654"><ele>169.0</ele><time>2026-05-02T05:57:59.999Z</time></trkpt><trkpt lat="42.01314513238108" lon="2.8442125196814283"><ele>169.0</ele><time>2026-05-02T05:58:01.999Z</time></trkpt><trkpt lat="42.01312339551932" lon="2.8441296436696066"><ele>169.0</ele><time>2026-05-02T05:58:03.999Z</time></trkpt><trkpt lat="42.013092988463946" lon="2.84405072762675"><ele>169.0</ele><time>2026-05-02T05:58:05.999Z</time></trkpt><trkpt lat="42.013047499853286" lon="2.843947380276675"><ele>170.2</ele><time>2026-05-02T05:58:07.999Z</time></trkpt><trkpt lat="42.0129911829698" lon="2.8438312191828032"><ele>171.39999999999998</ele><time>2026-05-02T05:58:09.999Z</time></trkpt><trkpt lat="42.01295442030891" lon="2.843752860266704"><ele>172.6</ele><time>2026-05-02T05:58:11.999Z</time></trkpt><trkpt lat="42.01292005416946" lon="2.8436563864062503"><ele>173.8</ele><time>2026-05-02T05:58:14.999Z</time></trkpt><trkpt lat="42.01288067165218" lon="2.8435699718981136"><ele>175.0</ele><time>2026-05-02T05:58:16.999Z</time></trkpt><trkpt lat="42.01277125910282" lon="2.8434197394389167"><ele>174.16666666666669</ele><time>2026-05-02T05:58:19.999Z</time></trkpt><trkpt lat="42.01272795152954" lon="2.8433327554754624"><ele>173.33333333333334</ele><time>2026-05-02T05:58:21.999Z</time></trkpt><trkpt lat="42.01267548562507" lon="2.843241488951266"><ele>172.5</ele><time>2026-05-02T05:58:23.999Z</time></trkpt><trkpt lat="42.01262247614723" lon="2.843140625496455"><ele>171.66666666666666</ele><time>2026-05-02T05:58:25.999Z</time></trkpt><trkpt lat="42.012558800116636" lon="2.8430402924247513"><ele>170.83333333333331</ele><time>2026-05-02T05:58:27.999Z</time></trkpt><trkpt lat="42.01250493608426" lon="2.8429420907739655"><ele>170.0</ele><time>2026-05-02T05:58:30Z</time></trkpt><trkpt lat="42.0124445073186" lon="2.8428602985131968"><ele>170.0</ele><time>2026-05-02T05:58:32Z</time></trkpt><trkpt lat="42.012382166637515" lon="2.8427798189492646"><ele>170.0</ele><time>2026-05-02T05:58:34Z</time></trkpt><trkpt lat="42.012301220429016" lon="2.8426926446904504"><ele>170.0</ele><time>2026-05-02T05:58:36Z</time></trkpt><trkpt lat="42.01222678147018" lon="2.842609304813217"><ele>170.0</ele><time>2026-05-02T05:58:38Z</time></trkpt><trkpt lat="42.01213691801694" lon="2.842526718911244"><ele>170.0</ele><time>2026-05-02T05:58:40Z</time></trkpt><trkpt lat="42.01205111540833" lon="2.8424533320761425"><ele>171.4</ele><time>2026-05-02T05:58:42Z</time></trkpt><trkpt lat="42.01195925571561" lon="2.842383866425953"><ele>172.8</ele><time>2026-05-02T05:58:44Z</time></trkpt><trkpt lat="42.01187076263493" lon="2.842303020672466"><ele>174.2</ele><time>2026-05-02T05:58:46Z</time></trkpt><trkpt lat="42.01184505008221" lon="2.8422226667559944"><ele>175.6</ele><time>2026-05-02T05:58:47Z</time></trkpt><trkpt lat="42.01174831397009" lon="2.842147404214305"><ele>177.0</ele><time>2026-05-02T05:58:49Z</time></trkpt><trkpt lat="42.01165067783932" lon="2.842075130703817"><ele>177.0</ele><time>2026-05-02T05:58:51Z</time></trkpt><trkpt lat="42.011552977053036" lon="2.842011964670175"><ele>177.0</ele><time>2026-05-02T05:58:53Z</time></trkpt><trkpt lat="42.011446832525934" lon="2.841943519336794"><ele>177.0</ele><time>2026-05-02T05:58:55Z</time></trkpt><trkpt lat="42.011345035812596" lon="2.841875049764512"><ele>177.0</ele><time>2026-05-02T05:58:57Z</time></trkpt><trkpt lat="42.01123908344585" lon="2.841799181592761"><ele>180.6</ele><time>2026-05-02T05:58:59Z</time></trkpt><trkpt lat="42.01113028117339" lon="2.8417226322946805"><ele>184.2</ele><time>2026-05-02T05:59:01Z</time></trkpt><trkpt lat="42.0110165139611" lon="2.841648438126272"><ele>187.8</ele><time>2026-05-02T05:59:03Z</time></trkpt><trkpt lat="42.01095438970144" lon="2.8416095645744477"><ele>191.4</ele><time>2026-05-02T05:59:04Z</time></trkpt><trkpt lat="42.01089034298149" lon="2.841568799122546"><ele>195.0</ele><time>2026-05-02T05:59:05Z</time></trkpt><trkpt lat="42.01082861397657" lon="2.8415272819545216"><ele>192.57142857142856</ele><time>2026-05-02T05:59:06Z</time></trkpt><trkpt lat="42.01077305168361" lon="2.8414830361862924"><ele>190.14285714285714</ele><time>2026-05-02T05:59:07Z</time></trkpt><trkpt lat="42.01071308432913" lon="2.841431523041069"><ele>187.71428571428572</ele><time>2026-05-02T05:59:08Z</time></trkpt><trkpt lat="42.010643817505176" lon="2.841365123678845"><ele>185.28571428571428</ele><time>2026-05-02T05:59:09Z</time></trkpt><trkpt lat="42.01058021363665" lon="2.841304780143208"><ele>182.85714285714286</ele><time>2026-05-02T05:59:10Z</time></trkpt><trkpt lat="42.01052175857786" lon="2.8412529836448526"><ele>180.42857142857142</ele><time>2026-05-02T05:59:11Z</time></trkpt><trkpt lat="42.01046389645991" lon="2.8411972971140274"><ele>178.0</ele><time>2026-05-02T05:59:12Z</time></trkpt><trkpt lat="42.01041197397163" lon="2.841126528078534"><ele>178.0</ele><time>2026-05-02T05:59:13Z</time></trkpt><trkpt lat="42.010341077348905" lon="2.8410555219670286"><ele>178.0</ele><time>2026-05-02T05:59:14Z</time></trkpt><trkpt lat="42.0102652234693" lon="2.8409964208097715"><ele>178.0</ele><time>2026-05-02T05:59:15Z</time></trkpt><trkpt lat="42.0101862763183" lon="2.8409397850133193"><ele>178.0</ele><time>2026-05-02T05:59:16Z</time></trkpt><trkpt lat="42.010104358533354" lon="2.840881634378781"><ele>178.0</ele><time>2026-05-02T05:59:17Z</time></trkpt><trkpt lat="42.01002344280948" lon="2.8408257773367973"><ele>178.0</ele><time>2026-05-02T05:59:18Z</time></trkpt><trkpt lat="42.009945088459396" lon="2.8407716884282417"><ele>181.60000000000002</ele><time>2026-05-02T05:59:19Z</time></trkpt><trkpt lat="42.00986454009415" lon="2.8407199597520996"><ele>185.20000000000002</ele><time>2026-05-02T05:59:20Z</time></trkpt><trkpt lat="42.009780307375976" lon="2.8406805117533644"><ele>188.8</ele><time>2026-05-02T05:59:21Z</time></trkpt><trkpt lat="42.00968859836331" lon="2.840657081597364"><ele>192.4</ele><time>2026-05-02T05:59:22Z</time></trkpt><trkpt lat="42.00959210112624" lon="2.8406496678220208"><ele>196.0</ele><time>2026-05-02T05:59:23Z</time></trkpt><trkpt lat="42.00950183415483" lon="2.840668204800805"><ele>196.0</ele><time>2026-05-02T05:59:24Z</time></trkpt><trkpt lat="42.009408116908155" lon="2.840692709238032"><ele>196.0</ele><time>2026-05-02T05:59:25Z</time></trkpt><trkpt lat="42.00931965412503" lon="2.840719913391274"><ele>196.0</ele><time>2026-05-02T05:59:26Z</time></trkpt><trkpt lat="42.00922870020749" lon="2.8407664044230323"><ele>196.0</ele><time>2026-05-02T05:59:27Z</time></trkpt><trkpt lat="42.00913513517107" lon="2.840795204567593"><ele>196.0</ele><time>2026-05-02T05:59:28Z</time></trkpt><trkpt lat="42.009045916034175" lon="2.8408313010249735"><ele>196.20000000000002</ele><time>2026-05-02T05:59:29Z</time></trkpt><trkpt lat="42.00894990255706" lon="2.840847007125205"><ele>196.4</ele><time>2026-05-02T05:59:30Z</time></trkpt><trkpt lat="42.00885418007045" lon="2.84088700274504"><ele>196.6</ele><time>2026-05-02T05:59:31Z</time></trkpt><trkpt lat="42.0087619014946" lon="2.8409391983377494"><ele>196.8</ele><time>2026-05-02T05:59:32Z</time></trkpt><trkpt lat="42.00868293520486" lon="2.8409777667081397"><ele>197.0</ele><time>2026-05-02T05:59:33Z</time></trkpt><trkpt lat="42.00860054515001" lon="2.8410103027600866"><ele>194.33333333333334</ele><time>2026-05-02T05:59:34Z</time></trkpt><trkpt lat="42.008531921376985" lon="2.841018674984152"><ele>191.66666666666669</ele><time>2026-05-02T05:59:35Z</time></trkpt><trkpt lat="42.00844792202059" lon="2.8410158678199675"><ele>189.0</ele><time>2026-05-02T05:59:36Z</time></trkpt><trkpt lat="42.00837536081355" lon="2.8410111140131593"><ele>186.33333333333334</ele><time>2026-05-02T05:59:37Z</time></trkpt><trkpt lat="42.00829330371398" lon="2.8410060559787813"><ele>183.66666666666669</ele><time>2026-05-02T05:59:38Z</time></trkpt><trkpt lat="42.00821380503971" lon="2.8410027295084515"><ele>181.0</ele><time>2026-05-02T05:59:39Z</time></trkpt><trkpt lat="42.00813039669589" lon="2.840999367541843"><ele>180.0</ele><time>2026-05-02T05:59:40Z</time></trkpt><trkpt lat="42.008051094731584" lon="2.840988493452892"><ele>179.0</ele><time>2026-05-02T05:59:41Z</time></trkpt><trkpt lat="42.00797001993372" lon="2.8409717400894023"><ele>178.0</ele><time>2026-05-02T05:59:42Z</time></trkpt><trkpt lat="42.00789577899459" lon="2.8409468723894147"><ele>177.0</ele><time>2026-05-02T05:59:43Z</time></trkpt><trkpt lat="42.007819485331396" lon="2.8409239379631077"><ele>176.0</ele><time>2026-05-02T05:59:44Z</time></trkpt><trkpt lat="42.007749613354825" lon="2.8409149922461716"><ele>175.0</ele><time>2026-05-02T05:59:45Z</time></trkpt><trkpt lat="42.00766839472268" lon="2.8409307301409696"><ele>175.0</ele><time>2026-05-02T05:59:46Z</time></trkpt><trkpt lat="42.00759404459241" lon="2.8409644333277355"><ele>175.0</ele><time>2026-05-02T05:59:47Z</time></trkpt><trkpt lat="42.007539712129066" lon="2.8410368831649144"><ele>175.0</ele><time>2026-05-02T05:59:48Z</time></trkpt><trkpt lat="42.00749996078364" lon="2.841116397950362"><ele>175.0</ele><time>2026-05-02T05:59:49Z</time></trkpt><trkpt lat="42.007439719628145" lon="2.841178748144146"><ele>175.0</ele><time>2026-05-02T05:59:50Z</time></trkpt><trkpt lat="42.00736635626834" lon="2.8412408418660244"><ele>175.0</ele><time>2026-05-02T05:59:51Z</time></trkpt><trkpt lat="42.00728381323212" lon="2.841294210653601"><ele>174.8</ele><time>2026-05-02T05:59:52Z</time></trkpt><trkpt lat="42.007209548679334" lon="2.8413553869930293"><ele>174.6</ele><time>2026-05-02T05:59:53Z</time></trkpt><trkpt lat="42.0071250697764" lon="2.8414237451724995"><ele>174.39999999999998</ele><time>2026-05-02T05:59:54Z</time></trkpt><trkpt lat="42.007036591084606" lon="2.841492373917188"><ele>174.2</ele><time>2026-05-02T05:59:55Z</time></trkpt><trkpt lat="42.00694211681934" lon="2.841552671478198"><ele>174.0</ele><time>2026-05-02T05:59:56Z</time></trkpt><trkpt lat="42.006846286925914" lon="2.8416174603351982"><ele>174.0</ele><time>2026-05-02T05:59:57Z</time></trkpt><trkpt lat="42.00675195590986" lon="2.841697941429371"><ele>174.0</ele><time>2026-05-02T05:59:58Z</time></trkpt><trkpt lat="42.00667610524698" lon="2.841812133557503"><ele>174.0</ele><time>2026-05-02T05:59:59Z</time></trkpt><trkpt lat="42.00658405892685" lon="2.8418926802702966"><ele>174.0</ele><time>2026-05-02T06:00:00Z</time></trkpt><trkpt lat="42.00650047811589" lon="2.8419921899476863"><ele>174.0</ele><time>2026-05-02T06:00:01Z</time></trkpt><trkpt lat="42.006418532186736" lon="2.8420930814157166"><ele>173.6</ele><time>2026-05-02T06:00:02Z</time></trkpt><trkpt lat="42.00634096768915" lon="2.8421931865723855"><ele>173.2</ele><time>2026-05-02T06:00:03Z</time></trkpt><trkpt lat="42.00626194056993" lon="2.842297333744666"><ele>172.79999999999998</ele><time>2026-05-02T06:00:04Z</time></trkpt><trkpt lat="42.00618456659936" lon="2.8423993017282796"><ele>172.39999999999998</ele><time>2026-05-02T06:00:05Z</time></trkpt><trkpt lat="42.006107515565205" lon="2.8424918989588153"><ele>172.0</ele><time>2026-05-02T06:00:06Z</time></trkpt><trkpt lat="42.0060257885553" lon="2.8425763006902387"><ele>173.0</ele><time>2026-05-02T06:00:07Z</time></trkpt><trkpt lat="42.005934016828135" lon="2.8426422254837287"><ele>174.0</ele><time>2026-05-02T06:00:08Z</time></trkpt><trkpt lat="42.00584305350312" lon="2.84268931848203"><ele>175.0</ele><time>2026-05-02T06:00:09Z</time></trkpt><trkpt lat="42.005751717276944" lon="2.842718881864802"><ele>176.0</ele><time>2026-05-02T06:00:09.999Z</time></trkpt><trkpt lat="42.005662694094276" lon="2.8427389330840502"><ele>177.0</ele><time>2026-05-02T06:00:10.999Z</time></trkpt><trkpt lat="42.00557584294052" lon="2.8427596589111923"><ele>177.0</ele><time>2026-05-02T06:00:11.999Z</time></trkpt><trkpt lat="42.00547956062563" lon="2.8427836773241073"><ele>177.0</ele><time>2026-05-02T06:00:12.999Z</time></trkpt><trkpt lat="42.00538353424478" lon="2.842814871290178"><ele>177.0</ele><time>2026-05-02T06:00:13.999Z</time></trkpt><trkpt lat="42.00529254058519" lon="2.842863424896226"><ele>177.0</ele><time>2026-05-02T06:00:14.999Z</time></trkpt><trkpt lat="42.00521065277309" lon="2.842932919257406"><ele>177.0</ele><time>2026-05-02T06:00:15.999Z</time></trkpt><trkpt lat="42.005138858070694" lon="2.843005599466931"><ele>177.0</ele><time>2026-05-02T06:00:16.999Z</time></trkpt><trkpt lat="42.005068614370536" lon="2.8430730177721717"><ele>177.0</ele><time>2026-05-02T06:00:17.999Z</time></trkpt><trkpt lat="42.00499392879669" lon="2.8431296935114263"><ele>177.0</ele><time>2026-05-02T06:00:18.999Z</time></trkpt><trkpt lat="42.00491463705639" lon="2.8431711895208194"><ele>177.0</ele><time>2026-05-02T06:00:19.999Z</time></trkpt><trkpt lat="42.00483501815627" lon="2.843197646649151"><ele>177.0</ele><time>2026-05-02T06:00:20.999Z</time></trkpt><trkpt lat="42.004756408448614" lon="2.8432151879433585"><ele>177.0</ele><time>2026-05-02T06:00:21.999Z</time></trkpt><trkpt lat="42.00469322314141" lon="2.8432256097782327"><ele>176.8</ele><time>2026-05-02T06:00:22.999Z</time></trkpt><trkpt lat="42.0045936092876" lon="2.843235319451297"><ele>176.6</ele><time>2026-05-02T06:00:24.999Z</time></trkpt><trkpt lat="42.00452855394466" lon="2.843237154862781"><ele>176.4</ele><time>2026-05-02T06:00:26.999Z</time></trkpt><trkpt lat="42.00450069820478" lon="2.843426790499766"><ele>176.20000000000002</ele><time>2026-05-02T06:00:28.999Z</time></trkpt><trkpt lat="42.004501419395126" lon="2.8435295083050662"><ele>176.0</ele><time>2026-05-02T06:00:30.999Z</time></trkpt><trkpt lat="42.004477139913085" lon="2.843627455504531"><ele>176.83333333333331</ele><time>2026-05-02T06:00:32.999Z</time></trkpt><trkpt lat="42.0044847762276" lon="2.843735434124795"><ele>177.66666666666666</ele><time>2026-05-02T06:00:34.999Z</time></trkpt><trkpt lat="42.00447462917861" lon="2.8438332506055373"><ele>178.5</ele><time>2026-05-02T06:00:37.001Z</time></trkpt><trkpt lat="42.00446445087186" lon="2.843936770188517"><ele>179.33333333333334</ele><time>2026-05-02T06:00:39.001Z</time></trkpt><trkpt lat="42.00446403367532" lon="2.8440488360274068"><ele>180.16666666666669</ele><time>2026-05-02T06:00:41Z</time></trkpt><trkpt lat="42.004504649411246" lon="2.8441782108397833"><ele>181.0</ele><time>2026-05-02T06:00:43Z</time></trkpt><trkpt lat="42.004566233350275" lon="2.8443183204478535"><ele>181.0</ele><time>2026-05-02T06:00:45Z</time></trkpt><trkpt lat="42.00459031339069" lon="2.844397458644059"><ele>181.0</ele><time>2026-05-02T06:00:46Z</time></trkpt><trkpt lat="42.004606247119725" lon="2.8444832415579495"><ele>181.0</ele><time>2026-05-02T06:00:47Z</time></trkpt><trkpt lat="42.00462811238135" lon="2.844637086052765"><ele>181.0</ele><time>2026-05-02T06:00:49Z</time></trkpt><trkpt lat="42.00464109955059" lon="2.844722432480849"><ele>181.0</ele><time>2026-05-02T06:00:50Z</time></trkpt><trkpt lat="42.004656774442225" lon="2.8448063331365705"><ele>181.0</ele><time>2026-05-02T06:00:51Z</time></trkpt><trkpt lat="42.00467332564234" lon="2.844893221150145"><ele>181.0</ele><time>2026-05-02T06:00:52Z</time></trkpt><trkpt lat="42.00468157666432" lon="2.8450587684712088"><ele>179.20000000000002</ele><time>2026-05-02T06:00:54Z</time></trkpt><trkpt lat="42.004673940164224" lon="2.845155055081226"><ele>177.4</ele><time>2026-05-02T06:00:55Z</time></trkpt><trkpt lat="42.004664715441855" lon="2.8452484395552475"><ele>175.6</ele><time>2026-05-02T06:00:56Z</time></trkpt><trkpt lat="42.00464483785542" lon="2.8454114646716833"><ele>173.8</ele><time>2026-05-02T06:00:58Z</time></trkpt><trkpt lat="42.00464303193158" lon="2.8455440344972844"><ele>172.0</ele><time>2026-05-02T06:01:00Z</time></trkpt><trkpt lat="42.00461168537198" lon="2.845676073820054"><ele>172.0</ele><time>2026-05-02T06:01:02Z</time></trkpt><trkpt lat="42.00457525515424" lon="2.845784250409455"><ele>172.0</ele><time>2026-05-02T06:01:04Z</time></trkpt><trkpt lat="42.00458628086527" lon="2.845894742520008"><ele>172.0</ele><time>2026-05-02T06:01:06Z</time></trkpt><trkpt lat="42.004598609052515" lon="2.8459897674683843"><ele>172.0</ele><time>2026-05-02T06:01:08Z</time></trkpt><trkpt lat="42.004583690725" lon="2.8460875612053957"><ele>172.0</ele><time>2026-05-02T06:01:10Z</time></trkpt><trkpt lat="42.004531366295275" lon="2.8462267435979665"><ele>172.0</ele><time>2026-05-02T06:01:12Z</time></trkpt><trkpt lat="42.00447332376578" lon="2.8462904688056954"><ele>170.33333333333334</ele><time>2026-05-02T06:01:13Z</time></trkpt><trkpt lat="42.00440287521034" lon="2.8463021065964407"><ele>168.66666666666669</ele><time>2026-05-02T06:01:14Z</time></trkpt><trkpt lat="42.0043382280034" lon="2.8463250952590937"><ele>167.0</ele><time>2026-05-02T06:01:15Z</time></trkpt><trkpt lat="42.00426856284032" lon="2.8463518874940106"><ele>165.33333333333334</ele><time>2026-05-02T06:01:16Z</time></trkpt><trkpt lat="42.00419560765739" lon="2.8463799449813574"><ele>163.66666666666666</ele><time>2026-05-02T06:01:17Z</time></trkpt><trkpt lat="42.00412495404473" lon="2.8464071173510987"><ele>162.0</ele><time>2026-05-02T06:01:18Z</time></trkpt><trkpt lat="42.00401901671818" lon="2.846468416584481"><ele>161.2</ele><time>2026-05-02T06:01:20Z</time></trkpt><trkpt lat="42.00390559043334" lon="2.8464845253126105"><ele>160.39999999999998</ele><time>2026-05-02T06:01:22Z</time></trkpt><trkpt lat="42.00385093940895" lon="2.846417190146237"><ele>159.60000000000002</ele><time>2026-05-02T06:01:23Z</time></trkpt><trkpt lat="42.00373424518874" lon="2.8464166295361184"><ele>158.8</ele><time>2026-05-02T06:01:25Z</time></trkpt><trkpt lat="42.00366328373202" lon="2.8464556701610264"><ele>158.0</ele><time>2026-05-02T06:01:26Z</time></trkpt><trkpt lat="42.00359759541265" lon="2.8464972521568184"><ele>158.0</ele><time>2026-05-02T06:01:27Z</time></trkpt><trkpt lat="42.0035310660896" lon="2.84653905353346"><ele>158.0</ele><time>2026-05-02T06:01:28Z</time></trkpt><trkpt lat="42.00345826535197" lon="2.8465784601918167"><ele>158.0</ele><time>2026-05-02T06:01:29Z</time></trkpt><trkpt lat="42.00338383426979" lon="2.8466086251689218"><ele>158.0</ele><time>2026-05-02T06:01:30Z</time></trkpt><trkpt lat="42.00330645949944" lon="2.8466296087490255"><ele>158.0</ele><time>2026-05-02T06:01:31Z</time></trkpt><trkpt lat="42.003224140884925" lon="2.8466331509295646"><ele>158.0</ele><time>2026-05-02T06:01:32Z</time></trkpt><trkpt lat="42.00314310218316" lon="2.846624302637977"><ele>157.66666666666666</ele><time>2026-05-02T06:01:33Z</time></trkpt><trkpt lat="42.003061463523764" lon="2.846613815893734"><ele>157.33333333333331</ele><time>2026-05-02T06:01:34Z</time></trkpt><trkpt lat="42.00298005943053" lon="2.8466145870364286"><ele>157.0</ele><time>2026-05-02T06:01:35Z</time></trkpt><trkpt lat="42.00290675113589" lon="2.846650090033754"><ele>156.66666666666666</ele><time>2026-05-02T06:01:36Z</time></trkpt><trkpt lat="42.00284132064377" lon="2.8466645708684806"><ele>156.33333333333334</ele><time>2026-05-02T06:01:37Z</time></trkpt><trkpt lat="42.002741411244386" lon="2.846695450414948"><ele>156.0</ele><time>2026-05-02T06:01:39Z</time></trkpt><trkpt lat="42.0026609171335" lon="2.8467373441056756"><ele>156.0</ele><time>2026-05-02T06:01:41Z</time></trkpt><trkpt lat="42.0025553086878" lon="2.8467764208011865"><ele>156.0</ele><time>2026-05-02T06:01:43Z</time></trkpt><trkpt lat="42.00244776876062" lon="2.8468372272483995"><ele>156.0</ele><time>2026-05-02T06:01:45Z</time></trkpt><trkpt lat="42.002348150109825" lon="2.8469029083769866"><ele>156.0</ele><time>2026-05-02T06:01:47Z</time></trkpt><trkpt lat="42.002289427211956" lon="2.8469621263725875"><ele>156.0</ele><time>2026-05-02T06:01:49Z</time></trkpt><trkpt lat="42.00225433695528" lon="2.8470571961747915"><ele>156.0</ele><time>2026-05-02T06:01:51Z</time></trkpt><trkpt lat="42.00225643782569" lon="2.847199349281103"><ele>156.0</ele><time>2026-05-02T06:01:53Z</time></trkpt><trkpt lat="42.002215022292205" lon="2.8472805895092956"><ele>156.0</ele><time>2026-05-02T06:01:55Z</time></trkpt><trkpt lat="42.002127680513354" lon="2.847319933587885"><ele>156.0</ele><time>2026-05-02T06:01:58Z</time></trkpt><trkpt lat="42.00204203317518" lon="2.8473706328915447"><ele>156.0</ele><time>2026-05-02T06:02:01Z</time></trkpt><trkpt lat="42.001982890043756" lon="2.8474032032119214"><ele>156.0</ele><time>2026-05-02T06:02:03Z</time></trkpt><trkpt lat="42.00192014506642" lon="2.847434521418495"><ele>156.0</ele><time>2026-05-02T06:02:06Z</time></trkpt><trkpt lat="42.001822504596205" lon="2.847479835697372"><ele>156.0</ele><time>2026-05-02T06:02:09Z</time></trkpt><trkpt lat="42.001734620901736" lon="2.847514370304177"><ele>156.0</ele><time>2026-05-02T06:02:11Z</time></trkpt><trkpt lat="42.00163021419295" lon="2.8475541082685027"><ele>156.0</ele><time>2026-05-02T06:02:13Z</time></trkpt><trkpt lat="42.001584607522275" lon="2.847641293553624"><ele>156.0</ele><time>2026-05-02T06:02:13.999Z</time></trkpt><trkpt lat="42.00147908985115" lon="2.8477112001191274"><ele>157.2857142857143</ele><time>2026-05-02T06:02:15.999Z</time></trkpt><trkpt lat="42.00141823348423" lon="2.847740918057993"><ele>158.57142857142856</ele><time>2026-05-02T06:02:16.999Z</time></trkpt><trkpt lat="42.00136874788797" lon="2.847807420032283"><ele>159.85714285714286</ele><time>2026-05-02T06:02:17.999Z</time></trkpt><trkpt lat="42.00130555270627" lon="2.847836020521694"><ele>161.14285714285717</ele><time>2026-05-02T06:02:18.999Z</time></trkpt><trkpt lat="42.001242158790795" lon="2.847867554803876"><ele>162.42857142857144</ele><time>2026-05-02T06:02:19.999Z</time></trkpt><trkpt lat="42.00117785489653" lon="2.847901599851339"><ele>163.71428571428572</ele><time>2026-05-02T06:02:20.999Z</time></trkpt><trkpt lat="42.00110183835329" lon="2.8479074735523375"><ele>165.0</ele><time>2026-05-02T06:02:21.999Z</time></trkpt><trkpt lat="42.00103781988694" lon="2.8479572364129195"><ele>165.00000000000003</ele><time>2026-05-02T06:02:22.999Z</time></trkpt><trkpt lat="42.000970320786436" lon="2.847985317377397"><ele>165.0</ele><time>2026-05-02T06:02:23.999Z</time></trkpt><trkpt lat="42.00090449864307" lon="2.8480203194929734"><ele>165.0</ele><time>2026-05-02T06:02:24.999Z</time></trkpt><trkpt lat="42.00083838335718" lon="2.84805836968535"><ele>165.0</ele><time>2026-05-02T06:02:25.999Z</time></trkpt><trkpt lat="42.00077086448362" lon="2.848094583915084"><ele>165.0</ele><time>2026-05-02T06:02:26.999Z</time></trkpt><trkpt lat="42.00070386672536" lon="2.848134341983764"><ele>165.00000000000003</ele><time>2026-05-02T06:02:27.999Z</time></trkpt><trkpt lat="42.00062976960881" lon="2.8481514869597326"><ele>165.0</ele><time>2026-05-02T06:02:28.999Z</time></trkpt><trkpt lat="42.000560174511556" lon="2.848188665037176"><ele>164.14285714285717</ele><time>2026-05-02T06:02:29.999Z</time></trkpt><trkpt lat="42.000490901075324" lon="2.8482255863983372"><ele>163.28571428571428</ele><time>2026-05-02T06:02:30.999Z</time></trkpt><trkpt lat="42.00042311993954" lon="2.8482630581704846"><ele>162.42857142857144</ele><time>2026-05-02T06:02:31.999Z</time></trkpt><trkpt lat="42.00035509144062" lon="2.8483006667784787"><ele>161.57142857142858</ele><time>2026-05-02T06:02:32.999Z</time></trkpt><trkpt lat="42.00028477162246" lon="2.8483398671214344"><ele>160.71428571428572</ele><time>2026-05-02T06:02:33.999Z</time></trkpt><trkpt lat="42.000216233211425" lon="2.848378414064796"><ele>159.85714285714286</ele><time>2026-05-02T06:02:34.999Z</time></trkpt><trkpt lat="42.00014462215906" lon="2.8484186891641414"><ele>159.0</ele><time>2026-05-02T06:02:35.999Z</time></trkpt><trkpt lat="42.000074758495415" lon="2.8484579814855526"><ele>160.7142857142857</ele><time>2026-05-02T06:02:36.999Z</time></trkpt><trkpt lat="42.00000673542534" lon="2.848496238634375"><ele>162.42857142857144</ele><time>2026-05-02T06:02:37.999Z</time></trkpt><trkpt lat="41.99994075972182" lon="2.848533344289269"><ele>164.14285714285714</ele><time>2026-05-02T06:02:38.999Z</time></trkpt><trkpt lat="41.99987929961621" lon="2.8485679103177675"><ele>165.85714285714283</ele><time>2026-05-02T06:02:39.999Z</time></trkpt><trkpt lat="41.99981352897727" lon="2.8486049006680427"><ele>167.57142857142856</ele><time>2026-05-02T06:02:40.999Z</time></trkpt><trkpt lat="41.99974420974308" lon="2.8486426694252645"><ele>169.28571428571428</ele><time>2026-05-02T06:02:42Z</time></trkpt><trkpt lat="41.99967977078227" lon="2.8486776897039063"><ele>171.0</ele><time>2026-05-02T06:02:43Z</time></trkpt><trkpt lat="41.99961111770637" lon="2.848715000228605"><ele>171.0</ele><time>2026-05-02T06:02:44Z</time></trkpt><trkpt lat="41.99954593586966" lon="2.848750424133806"><ele>171.0</ele><time>2026-05-02T06:02:45Z</time></trkpt><trkpt lat="41.999477830268546" lon="2.8487876623259893"><ele>171.0</ele><time>2026-05-02T06:02:46Z</time></trkpt><trkpt lat="41.99941023264316" lon="2.8488250162947937"><ele>171.0</ele><time>2026-05-02T06:02:47Z</time></trkpt><trkpt lat="41.99933582510226" lon="2.8488661334266805"><ele>171.0</ele><time>2026-05-02T06:02:48Z</time></trkpt><trkpt lat="41.999262241144365" lon="2.848907813580989"><ele>171.0</ele><time>2026-05-02T06:02:49Z</time></trkpt><trkpt lat="41.99918999797072" lon="2.848949913127924"><ele>169.7142857142857</ele><time>2026-05-02T06:02:50Z</time></trkpt><trkpt lat="41.99911734595986" lon="2.8489916146391447"><ele>168.42857142857142</ele><time>2026-05-02T06:02:51Z</time></trkpt><trkpt lat="41.99904532026787" lon="2.8490282825985886"><ele>167.14285714285714</ele><time>2026-05-02T06:02:52Z</time></trkpt><trkpt lat="41.998971501725066" lon="2.849062498413631"><ele>165.85714285714283</ele><time>2026-05-02T06:02:53Z</time></trkpt><trkpt lat="41.99890030708342" lon="2.8490859130168618"><ele>164.57142857142856</ele><time>2026-05-02T06:02:54Z</time></trkpt><trkpt lat="41.998830252164346" lon="2.8490944936147726"><ele>163.28571428571428</ele><time>2026-05-02T06:02:55Z</time></trkpt><trkpt lat="41.998762355012374" lon="2.849092527933553"><ele>162.0</ele><time>2026-05-02T06:02:56Z</time></trkpt><trkpt lat="41.99864837952324" lon="2.8490622771830254"><ele>162.0</ele><time>2026-05-02T06:02:58Z</time></trkpt><trkpt lat="41.998563347191755" lon="2.848950651236533"><ele>162.0</ele><time>2026-05-02T06:03:00Z</time></trkpt><trkpt lat="41.99850742170543" lon="2.848897577450041"><ele>162.0</ele><time>2026-05-02T06:03:01Z</time></trkpt><trkpt lat="41.998450246051526" lon="2.8488433170150618"><ele>162.0</ele><time>2026-05-02T06:03:02Z</time></trkpt><trkpt lat="41.998384287218585" lon="2.848786416704423"><ele>162.0</ele><time>2026-05-02T06:03:03Z</time></trkpt><trkpt lat="41.99831823812591" lon="2.8487401751803656"><ele>162.0</ele><time>2026-05-02T06:03:04Z</time></trkpt><trkpt lat="41.99825040759924" lon="2.8487136185362907"><ele>161.8</ele><time>2026-05-02T06:03:05Z</time></trkpt><trkpt lat="41.99814529262668" lon="2.8486428173573684"><ele>161.6</ele><time>2026-05-02T06:03:07Z</time></trkpt><trkpt lat="41.99804696028873" lon="2.848617027974876"><ele>161.4</ele><time>2026-05-02T06:03:09Z</time></trkpt><trkpt lat="41.99793566856023" lon="2.848647905750545"><ele>161.20000000000002</ele><time>2026-05-02T06:03:11Z</time></trkpt><trkpt lat="41.997851189190705" lon="2.848736713570772"><ele>161.0</ele><time>2026-05-02T06:03:13Z</time></trkpt><trkpt lat="41.99777186578412" lon="2.8488559359344534"><ele>161.0</ele><time>2026-05-02T06:03:15Z</time></trkpt><trkpt lat="41.997701671834776" lon="2.848968513754735"><ele>161.0</ele><time>2026-05-02T06:03:17Z</time></trkpt><trkpt lat="41.9976645338298" lon="2.8490988212713404"><ele>161.0</ele><time>2026-05-02T06:03:19Z</time></trkpt><trkpt lat="41.9976490806449" lon="2.849237192882933"><ele>161.0</ele><time>2026-05-02T06:03:21Z</time></trkpt><trkpt lat="41.99774196328748" lon="2.849400970959153"><ele>162.4</ele><time>2026-05-02T06:03:23Z</time></trkpt><trkpt lat="41.99776309384388" lon="2.849481878590546"><ele>163.8</ele><time>2026-05-02T06:03:24Z</time></trkpt><trkpt lat="41.997792322549095" lon="2.8496337436495165"><ele>165.20000000000002</ele><time>2026-05-02T06:03:26Z</time></trkpt><trkpt lat="41.99781929949963" lon="2.8497951792483023"><ele>166.60000000000002</ele><time>2026-05-02T06:03:28Z</time></trkpt><trkpt lat="41.99782560462146" lon="2.849905290792095"><ele>168.0</ele><time>2026-05-02T06:03:30Z</time></trkpt><trkpt lat="41.99784317223822" lon="2.84998962956161"><ele>168.0</ele><time>2026-05-02T06:03:33Z</time></trkpt><trkpt lat="41.99786554197496" lon="2.8500762758567655"><ele>168.0</ele><time>2026-05-02T06:03:37Z</time></trkpt><trkpt lat="41.997902328864164" lon="2.850149238417736"><ele>168.0</ele><time>2026-05-02T06:03:41Z</time></trkpt><trkpt lat="41.997941540118404" lon="2.850229874138329"><ele>168.0</ele><time>2026-05-02T06:03:46Z</time></trkpt><trkpt lat="41.997994186206995" lon="2.850286244018003"><ele>168.0</ele><time>2026-05-02T06:03:49Z</time></trkpt><trkpt lat="41.99804131799927" lon="2.8503497959728117"><ele>168.0</ele><time>2026-05-02T06:03:53Z</time></trkpt><trkpt lat="41.998095226158675" lon="2.8504023484840952"><ele>168.0</ele><time>2026-05-02T06:03:56.999Z</time></trkpt><trkpt lat="41.99815639451252" lon="2.8504393345379424"><ele>170.33333333333334</ele><time>2026-05-02T06:03:59.999Z</time></trkpt><trkpt lat="41.99822146406574" lon="2.8504557795730094"><ele>172.66666666666666</ele><time>2026-05-02T06:04:01.999Z</time></trkpt><trkpt lat="41.99828734240288" lon="2.8504596345888586"><ele>175.0</ele><time>2026-05-02T06:04:04.999Z</time></trkpt><trkpt lat="41.9983596144037" lon="2.850437637218255"><ele>177.33333333333331</ele><time>2026-05-02T06:04:07.999Z</time></trkpt><trkpt lat="41.998428791760006" lon="2.8503974515789756"><ele>179.66666666666666</ele><time>2026-05-02T06:04:10.999Z</time></trkpt><trkpt lat="41.998498384136596" lon="2.8503595798000103"><ele>182.0</ele><time>2026-05-02T06:04:13.999Z</time></trkpt><trkpt lat="41.998560946225986" lon="2.8505469079689756"><ele>182.0</ele><time>2026-05-02T06:04:24.999Z</time></trkpt><trkpt lat="41.99850922211169" lon="2.8506244278329413"><ele>182.0</ele><time>2026-05-02T06:04:28.998Z</time></trkpt><trkpt lat="41.99847633042119" lon="2.850700099142942"><ele>182.0</ele><time>2026-05-02T06:04:32.998Z</time></trkpt><trkpt lat="41.998418662996734" lon="2.850759469803146"><ele>182.0</ele><time>2026-05-02T06:04:36.998Z</time></trkpt><trkpt lat="41.99835543740184" lon="2.850834147007499"><ele>182.0</ele><time>2026-05-02T06:04:40.998Z</time></trkpt><trkpt lat="41.9983018710186" lon="2.850893930794426"><ele>182.0</ele><time>2026-05-02T06:04:44.998Z</time></trkpt><trkpt lat="41.9982488029232" lon="2.850941194481262"><ele>182.0</ele><time>2026-05-02T06:04:48Z</time></trkpt><trkpt lat="41.99818152272748" lon="2.8509774384329503"><ele>185.33333333333331</ele><time>2026-05-02T06:04:51Z</time></trkpt><trkpt lat="41.998117637926455" lon="2.8509890687134023"><ele>188.66666666666666</ele><time>2026-05-02T06:04:53Z</time></trkpt><trkpt lat="41.99802492424651" lon="2.8510132602296343"><ele>192.0</ele><time>2026-05-02T06:04:56Z</time></trkpt><trkpt lat="41.99794452314133" lon="2.8510308531435804"><ele>195.33333333333331</ele><time>2026-05-02T06:04:59Z</time></trkpt><trkpt lat="41.997859609551384" lon="2.851027018853028"><ele>198.66666666666666</ele><time>2026-05-02T06:05:02Z</time></trkpt><trkpt lat="41.997781275807746" lon="2.8510285714332073"><ele>202.0</ele><time>2026-05-02T06:05:05Z</time></trkpt><trkpt lat="41.997695288404294" lon="2.8510252361406643"><ele>201.99999999999997</ele><time>2026-05-02T06:05:07.999Z</time></trkpt><trkpt lat="41.9976293773998" lon="2.8510277412634313"><ele>202.0</ele><time>2026-05-02T06:05:10.999Z</time></trkpt><trkpt lat="41.99754814643553" lon="2.85102853567707"><ele>202.0</ele><time>2026-05-02T06:05:13.999Z</time></trkpt><trkpt lat="41.99747043281273" lon="2.8510416569838264"><ele>202.0</ele><time>2026-05-02T06:05:16.999Z</time></trkpt><trkpt lat="41.997389206847785" lon="2.851069508499732"><ele>201.99999999999997</ele><time>2026-05-02T06:05:18.999Z</time></trkpt><trkpt lat="41.99730903324506" lon="2.8511205652069207"><ele>202.0</ele><time>2026-05-02T06:05:20.999Z</time></trkpt><trkpt lat="41.997260001298834" lon="2.851192544918912"><ele>200.83333333333331</ele><time>2026-05-02T06:05:22.999Z</time></trkpt><trkpt lat="41.997220474265134" lon="2.8512779541869895"><ele>199.66666666666666</ele><time>2026-05-02T06:05:24.999Z</time></trkpt><trkpt lat="41.99717948465738" lon="2.851355458748618"><ele>198.5</ele><time>2026-05-02T06:05:26.999Z</time></trkpt><trkpt lat="41.99712404947791" lon="2.8514169726925327"><ele>197.33333333333331</ele><time>2026-05-02T06:05:28.999Z</time></trkpt><trkpt lat="41.99705647941217" lon="2.8514931471886453"><ele>196.16666666666666</ele><time>2026-05-02T06:05:30.999Z</time></trkpt><trkpt lat="41.99700954688946" lon="2.851579246219837"><ele>195.0</ele><time>2026-05-02T06:05:32.999Z</time></trkpt><trkpt lat="41.99698833417061" lon="2.851685624462575"><ele>195.33333333333334</ele><time>2026-05-02T06:05:34.999Z</time></trkpt><trkpt lat="41.99698647463977" lon="2.8518074906178867"><ele>195.66666666666669</ele><time>2026-05-02T06:05:36.999Z</time></trkpt><trkpt lat="41.997045533234285" lon="2.8519576902922186"><ele>196.0</ele><time>2026-05-02T06:05:38.999Z</time></trkpt><trkpt lat="41.99704177333863" lon="2.852086370143246"><ele>196.33333333333334</ele><time>2026-05-02T06:05:39.999Z</time></trkpt><trkpt lat="41.99708921475527" lon="2.8521524182918365"><ele>196.66666666666669</ele><time>2026-05-02T06:05:40.999Z</time></trkpt><trkpt lat="41.99713697553132" lon="2.852218574449317"><ele>197.0</ele><time>2026-05-02T06:05:41.999Z</time></trkpt><trkpt lat="41.99717992256532" lon="2.85228597280714"><ele>197.0</ele><time>2026-05-02T06:05:42.999Z</time></trkpt><trkpt lat="41.99725219208244" lon="2.8524186475322026"><ele>197.0</ele><time>2026-05-02T06:05:44.999Z</time></trkpt><trkpt lat="41.997312993395354" lon="2.852563716432365"><ele>197.0</ele><time>2026-05-02T06:05:46.999Z</time></trkpt><trkpt lat="41.997340237746585" lon="2.852688575761319"><ele>197.0</ele><time>2026-05-02T06:05:48.999Z</time></trkpt><trkpt lat="41.99732025139973" lon="2.8528315783526574"><ele>196.83333333333334</ele><time>2026-05-02T06:05:50.999Z</time></trkpt><trkpt lat="41.99732458313155" lon="2.8529367413773"><ele>196.66666666666669</ele><time>2026-05-02T06:05:51.999Z</time></trkpt><trkpt lat="41.99733209214603" lon="2.8530339672521383"><ele>196.5</ele><time>2026-05-02T06:05:52.999Z</time></trkpt><trkpt lat="41.9973488809071" lon="2.8531415871132206"><ele>196.33333333333331</ele><time>2026-05-02T06:05:53.999Z</time></trkpt><trkpt lat="41.99737059795579" lon="2.853233066756326"><ele>196.16666666666666</ele><time>2026-05-02T06:05:54.999Z</time></trkpt><trkpt lat="41.997383944809094" lon="2.853381419852969"><ele>196.0</ele><time>2026-05-02T06:05:56.999Z</time></trkpt><trkpt lat="41.99737239036388" lon="2.853469936583475"><ele>195.66666666666666</ele><time>2026-05-02T06:05:57.999Z</time></trkpt><trkpt lat="41.99735026283287" lon="2.853561184689121"><ele>195.33333333333331</ele><time>2026-05-02T06:05:58.999Z</time></trkpt><trkpt lat="41.997324760186444" lon="2.8537022546362016"><ele>195.0</ele><time>2026-05-02T06:06:00.999Z</time></trkpt><trkpt lat="41.99738308752228" lon="2.8537902959783206"><ele>194.66666666666669</ele><time>2026-05-02T06:06:01.999Z</time></trkpt><trkpt lat="41.99734090471894" lon="2.853891047833212"><ele>194.33333333333334</ele><time>2026-05-02T06:06:03.999Z</time></trkpt><trkpt lat="41.99732551430919" lon="2.8539852532875667"><ele>194.0</ele><time>2026-05-02T06:06:05.999Z</time></trkpt><trkpt lat="41.9973500792752" lon="2.854088904006271"><ele>194.00000000000003</ele><time>2026-05-02T06:06:07.999Z</time></trkpt><trkpt lat="41.997365057234" lon="2.8541879349592523"><ele>194.0</ele><time>2026-05-02T06:06:09.999Z</time></trkpt><trkpt lat="41.997396039347194" lon="2.854293474848439"><ele>194.0</ele><time>2026-05-02T06:06:11.999Z</time></trkpt><trkpt lat="41.99743645351191" lon="2.854383192741387"><ele>194.0</ele><time>2026-05-02T06:06:13.999Z</time></trkpt><trkpt lat="41.99749234676057" lon="2.854449618714202"><ele>194.00000000000003</ele><time>2026-05-02T06:06:15.999Z</time></trkpt><trkpt lat="41.997549433500836" lon="2.8545164988198373"><ele>194.0</ele><time>2026-05-02T06:06:17.999Z</time></trkpt><trkpt lat="41.997601983421426" lon="2.854581030873704"><ele>198.33333333333334</ele><time>2026-05-02T06:06:20.999Z</time></trkpt><trkpt lat="41.9976617427611" lon="2.854661120863426"><ele>202.66666666666669</ele><time>2026-05-02T06:06:23.999Z</time></trkpt><trkpt lat="41.99771841230791" lon="2.8547591691271306"><ele>207.0</ele><time>2026-05-02T06:06:26.999Z</time></trkpt><trkpt lat="41.99776906377625" lon="2.854822356734711"><ele>211.33333333333331</ele><time>2026-05-02T06:06:27.999Z</time></trkpt><trkpt lat="41.99783079278379" lon="2.854904348291291"><ele>215.66666666666666</ele><time>2026-05-02T06:06:30.999Z</time></trkpt><trkpt lat="41.99789358234427" lon="2.8549994104218563"><ele>220.0</ele><time>2026-05-02T06:06:33.999Z</time></trkpt><trkpt lat="41.997937534282016" lon="2.8550617702325924"><ele>218.16666666666666</ele><time>2026-05-02T06:06:35.998Z</time></trkpt><trkpt lat="41.99799154612518" lon="2.8551437557200785"><ele>216.33333333333331</ele><time>2026-05-02T06:06:38.998Z</time></trkpt><trkpt lat="41.99803442008715" lon="2.855213648131159"><ele>214.5</ele><time>2026-05-02T06:06:41.998Z</time></trkpt><trkpt lat="41.998085134127614" lon="2.855299847710522"><ele>212.66666666666669</ele><time>2026-05-02T06:06:43.998Z</time></trkpt><trkpt lat="41.998142442917036" lon="2.8553688848958707"><ele>210.83333333333334</ele><time>2026-05-02T06:06:46.998Z</time></trkpt><trkpt lat="41.99820506792805" lon="2.8554444353869486"><ele>209.0</ele><time>2026-05-02T06:06:49.998Z</time></trkpt><trkpt lat="41.99825945474746" lon="2.855514017537776"><ele>209.0</ele><time>2026-05-02T06:06:53Z</time></trkpt><trkpt lat="41.99831923130174" lon="2.8555786962340726"><ele>209.0</ele><time>2026-05-02T06:06:57Z</time></trkpt><trkpt lat="41.9983839028397" lon="2.855647914901379"><ele>209.0</ele><time>2026-05-02T06:07:01Z</time></trkpt><trkpt lat="41.998429792762835" lon="2.855714318729216"><ele>209.0</ele><time>2026-05-02T06:07:04Z</time></trkpt><trkpt lat="41.99848777106681" lon="2.8557836504013276"><ele>209.0</ele><time>2026-05-02T06:07:06Z</time></trkpt><trkpt lat="41.9985323981612" lon="2.855846817760241"><ele>209.0</ele><time>2026-05-02T06:07:08Z</time></trkpt><trkpt lat="41.998577935800675" lon="2.8559214213218103"><ele>209.0</ele><time>2026-05-02T06:07:10Z</time></trkpt><trkpt lat="41.99864513967434" lon="2.8559757256791563"><ele>212.0</ele><time>2026-05-02T06:07:13Z</time></trkpt><trkpt lat="41.99868031066323" lon="2.856052653814173"><ele>215.0</ele><time>2026-05-02T06:07:16Z</time></trkpt><trkpt lat="41.998637050528515" lon="2.856119543049424"><ele>218.0</ele><time>2026-05-02T06:07:21.999Z</time></trkpt><trkpt lat="41.99856703665587" lon="2.8561154289511967"><ele>221.0</ele><time>2026-05-02T06:07:28.999Z</time></trkpt><trkpt lat="41.99850003070881" lon="2.856132296651317"><ele>224.0</ele><time>2026-05-02T06:07:31.999Z</time></trkpt><trkpt lat="41.99842485313883" lon="2.8561574093908795"><ele>226.99999999999997</ele><time>2026-05-02T06:07:34.999Z</time></trkpt><trkpt lat="41.99837009949303" lon="2.8562092118365645"><ele>229.99999999999997</ele><time>2026-05-02T06:07:37.999Z</time></trkpt><trkpt lat="41.99842033590546" lon="2.8562615985519306"><ele>229.99999999999997</ele><time>2026-05-02T06:07:42.999Z</time></trkpt><trkpt lat="41.99849007449283" lon="2.8562686200957796"><ele>230.0</ele><time>2026-05-02T06:07:47.999Z</time></trkpt><trkpt lat="41.99855805931916" lon="2.856295958891994"><ele>229.99999999999997</ele><time>2026-05-02T06:07:51.999Z</time></trkpt><trkpt lat="41.998622205866816" lon="2.8563145337645146"><ele>229.99999999999997</ele><time>2026-05-02T06:07:55.999Z</time></trkpt><trkpt lat="41.99869684796033" lon="2.8563471540995926"><ele>230.0</ele><time>2026-05-02T06:07:59.999Z</time></trkpt><trkpt lat="41.9987700888701" lon="2.8563672351810494"><ele>229.99999999999997</ele><time>2026-05-02T06:08:03.999Z</time></trkpt><trkpt lat="41.998849494390015" lon="2.8563855547277064"><ele>229.99999999999997</ele><time>2026-05-02T06:08:07.999Z</time></trkpt><trkpt lat="41.999031637414085" lon="2.8563938882592104"><ele>229.99999999999997</ele><time>2026-05-02T06:08:15.999Z</time></trkpt><trkpt lat="41.99910811991309" lon="2.856380817658165"><ele>230.0</ele><time>2026-05-02T06:08:18.999Z</time></trkpt><trkpt lat="41.99917299928171" lon="2.856371977258086"><ele>229.99999999999997</ele><time>2026-05-02T06:08:21.999Z</time></trkpt><trkpt lat="41.99924198456743" lon="2.856353042129537"><ele>229.99999999999997</ele><time>2026-05-02T06:08:24.999Z</time></trkpt><trkpt lat="41.99931134814335" lon="2.856320091603116"><ele>230.0</ele><time>2026-05-02T06:08:27.999Z</time></trkpt><trkpt lat="41.99937476561235" lon="2.856263252580642"><ele>229.99999999999997</ele><time>2026-05-02T06:08:30.999Z</time></trkpt><trkpt lat="41.99943669224941" lon="2.8562268975448433"><ele>229.99999999999997</ele><time>2026-05-02T06:08:33.999Z</time></trkpt><trkpt lat="41.999501226297745" lon="2.856201670823097"><ele>233.66666666666669</ele><time>2026-05-02T06:08:36.999Z</time></trkpt><trkpt lat="41.999577819233544" lon="2.856161568860504"><ele>237.33333333333334</ele><time>2026-05-02T06:08:39.999Z</time></trkpt><trkpt lat="41.99964359065461" lon="2.856135846714923"><ele>241.0</ele><time>2026-05-02T06:08:42.999Z</time></trkpt><trkpt lat="41.99972607998922" lon="2.8561163334075923"><ele>244.66666666666669</ele><time>2026-05-02T06:08:46.998Z</time></trkpt><trkpt lat="41.99979376033247" lon="2.8560844892380355"><ele>248.33333333333334</ele><time>2026-05-02T06:08:49.998Z</time></trkpt><trkpt lat="41.999875673150946" lon="2.8560439229069314"><ele>252.0</ele><time>2026-05-02T06:08:53.998Z</time></trkpt><trkpt lat="42.00000337998918" lon="2.8560173394309514"><ele>252.0</ele><time>2026-05-02T06:09:00Z</time></trkpt><trkpt lat="42.0000698843007" lon="2.8560022256479636"><ele>252.0</ele><time>2026-05-02T06:09:03Z</time></trkpt><trkpt lat="42.00029949448118" lon="2.8559947221684636"><ele>252.0</ele><time>2026-05-02T06:09:13Z</time></trkpt><trkpt lat="42.00037188164091" lon="2.8560034998827724"><ele>252.0</ele><time>2026-05-02T06:09:16Z</time></trkpt><trkpt lat="42.000455874902066" lon="2.856000972149095"><ele>252.0</ele><time>2026-05-02T06:09:19Z</time></trkpt><trkpt lat="42.00058768028529" lon="2.855987960883569"><ele>252.0</ele><time>2026-05-02T06:09:25Z</time></trkpt><trkpt lat="42.00059984007771" lon="2.856072873997258"><ele>252.0</ele><time>2026-05-02T06:09:27.999Z</time></trkpt><trkpt lat="42.0005322399508" lon="2.8561065702490005"><ele>252.0</ele><time>2026-05-02T06:09:30.999Z</time></trkpt><trkpt lat="42.000453470349264" lon="2.8561239233342985"><ele>252.0</ele><time>2026-05-02T06:09:33.999Z</time></trkpt><trkpt lat="42.000383924782106" lon="2.8561890888687227"><ele>252.0</ele><time>2026-05-02T06:09:37.999Z</time></trkpt><trkpt lat="42.00030491491111" lon="2.8562180686178222"><ele>252.0</ele><time>2026-05-02T06:09:39.999Z</time></trkpt><trkpt lat="42.00024072390696" lon="2.8562581791361863"><ele>252.0</ele><time>2026-05-02T06:09:41.999Z</time></trkpt><trkpt lat="42.000164837127514" lon="2.856283626012227"><ele>252.0</ele><time>2026-05-02T06:09:43.999Z</time></trkpt><trkpt lat="42.000105710544645" lon="2.8563388845356057"><ele>252.0</ele><time>2026-05-02T06:09:46.999Z</time></trkpt><trkpt lat="42.0000308354815" lon="2.856425967097368"><ele>252.0</ele><time>2026-05-02T06:09:49.999Z</time></trkpt><trkpt lat="41.99997126569517" lon="2.856487266363114"><ele>252.0</ele><time>2026-05-02T06:09:51.999Z</time></trkpt><trkpt lat="41.999913284699566" lon="2.8565489978993144"><ele>252.0</ele><time>2026-05-02T06:09:53.999Z</time></trkpt><trkpt lat="41.99984088627248" lon="2.856608410772936"><ele>252.0</ele><time>2026-05-02T06:09:56.999Z</time></trkpt><trkpt lat="41.999785677008816" lon="2.8566710063669642"><ele>252.0</ele><time>2026-05-02T06:09:58.999Z</time></trkpt><trkpt lat="41.999726740144375" lon="2.856749753693466"><ele>252.0</ele><time>2026-05-02T06:10:00.999Z</time></trkpt><trkpt lat="41.99967985977796" lon="2.856833387410234"><ele>252.0</ele><time>2026-05-02T06:10:02.999Z</time></trkpt><trkpt lat="41.999665553214186" lon="2.8569230610817247"><ele>252.0</ele><time>2026-05-02T06:10:04.999Z</time></trkpt><trkpt lat="41.999677246521294" lon="2.857008482054044"><ele>252.83333333333334</ele><time>2026-05-02T06:10:06.999Z</time></trkpt><trkpt lat="41.99970877542522" lon="2.857109834985585"><ele>253.66666666666669</ele><time>2026-05-02T06:10:09.999Z</time></trkpt><trkpt lat="41.999734912602044" lon="2.857215896092961"><ele>254.5</ele><time>2026-05-02T06:10:12.999Z</time></trkpt><trkpt lat="41.99974832986938" lon="2.857323230276392"><ele>255.33333333333334</ele><time>2026-05-02T06:10:15.999Z</time></trkpt><trkpt lat="41.999748525837994" lon="2.857438849195592"><ele>256.1666666666667</ele><time>2026-05-02T06:10:19.999Z</time></trkpt><trkpt lat="41.99976501803895" lon="2.8575298462969116"><ele>257.0</ele><time>2026-05-02T06:10:22.999Z</time></trkpt><trkpt lat="41.99980359917612" lon="2.8576034213853396"><ele>254.57142857142856</ele><time>2026-05-02T06:10:25.999Z</time></trkpt><trkpt lat="41.999852184695534" lon="2.8576590050653685"><ele>252.14285714285717</ele><time>2026-05-02T06:10:28.999Z</time></trkpt><trkpt lat="41.999907853364796" lon="2.857709798789806"><ele>249.71428571428572</ele><time>2026-05-02T06:10:31.999Z</time></trkpt><trkpt lat="41.9999650060847" lon="2.857764355118418"><ele>247.28571428571428</ele><time>2026-05-02T06:10:34.999Z</time></trkpt><trkpt lat="42.000024555232145" lon="2.8578105552015107"><ele>244.85714285714283</ele><time>2026-05-02T06:10:37.999Z</time></trkpt><trkpt lat="42.000091085282804" lon="2.8578741248301913"><ele>242.42857142857144</ele><time>2026-05-02T06:10:41.999Z</time></trkpt><trkpt lat="42.00016404809604" lon="2.8579242000784753"><ele>240.0</ele><time>2026-05-02T06:10:45.999Z</time></trkpt><trkpt lat="42.00022784771057" lon="2.8579718287261744"><ele>240.0</ele><time>2026-05-02T06:10:49.999Z</time></trkpt><trkpt lat="42.00028363622943" lon="2.8580110933911627"><ele>240.0</ele><time>2026-05-02T06:10:52.999Z</time></trkpt><trkpt lat="42.00035095960374" lon="2.8580516774284317"><ele>240.0</ele><time>2026-05-02T06:10:56.998Z</time></trkpt><trkpt lat="42.00041464729736" lon="2.8580948685713836"><ele>240.0</ele><time>2026-05-02T06:11:00.998Z</time></trkpt><trkpt lat="42.00049126928547" lon="2.858128591170989"><ele>240.0</ele><time>2026-05-02T06:11:05Z</time></trkpt><trkpt lat="42.000570246819976" lon="2.858158622369338"><ele>240.0</ele><time>2026-05-02T06:11:09Z</time></trkpt><trkpt lat="42.000645630176045" lon="2.8581865221408194"><ele>240.0</ele><time>2026-05-02T06:11:13Z</time></trkpt><trkpt lat="42.00070344031473" lon="2.8582228855718075"><ele>240.0</ele><time>2026-05-02T06:11:16Z</time></trkpt><trkpt lat="42.000802535636076" lon="2.858216240394764"><ele>240.0</ele><time>2026-05-02T06:11:21Z</time></trkpt><trkpt lat="42.00088420845463" lon="2.8582242790644474"><ele>240.0</ele><time>2026-05-02T06:11:25Z</time></trkpt><trkpt lat="42.0010170558289" lon="2.8582335638059626"><ele>240.0</ele><time>2026-05-02T06:11:31.999Z</time></trkpt><trkpt lat="42.00109603465831" lon="2.858224051676575"><ele>240.0</ele><time>2026-05-02T06:11:35.999Z</time></trkpt><trkpt lat="42.00117510488221" lon="2.8582228089040984"><ele>244.16666666666666</ele><time>2026-05-02T06:11:39.999Z</time></trkpt><trkpt lat="42.001250911520735" lon="2.8582118997288775"><ele>248.33333333333331</ele><time>2026-05-02T06:11:41.999Z</time></trkpt><trkpt lat="42.00133354104493" lon="2.858204105784968"><ele>252.5</ele><time>2026-05-02T06:11:43.999Z</time></trkpt><trkpt lat="42.001421890538154" lon="2.8582044701187885"><ele>256.66666666666663</ele><time>2026-05-02T06:11:45.999Z</time></trkpt><trkpt lat="42.00150698636573" lon="2.8582318952580925"><ele>260.8333333333333</ele><time>2026-05-02T06:11:47.999Z</time></trkpt><trkpt lat="42.001589955513204" lon="2.858278560863594"><ele>265.0</ele><time>2026-05-02T06:11:49.999Z</time></trkpt><trkpt lat="42.00164691159695" lon="2.8583420953246903"><ele>265.8</ele><time>2026-05-02T06:11:51.999Z</time></trkpt><trkpt lat="42.001669499156506" lon="2.858447529785614"><ele>266.6</ele><time>2026-05-02T06:11:53.999Z</time></trkpt><trkpt lat="42.0016849750657" lon="2.858588883023227"><ele>267.4</ele><time>2026-05-02T06:11:55.999Z</time></trkpt><trkpt lat="42.00172798511202" lon="2.858711870837594"><ele>268.2</ele><time>2026-05-02T06:11:57.999Z</time></trkpt><trkpt lat="42.00179186045818" lon="2.8588203637824825"><ele>269.0</ele><time>2026-05-02T06:11:59.999Z</time></trkpt><trkpt lat="42.00188607097995" lon="2.8589229158224487"><ele>269.0</ele><time>2026-05-02T06:12:01.999Z</time></trkpt><trkpt lat="42.00194478514926" lon="2.8589823672440224"><ele>269.0</ele><time>2026-05-02T06:12:02.999Z</time></trkpt><trkpt lat="42.00199524574555" lon="2.8590404131814484"><ele>269.0</ele><time>2026-05-02T06:12:03.999Z</time></trkpt><trkpt lat="42.00204727731417" lon="2.8590949255608145"><ele>269.0</ele><time>2026-05-02T06:12:04.999Z</time></trkpt><trkpt lat="42.00213749642289" lon="2.8592020419168005"><ele>269.0</ele><time>2026-05-02T06:12:06.999Z</time></trkpt><trkpt lat="42.00219692016106" lon="2.859280390007027"><ele>269.0</ele><time>2026-05-02T06:12:08.999Z</time></trkpt><trkpt lat="42.002228619995876" lon="2.859410732983945"><ele>271.33333333333337</ele><time>2026-05-02T06:12:10.999Z</time></trkpt><trkpt lat="42.00221144435437" lon="2.8595437373232744"><ele>273.6666666666667</ele><time>2026-05-02T06:12:12.999Z</time></trkpt><trkpt lat="42.00212253384462" lon="2.8596036836608367"><ele>276.0</ele><time>2026-05-02T06:12:14.999Z</time></trkpt><trkpt lat="42.00206710038677" lon="2.859685141939197"><ele>278.3333333333333</ele><time>2026-05-02T06:12:17.999Z</time></trkpt><trkpt lat="42.002010921030696" lon="2.8597379399558482"><ele>280.66666666666663</ele><time>2026-05-02T06:12:20.999Z</time></trkpt><trkpt lat="42.00194716132867" lon="2.859783592947315"><ele>283.0</ele><time>2026-05-02T06:12:23.999Z</time></trkpt><trkpt lat="42.0018882716887" lon="2.859853240784378"><ele>283.0</ele><time>2026-05-02T06:12:27.999Z</time></trkpt><trkpt lat="42.00182379849822" lon="2.8599180219914397"><ele>283.0</ele><time>2026-05-02T06:12:31.999Z</time></trkpt><trkpt lat="42.00175999551765" lon="2.859955451648051"><ele>283.0</ele><time>2026-05-02T06:12:34.999Z</time></trkpt><trkpt lat="42.001690305205145" lon="2.859994395413557"><ele>283.0</ele><time>2026-05-02T06:12:37.999Z</time></trkpt><trkpt lat="42.001616649693936" lon="2.8600352107140092"><ele>283.0</ele><time>2026-05-02T06:12:41.999Z</time></trkpt><trkpt lat="42.00153947011773" lon="2.8600795170845394"><ele>283.0</ele><time>2026-05-02T06:12:45.999Z</time></trkpt><trkpt lat="42.00146054676222" lon="2.860117139637084"><ele>284.42857142857144</ele><time>2026-05-02T06:12:48.999Z</time></trkpt><trkpt lat="42.00139584804108" lon="2.8601584305902206"><ele>285.8571428571429</ele><time>2026-05-02T06:12:51.999Z</time></trkpt><trkpt lat="42.00133422696433" lon="2.8601996597352"><ele>287.2857142857143</ele><time>2026-05-02T06:12:54.999Z</time></trkpt><trkpt lat="42.00127324878142" lon="2.860243683204131"><ele>288.7142857142857</ele><time>2026-05-02T06:12:57.999Z</time></trkpt><trkpt lat="42.00121775104537" lon="2.860289351318177"><ele>290.1428571428571</ele><time>2026-05-02T06:13:00.998Z</time></trkpt><trkpt lat="42.001165260737636" lon="2.8603554539998153"><ele>291.57142857142856</ele><time>2026-05-02T06:13:03.998Z</time></trkpt><trkpt lat="42.00109854615118" lon="2.8604380190283814"><ele>293.0</ele><time>2026-05-02T06:13:07.998Z</time></trkpt><trkpt lat="42.00104554063461" lon="2.8605200326439095"><ele>293.0</ele><time>2026-05-02T06:13:11Z</time></trkpt><trkpt lat="42.00097126231158" lon="2.86062737893379"><ele>293.0</ele><time>2026-05-02T06:13:14Z</time></trkpt><trkpt lat="42.00091475538375" lon="2.860699913682392"><ele>293.0</ele><time>2026-05-02T06:13:17Z</time></trkpt><trkpt lat="42.00085935139936" lon="2.860796389547494"><ele>293.0</ele><time>2026-05-02T06:13:20Z</time></trkpt><trkpt lat="42.000818316401705" lon="2.860866528797965"><ele>293.0</ele><time>2026-05-02T06:13:21Z</time></trkpt><trkpt lat="42.00077104730989" lon="2.860985444866867"><ele>293.0</ele><time>2026-05-02T06:13:24Z</time></trkpt><trkpt lat="42.00073749409813" lon="2.861078031467004"><ele>294.33333333333337</ele><time>2026-05-02T06:13:26Z</time></trkpt><trkpt lat="42.000716297705345" lon="2.861170027848284"><ele>295.6666666666667</ele><time>2026-05-02T06:13:28Z</time></trkpt><trkpt lat="42.00070732543232" lon="2.8612799121549344"><ele>297.0</ele><time>2026-05-02T06:13:31Z</time></trkpt><trkpt lat="42.000685849795886" lon="2.8613996803959236"><ele>298.3333333333333</ele><time>2026-05-02T06:13:34Z</time></trkpt><trkpt lat="42.00066523850553" lon="2.861505313750542"><ele>299.66666666666663</ele><time>2026-05-02T06:13:37Z</time></trkpt><trkpt lat="42.000619888856605" lon="2.8616001151833568"><ele>301.0</ele><time>2026-05-02T06:13:39.999Z</time></trkpt><trkpt lat="42.00056082758191" lon="2.861677099021115"><ele>301.0</ele><time>2026-05-02T06:13:42.999Z</time></trkpt><trkpt lat="42.00048671631887" lon="2.8617138705246625"><ele>301.0</ele><time>2026-05-02T06:13:44.999Z</time></trkpt><trkpt lat="42.00040695972421" lon="2.861702846373452"><ele>301.0</ele><time>2026-05-02T06:13:46.999Z</time></trkpt><trkpt lat="42.000340427135946" lon="2.8616955972902685"><ele>301.0</ele><time>2026-05-02T06:13:48.999Z</time></trkpt><trkpt lat="42.00026900617884" lon="2.861696255252328"><ele>301.0</ele><time>2026-05-02T06:13:51.999Z</time></trkpt><trkpt lat="42.00019957114245" lon="2.8617241411332754"><ele>301.0</ele><time>2026-05-02T06:13:54.999Z</time></trkpt><trkpt lat="42.00013987318898" lon="2.8617654142714994"><ele>301.0</ele><time>2026-05-02T06:13:56.999Z</time></trkpt><trkpt lat="42.00007105195819" lon="2.8618468349270563"><ele>301.3333333333333</ele><time>2026-05-02T06:13:59.999Z</time></trkpt><trkpt lat="42.00004434971363" lon="2.8619344773557356"><ele>301.66666666666663</ele><time>2026-05-02T06:14:01.999Z</time></trkpt><trkpt lat="42.00002223501619" lon="2.862036309135944"><ele>302.0</ele><time>2026-05-02T06:14:03.999Z</time></trkpt><trkpt lat="41.99999418724367" lon="2.862160350171532"><ele>302.3333333333333</ele><time>2026-05-02T06:14:05.999Z</time></trkpt><trkpt lat="41.99996305631358" lon="2.8622850272294666"><ele>302.6666666666667</ele><time>2026-05-02T06:14:07.999Z</time></trkpt><trkpt lat="41.99991056065797" lon="2.862393556557768"><ele>303.0</ele><time>2026-05-02T06:14:09.999Z</time></trkpt><trkpt lat="41.99986126600234" lon="2.862517846680952"><ele>303.0</ele><time>2026-05-02T06:14:11.999Z</time></trkpt><trkpt lat="41.99982179490482" lon="2.8626532066165638"><ele>303.0</ele><time>2026-05-02T06:14:13.999Z</time></trkpt><trkpt lat="41.99975908331243" lon="2.8627628833037964"><ele>303.0</ele><time>2026-05-02T06:14:15.999Z</time></trkpt><trkpt lat="41.9997143090149" lon="2.862879067352611"><ele>303.0</ele><time>2026-05-02T06:14:17.999Z</time></trkpt><trkpt lat="41.99968507805046" lon="2.862970635832474"><ele>303.0</ele><time>2026-05-02T06:14:19.999Z</time></trkpt><trkpt lat="41.999642240803425" lon="2.8630659978683486"><ele>303.0</ele><time>2026-05-02T06:14:22.999Z</time></trkpt><trkpt lat="41.99960188854176" lon="2.8631478853956067"><ele>303.0</ele><time>2026-05-02T06:14:25.999Z</time></trkpt><trkpt lat="41.99955962587228" lon="2.863231198447"><ele>303.0</ele><time>2026-05-02T06:14:28.999Z</time></trkpt><trkpt lat="41.999507977255874" lon="2.8633065441903494"><ele>303.0</ele><time>2026-05-02T06:14:31.999Z</time></trkpt><trkpt lat="41.99945244473948" lon="2.8634122013735324"><ele>303.0</ele><time>2026-05-02T06:14:34.999Z</time></trkpt><trkpt lat="41.99940341132511" lon="2.8634701239239027"><ele>303.0</ele><time>2026-05-02T06:14:36.999Z</time></trkpt><trkpt lat="41.999332284860685" lon="2.8635470844499085"><ele>303.6</ele><time>2026-05-02T06:14:38.999Z</time></trkpt><trkpt lat="41.99925434430736" lon="2.863643850918395"><ele>304.20000000000005</ele><time>2026-05-02T06:14:40.999Z</time></trkpt><trkpt lat="41.999173098979306" lon="2.8637291869630426"><ele>304.8</ele><time>2026-05-02T06:14:42.999Z</time></trkpt><trkpt lat="41.99908246561349" lon="2.863789085289354"><ele>305.40000000000003</ele><time>2026-05-02T06:14:44.999Z</time></trkpt><trkpt lat="41.998993525735" lon="2.8637985499011775"><ele>306.0</ele><time>2026-05-02T06:14:46.999Z</time></trkpt><trkpt lat="41.998916373527415" lon="2.8638494450476535"><ele>306.0</ele><time>2026-05-02T06:14:48.999Z</time></trkpt><trkpt lat="41.998860868760474" lon="2.863993871998589"><ele>306.0</ele><time>2026-05-02T06:14:50.999Z</time></trkpt><trkpt lat="41.99887920853984" lon="2.864094527395174"><ele>306.0</ele><time>2026-05-02T06:14:51.999Z</time></trkpt><trkpt lat="41.99886914429669" lon="2.8641841473753598"><ele>306.0</ele><time>2026-05-02T06:14:52.999Z</time></trkpt><trkpt lat="41.99883888621662" lon="2.864339540886226"><ele>306.0</ele><time>2026-05-02T06:14:54.999Z</time></trkpt><trkpt lat="41.99876329329994" lon="2.8644567478546374"><ele>305.0</ele><time>2026-05-02T06:14:56.999Z</time></trkpt><trkpt lat="41.99869621086107" lon="2.8645679937968285"><ele>304.0</ele><time>2026-05-02T06:14:58.999Z</time></trkpt><trkpt lat="41.99864196048581" lon="2.864647382372378"><ele>303.0</ele><time>2026-05-02T06:15:00.999Z</time></trkpt><trkpt lat="41.99860050071237" lon="2.8647378833126322"><ele>302.0</ele><time>2026-05-02T06:15:03.999Z</time></trkpt><trkpt lat="41.99853654455838" lon="2.8647886521776633"><ele>301.0</ele><time>2026-05-02T06:15:06.999Z</time></trkpt><trkpt lat="41.99847708744859" lon="2.864853458444173"><ele>300.0</ele><time>2026-05-02T06:15:09.998Z</time></trkpt><trkpt lat="41.99844397213262" lon="2.864928309928193"><ele>300.0</ele><time>2026-05-02T06:15:11.998Z</time></trkpt><trkpt lat="41.99839245699629" lon="2.864979260683706"><ele>300.0</ele><time>2026-05-02T06:15:13.998Z</time></trkpt><trkpt lat="41.99833653059714" lon="2.8650249437553663"><ele>300.0</ele><time>2026-05-02T06:15:16Z</time></trkpt><trkpt lat="41.99827157747837" lon="2.865068733614191"><ele>300.0</ele><time>2026-05-02T06:15:18Z</time></trkpt><trkpt lat="41.9981926233938" lon="2.8651226005774455"><ele>300.0</ele><time>2026-05-02T06:15:20Z</time></trkpt><trkpt lat="41.99811898188554" lon="2.8651896716532828"><ele>300.0</ele><time>2026-05-02T06:15:22Z</time></trkpt><trkpt lat="41.9980585757299" lon="2.8652625691172844"><ele>302.0</ele><time>2026-05-02T06:15:24Z</time></trkpt><trkpt lat="41.998000526623024" lon="2.8653381008094208"><ele>304.0</ele><time>2026-05-02T06:15:26Z</time></trkpt><trkpt lat="41.997950521928686" lon="2.865410715457656"><ele>306.0</ele><time>2026-05-02T06:15:28Z</time></trkpt><trkpt lat="41.99789806970992" lon="2.8654948572153347"><ele>308.0</ele><time>2026-05-02T06:15:31Z</time></trkpt><trkpt lat="41.99786184181336" lon="2.865569354238661"><ele>310.0</ele><time>2026-05-02T06:15:34Z</time></trkpt><trkpt lat="41.997810049887555" lon="2.8656490006143307"><ele>312.0</ele><time>2026-05-02T06:15:38Z</time></trkpt><trkpt lat="41.99774684764281" lon="2.8657163605897913"><ele>312.0</ele><time>2026-05-02T06:15:42Z</time></trkpt><trkpt lat="41.997682510997954" lon="2.8657723105472197"><ele>312.0</ele><time>2026-05-02T06:15:46Z</time></trkpt><trkpt lat="41.99759935946417" lon="2.8657932277677833"><ele>312.0</ele><time>2026-05-02T06:15:49.999Z</time></trkpt><trkpt lat="41.997527989751525" lon="2.865784096188109"><ele>312.0</ele><time>2026-05-02T06:15:52.999Z</time></trkpt><trkpt lat="41.99745603815414" lon="2.8657708820685053"><ele>312.0</ele><time>2026-05-02T06:15:55.999Z</time></trkpt><trkpt lat="41.997380358366335" lon="2.8657724019088624"><ele>312.0</ele><time>2026-05-02T06:15:58.999Z</time></trkpt><trkpt lat="41.99730753102611" lon="2.8657900895703365"><ele>311.42857142857144</ele><time>2026-05-02T06:16:01.999Z</time></trkpt><trkpt lat="41.99724108733519" lon="2.865811644189865"><ele>310.85714285714283</ele><time>2026-05-02T06:16:04.999Z</time></trkpt><trkpt lat="41.99717678908598" lon="2.865840660986856"><ele>310.2857142857143</ele><time>2026-05-02T06:16:07.999Z</time></trkpt><trkpt lat="41.99710203469468" lon="2.8658719762167584"><ele>309.7142857142857</ele><time>2026-05-02T06:16:11.999Z</time></trkpt><trkpt lat="41.997037971205124" lon="2.8659249992103994"><ele>309.1428571428571</ele><time>2026-05-02T06:16:15.999Z</time></trkpt><trkpt lat="41.99697013774969" lon="2.865950441454469"><ele>308.57142857142856</ele><time>2026-05-02T06:16:19.999Z</time></trkpt><trkpt lat="41.996896383555516" lon="2.86598046251226"><ele>308.0</ele><time>2026-05-02T06:16:24.999Z</time></trkpt><trkpt lat="41.99683214459466" lon="2.8660166443378188"><ele>308.0</ele><time>2026-05-02T06:16:28.999Z</time></trkpt><trkpt lat="41.99676108286638" lon="2.8660501801254834"><ele>308.0</ele><time>2026-05-02T06:16:32.999Z</time></trkpt><trkpt lat="41.99669280314767" lon="2.866092435048594"><ele>308.0</ele><time>2026-05-02T06:16:36.999Z</time></trkpt><trkpt lat="41.99661754435384" lon="2.8661216088211448"><ele>308.0</ele><time>2026-05-02T06:16:40.999Z</time></trkpt><trkpt lat="41.99654265407962" lon="2.86614578952609"><ele>308.0</ele><time>2026-05-02T06:16:44.999Z</time></trkpt><trkpt lat="41.9964745774375" lon="2.8661296916480907"><ele>308.0</ele><time>2026-05-02T06:16:47.999Z</time></trkpt><trkpt lat="41.99640465894005" lon="2.8661107322617667"><ele>308.0</ele><time>2026-05-02T06:16:50.999Z</time></trkpt><trkpt lat="41.99633809346405" lon="2.866069845904513"><ele>310.33333333333337</ele><time>2026-05-02T06:16:53.999Z</time></trkpt><trkpt lat="41.99627429045544" lon="2.8660236893292397"><ele>312.6666666666667</ele><time>2026-05-02T06:16:56.999Z</time></trkpt><trkpt lat="41.996199999837955" lon="2.865967822952515"><ele>315.0</ele><time>2026-05-02T06:16:59.999Z</time></trkpt><trkpt lat="41.99613626578865" lon="2.865932393339916"><ele>317.3333333333333</ele><time>2026-05-02T06:17:02.999Z</time></trkpt><trkpt lat="41.99606714588873" lon="2.8658897897252107"><ele>319.66666666666663</ele><time>2026-05-02T06:17:06.999Z</time></trkpt><trkpt lat="41.995993147943295" lon="2.865861098407272"><ele>322.0</ele><time>2026-05-02T06:17:10.999Z</time></trkpt><trkpt lat="41.995922115600756" lon="2.8658248786487976"><ele>323.42857142857144</ele><time>2026-05-02T06:17:15.999Z</time></trkpt><trkpt lat="41.99585489810385" lon="2.865805439198558"><ele>324.8571428571429</ele><time>2026-05-02T06:17:19.998Z</time></trkpt><trkpt lat="41.99579450526539" lon="2.8657809482545953"><ele>326.2857142857143</ele><time>2026-05-02T06:17:23Z</time></trkpt><trkpt lat="41.99572751676293" lon="2.865748287595491"><ele>327.7142857142857</ele><time>2026-05-02T06:17:29Z</time></trkpt><trkpt lat="41.99565161635295" lon="2.865731277737374"><ele>329.14285714285717</ele><time>2026-05-02T06:17:34Z</time></trkpt><trkpt lat="41.99558825603747" lon="2.865705601582787"><ele>330.57142857142856</ele><time>2026-05-02T06:17:39Z</time></trkpt><trkpt lat="41.99552138869813" lon="2.86568457216098"><ele>332.0</ele><time>2026-05-02T06:17:43Z</time></trkpt><trkpt lat="41.99545484754226" lon="2.8656717333353203"><ele>334.1428571428571</ele><time>2026-05-02T06:17:47Z</time></trkpt><trkpt lat="41.99538252384129" lon="2.86567942263717"><ele>336.28571428571433</ele><time>2026-05-02T06:17:51Z</time></trkpt><trkpt lat="41.99529806270941" lon="2.865657916329961"><ele>338.42857142857144</ele><time>2026-05-02T06:17:55Z</time></trkpt><trkpt lat="41.99522163905909" lon="2.8656652127067725"><ele>340.57142857142856</ele><time>2026-05-02T06:17:59Z</time></trkpt><trkpt lat="41.995157312794376" lon="2.8656644706972507"><ele>342.71428571428567</ele><time>2026-05-02T06:18:02Z</time></trkpt><trkpt lat="41.99508907310967" lon="2.86568122356393"><ele>344.8571428571429</ele><time>2026-05-02T06:18:04.999Z</time></trkpt><trkpt lat="41.99501715082201" lon="2.865687439214117"><ele>347.0</ele><time>2026-05-02T06:18:07.999Z</time></trkpt><trkpt lat="41.9949321274269" lon="2.865697247680241"><ele>349.1666666666667</ele><time>2026-05-02T06:18:10.999Z</time></trkpt><trkpt lat="41.9948617180595" lon="2.865707499688529"><ele>351.33333333333337</ele><time>2026-05-02T06:18:12.999Z</time></trkpt><trkpt lat="41.99477669772613" lon="2.8657103173097727"><ele>353.5</ele><time>2026-05-02T06:18:15.999Z</time></trkpt><trkpt lat="41.994692808581654" lon="2.865725001949059"><ele>355.6666666666667</ele><time>2026-05-02T06:18:18.999Z</time></trkpt><trkpt lat="41.994604250446294" lon="2.8657245483495855"><ele>357.8333333333333</ele><time>2026-05-02T06:18:21.999Z</time></trkpt><trkpt lat="41.99451915192317" lon="2.8657224017687786"><ele>360.0</ele><time>2026-05-02T06:18:24.999Z</time></trkpt><trkpt lat="41.994422799102445" lon="2.8657265726749626"><ele>360.0</ele><time>2026-05-02T06:18:27.999Z</time></trkpt><trkpt lat="41.99433887880134" lon="2.8657236151766816"><ele>360.0</ele><time>2026-05-02T06:18:29.999Z</time></trkpt><trkpt lat="41.99426111179725" lon="2.865707072955144"><ele>360.0</ele><time>2026-05-02T06:18:31.999Z</time></trkpt><trkpt lat="41.99416968930125" lon="2.8656959269601363"><ele>360.0</ele><time>2026-05-02T06:18:33.999Z</time></trkpt><trkpt lat="41.99407219162957" lon="2.8657239601243805"><ele>360.0</ele><time>2026-05-02T06:18:35.999Z</time></trkpt><trkpt lat="41.993979276439745" lon="2.8658001116262457"><ele>359.2</ele><time>2026-05-02T06:18:37.999Z</time></trkpt><trkpt lat="41.99392273639416" lon="2.8659189845884816"><ele>358.4</ele><time>2026-05-02T06:18:39.999Z</time></trkpt><trkpt lat="41.99388010823419" lon="2.866057130380937"><ele>357.6</ele><time>2026-05-02T06:18:41.999Z</time></trkpt><trkpt lat="41.99385412801476" lon="2.866202058567168"><ele>356.8</ele><time>2026-05-02T06:18:43.999Z</time></trkpt><trkpt lat="41.99383590187368" lon="2.8663445054414964"><ele>356.0</ele><time>2026-05-02T06:18:45.999Z</time></trkpt><trkpt lat="41.993822074464966" lon="2.8664725280307444"><ele>356.0</ele><time>2026-05-02T06:18:47.999Z</time></trkpt><trkpt lat="41.993813349052324" lon="2.8665593228134916"><ele>356.0</ele><time>2026-05-02T06:18:48.999Z</time></trkpt><trkpt lat="41.99379552924268" lon="2.866708714345483"><ele>356.0</ele><time>2026-05-02T06:18:50.999Z</time></trkpt><trkpt lat="41.99377175144201" lon="2.8668606227557505"><ele>356.0</ele><time>2026-05-02T06:18:52.999Z</time></trkpt><trkpt lat="41.993744009660865" lon="2.8670042546011127"><ele>356.0</ele><time>2026-05-02T06:18:54.999Z</time></trkpt><trkpt lat="41.993702277489945" lon="2.8671254637142694"><ele>354.20000000000005</ele><time>2026-05-02T06:18:56.999Z</time></trkpt><trkpt lat="41.99363112804515" lon="2.8672134388246757"><ele>352.40000000000003</ele><time>2026-05-02T06:18:58.999Z</time></trkpt><trkpt lat="41.9935414036828" lon="2.8672672508924784"><ele>350.6</ele><time>2026-05-02T06:19:00.999Z</time></trkpt><trkpt lat="41.99344598431138" lon="2.867293397365616"><ele>348.8</ele><time>2026-05-02T06:19:02.999Z</time></trkpt><trkpt lat="41.993343474557335" lon="2.8672965074444456"><ele>347.0</ele><time>2026-05-02T06:19:04.999Z</time></trkpt><trkpt lat="41.99323224933915" lon="2.8672952733232733"><ele>350.14285714285717</ele><time>2026-05-02T06:19:06.999Z</time></trkpt><trkpt lat="41.993163733667885" lon="2.8672974691836894"><ele>353.2857142857143</ele><time>2026-05-02T06:19:07.999Z</time></trkpt><trkpt lat="41.993088746843725" lon="2.8673060410543383"><ele>356.42857142857144</ele><time>2026-05-02T06:19:08.999Z</time></trkpt><trkpt lat="41.99301900965702" lon="2.8673189377610986"><ele>359.57142857142856</ele><time>2026-05-02T06:19:09.999Z</time></trkpt><trkpt lat="41.99294336052837" lon="2.8673372700905535"><ele>362.71428571428567</ele><time>2026-05-02T06:19:10.999Z</time></trkpt><trkpt lat="41.9928665143065" lon="2.8673583189628977"><ele>365.85714285714283</ele><time>2026-05-02T06:19:11.999Z</time></trkpt><trkpt lat="41.99279305909737" lon="2.8673801391048044"><ele>369.0</ele><time>2026-05-02T06:19:12.999Z</time></trkpt><trkpt lat="41.99273045071161" lon="2.867398175704047"><ele>369.0</ele><time>2026-05-02T06:19:13.999Z</time></trkpt><trkpt lat="41.99262712081245" lon="2.8674210166800735"><ele>369.0</ele><time>2026-05-02T06:19:15.999Z</time></trkpt><trkpt lat="41.992536512728414" lon="2.8674640768121957"><ele>369.0</ele><time>2026-05-02T06:19:17.999Z</time></trkpt><trkpt lat="41.99246525742325" lon="2.867555570620812"><ele>369.0</ele><time>2026-05-02T06:19:19.999Z</time></trkpt><trkpt lat="41.99243009107482" lon="2.8677260453170574"><ele>369.0</ele><time>2026-05-02T06:19:21.999Z</time></trkpt><trkpt lat="41.99240210463114" lon="2.86780636734651"><ele>366.8333333333333</ele><time>2026-05-02T06:19:22.999Z</time></trkpt><trkpt lat="41.99233117131691" lon="2.8679470439431243"><ele>364.6666666666667</ele><time>2026-05-02T06:19:24.999Z</time></trkpt><trkpt lat="41.99226692048946" lon="2.867968635524737"><ele>362.5</ele><time>2026-05-02T06:19:25.999Z</time></trkpt><trkpt lat="41.99220151416054" lon="2.868020088232127"><ele>360.33333333333337</ele><time>2026-05-02T06:19:26.999Z</time></trkpt><trkpt lat="41.992137974759366" lon="2.8680569361888537"><ele>358.1666666666667</ele><time>2026-05-02T06:19:28Z</time></trkpt><trkpt lat="41.99205907803206" lon="2.868104263397826"><ele>356.0</ele><time>2026-05-02T06:19:29Z</time></trkpt><trkpt lat="41.991979677902684" lon="2.868159961215052"><ele>356.0</ele><time>2026-05-02T06:19:30Z</time></trkpt><trkpt lat="41.99190859192405" lon="2.8682275209226624"><ele>356.0</ele><time>2026-05-02T06:19:31Z</time></trkpt><trkpt lat="41.991845125821115" lon="2.868295674671255"><ele>356.0</ele><time>2026-05-02T06:19:32Z</time></trkpt><trkpt lat="41.99178493225278" lon="2.868371810100135"><ele>356.0</ele><time>2026-05-02T06:19:33Z</time></trkpt><trkpt lat="41.991733202561505" lon="2.868446422560939"><ele>356.0</ele><time>2026-05-02T06:19:34Z</time></trkpt><trkpt lat="41.99168567900468" lon="2.868516658364474"><ele>356.0</ele><time>2026-05-02T06:19:35Z</time></trkpt><trkpt lat="41.99164275457785" lon="2.868581253611488"><ele>354.8</ele><time>2026-05-02T06:19:36Z</time></trkpt><trkpt lat="41.99156049629135" lon="2.8686791986654163"><ele>353.6</ele><time>2026-05-02T06:19:38Z</time></trkpt><trkpt lat="41.99145473381229" lon="2.8687509991877196"><ele>352.4</ele><time>2026-05-02T06:19:40Z</time></trkpt><trkpt lat="41.99134105578008" lon="2.868759538955711"><ele>351.2</ele><time>2026-05-02T06:19:42Z</time></trkpt><trkpt lat="41.99125746582762" lon="2.868685787654587"><ele>350.0</ele><time>2026-05-02T06:19:44Z</time></trkpt><trkpt lat="41.99117138210673" lon="2.8686193194948637"><ele>350.0</ele><time>2026-05-02T06:19:46Z</time></trkpt><trkpt lat="41.991088683970005" lon="2.86855897123522"><ele>350.0</ele><time>2026-05-02T06:19:48Z</time></trkpt><trkpt lat="41.99098741659153" lon="2.868523008379115"><ele>350.0</ele><time>2026-05-02T06:19:50Z</time></trkpt><trkpt lat="41.99089693649439" lon="2.868507743570972"><ele>350.0</ele><time>2026-05-02T06:19:52Z</time></trkpt><trkpt lat="41.99078906292799" lon="2.868523575953871"><ele>350.0</ele><time>2026-05-02T06:19:54Z</time></trkpt><trkpt lat="41.990698431344384" lon="2.86856098073025"><ele>352.0</ele><time>2026-05-02T06:19:56Z</time></trkpt><trkpt lat="41.990620100789315" lon="2.8685903547790836"><ele>354.0</ele><time>2026-05-02T06:19:58Z</time></trkpt><trkpt lat="41.99052746361439" lon="2.8686218952056017"><ele>356.0</ele><time>2026-05-02T06:20:00Z</time></trkpt><trkpt lat="41.99043860577291" lon="2.868653068345584"><ele>358.0</ele><time>2026-05-02T06:20:02Z</time></trkpt><trkpt lat="41.990354637087286" lon="2.8686779576850627"><ele>360.0</ele><time>2026-05-02T06:20:04Z</time></trkpt><trkpt lat="41.990266397250984" lon="2.868684917870783"><ele>362.0</ele><time>2026-05-02T06:20:06Z</time></trkpt><trkpt lat="41.9901725690358" lon="2.868699723763213"><ele>362.0</ele><time>2026-05-02T06:20:07.999Z</time></trkpt><trkpt lat="41.9900754957139" lon="2.8686941631123735"><ele>362.0</ele><time>2026-05-02T06:20:09.999Z</time></trkpt><trkpt lat="41.989973421893175" lon="2.8686713316955075"><ele>362.0</ele><time>2026-05-02T06:20:11.999Z</time></trkpt><trkpt lat="41.98987914518652" lon="2.8686504908036197"><ele>362.0</ele><time>2026-05-02T06:20:13.999Z</time></trkpt><trkpt lat="41.98978504842254" lon="2.86861015276658"><ele>362.0</ele><time>2026-05-02T06:20:15.999Z</time></trkpt><trkpt lat="41.98969654783089" lon="2.868549048818314"><ele>361.40000000000003</ele><time>2026-05-02T06:20:17.999Z</time></trkpt><trkpt lat="41.989608777724605" lon="2.8684626981552945"><ele>360.8</ele><time>2026-05-02T06:20:19.999Z</time></trkpt><trkpt lat="41.98953591152409" lon="2.868334172244058"><ele>360.2</ele><time>2026-05-02T06:20:21.999Z</time></trkpt><trkpt lat="41.98945870025077" lon="2.8681980898317647"><ele>359.6</ele><time>2026-05-02T06:20:23.999Z</time></trkpt><trkpt lat="41.98941161338322" lon="2.868134305550236"><ele>359.0</ele><time>2026-05-02T06:20:24.999Z</time></trkpt><trkpt lat="41.989387067712336" lon="2.868044522899943"><ele>359.0</ele><time>2026-05-02T06:20:25.999Z</time></trkpt><trkpt lat="41.98935758697868" lon="2.8679528608207043"><ele>359.0</ele><time>2026-05-02T06:20:26.999Z</time></trkpt><trkpt lat="41.989341882014266" lon="2.867859203942145"><ele>359.0</ele><time>2026-05-02T06:20:27.999Z</time></trkpt><trkpt lat="41.98931784266621" lon="2.867707123140778"><ele>359.0</ele><time>2026-05-02T06:20:29.999Z</time></trkpt><trkpt lat="41.98925700311311" lon="2.8675777413222105"><ele>359.0</ele><time>2026-05-02T06:20:31.999Z</time></trkpt><trkpt lat="41.98913688614639" lon="2.8675841546802867"><ele>360.6666666666667</ele><time>2026-05-02T06:20:33.999Z</time></trkpt><trkpt lat="41.989017771781256" lon="2.86765131320554"><ele>362.33333333333337</ele><time>2026-05-02T06:20:35.999Z</time></trkpt><trkpt lat="41.98895381237446" lon="2.8677042534244954"><ele>364.0</ele><time>2026-05-02T06:20:36.999Z</time></trkpt><trkpt lat="41.988892778346354" lon="2.867762904865809"><ele>365.6666666666667</ele><time>2026-05-02T06:20:37.999Z</time></trkpt><trkpt lat="41.988836597934664" lon="2.8678201005404373"><ele>367.3333333333333</ele><time>2026-05-02T06:20:38.999Z</time></trkpt><trkpt lat="41.988788171514685" lon="2.867882568981614"><ele>369.0</ele><time>2026-05-02T06:20:39.999Z</time></trkpt><trkpt lat="41.98873135121264" lon="2.867935206218914"><ele>369.0</ele><time>2026-05-02T06:20:40.999Z</time></trkpt><trkpt lat="41.98869855839763" lon="2.868027992078468"><ele>369.0</ele><time>2026-05-02T06:20:41.999Z</time></trkpt><trkpt lat="41.98869081605442" lon="2.868125092171239"><ele>369.0</ele><time>2026-05-02T06:20:42.999Z</time></trkpt><trkpt lat="41.988671687652996" lon="2.8682177765019516"><ele>369.0</ele><time>2026-05-02T06:20:43.999Z</time></trkpt><trkpt lat="41.98864951723045" lon="2.868306999634866"><ele>369.0</ele><time>2026-05-02T06:20:44.999Z</time></trkpt><trkpt lat="41.988626370985045" lon="2.86839422788232"><ele>369.0</ele><time>2026-05-02T06:20:45.999Z</time></trkpt><trkpt lat="41.988597448118774" lon="2.8684716419930365"><ele>369.0</ele><time>2026-05-02T06:20:46.999Z</time></trkpt><trkpt lat="41.988544216239774" lon="2.86855030149805"><ele>367.5</ele><time>2026-05-02T06:20:47.999Z</time></trkpt><trkpt lat="41.98847026504803" lon="2.8686045206154827"><ele>366.0</ele><time>2026-05-02T06:20:48.999Z</time></trkpt><trkpt lat="41.98841271370024" lon="2.8686885838617613"><ele>364.5</ele><time>2026-05-02T06:20:49.999Z</time></trkpt><trkpt lat="41.988349189241305" lon="2.868758135096247"><ele>363.0</ele><time>2026-05-02T06:20:50.999Z</time></trkpt><trkpt lat="41.988291562521624" lon="2.86882544348199"><ele>361.5</ele><time>2026-05-02T06:20:51.999Z</time></trkpt><trkpt lat="41.988241556117366" lon="2.868897972350114"><ele>360.0</ele><time>2026-05-02T06:20:52.999Z</time></trkpt><trkpt lat="41.98819424584423" lon="2.868970504556943"><ele>359.0</ele><time>2026-05-02T06:20:53.999Z</time></trkpt><trkpt lat="41.988143095365736" lon="2.8690312998305085"><ele>358.0</ele><time>2026-05-02T06:20:54.999Z</time></trkpt><trkpt lat="41.988040665483545" lon="2.8690954001049613"><ele>357.0</ele><time>2026-05-02T06:20:56.999Z</time></trkpt><trkpt lat="41.98794691042096" lon="2.8691651414867065"><ele>356.0</ele><time>2026-05-02T06:20:58.999Z</time></trkpt><trkpt lat="41.98787128324213" lon="2.8692535955206884"><ele>355.0</ele><time>2026-05-02T06:21:00.999Z</time></trkpt><trkpt lat="41.987807350431325" lon="2.869330595680053"><ele>351.2</ele><time>2026-05-02T06:21:02.999Z</time></trkpt><trkpt lat="41.987774595621794" lon="2.869433387726553"><ele>347.4</ele><time>2026-05-02T06:21:04.999Z</time></trkpt><trkpt lat="41.9877843998108" lon="2.869558579520602"><ele>343.6</ele><time>2026-05-02T06:21:06.999Z</time></trkpt><trkpt lat="41.98782578569091" lon="2.8696825276152267"><ele>339.8</ele><time>2026-05-02T06:21:08.999Z</time></trkpt><trkpt lat="41.98786582917652" lon="2.869794841112885"><ele>336.0</ele><time>2026-05-02T06:21:10.999Z</time></trkpt><trkpt lat="41.987865353406384" lon="2.8699172105085453"><ele>336.0</ele><time>2026-05-02T06:21:12.999Z</time></trkpt><trkpt lat="41.987821915084616" lon="2.870063073781662"><ele>336.0</ele><time>2026-05-02T06:21:14.999Z</time></trkpt><trkpt lat="41.98777845183055" lon="2.8701411496138065"><ele>336.0</ele><time>2026-05-02T06:21:15.999Z</time></trkpt><trkpt lat="41.987730436090935" lon="2.8702240515521003"><ele>336.0</ele><time>2026-05-02T06:21:16.999Z</time></trkpt><trkpt lat="41.987682938877754" lon="2.870305170772069"><ele>336.0</ele><time>2026-05-02T06:21:17.999Z</time></trkpt><trkpt lat="41.98765146425951" lon="2.870383370826522"><ele>336.0</ele><time>2026-05-02T06:21:18.999Z</time></trkpt><trkpt lat="41.98760525003775" lon="2.870518392949137"><ele>335.8333333333333</ele><time>2026-05-02T06:21:20.999Z</time></trkpt><trkpt lat="41.98756155380779" lon="2.8706158336403154"><ele>335.6666666666667</ele><time>2026-05-02T06:21:22.999Z</time></trkpt><trkpt lat="41.98748775300531" lon="2.870667235365122"><ele>335.5</ele><time>2026-05-02T06:21:24.999Z</time></trkpt><trkpt lat="41.98740558205587" lon="2.870679223080114"><ele>335.33333333333337</ele><time>2026-05-02T06:21:26.999Z</time></trkpt><trkpt lat="41.98731998941957" lon="2.870681875724756"><ele>335.1666666666667</ele><time>2026-05-02T06:21:28.999Z</time></trkpt><trkpt lat="41.98723031531932" lon="2.870685487382059"><ele>335.0</ele><time>2026-05-02T06:21:30.999Z</time></trkpt><trkpt lat="41.987143548142065" lon="2.8706864750002214"><ele>335.0</ele><time>2026-05-02T06:21:32.999Z</time></trkpt><trkpt lat="41.98705510857721" lon="2.8706938320838558"><ele>335.0</ele><time>2026-05-02T06:21:35Z</time></trkpt><trkpt lat="41.98696837706239" lon="2.8707222426829215"><ele>335.0</ele><time>2026-05-02T06:21:37Z</time></trkpt><trkpt lat="41.98688887063937" lon="2.8708006171088583"><ele>335.0</ele><time>2026-05-02T06:21:39Z</time></trkpt><trkpt lat="41.986801862184294" lon="2.8709158686975687"><ele>335.0</ele><time>2026-05-02T06:21:41Z</time></trkpt><trkpt lat="41.98675332956763" lon="2.870994384474246"><ele>332.5</ele><time>2026-05-02T06:21:42Z</time></trkpt><trkpt lat="41.98669462951763" lon="2.87108057589854"><ele>330.0</ele><time>2026-05-02T06:21:43Z</time></trkpt><trkpt lat="41.986632173937835" lon="2.871169971230793"><ele>327.5</ele><time>2026-05-02T06:21:44Z</time></trkpt><trkpt lat="41.98656122347587" lon="2.8712551665253594"><ele>325.0</ele><time>2026-05-02T06:21:45Z</time></trkpt><trkpt lat="41.986495770974564" lon="2.8713355145240063"><ele>322.5</ele><time>2026-05-02T06:21:46Z</time></trkpt><trkpt lat="41.986437050616296" lon="2.8714094217858284"><ele>320.0</ele><time>2026-05-02T06:21:47Z</time></trkpt><trkpt lat="41.98636980756666" lon="2.8714593584853074"><ele>319.4</ele><time>2026-05-02T06:21:48Z</time></trkpt><trkpt lat="41.98632112635031" lon="2.871518555091219"><ele>318.8</ele><time>2026-05-02T06:21:49Z</time></trkpt><trkpt lat="41.98624746287558" lon="2.8716309544993464"><ele>318.2</ele><time>2026-05-02T06:21:51Z</time></trkpt><trkpt lat="41.98612969601236" lon="2.871686732806385"><ele>317.6</ele><time>2026-05-02T06:21:53Z</time></trkpt><trkpt lat="41.98605784040996" lon="2.8716866261283385"><ele>317.0</ele><time>2026-05-02T06:21:54Z</time></trkpt><trkpt lat="41.985983720570005" lon="2.871642559613861"><ele>317.0</ele><time>2026-05-02T06:21:55Z</time></trkpt><trkpt lat="41.98590295515759" lon="2.871623820203042"><ele>317.0</ele><time>2026-05-02T06:21:56Z</time></trkpt><trkpt lat="41.98581511577971" lon="2.8716255830274444"><ele>317.0</ele><time>2026-05-02T06:21:57Z</time></trkpt><trkpt lat="41.98572997663705" lon="2.8716316186555457"><ele>317.0</ele><time>2026-05-02T06:21:58Z</time></trkpt><trkpt lat="41.985655795643666" lon="2.8716593373892443"><ele>317.0</ele><time>2026-05-02T06:21:59Z</time></trkpt><trkpt lat="41.985588636981305" lon="2.8716931690863676"><ele>317.0</ele><time>2026-05-02T06:22:00Z</time></trkpt><trkpt lat="41.98549142193648" lon="2.8717569973558827"><ele>316.4</ele><time>2026-05-02T06:22:02Z</time></trkpt><trkpt lat="41.9853800428542" lon="2.871782401774218"><ele>315.79999999999995</ele><time>2026-05-02T06:22:04Z</time></trkpt><trkpt lat="41.98534125549549" lon="2.8716883599370644"><ele>315.2</ele><time>2026-05-02T06:22:06Z</time></trkpt><trkpt lat="41.985410486460594" lon="2.871577224300431"><ele>314.59999999999997</ele><time>2026-05-02T06:22:08Z</time></trkpt><trkpt lat="41.98549350837474" lon="2.8714625597288355"><ele>314.0</ele><time>2026-05-02T06:22:10Z</time></trkpt><trkpt lat="41.9855450128445" lon="2.871407691892679"><ele>314.0</ele><time>2026-05-02T06:22:11Z</time></trkpt><trkpt lat="41.985648127055214" lon="2.8713262024124044"><ele>314.0</ele><time>2026-05-02T06:22:13Z</time></trkpt><trkpt lat="41.98574342360153" lon="2.871262481371081"><ele>314.0</ele><time>2026-05-02T06:22:15Z</time></trkpt><trkpt lat="41.985825371759375" lon="2.871193699394976"><ele>314.0</ele><time>2026-05-02T06:22:17Z</time></trkpt><trkpt lat="41.98588309495139" lon="2.8711319285018844"><ele>314.0</ele><time>2026-05-02T06:22:18.999Z</time></trkpt><trkpt lat="41.985877145936996" lon="2.871008133704382"><ele>314.0</ele><time>2026-05-02T06:22:20.999Z</time></trkpt><trkpt lat="41.98579037253783" lon="2.8709233324703693"><ele>314.0</ele><time>2026-05-02T06:22:22.999Z</time></trkpt><trkpt lat="41.985677771921665" lon="2.870934041715517"><ele>314.0</ele><time>2026-05-02T06:22:24.999Z</time></trkpt><trkpt lat="41.98560670089829" lon="2.870941950340241"><ele>314.0</ele><time>2026-05-02T06:22:25.999Z</time></trkpt><trkpt lat="41.98549754830153" lon="2.8709332538795875"><ele>314.0</ele><time>2026-05-02T06:22:27.999Z</time></trkpt><trkpt lat="41.98538477820732" lon="2.870907913366324"><ele>314.0</ele><time>2026-05-02T06:22:29.999Z</time></trkpt><trkpt lat="41.98531325419566" lon="2.870892662836789"><ele>314.0</ele><time>2026-05-02T06:22:30.999Z</time></trkpt><trkpt lat="41.9852346148064" lon="2.8708972731281186"><ele>314.0</ele><time>2026-05-02T06:22:31.999Z</time></trkpt><trkpt lat="41.98515924882575" lon="2.8709326668839323"><ele>314.0</ele><time>2026-05-02T06:22:32.999Z</time></trkpt><trkpt lat="41.98508669530805" lon="2.8709573092684897"><ele>314.0</ele><time>2026-05-02T06:22:33.999Z</time></trkpt><trkpt lat="41.98501192679957" lon="2.870974524484301"><ele>314.0</ele><time>2026-05-02T06:22:34.999Z</time></trkpt><trkpt lat="41.984936394416614" lon="2.8709862717292887"><ele>313.33333333333337</ele><time>2026-05-02T06:22:35.999Z</time></trkpt><trkpt lat="41.9848564678678" lon="2.870994126247662"><ele>312.6666666666667</ele><time>2026-05-02T06:22:36.999Z</time></trkpt><trkpt lat="41.98471740181787" lon="2.8710058997491403"><ele>312.0</ele><time>2026-05-02T06:22:38.999Z</time></trkpt><trkpt lat="41.98464041411254" lon="2.8710073455199314"><ele>311.3333333333333</ele><time>2026-05-02T06:22:39.999Z</time></trkpt><trkpt lat="41.98456979737059" lon="2.8710047941041927"><ele>310.66666666666663</ele><time>2026-05-02T06:22:40.999Z</time></trkpt><trkpt lat="41.9845061948426" lon="2.8710218834263546"><ele>310.0</ele><time>2026-05-02T06:22:41.999Z</time></trkpt><trkpt lat="41.98439115542982" lon="2.8710029297903175"><ele>310.0</ele><time>2026-05-02T06:22:43.999Z</time></trkpt><trkpt lat="41.98432557970922" lon="2.8709968117295563"><ele>310.0</ele><time>2026-05-02T06:22:44.999Z</time></trkpt><trkpt lat="41.98425678582372" lon="2.8709851639283768"><ele>310.0</ele><time>2026-05-02T06:22:45.999Z</time></trkpt><trkpt lat="41.98418513776805" lon="2.871001192172234"><ele>310.0</ele><time>2026-05-02T06:22:46.999Z</time></trkpt><trkpt lat="41.984115624367575" lon="2.8710231516622904"><ele>310.0</ele><time>2026-05-02T06:22:47.999Z</time></trkpt><trkpt lat="41.98404602562399" lon="2.8710600483099475"><ele>310.0</ele><time>2026-05-02T06:22:48.999Z</time></trkpt><trkpt lat="41.98397256353032" lon="2.871067874884715"><ele>310.0</ele><time>2026-05-02T06:22:49.999Z</time></trkpt><trkpt lat="41.98390218967042" lon="2.8710902766173048"><ele>308.66666666666663</ele><time>2026-05-02T06:22:50.999Z</time></trkpt><trkpt lat="41.983828957938954" lon="2.871112618045841"><ele>307.3333333333333</ele><time>2026-05-02T06:22:51.999Z</time></trkpt><trkpt lat="41.98376105835758" lon="2.8711323531504895"><ele>306.0</ele><time>2026-05-02T06:22:52.999Z</time></trkpt><trkpt lat="41.983691683239726" lon="2.871151960020498"><ele>304.6666666666667</ele><time>2026-05-02T06:22:53.999Z</time></trkpt><trkpt lat="41.98362733403408" lon="2.871169230445461"><ele>303.33333333333337</ele><time>2026-05-02T06:22:54.999Z</time></trkpt><trkpt lat="41.98351866201006" lon="2.8711952187633023"><ele>302.0</ele><time>2026-05-02T06:22:56.999Z</time></trkpt><trkpt lat="41.98343056724193" lon="2.8712115806822887"><ele>300.8</ele><time>2026-05-02T06:22:58.999Z</time></trkpt><trkpt lat="41.983330079216415" lon="2.8712303770033185"><ele>299.6</ele><time>2026-05-02T06:23:00.999Z</time></trkpt><trkpt lat="41.98322074104091" lon="2.8712501598406632"><ele>298.40000000000003</ele><time>2026-05-02T06:23:02.999Z</time></trkpt><trkpt lat="41.983108790261774" lon="2.871264095625862"><ele>297.2</ele><time>2026-05-02T06:23:04.999Z</time></trkpt><trkpt lat="41.98299846253892" lon="2.8712451378723127"><ele>296.0</ele><time>2026-05-02T06:23:06.999Z</time></trkpt><trkpt lat="41.98292378159253" lon="2.8711725375977992"><ele>296.0</ele><time>2026-05-02T06:23:08.999Z</time></trkpt><trkpt lat="41.98287807118564" lon="2.8710505456746493"><ele>296.0</ele><time>2026-05-02T06:23:10.999Z</time></trkpt><trkpt lat="41.98280886300216" lon="2.870949679918016"><ele>296.0</ele><time>2026-05-02T06:23:12.999Z</time></trkpt><trkpt lat="41.982695364595095" lon="2.870965679243433"><ele>296.0</ele><time>2026-05-02T06:23:14.999Z</time></trkpt><trkpt lat="41.98261904077874" lon="2.8709287810889954"><ele>296.0</ele><time>2026-05-02T06:23:16.999Z</time></trkpt><trkpt lat="41.9825437245787" lon="2.8709032578049025"><ele>298.0</ele><time>2026-05-02T06:23:18.999Z</time></trkpt><trkpt lat="41.98251145313544" lon="2.870790514405417"><ele>300.0</ele><time>2026-05-02T06:23:21.999Z</time></trkpt><trkpt lat="41.982515352076256" lon="2.8706837867901855"><ele>302.0</ele><time>2026-05-02T06:23:23.999Z</time></trkpt><trkpt lat="41.98251825013717" lon="2.8705556684445477"><ele>304.0</ele><time>2026-05-02T06:23:25.999Z</time></trkpt><trkpt lat="41.98252882780979" lon="2.8704223543356933"><ele>306.0</ele><time>2026-05-02T06:23:27.999Z</time></trkpt><trkpt lat="41.98255710123513" lon="2.870283458183378"><ele>307.0</ele><time>2026-05-02T06:23:29.999Z</time></trkpt><trkpt lat="41.98261284653695" lon="2.8701526688056602"><ele>308.0</ele><time>2026-05-02T06:23:31.999Z</time></trkpt><trkpt lat="41.982721785539844" lon="2.870007131416868"><ele>309.0</ele><time>2026-05-02T06:23:33.999Z</time></trkpt><trkpt lat="41.98279779067735" lon="2.869887828769459"><ele>310.0</ele><time>2026-05-02T06:23:35.999Z</time></trkpt><trkpt lat="41.982816080125744" lon="2.8698052024554808"><ele>311.0</ele><time>2026-05-02T06:23:36.999Z</time></trkpt><trkpt lat="41.98280851952914" lon="2.869642572478223"><ele>312.2857142857143</ele><time>2026-05-02T06:23:38.999Z</time></trkpt><trkpt lat="41.9827770081056" lon="2.8694883410473233"><ele>313.5714285714286</ele><time>2026-05-02T06:23:41Z</time></trkpt><trkpt lat="41.98276385617999" lon="2.869402131396887"><ele>314.8571428571429</ele><time>2026-05-02T06:23:42Z</time></trkpt><trkpt lat="41.98275851468832" lon="2.8693148834001163"><ele>316.1428571428571</ele><time>2026-05-02T06:23:43Z</time></trkpt><trkpt lat="41.98275998142148" lon="2.8692283111174364"><ele>317.42857142857144</ele><time>2026-05-02T06:23:44Z</time></trkpt><trkpt lat="41.98276241834312" lon="2.869139021183972"><ele>318.7142857142857</ele><time>2026-05-02T06:23:45Z</time></trkpt><trkpt lat="41.982750985260715" lon="2.8690541961965765"><ele>320.0</ele><time>2026-05-02T06:23:46Z</time></trkpt><trkpt lat="41.98274381275695" lon="2.868966910207848"><ele>321.0</ele><time>2026-05-02T06:23:47Z</time></trkpt><trkpt lat="41.98270777481971" lon="2.8688875541225984"><ele>322.0</ele><time>2026-05-02T06:23:48Z</time></trkpt><trkpt lat="41.9826050272537" lon="2.868855679909689"><ele>323.0</ele><time>2026-05-02T06:23:49Z</time></trkpt><trkpt lat="41.98253022689494" lon="2.868847301006475"><ele>324.0</ele><time>2026-05-02T06:23:50Z</time></trkpt><trkpt lat="41.98244484640723" lon="2.8688647913851506"><ele>325.0</ele><time>2026-05-02T06:23:51Z</time></trkpt><trkpt lat="41.98237230883192" lon="2.868895960034481"><ele>326.0</ele><time>2026-05-02T06:23:52Z</time></trkpt><trkpt lat="41.98228151362368" lon="2.869003767443693"><ele>322.8</ele><time>2026-05-02T06:23:54Z</time></trkpt><trkpt lat="41.98221764363168" lon="2.86906690825388"><ele>319.6</ele><time>2026-05-02T06:23:55Z</time></trkpt><trkpt lat="41.98211073434542" lon="2.869143312535076"><ele>316.4</ele><time>2026-05-02T06:23:57Z</time></trkpt><trkpt lat="41.98200770094541" lon="2.86919922721178"><ele>313.2</ele><time>2026-05-02T06:23:59Z</time></trkpt><trkpt lat="41.98191593934175" lon="2.8692512655328763"><ele>310.0</ele><time>2026-05-02T06:24:01Z</time></trkpt><trkpt lat="41.98181491781122" lon="2.869277621432629"><ele>310.0</ele><time>2026-05-02T06:24:03Z</time></trkpt><trkpt lat="41.98171716277299" lon="2.869267692417883"><ele>310.0</ele><time>2026-05-02T06:24:05Z</time></trkpt><trkpt lat="41.981622069130566" lon="2.8692124053799786"><ele>310.0</ele><time>2026-05-02T06:24:07Z</time></trkpt><trkpt lat="41.98157214701813" lon="2.869067014487928"><ele>310.0</ele><time>2026-05-02T06:24:09Z</time></trkpt><trkpt lat="41.98152758769327" lon="2.8689103650439036"><ele>310.0</ele><time>2026-05-02T06:24:11Z</time></trkpt><trkpt lat="41.98148867387603" lon="2.8688328619771775"><ele>309.7142857142857</ele><time>2026-05-02T06:24:12Z</time></trkpt><trkpt lat="41.98146651365668" lon="2.868744937811255"><ele>309.42857142857144</ele><time>2026-05-02T06:24:13Z</time></trkpt><trkpt lat="41.98144310744267" lon="2.8686588870141065"><ele>309.1428571428571</ele><time>2026-05-02T06:24:14Z</time></trkpt><trkpt lat="41.98141892375396" lon="2.8685697685122538"><ele>308.8571428571429</ele><time>2026-05-02T06:24:15Z</time></trkpt><trkpt lat="41.98139084293217" lon="2.868483236544815"><ele>308.57142857142856</ele><time>2026-05-02T06:24:16Z</time></trkpt><trkpt lat="41.981361105017065" lon="2.868393262685064"><ele>308.2857142857143</ele><time>2026-05-02T06:24:17Z</time></trkpt><trkpt lat="41.98133815049674" lon="2.8682985401361636"><ele>308.0</ele><time>2026-05-02T06:24:18Z</time></trkpt><trkpt lat="41.98129240496514" lon="2.868219472682494"><ele>308.6666666666667</ele><time>2026-05-02T06:24:19Z</time></trkpt><trkpt lat="41.98121982272123" lon="2.868166078436404"><ele>309.33333333333337</ele><time>2026-05-02T06:24:20Z</time></trkpt><trkpt lat="41.98114618861076" lon="2.868124640130879"><ele>310.0</ele><time>2026-05-02T06:24:21Z</time></trkpt><trkpt lat="41.98106278333203" lon="2.8681088351016553"><ele>310.6666666666667</ele><time>2026-05-02T06:24:22Z</time></trkpt><trkpt lat="41.98098695733169" lon="2.868095775433113"><ele>311.3333333333333</ele><time>2026-05-02T06:24:23Z</time></trkpt><trkpt lat="41.98090282435838" lon="2.8681404596276163"><ele>312.0</ele><time>2026-05-02T06:24:24Z</time></trkpt><trkpt lat="41.98084296041995" lon="2.8682482438853856"><ele>312.0</ele><time>2026-05-02T06:24:25Z</time></trkpt><trkpt lat="41.98078807421083" lon="2.8683307206497095"><ele>312.0</ele><time>2026-05-02T06:24:26Z</time></trkpt><trkpt lat="41.9807400828438" lon="2.8684156846115947"><ele>312.0</ele><time>2026-05-02T06:24:27Z</time></trkpt><trkpt lat="41.98070072766993" lon="2.868512679915653"><ele>312.0</ele><time>2026-05-02T06:24:28Z</time></trkpt><trkpt lat="41.9806731578403" lon="2.8686228195750165"><ele>312.0</ele><time>2026-05-02T06:24:29Z</time></trkpt><trkpt lat="41.980652839154615" lon="2.8687360886524074"><ele>312.0</ele><time>2026-05-02T06:24:29.999Z</time></trkpt><trkpt lat="41.98062372974479" lon="2.8688367452148413"><ele>309.8333333333333</ele><time>2026-05-02T06:24:30.999Z</time></trkpt><trkpt lat="41.980576035295" lon="2.868918564585764"><ele>307.6666666666667</ele><time>2026-05-02T06:24:31.999Z</time></trkpt><trkpt lat="41.98050126525867" lon="2.868947617495375"><ele>305.5</ele><time>2026-05-02T06:24:32.999Z</time></trkpt><trkpt lat="41.980425503095105" lon="2.8689561911971824"><ele>303.33333333333337</ele><time>2026-05-02T06:24:33.999Z</time></trkpt><trkpt lat="41.98034703090071" lon="2.8689355606414373"><ele>301.1666666666667</ele><time>2026-05-02T06:24:34.999Z</time></trkpt><trkpt lat="41.98026619423295" lon="2.8689141302899244"><ele>299.0</ele><time>2026-05-02T06:24:35.999Z</time></trkpt><trkpt lat="41.98018501292216" lon="2.8688832389943064"><ele>299.0</ele><time>2026-05-02T06:24:36.999Z</time></trkpt><trkpt lat="41.98011508029004" lon="2.868832638458268"><ele>299.0</ele><time>2026-05-02T06:24:37.999Z</time></trkpt><trkpt lat="41.98005049082074" lon="2.868770469848883"><ele>299.0</ele><time>2026-05-02T06:24:38.999Z</time></trkpt><trkpt lat="41.98004476536369" lon="2.8686412193737367"><ele>299.0</ele><time>2026-05-02T06:24:39.999Z</time></trkpt><trkpt lat="41.98000832855855" lon="2.8685237875374243"><ele>299.0</ele><time>2026-05-02T06:24:40.999Z</time></trkpt><trkpt lat="41.97994420758016" lon="2.868423778475728"><ele>299.0</ele><time>2026-05-02T06:24:41.999Z</time></trkpt><trkpt lat="41.97986971403073" lon="2.868346146498973"><ele>301.0</ele><time>2026-05-02T06:24:42.999Z</time></trkpt><trkpt lat="41.97979252680539" lon="2.8682778850428776"><ele>303.0</ele><time>2026-05-02T06:24:43.999Z</time></trkpt><trkpt lat="41.9797070513581" lon="2.8682210303561093"><ele>305.0</ele><time>2026-05-02T06:24:44.999Z</time></trkpt><trkpt lat="41.97962584188951" lon="2.8681763785936933"><ele>307.0</ele><time>2026-05-02T06:24:45.999Z</time></trkpt><trkpt lat="41.979542537472504" lon="2.868136853776731"><ele>309.0</ele><time>2026-05-02T06:24:46.999Z</time></trkpt><trkpt lat="41.97945797448723" lon="2.868106305626666"><ele>309.0</ele><time>2026-05-02T06:24:47.999Z</time></trkpt><trkpt lat="41.97937183539252" lon="2.8680924445642595"><ele>309.0</ele><time>2026-05-02T06:24:48.999Z</time></trkpt><trkpt lat="41.9792871846653" lon="2.8681524206930114"><ele>309.0</ele><time>2026-05-02T06:24:49.999Z</time></trkpt><trkpt lat="41.97922058056539" lon="2.868211507064922"><ele>309.0</ele><time>2026-05-02T06:24:50.999Z</time></trkpt><trkpt lat="41.979156050783004" lon="2.868292024254245"><ele>309.0</ele><time>2026-05-02T06:24:51.999Z</time></trkpt><trkpt lat="41.97907465638859" lon="2.868334892755027"><ele>309.0</ele><time>2026-05-02T06:24:52.999Z</time></trkpt><trkpt lat="41.97898335050108" lon="2.868323604920331"><ele>307.3333333333333</ele><time>2026-05-02T06:24:53.999Z</time></trkpt><trkpt lat="41.9788990785769" lon="2.8683239408336454"><ele>305.6666666666667</ele><time>2026-05-02T06:24:54.999Z</time></trkpt><trkpt lat="41.97882386449325" lon="2.8682740586521667"><ele>304.0</ele><time>2026-05-02T06:24:55.999Z</time></trkpt><trkpt lat="41.97879481644306" lon="2.8681654070602156"><ele>302.33333333333337</ele><time>2026-05-02T06:24:56.999Z</time></trkpt><trkpt lat="41.97876554755642" lon="2.868071673256997"><ele>300.6666666666667</ele><time>2026-05-02T06:24:57.999Z</time></trkpt><trkpt lat="41.97874443567268" lon="2.8679661235942624"><ele>299.0</ele><time>2026-05-02T06:24:58.999Z</time></trkpt><trkpt lat="41.978721050349186" lon="2.8678579004299407"><ele>299.0</ele><time>2026-05-02T06:24:59.999Z</time></trkpt><trkpt lat="41.97868603275244" lon="2.8677521967857187"><ele>299.0</ele><time>2026-05-02T06:25:00.999Z</time></trkpt><trkpt lat="41.978623257368355" lon="2.867658443325042"><ele>299.0</ele><time>2026-05-02T06:25:01.999Z</time></trkpt><trkpt lat="41.97853431459521" lon="2.8675958408466586"><ele>299.0</ele><time>2026-05-02T06:25:02.999Z</time></trkpt><trkpt lat="41.978431590231594" lon="2.8675804912571965"><ele>299.0</ele><time>2026-05-02T06:25:03.999Z</time></trkpt><trkpt lat="41.978339376143296" lon="2.8675876605449093"><ele>297.4</ele><time>2026-05-02T06:25:04.999Z</time></trkpt><trkpt lat="41.97825203195081" lon="2.8676470710387454"><ele>295.79999999999995</ele><time>2026-05-02T06:25:05.999Z</time></trkpt><trkpt lat="41.97816657867801" lon="2.8676842077590017"><ele>294.20000000000005</ele><time>2026-05-02T06:25:06.999Z</time></trkpt><trkpt lat="41.97807982513469" lon="2.8677216506804077"><ele>292.6</ele><time>2026-05-02T06:25:07.999Z</time></trkpt><trkpt lat="41.977985346495814" lon="2.867735130769866"><ele>291.0</ele><time>2026-05-02T06:25:08.999Z</time></trkpt><trkpt lat="41.97789784620488" lon="2.867768946982527"><ele>291.0</ele><time>2026-05-02T06:25:09.999Z</time></trkpt><trkpt lat="41.97782073241174" lon="2.8678139347117266"><ele>291.0</ele><time>2026-05-02T06:25:10.999Z</time></trkpt><trkpt lat="41.97773734490235" lon="2.867811610084499"><ele>291.0</ele><time>2026-05-02T06:25:11.999Z</time></trkpt><trkpt lat="41.977665298421506" lon="2.8677295714676743"><ele>291.0</ele><time>2026-05-02T06:25:12.999Z</time></trkpt><trkpt lat="41.97759411162595" lon="2.8676487199575167"><ele>291.0</ele><time>2026-05-02T06:25:13.999Z</time></trkpt><trkpt lat="41.97750510797281" lon="2.867591216304961"><ele>291.8</ele><time>2026-05-02T06:25:14.999Z</time></trkpt><trkpt lat="41.9774048308304" lon="2.867572689717911"><ele>292.6</ele><time>2026-05-02T06:25:15.999Z</time></trkpt><trkpt lat="41.97730169118136" lon="2.8675628425737525"><ele>293.4</ele><time>2026-05-02T06:25:16.999Z</time></trkpt><trkpt lat="41.977196054929905" lon="2.8675718154581564"><ele>294.2</ele><time>2026-05-02T06:25:17.999Z</time></trkpt><trkpt lat="41.97709497058583" lon="2.8675972978084805"><ele>295.0</ele><time>2026-05-02T06:25:18.999Z</time></trkpt><trkpt lat="41.97699105204867" lon="2.8676265101105267"><ele>293.8</ele><time>2026-05-02T06:25:19.999Z</time></trkpt><trkpt lat="41.97689093343989" lon="2.8676591246764667"><ele>292.6</ele><time>2026-05-02T06:25:20.999Z</time></trkpt><trkpt lat="41.97679608258947" lon="2.867683001742476"><ele>291.4</ele><time>2026-05-02T06:25:21.999Z</time></trkpt><trkpt lat="41.97670291266369" lon="2.8676963090924517"><ele>290.2</ele><time>2026-05-02T06:25:22.999Z</time></trkpt><trkpt lat="41.976614757083546" lon="2.8677037453067076"><ele>289.0</ele><time>2026-05-02T06:25:23.999Z</time></trkpt><trkpt lat="41.97652860458236" lon="2.8676830300871576"><ele>289.0</ele><time>2026-05-02T06:25:24.999Z</time></trkpt><trkpt lat="41.97644741086023" lon="2.8676779994459656"><ele>289.0</ele><time>2026-05-02T06:25:25.999Z</time></trkpt><trkpt lat="41.97636679242438" lon="2.867674879907177"><ele>289.0</ele><time>2026-05-02T06:25:26.999Z</time></trkpt><trkpt lat="41.97628754811716" lon="2.86770131272056"><ele>289.0</ele><time>2026-05-02T06:25:27.999Z</time></trkpt><trkpt lat="41.976210428641025" lon="2.867707493195848"><ele>289.0</ele><time>2026-05-02T06:25:28.999Z</time></trkpt><trkpt lat="41.97613475061495" lon="2.8677232919931104"><ele>289.0</ele><time>2026-05-02T06:25:29.999Z</time></trkpt><trkpt lat="41.97606024102475" lon="2.8677470061963906"><ele>289.0</ele><time>2026-05-02T06:25:30.999Z</time></trkpt><trkpt lat="41.975988074604224" lon="2.867775324439915"><ele>289.0</ele><time>2026-05-02T06:25:31.999Z</time></trkpt><trkpt lat="41.975916221068836" lon="2.867808749673054"><ele>289.0</ele><time>2026-05-02T06:25:32.999Z</time></trkpt><trkpt lat="41.9758399889241" lon="2.8678376606426785"><ele>289.0</ele><time>2026-05-02T06:25:33.999Z</time></trkpt><trkpt lat="41.97576434381421" lon="2.8678815520267906"><ele>289.0</ele><time>2026-05-02T06:25:34.999Z</time></trkpt><trkpt lat="41.975686534235514" lon="2.867919031376695"><ele>289.0</ele><time>2026-05-02T06:25:35.999Z</time></trkpt><trkpt lat="41.975603771223206" lon="2.867953178381725"><ele>289.8333333333333</ele><time>2026-05-02T06:25:36.999Z</time></trkpt><trkpt lat="41.975523000098306" lon="2.8679862830817315"><ele>290.66666666666663</ele><time>2026-05-02T06:25:37.999Z</time></trkpt><trkpt lat="41.975440037229724" lon="2.868015613536942"><ele>291.5</ele><time>2026-05-02T06:25:38.999Z</time></trkpt><trkpt lat="41.975355295460844" lon="2.8680409083768796"><ele>292.3333333333333</ele><time>2026-05-02T06:25:39.999Z</time></trkpt><trkpt lat="41.97527097359463" lon="2.8680617836866817"><ele>293.1666666666667</ele><time>2026-05-02T06:25:40.999Z</time></trkpt><trkpt lat="41.97518021925996" lon="2.868079309150476"><ele>294.0</ele><time>2026-05-02T06:25:41.999Z</time></trkpt><trkpt lat="41.975091074415516" lon="2.868055508407845"><ele>294.0</ele><time>2026-05-02T06:25:42.999Z</time></trkpt><trkpt lat="41.97499346218828" lon="2.8680583259318886"><ele>294.0</ele><time>2026-05-02T06:25:43.999Z</time></trkpt><trkpt lat="41.97489428292893" lon="2.8680896062296153"><ele>294.0</ele><time>2026-05-02T06:25:44.999Z</time></trkpt><trkpt lat="41.97480595990492" lon="2.8681443094058365"><ele>294.0</ele><time>2026-05-02T06:25:46Z</time></trkpt><trkpt lat="41.974713948224434" lon="2.868184922208002"><ele>294.0</ele><time>2026-05-02T06:25:47Z</time></trkpt><trkpt lat="41.97461927829345" lon="2.868177340919686"><ele>294.0</ele><time>2026-05-02T06:25:48Z</time></trkpt><trkpt lat="41.974527310840664" lon="2.868148692758085"><ele>294.0</ele><time>2026-05-02T06:25:49Z</time></trkpt><trkpt lat="41.9744374833893" lon="2.8681186234918474"><ele>294.0</ele><time>2026-05-02T06:25:50Z</time></trkpt><trkpt lat="41.97435018552678" lon="2.8680811127186363"><ele>294.0</ele><time>2026-05-02T06:25:51Z</time></trkpt><trkpt lat="41.974271281834625" lon="2.868020373429794"><ele>294.0</ele><time>2026-05-02T06:25:52Z</time></trkpt><trkpt lat="41.97420926801914" lon="2.867932079594259"><ele>292.59999999999997</ele><time>2026-05-02T06:25:53Z</time></trkpt><trkpt lat="41.974135167816655" lon="2.8678454572848184"><ele>291.2</ele><time>2026-05-02T06:25:54Z</time></trkpt><trkpt lat="41.97405273994121" lon="2.86777274546086"><ele>289.79999999999995</ele><time>2026-05-02T06:25:55Z</time></trkpt><trkpt lat="41.97395728474837" lon="2.867722106544475"><ele>288.4</ele><time>2026-05-02T06:25:56Z</time></trkpt><trkpt lat="41.9738657377081" lon="2.867665573744407"><ele>287.0</ele><time>2026-05-02T06:25:57Z</time></trkpt><trkpt lat="41.973774729335965" lon="2.8676192279924324"><ele>287.0</ele><time>2026-05-02T06:25:58Z</time></trkpt><trkpt lat="41.97367786559881" lon="2.8675946866439648"><ele>287.0</ele><time>2026-05-02T06:25:59Z</time></trkpt><trkpt lat="41.97357821576589" lon="2.8675933547699866"><ele>287.0</ele><time>2026-05-02T06:26:00Z</time></trkpt><trkpt lat="41.973482795862175" lon="2.8676079115169943"><ele>287.0</ele><time>2026-05-02T06:26:01Z</time></trkpt><trkpt lat="41.97338784343087" lon="2.867625603776031"><ele>287.0</ele><time>2026-05-02T06:26:02Z</time></trkpt><trkpt lat="41.97329497921357" lon="2.867651958013842"><ele>286.2</ele><time>2026-05-02T06:26:03Z</time></trkpt><trkpt lat="41.97320627942" lon="2.8676973851958065"><ele>285.4</ele><time>2026-05-02T06:26:04Z</time></trkpt><trkpt lat="41.97311915674255" lon="2.867740695316202"><ele>284.6</ele><time>2026-05-02T06:26:05Z</time></trkpt><trkpt lat="41.97307062265686" lon="2.867860130566046"><ele>283.8</ele><time>2026-05-02T06:26:06Z</time></trkpt><trkpt lat="41.9730141517121" lon="2.8679595604818684"><ele>283.0</ele><time>2026-05-02T06:26:07Z</time></trkpt><trkpt lat="41.97293466724816" lon="2.8680285446308313"><ele>283.0</ele><time>2026-05-02T06:26:08Z</time></trkpt><trkpt lat="41.97285885233043" lon="2.8681027783518958"><ele>283.0</ele><time>2026-05-02T06:26:09Z</time></trkpt><trkpt lat="41.97280402167643" lon="2.8682041576738353"><ele>283.0</ele><time>2026-05-02T06:26:10Z</time></trkpt><trkpt lat="41.97275103490926" lon="2.8682997295141734"><ele>283.0</ele><time>2026-05-02T06:26:11Z</time></trkpt><trkpt lat="41.97269899266445" lon="2.8683837645744616"><ele>283.0</ele><time>2026-05-02T06:26:12Z</time></trkpt><trkpt lat="41.972632473244" lon="2.8684347079885293"><ele>283.0</ele><time>2026-05-02T06:26:13Z</time></trkpt><trkpt lat="41.972547012969066" lon="2.868424549276731"><ele>282.2</ele><time>2026-05-02T06:26:14Z</time></trkpt><trkpt lat="41.972464556795856" lon="2.868453516783267"><ele>281.4</ele><time>2026-05-02T06:26:15Z</time></trkpt><trkpt lat="41.97238047364997" lon="2.868482393703105"><ele>280.59999999999997</ele><time>2026-05-02T06:26:16Z</time></trkpt><trkpt lat="41.972292170361584" lon="2.8685291817447913"><ele>279.8</ele><time>2026-05-02T06:26:17Z</time></trkpt><trkpt lat="41.972195358184734" lon="2.868552310317571"><ele>279.0</ele><time>2026-05-02T06:26:18Z</time></trkpt><trkpt lat="41.97210542934176" lon="2.868600748046037"><ele>279.0</ele><time>2026-05-02T06:26:19Z</time></trkpt><trkpt lat="41.972027807594785" lon="2.8686698420291745"><ele>279.0</ele><time>2026-05-02T06:26:20Z</time></trkpt><trkpt lat="41.97194489125885" lon="2.868709807972017"><ele>279.0</ele><time>2026-05-02T06:26:21Z</time></trkpt><trkpt lat="41.971895725821625" lon="2.8688187333163517"><ele>279.0</ele><time>2026-05-02T06:26:22Z</time></trkpt><trkpt lat="41.971860659782884" lon="2.8689393666140557"><ele>279.0</ele><time>2026-05-02T06:26:23Z</time></trkpt><trkpt lat="41.97182602228563" lon="2.8690636891176573"><ele>279.0</ele><time>2026-05-02T06:26:24Z</time></trkpt><trkpt lat="41.971779479969705" lon="2.869179439971136"><ele>279.0</ele><time>2026-05-02T06:26:25Z</time></trkpt><trkpt lat="41.971721381551745" lon="2.8692769733473815"><ele>279.0</ele><time>2026-05-02T06:26:26Z</time></trkpt><trkpt lat="41.97163753011964" lon="2.869316864858747"><ele>279.0</ele><time>2026-05-02T06:26:27Z</time></trkpt><trkpt lat="41.97155634678623" lon="2.8693555002549957"><ele>279.0</ele><time>2026-05-02T06:26:28Z</time></trkpt><trkpt lat="41.97146746408869" lon="2.869367196860938"><ele>278.59999999999997</ele><time>2026-05-02T06:26:29Z</time></trkpt><trkpt lat="41.971369842363494" lon="2.869374158252717"><ele>278.2</ele><time>2026-05-02T06:26:30Z</time></trkpt><trkpt lat="41.97126995163527" lon="2.8693771907289363"><ele>277.79999999999995</ele><time>2026-05-02T06:26:31Z</time></trkpt><trkpt lat="41.97116720041714" lon="2.869394398289436"><ele>277.4</ele><time>2026-05-02T06:26:32Z</time></trkpt><trkpt lat="41.97106212174755" lon="2.869392452118607"><ele>277.0</ele><time>2026-05-02T06:26:33Z</time></trkpt><trkpt lat="41.97095449219182" lon="2.869394180928555"><ele>276.2</ele><time>2026-05-02T06:26:34Z</time></trkpt><trkpt lat="41.97084735949428" lon="2.869370633561439"><ele>275.4</ele><time>2026-05-02T06:26:35Z</time></trkpt><trkpt lat="41.9707413513199" lon="2.869368142788361"><ele>274.6</ele><time>2026-05-02T06:26:36Z</time></trkpt><trkpt lat="41.970630229431634" lon="2.8693741562053434"><ele>273.8</ele><time>2026-05-02T06:26:37Z</time></trkpt><trkpt lat="41.97052487582437" lon="2.869407826585635"><ele>273.0</ele><time>2026-05-02T06:26:38Z</time></trkpt><trkpt lat="41.97042002247211" lon="2.869423140437233"><ele>273.0</ele><time>2026-05-02T06:26:39Z</time></trkpt><trkpt lat="41.9703198529166" lon="2.8694295881642424"><ele>273.0</ele><time>2026-05-02T06:26:40Z</time></trkpt><trkpt lat="41.970220427112054" lon="2.869413030506522"><ele>273.0</ele><time>2026-05-02T06:26:41Z</time></trkpt><trkpt lat="41.970128537780845" lon="2.8693722840568068"><ele>273.0</ele><time>2026-05-02T06:26:42Z</time></trkpt><trkpt lat="41.97004577783051" lon="2.8693092739885233"><ele>273.0</ele><time>2026-05-02T06:26:43Z</time></trkpt><trkpt lat="41.96997509397324" lon="2.8692172166469514"><ele>275.4</ele><time>2026-05-02T06:26:44Z</time></trkpt><trkpt lat="41.969912883285396" lon="2.869108202007848"><ele>277.8</ele><time>2026-05-02T06:26:44.999Z</time></trkpt><trkpt lat="41.969848977084744" lon="2.8689983391708935"><ele>280.2</ele><time>2026-05-02T06:26:45.999Z</time></trkpt><trkpt lat="41.969785923989114" lon="2.8688862138836813"><ele>282.6</ele><time>2026-05-02T06:26:46.999Z</time></trkpt><trkpt lat="41.96972831591385" lon="2.868770962282121"><ele>285.0</ele><time>2026-05-02T06:26:47.999Z</time></trkpt><trkpt lat="41.96968109371776" lon="2.8686428706064473"><ele>285.0</ele><time>2026-05-02T06:26:48.999Z</time></trkpt><trkpt lat="41.969660980962466" lon="2.868495430205173"><ele>285.0</ele><time>2026-05-02T06:26:49.999Z</time></trkpt><trkpt lat="41.96962688700345" lon="2.868350815592881"><ele>285.0</ele><time>2026-05-02T06:26:50.999Z</time></trkpt><trkpt lat="41.96958700822776" lon="2.8682068531286675"><ele>285.0</ele><time>2026-05-02T06:26:51.999Z</time></trkpt><trkpt lat="41.96953802341662" lon="2.8680622281750563"><ele>285.4</ele><time>2026-05-02T06:26:52.999Z</time></trkpt><trkpt lat="41.96948499938688" lon="2.867921102965112"><ele>285.8</ele><time>2026-05-02T06:26:53.999Z</time></trkpt><trkpt lat="41.96943090657185" lon="2.8677883480334767"><ele>286.2</ele><time>2026-05-02T06:26:54.999Z</time></trkpt><trkpt lat="41.96937223004958" lon="2.8676638638295127"><ele>286.6</ele><time>2026-05-02T06:26:55.999Z</time></trkpt><trkpt lat="41.969300587760635" lon="2.8675541259517843"><ele>287.0</ele><time>2026-05-02T06:26:56.999Z</time></trkpt><trkpt lat="41.96921239075292" lon="2.8674621400078664"><ele>284.0</ele><time>2026-05-02T06:26:57.999Z</time></trkpt><trkpt lat="41.969112681686184" lon="2.8673865564300947"><ele>281.0</ele><time>2026-05-02T06:26:58.999Z</time></trkpt><trkpt lat="41.969011987184274" lon="2.8673161521969965"><ele>278.0</ele><time>2026-05-02T06:26:59.999Z</time></trkpt><trkpt lat="41.96890680478802" lon="2.867248335747478"><ele>275.0</ele><time>2026-05-02T06:27:00.999Z</time></trkpt><trkpt lat="41.96880038346746" lon="2.867180400610811"><ele>275.0</ele><time>2026-05-02T06:27:01.999Z</time></trkpt><trkpt lat="41.96869498148578" lon="2.867111984609927"><ele>275.0</ele><time>2026-05-02T06:27:02.999Z</time></trkpt><trkpt lat="41.96859780498661" lon="2.8670298291763414"><ele>275.0</ele><time>2026-05-02T06:27:03.999Z</time></trkpt><trkpt lat="41.96851231164873" lon="2.8669225413449873"><ele>275.0</ele><time>2026-05-02T06:27:04.999Z</time></trkpt><trkpt lat="41.96842933184271" lon="2.8668146082222656"><ele>274.0</ele><time>2026-05-02T06:27:05.999Z</time></trkpt><trkpt lat="41.968339653752594" lon="2.866709354169872"><ele>273.0</ele><time>2026-05-02T06:27:06.999Z</time></trkpt><trkpt lat="41.9682335513132" lon="2.8666314671706354"><ele>272.0</ele><time>2026-05-02T06:27:07.999Z</time></trkpt><trkpt lat="41.96810831313148" lon="2.866624238000925"><ele>271.0</ele><time>2026-05-02T06:27:08.999Z</time></trkpt><trkpt lat="41.96800486790011" lon="2.866560675435672"><ele>271.0</ele><time>2026-05-02T06:27:09.999Z</time></trkpt><trkpt lat="41.96789883572936" lon="2.8664943320305767"><ele>271.0</ele><time>2026-05-02T06:27:10.999Z</time></trkpt><trkpt lat="41.96779359627135" lon="2.866428220634057"><ele>271.0</ele><time>2026-05-02T06:27:11.999Z</time></trkpt><trkpt lat="41.96768402349326" lon="2.8663864993731942"><ele>271.0</ele><time>2026-05-02T06:27:12.999Z</time></trkpt><trkpt lat="41.96757230439256" lon="2.8663953017372488"><ele>267.40000000000003</ele><time>2026-05-02T06:27:13.999Z</time></trkpt><trkpt lat="41.96746549049106" lon="2.8663965634085846"><ele>263.8</ele><time>2026-05-02T06:27:14.999Z</time></trkpt><trkpt lat="41.96736267587857" lon="2.8663954394360034"><ele>260.20000000000005</ele><time>2026-05-02T06:27:15.999Z</time></trkpt><trkpt lat="41.96727326994766" lon="2.866371374072963"><ele>256.6</ele><time>2026-05-02T06:27:16.999Z</time></trkpt><trkpt lat="41.96719579219314" lon="2.8663657648698373"><ele>253.0</ele><time>2026-05-02T06:27:17.999Z</time></trkpt><trkpt lat="41.96712183104606" lon="2.8663550319502478"><ele>252.99999999999997</ele><time>2026-05-02T06:27:18.999Z</time></trkpt><trkpt lat="41.967058750119435" lon="2.866321092083234"><ele>253.0</ele><time>2026-05-02T06:27:19.999Z</time></trkpt><trkpt lat="41.96699463200752" lon="2.86628208685533"><ele>253.0</ele><time>2026-05-02T06:27:20.999Z</time></trkpt><trkpt lat="41.96697261834997" lon="2.866173511179713"><ele>253.0</ele><time>2026-05-02T06:27:21.999Z</time></trkpt><trkpt lat="41.966959263567404" lon="2.8660619997646575"><ele>252.99999999999997</ele><time>2026-05-02T06:27:22.999Z</time></trkpt><trkpt lat="41.96694488873448" lon="2.865942746248244"><ele>253.0</ele><time>2026-05-02T06:27:23.999Z</time></trkpt><trkpt lat="41.96692641195304" lon="2.8658231378612653"><ele>253.2</ele><time>2026-05-02T06:27:24.999Z</time></trkpt><trkpt lat="41.966885301667766" lon="2.8657201822294063"><ele>253.4</ele><time>2026-05-02T06:27:25.999Z</time></trkpt><trkpt lat="41.966819615048216" lon="2.865652957119435"><ele>253.59999999999997</ele><time>2026-05-02T06:27:26.999Z</time></trkpt><trkpt lat="41.9667134820251" lon="2.86566363671171"><ele>253.79999999999998</ele><time>2026-05-02T06:27:27.999Z</time></trkpt><trkpt lat="41.966615689075276" lon="2.86567801505732"><ele>254.0</ele><time>2026-05-02T06:27:28.999Z</time></trkpt><trkpt lat="41.96651352521295" lon="2.8656673352473088"><ele>254.0</ele><time>2026-05-02T06:27:29.999Z</time></trkpt><trkpt lat="41.96641168567023" lon="2.8656658033960496"><ele>253.99999999999997</ele><time>2026-05-02T06:27:30.999Z</time></trkpt><trkpt lat="41.9663102819408" lon="2.8656587589253544"><ele>253.99999999999997</ele><time>2026-05-02T06:27:31.999Z</time></trkpt><trkpt lat="41.96622005957599" lon="2.8656479206491223"><ele>254.0</ele><time>2026-05-02T06:27:32.999Z</time></trkpt><trkpt lat="41.96614724044494" lon="2.8656349078589183"><ele>254.0</ele><time>2026-05-02T06:27:33.999Z</time></trkpt><trkpt lat="41.96605858042023" lon="2.8655182223600932"><ele>254.00000000000003</ele><time>2026-05-02T06:27:35.999Z</time></trkpt><trkpt lat="41.96603134519445" lon="2.8654325669176886"><ele>254.0</ele><time>2026-05-02T06:27:36.999Z</time></trkpt><trkpt lat="41.9660200159398" lon="2.86532863891529"><ele>254.0</ele><time>2026-05-02T06:27:37.999Z</time></trkpt><trkpt lat="41.96599008015281" lon="2.8652165525298012"><ele>254.0</ele><time>2026-05-02T06:27:38.999Z</time></trkpt><trkpt lat="41.965937946455746" lon="2.865106710726229"><ele>254.00000000000003</ele><time>2026-05-02T06:27:39.999Z</time></trkpt><trkpt lat="41.965847663499865" lon="2.8650253644811303"><ele>254.0</ele><time>2026-05-02T06:27:40.999Z</time></trkpt><trkpt lat="41.96576630057281" lon="2.864946952874894"><ele>251.39999999999998</ele><time>2026-05-02T06:27:41.999Z</time></trkpt><trkpt lat="41.96568414906586" lon="2.864865362983953"><ele>248.79999999999998</ele><time>2026-05-02T06:27:42.999Z</time></trkpt><trkpt lat="41.965603408355605" lon="2.864782257571626"><ele>246.20000000000002</ele><time>2026-05-02T06:27:43.999Z</time></trkpt><trkpt lat="41.96552897115006" lon="2.8646906908386014"><ele>243.60000000000002</ele><time>2026-05-02T06:27:44.999Z</time></trkpt><trkpt lat="41.96547115564892" lon="2.8645783974455172"><ele>241.0</ele><time>2026-05-02T06:27:45.999Z</time></trkpt><trkpt lat="41.965426103091545" lon="2.8644511295960227"><ele>241.0</ele><time>2026-05-02T06:27:46.999Z</time></trkpt><trkpt lat="41.9653771172414" lon="2.864317568372031"><ele>241.0</ele><time>2026-05-02T06:27:47.999Z</time></trkpt><trkpt lat="41.96532038545085" lon="2.864183234582958"><ele>241.0</ele><time>2026-05-02T06:27:48.999Z</time></trkpt><trkpt lat="41.9652577506581" lon="2.864059034735907"><ele>241.0</ele><time>2026-05-02T06:27:49.999Z</time></trkpt><trkpt lat="41.9651806034924" lon="2.8639380051108922"><ele>240.0</ele><time>2026-05-02T06:27:50.999Z</time></trkpt><trkpt lat="41.96509319762552" lon="2.863833277046702"><ele>239.0</ele><time>2026-05-02T06:27:52Z</time></trkpt><trkpt lat="41.96498814991564" lon="2.863751839127046"><ele>238.0</ele><time>2026-05-02T06:27:53Z</time></trkpt><trkpt lat="41.96486981535539" lon="2.863720885462789"><ele>237.0</ele><time>2026-05-02T06:27:54Z</time></trkpt><trkpt lat="41.96476070732209" lon="2.8636822818871086"><ele>235.8</ele><time>2026-05-02T06:27:55Z</time></trkpt><trkpt lat="41.96465311584198" lon="2.863646330556781"><ele>234.6</ele><time>2026-05-02T06:27:56Z</time></trkpt><trkpt lat="41.96454519698447" lon="2.8636115996808638"><ele>233.40000000000003</ele><time>2026-05-02T06:27:57Z</time></trkpt><trkpt lat="41.96443863475027" lon="2.8635776954040577"><ele>232.20000000000002</ele><time>2026-05-02T06:27:58Z</time></trkpt><trkpt lat="41.964336205791945" lon="2.863541406389394"><ele>231.0</ele><time>2026-05-02T06:27:59Z</time></trkpt><trkpt lat="41.964230582087986" lon="2.863511079485747"><ele>230.20000000000002</ele><time>2026-05-02T06:28:00Z</time></trkpt><trkpt lat="41.96412799985478" lon="2.863474582433731"><ele>229.40000000000003</ele><time>2026-05-02T06:28:01Z</time></trkpt><trkpt lat="41.9640283701812" lon="2.863431264676747"><ele>228.6</ele><time>2026-05-02T06:28:02Z</time></trkpt><trkpt lat="41.96395213907023" lon="2.8633536724845685"><ele>227.8</ele><time>2026-05-02T06:28:03Z</time></trkpt><trkpt lat="41.96390397319213" lon="2.863263144559618"><ele>227.0</ele><time>2026-05-02T06:28:04Z</time></trkpt><trkpt lat="41.963883256763154" lon="2.863180445839036"><ele>227.0</ele><time>2026-05-02T06:28:05Z</time></trkpt><trkpt lat="41.963797748071734" lon="2.8631617915202883"><ele>227.0</ele><time>2026-05-02T06:28:06Z</time></trkpt><trkpt lat="41.96372102169631" lon="2.8630516588654324"><ele>227.0</ele><time>2026-05-02T06:28:08Z</time></trkpt><trkpt lat="41.963729326458" lon="2.8629498025307627"><ele>227.0</ele><time>2026-05-02T06:28:09Z</time></trkpt><trkpt lat="41.9636640013818" lon="2.862805607327708"><ele>227.0</ele><time>2026-05-02T06:28:11Z</time></trkpt><trkpt lat="41.96359579522816" lon="2.8627724988276406"><ele>227.00000000000003</ele><time>2026-05-02T06:28:12Z</time></trkpt><trkpt lat="41.96355158715401" lon="2.86270519918195"><ele>227.0</ele><time>2026-05-02T06:28:13Z</time></trkpt><trkpt lat="41.96349852559187" lon="2.8626542157553967"><ele>227.0</ele><time>2026-05-02T06:28:14Z</time></trkpt><trkpt lat="41.96344307607767" lon="2.8625940588169665"><ele>227.0</ele><time>2026-05-02T06:28:15Z</time></trkpt><trkpt lat="41.96338042575991" lon="2.862527656987783"><ele>227.00000000000003</ele><time>2026-05-02T06:28:16Z</time></trkpt><trkpt lat="41.96331201743976" lon="2.8624631292538165"><ele>227.0</ele><time>2026-05-02T06:28:17Z</time></trkpt><trkpt lat="41.96323429211291" lon="2.862400448505547"><ele>226.50000000000003</ele><time>2026-05-02T06:28:18Z</time></trkpt><trkpt lat="41.96316184297586" lon="2.8623298376196527"><ele>226.0</ele><time>2026-05-02T06:28:19Z</time></trkpt><trkpt lat="41.96309790773279" lon="2.862256699605161"><ele>225.5</ele><time>2026-05-02T06:28:20Z</time></trkpt><trkpt lat="41.96303273836687" lon="2.8621882908671883"><ele>225.0</ele><time>2026-05-02T06:28:21Z</time></trkpt><trkpt lat="41.96296579449006" lon="2.8621406763557498"><ele>224.50000000000003</ele><time>2026-05-02T06:28:22Z</time></trkpt><trkpt lat="41.96289799201457" lon="2.86212550266544"><ele>224.0</ele><time>2026-05-02T06:28:23Z</time></trkpt><trkpt lat="41.962810177624945" lon="2.8621140961339933"><ele>224.0</ele><time>2026-05-02T06:28:25Z</time></trkpt><trkpt lat="41.962725565750354" lon="2.8620690954613206"><ele>223.99999999999997</ele><time>2026-05-02T06:28:27Z</time></trkpt><trkpt lat="41.96262101096558" lon="2.862029363195847"><ele>223.99999999999997</ele><time>2026-05-02T06:28:29Z</time></trkpt><trkpt lat="41.962557860333824" lon="2.862021088118942"><ele>224.0</ele><time>2026-05-02T06:28:30Z</time></trkpt><trkpt lat="41.96243826859268" lon="2.8619661168351516"><ele>224.0</ele><time>2026-05-02T06:28:32Z</time></trkpt><trkpt lat="41.96237025676453" lon="2.8619410082406733"><ele>224.71428571428572</ele><time>2026-05-02T06:28:33Z</time></trkpt><trkpt lat="41.96230026626771" lon="2.8619204220192938"><ele>225.42857142857144</ele><time>2026-05-02T06:28:34Z</time></trkpt><trkpt lat="41.96223647460424" lon="2.861898291879754"><ele>226.14285714285714</ele><time>2026-05-02T06:28:35Z</time></trkpt><trkpt lat="41.96216861965392" lon="2.8618617699563216"><ele>226.85714285714286</ele><time>2026-05-02T06:28:36Z</time></trkpt><trkpt lat="41.96209833121474" lon="2.861833029897664"><ele>227.57142857142858</ele><time>2026-05-02T06:28:37Z</time></trkpt><trkpt lat="41.96203437186036" lon="2.8617968203108965"><ele>228.28571428571428</ele><time>2026-05-02T06:28:38Z</time></trkpt><trkpt lat="41.96196902375416" lon="2.8617599864619296"><ele>229.0</ele><time>2026-05-02T06:28:39Z</time></trkpt><trkpt lat="41.961900779784166" lon="2.8617165834513494"><ele>228.99999999999997</ele><time>2026-05-02T06:28:40Z</time></trkpt><trkpt lat="41.9618393794292" lon="2.8616529960507546"><ele>229.0</ele><time>2026-05-02T06:28:41Z</time></trkpt><trkpt lat="41.9617759314449" lon="2.8616129365583425"><ele>229.0</ele><time>2026-05-02T06:28:42Z</time></trkpt><trkpt lat="41.961718264247175" lon="2.861576934529423"><ele>229.0</ele><time>2026-05-02T06:28:43Z</time></trkpt><trkpt lat="41.96161225090955" lon="2.8614970983772126"><ele>228.99999999999997</ele><time>2026-05-02T06:28:45Z</time></trkpt><trkpt lat="41.961538076788585" lon="2.8614339038334817"><ele>229.0</ele><time>2026-05-02T06:28:47Z</time></trkpt><trkpt lat="41.96148216752182" lon="2.861383328509606"><ele>227.39999999999998</ele><time>2026-05-02T06:28:49Z</time></trkpt><trkpt lat="41.96137100323937" lon="2.861397656669074"><ele>225.79999999999998</ele><time>2026-05-02T06:28:52Z</time></trkpt><trkpt lat="41.9614219018336" lon="2.8615330246249417"><ele>224.20000000000002</ele><time>2026-05-02T06:28:54Z</time></trkpt><trkpt lat="41.96150801753188" lon="2.8616364901060174"><ele>222.60000000000002</ele><time>2026-05-02T06:28:56Z</time></trkpt><trkpt lat="41.96155754508677" lon="2.861696922993769"><ele>221.0</ele><time>2026-05-02T06:28:57Z</time></trkpt><trkpt lat="41.96160818899282" lon="2.8617684408197315"><ele>219.83333333333334</ele><time>2026-05-02T06:28:58Z</time></trkpt><trkpt lat="41.96166393508797" lon="2.861845314577999"><ele>218.66666666666669</ele><time>2026-05-02T06:28:58.999Z</time></trkpt><trkpt lat="41.961719295286414" lon="2.861922888887808"><ele>217.5</ele><time>2026-05-02T06:28:59.999Z</time></trkpt><trkpt lat="41.96177075132455" lon="2.861999539839196"><ele>216.33333333333331</ele><time>2026-05-02T06:29:00.999Z</time></trkpt><trkpt lat="41.96182762280718" lon="2.8620765929644953"><ele>215.16666666666666</ele><time>2026-05-02T06:29:01.999Z</time></trkpt><trkpt lat="41.96189013125796" lon="2.862147379228879"><ele>214.0</ele><time>2026-05-02T06:29:02.999Z</time></trkpt><trkpt lat="41.96195297004899" lon="2.8622109784724716"><ele>214.00000000000003</ele><time>2026-05-02T06:29:03.999Z</time></trkpt><trkpt lat="41.96201674859369" lon="2.8622646587664913"><ele>214.0</ele><time>2026-05-02T06:29:04.999Z</time></trkpt><trkpt lat="41.96207857863453" lon="2.8623124418847667"><ele>214.0</ele><time>2026-05-02T06:29:05.999Z</time></trkpt><trkpt lat="41.96214382439116" lon="2.862351467443918"><ele>214.0</ele><time>2026-05-02T06:29:06.999Z</time></trkpt><trkpt lat="41.96220974080161" lon="2.8623847966353426"><ele>214.0</ele><time>2026-05-02T06:29:07.999Z</time></trkpt><trkpt lat="41.9622702285485" lon="2.862428772556801"><ele>214.00000000000003</ele><time>2026-05-02T06:29:08.999Z</time></trkpt><trkpt lat="41.962321599514475" lon="2.8624798744298925"><ele>214.0</ele><time>2026-05-02T06:29:09.999Z</time></trkpt><trkpt lat="41.96236790325216" lon="2.8625399372153506"><ele>213.99999999999997</ele><time>2026-05-02T06:29:10.999Z</time></trkpt><trkpt lat="41.9624095897341" lon="2.8626118123855977"><ele>214.0</ele><time>2026-05-02T06:29:11.999Z</time></trkpt><trkpt lat="41.962446050376876" lon="2.8626883933155853"><ele>214.0</ele><time>2026-05-02T06:29:12.999Z</time></trkpt><trkpt lat="41.96248580968282" lon="2.862766157161758"><ele>214.0</ele><time>2026-05-02T06:29:13.999Z</time></trkpt><trkpt lat="41.96253037072862" lon="2.8628334288538917"><ele>213.99999999999997</ele><time>2026-05-02T06:29:14.999Z</time></trkpt><trkpt lat="41.9625993166623" lon="2.862950173571303"><ele>214.0</ele><time>2026-05-02T06:29:16.999Z</time></trkpt><trkpt lat="41.96265392442491" lon="2.8630451484087724"><ele>215.2</ele><time>2026-05-02T06:29:18.999Z</time></trkpt><trkpt lat="41.96268870154727" lon="2.8631797779402057"><ele>216.39999999999998</ele><time>2026-05-02T06:29:20.999Z</time></trkpt><trkpt lat="41.96269734545112" lon="2.863313663468303"><ele>217.6</ele><time>2026-05-02T06:29:22.999Z</time></trkpt><trkpt lat="41.962688659122044" lon="2.863466163622595"><ele>218.8</ele><time>2026-05-02T06:29:24.999Z</time></trkpt><trkpt lat="41.96267741728748" lon="2.8635601403859803"><ele>220.0</ele><time>2026-05-02T06:29:25.999Z</time></trkpt><trkpt lat="41.962665360244905" lon="2.863665513959931"><ele>217.83333333333331</ele><time>2026-05-02T06:29:26.999Z</time></trkpt><trkpt lat="41.96265234957291" lon="2.8637742958750754"><ele>215.66666666666666</ele><time>2026-05-02T06:29:27.999Z</time></trkpt><trkpt lat="41.962644168684776" lon="2.8638838762603296"><ele>213.5</ele><time>2026-05-02T06:29:28.999Z</time></trkpt><trkpt lat="41.96264079412694" lon="2.863993674559756"><ele>211.33333333333331</ele><time>2026-05-02T06:29:29.999Z</time></trkpt><trkpt lat="41.96260254979815" lon="2.8640939891160433"><ele>209.16666666666666</ele><time>2026-05-02T06:29:30.999Z</time></trkpt><trkpt lat="41.9626039514215" lon="2.864187922726634"><ele>207.0</ele><time>2026-05-02T06:29:31.999Z</time></trkpt><trkpt lat="41.96261730170038" lon="2.864341877507005"><ele>203.33333333333334</ele><time>2026-05-02T06:29:33.999Z</time></trkpt><trkpt lat="41.962648747548606" lon="2.864415436262785"><ele>199.66666666666666</ele><time>2026-05-02T06:29:34.999Z</time></trkpt><trkpt lat="41.962717506770005" lon="2.864467527370264"><ele>196.0</ele><time>2026-05-02T06:29:35.999Z</time></trkpt><trkpt lat="41.9627757473867" lon="2.864530074508937"><ele>192.33333333333331</ele><time>2026-05-02T06:29:36.999Z</time></trkpt><trkpt lat="41.96285260088659" lon="2.864594289764429"><ele>188.66666666666666</ele><time>2026-05-02T06:29:37.999Z</time></trkpt><trkpt lat="41.96292186216732" lon="2.864657969208655"><ele>185.0</ele><time>2026-05-02T06:29:38.999Z</time></trkpt><trkpt lat="41.96298756259203" lon="2.864715851518364"><ele>185.0</ele><time>2026-05-02T06:29:39.999Z</time></trkpt><trkpt lat="41.96306080456384" lon="2.8647651494070407"><ele>185.0</ele><time>2026-05-02T06:29:40.999Z</time></trkpt><trkpt lat="41.963149543340876" lon="2.8648047326848998"><ele>185.0</ele><time>2026-05-02T06:29:41.999Z</time></trkpt><trkpt lat="41.963242769854816" lon="2.864841961178835"><ele>185.0</ele><time>2026-05-02T06:29:42.999Z</time></trkpt><trkpt lat="41.96333266502635" lon="2.8648795580345086"><ele>185.0</ele><time>2026-05-02T06:29:43.999Z</time></trkpt><trkpt lat="41.96343128346976" lon="2.8649239079252653"><ele>184.0</ele><time>2026-05-02T06:29:44.999Z</time></trkpt><trkpt lat="41.96351975687868" lon="2.8649681020732114"><ele>183.0</ele><time>2026-05-02T06:29:45.999Z</time></trkpt><trkpt lat="41.96360341753599" lon="2.8650140989432447"><ele>182.0</ele><time>2026-05-02T06:29:46.999Z</time></trkpt><trkpt lat="41.96367987537762" lon="2.865063294653288"><ele>181.0</ele><time>2026-05-02T06:29:47.999Z</time></trkpt><trkpt lat="41.96376726326745" lon="2.8651036709211275"><ele>180.0</ele><time>2026-05-02T06:29:48.999Z</time></trkpt><trkpt lat="41.963835443583086" lon="2.865162384578654"><ele>179.0</ele><time>2026-05-02T06:29:49.999Z</time></trkpt><trkpt lat="41.963907811719565" lon="2.865208396755764"><ele>179.0</ele><time>2026-05-02T06:29:50.999Z</time></trkpt><trkpt lat="41.96398517282239" lon="2.865236799762212"><ele>179.0</ele><time>2026-05-02T06:29:51.999Z</time></trkpt><trkpt lat="41.96404704358457" lon="2.865292090344969"><ele>179.0</ele><time>2026-05-02T06:29:52.999Z</time></trkpt><trkpt lat="41.96410644653861" lon="2.8653579123031268"><ele>179.0</ele><time>2026-05-02T06:29:53.999Z</time></trkpt><trkpt lat="41.964165041323255" lon="2.865424042105241"><ele>179.0</ele><time>2026-05-02T06:29:54.999Z</time></trkpt><trkpt lat="41.964223170513826" lon="2.865491122976251"><ele>179.0</ele><time>2026-05-02T06:29:55.999Z</time></trkpt><trkpt lat="41.96427603846985" lon="2.865560705835222"><ele>180.5</ele><time>2026-05-02T06:29:56.999Z</time></trkpt><trkpt lat="41.96432830336699" lon="2.8656311449062017"><ele>182.0</ele><time>2026-05-02T06:29:58Z</time></trkpt><trkpt lat="41.96437890470758" lon="2.8657003084181354"><ele>183.5</ele><time>2026-05-02T06:29:59Z</time></trkpt><trkpt lat="41.96442701472388" lon="2.8657572233246182"><ele>185.0</ele><time>2026-05-02T06:30:00Z</time></trkpt><trkpt lat="41.96450739896977" lon="2.865843961088626"><ele>186.5</ele><time>2026-05-02T06:30:02Z</time></trkpt><trkpt lat="41.964549308979976" lon="2.865945078395085"><ele>188.0</ele><time>2026-05-02T06:30:04Z</time></trkpt><trkpt lat="41.96451788480908" lon="2.8660938640100833"><ele>188.0</ele><time>2026-05-02T06:30:06Z</time></trkpt><trkpt lat="41.964519747487834" lon="2.8662536444085567"><ele>188.0</ele><time>2026-05-02T06:30:08Z</time></trkpt><trkpt lat="41.96453226266286" lon="2.866368596235264"><ele>188.0</ele><time>2026-05-02T06:30:10Z</time></trkpt><trkpt lat="41.9644621491955" lon="2.866335584196862"><ele>188.0</ele><time>2026-05-02T06:30:15Z</time></trkpt><trkpt lat="41.96438877512636" lon="2.8662408466917553"><ele>188.0</ele><time>2026-05-02T06:30:17Z</time></trkpt><trkpt lat="41.9643162386589" lon="2.8660926804643188"><ele>188.0</ele><time>2026-05-02T06:30:19Z</time></trkpt><trkpt lat="41.9642925639168" lon="2.865995905546664"><ele>188.0</ele><time>2026-05-02T06:30:20Z</time></trkpt><trkpt lat="41.964251773583015" lon="2.86590127322686"><ele>188.0</ele><time>2026-05-02T06:30:21Z</time></trkpt><trkpt lat="41.96420940369163" lon="2.865813745218398"><ele>188.0</ele><time>2026-05-02T06:30:22Z</time></trkpt><trkpt lat="41.96414422375226" lon="2.8657490990018566"><ele>188.0</ele><time>2026-05-02T06:30:23Z</time></trkpt><trkpt lat="41.9640944920699" lon="2.865681220690595"><ele>188.0</ele><time>2026-05-02T06:30:24Z</time></trkpt><trkpt lat="41.964047683667935" lon="2.8656060795934675"><ele>186.5</ele><time>2026-05-02T06:30:25Z</time></trkpt><trkpt lat="41.96398892633734" lon="2.86554067744943"><ele>185.0</ele><time>2026-05-02T06:30:26Z</time></trkpt><trkpt lat="41.963937549448644" lon="2.8654863073336756"><ele>183.5</ele><time>2026-05-02T06:30:27Z</time></trkpt><trkpt lat="41.963865091569545" lon="2.8654171832899777"><ele>182.0</ele><time>2026-05-02T06:30:28Z</time></trkpt><trkpt lat="41.96379466750096" lon="2.865361974460513"><ele>180.5</ele><time>2026-05-02T06:30:29Z</time></trkpt><trkpt lat="41.963713821371144" lon="2.8653233725591276"><ele>179.0</ele><time>2026-05-02T06:30:30Z</time></trkpt><trkpt lat="41.963637794396604" lon="2.8652933711897797"><ele>179.00000000000003</ele><time>2026-05-02T06:30:31Z</time></trkpt><trkpt lat="41.963568199353496" lon="2.8652693618615386"><ele>179.0</ele><time>2026-05-02T06:30:32Z</time></trkpt><trkpt lat="41.96349433624174" lon="2.8652530938163463"><ele>179.0</ele><time>2026-05-02T06:30:33Z</time></trkpt><trkpt lat="41.96341139850334" lon="2.8652577839204394"><ele>179.0</ele><time>2026-05-02T06:30:34Z</time></trkpt><trkpt lat="41.96333137814751" lon="2.8652734674179943"><ele>179.0</ele><time>2026-05-02T06:30:35Z</time></trkpt><trkpt lat="41.96326237943474" lon="2.8652862436505018"><ele>179.00000000000003</ele><time>2026-05-02T06:30:36Z</time></trkpt><trkpt lat="41.963197226878115" lon="2.86529667338807"><ele>179.0</ele><time>2026-05-02T06:30:37Z</time></trkpt><trkpt lat="41.96310526854111" lon="2.8652816160170973"><ele>180.0</ele><time>2026-05-02T06:30:39Z</time></trkpt><trkpt lat="41.96301945003151" lon="2.8651891249367853"><ele>181.0</ele><time>2026-05-02T06:30:41Z</time></trkpt><trkpt lat="41.96295850087473" lon="2.8651318811637423"><ele>182.0</ele><time>2026-05-02T06:30:42Z</time></trkpt><trkpt lat="41.96287942423362" lon="2.865083974987657"><ele>183.0</ele><time>2026-05-02T06:30:43Z</time></trkpt><trkpt lat="41.9627967722179" lon="2.865045832569994"><ele>184.0</ele><time>2026-05-02T06:30:44Z</time></trkpt><trkpt lat="41.96271796927121" lon="2.8650105164318154"><ele>185.0</ele><time>2026-05-02T06:30:45Z</time></trkpt><trkpt lat="41.96265021006884" lon="2.864966679771598"><ele>185.0</ele><time>2026-05-02T06:30:46Z</time></trkpt><trkpt lat="41.96258669404229" lon="2.8649043948471893"><ele>185.0</ele><time>2026-05-02T06:30:47Z</time></trkpt><trkpt lat="41.962520735627784" lon="2.8648403257171986"><ele>185.0</ele><time>2026-05-02T06:30:48Z</time></trkpt><trkpt lat="41.962454223027656" lon="2.8647807190774075"><ele>185.0</ele><time>2026-05-02T06:30:49Z</time></trkpt><trkpt lat="41.962384557105466" lon="2.864728241228662"><ele>185.0</ele><time>2026-05-02T06:30:50Z</time></trkpt><trkpt lat="41.9623042719205" lon="2.8646890933820006"><ele>185.0</ele><time>2026-05-02T06:30:51Z</time></trkpt><trkpt lat="41.96222032299532" lon="2.86467324453304"><ele>183.0</ele><time>2026-05-02T06:30:52Z</time></trkpt><trkpt lat="41.96214107796108" lon="2.8646468568630152"><ele>181.0</ele><time>2026-05-02T06:30:53Z</time></trkpt><trkpt lat="41.96207876163333" lon="2.8646211804005715"><ele>179.0</ele><time>2026-05-02T06:30:54Z</time></trkpt><trkpt lat="41.9619693296485" lon="2.8645261638455004"><ele>177.0</ele><time>2026-05-02T06:30:56Z</time></trkpt><trkpt lat="41.961911039414645" lon="2.8644573068791908"><ele>175.0</ele><time>2026-05-02T06:30:57Z</time></trkpt><trkpt lat="41.961847605453286" lon="2.8643820113699188"><ele>173.0</ele><time>2026-05-02T06:30:58Z</time></trkpt><trkpt lat="41.96178565406594" lon="2.8643035001196107"><ele>171.4</ele><time>2026-05-02T06:30:59Z</time></trkpt><trkpt lat="41.96172279281658" lon="2.8642419474868808"><ele>169.8</ele><time>2026-05-02T06:31:00Z</time></trkpt><trkpt lat="41.961616275586806" lon="2.8641649562692413"><ele>168.2</ele><time>2026-05-02T06:31:02Z</time></trkpt><trkpt lat="41.961524730564804" lon="2.864126190585541"><ele>166.6</ele><time>2026-05-02T06:31:04Z</time></trkpt><trkpt lat="41.96145043155852" lon="2.86412188458972"><ele>165.0</ele><time>2026-05-02T06:31:05.999Z</time></trkpt><trkpt lat="41.961393028692406" lon="2.864218670348424"><ele>164.33333333333334</ele><time>2026-05-02T06:31:07.999Z</time></trkpt><trkpt lat="41.96141400805089" lon="2.8643015858038887"><ele>163.66666666666666</ele><time>2026-05-02T06:31:08.999Z</time></trkpt><trkpt lat="41.96148877462981" lon="2.86441695911264"><ele>163.0</ele><time>2026-05-02T06:31:10.999Z</time></trkpt><trkpt lat="41.96153063280607" lon="2.8644836498942126"><ele>162.33333333333331</ele><time>2026-05-02T06:31:11.999Z</time></trkpt><trkpt lat="41.961565919243306" lon="2.8645596506873785"><ele>161.66666666666666</ele><time>2026-05-02T06:31:12.999Z</time></trkpt><trkpt lat="41.961606861383075" lon="2.864640516061695"><ele>161.0</ele><time>2026-05-02T06:31:13.999Z</time></trkpt><trkpt lat="41.961641994034686" lon="2.864726322576628"><ele>161.0</ele><time>2026-05-02T06:31:14.999Z</time></trkpt><trkpt lat="41.961668943387295" lon="2.8648104152598686"><ele>161.0</ele><time>2026-05-02T06:31:15.999Z</time></trkpt><trkpt lat="41.96169158049654" lon="2.864902033056134"><ele>161.0</ele><time>2026-05-02T06:31:16.999Z</time></trkpt><trkpt lat="41.96171703496571" lon="2.86499074701867"><ele>161.0</ele><time>2026-05-02T06:31:17.999Z</time></trkpt><trkpt lat="41.96174246344326" lon="2.8650753972747447"><ele>161.0</ele><time>2026-05-02T06:31:18.999Z</time></trkpt><trkpt lat="41.96176332408425" lon="2.8652266878948063"><ele>161.0</ele><time>2026-05-02T06:31:20.999Z</time></trkpt><trkpt lat="41.961774946300906" lon="2.8653589229668737"><ele>162.33333333333331</ele><time>2026-05-02T06:31:22.999Z</time></trkpt><trkpt lat="41.96173665048216" lon="2.8654656837778822"><ele>163.66666666666666</ele><time>2026-05-02T06:31:24.999Z</time></trkpt><trkpt lat="41.961676632014566" lon="2.865505254194243"><ele>165.0</ele><time>2026-05-02T06:31:26.999Z</time></trkpt><trkpt lat="41.961601732094536" lon="2.8655740721324072"><ele>166.33333333333334</ele><time>2026-05-02T06:31:29.999Z</time></trkpt><trkpt lat="41.96151600224847" lon="2.8655731725920903"><ele>167.66666666666669</ele><time>2026-05-02T06:31:31.999Z</time></trkpt><trkpt lat="41.96142575434603" lon="2.8655642601524347"><ele>169.0</ele><time>2026-05-02T06:31:33.999Z</time></trkpt><trkpt lat="41.961320859540166" lon="2.865542474589461"><ele>169.0</ele><time>2026-05-02T06:31:35.999Z</time></trkpt><trkpt lat="41.96120302694534" lon="2.865504528217277"><ele>169.0</ele><time>2026-05-02T06:31:37.999Z</time></trkpt><trkpt lat="41.96113869507736" lon="2.865482670576273"><ele>169.0</ele><time>2026-05-02T06:31:38.999Z</time></trkpt><trkpt lat="41.9610747521049" lon="2.8654580599541277"><ele>169.0</ele><time>2026-05-02T06:31:39.999Z</time></trkpt><trkpt lat="41.9610088963025" lon="2.8654298069126423"><ele>169.0</ele><time>2026-05-02T06:31:40.999Z</time></trkpt><trkpt lat="41.960944653063095" lon="2.865387427616568"><ele>169.0</ele><time>2026-05-02T06:31:41.999Z</time></trkpt><trkpt lat="41.9608806472382" lon="2.8653462513145915"><ele>168.42857142857144</ele><time>2026-05-02T06:31:42.999Z</time></trkpt><trkpt lat="41.96082066727018" lon="2.8652934984583833"><ele>167.85714285714286</ele><time>2026-05-02T06:31:43.999Z</time></trkpt><trkpt lat="41.96076749397538" lon="2.865232933738011"><ele>167.28571428571428</ele><time>2026-05-02T06:31:44.999Z</time></trkpt><trkpt lat="41.960718555072035" lon="2.8651661950921605"><ele>166.71428571428572</ele><time>2026-05-02T06:31:45.999Z</time></trkpt><trkpt lat="41.96067199419497" lon="2.8650982877209135"><ele>166.14285714285714</ele><time>2026-05-02T06:31:46.999Z</time></trkpt><trkpt lat="41.9606261165576" lon="2.865023139221124"><ele>165.57142857142858</ele><time>2026-05-02T06:31:47.999Z</time></trkpt><trkpt lat="41.96059491436525" lon="2.8649302365656757"><ele>165.0</ele><time>2026-05-02T06:31:48.999Z</time></trkpt><trkpt lat="41.960547871139184" lon="2.8648423796232456"><ele>165.0</ele><time>2026-05-02T06:31:49.999Z</time></trkpt><trkpt lat="41.96050289224722" lon="2.864755915252652"><ele>165.0</ele><time>2026-05-02T06:31:50.999Z</time></trkpt><trkpt lat="41.96045836001109" lon="2.8646691040062136"><ele>165.0</ele><time>2026-05-02T06:31:51.999Z</time></trkpt><trkpt lat="41.9604183118502" lon="2.864591034048375"><ele>165.0</ele><time>2026-05-02T06:31:52.999Z</time></trkpt><trkpt lat="41.960380978791505" lon="2.8645167081145977"><ele>165.0</ele><time>2026-05-02T06:31:53.999Z</time></trkpt><trkpt lat="41.960313920785566" lon="2.8643787703851173"><ele>165.0</ele><time>2026-05-02T06:31:55.999Z</time></trkpt><trkpt lat="41.96027344282762" lon="2.8642815888257043"><ele>164.16666666666666</ele><time>2026-05-02T06:31:57.999Z</time></trkpt><trkpt lat="41.96023209618373" lon="2.864196192447133"><ele>163.33333333333334</ele><time>2026-05-02T06:32:01.999Z</time></trkpt><trkpt lat="41.96017177103902" lon="2.864127375530393"><ele>162.5</ele><time>2026-05-02T06:32:05Z</time></trkpt><trkpt lat="41.960093478723785" lon="2.8640835296604212"><ele>161.66666666666669</ele><time>2026-05-02T06:32:08Z</time></trkpt><trkpt lat="41.960012365970854" lon="2.864037473872459"><ele>160.83333333333334</ele><time>2026-05-02T06:32:11Z</time></trkpt><trkpt lat="41.95993040665471" lon="2.864006844265463"><ele>160.0</ele><time>2026-05-02T06:32:14Z</time></trkpt><trkpt lat="41.95984754845246" lon="2.863983743533959"><ele>161.83333333333334</ele><time>2026-05-02T06:32:17Z</time></trkpt><trkpt lat="41.95978084148937" lon="2.86397282205954"><ele>163.66666666666669</ele><time>2026-05-02T06:32:20Z</time></trkpt><trkpt lat="41.95969128524306" lon="2.863948812264216"><ele>165.5</ele><time>2026-05-02T06:32:23Z</time></trkpt><trkpt lat="41.959620233094505" lon="2.863946229831062"><ele>167.33333333333334</ele><time>2026-05-02T06:32:27Z</time></trkpt><trkpt lat="41.959541531892235" lon="2.8639897751314143"><ele>169.16666666666666</ele><time>2026-05-02T06:32:31Z</time></trkpt><trkpt lat="41.959543037021064" lon="2.8640965255002464"><ele>171.0</ele><time>2026-05-02T06:32:35Z</time></trkpt><trkpt lat="41.959594888404744" lon="2.8641933308505902"><ele>171.0</ele><time>2026-05-02T06:32:38Z</time></trkpt><trkpt lat="41.959637292548436" lon="2.8642610328952394"><ele>171.0</ele><time>2026-05-02T06:32:40Z</time></trkpt><trkpt lat="41.95968646128854" lon="2.8643538636107078"><ele>171.0</ele><time>2026-05-02T06:32:43Z</time></trkpt><trkpt lat="41.95974264395911" lon="2.8644424722655666"><ele>171.0</ele><time>2026-05-02T06:32:46Z</time></trkpt><trkpt lat="41.95980278344241" lon="2.8645171426587748"><ele>171.0</ele><time>2026-05-02T06:32:49Z</time></trkpt><trkpt lat="41.95985745119716" lon="2.8645868148634706"><ele>171.0</ele><time>2026-05-02T06:32:52Z</time></trkpt><trkpt lat="41.95991948019075" lon="2.864654717883143"><ele>170.14285714285714</ele><time>2026-05-02T06:32:56Z</time></trkpt><trkpt lat="41.95998430119525" lon="2.8647094303864127"><ele>169.28571428571428</ele><time>2026-05-02T06:33:00Z</time></trkpt><trkpt lat="41.96003563510601" lon="2.8647721767842023"><ele>168.42857142857144</ele><time>2026-05-02T06:33:04Z</time></trkpt><trkpt lat="41.96008367722146" lon="2.8648493748496113"><ele>167.57142857142856</ele><time>2026-05-02T06:33:08Z</time></trkpt><trkpt lat="41.960117153236126" lon="2.8649256211404364"><ele>166.71428571428572</ele><time>2026-05-02T06:33:12Z</time></trkpt><trkpt lat="41.96014086110792" lon="2.865011317125561"><ele>165.85714285714286</ele><time>2026-05-02T06:33:16Z</time></trkpt><trkpt lat="41.96016217532727" lon="2.8651010312355885"><ele>165.0</ele><time>2026-05-02T06:33:19.999Z</time></trkpt><trkpt lat="41.960186478861395" lon="2.865197016104032"><ele>168.00000000000003</ele><time>2026-05-02T06:33:24.999Z</time></trkpt><trkpt lat="41.960228909495285" lon="2.8652881998565434"><ele>171.0</ele><time>2026-05-02T06:33:29.999Z</time></trkpt><trkpt lat="41.96025281507526" lon="2.865366759975031"><ele>174.0</ele><time>2026-05-02T06:33:33.999Z</time></trkpt><trkpt lat="41.960277300550494" lon="2.8654545346163904"><ele>177.0</ele><time>2026-05-02T06:33:37.999Z</time></trkpt><trkpt lat="41.96029969352318" lon="2.865537782609788"><ele>180.0</ele><time>2026-05-02T06:33:41.999Z</time></trkpt><trkpt lat="41.9603183155475" lon="2.8656393201339214"><ele>183.00000000000003</ele><time>2026-05-02T06:33:45.999Z</time></trkpt><trkpt lat="41.960343020674095" lon="2.865736468207303"><ele>186.0</ele><time>2026-05-02T06:33:49.999Z</time></trkpt><trkpt lat="41.960366106877416" lon="2.865815560397884"><ele>186.00000000000003</ele><time>2026-05-02T06:33:52.999Z</time></trkpt><trkpt lat="41.96039541078766" lon="2.8659245549304755"><ele>186.0</ele><time>2026-05-02T06:33:56.999Z</time></trkpt><trkpt lat="41.96042996142326" lon="2.866010886394423"><ele>186.0</ele><time>2026-05-02T06:33:59.999Z</time></trkpt><trkpt lat="41.960470579654846" lon="2.866092048474921"><ele>186.0</ele><time>2026-05-02T06:34:03.999Z</time></trkpt><trkpt lat="41.960495150161215" lon="2.8661850546480867"><ele>186.0</ele><time>2026-05-02T06:34:07.999Z</time></trkpt><trkpt lat="41.960469407679" lon="2.8662635958074776"><ele>186.00000000000003</ele><time>2026-05-02T06:34:11Z</time></trkpt><trkpt lat="41.96039230833666" lon="2.866277004092044"><ele>186.0</ele><time>2026-05-02T06:34:15Z</time></trkpt><trkpt lat="41.960330681630644" lon="2.866224372808852"><ele>186.0</ele><time>2026-05-02T06:34:19Z</time></trkpt><trkpt lat="41.96027086013157" lon="2.866156937256576"><ele>186.0</ele><time>2026-05-02T06:34:22Z</time></trkpt><trkpt lat="41.960194896249256" lon="2.8660674824290124"><ele>186.0</ele><time>2026-05-02T06:34:25Z</time></trkpt><trkpt lat="41.96012984184366" lon="2.8659735404316895"><ele>186.0</ele><time>2026-05-02T06:34:28Z</time></trkpt><trkpt lat="41.960082584733925" lon="2.8658919996154397"><ele>186.0</ele><time>2026-05-02T06:34:30Z</time></trkpt><trkpt lat="41.96003212173194" lon="2.865786666844274"><ele>186.0</ele><time>2026-05-02T06:34:33Z</time></trkpt><trkpt lat="41.95998587391602" lon="2.8656744926494344"><ele>190.5</ele><time>2026-05-02T06:34:36Z</time></trkpt><trkpt lat="41.95994822683994" lon="2.865598412775723"><ele>195.0</ele><time>2026-05-02T06:34:38Z</time></trkpt><trkpt lat="41.95990032449258" lon="2.865521155981823"><ele>199.5</ele><time>2026-05-02T06:34:40Z</time></trkpt><trkpt lat="41.95983623047208" lon="2.8654500358462127"><ele>204.0</ele><time>2026-05-02T06:34:42Z</time></trkpt><trkpt lat="41.95975563280291" lon="2.8653859445239886"><ele>208.5</ele><time>2026-05-02T06:34:44Z</time></trkpt><trkpt lat="41.959665400270275" lon="2.865353290489126"><ele>213.0</ele><time>2026-05-02T06:34:46Z</time></trkpt><trkpt lat="41.95956944996682" lon="2.865347671004783"><ele>213.0</ele><time>2026-05-02T06:34:48Z</time></trkpt><trkpt lat="41.95947783675006" lon="2.865368277493769"><ele>213.0</ele><time>2026-05-02T06:34:50Z</time></trkpt><trkpt lat="41.959391204448" lon="2.865427651361791"><ele>213.0</ele><time>2026-05-02T06:34:52Z</time></trkpt><trkpt lat="41.95929497801262" lon="2.8655018310008584"><ele>213.0</ele><time>2026-05-02T06:34:54Z</time></trkpt><trkpt lat="41.95918426678659" lon="2.865579013515467"><ele>213.0</ele><time>2026-05-02T06:34:56Z</time></trkpt><trkpt lat="41.95912847792692" lon="2.8656205489169615"><ele>214.83333333333334</ele><time>2026-05-02T06:34:57Z</time></trkpt><trkpt lat="41.95906820094603" lon="2.8656577642686454"><ele>216.66666666666669</ele><time>2026-05-02T06:34:58Z</time></trkpt><trkpt lat="41.95895470969072" lon="2.8656739874325474"><ele>218.5</ele><time>2026-05-02T06:35:00Z</time></trkpt><trkpt lat="41.95886895174902" lon="2.8656631806321986"><ele>220.33333333333334</ele><time>2026-05-02T06:35:02Z</time></trkpt><trkpt lat="41.958807067461834" lon="2.8656141775572053"><ele>222.16666666666669</ele><time>2026-05-02T06:35:05Z</time></trkpt><trkpt lat="41.95874379980299" lon="2.8655687872042774"><ele>224.0</ele><time>2026-05-02T06:35:09Z</time></trkpt><trkpt lat="41.95868236297954" lon="2.8655206322778857"><ele>224.00000000000003</ele><time>2026-05-02T06:35:13Z</time></trkpt><trkpt lat="41.958617308588074" lon="2.8654693099776782"><ele>224.0</ele><time>2026-05-02T06:35:17Z</time></trkpt><trkpt lat="41.95855512781662" lon="2.8654201539646813"><ele>224.0</ele><time>2026-05-02T06:35:20.999Z</time></trkpt><trkpt lat="41.95847702827205" lon="2.8654048700866332"><ele>224.0</ele><time>2026-05-02T06:35:24.999Z</time></trkpt><trkpt lat="41.95841512557437" lon="2.8653794363541443"><ele>224.00000000000003</ele><time>2026-05-02T06:35:27.999Z</time></trkpt><trkpt lat="41.95833557055457" lon="2.865406910764514"><ele>224.0</ele><time>2026-05-02T06:35:31.999Z</time></trkpt><trkpt lat="41.95828701997118" lon="2.865493833128832"><ele>223.85714285714286</ele><time>2026-05-02T06:35:35.999Z</time></trkpt><trkpt lat="41.95827268055213" lon="2.8655988991916233"><ele>223.71428571428572</ele><time>2026-05-02T06:35:39.999Z</time></trkpt><trkpt lat="41.95826830267616" lon="2.8657001622019793"><ele>223.57142857142856</ele><time>2026-05-02T06:35:43.999Z</time></trkpt><trkpt lat="41.95826370512067" lon="2.865792957424284"><ele>223.42857142857144</ele><time>2026-05-02T06:35:46.999Z</time></trkpt><trkpt lat="41.95826890053195" lon="2.8658982050888935"><ele>223.28571428571428</ele><time>2026-05-02T06:35:50.999Z</time></trkpt><trkpt lat="41.95830300897978" lon="2.8659708673880187"><ele>223.14285714285714</ele><time>2026-05-02T06:35:54.999Z</time></trkpt><trkpt lat="41.958349567132835" lon="2.86604555475903"><ele>223.0</ele><time>2026-05-02T06:35:58.999Z</time></trkpt><trkpt lat="41.958396088168215" lon="2.8661143453567637"><ele>225.83333333333331</ele><time>2026-05-02T06:36:01.999Z</time></trkpt><trkpt lat="41.95845752168616" lon="2.866181352152295"><ele>228.66666666666666</ele><time>2026-05-02T06:36:05.999Z</time></trkpt><trkpt lat="41.95850197437645" lon="2.866268888521315"><ele>231.5</ele><time>2026-05-02T06:36:09.999Z</time></trkpt><trkpt lat="41.958549774094564" lon="2.8663340423855543"><ele>234.33333333333331</ele><time>2026-05-02T06:36:13.999Z</time></trkpt><trkpt lat="41.95860802818165" lon="2.8663906991525065"><ele>237.16666666666666</ele><time>2026-05-02T06:36:18Z</time></trkpt><trkpt lat="41.95866575264442" lon="2.8664458501045265"><ele>240.0</ele><time>2026-05-02T06:36:21Z</time></trkpt><trkpt lat="41.95873499398816" lon="2.8665048729173463"><ele>240.0</ele><time>2026-05-02T06:36:25Z</time></trkpt><trkpt lat="41.958809371175896" lon="2.8665399570830497"><ele>240.0</ele><time>2026-05-02T06:36:28Z</time></trkpt><trkpt lat="41.958883657264685" lon="2.8665450087530946"><ele>240.0</ele><time>2026-05-02T06:36:30Z</time></trkpt><trkpt lat="41.95896539021353" lon="2.8665606586163648"><ele>240.0</ele><time>2026-05-02T06:36:32Z</time></trkpt><trkpt lat="41.95905199307577" lon="2.8665492502919605"><ele>240.0</ele><time>2026-05-02T06:36:34Z</time></trkpt><trkpt lat="41.95914061954436" lon="2.8664867434991694"><ele>240.0</ele><time>2026-05-02T06:36:36Z</time></trkpt><trkpt lat="41.95923976426215" lon="2.866428759831473"><ele>236.4</ele><time>2026-05-02T06:36:38Z</time></trkpt><trkpt lat="41.959341973170254" lon="2.8663823151341976"><ele>232.8</ele><time>2026-05-02T06:36:40Z</time></trkpt><trkpt lat="41.95941574200429" lon="2.866513806281832"><ele>229.2</ele><time>2026-05-02T06:36:42Z</time></trkpt><trkpt lat="41.959387109303464" lon="2.866657035595205"><ele>225.6</ele><time>2026-05-02T06:36:44Z</time></trkpt><trkpt lat="41.959367043343434" lon="2.8667698858362938"><ele>222.0</ele><time>2026-05-02T06:36:46Z</time></trkpt><trkpt lat="41.959338324349275" lon="2.8668756574408087"><ele>220.66666666666666</ele><time>2026-05-02T06:36:48Z</time></trkpt><trkpt lat="41.95929007711918" lon="2.8669775910062576"><ele>219.33333333333331</ele><time>2026-05-02T06:36:50Z</time></trkpt><trkpt lat="41.95924783055257" lon="2.8670718945907603"><ele>218.0</ele><time>2026-05-02T06:36:52Z</time></trkpt><trkpt lat="41.95920361246996" lon="2.867164171490019"><ele>216.66666666666666</ele><time>2026-05-02T06:36:54Z</time></trkpt><trkpt lat="41.95915589448931" lon="2.8672576147880084"><ele>215.33333333333331</ele><time>2026-05-02T06:36:56Z</time></trkpt><trkpt lat="41.95911363252404" lon="2.867367830296201"><ele>214.0</ele><time>2026-05-02T06:36:58Z</time></trkpt><trkpt lat="41.95905882617467" lon="2.867472585745559"><ele>218.0</ele><time>2026-05-02T06:37:00Z</time></trkpt><trkpt lat="41.95899593144739" lon="2.867576385215689"><ele>221.99999999999997</ele><time>2026-05-02T06:37:02Z</time></trkpt><trkpt lat="41.958946981490705" lon="2.8676825660893357"><ele>225.99999999999997</ele><time>2026-05-02T06:37:04Z</time></trkpt><trkpt lat="41.958897370186016" lon="2.8677894167795643"><ele>230.0</ele><time>2026-05-02T06:37:06Z</time></trkpt><trkpt lat="41.95887759323839" lon="2.8679065643214545"><ele>234.0</ele><time>2026-05-02T06:37:08Z</time></trkpt><trkpt lat="41.958828113473714" lon="2.8679845405698283"><ele>234.0</ele><time>2026-05-02T06:37:10Z</time></trkpt><trkpt lat="41.95877613642626" lon="2.86804750912497"><ele>234.00000000000003</ele><time>2026-05-02T06:37:12Z</time></trkpt><trkpt lat="41.95871771146569" lon="2.8680998874714745"><ele>234.0</ele><time>2026-05-02T06:37:14Z</time></trkpt><trkpt lat="41.95865639806717" lon="2.868144721018012"><ele>234.0</ele><time>2026-05-02T06:37:16Z</time></trkpt><trkpt lat="41.95859705752491" lon="2.8681978672994215"><ele>234.00000000000003</ele><time>2026-05-02T06:37:18Z</time></trkpt><trkpt lat="41.95854070056609" lon="2.868250411035815"><ele>234.0</ele><time>2026-05-02T06:37:20Z</time></trkpt><trkpt lat="41.95849261722126" lon="2.8683089291597264"><ele>234.0</ele><time>2026-05-02T06:37:22Z</time></trkpt><trkpt lat="41.95842288462505" lon="2.8683871814175275"><ele>238.16666666666666</ele><time>2026-05-02T06:37:25Z</time></trkpt><trkpt lat="41.95835663494891" lon="2.868465277530537"><ele>242.33333333333331</ele><time>2026-05-02T06:37:28Z</time></trkpt><trkpt lat="41.958281890824004" lon="2.868532453125154"><ele>246.5</ele><time>2026-05-02T06:37:30.999Z</time></trkpt><trkpt lat="41.958229433082764" lon="2.8686131721983705"><ele>250.66666666666666</ele><time>2026-05-02T06:37:33.999Z</time></trkpt><trkpt lat="41.95820598018018" lon="2.8687152396615327"><ele>254.83333333333331</ele><time>2026-05-02T06:37:36.999Z</time></trkpt><trkpt lat="41.95819202077244" lon="2.8688102251542404"><ele>259.0</ele><time>2026-05-02T06:37:39.999Z</time></trkpt><trkpt lat="41.958201965166744" lon="2.8688953143981606"><ele>259.0</ele><time>2026-05-02T06:37:42.999Z</time></trkpt><trkpt lat="41.95822799661482" lon="2.8689754395511273"><ele>259.0</ele><time>2026-05-02T06:37:45.999Z</time></trkpt><trkpt lat="41.958282081514035" lon="2.8690250244554"><ele>259.0</ele><time>2026-05-02T06:37:48.999Z</time></trkpt><trkpt lat="41.95834453509954" lon="2.8691043316082836"><ele>259.0</ele><time>2026-05-02T06:37:52.999Z</time></trkpt><trkpt lat="41.95837875058024" lon="2.869189121796392"><ele>259.0</ele><time>2026-05-02T06:37:55.999Z</time></trkpt><trkpt lat="41.958398237030494" lon="2.869295712732804"><ele>259.0</ele><time>2026-05-02T06:37:58.999Z</time></trkpt><trkpt lat="41.95839119987987" lon="2.8694209031475086"><ele>259.57142857142856</ele><time>2026-05-02T06:38:01.999Z</time></trkpt><trkpt lat="41.95837654298156" lon="2.8695139651540846"><ele>260.1428571428571</ele><time>2026-05-02T06:38:03.999Z</time></trkpt><trkpt lat="41.958351578511405" lon="2.8696109485998966"><ele>260.7142857142857</ele><time>2026-05-02T06:38:05.999Z</time></trkpt><trkpt lat="41.95832246558708" lon="2.869711422064146"><ele>261.2857142857143</ele><time>2026-05-02T06:38:07.999Z</time></trkpt><trkpt lat="41.9583019099242" lon="2.8698087666662198"><ele>261.85714285714283</ele><time>2026-05-02T06:38:09.999Z</time></trkpt><trkpt lat="41.95829673685781" lon="2.869903314724723"><ele>262.42857142857144</ele><time>2026-05-02T06:38:11.999Z</time></trkpt><trkpt lat="41.958292141345304" lon="2.870000932609619"><ele>263.0</ele><time>2026-05-02T06:38:13.999Z</time></trkpt><trkpt lat="41.958297562286226" lon="2.870087569356299"><ele>264.0</ele><time>2026-05-02T06:38:15.999Z</time></trkpt><trkpt lat="41.95830383978243" lon="2.8702013401460587"><ele>265.0</ele><time>2026-05-02T06:38:18.999Z</time></trkpt><trkpt lat="41.958280886339345" lon="2.870314030797177"><ele>266.0</ele><time>2026-05-02T06:38:22Z</time></trkpt><trkpt lat="41.95825243851593" lon="2.8704117156185704"><ele>267.0</ele><time>2026-05-02T06:38:25Z</time></trkpt><trkpt lat="41.958201571456776" lon="2.8705209891111516"><ele>268.0</ele><time>2026-05-02T06:38:28Z</time></trkpt><trkpt lat="41.958158773141804" lon="2.870594654487064"><ele>269.0</ele><time>2026-05-02T06:38:31Z</time></trkpt><trkpt lat="41.95809867337464" lon="2.8706857513541997"><ele>269.0</ele><time>2026-05-02T06:38:34Z</time></trkpt><trkpt lat="41.95804633290063" lon="2.8707778673249185"><ele>269.0</ele><time>2026-05-02T06:38:37Z</time></trkpt><trkpt lat="41.958007380740014" lon="2.8708720201307076"><ele>269.0</ele><time>2026-05-02T06:38:40Z</time></trkpt><trkpt lat="41.95796231624368" lon="2.870940599859551"><ele>269.0</ele><time>2026-05-02T06:38:42Z</time></trkpt><trkpt lat="41.957921047191746" lon="2.8710228492326175"><ele>269.0</ele><time>2026-05-02T06:38:45Z</time></trkpt><trkpt lat="41.95788594347289" lon="2.8711126047215356"><ele>269.0</ele><time>2026-05-02T06:38:48Z</time></trkpt><trkpt lat="41.957865916507956" lon="2.8712301241628144"><ele>271.0</ele><time>2026-05-02T06:38:51Z</time></trkpt><trkpt lat="41.95785860462996" lon="2.8713488878218167"><ele>273.0</ele><time>2026-05-02T06:38:54Z</time></trkpt><trkpt lat="41.9578438038516" lon="2.871462092254083"><ele>275.0</ele><time>2026-05-02T06:38:58Z</time></trkpt><trkpt lat="41.95783714461583" lon="2.871571188117557"><ele>277.0</ele><time>2026-05-02T06:39:01Z</time></trkpt><trkpt lat="41.957824262029845" lon="2.87169828720549"><ele>279.0</ele><time>2026-05-02T06:39:04Z</time></trkpt><trkpt lat="41.95781959269563" lon="2.871793526751293"><ele>281.0</ele><time>2026-05-02T06:39:06Z</time></trkpt><trkpt lat="41.95782688878868" lon="2.8718871698095825"><ele>282.14285714285717</ele><time>2026-05-02T06:39:08Z</time></trkpt><trkpt lat="41.95783627157235" lon="2.871979201836557"><ele>283.2857142857143</ele><time>2026-05-02T06:39:10Z</time></trkpt><trkpt lat="41.95784373871719" lon="2.8720752712208117"><ele>284.42857142857144</ele><time>2026-05-02T06:39:12Z</time></trkpt><trkpt lat="41.957834628329344" lon="2.872175185561326"><ele>285.57142857142856</ele><time>2026-05-02T06:39:14Z</time></trkpt><trkpt lat="41.95779798702094" lon="2.8722485479924553"><ele>286.7142857142857</ele><time>2026-05-02T06:39:16Z</time></trkpt><trkpt lat="41.957739353196416" lon="2.8723029741538246"><ele>287.8571428571429</ele><time>2026-05-02T06:39:19Z</time></trkpt><trkpt lat="41.95767647648077" lon="2.872339762872304"><ele>289.0</ele><time>2026-05-02T06:39:22Z</time></trkpt><trkpt lat="41.95763192141193" lon="2.8724030266764196"><ele>289.0</ele><time>2026-05-02T06:39:25Z</time></trkpt><trkpt lat="41.95759904050837" lon="2.872492306670519"><ele>289.0</ele><time>2026-05-02T06:39:28Z</time></trkpt><trkpt lat="41.95759677424524" lon="2.8725993042577125"><ele>289.0</ele><time>2026-05-02T06:39:31Z</time></trkpt><trkpt lat="41.95759409067623" lon="2.8727026711552677"><ele>289.0</ele><time>2026-05-02T06:39:34Z</time></trkpt><trkpt lat="41.957589002721136" lon="2.8728101865137714"><ele>289.0</ele><time>2026-05-02T06:39:37Z</time></trkpt><trkpt lat="41.95759686761951" lon="2.8729201732525813"><ele>289.0</ele><time>2026-05-02T06:39:40Z</time></trkpt><trkpt lat="41.9575930507922" lon="2.8730193319844997"><ele>288.42857142857144</ele><time>2026-05-02T06:39:42.999Z</time></trkpt><trkpt lat="41.957564938324566" lon="2.8731217635878736"><ele>287.85714285714283</ele><time>2026-05-02T06:39:46.999Z</time></trkpt><trkpt lat="41.95753079675598" lon="2.8732183136510425"><ele>287.2857142857143</ele><time>2026-05-02T06:39:50.999Z</time></trkpt><trkpt lat="41.957489044734935" lon="2.8732990666477116"><ele>286.7142857142857</ele><time>2026-05-02T06:39:54.999Z</time></trkpt><trkpt lat="41.957443400358606" lon="2.8733594537352403"><ele>286.14285714285717</ele><time>2026-05-02T06:39:58.999Z</time></trkpt><trkpt lat="41.95739816857031" lon="2.8734331715135673"><ele>285.57142857142856</ele><time>2026-05-02T06:40:02.999Z</time></trkpt><trkpt lat="41.95735908411282" lon="2.873517174821081"><ele>285.0</ele><time>2026-05-02T06:40:06.999Z</time></trkpt><trkpt lat="41.95733500383155" lon="2.8736102610914283"><ele>288.3333333333333</ele><time>2026-05-02T06:40:10.999Z</time></trkpt><trkpt lat="41.95730773862961" lon="2.8737404506104376"><ele>291.6666666666667</ele><time>2026-05-02T06:40:14.999Z</time></trkpt><trkpt lat="41.957263264175836" lon="2.873824187166032"><ele>295.0</ele><time>2026-05-02T06:40:17.999Z</time></trkpt><trkpt lat="41.95721021990868" lon="2.8739029458409786"><ele>298.33333333333337</ele><time>2026-05-02T06:40:20.999Z</time></trkpt><trkpt lat="41.95716862797801" lon="2.8739763542175885"><ele>301.6666666666667</ele><time>2026-05-02T06:40:23.999Z</time></trkpt><trkpt lat="41.957125635473815" lon="2.8740570190570573"><ele>305.0</ele><time>2026-05-02T06:40:26.999Z</time></trkpt><trkpt lat="41.957088566442756" lon="2.874141187053485"><ele>305.0</ele><time>2026-05-02T06:40:30Z</time></trkpt><trkpt lat="41.957066962643395" lon="2.8742326332041497"><ele>305.0</ele><time>2026-05-02T06:40:33Z</time></trkpt><trkpt lat="41.957051998338606" lon="2.8743254405920657"><ele>305.0</ele><time>2026-05-02T06:40:36Z</time></trkpt><trkpt lat="41.95705070673737" lon="2.8744172366606033"><ele>305.0</ele><time>2026-05-02T06:40:39Z</time></trkpt><trkpt lat="41.957046183990705" lon="2.874504387451291"><ele>305.0</ele><time>2026-05-02T06:40:42Z</time></trkpt><trkpt lat="41.957050005996145" lon="2.874589913201576"><ele>305.0</ele><time>2026-05-02T06:40:45Z</time></trkpt><trkpt lat="41.95704608704109" lon="2.874688490403201"><ele>305.0</ele><time>2026-05-02T06:40:49Z</time></trkpt><trkpt lat="41.957052192085364" lon="2.8747743813595643"><ele>307.1666666666667</ele><time>2026-05-02T06:40:52Z</time></trkpt><trkpt lat="41.95705392183717" lon="2.874885194235499"><ele>309.33333333333337</ele><time>2026-05-02T06:40:56Z</time></trkpt><trkpt lat="41.95706627080874" lon="2.8749960765659837"><ele>311.5</ele><time>2026-05-02T06:41:00Z</time></trkpt><trkpt lat="41.95707295276416" lon="2.8750910506824754"><ele>313.6666666666667</ele><time>2026-05-02T06:41:03Z</time></trkpt><trkpt lat="41.95707821252544" lon="2.8751965021920816"><ele>315.8333333333333</ele><time>2026-05-02T06:41:07Z</time></trkpt><trkpt lat="41.95706691168352" lon="2.8753063161228902"><ele>318.0</ele><time>2026-05-02T06:41:10Z</time></trkpt><trkpt lat="41.95705127116459" lon="2.8754202784306866"><ele>318.7142857142857</ele><time>2026-05-02T06:41:14Z</time></trkpt><trkpt lat="41.95704007886339" lon="2.8755057607542702"><ele>319.42857142857144</ele><time>2026-05-02T06:41:17Z</time></trkpt><trkpt lat="41.95702218825609" lon="2.8755903336366635"><ele>320.14285714285717</ele><time>2026-05-02T06:41:20Z</time></trkpt><trkpt lat="41.95700706535926" lon="2.8756760836900717"><ele>320.8571428571429</ele><time>2026-05-02T06:41:23Z</time></trkpt><trkpt lat="41.956983145515416" lon="2.875769288158501"><ele>321.57142857142856</ele><time>2026-05-02T06:41:26Z</time></trkpt><trkpt lat="41.956949777369346" lon="2.8758423655847545"><ele>322.28571428571433</ele><time>2026-05-02T06:41:28Z</time></trkpt><trkpt lat="41.95689193854419" lon="2.8759328933895985"><ele>323.0</ele><time>2026-05-02T06:41:30Z</time></trkpt><trkpt lat="41.95679939988121" lon="2.876005339869632"><ele>319.83333333333337</ele><time>2026-05-02T06:41:32Z</time></trkpt><trkpt lat="41.956673121767444" lon="2.8760642802254632"><ele>316.6666666666667</ele><time>2026-05-02T06:41:34Z</time></trkpt><trkpt lat="41.95659021304047" lon="2.8760643356243114"><ele>313.5</ele><time>2026-05-02T06:41:35Z</time></trkpt><trkpt lat="41.95651819481024" lon="2.8760964027543876"><ele>310.3333333333333</ele><time>2026-05-02T06:41:36Z</time></trkpt><trkpt lat="41.95644615225832" lon="2.876128538113185"><ele>307.16666666666663</ele><time>2026-05-02T06:41:37Z</time></trkpt><trkpt lat="41.95637488437382" lon="2.876161923988656"><ele>304.0</ele><time>2026-05-02T06:41:38Z</time></trkpt><trkpt lat="41.956307001363626" lon="2.876193724223865"><ele>304.0</ele><time>2026-05-02T06:41:39Z</time></trkpt><trkpt lat="41.95623991386284" lon="2.876225151776434"><ele>304.0</ele><time>2026-05-02T06:41:40Z</time></trkpt><trkpt lat="41.95616813107002" lon="2.876256945497923"><ele>304.0</ele><time>2026-05-02T06:41:41Z</time></trkpt><trkpt lat="41.95609342955045" lon="2.876305075365325"><ele>304.0</ele><time>2026-05-02T06:41:42Z</time></trkpt><trkpt lat="41.956015731121326" lon="2.876326527408431"><ele>304.0</ele><time>2026-05-02T06:41:43Z</time></trkpt><trkpt lat="41.95593535490239" lon="2.8763582776408136"><ele>304.0</ele><time>2026-05-02T06:41:44Z</time></trkpt><trkpt lat="41.95586330429851" lon="2.8763899493603833"><ele>304.66666666666663</ele><time>2026-05-02T06:41:45Z</time></trkpt><trkpt lat="41.95578026981538" lon="2.8764197739000346"><ele>305.3333333333333</ele><time>2026-05-02T06:41:46Z</time></trkpt><trkpt lat="41.955702389374046" lon="2.8764575475030534"><ele>306.0</ele><time>2026-05-02T06:41:47Z</time></trkpt><trkpt lat="41.9556334247461" lon="2.8765122099387845"><ele>306.6666666666667</ele><time>2026-05-02T06:41:47.999Z</time></trkpt><trkpt lat="41.955576069966405" lon="2.87657860341099"><ele>307.33333333333337</ele><time>2026-05-02T06:41:48.999Z</time></trkpt><trkpt lat="41.95553758051933" lon="2.876654113268093"><ele>308.0</ele><time>2026-05-02T06:41:49.999Z</time></trkpt><trkpt lat="41.95551111389513" lon="2.876802644460005"><ele>309.33333333333337</ele><time>2026-05-02T06:41:51.999Z</time></trkpt><trkpt lat="41.955472067834954" lon="2.8769036886112924"><ele>310.6666666666667</ele><time>2026-05-02T06:41:53.999Z</time></trkpt><trkpt lat="41.95554931252777" lon="2.8769791395688755"><ele>312.0</ele><time>2026-05-02T06:41:54.999Z</time></trkpt><trkpt lat="41.95556800566455" lon="2.8770795451606586"><ele>313.3333333333333</ele><time>2026-05-02T06:41:56.999Z</time></trkpt><trkpt lat="41.95556940436046" lon="2.8771926336683205"><ele>314.66666666666663</ele><time>2026-05-02T06:41:59.999Z</time></trkpt><trkpt lat="41.95555967951932" lon="2.8772818357102294"><ele>316.0</ele><time>2026-05-02T06:42:02.999Z</time></trkpt><trkpt lat="41.95554116679622" lon="2.87736603010414"><ele>316.00000000000006</ele><time>2026-05-02T06:42:05.999Z</time></trkpt><trkpt lat="41.95550706706756" lon="2.87743784344142"><ele>316.0</ele><time>2026-05-02T06:42:08.999Z</time></trkpt><trkpt lat="41.95546578882773" lon="2.8775060539110555"><ele>316.0</ele><time>2026-05-02T06:42:11.999Z</time></trkpt><trkpt lat="41.955416577084904" lon="2.8775637196713717"><ele>316.0</ele><time>2026-05-02T06:42:14.999Z</time></trkpt><trkpt lat="41.95535603557357" lon="2.8776098164553066"><ele>316.0</ele><time>2026-05-02T06:42:17.999Z</time></trkpt><trkpt lat="41.95528991744768" lon="2.8776364554293665"><ele>316.00000000000006</ele><time>2026-05-02T06:42:20.999Z</time></trkpt><trkpt lat="41.95520360189664" lon="2.8776582778437434"><ele>316.0</ele><time>2026-05-02T06:42:23.999Z</time></trkpt><trkpt lat="41.9551415664538" lon="2.8777011029462978"><ele>316.40000000000003</ele><time>2026-05-02T06:42:25.999Z</time></trkpt><trkpt lat="41.955084229641464" lon="2.877754507828437"><ele>316.8</ele><time>2026-05-02T06:42:27.999Z</time></trkpt><trkpt lat="41.95502781265535" lon="2.8778347195970144"><ele>317.20000000000005</ele><time>2026-05-02T06:42:29.999Z</time></trkpt><trkpt lat="41.954992091174624" lon="2.8779362993741664"><ele>317.6</ele><time>2026-05-02T06:42:31.999Z</time></trkpt><trkpt lat="41.95499506638343" lon="2.878079527947623"><ele>318.0</ele><time>2026-05-02T06:42:34Z</time></trkpt><trkpt lat="41.955010575263" lon="2.8782257643299842"><ele>318.0</ele><time>2026-05-02T06:42:36Z</time></trkpt><trkpt lat="41.954958220707944" lon="2.878367817650267"><ele>318.0</ele><time>2026-05-02T06:42:38Z</time></trkpt><trkpt lat="41.954882575769844" lon="2.8785044595988993"><ele>318.0</ele><time>2026-05-02T06:42:40Z</time></trkpt><trkpt lat="41.954851320817575" lon="2.878587058918094"><ele>318.0</ele><time>2026-05-02T06:42:41Z</time></trkpt><trkpt lat="41.95483553356455" lon="2.8786754318482695"><ele>318.0</ele><time>2026-05-02T06:42:42Z</time></trkpt><trkpt lat="41.95482072312967" lon="2.8788377480823986"><ele>318.0</ele><time>2026-05-02T06:42:44Z</time></trkpt><trkpt lat="41.95484668133698" lon="2.878924266064813"><ele>318.0</ele><time>2026-05-02T06:42:45Z</time></trkpt><trkpt lat="41.95485611936245" lon="2.879008160259443"><ele>318.0</ele><time>2026-05-02T06:42:46Z</time></trkpt><trkpt lat="41.954901406438516" lon="2.8791618234051723"><ele>318.0</ele><time>2026-05-02T06:42:48Z</time></trkpt><trkpt lat="41.95495236459892" lon="2.87929004221607"><ele>318.0</ele><time>2026-05-02T06:42:50Z</time></trkpt><trkpt lat="41.9549940508643" lon="2.8794032030364374"><ele>319.0</ele><time>2026-05-02T06:42:52Z</time></trkpt><trkpt lat="41.95502032558978" lon="2.87951155439363"><ele>320.0</ele><time>2026-05-02T06:42:54Z</time></trkpt><trkpt lat="41.95505205844808" lon="2.879621918736505"><ele>321.0</ele><time>2026-05-02T06:42:56Z</time></trkpt><trkpt lat="41.955088261741096" lon="2.8797225652591036"><ele>322.0</ele><time>2026-05-02T06:42:58Z</time></trkpt><trkpt lat="41.95511390750556" lon="2.8798344105597877"><ele>323.0</ele><time>2026-05-02T06:43:00Z</time></trkpt><trkpt lat="41.95513363033234" lon="2.8799426732855102"><ele>324.0</ele><time>2026-05-02T06:43:02Z</time></trkpt><trkpt lat="41.95512505566493" lon="2.880053129670893"><ele>323.8333333333333</ele><time>2026-05-02T06:43:04Z</time></trkpt><trkpt lat="41.95509751415894" lon="2.880156879905078"><ele>323.6666666666667</ele><time>2026-05-02T06:43:06Z</time></trkpt><trkpt lat="41.95504211113176" lon="2.880215060797674"><ele>323.5</ele><time>2026-05-02T06:43:08Z</time></trkpt><trkpt lat="41.95496609089735" lon="2.880281088136709"><ele>323.33333333333337</ele><time>2026-05-02T06:43:11Z</time></trkpt><trkpt lat="41.954897223010036" lon="2.8803395004048635"><ele>323.1666666666667</ele><time>2026-05-02T06:43:14Z</time></trkpt><trkpt lat="41.95481598468023" lon="2.8803903346430295"><ele>323.0</ele><time>2026-05-02T06:43:17Z</time></trkpt><trkpt lat="41.95473255949037" lon="2.8804510821797162"><ele>323.0</ele><time>2026-05-02T06:43:20Z</time></trkpt><trkpt lat="41.954665306401495" lon="2.8805199010517235"><ele>323.0</ele><time>2026-05-02T06:43:23Z</time></trkpt><trkpt lat="41.954613116278004" lon="2.8805739869615956"><ele>323.0</ele><time>2026-05-02T06:43:24Z</time></trkpt><trkpt lat="41.95453799810515" lon="2.8806537315676968"><ele>323.0</ele><time>2026-05-02T06:43:26Z</time></trkpt><trkpt lat="41.95443072772813" lon="2.8807425549008565"><ele>323.0</ele><time>2026-05-02T06:43:28Z</time></trkpt><trkpt lat="41.95435465720099" lon="2.8807405545901097"><ele>323.0</ele><time>2026-05-02T06:43:29Z</time></trkpt><trkpt lat="41.95428034697958" lon="2.8807696005518193"><ele>323.0</ele><time>2026-05-02T06:43:30Z</time></trkpt><trkpt lat="41.954206449362665" lon="2.8807951506401"><ele>323.0</ele><time>2026-05-02T06:43:31Z</time></trkpt><trkpt lat="41.954129786468656" lon="2.8808237215211836"><ele>323.0</ele><time>2026-05-02T06:43:32Z</time></trkpt><trkpt lat="41.95405764652403" lon="2.88085077400048"><ele>323.0</ele><time>2026-05-02T06:43:33Z</time></trkpt><trkpt lat="41.95398849171307" lon="2.880881728799814"><ele>323.0</ele><time>2026-05-02T06:43:34Z</time></trkpt><trkpt lat="41.95392347205132" lon="2.880926591209536"><ele>323.0</ele><time>2026-05-02T06:43:35Z</time></trkpt><trkpt lat="41.95386104416721" lon="2.880995027307602"><ele>322.5714285714286</ele><time>2026-05-02T06:43:36Z</time></trkpt><trkpt lat="41.95380667799881" lon="2.881067848073877"><ele>322.14285714285717</ele><time>2026-05-02T06:43:37Z</time></trkpt><trkpt lat="41.953759385455356" lon="2.881134990016481"><ele>321.7142857142857</ele><time>2026-05-02T06:43:38Z</time></trkpt><trkpt lat="41.953720933965585" lon="2.8812086406286794"><ele>321.28571428571433</ele><time>2026-05-02T06:43:39Z</time></trkpt><trkpt lat="41.95371201226954" lon="2.881302989172212"><ele>320.8571428571429</ele><time>2026-05-02T06:43:40Z</time></trkpt><trkpt lat="41.95369292541512" lon="2.881387803091176"><ele>320.42857142857144</ele><time>2026-05-02T06:43:41Z</time></trkpt><trkpt lat="41.95368657387699" lon="2.881478315957426"><ele>320.0</ele><time>2026-05-02T06:43:42Z</time></trkpt><trkpt lat="41.95367803205151" lon="2.881571625865386"><ele>320.0</ele><time>2026-05-02T06:43:43Z</time></trkpt><trkpt lat="41.95367651054817" lon="2.8816588716969016"><ele>320.0</ele><time>2026-05-02T06:43:44Z</time></trkpt><trkpt lat="41.953692767119456" lon="2.8818149345590522"><ele>320.0</ele><time>2026-05-02T06:43:46Z</time></trkpt><trkpt lat="41.953686022107675" lon="2.881907046280545"><ele>320.0</ele><time>2026-05-02T06:43:48Z</time></trkpt><trkpt lat="41.95377874510263" lon="2.881945221209573"><ele>320.0</ele><time>2026-05-02T06:43:48.999Z</time></trkpt><trkpt lat="41.95385386944361" lon="2.8820088589365906"><ele>320.0</ele><time>2026-05-02T06:43:50.999Z</time></trkpt><trkpt lat="41.95392267757884" lon="2.8820875639890926"><ele>321.1666666666667</ele><time>2026-05-02T06:43:52.999Z</time></trkpt><trkpt lat="41.95398200434617" lon="2.882168412643765"><ele>322.33333333333337</ele><time>2026-05-02T06:43:54.999Z</time></trkpt><trkpt lat="41.95402389089113" lon="2.882258800724176"><ele>323.5</ele><time>2026-05-02T06:43:56.999Z</time></trkpt><trkpt lat="41.954054454448965" lon="2.8823532957321265"><ele>324.6666666666667</ele><time>2026-05-02T06:43:58.999Z</time></trkpt><trkpt lat="41.95407776485326" lon="2.8824551118772677"><ele>325.8333333333333</ele><time>2026-05-02T06:44:00.999Z</time></trkpt><trkpt lat="41.95409203962407" lon="2.8825510260264893"><ele>327.0</ele><time>2026-05-02T06:44:02.999Z</time></trkpt><trkpt lat="41.95410858411467" lon="2.8826455896460637"><ele>327.0</ele><time>2026-05-02T06:44:04.999Z</time></trkpt><trkpt lat="41.95412497412568" lon="2.8827370610318988"><ele>327.0</ele><time>2026-05-02T06:44:06.999Z</time></trkpt><trkpt lat="41.95413072489799" lon="2.8828294801230685"><ele>327.0</ele><time>2026-05-02T06:44:08.999Z</time></trkpt><trkpt lat="41.9541254804557" lon="2.882924462136835"><ele>327.0</ele><time>2026-05-02T06:44:10.999Z</time></trkpt><trkpt lat="41.9540981591007" lon="2.8830103919363688"><ele>327.0</ele><time>2026-05-02T06:44:12.999Z</time></trkpt><trkpt lat="41.9540446701331" lon="2.8830728065476157"><ele>327.0</ele><time>2026-05-02T06:44:14.999Z</time></trkpt><trkpt lat="41.95397989903948" lon="2.8831163253613665"><ele>327.0</ele><time>2026-05-02T06:44:16.999Z</time></trkpt><trkpt lat="41.95391153330196" lon="2.8831681986311026"><ele>327.0</ele><time>2026-05-02T06:44:18.999Z</time></trkpt><trkpt lat="41.95383873567447" lon="2.88322254066156"><ele>327.0</ele><time>2026-05-02T06:44:20.999Z</time></trkpt><trkpt lat="41.95375449727125" lon="2.883283747404323"><ele>327.0</ele><time>2026-05-02T06:44:22.999Z</time></trkpt><trkpt lat="41.953684456929814" lon="2.883396281209282"><ele>327.0</ele><time>2026-05-02T06:44:24.999Z</time></trkpt><trkpt lat="41.95361413709227" lon="2.88353083727535"><ele>327.0</ele><time>2026-05-02T06:44:26.999Z</time></trkpt><trkpt lat="41.95360906793843" lon="2.8836200079465915"><ele>326.3333333333333</ele><time>2026-05-02T06:44:27.999Z</time></trkpt><trkpt lat="41.95362988537704" lon="2.8837057678890523"><ele>325.6666666666667</ele><time>2026-05-02T06:44:28.999Z</time></trkpt><trkpt lat="41.953649775524795" lon="2.883867399613983"><ele>325.0</ele><time>2026-05-02T06:44:30.999Z</time></trkpt><trkpt lat="41.95366317446989" lon="2.8839509360059994"><ele>324.33333333333337</ele><time>2026-05-02T06:44:31.999Z</time></trkpt><trkpt lat="41.95367700447825" lon="2.8841223444545068"><ele>323.6666666666667</ele><time>2026-05-02T06:44:33.999Z</time></trkpt><trkpt lat="41.95368053589796" lon="2.884210278873979"><ele>323.0</ele><time>2026-05-02T06:44:34.999Z</time></trkpt><trkpt lat="41.953669144683204" lon="2.884297905721942"><ele>323.00000000000006</ele><time>2026-05-02T06:44:35.999Z</time></trkpt><trkpt lat="41.9536458447712" lon="2.8843794712755297"><ele>323.0</ele><time>2026-05-02T06:44:36.999Z</time></trkpt><trkpt lat="41.9536242655215" lon="2.88445924109567"><ele>323.0</ele><time>2026-05-02T06:44:37.999Z</time></trkpt><trkpt lat="41.95360349897841" lon="2.884542854090049"><ele>323.0</ele><time>2026-05-02T06:44:39Z</time></trkpt><trkpt lat="41.95358399185455" lon="2.884626943708047"><ele>323.0</ele><time>2026-05-02T06:44:40Z</time></trkpt><trkpt lat="41.95356737423741" lon="2.8847151210554176"><ele>323.00000000000006</ele><time>2026-05-02T06:44:41Z</time></trkpt><trkpt lat="41.953569240588735" lon="2.884810259957547"><ele>323.0</ele><time>2026-05-02T06:44:42Z</time></trkpt><trkpt lat="41.95358204981705" lon="2.884901593794271"><ele>323.0</ele><time>2026-05-02T06:44:43Z</time></trkpt><trkpt lat="41.9536113738582" lon="2.8849868161858168"><ele>323.0</ele><time>2026-05-02T06:44:44Z</time></trkpt><trkpt lat="41.95366055176839" lon="2.8850495361466852"><ele>323.0</ele><time>2026-05-02T06:44:45Z</time></trkpt><trkpt lat="41.95374397033365" lon="2.8851606685544735"><ele>323.0</ele><time>2026-05-02T06:44:47Z</time></trkpt><trkpt lat="41.95383237596484" lon="2.885251095555824"><ele>323.0</ele><time>2026-05-02T06:44:49Z</time></trkpt><trkpt lat="41.953919619109534" lon="2.8853443384384834"><ele>325.2</ele><time>2026-05-02T06:44:51Z</time></trkpt><trkpt lat="41.95399023715687" lon="2.8854504324089842"><ele>327.4</ele><time>2026-05-02T06:44:53Z</time></trkpt><trkpt lat="41.954015292338724" lon="2.885580943284812"><ele>329.59999999999997</ele><time>2026-05-02T06:44:55Z</time></trkpt><trkpt lat="41.953986219593354" lon="2.8856984251724014"><ele>331.79999999999995</ele><time>2026-05-02T06:44:57Z</time></trkpt><trkpt lat="41.95394787322527" lon="2.8857882998673117"><ele>334.0</ele><time>2026-05-02T06:44:59Z</time></trkpt><trkpt lat="41.953911106887624" lon="2.8858792473529924"><ele>334.5</ele><time>2026-05-02T06:45:01Z</time></trkpt><trkpt lat="41.95387373403723" lon="2.8859658053259456"><ele>335.0</ele><time>2026-05-02T06:45:03Z</time></trkpt><trkpt lat="41.95382424842537" lon="2.8860455635373325"><ele>335.5</ele><time>2026-05-02T06:45:05Z</time></trkpt><trkpt lat="41.95377687604521" lon="2.8861311043969455"><ele>336.0</ele><time>2026-05-02T06:45:07Z</time></trkpt><trkpt lat="41.9537276248743" lon="2.8862131556501"><ele>336.5</ele><time>2026-05-02T06:45:09Z</time></trkpt><trkpt lat="41.953679538046806" lon="2.8862964737133234"><ele>337.0</ele><time>2026-05-02T06:45:11Z</time></trkpt><trkpt lat="41.953655187032254" lon="2.886403010342787"><ele>337.0</ele><time>2026-05-02T06:45:13Z</time></trkpt><trkpt lat="41.95365894732777" lon="2.8865146361944998"><ele>337.0</ele><time>2026-05-02T06:45:15Z</time></trkpt><trkpt lat="41.95368447680296" lon="2.886619594470911"><ele>337.0</ele><time>2026-05-02T06:45:17Z</time></trkpt><trkpt lat="41.95372464988183" lon="2.886718301342485"><ele>337.0</ele><time>2026-05-02T06:45:19Z</time></trkpt><trkpt lat="41.95378787473879" lon="2.8868078869686706"><ele>337.0</ele><time>2026-05-02T06:45:21Z</time></trkpt><trkpt lat="41.953848790047935" lon="2.8869029515866957"><ele>337.0</ele><time>2026-05-02T06:45:23Z</time></trkpt><trkpt lat="41.95391716128702" lon="2.8869998584304994"><ele>339.6</ele><time>2026-05-02T06:45:25Z</time></trkpt><trkpt lat="41.95398817167672" lon="2.8871018452069777"><ele>342.20000000000005</ele><time>2026-05-02T06:45:27Z</time></trkpt><trkpt lat="41.95404970266139" lon="2.8872106234876918"><ele>344.8</ele><time>2026-05-02T06:45:29Z</time></trkpt><trkpt lat="41.954080083521866" lon="2.887336754597025"><ele>347.4</ele><time>2026-05-02T06:45:31Z</time></trkpt><trkpt lat="41.95409607229796" lon="2.8874420785664245"><ele>350.0</ele><time>2026-05-02T06:45:33Z</time></trkpt><trkpt lat="41.95410676375837" lon="2.8875520027821784"><ele>350.0</ele><time>2026-05-02T06:45:36Z</time></trkpt><trkpt lat="41.954129307525115" lon="2.8876362111017935"><ele>350.0</ele><time>2026-05-02T06:45:37Z</time></trkpt><trkpt lat="41.95411666225217" lon="2.8877345798256573"><ele>350.0</ele><time>2026-05-02T06:45:38Z</time></trkpt><trkpt lat="41.954108243252364" lon="2.8878374473181587"><ele>350.0</ele><time>2026-05-02T06:45:40Z</time></trkpt><trkpt lat="41.95408574088107" lon="2.8879468699403135"><ele>350.0</ele><time>2026-05-02T06:45:42Z</time></trkpt><trkpt lat="41.95405041010705" lon="2.8880533079553223"><ele>350.0</ele><time>2026-05-02T06:45:44Z</time></trkpt><trkpt lat="41.95402013091458" lon="2.8881407843228484"><ele>350.0</ele><time>2026-05-02T06:45:46Z</time></trkpt><trkpt lat="41.9540011150921" lon="2.888229279725111"><ele>350.0</ele><time>2026-05-02T06:45:48Z</time></trkpt><trkpt lat="41.953991545123486" lon="2.8884170108688356"><ele>350.0</ele><time>2026-05-02T06:45:49Z</time></trkpt><trkpt lat="41.95399464558134" lon="2.8885684794269317"><ele>350.0</ele><time>2026-05-02T06:45:51Z</time></trkpt><trkpt lat="41.953984275603354" lon="2.8887301144253477"><ele>350.0</ele><time>2026-05-02T06:45:53Z</time></trkpt><trkpt lat="41.95394941979479" lon="2.8888960144923757"><ele>350.14285714285717</ele><time>2026-05-02T06:45:55Z</time></trkpt><trkpt lat="41.95392752396753" lon="2.8889758920167994"><ele>350.2857142857143</ele><time>2026-05-02T06:45:56Z</time></trkpt><trkpt lat="41.953902557872006" lon="2.889061200497876"><ele>350.42857142857144</ele><time>2026-05-02T06:45:57Z</time></trkpt><trkpt lat="41.9538841277548" lon="2.889149795400894"><ele>350.57142857142856</ele><time>2026-05-02T06:45:58Z</time></trkpt><trkpt lat="41.95386937533838" lon="2.889236373760519"><ele>350.7142857142857</ele><time>2026-05-02T06:45:59Z</time></trkpt><trkpt lat="41.95385579835076" lon="2.8893231889593776"><ele>350.8571428571429</ele><time>2026-05-02T06:46:00Z</time></trkpt><trkpt lat="41.95384483899462" lon="2.889411280258908"><ele>351.0</ele><time>2026-05-02T06:46:01Z</time></trkpt><trkpt lat="41.95383998369711" lon="2.8895030523508463"><ele>351.20000000000005</ele><time>2026-05-02T06:46:02Z</time></trkpt><trkpt lat="41.95384381675679" lon="2.889593450742163"><ele>351.40000000000003</ele><time>2026-05-02T06:46:03Z</time></trkpt><trkpt lat="41.953878071039554" lon="2.8897578707111578"><ele>351.6</ele><time>2026-05-02T06:46:04.999Z</time></trkpt><trkpt lat="41.953924242957704" lon="2.8898920604015177"><ele>351.8</ele><time>2026-05-02T06:46:06.999Z</time></trkpt><trkpt lat="41.95397857076631" lon="2.890022971861025"><ele>352.0</ele><time>2026-05-02T06:46:08.999Z</time></trkpt><trkpt lat="41.95401684005297" lon="2.890166245119955"><ele>353.25</ele><time>2026-05-02T06:46:10.999Z</time></trkpt><trkpt lat="41.95403838639833" lon="2.8903165110800386"><ele>354.5</ele><time>2026-05-02T06:46:12.999Z</time></trkpt><trkpt lat="41.9540743950014" lon="2.8904634855836946"><ele>355.75</ele><time>2026-05-02T06:46:14.999Z</time></trkpt><trkpt lat="41.95411657988052" lon="2.8906088346241385"><ele>357.0</ele><time>2026-05-02T06:46:16.999Z</time></trkpt><trkpt lat="41.954166952058586" lon="2.890742808766617"><ele>354.75</ele><time>2026-05-02T06:46:18.999Z</time></trkpt><trkpt lat="41.95422614236739" lon="2.8908732458403494"><ele>352.5</ele><time>2026-05-02T06:46:20.999Z</time></trkpt><trkpt lat="41.95429644695657" lon="2.8909904424473125"><ele>350.25</ele><time>2026-05-02T06:46:22.999Z</time></trkpt><trkpt lat="41.95433421942558" lon="2.8911345429741226"><ele>348.0</ele><time>2026-05-02T06:46:24.999Z</time></trkpt><trkpt lat="41.95438530927711" lon="2.891270477534857"><ele>348.0</ele><time>2026-05-02T06:46:26.999Z</time></trkpt><trkpt lat="41.95445126640879" lon="2.8913955199018853"><ele>348.0</ele><time>2026-05-02T06:46:28.999Z</time></trkpt><trkpt lat="41.954509178461464" lon="2.8915320982310115"><ele>348.0</ele><time>2026-05-02T06:46:30.999Z</time></trkpt><trkpt lat="41.954564456244206" lon="2.8916757398036417"><ele>348.0</ele><time>2026-05-02T06:46:32.999Z</time></trkpt><trkpt lat="41.954594082330864" lon="2.8917506881061867"><ele>348.0</ele><time>2026-05-02T06:46:33.999Z</time></trkpt><trkpt lat="41.95462251224768" lon="2.8918309031813463"><ele>349.1428571428571</ele><time>2026-05-02T06:46:34.999Z</time></trkpt><trkpt lat="41.95465370418643" lon="2.891912948977912"><ele>350.2857142857143</ele><time>2026-05-02T06:46:35.999Z</time></trkpt><trkpt lat="41.95468307599628" lon="2.8919991230449904"><ele>351.42857142857144</ele><time>2026-05-02T06:46:36.999Z</time></trkpt><trkpt lat="41.954709639911485" lon="2.8920932623196354"><ele>352.57142857142856</ele><time>2026-05-02T06:46:37.999Z</time></trkpt><trkpt lat="41.954729832423496" lon="2.8921926575857615"><ele>353.7142857142857</ele><time>2026-05-02T06:46:38.999Z</time></trkpt><trkpt lat="41.954746128121116" lon="2.892295774973432"><ele>354.85714285714283</ele><time>2026-05-02T06:46:39.999Z</time></trkpt><trkpt lat="41.95476145037946" lon="2.89239773967223"><ele>356.0</ele><time>2026-05-02T06:46:40.999Z</time></trkpt><trkpt lat="41.95477262237027" lon="2.89250428140221"><ele>356.0</ele><time>2026-05-02T06:46:41.999Z</time></trkpt><trkpt lat="41.95478713259159" lon="2.892612769952919"><ele>356.0</ele><time>2026-05-02T06:46:42.999Z</time></trkpt><trkpt lat="41.954800085873224" lon="2.892725356235975"><ele>356.0</ele><time>2026-05-02T06:46:43.999Z</time></trkpt><trkpt lat="41.95481371560377" lon="2.8928402228093937"><ele>356.0</ele><time>2026-05-02T06:46:45Z</time></trkpt><trkpt lat="41.95482498926804" lon="2.892959272280009"><ele>356.0</ele><time>2026-05-02T06:46:46Z</time></trkpt><trkpt lat="41.95482765289876" lon="2.8930823704969417"><ele>356.0</ele><time>2026-05-02T06:46:47Z</time></trkpt><trkpt lat="41.954820980186575" lon="2.8932047064744553"><ele>356.0</ele><time>2026-05-02T06:46:48Z</time></trkpt><trkpt lat="41.95481335862108" lon="2.8933266624097995"><ele>356.0</ele><time>2026-05-02T06:46:49Z</time></trkpt><trkpt lat="41.95479387855677" lon="2.893447040408102"><ele>356.0</ele><time>2026-05-02T06:46:50Z</time></trkpt><trkpt lat="41.9547650104817" lon="2.893559414849982"><ele>356.0</ele><time>2026-05-02T06:46:51Z</time></trkpt><trkpt lat="41.954733417391544" lon="2.893660867133811"><ele>356.0</ele><time>2026-05-02T06:46:52Z</time></trkpt><trkpt lat="41.95469888793323" lon="2.8937602631518287"><ele>356.0</ele><time>2026-05-02T06:46:53Z</time></trkpt><trkpt lat="41.954667436568215" lon="2.8938531432839545"><ele>356.2857142857143</ele><time>2026-05-02T06:46:54Z</time></trkpt><trkpt lat="41.95463652503111" lon="2.893939776563452"><ele>356.57142857142856</ele><time>2026-05-02T06:46:55Z</time></trkpt><trkpt lat="41.954610885806346" lon="2.894028144982002"><ele>356.8571428571429</ele><time>2026-05-02T06:46:56Z</time></trkpt><trkpt lat="41.95457438737521" lon="2.8941098849736635"><ele>357.1428571428571</ele><time>2026-05-02T06:46:57Z</time></trkpt><trkpt lat="41.9545470895686" lon="2.8942000231087714"><ele>357.42857142857144</ele><time>2026-05-02T06:46:58Z</time></trkpt><trkpt lat="41.9545162493509" lon="2.8942897902058338"><ele>357.7142857142857</ele><time>2026-05-02T06:46:59Z</time></trkpt><trkpt lat="41.954484723138684" lon="2.894385049299247"><ele>358.0</ele><time>2026-05-02T06:47:00Z</time></trkpt><trkpt lat="41.95447408864121" lon="2.8944893967462173"><ele>357.3333333333333</ele><time>2026-05-02T06:47:01Z</time></trkpt><trkpt lat="41.954456182321415" lon="2.8945924039788267"><ele>356.66666666666663</ele><time>2026-05-02T06:47:02Z</time></trkpt><trkpt lat="41.95445495142167" lon="2.8946981123521236"><ele>356.0</ele><time>2026-05-02T06:47:03Z</time></trkpt><trkpt lat="41.95446405551906" lon="2.8948076669199825"><ele>355.3333333333333</ele><time>2026-05-02T06:47:04Z</time></trkpt><trkpt lat="41.95447837731369" lon="2.894921900413371"><ele>354.6666666666667</ele><time>2026-05-02T06:47:05Z</time></trkpt><trkpt lat="41.9545013777249" lon="2.895033683951019"><ele>354.0</ele><time>2026-05-02T06:47:06Z</time></trkpt><trkpt lat="41.954521992165226" lon="2.895149274807184"><ele>353.3333333333333</ele><time>2026-05-02T06:47:07Z</time></trkpt><trkpt lat="41.95453079619149" lon="2.8952644342889133"><ele>352.6666666666667</ele><time>2026-05-02T06:47:08Z</time></trkpt><trkpt lat="41.95452543873682" lon="2.89537829674837"><ele>352.0</ele><time>2026-05-02T06:47:09Z</time></trkpt><trkpt lat="41.954517414369626" lon="2.895490104256598"><ele>351.33333333333337</ele><time>2026-05-02T06:47:10Z</time></trkpt><trkpt lat="41.954502098730174" lon="2.8955990336092112"><ele>350.6666666666667</ele><time>2026-05-02T06:47:11Z</time></trkpt><trkpt lat="41.954491857501395" lon="2.8957078455438645"><ele>350.0</ele><time>2026-05-02T06:47:12Z</time></trkpt><trkpt lat="41.95448164290396" lon="2.8958145880026307"><ele>350.0</ele><time>2026-05-02T06:47:13Z</time></trkpt><trkpt lat="41.954476597943845" lon="2.895915711832972"><ele>350.0</ele><time>2026-05-02T06:47:14Z</time></trkpt><trkpt lat="41.95447671527736" lon="2.8960158677820016"><ele>350.0</ele><time>2026-05-02T06:47:15Z</time></trkpt><trkpt lat="41.95448806525962" lon="2.8961123495104006"><ele>350.0</ele><time>2026-05-02T06:47:16Z</time></trkpt><trkpt lat="41.954506769392815" lon="2.896204593736383"><ele>350.0</ele><time>2026-05-02T06:47:17Z</time></trkpt><trkpt lat="41.95453547201027" lon="2.896292948553939"><ele>350.0</ele><time>2026-05-02T06:47:18Z</time></trkpt><trkpt lat="41.954567777823605" lon="2.8963711994879233"><ele>350.0</ele><time>2026-05-02T06:47:19Z</time></trkpt><trkpt lat="41.95460285087252" lon="2.8964441124919214"><ele>351.6</ele><time>2026-05-02T06:47:20Z</time></trkpt><trkpt lat="41.95466931380682" lon="2.896574458523883"><ele>353.2</ele><time>2026-05-02T06:47:22Z</time></trkpt><trkpt lat="41.95470094239775" lon="2.89671258528813"><ele>354.79999999999995</ele><time>2026-05-02T06:47:24Z</time></trkpt><trkpt lat="41.9547130233287" lon="2.896845618977456"><ele>356.4</ele><time>2026-05-02T06:47:26Z</time></trkpt><trkpt lat="41.95473477015797" lon="2.8969763945494473"><ele>358.0</ele><time>2026-05-02T06:47:28Z</time></trkpt><trkpt lat="41.954757213560434" lon="2.8971041338255983"><ele>359.0</ele><time>2026-05-02T06:47:30Z</time></trkpt><trkpt lat="41.95477292566686" lon="2.897309205783876"><ele>360.0</ele><time>2026-05-02T06:47:33Z</time></trkpt><trkpt lat="41.9547943774778" lon="2.8974411083627123"><ele>361.0</ele><time>2026-05-02T06:47:35Z</time></trkpt><trkpt lat="41.954815838285654" lon="2.8975704098428463"><ele>362.0</ele><time>2026-05-02T06:47:37Z</time></trkpt><trkpt lat="41.954845622134485" lon="2.8976714085555066"><ele>363.0</ele><time>2026-05-02T06:47:39Z</time></trkpt><trkpt lat="41.95472705574898" lon="2.8976811850901756"><ele>363.0</ele><time>2026-05-02T06:47:42Z</time></trkpt><trkpt lat="41.95461696051966" lon="2.89763419519863"><ele>363.0</ele><time>2026-05-02T06:47:44Z</time></trkpt><trkpt lat="41.954556359684105" lon="2.8976049703883726"><ele>363.0</ele><time>2026-05-02T06:47:45Z</time></trkpt><trkpt lat="41.95443010581305" lon="2.897550472334296"><ele>363.0</ele><time>2026-05-02T06:47:47Z</time></trkpt><trkpt lat="41.954375525213905" lon="2.8975065387118852"><ele>363.0</ele><time>2026-05-02T06:47:48Z</time></trkpt><trkpt lat="41.95431320164218" lon="2.897445024073288"><ele>363.0</ele><time>2026-05-02T06:47:49Z</time></trkpt><trkpt lat="41.9542726310134" lon="2.897365447166495"><ele>363.0</ele><time>2026-05-02T06:47:50Z</time></trkpt><trkpt lat="41.954205888503274" lon="2.8972324331703154"><ele>363.0</ele><time>2026-05-02T06:47:52Z</time></trkpt><trkpt lat="41.95417635035581" lon="2.8970792077374754"><ele>363.0</ele><time>2026-05-02T06:47:54Z</time></trkpt><trkpt lat="41.95415590243597" lon="2.8969909094980695"><ele>363.0</ele><time>2026-05-02T06:47:55Z</time></trkpt><trkpt lat="41.95412626380208" lon="2.8969086651604625"><ele>363.0</ele><time>2026-05-02T06:47:56Z</time></trkpt><trkpt lat="41.954083721375675" lon="2.896831475123656"><ele>362.99999999999994</ele><time>2026-05-02T06:47:57Z</time></trkpt><trkpt lat="41.954028865859634" lon="2.896762665661148"><ele>363.0</ele><time>2026-05-02T06:47:58Z</time></trkpt><trkpt lat="41.953974192516625" lon="2.8966992655258315"><ele>363.0</ele><time>2026-05-02T06:47:59Z</time></trkpt><trkpt lat="41.953907864002176" lon="2.8966555830714875"><ele>363.0</ele><time>2026-05-02T06:48:00Z</time></trkpt><trkpt lat="41.95386326899125" lon="2.8965821043877833"><ele>363.0</ele><time>2026-05-02T06:48:01Z</time></trkpt><trkpt lat="41.95380425504541" lon="2.8965277147935597"><ele>362.99999999999994</ele><time>2026-05-02T06:48:02Z</time></trkpt><trkpt lat="41.9537419149974" lon="2.8964794641558336"><ele>363.0</ele><time>2026-05-02T06:48:03Z</time></trkpt><trkpt lat="41.95367610984029" lon="2.89643832853472"><ele>363.0</ele><time>2026-05-02T06:48:04Z</time></trkpt><trkpt lat="41.95360630863261" lon="2.8964260801379034"><ele>363.0</ele><time>2026-05-02T06:48:05Z</time></trkpt><trkpt lat="41.953543364775875" lon="2.896387736769389"><ele>363.0</ele><time>2026-05-02T06:48:06Z</time></trkpt><trkpt lat="41.953482807970325" lon="2.8963548555330556"><ele>363.0</ele><time>2026-05-02T06:48:07Z</time></trkpt><trkpt lat="41.953425020448904" lon="2.896319962234174"><ele>363.0</ele><time>2026-05-02T06:48:08Z</time></trkpt><trkpt lat="41.953313466535825" lon="2.896267487688157"><ele>363.0</ele><time>2026-05-02T06:48:09.999Z</time></trkpt><trkpt lat="41.953206615944325" lon="2.8962223225510235"><ele>363.4</ele><time>2026-05-02T06:48:11.999Z</time></trkpt><trkpt lat="41.95309939994025" lon="2.896191209893297"><ele>363.79999999999995</ele><time>2026-05-02T06:48:13.999Z</time></trkpt><trkpt lat="41.953017928240314" lon="2.8961049638529395"><ele>364.2</ele><time>2026-05-02T06:48:15.999Z</time></trkpt><trkpt lat="41.952943970555545" lon="2.8960262210996124"><ele>364.6</ele><time>2026-05-02T06:48:17.999Z</time></trkpt><trkpt lat="41.95286144243372" lon="2.8959512178417564"><ele>365.0</ele><time>2026-05-02T06:48:19.999Z</time></trkpt><trkpt lat="41.95279650072592" lon="2.895828399464067"><ele>365.0</ele><time>2026-05-02T06:48:21.999Z</time></trkpt><trkpt lat="41.95270039496645" lon="2.8957332451704225"><ele>365.0</ele><time>2026-05-02T06:48:23.999Z</time></trkpt><trkpt lat="41.95259584697711" lon="2.8956487358684093"><ele>365.0</ele><time>2026-05-02T06:48:25.999Z</time></trkpt><trkpt lat="41.95253585717704" lon="2.895605731965899"><ele>365.0</ele><time>2026-05-02T06:48:26.999Z</time></trkpt><trkpt lat="41.9524739877109" lon="2.8955617915032636"><ele>365.0</ele><time>2026-05-02T06:48:27.999Z</time></trkpt><trkpt lat="41.95241180416572" lon="2.8955098243708095"><ele>365.0</ele><time>2026-05-02T06:48:28.999Z</time></trkpt><trkpt lat="41.95234524623569" lon="2.8954605690444617"><ele>365.0</ele><time>2026-05-02T06:48:29.999Z</time></trkpt><trkpt lat="41.95227793389267" lon="2.8954058405787806"><ele>365.0</ele><time>2026-05-02T06:48:30.999Z</time></trkpt><trkpt lat="41.95220686446837" lon="2.895358684247003"><ele>365.0</ele><time>2026-05-02T06:48:31.999Z</time></trkpt><trkpt lat="41.95213548303851" lon="2.895305053233902"><ele>365.0</ele><time>2026-05-02T06:48:32.999Z</time></trkpt><trkpt lat="41.952059466252244" lon="2.8952538870937587"><ele>365.0</ele><time>2026-05-02T06:48:33.999Z</time></trkpt><trkpt lat="41.951982223694024" lon="2.8952138706998247"><ele>365.0</ele><time>2026-05-02T06:48:34.999Z</time></trkpt><trkpt lat="41.95190159318118" lon="2.895183736196834"><ele>365.0</ele><time>2026-05-02T06:48:35.999Z</time></trkpt><trkpt lat="41.95182093095035" lon="2.8951601234786213"><ele>365.0</ele><time>2026-05-02T06:48:36.999Z</time></trkpt><trkpt lat="41.95173719801686" lon="2.89513927339297"><ele>365.0</ele><time>2026-05-02T06:48:37.999Z</time></trkpt><trkpt lat="41.951650482033436" lon="2.8951249308929428"><ele>365.0</ele><time>2026-05-02T06:48:38.999Z</time></trkpt><trkpt lat="41.95156827465632" lon="2.8951153240347587"><ele>365.0</ele><time>2026-05-02T06:48:39.999Z</time></trkpt><trkpt lat="41.95148473455506" lon="2.895105811328237"><ele>365.5</ele><time>2026-05-02T06:48:40.999Z</time></trkpt><trkpt lat="41.951402933718846" lon="2.8950914481698398"><ele>366.0</ele><time>2026-05-02T06:48:41.999Z</time></trkpt><trkpt lat="41.9513258439638" lon="2.895081903325127"><ele>366.5</ele><time>2026-05-02T06:48:42.999Z</time></trkpt><trkpt lat="41.95125258461456" lon="2.8950701725098695"><ele>367.0</ele><time>2026-05-02T06:48:43.999Z</time></trkpt><trkpt lat="41.951176671586545" lon="2.895055877653184"><ele>367.5</ele><time>2026-05-02T06:48:44.999Z</time></trkpt><trkpt lat="41.95110119435635" lon="2.895032200763716"><ele>368.0</ele><time>2026-05-02T06:48:45.999Z</time></trkpt><trkpt lat="41.95101901398514" lon="2.894994021287278"><ele>368.0</ele><time>2026-05-02T06:48:46.999Z</time></trkpt><trkpt lat="41.950934234453385" lon="2.8949485021998815"><ele>368.0</ele><time>2026-05-02T06:48:47.999Z</time></trkpt><trkpt lat="41.950845483416515" lon="2.894892970548976"><ele>368.0</ele><time>2026-05-02T06:48:48.999Z</time></trkpt><trkpt lat="41.950751494136824" lon="2.8948330848976145"><ele>368.0</ele><time>2026-05-02T06:48:49.999Z</time></trkpt><trkpt lat="41.950652487354745" lon="2.89477854647282"><ele>368.0</ele><time>2026-05-02T06:48:51Z</time></trkpt><trkpt lat="41.95055312724817" lon="2.8947259224638073"><ele>365.59999999999997</ele><time>2026-05-02T06:48:52Z</time></trkpt><trkpt lat="41.95046158959432" lon="2.8946653855471545"><ele>363.2</ele><time>2026-05-02T06:48:53Z</time></trkpt><trkpt lat="41.950374518823466" lon="2.8946028966996273"><ele>360.8</ele><time>2026-05-02T06:48:54Z</time></trkpt><trkpt lat="41.95029127268482" lon="2.8945518217507726"><ele>358.4</ele><time>2026-05-02T06:48:55Z</time></trkpt><trkpt lat="41.950211332012564" lon="2.89450268585146"><ele>356.0</ele><time>2026-05-02T06:48:56Z</time></trkpt><trkpt lat="41.95013349927351" lon="2.8944539421557067"><ele>356.0</ele><time>2026-05-02T06:48:57Z</time></trkpt><trkpt lat="41.95005229654659" lon="2.894398219446315"><ele>356.0</ele><time>2026-05-02T06:48:58Z</time></trkpt><trkpt lat="41.94996876841679" lon="2.894341803086585"><ele>356.0</ele><time>2026-05-02T06:48:59Z</time></trkpt><trkpt lat="41.94988334497797" lon="2.8942828151250684"><ele>356.0</ele><time>2026-05-02T06:49:00Z</time></trkpt><trkpt lat="41.94979491776631" lon="2.894221482541856"><ele>356.0</ele><time>2026-05-02T06:49:01Z</time></trkpt><trkpt lat="41.949705506283095" lon="2.894168099497425"><ele>355.6</ele><time>2026-05-02T06:49:02Z</time></trkpt><trkpt lat="41.94961831876487" lon="2.894117261931156"><ele>355.20000000000005</ele><time>2026-05-02T06:49:03Z</time></trkpt><trkpt lat="41.949534810927176" lon="2.8940795561828887"><ele>354.79999999999995</ele><time>2026-05-02T06:49:04Z</time></trkpt><trkpt lat="41.94945440269326" lon="2.894045737743077"><ele>354.4</ele><time>2026-05-02T06:49:05Z</time></trkpt><trkpt lat="41.94937929702677" lon="2.8940146272413436"><ele>354.0</ele><time>2026-05-02T06:49:06Z</time></trkpt><trkpt lat="41.949278241081636" lon="2.8939504478429328"><ele>354.0</ele><time>2026-05-02T06:49:08Z</time></trkpt><trkpt lat="41.949210554432156" lon="2.8939018465619926"><ele>354.0</ele><time>2026-05-02T06:49:10Z</time></trkpt><trkpt lat="41.949131505726754" lon="2.893818850934664"><ele>354.0</ele><time>2026-05-02T06:49:12Z</time></trkpt><trkpt lat="41.949085140958786" lon="2.8937597514803444"><ele>354.0</ele><time>2026-05-02T06:49:13Z</time></trkpt><trkpt lat="41.94903593618772" lon="2.893692020015975"><ele>354.0</ele><time>2026-05-02T06:49:14Z</time></trkpt><trkpt lat="41.948987701095454" lon="2.8936267508751983"><ele>354.0</ele><time>2026-05-02T06:49:15Z</time></trkpt><trkpt lat="41.948945867839214" lon="2.8935613919736016"><ele>354.0</ele><time>2026-05-02T06:49:16Z</time></trkpt><trkpt lat="41.94890009033954" lon="2.8934842635465468"><ele>353.1666666666667</ele><time>2026-05-02T06:49:17Z</time></trkpt><trkpt lat="41.948853584422764" lon="2.89340767080479"><ele>352.3333333333333</ele><time>2026-05-02T06:49:18Z</time></trkpt><trkpt lat="41.948807671545104" lon="2.8933249899335522"><ele>351.5</ele><time>2026-05-02T06:49:19Z</time></trkpt><trkpt lat="41.94876157268961" lon="2.8932417465573654"><ele>350.66666666666663</ele><time>2026-05-02T06:49:20Z</time></trkpt><trkpt lat="41.94871439047101" lon="2.8931559175353856"><ele>349.8333333333333</ele><time>2026-05-02T06:49:21Z</time></trkpt><trkpt lat="41.948662936087956" lon="2.8930704382544654"><ele>349.0</ele><time>2026-05-02T06:49:22Z</time></trkpt><trkpt lat="41.94861002701525" lon="2.8929836139475773"><ele>349.0</ele><time>2026-05-02T06:49:23Z</time></trkpt><trkpt lat="41.948560110586946" lon="2.8928909535689553"><ele>349.0</ele><time>2026-05-02T06:49:24Z</time></trkpt><trkpt lat="41.948511458024925" lon="2.8927922102439187"><ele>349.0</ele><time>2026-05-02T06:49:25Z</time></trkpt><trkpt lat="41.94846663937028" lon="2.8926968877749117"><ele>349.0</ele><time>2026-05-02T06:49:26Z</time></trkpt><trkpt lat="41.94842839763333" lon="2.8925975711916707"><ele>349.0</ele><time>2026-05-02T06:49:27Z</time></trkpt><trkpt lat="41.948395723429456" lon="2.8925049832598715"><ele>349.0</ele><time>2026-05-02T06:49:28Z</time></trkpt><trkpt lat="41.94836134563646" lon="2.8924154400483397"><ele>347.8333333333333</ele><time>2026-05-02T06:49:29Z</time></trkpt><trkpt lat="41.9483302664467" lon="2.8923298684500263"><ele>346.66666666666663</ele><time>2026-05-02T06:49:30Z</time></trkpt><trkpt lat="41.94829842107516" lon="2.8922496944029623"><ele>345.5</ele><time>2026-05-02T06:49:31Z</time></trkpt><trkpt lat="41.948268420468075" lon="2.892172178206411"><ele>344.3333333333333</ele><time>2026-05-02T06:49:32Z</time></trkpt><trkpt lat="41.9482039181526" lon="2.8920439829501725"><ele>343.1666666666667</ele><time>2026-05-02T06:49:34Z</time></trkpt><trkpt lat="41.948140536454446" lon="2.891932842171895"><ele>342.0</ele><time>2026-05-02T06:49:36Z</time></trkpt><trkpt lat="41.94807797560913" lon="2.8918379249624087"><ele>343.1666666666667</ele><time>2026-05-02T06:49:38Z</time></trkpt><trkpt lat="41.94802518642332" lon="2.8917422867629194"><ele>344.3333333333333</ele><time>2026-05-02T06:49:40Z</time></trkpt><trkpt lat="41.94795357506924" lon="2.8916781511868215"><ele>345.5</ele><time>2026-05-02T06:49:42Z</time></trkpt><trkpt lat="41.947884998983426" lon="2.8916026724912327"><ele>346.66666666666663</ele><time>2026-05-02T06:49:44Z</time></trkpt><trkpt lat="41.9478192669766" lon="2.8915294301346615"><ele>347.8333333333333</ele><time>2026-05-02T06:49:46Z</time></trkpt><trkpt lat="41.94774301096079" lon="2.8914599418355613"><ele>349.0</ele><time>2026-05-02T06:49:48Z</time></trkpt><trkpt lat="41.94766629067503" lon="2.8913835750267713"><ele>349.0</ele><time>2026-05-02T06:49:50Z</time></trkpt><trkpt lat="41.947609325923764" lon="2.8913033999352953"><ele>349.0</ele><time>2026-05-02T06:49:52Z</time></trkpt><trkpt lat="41.94757284125877" lon="2.8912294719205"><ele>349.0</ele><time>2026-05-02T06:49:54Z</time></trkpt><trkpt lat="41.94753626935304" lon="2.891134798004909"><ele>349.0</ele><time>2026-05-02T06:49:56Z</time></trkpt><trkpt lat="41.94750865896457" lon="2.8910162873305203"><ele>349.0</ele><time>2026-05-02T06:49:58Z</time></trkpt><trkpt lat="41.9474804708449" lon="2.89085768615531"><ele>349.0</ele><time>2026-05-02T06:50:00Z</time></trkpt><trkpt lat="41.94746201155841" lon="2.8907673624851733"><ele>347.5</ele><time>2026-05-02T06:50:01Z</time></trkpt><trkpt lat="41.947440786521575" lon="2.890675533148569"><ele>346.0</ele><time>2026-05-02T06:50:02Z</time></trkpt><trkpt lat="41.94741796495924" lon="2.890574371362589"><ele>344.5</ele><time>2026-05-02T06:50:03Z</time></trkpt><trkpt lat="41.94738807958694" lon="2.890471101694132"><ele>343.0</ele><time>2026-05-02T06:50:04Z</time></trkpt><trkpt lat="41.94735757376713" lon="2.8903708469892826"><ele>341.5</ele><time>2026-05-02T06:50:05Z</time></trkpt><trkpt lat="41.947326378380765" lon="2.8902653501044293"><ele>340.0</ele><time>2026-05-02T06:50:06Z</time></trkpt><trkpt lat="41.947288483864305" lon="2.890160277425533"><ele>338.5</ele><time>2026-05-02T06:50:07Z</time></trkpt><trkpt lat="41.947247996626494" lon="2.8900575131852317"><ele>337.0</ele><time>2026-05-02T06:50:08Z</time></trkpt><trkpt lat="41.947205717341234" lon="2.88996611880759"><ele>335.5</ele><time>2026-05-02T06:50:09Z</time></trkpt><trkpt lat="41.94715962454471" lon="2.88988215606477"><ele>334.0</ele><time>2026-05-02T06:50:10Z</time></trkpt><trkpt lat="41.9471104614161" lon="2.8898010071596576"><ele>332.5</ele><time>2026-05-02T06:50:11Z</time></trkpt><trkpt lat="41.947054476214454" lon="2.889722862726792"><ele>331.0</ele><time>2026-05-02T06:50:12Z</time></trkpt><trkpt lat="41.94699485098429" lon="2.8896576631984745"><ele>331.0</ele><time>2026-05-02T06:50:13Z</time></trkpt><trkpt lat="41.946941388869575" lon="2.8896047379860095"><ele>331.0</ele><time>2026-05-02T06:50:14Z</time></trkpt><trkpt lat="41.94688752286539" lon="2.8895585128713175"><ele>331.0</ele><time>2026-05-02T06:50:15Z</time></trkpt><trkpt lat="41.94683402605544" lon="2.889512645900202"><ele>331.0</ele><time>2026-05-02T06:50:16Z</time></trkpt><trkpt lat="41.9467364772383" lon="2.8894398164369934"><ele>331.0</ele><time>2026-05-02T06:50:18Z</time></trkpt><trkpt lat="41.946648626179226" lon="2.8893885648294786"><ele>331.0</ele><time>2026-05-02T06:50:20Z</time></trkpt><trkpt lat="41.94654334784369" lon="2.889344857834936"><ele>330.8</ele><time>2026-05-02T06:50:22Z</time></trkpt><trkpt lat="41.94643415150645" lon="2.889304067539486"><ele>330.6</ele><time>2026-05-02T06:50:24Z</time></trkpt><trkpt lat="41.94633463525881" lon="2.8892496735378064"><ele>330.4</ele><time>2026-05-02T06:50:26Z</time></trkpt><trkpt lat="41.946251369923765" lon="2.8891786566544386"><ele>330.2</ele><time>2026-05-02T06:50:27.999Z</time></trkpt><trkpt lat="41.946196743099385" lon="2.8890909641645304"><ele>330.0</ele><time>2026-05-02T06:50:29.999Z</time></trkpt><trkpt lat="41.94615151247946" lon="2.8889722578444417"><ele>330.0</ele><time>2026-05-02T06:50:31.999Z</time></trkpt><trkpt lat="41.94610772925819" lon="2.8888198029744987"><ele>330.0</ele><time>2026-05-02T06:50:33.999Z</time></trkpt><trkpt lat="41.94606162061956" lon="2.888682929963383"><ele>330.0</ele><time>2026-05-02T06:50:35.999Z</time></trkpt><trkpt lat="41.946029706019196" lon="2.8885725506737705"><ele>330.0</ele><time>2026-05-02T06:50:37.999Z</time></trkpt><trkpt lat="41.94599031586428" lon="2.8884993592958828"><ele>330.0</ele><time>2026-05-02T06:50:39.999Z</time></trkpt><trkpt lat="41.94592546496593" lon="2.8884772812087225"><ele>328.5</ele><time>2026-05-02T06:50:41.999Z</time></trkpt><trkpt lat="41.94585890755938" lon="2.888509965276378"><ele>327.0</ele><time>2026-05-02T06:50:43.999Z</time></trkpt><trkpt lat="41.945794086616424" lon="2.888603649443006"><ele>325.5</ele><time>2026-05-02T06:50:45.999Z</time></trkpt><trkpt lat="41.94574742956441" lon="2.8887143331669938"><ele>324.0</ele><time>2026-05-02T06:50:47.999Z</time></trkpt><trkpt lat="41.94568882370096" lon="2.888805625238549"><ele>322.5</ele><time>2026-05-02T06:50:49.999Z</time></trkpt><trkpt lat="41.945609401753124" lon="2.888868360060167"><ele>321.0</ele><time>2026-05-02T06:50:51.999Z</time></trkpt><trkpt lat="41.945520490774754" lon="2.8888896373099344"><ele>321.0</ele><time>2026-05-02T06:50:53.999Z</time></trkpt><trkpt lat="41.945446559818116" lon="2.888866489434517"><ele>321.0</ele><time>2026-05-02T06:50:55.999Z</time></trkpt><trkpt lat="41.94536837693366" lon="2.8888233336071956"><ele>321.0</ele><time>2026-05-02T06:50:58.001Z</time></trkpt><trkpt lat="41.94530142201662" lon="2.8887547727824723"><ele>321.0</ele><time>2026-05-02T06:51:00.001Z</time></trkpt><trkpt lat="41.945236811038626" lon="2.888664151015288"><ele>321.0</ele><time>2026-05-02T06:51:02.001Z</time></trkpt><trkpt lat="41.94517711892615" lon="2.8885684607131172"><ele>321.0</ele><time>2026-05-02T06:51:04.001Z</time></trkpt><trkpt lat="41.945119168982266" lon="2.888470346442334"><ele>318.5</ele><time>2026-05-02T06:51:06.001Z</time></trkpt><trkpt lat="41.94503697333563" lon="2.8884438412975904"><ele>316.0</ele><time>2026-05-02T06:51:08.001Z</time></trkpt><trkpt lat="41.944958224026834" lon="2.8884611829780393"><ele>313.5</ele><time>2026-05-02T06:51:10.001Z</time></trkpt><trkpt lat="41.94488826985002" lon="2.8884404314736356"><ele>311.0</ele><time>2026-05-02T06:51:12.001Z</time></trkpt><trkpt lat="41.94485195450817" lon="2.888348131867698"><ele>308.5</ele><time>2026-05-02T06:51:14Z</time></trkpt><trkpt lat="41.944854404102834" lon="2.8882333916591656"><ele>306.0</ele><time>2026-05-02T06:51:16Z</time></trkpt><trkpt lat="41.94485872779132" lon="2.8881422897638207"><ele>306.0</ele><time>2026-05-02T06:51:18Z</time></trkpt><trkpt lat="41.94480213854384" lon="2.888035669031007"><ele>306.0</ele><time>2026-05-02T06:51:21Z</time></trkpt><trkpt lat="41.944723682314766" lon="2.8879788894884717"><ele>306.0</ele><time>2026-05-02T06:51:23Z</time></trkpt><trkpt lat="41.944635657449666" lon="2.887912162849915"><ele>306.0</ele><time>2026-05-02T06:51:25Z</time></trkpt><trkpt lat="41.94456768721597" lon="2.8877657686264047"><ele>306.0</ele><time>2026-05-02T06:51:27Z</time></trkpt><trkpt lat="41.944448852473975" lon="2.887669233390836"><ele>306.0</ele><time>2026-05-02T06:51:29Z</time></trkpt><trkpt lat="41.944379267518094" lon="2.8876395112608866"><ele>306.0</ele><time>2026-05-02T06:51:30Z</time></trkpt><trkpt lat="41.94430315536043" lon="2.887615161164789"><ele>306.0</ele><time>2026-05-02T06:51:31Z</time></trkpt><trkpt lat="41.94423464763437" lon="2.8875964262881295"><ele>306.0</ele><time>2026-05-02T06:51:32Z</time></trkpt><trkpt lat="41.944168184575744" lon="2.887581064233163"><ele>306.0</ele><time>2026-05-02T06:51:33Z</time></trkpt><trkpt lat="41.944096349482535" lon="2.887565897976949"><ele>306.0</ele><time>2026-05-02T06:51:34Z</time></trkpt><trkpt lat="41.94403157407625" lon="2.8875526592079184"><ele>306.0</ele><time>2026-05-02T06:51:35Z</time></trkpt><trkpt lat="41.94396104934478" lon="2.8875388473925545"><ele>305.7142857142857</ele><time>2026-05-02T06:51:36Z</time></trkpt><trkpt lat="41.94389151028788" lon="2.8875259389508856"><ele>305.42857142857144</ele><time>2026-05-02T06:51:37Z</time></trkpt><trkpt lat="41.943818824011124" lon="2.8875141734752083"><ele>305.1428571428571</ele><time>2026-05-02T06:51:38Z</time></trkpt><trkpt lat="41.94374314296887" lon="2.8875019232664174"><ele>304.8571428571429</ele><time>2026-05-02T06:51:39Z</time></trkpt><trkpt lat="41.94367058650924" lon="2.8874874515666438"><ele>304.5714285714286</ele><time>2026-05-02T06:51:40Z</time></trkpt><trkpt lat="41.943599769381144" lon="2.8874696131660738"><ele>304.2857142857143</ele><time>2026-05-02T06:51:41Z</time></trkpt><trkpt lat="41.943536535525226" lon="2.8874493243311554"><ele>304.0</ele><time>2026-05-02T06:51:42Z</time></trkpt><trkpt lat="41.943434036763165" lon="2.887405975045879"><ele>304.0</ele><time>2026-05-02T06:51:44Z</time></trkpt><trkpt lat="41.943374735054554" lon="2.8873654235238444"><ele>304.0</ele><time>2026-05-02T06:51:46Z</time></trkpt><trkpt lat="41.943328438835714" lon="2.8872991264129477"><ele>304.0</ele><time>2026-05-02T06:51:48Z</time></trkpt><trkpt lat="41.9433166986427" lon="2.887195458139791"><ele>304.0</ele><time>2026-05-02T06:51:50Z</time></trkpt><trkpt lat="41.94333933486345" lon="2.8870611983722454"><ele>304.0</ele><time>2026-05-02T06:51:52Z</time></trkpt><trkpt lat="41.943364210164404" lon="2.886918484710396"><ele>304.0</ele><time>2026-05-02T06:51:54Z</time></trkpt><trkpt lat="41.94338730395194" lon="2.8867815085814716"><ele>305.4</ele><time>2026-05-02T06:51:56Z</time></trkpt><trkpt lat="41.9434105399368" lon="2.8866221407995445"><ele>306.79999999999995</ele><time>2026-05-02T06:51:58Z</time></trkpt><trkpt lat="41.94343682543526" lon="2.8865451574152976"><ele>308.20000000000005</ele><time>2026-05-02T06:51:59Z</time></trkpt><trkpt lat="41.9434693577588" lon="2.8864694600291854"><ele>309.6</ele><time>2026-05-02T06:52:00Z</time></trkpt><trkpt lat="41.94353779153353" lon="2.886335632258339"><ele>311.0</ele><time>2026-05-02T06:52:02Z</time></trkpt><trkpt lat="41.943583488986334" lon="2.886196889735707"><ele>311.0</ele><time>2026-05-02T06:52:03.999Z</time></trkpt><trkpt lat="41.94361241973366" lon="2.8860605047687815"><ele>311.0</ele><time>2026-05-02T06:52:05.999Z</time></trkpt><trkpt lat="41.94357124739262" lon="2.8859165726014635"><ele>311.0</ele><time>2026-05-02T06:52:07.999Z</time></trkpt><trkpt lat="41.94351807381273" lon="2.885778744854592"><ele>311.0</ele><time>2026-05-02T06:52:09.999Z</time></trkpt><trkpt lat="41.94345667750833" lon="2.8856360893381585"><ele>310.1666666666667</ele><time>2026-05-02T06:52:11.999Z</time></trkpt><trkpt lat="41.943421704320485" lon="2.8855655433118437"><ele>309.33333333333337</ele><time>2026-05-02T06:52:12.999Z</time></trkpt><trkpt lat="41.94338180142138" lon="2.8854987531055354"><ele>308.5</ele><time>2026-05-02T06:52:13.999Z</time></trkpt><trkpt lat="41.94329912844069" lon="2.8853853069244457"><ele>307.6666666666667</ele><time>2026-05-02T06:52:15.999Z</time></trkpt><trkpt lat="41.94321341543583" lon="2.8852620282728543"><ele>306.8333333333333</ele><time>2026-05-02T06:52:17.999Z</time></trkpt><trkpt lat="41.94317770729801" lon="2.885186270249918"><ele>306.0</ele><time>2026-05-02T06:52:18.999Z</time></trkpt><trkpt lat="41.943137318714854" lon="2.8851144268023203"><ele>305.1428571428571</ele><time>2026-05-02T06:52:19.999Z</time></trkpt><trkpt lat="41.94312155180036" lon="2.8849575140659334"><ele>304.2857142857143</ele><time>2026-05-02T06:52:21.999Z</time></trkpt><trkpt lat="41.943135770374695" lon="2.8848720364076197"><ele>303.42857142857144</ele><time>2026-05-02T06:52:22.999Z</time></trkpt><trkpt lat="41.94316248112738" lon="2.884790605879311"><ele>302.57142857142856</ele><time>2026-05-02T06:52:23.999Z</time></trkpt><trkpt lat="41.94319598117361" lon="2.884715669065261"><ele>301.7142857142857</ele><time>2026-05-02T06:52:24.999Z</time></trkpt><trkpt lat="41.94323117870011" lon="2.8846388812392116"><ele>300.85714285714283</ele><time>2026-05-02T06:52:25.999Z</time></trkpt><trkpt lat="41.943251480829254" lon="2.884555931248858"><ele>300.0</ele><time>2026-05-02T06:52:26.999Z</time></trkpt><trkpt lat="41.94325614543444" lon="2.884470454267243"><ele>300.0</ele><time>2026-05-02T06:52:27.999Z</time></trkpt><trkpt lat="41.94322726944775" lon="2.884321115454443"><ele>300.0</ele><time>2026-05-02T06:52:29.999Z</time></trkpt><trkpt lat="41.943211041105585" lon="2.8842390029903364"><ele>300.0</ele><time>2026-05-02T06:52:30.999Z</time></trkpt><trkpt lat="41.94315411800188" lon="2.8841832806879264"><ele>300.0</ele><time>2026-05-02T06:52:31.999Z</time></trkpt><trkpt lat="41.94312787483176" lon="2.884099907199021"><ele>300.0</ele><time>2026-05-02T06:52:32.999Z</time></trkpt><trkpt lat="41.94307765278257" lon="2.8840415019788215"><ele>300.0</ele><time>2026-05-02T06:52:33.999Z</time></trkpt><trkpt lat="41.94304744017762" lon="2.8839599309502084"><ele>300.0</ele><time>2026-05-02T06:52:34.999Z</time></trkpt><trkpt lat="41.943004848867844" lon="2.883820771355072"><ele>300.0</ele><time>2026-05-02T06:52:36.998Z</time></trkpt><trkpt lat="41.94297355497976" lon="2.8837147525558096"><ele>300.0</ele><time>2026-05-02T06:52:38.998Z</time></trkpt><trkpt lat="41.94296134080664" lon="2.883611527316994"><ele>300.0</ele><time>2026-05-02T06:52:40.998Z</time></trkpt><trkpt lat="41.9429769307982" lon="2.883483731428474"><ele>300.0</ele><time>2026-05-02T06:52:42.998Z</time></trkpt><trkpt lat="41.94300625020859" lon="2.8833690564651637"><ele>298.2</ele><time>2026-05-02T06:52:44.998Z</time></trkpt><trkpt lat="41.9430395738313" lon="2.883270397906734"><ele>296.4</ele><time>2026-05-02T06:52:46.998Z</time></trkpt><trkpt lat="41.9430575287538" lon="2.8831503417018"><ele>294.6</ele><time>2026-05-02T06:52:49.998Z</time></trkpt><trkpt lat="41.94309908515087" lon="2.8830431746626695"><ele>292.8</ele><time>2026-05-02T06:52:51.998Z</time></trkpt><trkpt lat="41.94313369847385" lon="2.8829033039158967"><ele>291.0</ele><time>2026-05-02T06:52:53.998Z</time></trkpt><trkpt lat="41.94314695353586" lon="2.8827450319865773"><ele>288.8</ele><time>2026-05-02T06:52:55.998Z</time></trkpt><trkpt lat="41.943138693011" lon="2.8825905216958367"><ele>286.6</ele><time>2026-05-02T06:52:57.998Z</time></trkpt><trkpt lat="41.94308744106229" lon="2.882462489508532"><ele>284.4</ele><time>2026-05-02T06:52:59.998Z</time></trkpt><trkpt lat="41.94306158720958" lon="2.882381116233196"><ele>282.2</ele><time>2026-05-02T06:53:00.998Z</time></trkpt><trkpt lat="41.94295776437917" lon="2.8823327110209944"><ele>280.0</ele><time>2026-05-02T06:53:03Z</time></trkpt><trkpt lat="41.94291189861986" lon="2.88226417280422"><ele>280.0</ele><time>2026-05-02T06:53:05Z</time></trkpt><trkpt lat="41.94284670870756" lon="2.882186087637289"><ele>280.0</ele><time>2026-05-02T06:53:08Z</time></trkpt><trkpt lat="41.9427793098695" lon="2.882102667509686"><ele>280.0</ele><time>2026-05-02T06:53:11Z</time></trkpt><trkpt lat="41.94273640690956" lon="2.8819981612664374"><ele>280.0</ele><time>2026-05-02T06:53:14Z</time></trkpt><trkpt lat="41.94269020465791" lon="2.881906118152633"><ele>280.0</ele><time>2026-05-02T06:53:17Z</time></trkpt><trkpt lat="41.94266694922813" lon="2.8818048976810027"><ele>280.0</ele><time>2026-05-02T06:53:20.999Z</time></trkpt><trkpt lat="41.94262447375527" lon="2.881724291711866"><ele>280.0</ele><time>2026-05-02T06:53:23.999Z</time></trkpt><trkpt lat="41.94255121192616" lon="2.881671846917533"><ele>280.0</ele><time>2026-05-02T06:53:26.999Z</time></trkpt><trkpt lat="41.942488520174" lon="2.881615721346617"><ele>280.0</ele><time>2026-05-02T06:53:29.999Z</time></trkpt><trkpt lat="41.94240975420928" lon="2.8815675668801646"><ele>280.0</ele><time>2026-05-02T06:53:32.999Z</time></trkpt><trkpt lat="41.942293157266306" lon="2.8815223501400684"><ele>280.0</ele><time>2026-05-02T06:53:35.999Z</time></trkpt><trkpt lat="41.94219634083246" lon="2.8815118264107618"><ele>281.16666666666663</ele><time>2026-05-02T06:53:38.999Z</time></trkpt><trkpt lat="41.94213275870408" lon="2.881517987834861"><ele>282.3333333333333</ele><time>2026-05-02T06:53:40.999Z</time></trkpt><trkpt lat="41.94205268583463" lon="2.8815110111300974"><ele>283.5</ele><time>2026-05-02T06:53:42.999Z</time></trkpt><trkpt lat="41.94197411509041" lon="2.881497163739959"><ele>284.6666666666667</ele><time>2026-05-02T06:53:44.999Z</time></trkpt><trkpt lat="41.941896589797736" lon="2.8814719809359666"><ele>285.83333333333337</ele><time>2026-05-02T06:53:46.999Z</time></trkpt><trkpt lat="41.94183356687814" lon="2.8814183709924523"><ele>287.0</ele><time>2026-05-02T06:53:48.999Z</time></trkpt><trkpt lat="41.94176558146723" lon="2.8813384840841065"><ele>286.0</ele><time>2026-05-02T06:53:50.999Z</time></trkpt><trkpt lat="41.941699094245585" lon="2.881247611393453"><ele>285.0</ele><time>2026-05-02T06:53:52.999Z</time></trkpt><trkpt lat="41.94164785264548" lon="2.8811483711373476"><ele>284.0</ele><time>2026-05-02T06:53:54.999Z</time></trkpt><trkpt lat="41.941615566449656" lon="2.8810572115386583"><ele>283.0</ele><time>2026-05-02T06:53:56.999Z</time></trkpt><trkpt lat="41.941591592323526" lon="2.8809515230664706"><ele>282.0</ele><time>2026-05-02T06:53:58.999Z</time></trkpt><trkpt lat="41.94157641761315" lon="2.880840005521111"><ele>281.0</ele><time>2026-05-02T06:54:00.999Z</time></trkpt><trkpt lat="41.94156117455073" lon="2.8807315747160844"><ele>283.33333333333337</ele><time>2026-05-02T06:54:02.999Z</time></trkpt><trkpt lat="41.94154689078385" lon="2.8806277636203896"><ele>285.6666666666667</ele><time>2026-05-02T06:54:04.999Z</time></trkpt><trkpt lat="41.941532990242266" lon="2.8805221791086253"><ele>288.0</ele><time>2026-05-02T06:54:06.999Z</time></trkpt><trkpt lat="41.94152428757399" lon="2.8804051449189547"><ele>290.3333333333333</ele><time>2026-05-02T06:54:08.999Z</time></trkpt><trkpt lat="41.94151075433747" lon="2.88028342306741"><ele>292.66666666666663</ele><time>2026-05-02T06:54:10.999Z</time></trkpt><trkpt lat="41.941489825945276" lon="2.880160956004405"><ele>295.0</ele><time>2026-05-02T06:54:12.999Z</time></trkpt><trkpt lat="41.94146203013577" lon="2.8800421151369555"><ele>295.8333333333333</ele><time>2026-05-02T06:54:14.999Z</time></trkpt><trkpt lat="41.941404762618006" lon="2.8799242751089005"><ele>296.66666666666663</ele><time>2026-05-02T06:54:16.999Z</time></trkpt><trkpt lat="41.94136319439451" lon="2.8798584596475383"><ele>297.5</ele><time>2026-05-02T06:54:17.999Z</time></trkpt><trkpt lat="41.941343032093506" lon="2.8797570972833495"><ele>298.3333333333333</ele><time>2026-05-02T06:54:18.999Z</time></trkpt><trkpt lat="41.94128742939865" lon="2.879686000918335"><ele>299.1666666666667</ele><time>2026-05-02T06:54:19.999Z</time></trkpt><trkpt lat="41.94122057785042" lon="2.87962285514959"><ele>300.0</ele><time>2026-05-02T06:54:20.999Z</time></trkpt><trkpt lat="41.941154183139375" lon="2.8795665589101564"><ele>300.0</ele><time>2026-05-02T06:54:21.999Z</time></trkpt><trkpt lat="41.94109271131228" lon="2.879511305662966"><ele>300.0</ele><time>2026-05-02T06:54:22.999Z</time></trkpt><trkpt lat="41.94102663581993" lon="2.879450736779438"><ele>300.0</ele><time>2026-05-02T06:54:23.999Z</time></trkpt><trkpt lat="41.94095551755256" lon="2.879392970316946"><ele>300.0</ele><time>2026-05-02T06:54:24.999Z</time></trkpt><trkpt lat="41.94088543605938" lon="2.879340839225898"><ele>300.0</ele><time>2026-05-02T06:54:25.999Z</time></trkpt><trkpt lat="41.94080733742763" lon="2.879293779139626"><ele>300.0</ele><time>2026-05-02T06:54:26.999Z</time></trkpt><trkpt lat="41.94072355720275" lon="2.879269975416983"><ele>297.8333333333333</ele><time>2026-05-02T06:54:27.999Z</time></trkpt><trkpt lat="41.940639004551215" lon="2.879262433006835"><ele>295.6666666666667</ele><time>2026-05-02T06:54:28.999Z</time></trkpt><trkpt lat="41.94055419475004" lon="2.8792620915521216"><ele>293.5</ele><time>2026-05-02T06:54:29.999Z</time></trkpt><trkpt lat="41.94047016436135" lon="2.8792620915528113"><ele>291.33333333333337</ele><time>2026-05-02T06:54:30.999Z</time></trkpt><trkpt lat="41.940383907159884" lon="2.8792644235282663"><ele>289.1666666666667</ele><time>2026-05-02T06:54:31.999Z</time></trkpt><trkpt lat="41.940302762166155" lon="2.879272327185561"><ele>287.0</ele><time>2026-05-02T06:54:32.999Z</time></trkpt><trkpt lat="41.94022110155467" lon="2.8792810709509364"><ele>287.0</ele><time>2026-05-02T06:54:33.999Z</time></trkpt><trkpt lat="41.940137110808635" lon="2.879288903077621"><ele>287.0</ele><time>2026-05-02T06:54:34.999Z</time></trkpt><trkpt lat="41.94005536028136" lon="2.8792939285572716"><ele>287.0</ele><time>2026-05-02T06:54:35.999Z</time></trkpt><trkpt lat="41.93998318444546" lon="2.8792915990074395"><ele>287.0</ele><time>2026-05-02T06:54:36.999Z</time></trkpt><trkpt lat="41.9399208281189" lon="2.8792616608875656"><ele>287.0</ele><time>2026-05-02T06:54:37.999Z</time></trkpt><trkpt lat="41.939832173007915" lon="2.8791557343223246"><ele>287.0</ele><time>2026-05-02T06:54:39.999Z</time></trkpt><trkpt lat="41.93974978386266" lon="2.879023332679773"><ele>287.0</ele><time>2026-05-02T06:54:41.999Z</time></trkpt><trkpt lat="41.939691254072734" lon="2.8789492672353685"><ele>287.0</ele><time>2026-05-02T06:54:42.999Z</time></trkpt><trkpt lat="41.93963004419255" lon="2.8788896307257126"><ele>287.0</ele><time>2026-05-02T06:54:43.999Z</time></trkpt><trkpt lat="41.939545845214504" lon="2.8788572304514126"><ele>287.0</ele><time>2026-05-02T06:54:44.999Z</time></trkpt><trkpt lat="41.939482366753126" lon="2.878823665397544"><ele>287.0</ele><time>2026-05-02T06:54:45.999Z</time></trkpt><trkpt lat="41.93941613547354" lon="2.8787816985845742"><ele>287.0</ele><time>2026-05-02T06:54:46.999Z</time></trkpt><trkpt lat="41.93935308378265" lon="2.878739324526371"><ele>287.0</ele><time>2026-05-02T06:54:47.998Z</time></trkpt><trkpt lat="41.93925775406229" lon="2.878639611685543"><ele>287.0</ele><time>2026-05-02T06:54:49.998Z</time></trkpt><trkpt lat="41.939193930062096" lon="2.878510118060946"><ele>287.0</ele><time>2026-05-02T06:54:51.998Z</time></trkpt><trkpt lat="41.93916563882148" lon="2.878433625187869"><ele>287.0</ele><time>2026-05-02T06:54:52.998Z</time></trkpt><trkpt lat="41.939132909574745" lon="2.878350191030791"><ele>287.0</ele><time>2026-05-02T06:54:53.998Z</time></trkpt><trkpt lat="41.93910161137944" lon="2.8782746054405193"><ele>287.0</ele><time>2026-05-02T06:54:54.998Z</time></trkpt><trkpt lat="41.93904268570396" lon="2.8781374007378475"><ele>287.0</ele><time>2026-05-02T06:54:56.998Z</time></trkpt><trkpt lat="41.939000466495585" lon="2.878061047957303"><ele>287.0</ele><time>2026-05-02T06:54:57.998Z</time></trkpt><trkpt lat="41.93894901066625" lon="2.8779911185400397"><ele>287.0</ele><time>2026-05-02T06:54:58.998Z</time></trkpt><trkpt lat="41.93889052133038" lon="2.8779409215735865"><ele>287.0</ele><time>2026-05-02T06:54:59.998Z</time></trkpt><trkpt lat="41.93881792419557" lon="2.877922063907486"><ele>287.0</ele><time>2026-05-02T06:55:00.998Z</time></trkpt><trkpt lat="41.93875308224041" lon="2.8779236505115056"><ele>287.0</ele><time>2026-05-02T06:55:01.998Z</time></trkpt><trkpt lat="41.938685069633955" lon="2.8779332582476767"><ele>287.0</ele><time>2026-05-02T06:55:02.998Z</time></trkpt><trkpt lat="41.93860758064569" lon="2.8779931608177196"><ele>287.0</ele><time>2026-05-02T06:55:03.998Z</time></trkpt><trkpt lat="41.93847702512666" lon="2.878009946809238"><ele>287.0</ele><time>2026-05-02T06:55:05.998Z</time></trkpt><trkpt lat="41.93834530639764" lon="2.8779830138952986"><ele>287.0</ele><time>2026-05-02T06:55:07.998Z</time></trkpt><trkpt lat="41.93827512580252" lon="2.8779617529991377"><ele>287.0</ele><time>2026-05-02T06:55:09Z</time></trkpt><trkpt lat="41.93820407710783" lon="2.877936182168926"><ele>287.0</ele><time>2026-05-02T06:55:10Z</time></trkpt><trkpt lat="41.93814225233025" lon="2.877911700055161"><ele>285.5</ele><time>2026-05-02T06:55:11Z</time></trkpt><trkpt lat="41.93808262850644" lon="2.877883117971526"><ele>284.0</ele><time>2026-05-02T06:55:12Z</time></trkpt><trkpt lat="41.938025339102026" lon="2.8778418680408917"><ele>282.5</ele><time>2026-05-02T06:55:13Z</time></trkpt><trkpt lat="41.93797022948207" lon="2.8777865590838743"><ele>281.0</ele><time>2026-05-02T06:55:14Z</time></trkpt><trkpt lat="41.93791584730852" lon="2.877720536568461"><ele>279.5</ele><time>2026-05-02T06:55:15Z</time></trkpt><trkpt lat="41.93782276919975" lon="2.87765422256584"><ele>278.0</ele><time>2026-05-02T06:55:17Z</time></trkpt><trkpt lat="41.93778229412979" lon="2.8775606654089456"><ele>278.0</ele><time>2026-05-02T06:55:19Z</time></trkpt><trkpt lat="41.93776559580079" lon="2.8774534492459667"><ele>278.0</ele><time>2026-05-02T06:55:21Z</time></trkpt><trkpt lat="41.93775625971568" lon="2.8773536428638593"><ele>278.0</ele><time>2026-05-02T06:55:23Z</time></trkpt><trkpt lat="41.93773940005877" lon="2.8772291620699297"><ele>278.0</ele><time>2026-05-02T06:55:26Z</time></trkpt><trkpt lat="41.93772427462701" lon="2.8771468735968937"><ele>278.0</ele><time>2026-05-02T06:55:28Z</time></trkpt><trkpt lat="41.937709762834125" lon="2.877063517823185"><ele>278.0</ele><time>2026-05-02T06:55:29.999Z</time></trkpt><trkpt lat="41.93767017639085" lon="2.876962680034015"><ele>278.0</ele><time>2026-05-02T06:55:32.999Z</time></trkpt><trkpt lat="41.93761610779065" lon="2.8768607040265084"><ele>278.0</ele><time>2026-05-02T06:55:35.999Z</time></trkpt><trkpt lat="41.93757331350641" lon="2.876781256629824"><ele>278.0</ele><time>2026-05-02T06:55:37.999Z</time></trkpt><trkpt lat="41.937521165871104" lon="2.8767114191199976"><ele>278.0</ele><time>2026-05-02T06:55:39.999Z</time></trkpt><trkpt lat="41.93747217960518" lon="2.8766111803199514"><ele>278.0</ele><time>2026-05-02T06:55:41.999Z</time></trkpt><trkpt lat="41.93742467110598" lon="2.8765026932590185"><ele>278.0</ele><time>2026-05-02T06:55:43.999Z</time></trkpt><trkpt lat="41.937372203329495" lon="2.876413667516915"><ele>275.4</ele><time>2026-05-02T06:55:45.999Z</time></trkpt><trkpt lat="41.93728725480519" lon="2.876337202390501"><ele>272.8</ele><time>2026-05-02T06:55:47.999Z</time></trkpt><trkpt lat="41.93721704702577" lon="2.876202202246356"><ele>270.2</ele><time>2026-05-02T06:55:49.999Z</time></trkpt><trkpt lat="41.937147618698376" lon="2.876128718974115"><ele>267.6</ele><time>2026-05-02T06:55:51.999Z</time></trkpt><trkpt lat="41.937105847264114" lon="2.876064507104397"><ele>265.0</ele><time>2026-05-02T06:55:53.999Z</time></trkpt><trkpt lat="41.9370763879738" lon="2.875943047714158"><ele>263.8</ele><time>2026-05-02T06:55:56.999Z</time></trkpt><trkpt lat="41.93705408703205" lon="2.8758383145904043"><ele>262.6</ele><time>2026-05-02T06:55:58.999Z</time></trkpt><trkpt lat="41.93702434991501" lon="2.8757159212595598"><ele>261.4</ele><time>2026-05-02T06:56:00.999Z</time></trkpt><trkpt lat="41.9369444921321" lon="2.87562129493417"><ele>260.2</ele><time>2026-05-02T06:56:02.999Z</time></trkpt><trkpt lat="41.93686087879796" lon="2.875552082032504"><ele>259.0</ele><time>2026-05-02T06:56:04.999Z</time></trkpt><trkpt lat="41.93679099519094" lon="2.875500311549286"><ele>259.0</ele><time>2026-05-02T06:56:06.999Z</time></trkpt><trkpt lat="41.93672573105716" lon="2.8754278656551913"><ele>259.0</ele><time>2026-05-02T06:56:08.999Z</time></trkpt><trkpt lat="41.936715378093524" lon="2.8753068983281858"><ele>259.0</ele><time>2026-05-02T06:56:10.999Z</time></trkpt><trkpt lat="41.93671166549452" lon="2.875193870687789"><ele>259.0</ele><time>2026-05-02T06:56:12.999Z</time></trkpt><trkpt lat="41.93673685769596" lon="2.875105962367154"><ele>259.0</ele><time>2026-05-02T06:56:15.999Z</time></trkpt><trkpt lat="41.93673079728006" lon="2.8750003539243636"><ele>259.0</ele><time>2026-05-02T06:56:38.999Z</time></trkpt><trkpt lat="41.93672211951291" lon="2.874875555080865"><ele>257.8333333333333</ele><time>2026-05-02T06:56:42.999Z</time></trkpt><trkpt lat="41.93666894012964" lon="2.874789021163844"><ele>256.66666666666663</ele><time>2026-05-02T06:56:44.999Z</time></trkpt><trkpt lat="41.9365922936423" lon="2.874734358215694"><ele>255.5</ele><time>2026-05-02T06:56:47.999Z</time></trkpt><trkpt lat="41.936515830290475" lon="2.874720918007685"><ele>254.33333333333331</ele><time>2026-05-02T06:56:50.999Z</time></trkpt><trkpt lat="41.936445527873566" lon="2.8746806397172646"><ele>253.16666666666666</ele><time>2026-05-02T06:56:53.998Z</time></trkpt><trkpt lat="41.936359118214455" lon="2.874662777465639"><ele>252.0</ele><time>2026-05-02T06:56:56.998Z</time></trkpt><trkpt lat="41.93627538548938" lon="2.874685736651859"><ele>252.0</ele><time>2026-05-02T06:56:59.998Z</time></trkpt><trkpt lat="41.93620598055965" lon="2.8747042582385585"><ele>252.0</ele><time>2026-05-02T06:57:01.998Z</time></trkpt><trkpt lat="41.93613001913971" lon="2.874701779777808"><ele>252.0</ele><time>2026-05-02T06:57:03.998Z</time></trkpt><trkpt lat="41.93603656609022" lon="2.8746972925181886"><ele>252.0</ele><time>2026-05-02T06:57:05.998Z</time></trkpt><trkpt lat="41.9359243399917" lon="2.874694881291566"><ele>252.0</ele><time>2026-05-02T06:57:07.998Z</time></trkpt><trkpt lat="41.935870110035374" lon="2.874594602206713"><ele>252.0</ele><time>2026-05-02T06:57:08.998Z</time></trkpt><trkpt lat="41.93574696068562" lon="2.8745627018270286"><ele>250.39999999999998</ele><time>2026-05-02T06:57:10.998Z</time></trkpt><trkpt lat="41.935682056901214" lon="2.8745506951965933"><ele>248.79999999999998</ele><time>2026-05-02T06:57:11.998Z</time></trkpt><trkpt lat="41.93556932356019" lon="2.874533639295974"><ele>247.2</ele><time>2026-05-02T06:57:13.998Z</time></trkpt><trkpt lat="41.935464861175" lon="2.874523453108301"><ele>245.6</ele><time>2026-05-02T06:57:16Z</time></trkpt><trkpt lat="41.935359104615536" lon="2.874533812577516"><ele>244.0</ele><time>2026-05-02T06:57:18Z</time></trkpt><trkpt lat="41.9352440590757" lon="2.87456989794749"><ele>243.99999999999997</ele><time>2026-05-02T06:57:20Z</time></trkpt><trkpt lat="41.935178366565665" lon="2.8745976661394184"><ele>244.0</ele><time>2026-05-02T06:57:21Z</time></trkpt><trkpt lat="41.935103513980835" lon="2.874635987545343"><ele>243.99999999999997</ele><time>2026-05-02T06:57:22Z</time></trkpt><trkpt lat="41.935039805987415" lon="2.874668603535247"><ele>243.99999999999997</ele><time>2026-05-02T06:57:23Z</time></trkpt><trkpt lat="41.93497635472775" lon="2.8746905025803606"><ele>244.0</ele><time>2026-05-02T06:57:24Z</time></trkpt><trkpt lat="41.93490513221698" lon="2.8747085102332086"><ele>243.99999999999997</ele><time>2026-05-02T06:57:25Z</time></trkpt><trkpt lat="41.934831653810775" lon="2.874703322629496"><ele>243.99999999999997</ele><time>2026-05-02T06:57:26Z</time></trkpt><trkpt lat="41.93475540318303" lon="2.874689955247338"><ele>242.33333333333331</ele><time>2026-05-02T06:57:27Z</time></trkpt><trkpt lat="41.93468373277217" lon="2.8746683040498873"><ele>240.66666666666666</ele><time>2026-05-02T06:57:28Z</time></trkpt><trkpt lat="41.93460617136449" lon="2.8746446839498145"><ele>239.0</ele><time>2026-05-02T06:57:29Z</time></trkpt><trkpt lat="41.9345293244543" lon="2.874618759184158"><ele>237.33333333333331</ele><time>2026-05-02T06:57:30Z</time></trkpt><trkpt lat="41.93445167187351" lon="2.8745900164906653"><ele>235.66666666666666</ele><time>2026-05-02T06:57:31Z</time></trkpt><trkpt lat="41.93437643023828" lon="2.8745580340552817"><ele>234.0</ele><time>2026-05-02T06:57:32Z</time></trkpt><trkpt lat="41.9342957881351" lon="2.8745235911485754"><ele>233.71428571428572</ele><time>2026-05-02T06:57:33Z</time></trkpt><trkpt lat="41.934218591379995" lon="2.874506648047953"><ele>233.42857142857144</ele><time>2026-05-02T06:57:34Z</time></trkpt><trkpt lat="41.93414259242398" lon="2.874500169338205"><ele>233.14285714285717</ele><time>2026-05-02T06:57:35Z</time></trkpt><trkpt lat="41.93406484051522" lon="2.874507632241451"><ele>232.8571428571429</ele><time>2026-05-02T06:57:36Z</time></trkpt><trkpt lat="41.93399953351206" lon="2.874514560984145"><ele>232.57142857142858</ele><time>2026-05-02T06:57:37Z</time></trkpt><trkpt lat="41.933937619105635" lon="2.874544547031176"><ele>232.28571428571433</ele><time>2026-05-02T06:57:38Z</time></trkpt><trkpt lat="41.93387936336153" lon="2.874590168510924"><ele>232.00000000000003</ele><time>2026-05-02T06:57:39Z</time></trkpt><trkpt lat="41.93382614001425" lon="2.8746525008384336"><ele>232.0</ele><time>2026-05-02T06:57:39.999Z</time></trkpt><trkpt lat="41.93372756280084" lon="2.8747300273010077"><ele>232.0</ele><time>2026-05-02T06:57:41.999Z</time></trkpt><trkpt lat="41.933633194215375" lon="2.874713689532701"><ele>232.0</ele><time>2026-05-02T06:57:43.999Z</time></trkpt><trkpt lat="41.933521440711665" lon="2.8746850102163526"><ele>232.0</ele><time>2026-05-02T06:57:45.999Z</time></trkpt><trkpt lat="41.93340218582233" lon="2.8746526788953712"><ele>232.0</ele><time>2026-05-02T06:57:47.999Z</time></trkpt><trkpt lat="41.93328048164897" lon="2.8746255200644386"><ele>232.83333333333331</ele><time>2026-05-02T06:57:49.999Z</time></trkpt><trkpt lat="41.93321746813296" lon="2.874616962558246"><ele>233.66666666666666</ele><time>2026-05-02T06:57:50.999Z</time></trkpt><trkpt lat="41.93315323127716" lon="2.8746107738401627"><ele>234.5</ele><time>2026-05-02T06:57:51.999Z</time></trkpt><trkpt lat="41.93308740574035" lon="2.8746065947454573"><ele>235.33333333333331</ele><time>2026-05-02T06:57:52.999Z</time></trkpt><trkpt lat="41.93301690226969" lon="2.8746076706869377"><ele>236.16666666666666</ele><time>2026-05-02T06:57:53.999Z</time></trkpt><trkpt lat="41.93289363221834" lon="2.874608774368352"><ele>237.0</ele><time>2026-05-02T06:57:55.999Z</time></trkpt><trkpt lat="41.932776605942166" lon="2.8745644501694128"><ele>236.99999999999997</ele><time>2026-05-02T06:57:57.999Z</time></trkpt><trkpt lat="41.93271500274723" lon="2.8745373744249494"><ele>237.0</ele><time>2026-05-02T06:57:58.999Z</time></trkpt><trkpt lat="41.93265308353863" lon="2.8745101598012996"><ele>236.99999999999997</ele><time>2026-05-02T06:57:59.999Z</time></trkpt><trkpt lat="41.93258344964957" lon="2.8745080993668686"><ele>236.99999999999997</ele><time>2026-05-02T06:58:00.999Z</time></trkpt><trkpt lat="41.932518129802645" lon="2.8744964600977703"><ele>237.0</ele><time>2026-05-02T06:58:01.999Z</time></trkpt><trkpt lat="41.932453215313885" lon="2.8745006090473466"><ele>236.99999999999997</ele><time>2026-05-02T06:58:02.999Z</time></trkpt><trkpt lat="41.93238809314273" lon="2.8745135106244404"><ele>236.99999999999997</ele><time>2026-05-02T06:58:03.999Z</time></trkpt><trkpt lat="41.93232463589959" lon="2.8745336695382147"><ele>236.83333333333334</ele><time>2026-05-02T06:58:04.999Z</time></trkpt><trkpt lat="41.93226402729391" lon="2.8745581689210358"><ele>236.66666666666669</ele><time>2026-05-02T06:58:05.999Z</time></trkpt><trkpt lat="41.932197357053624" lon="2.8745559778202323"><ele>236.5</ele><time>2026-05-02T06:58:06.999Z</time></trkpt><trkpt lat="41.93208298563593" lon="2.8745900543157217"><ele>236.33333333333334</ele><time>2026-05-02T06:58:08.999Z</time></trkpt><trkpt lat="41.93196786695279" lon="2.874621655657516"><ele>236.16666666666669</ele><time>2026-05-02T06:58:10.999Z</time></trkpt><trkpt lat="41.93190428546227" lon="2.8746351360118907"><ele>236.0</ele><time>2026-05-02T06:58:11.999Z</time></trkpt><trkpt lat="41.931790282809054" lon="2.8746209885423344"><ele>235.50000000000003</ele><time>2026-05-02T06:58:13.999Z</time></trkpt><trkpt lat="41.93171624414241" lon="2.874557283033728"><ele>235.0</ele><time>2026-05-02T06:58:15.999Z</time></trkpt><trkpt lat="41.93166478988464" lon="2.8744318450151845"><ele>234.5</ele><time>2026-05-02T06:58:17.999Z</time></trkpt><trkpt lat="41.93164911206071" lon="2.87434852389423"><ele>234.0</ele><time>2026-05-02T06:58:18.999Z</time></trkpt><trkpt lat="41.93163037370229" lon="2.874263920401832"><ele>233.50000000000003</ele><time>2026-05-02T06:58:19.999Z</time></trkpt><trkpt lat="41.93160609644749" lon="2.8741737346515177"><ele>233.0</ele><time>2026-05-02T06:58:20.999Z</time></trkpt><trkpt lat="41.931571780200805" lon="2.874085137435058"><ele>233.00000000000003</ele><time>2026-05-02T06:58:21.999Z</time></trkpt><trkpt lat="41.93153099303725" lon="2.874004555293415"><ele>233.0</ele><time>2026-05-02T06:58:22.999Z</time></trkpt><trkpt lat="41.93148525176388" lon="2.8739254875104705"><ele>233.0</ele><time>2026-05-02T06:58:23.999Z</time></trkpt><trkpt lat="41.93143761742806" lon="2.873849369308894"><ele>233.0</ele><time>2026-05-02T06:58:24.999Z</time></trkpt><trkpt lat="41.931388860730635" lon="2.873778659465005"><ele>233.00000000000003</ele><time>2026-05-02T06:58:25.999Z</time></trkpt><trkpt lat="41.93129823609032" lon="2.8736905247748457"><ele>233.0</ele><time>2026-05-02T06:58:27.999Z</time></trkpt><trkpt lat="41.93121684890595" lon="2.873617024849852"><ele>233.0</ele><time>2026-05-02T06:58:29.999Z</time></trkpt><trkpt lat="41.931142078592195" lon="2.8735538166227332"><ele>233.0</ele><time>2026-05-02T06:58:31.999Z</time></trkpt><trkpt lat="41.93108795092919" lon="2.873470409117218"><ele>233.0</ele><time>2026-05-02T06:58:33.999Z</time></trkpt><trkpt lat="41.931041452916396" lon="2.8733698412170328"><ele>233.0</ele><time>2026-05-02T06:58:35.999Z</time></trkpt><trkpt lat="41.93099656866051" lon="2.8732433747629083"><ele>233.0</ele><time>2026-05-02T06:58:37.999Z</time></trkpt><trkpt lat="41.93098861384542" lon="2.87310625747207"><ele>231.25</ele><time>2026-05-02T06:58:39.999Z</time></trkpt><trkpt lat="41.930956569487556" lon="2.8729711028058724"><ele>229.5</ele><time>2026-05-02T06:58:41.999Z</time></trkpt><trkpt lat="41.930898702629" lon="2.872829899895664"><ele>227.75</ele><time>2026-05-02T06:58:43.999Z</time></trkpt><trkpt lat="41.9308530711743" lon="2.8726811884328787"><ele>226.0</ele><time>2026-05-02T06:58:45.999Z</time></trkpt><trkpt lat="41.93083152700011" lon="2.8725192797123054"><ele>224.85714285714286</ele><time>2026-05-02T06:58:47.999Z</time></trkpt><trkpt lat="41.9308391335596" lon="2.87243203640496"><ele>223.7142857142857</ele><time>2026-05-02T06:58:48.999Z</time></trkpt><trkpt lat="41.93082488976766" lon="2.872342451877287"><ele>222.57142857142856</ele><time>2026-05-02T06:58:49.999Z</time></trkpt><trkpt lat="41.93080693526795" lon="2.8722552058693918"><ele>221.42857142857144</ele><time>2026-05-02T06:58:50.999Z</time></trkpt><trkpt lat="41.93078164667584" lon="2.872163514246096"><ele>220.28571428571428</ele><time>2026-05-02T06:58:51.999Z</time></trkpt><trkpt lat="41.930754471693724" lon="2.8720747028170694"><ele>219.14285714285714</ele><time>2026-05-02T06:58:52.999Z</time></trkpt><trkpt lat="41.93072895553169" lon="2.871991312497056"><ele>218.0</ele><time>2026-05-02T06:58:53.999Z</time></trkpt><trkpt lat="41.93070240015897" lon="2.8719045259743163"><ele>218.0</ele><time>2026-05-02T06:58:54.999Z</time></trkpt><trkpt lat="41.93067556710888" lon="2.8718168321335216"><ele>218.0</ele><time>2026-05-02T06:58:55.999Z</time></trkpt><trkpt lat="41.93064586596322" lon="2.8717244941236415"><ele>218.0</ele><time>2026-05-02T06:58:56.999Z</time></trkpt><trkpt lat="41.93060383090029" lon="2.871647595330161"><ele>218.0</ele><time>2026-05-02T06:58:57.999Z</time></trkpt><trkpt lat="41.930570541966375" lon="2.8715681267444304"><ele>218.0</ele><time>2026-05-02T06:58:58.999Z</time></trkpt><trkpt lat="41.9305308925538" lon="2.871492729605391"><ele>218.0</ele><time>2026-05-02T06:58:59.999Z</time></trkpt><trkpt lat="41.930482695212845" lon="2.87141671755324"><ele>218.0</ele><time>2026-05-02T06:59:00.999Z</time></trkpt><trkpt lat="41.93043252218571" lon="2.8713373012711076"><ele>217.33333333333334</ele><time>2026-05-02T06:59:01.999Z</time></trkpt><trkpt lat="41.930364796200685" lon="2.871262324616907"><ele>216.66666666666669</ele><time>2026-05-02T06:59:02.999Z</time></trkpt><trkpt lat="41.93030266822963" lon="2.871194013002855"><ele>216.0</ele><time>2026-05-02T06:59:03.999Z</time></trkpt><trkpt lat="41.93025656949009" lon="2.8711094082590094"><ele>215.33333333333331</ele><time>2026-05-02T06:59:04.999Z</time></trkpt><trkpt lat="41.93020276611747" lon="2.871043086624259"><ele>214.66666666666666</ele><time>2026-05-02T06:59:05.999Z</time></trkpt><trkpt lat="41.93014477000659" lon="2.8709954326799423"><ele>214.0</ele><time>2026-05-02T06:59:06.999Z</time></trkpt><trkpt lat="41.93005448293328" lon="2.870897444239935"><ele>213.16666666666666</ele><time>2026-05-02T06:59:08.998Z</time></trkpt><trkpt lat="41.92993574535236" lon="2.8708754394761"><ele>212.33333333333331</ele><time>2026-05-02T06:59:10.998Z</time></trkpt><trkpt lat="41.929868709359816" lon="2.8708930947715445"><ele>211.5</ele><time>2026-05-02T06:59:11.998Z</time></trkpt><trkpt lat="41.929799222934456" lon="2.8709257933011854"><ele>210.66666666666669</ele><time>2026-05-02T06:59:12.998Z</time></trkpt><trkpt lat="41.92973933278349" lon="2.8709799144836365"><ele>209.83333333333334</ele><time>2026-05-02T06:59:13.998Z</time></trkpt><trkpt lat="41.9296825055751" lon="2.8710387179772527"><ele>209.0</ele><time>2026-05-02T06:59:14.998Z</time></trkpt><trkpt lat="41.92961920066887" lon="2.8710729086630797"><ele>209.00000000000003</ele><time>2026-05-02T06:59:15.998Z</time></trkpt><trkpt lat="41.929518947844684" lon="2.871136627090406"><ele>209.0</ele><time>2026-05-02T06:59:17.998Z</time></trkpt><trkpt lat="41.92940683962985" lon="2.8711344129200906"><ele>209.0</ele><time>2026-05-02T06:59:20Z</time></trkpt><trkpt lat="41.92934315033564" lon="2.8711174696761783"><ele>209.0</ele><time>2026-05-02T06:59:21Z</time></trkpt><trkpt lat="41.9292749987585" lon="2.8711167133658697"><ele>209.00000000000003</ele><time>2026-05-02T06:59:22Z</time></trkpt><trkpt lat="41.92920578364802" lon="2.8710988155625725"><ele>209.0</ele><time>2026-05-02T06:59:23Z</time></trkpt><trkpt lat="41.92914066291353" lon="2.8710556472733875"><ele>207.71428571428572</ele><time>2026-05-02T06:59:24Z</time></trkpt><trkpt lat="41.929073779310166" lon="2.871029106960014"><ele>206.42857142857142</ele><time>2026-05-02T06:59:25Z</time></trkpt><trkpt lat="41.929004925614294" lon="2.8710036337888134"><ele>205.14285714285717</ele><time>2026-05-02T06:59:26Z</time></trkpt><trkpt lat="41.92893573844183" lon="2.8709799796059703"><ele>203.85714285714286</ele><time>2026-05-02T06:59:27Z</time></trkpt><trkpt lat="41.92886648303079" lon="2.87095970001748"><ele>202.57142857142858</ele><time>2026-05-02T06:59:28Z</time></trkpt><trkpt lat="41.92879353348152" lon="2.87094958951017"><ele>201.2857142857143</ele><time>2026-05-02T06:59:29Z</time></trkpt><trkpt lat="41.928718416115245" lon="2.8709515929353993"><ele>200.0</ele><time>2026-05-02T06:59:30Z</time></trkpt><trkpt lat="41.92863712656044" lon="2.8709569321753454"><ele>200.00000000000003</ele><time>2026-05-02T06:59:31Z</time></trkpt><trkpt lat="41.928559977991576" lon="2.870959247522245"><ele>200.0</ele><time>2026-05-02T06:59:32Z</time></trkpt><trkpt lat="41.92847505590541" lon="2.8709425195135796"><ele>200.0</ele><time>2026-05-02T06:59:33Z</time></trkpt><trkpt lat="41.92839043010589" lon="2.8708960904860974"><ele>200.0</ele><time>2026-05-02T06:59:34Z</time></trkpt><trkpt lat="41.92829679975841" lon="2.8708531610117975"><ele>200.00000000000003</ele><time>2026-05-02T06:59:35Z</time></trkpt><trkpt lat="41.92820717027346" lon="2.87081857500817"><ele>200.0</ele><time>2026-05-02T06:59:36Z</time></trkpt><trkpt lat="41.92811527369873" lon="2.870784069265244"><ele>200.6</ele><time>2026-05-02T06:59:37Z</time></trkpt><trkpt lat="41.92801831188873" lon="2.870748523639347"><ele>201.2</ele><time>2026-05-02T06:59:38Z</time></trkpt><trkpt lat="41.927930427563744" lon="2.870716415053564"><ele>201.8</ele><time>2026-05-02T06:59:39Z</time></trkpt><trkpt lat="41.927842702670695" lon="2.870686919869098"><ele>202.4</ele><time>2026-05-02T06:59:40Z</time></trkpt><trkpt lat="41.92775693025646" lon="2.870662698407295"><ele>203.0</ele><time>2026-05-02T06:59:41Z</time></trkpt><trkpt lat="41.92767220065757" lon="2.870653440921105"><ele>203.00000000000003</ele><time>2026-05-02T06:59:42Z</time></trkpt><trkpt lat="41.92758875189589" lon="2.8706584406376496"><ele>203.0</ele><time>2026-05-02T06:59:43Z</time></trkpt><trkpt lat="41.927516068449165" lon="2.870670426170455"><ele>203.0</ele><time>2026-05-02T06:59:44Z</time></trkpt><trkpt lat="41.92745267923588" lon="2.8706713813444393"><ele>203.0</ele><time>2026-05-02T06:59:45Z</time></trkpt><trkpt lat="41.92735522767791" lon="2.87061976644538"><ele>203.00000000000003</ele><time>2026-05-02T06:59:46.999Z</time></trkpt><trkpt lat="41.92730319423753" lon="2.87056388681893"><ele>203.0</ele><time>2026-05-02T06:59:47.999Z</time></trkpt><trkpt lat="41.927243734068306" lon="2.8704983032956637"><ele>203.00000000000003</ele><time>2026-05-02T06:59:48.999Z</time></trkpt><trkpt lat="41.927191548654484" lon="2.8704285378866126"><ele>203.0</ele><time>2026-05-02T06:59:49.999Z</time></trkpt><trkpt lat="41.92713922579748" lon="2.870357395322678"><ele>203.0</ele><time>2026-05-02T06:59:50.999Z</time></trkpt><trkpt lat="41.92709201508092" lon="2.870286533911066"><ele>203.0</ele><time>2026-05-02T06:59:51.999Z</time></trkpt><trkpt lat="41.92704720252573" lon="2.8702195250931597"><ele>203.00000000000003</ele><time>2026-05-02T06:59:52.999Z</time></trkpt><trkpt lat="41.92696438310673" lon="2.8701291119664587"><ele>203.0</ele><time>2026-05-02T06:59:54.999Z</time></trkpt><trkpt lat="41.9269015233365" lon="2.870064636096142"><ele>203.00000000000003</ele><time>2026-05-02T06:59:57.999Z</time></trkpt><trkpt lat="41.92682012660256" lon="2.87020683424356"><ele>203.0</ele><time>2026-05-02T07:00:01.999Z</time></trkpt><trkpt lat="41.9268161156247" lon="2.870314908883481"><ele>203.0</ele><time>2026-05-02T07:00:04.999Z</time></trkpt><trkpt lat="41.926819164482566" lon="2.8704023308416207"><ele>203.0</ele><time>2026-05-02T07:00:06.999Z</time></trkpt><trkpt lat="41.92680738801754" lon="2.870495533588515"><ele>203.00000000000003</ele><time>2026-05-02T07:00:08.999Z</time></trkpt><trkpt lat="41.92679549587699" lon="2.870580777415299"><ele>203.0</ele><time>2026-05-02T07:00:10.999Z</time></trkpt><trkpt lat="41.9267775089559" lon="2.8706762006572606"><ele>203.00000000000003</ele><time>2026-05-02T07:00:12.999Z</time></trkpt><trkpt lat="41.9267517764484" lon="2.870758291922324"><ele>203.0</ele><time>2026-05-02T07:00:14.999Z</time></trkpt><trkpt lat="41.92672158353083" lon="2.870857221939806"><ele>203.0</ele><time>2026-05-02T07:00:16.999Z</time></trkpt><trkpt lat="41.92667743347174" lon="2.8709421746128907"><ele>203.0</ele><time>2026-05-02T07:00:18.999Z</time></trkpt><trkpt lat="41.92660067089482" lon="2.8709901256158616"><ele>203.00000000000003</ele><time>2026-05-02T07:00:20.999Z</time></trkpt><trkpt lat="41.92649704703856" lon="2.8709926488812707"><ele>203.0</ele><time>2026-05-02T07:00:22.999Z</time></trkpt><trkpt lat="41.92640247284449" lon="2.870971888343147"><ele>203.2</ele><time>2026-05-02T07:00:24.999Z</time></trkpt><trkpt lat="41.926295356389126" lon="2.8709402557550896"><ele>203.4</ele><time>2026-05-02T07:00:26.999Z</time></trkpt><trkpt lat="41.92624983745674" lon="2.8708747093379814"><ele>203.6</ele><time>2026-05-02T07:00:27.999Z</time></trkpt><trkpt lat="41.92615328569245" lon="2.8708405641274584"><ele>203.79999999999998</ele><time>2026-05-02T07:00:29.999Z</time></trkpt><trkpt lat="41.92605034531979" lon="2.8707825987891393"><ele>204.0</ele><time>2026-05-02T07:00:31.999Z</time></trkpt><trkpt lat="41.925995772522555" lon="2.870738883742091"><ele>204.0</ele><time>2026-05-02T07:00:32.999Z</time></trkpt><trkpt lat="41.92589942404829" lon="2.870638935639981"><ele>204.0</ele><time>2026-05-02T07:00:34.999Z</time></trkpt><trkpt lat="41.92578446955811" lon="2.8705582089431916"><ele>204.0</ele><time>2026-05-02T07:00:36.999Z</time></trkpt><trkpt lat="41.92571969617089" lon="2.870539149100549"><ele>204.0</ele><time>2026-05-02T07:00:37.999Z</time></trkpt><trkpt lat="41.925606543387765" lon="2.870539234786368"><ele>204.0</ele><time>2026-05-02T07:00:39.999Z</time></trkpt><trkpt lat="41.92550461648599" lon="2.870543079242228"><ele>202.83333333333334</ele><time>2026-05-02T07:00:41.999Z</time></trkpt><trkpt lat="41.92540675312641" lon="2.870582070672031"><ele>201.66666666666669</ele><time>2026-05-02T07:00:43.999Z</time></trkpt><trkpt lat="41.925329479634776" lon="2.8706088728180688"><ele>200.5</ele><time>2026-05-02T07:00:45.999Z</time></trkpt><trkpt lat="41.92524278239572" lon="2.8706104925443183"><ele>199.33333333333334</ele><time>2026-05-02T07:00:47.999Z</time></trkpt><trkpt lat="41.92517713464457" lon="2.870600173518596"><ele>198.16666666666669</ele><time>2026-05-02T07:00:48.999Z</time></trkpt><trkpt lat="41.92506463469165" lon="2.8705780550246596"><ele>197.0</ele><time>2026-05-02T07:00:50.999Z</time></trkpt><trkpt lat="41.924953028885895" lon="2.8705590757536825"><ele>193.8</ele><time>2026-05-02T07:00:52.999Z</time></trkpt><trkpt lat="41.92487035959468" lon="2.8705339336344053"><ele>190.6</ele><time>2026-05-02T07:00:54.999Z</time></trkpt><trkpt lat="41.92478662831897" lon="2.870451866974404"><ele>187.4</ele><time>2026-05-02T07:00:56.999Z</time></trkpt><trkpt lat="41.92469634958328" lon="2.8703223724299223"><ele>184.20000000000002</ele><time>2026-05-02T07:00:58.999Z</time></trkpt><trkpt lat="41.924652212459634" lon="2.8702538793335077"><ele>181.0</ele><time>2026-05-02T07:00:59.999Z</time></trkpt><trkpt lat="41.9246084682723" lon="2.8701763816726826"><ele>181.33333333333334</ele><time>2026-05-02T07:01:00.999Z</time></trkpt><trkpt lat="41.92455951978074" lon="2.870101347927429"><ele>181.66666666666669</ele><time>2026-05-02T07:01:01.999Z</time></trkpt><trkpt lat="41.9244967143289" lon="2.8700308183906578"><ele>182.0</ele><time>2026-05-02T07:01:02.999Z</time></trkpt><trkpt lat="41.92443790101197" lon="2.8699644247806906"><ele>182.33333333333334</ele><time>2026-05-02T07:01:03.999Z</time></trkpt><trkpt lat="41.924379275117566" lon="2.869892856026603"><ele>182.66666666666666</ele><time>2026-05-02T07:01:04.999Z</time></trkpt><trkpt lat="41.92432712680466" lon="2.8698236736175895"><ele>183.0</ele><time>2026-05-02T07:01:05.999Z</time></trkpt><trkpt lat="41.92428523145004" lon="2.869755492176145"><ele>183.0</ele><time>2026-05-02T07:01:06.999Z</time></trkpt><trkpt lat="41.924241765741705" lon="2.8696844258322054"><ele>183.0</ele><time>2026-05-02T07:01:07.999Z</time></trkpt><trkpt lat="41.92419470055906" lon="2.8696100503768065"><ele>183.0</ele><time>2026-05-02T07:01:08.999Z</time></trkpt><trkpt lat="41.92414216352367" lon="2.8695319386997213"><ele>183.0</ele><time>2026-05-02T07:01:09.999Z</time></trkpt><trkpt lat="41.924086274789836" lon="2.8694522050648503"><ele>183.0</ele><time>2026-05-02T07:01:10.999Z</time></trkpt><trkpt lat="41.92403453812834" lon="2.8693721096038036"><ele>183.0</ele><time>2026-05-02T07:01:11.999Z</time></trkpt><trkpt lat="41.92398544299162" lon="2.8692903354643424"><ele>181.83333333333334</ele><time>2026-05-02T07:01:12.999Z</time></trkpt><trkpt lat="41.92394258214452" lon="2.869216805580574"><ele>180.66666666666666</ele><time>2026-05-02T07:01:13.998Z</time></trkpt><trkpt lat="41.92388484774136" lon="2.869078587984883"><ele>179.5</ele><time>2026-05-02T07:01:15.998Z</time></trkpt><trkpt lat="41.92384937117401" lon="2.8689920840072856"><ele>178.33333333333331</ele><time>2026-05-02T07:01:16.998Z</time></trkpt><trkpt lat="41.92381429119783" lon="2.8689102971278695"><ele>177.16666666666666</ele><time>2026-05-02T07:01:17.998Z</time></trkpt><trkpt lat="41.92377317009505" lon="2.868816472621918"><ele>176.0</ele><time>2026-05-02T07:01:18.998Z</time></trkpt><trkpt lat="41.92372605256533" lon="2.868727600956638"><ele>176.0</ele><time>2026-05-02T07:01:19.998Z</time></trkpt><trkpt lat="41.92367336204407" lon="2.8686469145484894"><ele>176.0</ele><time>2026-05-02T07:01:20.998Z</time></trkpt><trkpt lat="41.92360476419611" lon="2.8685873037457332"><ele>176.0</ele><time>2026-05-02T07:01:21.998Z</time></trkpt><trkpt lat="41.92354458102502" lon="2.868546830764092"><ele>176.0</ele><time>2026-05-02T07:01:22.998Z</time></trkpt><trkpt lat="41.92344319323916" lon="2.8684802355843364"><ele>176.0</ele><time>2026-05-02T07:01:24.998Z</time></trkpt><trkpt lat="41.923337833231315" lon="2.8684173984902244"><ele>175.0</ele><time>2026-05-02T07:01:27Z</time></trkpt><trkpt lat="41.92323808140334" lon="2.868347841356221"><ele>174.0</ele><time>2026-05-02T07:01:29Z</time></trkpt><trkpt lat="41.92318009771956" lon="2.8682505700400323"><ele>173.0</ele><time>2026-05-02T07:01:31Z</time></trkpt><trkpt lat="41.92311834689107" lon="2.8681370123249725"><ele>172.0</ele><time>2026-05-02T07:01:33Z</time></trkpt><trkpt lat="41.92303644691912" lon="2.868048931308506"><ele>171.0</ele><time>2026-05-02T07:01:35Z</time></trkpt><trkpt lat="41.92292236524943" lon="2.8680615463363894"><ele>171.0</ele><time>2026-05-02T07:01:37Z</time></trkpt><trkpt lat="41.922837785022594" lon="2.8681174033873114"><ele>171.0</ele><time>2026-05-02T07:01:39Z</time></trkpt><trkpt lat="41.922745741240675" lon="2.868158761741639"><ele>171.0</ele><time>2026-05-02T07:01:41Z</time></trkpt><trkpt lat="41.9226428352066" lon="2.8681806798701306"><ele>171.0</ele><time>2026-05-02T07:01:43Z</time></trkpt><trkpt lat="41.922559477719496" lon="2.8681668604095596"><ele>171.0</ele><time>2026-05-02T07:01:45Z</time></trkpt><trkpt lat="41.92248833956892" lon="2.8681459206910587"><ele>170.83333333333334</ele><time>2026-05-02T07:01:47Z</time></trkpt><trkpt lat="41.92242562137889" lon="2.8681214556290007"><ele>170.66666666666666</ele><time>2026-05-02T07:01:49Z</time></trkpt><trkpt lat="41.92234205426075" lon="2.868085195962189"><ele>170.5</ele><time>2026-05-02T07:01:52Z</time></trkpt><trkpt lat="41.922250716991876" lon="2.868043968096073"><ele>170.33333333333331</ele><time>2026-05-02T07:01:54Z</time></trkpt><trkpt lat="41.92213647016258" lon="2.8679993295571133"><ele>170.16666666666666</ele><time>2026-05-02T07:01:56Z</time></trkpt><trkpt lat="41.92207202775921" lon="2.867984499760084"><ele>170.0</ele><time>2026-05-02T07:01:57Z</time></trkpt><trkpt lat="41.92200710141332" lon="2.86797573487108"><ele>170.0</ele><time>2026-05-02T07:01:58Z</time></trkpt><trkpt lat="41.92189324470252" lon="2.8679570879429086"><ele>170.0</ele><time>2026-05-02T07:01:59.999Z</time></trkpt><trkpt lat="41.921771228236025" lon="2.8679230507065125"><ele>170.0</ele><time>2026-05-02T07:02:01.999Z</time></trkpt><trkpt lat="41.92170122698367" lon="2.867897255861739"><ele>170.0</ele><time>2026-05-02T07:02:02.999Z</time></trkpt><trkpt lat="41.92162438391244" lon="2.8678887110890807"><ele>170.0</ele><time>2026-05-02T07:02:03.999Z</time></trkpt><trkpt lat="41.92155616828907" lon="2.867862729551955"><ele>169.85714285714286</ele><time>2026-05-02T07:02:04.999Z</time></trkpt><trkpt lat="41.92149292503641" lon="2.8678174609004556"><ele>169.7142857142857</ele><time>2026-05-02T07:02:05.999Z</time></trkpt><trkpt lat="41.921424329782916" lon="2.8677938976980424"><ele>169.57142857142856</ele><time>2026-05-02T07:02:06.999Z</time></trkpt><trkpt lat="41.9213552092531" lon="2.86777593968279"><ele>169.42857142857144</ele><time>2026-05-02T07:02:07.999Z</time></trkpt><trkpt lat="41.92128297956602" lon="2.8677726908716514"><ele>169.28571428571428</ele><time>2026-05-02T07:02:08.999Z</time></trkpt><trkpt lat="41.92121452207594" lon="2.867783260798258"><ele>169.14285714285714</ele><time>2026-05-02T07:02:09.999Z</time></trkpt><trkpt lat="41.92115041774742" lon="2.867789023701325"><ele>169.0</ele><time>2026-05-02T07:02:10.999Z</time></trkpt><trkpt lat="41.92108169420499" lon="2.8677965440334092"><ele>169.0</ele><time>2026-05-02T07:02:11.999Z</time></trkpt><trkpt lat="41.921014768704104" lon="2.867789711336683"><ele>169.0</ele><time>2026-05-02T07:02:12.999Z</time></trkpt><trkpt lat="41.92095053377969" lon="2.8677540065483242"><ele>169.0</ele><time>2026-05-02T07:02:13.999Z</time></trkpt><trkpt lat="41.920899780608586" lon="2.867699898740994"><ele>169.0</ele><time>2026-05-02T07:02:14.999Z</time></trkpt><trkpt lat="41.920851411593056" lon="2.867643510699869"><ele>169.0</ele><time>2026-05-02T07:02:15.999Z</time></trkpt><trkpt lat="41.92078387182828" lon="2.867572232945799"><ele>169.0</ele><time>2026-05-02T07:02:16.999Z</time></trkpt><trkpt lat="41.92072878925618" lon="2.867509945598472"><ele>169.0</ele><time>2026-05-02T07:02:17.999Z</time></trkpt><trkpt lat="41.920675388059635" lon="2.867438078361386"><ele>168.5</ele><time>2026-05-02T07:02:18.999Z</time></trkpt><trkpt lat="41.920628953465474" lon="2.867354168172003"><ele>168.0</ele><time>2026-05-02T07:02:19.999Z</time></trkpt><trkpt lat="41.920597638315556" lon="2.8672646972238742"><ele>167.5</ele><time>2026-05-02T07:02:20.999Z</time></trkpt><trkpt lat="41.92056272955752" lon="2.8671670324728002"><ele>167.0</ele><time>2026-05-02T07:02:21.999Z</time></trkpt><trkpt lat="41.920515565083456" lon="2.867057346607029"><ele>166.5</ele><time>2026-05-02T07:02:22.999Z</time></trkpt><trkpt lat="41.920455182566904" lon="2.866926299032449"><ele>166.0</ele><time>2026-05-02T07:02:24.999Z</time></trkpt><trkpt lat="41.92041714336585" lon="2.8668382473873084"><ele>166.0</ele><time>2026-05-02T07:02:26.999Z</time></trkpt><trkpt lat="41.92025731442278" lon="2.8669196254444866"><ele>166.0</ele><time>2026-05-02T07:02:28.999Z</time></trkpt><trkpt lat="41.92022244290728" lon="2.8669906065033426"><ele>166.0</ele><time>2026-05-02T07:02:30.999Z</time></trkpt><trkpt lat="41.9201760140558" lon="2.867099427997381"><ele>166.0</ele><time>2026-05-02T07:02:33.999Z</time></trkpt><trkpt lat="41.92015288021934" lon="2.8672157924170425"><ele>166.0</ele><time>2026-05-02T07:02:36.999Z</time></trkpt><trkpt lat="41.92013912398989" lon="2.867339821453316"><ele>166.0</ele><time>2026-05-02T07:02:39.999Z</time></trkpt><trkpt lat="41.920150196026384" lon="2.8674488310380153"><ele>166.0</ele><time>2026-05-02T07:02:41.999Z</time></trkpt><trkpt lat="41.920140242361946" lon="2.867586992188424"><ele>166.0</ele><time>2026-05-02T07:02:43.999Z</time></trkpt><trkpt lat="41.920144748625546" lon="2.867672212675418"><ele>166.0</ele><time>2026-05-02T07:02:44.999Z</time></trkpt><trkpt lat="41.92015430198281" lon="2.8677657665927527"><ele>166.0</ele><time>2026-05-02T07:02:45.999Z</time></trkpt><trkpt lat="41.92017291075923" lon="2.8678654556682206"><ele>166.0</ele><time>2026-05-02T07:02:46.999Z</time></trkpt><trkpt lat="41.92019156603942" lon="2.8679671401434126"><ele>165.66666666666669</ele><time>2026-05-02T07:02:47.999Z</time></trkpt><trkpt lat="41.9202206957619" lon="2.8680733360498833"><ele>165.33333333333334</ele><time>2026-05-02T07:02:48.999Z</time></trkpt><trkpt lat="41.920262644279866" lon="2.8681771685606536"><ele>165.0</ele><time>2026-05-02T07:02:49.999Z</time></trkpt><trkpt lat="41.92031128409557" lon="2.868275308943055"><ele>164.66666666666666</ele><time>2026-05-02T07:02:50.999Z</time></trkpt><trkpt lat="41.92036005838447" lon="2.868380223295893"><ele>164.33333333333331</ele><time>2026-05-02T07:02:51.999Z</time></trkpt><trkpt lat="41.92040688385224" lon="2.8684772198311537"><ele>164.0</ele><time>2026-05-02T07:02:52.999Z</time></trkpt><trkpt lat="41.920439064301036" lon="2.8685701577498137"><ele>161.99999999999997</ele><time>2026-05-02T07:02:53.999Z</time></trkpt><trkpt lat="41.9204641198221" lon="2.868663179151518"><ele>160.0</ele><time>2026-05-02T07:02:54.999Z</time></trkpt><trkpt lat="41.92048176520064" lon="2.868763272492954"><ele>158.0</ele><time>2026-05-02T07:02:55.999Z</time></trkpt><trkpt lat="41.92049242305065" lon="2.868864192571323"><ele>156.0</ele><time>2026-05-02T07:02:56.999Z</time></trkpt><trkpt lat="41.920468047020975" lon="2.868961037461265"><ele>154.0</ele><time>2026-05-02T07:02:57.999Z</time></trkpt><trkpt lat="41.92044212911048" lon="2.8690525558944593"><ele>151.99999999999997</ele><time>2026-05-02T07:02:58.999Z</time></trkpt><trkpt lat="41.9204065616504" lon="2.8691368223289433"><ele>150.0</ele><time>2026-05-02T07:02:59.999Z</time></trkpt><trkpt lat="41.920358975698065" lon="2.869199433219639"><ele>150.0</ele><time>2026-05-02T07:03:00.999Z</time></trkpt><trkpt lat="41.9203055718871" lon="2.8692697460056213"><ele>150.0</ele><time>2026-05-02T07:03:01.999Z</time></trkpt><trkpt lat="41.92024885123407" lon="2.869344633107009"><ele>150.0</ele><time>2026-05-02T07:03:02.999Z</time></trkpt><trkpt lat="41.920182198211926" lon="2.869425372918472"><ele>150.0</ele><time>2026-05-02T07:03:03.999Z</time></trkpt><trkpt lat="41.92012025525702" lon="2.8694842359949426"><ele>150.0</ele><time>2026-05-02T07:03:04.999Z</time></trkpt><trkpt lat="41.92004159207203" lon="2.8695376459025432"><ele>150.0</ele><time>2026-05-02T07:03:05.999Z</time></trkpt><trkpt lat="41.91996947391533" lon="2.869602646862599"><ele>150.0</ele><time>2026-05-02T07:03:06.999Z</time></trkpt><trkpt lat="41.919894196525114" lon="2.8696752222469057"><ele>150.0</ele><time>2026-05-02T07:03:07.999Z</time></trkpt><trkpt lat="41.91982014489594" lon="2.869751020989904"><ele>150.0</ele><time>2026-05-02T07:03:08.999Z</time></trkpt><trkpt lat="41.919745750126246" lon="2.869836588532695"><ele>150.0</ele><time>2026-05-02T07:03:09.999Z</time></trkpt><trkpt lat="41.91967984100261" lon="2.8699411954906093"><ele>150.0</ele><time>2026-05-02T07:03:10.999Z</time></trkpt><trkpt lat="41.91961232715257" lon="2.869997748652678"><ele>150.0</ele><time>2026-05-02T07:03:11.999Z</time></trkpt><trkpt lat="41.91955002923082" lon="2.8700782193122154"><ele>150.0</ele><time>2026-05-02T07:03:12.999Z</time></trkpt><trkpt lat="41.91949140278387" lon="2.8701785567193547"><ele>150.0</ele><time>2026-05-02T07:03:13.999Z</time></trkpt><trkpt lat="41.91943291061574" lon="2.8702803584624177"><ele>150.0</ele><time>2026-05-02T07:03:14.999Z</time></trkpt><trkpt lat="41.91937580344096" lon="2.870381320009825"><ele>150.0</ele><time>2026-05-02T07:03:15.999Z</time></trkpt><trkpt lat="41.91931747618197" lon="2.870482216779564"><ele>148.8</ele><time>2026-05-02T07:03:16.999Z</time></trkpt><trkpt lat="41.91925699785346" lon="2.870583503184938"><ele>147.6</ele><time>2026-05-02T07:03:17.999Z</time></trkpt><trkpt lat="41.919194910712484" lon="2.8706833825660576"><ele>146.4</ele><time>2026-05-02T07:03:18.999Z</time></trkpt><trkpt lat="41.91912469198425" lon="2.870782892507944"><ele>145.2</ele><time>2026-05-02T07:03:19.999Z</time></trkpt><trkpt lat="41.919049245702645" lon="2.8708674125154996"><ele>144.0</ele><time>2026-05-02T07:03:20.999Z</time></trkpt><trkpt lat="41.918969281093105" lon="2.8709480969072647"><ele>143.6</ele><time>2026-05-02T07:03:21.999Z</time></trkpt><trkpt lat="41.91889140867985" lon="2.8710212028740676"><ele>143.2</ele><time>2026-05-02T07:03:22.999Z</time></trkpt><trkpt lat="41.91881189841169" lon="2.8710864356998087"><ele>142.79999999999998</ele><time>2026-05-02T07:03:23.999Z</time></trkpt><trkpt lat="41.91872758032699" lon="2.8711513583186448"><ele>142.4</ele><time>2026-05-02T07:03:24.999Z</time></trkpt><trkpt lat="41.9186446811078" lon="2.871208561237303"><ele>142.0</ele><time>2026-05-02T07:03:25.998Z</time></trkpt><trkpt lat="41.91856157115683" lon="2.871255895088838"><ele>142.0</ele><time>2026-05-02T07:03:26.998Z</time></trkpt><trkpt lat="41.91847706315208" lon="2.871290511313877"><ele>142.0</ele><time>2026-05-02T07:03:27.998Z</time></trkpt><trkpt lat="41.91839800636382" lon="2.87132060418098"><ele>142.0</ele><time>2026-05-02T07:03:28.998Z</time></trkpt><trkpt lat="41.91832699288889" lon="2.871341839949357"><ele>142.0</ele><time>2026-05-02T07:03:29.998Z</time></trkpt><trkpt lat="41.91825599291123" lon="2.871348599473876"><ele>142.0</ele><time>2026-05-02T07:03:30.998Z</time></trkpt><trkpt lat="41.91818114379257" lon="2.87134054006658"><ele>142.0</ele><time>2026-05-02T07:03:32Z</time></trkpt><trkpt lat="41.91811687990012" lon="2.8713130714073696"><ele>142.5</ele><time>2026-05-02T07:03:33Z</time></trkpt><trkpt lat="41.91804074184862" lon="2.8712786359304125"><ele>143.0</ele><time>2026-05-02T07:03:34Z</time></trkpt><trkpt lat="41.917968146541966" lon="2.8712368056340094"><ele>143.5</ele><time>2026-05-02T07:03:35Z</time></trkpt><trkpt lat="41.91789062005924" lon="2.871186153735952"><ele>144.0</ele><time>2026-05-02T07:03:36Z</time></trkpt><trkpt lat="41.91781298059882" lon="2.871131669599984"><ele>144.5</ele><time>2026-05-02T07:03:37Z</time></trkpt><trkpt lat="41.917727905701" lon="2.871085022088692"><ele>145.0</ele><time>2026-05-02T07:03:38Z</time></trkpt><trkpt lat="41.917634468317836" lon="2.8710477271524764"><ele>145.0</ele><time>2026-05-02T07:03:39Z</time></trkpt><trkpt lat="41.91754543585165" lon="2.871014906875221"><ele>145.0</ele><time>2026-05-02T07:03:40Z</time></trkpt><trkpt lat="41.917453280620975" lon="2.8709863043246857"><ele>145.0</ele><time>2026-05-02T07:03:41Z</time></trkpt><trkpt lat="41.917363531929794" lon="2.8709603497495255"><ele>145.0</ele><time>2026-05-02T07:03:42Z</time></trkpt><trkpt lat="41.91726973974096" lon="2.870937456491869"><ele>145.0</ele><time>2026-05-02T07:03:43Z</time></trkpt><trkpt lat="41.91718388092818" lon="2.8709225126695577"><ele>145.0</ele><time>2026-05-02T07:03:44Z</time></trkpt><trkpt lat="41.91711945691722" lon="2.870919493483034"><ele>145.0</ele><time>2026-05-02T07:03:45Z</time></trkpt><trkpt lat="41.91700958212377" lon="2.8709076061545518"><ele>145.0</ele><time>2026-05-02T07:03:47Z</time></trkpt><trkpt lat="41.9169718389027" lon="2.8711023948536907"><ele>145.0</ele><time>2026-05-02T07:03:50Z</time></trkpt><trkpt lat="41.917029135346425" lon="2.8711694615264345"><ele>145.0</ele><time>2026-05-02T07:03:52Z</time></trkpt><trkpt lat="41.917080573798856" lon="2.8712678482602567"><ele>145.0</ele><time>2026-05-02T07:03:54Z</time></trkpt><trkpt lat="41.917124740798656" lon="2.8713933403685665"><ele>145.0</ele><time>2026-05-02T07:03:56Z</time></trkpt><trkpt lat="41.91712792015088" lon="2.8715302422530566"><ele>145.0</ele><time>2026-05-02T07:03:58Z</time></trkpt><trkpt lat="41.917126654487724" lon="2.871661341365228"><ele>145.0</ele><time>2026-05-02T07:04:00Z</time></trkpt><trkpt lat="41.91714094481559" lon="2.871786670316932"><ele>145.0</ele><time>2026-05-02T07:04:02Z</time></trkpt><trkpt lat="41.91715544660118" lon="2.871901923575117"><ele>146.0</ele><time>2026-05-02T07:04:04Z</time></trkpt><trkpt lat="41.917181693241716" lon="2.8720203341982744"><ele>147.0</ele><time>2026-05-02T07:04:06Z</time></trkpt><trkpt lat="41.917209004212665" lon="2.8721358478395103"><ele>148.0</ele><time>2026-05-02T07:04:08Z</time></trkpt><trkpt lat="41.91721447334805" lon="2.87225935757728"><ele>149.0</ele><time>2026-05-02T07:04:09.999Z</time></trkpt><trkpt lat="41.917216075678056" lon="2.8723766170739267"><ele>150.0</ele><time>2026-05-02T07:04:11.999Z</time></trkpt><trkpt lat="41.91721151833116" lon="2.8724804862619777"><ele>151.0</ele><time>2026-05-02T07:04:13.999Z</time></trkpt><trkpt lat="41.917200631970005" lon="2.872578718908889"><ele>150.83333333333334</ele><time>2026-05-02T07:04:15.999Z</time></trkpt><trkpt lat="41.91720108763891" lon="2.8726698988564463"><ele>150.66666666666669</ele><time>2026-05-02T07:04:17.999Z</time></trkpt><trkpt lat="41.9171981649003" lon="2.8727908902568453"><ele>150.5</ele><time>2026-05-02T07:04:20.999Z</time></trkpt><trkpt lat="41.917185649488395" lon="2.872896856621237"><ele>150.33333333333334</ele><time>2026-05-02T07:04:22.999Z</time></trkpt><trkpt lat="41.91718166796777" lon="2.8729981145924923"><ele>150.16666666666666</ele><time>2026-05-02T07:04:24.999Z</time></trkpt><trkpt lat="41.91716481228137" lon="2.873123496155745"><ele>150.0</ele><time>2026-05-02T07:04:26.999Z</time></trkpt><trkpt lat="41.9171512644989" lon="2.873242735145297"><ele>150.0</ele><time>2026-05-02T07:04:28.999Z</time></trkpt><trkpt lat="41.917133298488615" lon="2.8733599739433227"><ele>150.0</ele><time>2026-05-02T07:04:30.999Z</time></trkpt><trkpt lat="41.917102011260546" lon="2.8734614284719635"><ele>150.0</ele><time>2026-05-02T07:04:32.999Z</time></trkpt><trkpt lat="41.91705970981703" lon="2.873566657979866"><ele>150.0</ele><time>2026-05-02T07:04:35.999Z</time></trkpt><trkpt lat="41.91703869380253" lon="2.8736576761329244"><ele>150.0</ele><time>2026-05-02T07:04:37.999Z</time></trkpt><trkpt lat="41.91699695378446" lon="2.873758189278156"><ele>150.0</ele><time>2026-05-02T07:04:40.999Z</time></trkpt><trkpt lat="41.91698546790246" lon="2.873855670672517"><ele>150.28571428571428</ele><time>2026-05-02T07:04:43.999Z</time></trkpt><trkpt lat="41.91698626521502" lon="2.873942972665155"><ele>150.57142857142856</ele><time>2026-05-02T07:04:46.999Z</time></trkpt><trkpt lat="41.916976182100456" lon="2.8740492523473478"><ele>150.85714285714283</ele><time>2026-05-02T07:04:50.999Z</time></trkpt><trkpt lat="41.9169615186284" lon="2.874155414121732"><ele>151.14285714285714</ele><time>2026-05-02T07:04:54.999Z</time></trkpt><trkpt lat="41.91693313491183" lon="2.874256149879672"><ele>151.42857142857144</ele><time>2026-05-02T07:04:58.999Z</time></trkpt><trkpt lat="41.91691216885666" lon="2.8743420846747534"><ele>151.7142857142857</ele><time>2026-05-02T07:05:01.999Z</time></trkpt><trkpt lat="41.91689666977727" lon="2.8744321215329687"><ele>152.0</ele><time>2026-05-02T07:05:04.999Z</time></trkpt><trkpt lat="41.9168841484075" lon="2.874540944006162"><ele>152.33333333333331</ele><time>2026-05-02T07:05:08.999Z</time></trkpt><trkpt lat="41.91687485192356" lon="2.8746520149122725"><ele>152.66666666666666</ele><time>2026-05-02T07:05:12.999Z</time></trkpt><trkpt lat="41.91685162327136" lon="2.874735527488285"><ele>153.0</ele><time>2026-05-02T07:05:15.999Z</time></trkpt><trkpt lat="41.91682359507239" lon="2.874829164509256"><ele>153.33333333333334</ele><time>2026-05-02T07:05:18.999Z</time></trkpt><trkpt lat="41.91678586577647" lon="2.874921129677816"><ele>153.66666666666669</ele><time>2026-05-02T07:05:21.999Z</time></trkpt><trkpt lat="41.91673687826147" lon="2.875020490339315"><ele>154.0</ele><time>2026-05-02T07:05:24.999Z</time></trkpt><trkpt lat="41.916705508318366" lon="2.875093862678274"><ele>155.5</ele><time>2026-05-02T07:05:26.999Z</time></trkpt><trkpt lat="41.916655225944126" lon="2.87516081356209"><ele>157.0</ele><time>2026-05-02T07:05:28.999Z</time></trkpt><trkpt lat="41.91659950746722" lon="2.8752583848096616"><ele>158.5</ele><time>2026-05-02T07:05:31.998Z</time></trkpt><trkpt lat="41.916555277539146" lon="2.8753336686825963"><ele>160.0</ele><time>2026-05-02T07:05:33.998Z</time></trkpt><trkpt lat="41.91651270063037" lon="2.8753991722003205"><ele>161.5</ele><time>2026-05-02T07:05:35.998Z</time></trkpt><trkpt lat="41.91645388597882" lon="2.8754972688359692"><ele>163.0</ele><time>2026-05-02T07:05:39Z</time></trkpt><trkpt lat="41.91640020881377" lon="2.8755789439911745"><ele>163.0</ele><time>2026-05-02T07:05:41Z</time></trkpt><trkpt lat="41.91632700417531" lon="2.8757049229690437"><ele>163.0</ele><time>2026-05-02T07:05:43Z</time></trkpt><trkpt lat="41.91625841648553" lon="2.8758414962013044"><ele>163.0</ele><time>2026-05-02T07:05:45Z</time></trkpt><trkpt lat="41.91618299526477" lon="2.8758789888341383"><ele>163.0</ele><time>2026-05-02T07:05:46Z</time></trkpt><trkpt lat="41.91611760236696" lon="2.8760183278999443"><ele>163.0</ele><time>2026-05-02T07:05:48Z</time></trkpt><trkpt lat="41.91608387708612" lon="2.8760960141341503"><ele>163.8</ele><time>2026-05-02T07:05:49Z</time></trkpt><trkpt lat="41.91602804020052" lon="2.87622811570454"><ele>164.60000000000002</ele><time>2026-05-02T07:05:51Z</time></trkpt><trkpt lat="41.9159843341347" lon="2.876361447283436"><ele>165.39999999999998</ele><time>2026-05-02T07:05:53Z</time></trkpt><trkpt lat="41.915932897458504" lon="2.8765001563980963"><ele>166.2</ele><time>2026-05-02T07:05:55Z</time></trkpt><trkpt lat="41.915904425532254" lon="2.8766370415777063"><ele>167.0</ele><time>2026-05-02T07:05:57Z</time></trkpt><trkpt lat="41.91589471098176" lon="2.8767608326090914"><ele>169.0</ele><time>2026-05-02T07:05:59Z</time></trkpt><trkpt lat="41.915887795068734" lon="2.8768953424591523"><ele>171.0</ele><time>2026-05-02T07:06:01Z</time></trkpt><trkpt lat="41.91588457836603" lon="2.877026289474746"><ele>173.0</ele><time>2026-05-02T07:06:03Z</time></trkpt><trkpt lat="41.9158812153258" lon="2.877161436023778"><ele>175.0</ele><time>2026-05-02T07:06:05Z</time></trkpt><trkpt lat="41.91589258745115" lon="2.8773275421880515"><ele>177.0</ele><time>2026-05-02T07:06:08Z</time></trkpt><trkpt lat="41.915899194134674" lon="2.877418134254336"><ele>177.0</ele><time>2026-05-02T07:06:09Z</time></trkpt><trkpt lat="41.915885058983775" lon="2.8775417658959936"><ele>177.0</ele><time>2026-05-02T07:06:11Z</time></trkpt><trkpt lat="41.91592410687934" lon="2.877649116974143"><ele>177.0</ele><time>2026-05-02T07:06:13Z</time></trkpt><trkpt lat="41.91590051307861" lon="2.8777277650062674"><ele>177.0</ele><time>2026-05-02T07:06:15Z</time></trkpt><trkpt lat="41.915880473556804" lon="2.877826606137879"><ele>177.0</ele><time>2026-05-02T07:06:17.999Z</time></trkpt><trkpt lat="41.91582267188114" lon="2.8779092951177017"><ele>177.0</ele><time>2026-05-02T07:06:20.999Z</time></trkpt><trkpt lat="41.9157723120419" lon="2.8779960561327798"><ele>176.33333333333334</ele><time>2026-05-02T07:06:23.999Z</time></trkpt><trkpt lat="41.91571235785922" lon="2.8780798772348595"><ele>175.66666666666666</ele><time>2026-05-02T07:06:26.999Z</time></trkpt><trkpt lat="41.915652434040055" lon="2.8781493337441693"><ele>175.0</ele><time>2026-05-02T07:06:29.999Z</time></trkpt><trkpt lat="41.91558784391493" lon="2.8782427289933668"><ele>174.33333333333331</ele><time>2026-05-02T07:06:33.999Z</time></trkpt><trkpt lat="41.91553451022858" lon="2.878300439566893"><ele>173.66666666666666</ele><time>2026-05-02T07:06:36.999Z</time></trkpt><trkpt lat="41.91547973594043" lon="2.8783598105089543"><ele>173.0</ele><time>2026-05-02T07:06:39.999Z</time></trkpt><trkpt lat="41.91543202796703" lon="2.878420906399888"><ele>173.66666666666666</ele><time>2026-05-02T07:06:43.999Z</time></trkpt><trkpt lat="41.915373027641195" lon="2.8785031821585667"><ele>174.33333333333331</ele><time>2026-05-02T07:06:46.999Z</time></trkpt><trkpt lat="41.91531348771398" lon="2.8785657213310483"><ele>175.0</ele><time>2026-05-02T07:06:49.999Z</time></trkpt><trkpt lat="41.91523254919221" lon="2.878632746275363"><ele>175.66666666666666</ele><time>2026-05-02T07:06:53.999Z</time></trkpt><trkpt lat="41.915146786080044" lon="2.878674810951918"><ele>176.33333333333334</ele><time>2026-05-02T07:06:56.999Z</time></trkpt><trkpt lat="41.915070484916754" lon="2.8787131970436834"><ele>177.0</ele><time>2026-05-02T07:06:58.999Z</time></trkpt><trkpt lat="41.9150025999865" lon="2.8787869549389193"><ele>178.0</ele><time>2026-05-02T07:07:02.999Z</time></trkpt><trkpt lat="41.914940302708516" lon="2.8788859947687198"><ele>179.0</ele><time>2026-05-02T07:07:05.999Z</time></trkpt><trkpt lat="41.914901148556645" lon="2.878967796398582"><ele>180.0</ele><time>2026-05-02T07:07:09.999Z</time></trkpt><trkpt lat="41.91489142264326" lon="2.8790646205611634"><ele>181.0</ele><time>2026-05-02T07:07:12.999Z</time></trkpt><trkpt lat="41.914867149533706" lon="2.879174271559234"><ele>182.0</ele><time>2026-05-02T07:07:16.999Z</time></trkpt><trkpt lat="41.914832281610614" lon="2.8792492729718604"><ele>183.0</ele><time>2026-05-02T07:07:19.999Z</time></trkpt><trkpt lat="41.91479460592491" lon="2.8793189424346877"><ele>183.0</ele><time>2026-05-02T07:07:22.999Z</time></trkpt><trkpt lat="41.91475539250865" lon="2.879390031620703"><ele>183.0</ele><time>2026-05-02T07:07:25.999Z</time></trkpt><trkpt lat="41.914717009124956" lon="2.8794738855682014"><ele>183.0</ele><time>2026-05-02T07:07:27.999Z</time></trkpt><trkpt lat="41.91466933639427" lon="2.8795339151441186"><ele>183.0</ele><time>2026-05-02T07:07:30.999Z</time></trkpt><trkpt lat="41.91461606364894" lon="2.87961048840604"><ele>183.0</ele><time>2026-05-02T07:07:34.999Z</time></trkpt><trkpt lat="41.914563869528905" lon="2.8796867056135644"><ele>183.0</ele><time>2026-05-02T07:07:38.999Z</time></trkpt><trkpt lat="41.914516299360685" lon="2.87976765249511"><ele>183.0</ele><time>2026-05-02T07:07:43Z</time></trkpt><trkpt lat="41.91447563517222" lon="2.879842660701972"><ele>183.0</ele><time>2026-05-02T07:07:47Z</time></trkpt><trkpt lat="41.91443197353646" lon="2.879920186255306"><ele>183.0</ele><time>2026-05-02T07:07:51Z</time></trkpt><trkpt lat="41.91438412720222" lon="2.8799774231189588"><ele>183.0</ele><time>2026-05-02T07:07:54Z</time></trkpt><trkpt lat="41.9143309313393" lon="2.8800279771961956"><ele>183.0</ele><time>2026-05-02T07:07:57Z</time></trkpt><trkpt lat="41.91425938114227" lon="2.880063172383212"><ele>183.0</ele><time>2026-05-02T07:08:01Z</time></trkpt><trkpt lat="41.914175918226945" lon="2.8800588340588975"><ele>183.0</ele><time>2026-05-02T07:08:04Z</time></trkpt><trkpt lat="41.91411476517386" lon="2.8800209628913893"><ele>183.0</ele><time>2026-05-02T07:08:07Z</time></trkpt><trkpt lat="41.91404816380457" lon="2.879984374004541"><ele>186.4</ele><time>2026-05-02T07:08:10Z</time></trkpt><trkpt lat="41.91391301025992" lon="2.8799872186869444"><ele>189.8</ele><time>2026-05-02T07:08:13Z</time></trkpt><trkpt lat="41.91386161163137" lon="2.880101222610045"><ele>193.2</ele><time>2026-05-02T07:08:15Z</time></trkpt><trkpt lat="41.91385368487733" lon="2.880234401479206"><ele>196.6</ele><time>2026-05-02T07:08:17Z</time></trkpt><trkpt lat="41.91386325390094" lon="2.8803633655805165"><ele>200.0</ele><time>2026-05-02T07:08:19Z</time></trkpt><trkpt lat="41.91384549166119" lon="2.880523359581063"><ele>200.0</ele><time>2026-05-02T07:08:21Z</time></trkpt><trkpt lat="41.913816268535484" lon="2.8806866715627026"><ele>200.0</ele><time>2026-05-02T07:08:23Z</time></trkpt><trkpt lat="41.91381249348007" lon="2.880847459374513"><ele>200.0</ele><time>2026-05-02T07:08:24.999Z</time></trkpt><trkpt lat="41.91380794124977" lon="2.880998398341289"><ele>200.0</ele><time>2026-05-02T07:08:26.999Z</time></trkpt><trkpt lat="41.91379795483962" lon="2.881150821629472"><ele>199.75</ele><time>2026-05-02T07:08:28.999Z</time></trkpt><trkpt lat="41.91377717842763" lon="2.881302689166365"><ele>199.5</ele><time>2026-05-02T07:08:30.999Z</time></trkpt><trkpt lat="41.91373730343628" lon="2.881455683182586"><ele>199.25</ele><time>2026-05-02T07:08:32.999Z</time></trkpt><trkpt lat="41.91369025109536" lon="2.8816012324238014"><ele>199.0</ele><time>2026-05-02T07:08:34.999Z</time></trkpt><trkpt lat="41.91365971189363" lon="2.8817584738472415"><ele>199.39999999999998</ele><time>2026-05-02T07:08:36.999Z</time></trkpt><trkpt lat="41.91364932973562" lon="2.881906197146273"><ele>199.8</ele><time>2026-05-02T07:08:38.999Z</time></trkpt><trkpt lat="41.913648844604865" lon="2.881991563604598"><ele>200.2</ele><time>2026-05-02T07:08:39.999Z</time></trkpt><trkpt lat="41.91365397351432" lon="2.8821544329240214"><ele>200.60000000000002</ele><time>2026-05-02T07:08:41.999Z</time></trkpt><trkpt lat="41.91365608746807" lon="2.882322439390525"><ele>201.0</ele><time>2026-05-02T07:08:43.999Z</time></trkpt><trkpt lat="41.91365717445913" lon="2.8824088279451474"><ele>201.0</ele><time>2026-05-02T07:08:44.999Z</time></trkpt><trkpt lat="41.913657216296045" lon="2.882497451833664"><ele>201.0</ele><time>2026-05-02T07:08:45.999Z</time></trkpt><trkpt lat="41.9136556889517" lon="2.8825845105389045"><ele>201.0</ele><time>2026-05-02T07:08:46.999Z</time></trkpt><trkpt lat="41.91364740335686" lon="2.882750176925704"><ele>201.0</ele><time>2026-05-02T07:08:48.999Z</time></trkpt><trkpt lat="41.91363670256851" lon="2.8829067976842886"><ele>201.0</ele><time>2026-05-02T07:08:50.999Z</time></trkpt><trkpt lat="41.91361835878871" lon="2.8830579827648166"><ele>200.60000000000002</ele><time>2026-05-02T07:08:52.999Z</time></trkpt><trkpt lat="41.91359429724866" lon="2.883202423669516"><ele>200.2</ele><time>2026-05-02T07:08:54.999Z</time></trkpt><trkpt lat="41.9135597947785" lon="2.8833463414411455"><ele>199.8</ele><time>2026-05-02T07:08:56.999Z</time></trkpt><trkpt lat="41.91351407157095" lon="2.8834773063111325"><ele>199.39999999999998</ele><time>2026-05-02T07:08:58.999Z</time></trkpt><trkpt lat="41.91345623071031" lon="2.883579047012522"><ele>199.0</ele><time>2026-05-02T07:09:00.999Z</time></trkpt><trkpt lat="41.91340276228981" lon="2.8836497341568514"><ele>201.14285714285714</ele><time>2026-05-02T07:09:02.999Z</time></trkpt><trkpt lat="41.91335445999994" lon="2.883711060932551"><ele>203.28571428571428</ele><time>2026-05-02T07:09:04.999Z</time></trkpt><trkpt lat="41.913302530325836" lon="2.8837780803851047"><ele>205.42857142857144</ele><time>2026-05-02T07:09:07.999Z</time></trkpt><trkpt lat="41.91325405273109" lon="2.8838423286182673"><ele>207.57142857142856</ele><time>2026-05-02T07:09:10.999Z</time></trkpt><trkpt lat="41.91320186941692" lon="2.883916225029446"><ele>209.71428571428572</ele><time>2026-05-02T07:09:14.999Z</time></trkpt><trkpt lat="41.91315614155569" lon="2.883991021432801"><ele>211.85714285714286</ele><time>2026-05-02T07:09:17.999Z</time></trkpt><trkpt lat="41.91314969548984" lon="2.884098436575207"><ele>214.0</ele><time>2026-05-02T07:09:20.999Z</time></trkpt><trkpt lat="41.91311000084866" lon="2.8841817223374027"><ele>214.16666666666666</ele><time>2026-05-02T07:09:23.999Z</time></trkpt><trkpt lat="41.91307388168323" lon="2.8842721023123077"><ele>214.33333333333331</ele><time>2026-05-02T07:09:26.999Z</time></trkpt><trkpt lat="41.91304396062741" lon="2.8843789547273553"><ele>214.5</ele><time>2026-05-02T07:09:29.999Z</time></trkpt><trkpt lat="41.91302355799959" lon="2.8844616031145205"><ele>214.66666666666669</ele><time>2026-05-02T07:09:31.999Z</time></trkpt><trkpt lat="41.91300429415122" lon="2.8845491449305034"><ele>214.83333333333334</ele><time>2026-05-02T07:09:33.999Z</time></trkpt><trkpt lat="41.91299563362694" lon="2.88467054884128"><ele>215.0</ele><time>2026-05-02T07:09:35.999Z</time></trkpt><trkpt lat="41.91299660131244" lon="2.8847959960743266"><ele>215.0</ele><time>2026-05-02T07:09:37.999Z</time></trkpt><trkpt lat="41.91299730907679" lon="2.88492596954211"><ele>215.0</ele><time>2026-05-02T07:09:39.999Z</time></trkpt><trkpt lat="41.91299438031321" lon="2.8850582319216076"><ele>215.0</ele><time>2026-05-02T07:09:41.999Z</time></trkpt><trkpt lat="41.91298825849872" lon="2.8851910122141438"><ele>215.0</ele><time>2026-05-02T07:09:43.999Z</time></trkpt><trkpt lat="41.912991181631014" lon="2.8853202456859863"><ele>215.0</ele><time>2026-05-02T07:09:45.999Z</time></trkpt><trkpt lat="41.913007239842486" lon="2.8854388613380753"><ele>215.66666666666669</ele><time>2026-05-02T07:09:47.999Z</time></trkpt><trkpt lat="41.913012513044805" lon="2.885550808346267"><ele>216.33333333333334</ele><time>2026-05-02T07:09:50Z</time></trkpt><trkpt lat="41.91303065978003" lon="2.8856560282080497"><ele>217.0</ele><time>2026-05-02T07:09:52Z</time></trkpt><trkpt lat="41.91304522491917" lon="2.8857652480884273"><ele>217.66666666666669</ele><time>2026-05-02T07:09:54Z</time></trkpt><trkpt lat="41.913068998549555" lon="2.8858594540160225"><ele>218.33333333333334</ele><time>2026-05-02T07:09:56Z</time></trkpt><trkpt lat="41.91309492805122" lon="2.885951297083166"><ele>219.0</ele><time>2026-05-02T07:09:58Z</time></trkpt><trkpt lat="41.913121869795184" lon="2.8860362236247585"><ele>220.66666666666666</ele><time>2026-05-02T07:10:00Z</time></trkpt><trkpt lat="41.91315487621304" lon="2.886143913839618"><ele>222.33333333333331</ele><time>2026-05-02T07:10:03Z</time></trkpt><trkpt lat="41.913186410461876" lon="2.8862360218791334"><ele>224.0</ele><time>2026-05-02T07:10:06Z</time></trkpt><trkpt lat="41.91320362979636" lon="2.8863355559073582"><ele>225.66666666666666</ele><time>2026-05-02T07:10:09Z</time></trkpt><trkpt lat="41.91322652049077" lon="2.8864310701769846"><ele>227.33333333333331</ele><time>2026-05-02T07:10:12Z</time></trkpt><trkpt lat="41.9132447871529" lon="2.886529184429942"><ele>229.0</ele><time>2026-05-02T07:10:15Z</time></trkpt><trkpt lat="41.91326397452931" lon="2.8866334598796013"><ele>228.99999999999997</ele><time>2026-05-02T07:10:18Z</time></trkpt><trkpt lat="41.91328126510608" lon="2.886751992365669"><ele>229.0</ele><time>2026-05-02T07:10:21Z</time></trkpt><trkpt lat="41.91330248058366" lon="2.886833738620246"><ele>229.0</ele><time>2026-05-02T07:10:23Z</time></trkpt><trkpt lat="41.91332292042872" lon="2.886940230325683"><ele>229.0</ele><time>2026-05-02T07:10:25Z</time></trkpt><trkpt lat="41.913338267496535" lon="2.887041964135926"><ele>228.99999999999997</ele><time>2026-05-02T07:10:27Z</time></trkpt><trkpt lat="41.91334726210563" lon="2.8871591714892686"><ele>229.0</ele><time>2026-05-02T07:10:29Z</time></trkpt><trkpt lat="41.91332496116367" lon="2.8872824759383295"><ele>231.0</ele><time>2026-05-02T07:10:31Z</time></trkpt><trkpt lat="41.91327456927655" lon="2.8874002713774107"><ele>232.99999999999997</ele><time>2026-05-02T07:10:33Z</time></trkpt><trkpt lat="41.913219026382265" lon="2.8875366853297693"><ele>234.99999999999997</ele><time>2026-05-02T07:10:35Z</time></trkpt><trkpt lat="41.91316114250527" lon="2.887579579906317"><ele>237.0</ele><time>2026-05-02T07:10:36Z</time></trkpt><trkpt lat="41.9131254947558" lon="2.8876495571155227"><ele>239.0</ele><time>2026-05-02T07:10:36.999Z</time></trkpt><trkpt lat="41.913052338810026" lon="2.887782123298171"><ele>240.2</ele><time>2026-05-02T07:10:38.999Z</time></trkpt><trkpt lat="41.91297479180618" lon="2.8879050128230763"><ele>241.39999999999998</ele><time>2026-05-02T07:10:40.999Z</time></trkpt><trkpt lat="41.9128976051162" lon="2.8880199661409023"><ele>242.6</ele><time>2026-05-02T07:10:42.999Z</time></trkpt><trkpt lat="41.912834483011" lon="2.8881266564502943"><ele>243.8</ele><time>2026-05-02T07:10:44.999Z</time></trkpt><trkpt lat="41.91280754256153" lon="2.8882410875659863"><ele>245.0</ele><time>2026-05-02T07:10:46.999Z</time></trkpt><trkpt lat="41.91280058755719" lon="2.888347512649482"><ele>243.71428571428572</ele><time>2026-05-02T07:10:48.999Z</time></trkpt><trkpt lat="41.912812805023506" lon="2.8884351205223173"><ele>242.42857142857144</ele><time>2026-05-02T07:10:50.999Z</time></trkpt><trkpt lat="41.91285889684699" lon="2.8885276605563712"><ele>241.14285714285714</ele><time>2026-05-02T07:10:53.999Z</time></trkpt><trkpt lat="41.912902795600196" lon="2.888589167699745"><ele>239.85714285714286</ele><time>2026-05-02T07:10:56.999Z</time></trkpt><trkpt lat="41.9129543629039" lon="2.888662085475507"><ele>238.57142857142858</ele><time>2026-05-02T07:10:59.999Z</time></trkpt><trkpt lat="41.91301226078925" lon="2.8887112403893274"><ele>237.28571428571428</ele><time>2026-05-02T07:11:02.999Z</time></trkpt><trkpt lat="41.913093680858005" lon="2.888738962146731"><ele>236.0</ele><time>2026-05-02T07:11:05.999Z</time></trkpt><trkpt lat="41.913172759221766" lon="2.8887936951696274"><ele>236.00000000000003</ele><time>2026-05-02T07:11:08.999Z</time></trkpt><trkpt lat="41.91323645407988" lon="2.8888300158257314"><ele>236.0</ele><time>2026-05-02T07:11:10.999Z</time></trkpt><trkpt lat="41.91330296152143" lon="2.888866938159949"><ele>236.0</ele><time>2026-05-02T07:11:12.999Z</time></trkpt><trkpt lat="41.91337297924018" lon="2.8889169330973337"><ele>236.0</ele><time>2026-05-02T07:11:14.999Z</time></trkpt><trkpt lat="41.91343348926027" lon="2.8890009392229254"><ele>236.00000000000003</ele><time>2026-05-02T07:11:16.999Z</time></trkpt><trkpt lat="41.91349486858557" lon="2.8890876600431183"><ele>236.0</ele><time>2026-05-02T07:11:18.999Z</time></trkpt><trkpt lat="41.913539615570265" lon="2.8891918472483376"><ele>235.33333333333334</ele><time>2026-05-02T07:11:20.999Z</time></trkpt><trkpt lat="41.913575834663355" lon="2.8893071005837547"><ele>234.66666666666669</ele><time>2026-05-02T07:11:22.999Z</time></trkpt><trkpt lat="41.913606534938765" lon="2.8894269473348704"><ele>234.0</ele><time>2026-05-02T07:11:24.999Z</time></trkpt><trkpt lat="41.91365360563277" lon="2.889557783220701"><ele>233.33333333333331</ele><time>2026-05-02T07:11:26.999Z</time></trkpt><trkpt lat="41.91366074463322" lon="2.8896497053316375"><ele>232.66666666666666</ele><time>2026-05-02T07:11:27.999Z</time></trkpt><trkpt lat="41.91369881555922" lon="2.889721704403362"><ele>232.0</ele><time>2026-05-02T07:11:28.999Z</time></trkpt><trkpt lat="41.91374621521651" lon="2.8897941251113117"><ele>232.0</ele><time>2026-05-02T07:11:29.999Z</time></trkpt><trkpt lat="41.91379221726975" lon="2.8898596904412304"><ele>232.0</ele><time>2026-05-02T07:11:30.999Z</time></trkpt><trkpt lat="41.913842037018235" lon="2.889927274978615"><ele>232.0</ele><time>2026-05-02T07:11:31.999Z</time></trkpt><trkpt lat="41.91388364250062" lon="2.8899910509626654"><ele>232.0</ele><time>2026-05-02T07:11:32.999Z</time></trkpt><trkpt lat="41.91395294601615" lon="2.8901341196271972"><ele>232.0</ele><time>2026-05-02T07:11:34.999Z</time></trkpt><trkpt lat="41.91400248342367" lon="2.890286607774868"><ele>231.66666666666666</ele><time>2026-05-02T07:11:36.999Z</time></trkpt><trkpt lat="41.91402157645361" lon="2.890373752653471"><ele>231.33333333333331</ele><time>2026-05-02T07:11:37.999Z</time></trkpt><trkpt lat="41.91403578228719" lon="2.890462418284862"><ele>231.0</ele><time>2026-05-02T07:11:38.999Z</time></trkpt><trkpt lat="41.914039594855204" lon="2.8905535201689783"><ele>230.66666666666669</ele><time>2026-05-02T07:11:39.999Z</time></trkpt><trkpt lat="41.914048612143326" lon="2.890666472540626"><ele>230.33333333333334</ele><time>2026-05-02T07:11:40.999Z</time></trkpt><trkpt lat="41.91405696812614" lon="2.8907598507344465"><ele>230.0</ele><time>2026-05-02T07:11:41.999Z</time></trkpt><trkpt lat="41.91408702710421" lon="2.890883814244692"><ele>230.2</ele><time>2026-05-02T07:11:42.999Z</time></trkpt><trkpt lat="41.91408971213733" lon="2.891009979675005"><ele>230.4</ele><time>2026-05-02T07:11:43.999Z</time></trkpt><trkpt lat="41.91410511816085" lon="2.891112079449023"><ele>230.60000000000002</ele><time>2026-05-02T07:11:44.999Z</time></trkpt><trkpt lat="41.914118787575696" lon="2.8912026702400775"><ele>230.8</ele><time>2026-05-02T07:11:45.999Z</time></trkpt><trkpt lat="41.91415757597343" lon="2.891354987190216"><ele>231.0</ele><time>2026-05-02T07:11:47.999Z</time></trkpt><trkpt lat="41.91416529376109" lon="2.8915108788913826"><ele>231.0</ele><time>2026-05-02T07:11:49.999Z</time></trkpt><trkpt lat="41.91418355822379" lon="2.891649128241074"><ele>231.00000000000003</ele><time>2026-05-02T07:11:51.999Z</time></trkpt><trkpt lat="41.91421109804666" lon="2.891770003168646"><ele>231.00000000000003</ele><time>2026-05-02T07:11:54Z</time></trkpt><trkpt lat="41.91422312120397" lon="2.891907292312198"><ele>231.0</ele><time>2026-05-02T07:11:56Z</time></trkpt><trkpt lat="41.91422822694657" lon="2.8920417342189446"><ele>231.0</ele><time>2026-05-02T07:11:58Z</time></trkpt><trkpt lat="41.9142008127555" lon="2.8921747120275123"><ele>231.33333333333334</ele><time>2026-05-02T07:12:00Z</time></trkpt><trkpt lat="41.91418333786124" lon="2.8923079761220722"><ele>231.66666666666669</ele><time>2026-05-02T07:12:02Z</time></trkpt><trkpt lat="41.91416658067877" lon="2.89243097746006"><ele>232.0</ele><time>2026-05-02T07:12:04Z</time></trkpt><trkpt lat="41.91416131461637" lon="2.892535769381491"><ele>232.33333333333334</ele><time>2026-05-02T07:12:06Z</time></trkpt><trkpt lat="41.914162622385035" lon="2.892620598445157"><ele>232.66666666666669</ele><time>2026-05-02T07:12:08Z</time></trkpt><trkpt lat="41.91417251338302" lon="2.8927396038595523"><ele>233.0</ele><time>2026-05-02T07:12:11Z</time></trkpt><trkpt lat="41.91420035183667" lon="2.8928558897501424"><ele>235.00000000000003</ele><time>2026-05-02T07:12:14Z</time></trkpt><trkpt lat="41.91426799189882" lon="2.8929404040268367"><ele>237.0</ele><time>2026-05-02T07:12:17Z</time></trkpt><trkpt lat="41.91434097221565" lon="2.8930135710951865"><ele>239.0</ele><time>2026-05-02T07:12:20Z</time></trkpt><trkpt lat="41.914400070661124" lon="2.893060420938807"><ele>241.0</ele><time>2026-05-02T07:12:22Z</time></trkpt><trkpt lat="41.914454944770405" lon="2.893125722059411"><ele>243.00000000000003</ele><time>2026-05-02T07:12:24Z</time></trkpt><trkpt lat="41.91451442460284" lon="2.8932151215758375"><ele>245.0</ele><time>2026-05-02T07:12:26Z</time></trkpt><trkpt lat="41.914556985897725" lon="2.8933010360493454"><ele>245.00000000000003</ele><time>2026-05-02T07:12:29Z</time></trkpt><trkpt lat="41.91461213283728" lon="2.8934150887660666"><ele>245.0</ele><time>2026-05-02T07:12:30Z</time></trkpt><trkpt lat="41.91465151497617" lon="2.8935153690286093"><ele>245.0</ele><time>2026-05-02T07:12:32Z</time></trkpt><trkpt lat="41.91468377899163" lon="2.8936120967827006"><ele>245.0</ele><time>2026-05-02T07:12:34Z</time></trkpt><trkpt lat="41.91469883239894" lon="2.8937075042458145"><ele>245.00000000000003</ele><time>2026-05-02T07:12:36Z</time></trkpt><trkpt lat="41.914688096278525" lon="2.8938254671714465"><ele>245.0</ele><time>2026-05-02T07:12:39Z</time></trkpt><trkpt lat="41.914691692839575" lon="2.893928233598364"><ele>246.50000000000003</ele><time>2026-05-02T07:12:42Z</time></trkpt><trkpt lat="41.91468827805894" lon="2.894025152916229"><ele>248.0</ele><time>2026-05-02T07:12:44.999Z</time></trkpt><trkpt lat="41.914703472879445" lon="2.8941273291244447"><ele>249.5</ele><time>2026-05-02T07:12:47.999Z</time></trkpt><trkpt lat="41.91475083262721" lon="2.8942050544628155"><ele>251.0</ele><time>2026-05-02T07:12:51.999Z</time></trkpt><trkpt lat="41.91482667945105" lon="2.8942597127550656"><ele>252.50000000000003</ele><time>2026-05-02T07:12:55.999Z</time></trkpt><trkpt lat="41.91489713558956" lon="2.8943153020427954"><ele>254.0</ele><time>2026-05-02T07:12:59.999Z</time></trkpt><trkpt lat="41.914952823592024" lon="2.8943610452828565"><ele>255.57142857142858</ele><time>2026-05-02T07:13:03.999Z</time></trkpt><trkpt lat="41.91498239900007" lon="2.8944525012367133"><ele>257.1428571428571</ele><time>2026-05-02T07:13:07.999Z</time></trkpt><trkpt lat="41.91498887568203" lon="2.8945410053087053"><ele>258.71428571428567</ele><time>2026-05-02T07:13:10.999Z</time></trkpt><trkpt lat="41.91496630111411" lon="2.8946486125465047"><ele>260.2857142857143</ele><time>2026-05-02T07:13:15.999Z</time></trkpt><trkpt lat="41.914951404299714" lon="2.8947320519393487"><ele>261.85714285714283</ele><time>2026-05-02T07:13:18.999Z</time></trkpt><trkpt lat="41.914935845891826" lon="2.894827494517786"><ele>263.4285714285714</ele><time>2026-05-02T07:13:22.999Z</time></trkpt><trkpt lat="41.91491523291307" lon="2.8949108765148828"><ele>265.0</ele><time>2026-05-02T07:13:26.999Z</time></trkpt><trkpt lat="41.91490152850673" lon="2.8950081597466264"><ele>264.85714285714283</ele><time>2026-05-02T07:13:30.999Z</time></trkpt><trkpt lat="41.91489046976721" lon="2.8951016452955223"><ele>264.7142857142857</ele><time>2026-05-02T07:13:34.999Z</time></trkpt><trkpt lat="41.914884502252775" lon="2.895192742292227"><ele>264.57142857142856</ele><time>2026-05-02T07:13:38.999Z</time></trkpt><trkpt lat="41.91490461315746" lon="2.8952841869964026"><ele>264.42857142857144</ele><time>2026-05-02T07:13:42.999Z</time></trkpt><trkpt lat="41.91494221500981" lon="2.895372750934781"><ele>264.2857142857143</ele><time>2026-05-02T07:13:47.999Z</time></trkpt><trkpt lat="41.91498862217576" lon="2.8954400755051783"><ele>264.1428571428571</ele><time>2026-05-02T07:13:51.999Z</time></trkpt><trkpt lat="41.91505313235649" lon="2.8954894134952815"><ele>264.0</ele><time>2026-05-02T07:13:55.999Z</time></trkpt><trkpt lat="41.91511617980452" lon="2.895517164168112"><ele>266.57142857142856</ele><time>2026-05-02T07:14:00Z</time></trkpt><trkpt lat="41.91518335304219" lon="2.8955379467578455"><ele>269.14285714285717</ele><time>2026-05-02T07:14:04Z</time></trkpt><trkpt lat="41.9152495938016" lon="2.8955633618934837"><ele>271.7142857142857</ele><time>2026-05-02T07:14:08Z</time></trkpt><trkpt lat="41.91531291126627" lon="2.8955788836306344"><ele>274.2857142857143</ele><time>2026-05-02T07:14:12Z</time></trkpt><trkpt lat="41.9153761671372" lon="2.8955919550949583"><ele>276.85714285714283</ele><time>2026-05-02T07:14:16Z</time></trkpt><trkpt lat="41.915445329405294" lon="2.895599270720242"><ele>279.42857142857144</ele><time>2026-05-02T07:14:20Z</time></trkpt><trkpt lat="41.915515046538275" lon="2.895606503974545"><ele>282.0</ele><time>2026-05-02T07:14:24Z</time></trkpt><trkpt lat="41.91558603622735" lon="2.89559937393223"><ele>282.0</ele><time>2026-05-02T07:14:28Z</time></trkpt><trkpt lat="41.915655888718476" lon="2.8955587138558525"><ele>282.0</ele><time>2026-05-02T07:14:32Z</time></trkpt><trkpt lat="41.91573105972854" lon="2.8955449820621033"><ele>282.0</ele><time>2026-05-02T07:14:36Z</time></trkpt><trkpt lat="41.915799973441274" lon="2.8955726778084525"><ele>282.0</ele><time>2026-05-02T07:14:40Z</time></trkpt><trkpt lat="41.915855701596605" lon="2.8956159524016134"><ele>282.0</ele><time>2026-05-02T07:14:43Z</time></trkpt><trkpt lat="41.915925406763975" lon="2.895664312939791"><ele>282.0</ele><time>2026-05-02T07:14:47Z</time></trkpt><trkpt lat="41.91598834447299" lon="2.8957077588920503"><ele>282.0</ele><time>2026-05-02T07:14:50.999Z</time></trkpt><trkpt lat="41.91605090428747" lon="2.895758406642926"><ele>283.2857142857143</ele><time>2026-05-02T07:14:54.999Z</time></trkpt><trkpt lat="41.91610091013519" lon="2.8958118537959274"><ele>284.57142857142856</ele><time>2026-05-02T07:14:56.999Z</time></trkpt><trkpt lat="41.916154167214565" lon="2.895866933206437"><ele>285.85714285714283</ele><time>2026-05-02T07:14:59.999Z</time></trkpt><trkpt lat="41.91622182669233" lon="2.8959304747783556"><ele>287.1428571428571</ele><time>2026-05-02T07:15:02.999Z</time></trkpt><trkpt lat="41.91627376113884" lon="2.895979624009897"><ele>288.4285714285714</ele><time>2026-05-02T07:15:04.999Z</time></trkpt><trkpt lat="41.91632720116343" lon="2.896038218438482"><ele>289.7142857142857</ele><time>2026-05-02T07:15:06.999Z</time></trkpt><trkpt lat="41.91637649750301" lon="2.896098143187536"><ele>291.0</ele><time>2026-05-02T07:15:08.999Z</time></trkpt><trkpt lat="41.91642839469569" lon="2.896155780861475"><ele>291.0</ele><time>2026-05-02T07:15:10.999Z</time></trkpt><trkpt lat="41.91647716622422" lon="2.896224820660359"><ele>291.0</ele><time>2026-05-02T07:15:12.999Z</time></trkpt><trkpt lat="41.91652511080983" lon="2.8962825541615937"><ele>291.0</ele><time>2026-05-02T07:15:14.999Z</time></trkpt><trkpt lat="41.91657558737498" lon="2.896344581204749"><ele>291.0</ele><time>2026-05-02T07:15:16.999Z</time></trkpt><trkpt lat="41.91662283924335" lon="2.8964036872979984"><ele>291.0</ele><time>2026-05-02T07:15:18.999Z</time></trkpt><trkpt lat="41.91666055027385" lon="2.8964715135669317"><ele>291.0</ele><time>2026-05-02T07:15:20.999Z</time></trkpt><trkpt lat="41.91671443799125" lon="2.8965725976330186"><ele>291.0</ele><time>2026-05-02T07:15:23.999Z</time></trkpt><trkpt lat="41.91677148341936" lon="2.8966614465460423"><ele>292.1666666666667</ele><time>2026-05-02T07:15:26.999Z</time></trkpt><trkpt lat="41.916827451504204" lon="2.896753836827795"><ele>293.3333333333333</ele><time>2026-05-02T07:15:29.999Z</time></trkpt><trkpt lat="41.91688488368519" lon="2.896841102137719"><ele>294.5</ele><time>2026-05-02T07:15:32.999Z</time></trkpt><trkpt lat="41.91694064110568" lon="2.8969298257725247"><ele>295.66666666666663</ele><time>2026-05-02T07:15:35.999Z</time></trkpt><trkpt lat="41.916994594128006" lon="2.8970181197951144"><ele>296.8333333333333</ele><time>2026-05-02T07:15:38.999Z</time></trkpt><trkpt lat="41.91704647590668" lon="2.8971150062320405"><ele>298.0</ele><time>2026-05-02T07:15:41.999Z</time></trkpt><trkpt lat="41.91709169595981" lon="2.8972177802610735"><ele>298.0</ele><time>2026-05-02T07:15:44.999Z</time></trkpt><trkpt lat="41.91712011479007" lon="2.897293684713248"><ele>298.0</ele><time>2026-05-02T07:15:46.999Z</time></trkpt><trkpt lat="41.91715436716085" lon="2.8973760382415823"><ele>298.0</ele><time>2026-05-02T07:15:48.999Z</time></trkpt><trkpt lat="41.917187499116736" lon="2.897456286796923"><ele>298.0</ele><time>2026-05-02T07:15:50.999Z</time></trkpt><trkpt lat="41.91722506102585" lon="2.897537600558337"><ele>298.0</ele><time>2026-05-02T07:15:52.999Z</time></trkpt><trkpt lat="41.917268418313526" lon="2.8976202870123613"><ele>298.0</ele><time>2026-05-02T07:15:54.999Z</time></trkpt><trkpt lat="41.91732126848679" lon="2.8977029210184737"><ele>298.0</ele><time>2026-05-02T07:15:56.999Z</time></trkpt><trkpt lat="41.91737643496401" lon="2.8977735755856"><ele>297.8333333333333</ele><time>2026-05-02T07:15:58.999Z</time></trkpt><trkpt lat="41.91743169484002" lon="2.897856820295951"><ele>297.66666666666663</ele><time>2026-05-02T07:16:00.999Z</time></trkpt><trkpt lat="41.91748447665434" lon="2.8979579696328637"><ele>297.5</ele><time>2026-05-02T07:16:02.999Z</time></trkpt><trkpt lat="41.9175258719839" lon="2.89805868091292"><ele>297.3333333333333</ele><time>2026-05-02T07:16:05Z</time></trkpt><trkpt lat="41.917562541047204" lon="2.898172287751843"><ele>297.1666666666667</ele><time>2026-05-02T07:16:07Z</time></trkpt><trkpt lat="41.91759254955966" lon="2.8982888781231257"><ele>297.0</ele><time>2026-05-02T07:16:09Z</time></trkpt><trkpt lat="41.917633381856234" lon="2.898416371371781"><ele>296.0</ele><time>2026-05-02T07:16:11Z</time></trkpt><trkpt lat="41.91768825504614" lon="2.8985405221930964"><ele>295.0</ele><time>2026-05-02T07:16:13Z</time></trkpt><trkpt lat="41.917723552224714" lon="2.8986927486872998"><ele>294.0</ele><time>2026-05-02T07:16:15Z</time></trkpt><trkpt lat="41.91778756091233" lon="2.898832538277655"><ele>293.0</ele><time>2026-05-02T07:16:17Z</time></trkpt><trkpt lat="41.91782361356763" lon="2.898911274234983"><ele>292.0</ele><time>2026-05-02T07:16:18Z</time></trkpt><trkpt lat="41.91786036310185" lon="2.8989930437860254"><ele>292.0</ele><time>2026-05-02T07:16:19Z</time></trkpt><trkpt lat="41.917897341891425" lon="2.899078759589337"><ele>292.0</ele><time>2026-05-02T07:16:20Z</time></trkpt><trkpt lat="41.91793431820359" lon="2.8991644696763506"><ele>292.0</ele><time>2026-05-02T07:16:21Z</time></trkpt><trkpt lat="41.91797178950721" lon="2.899247292583144"><ele>292.0</ele><time>2026-05-02T07:16:22Z</time></trkpt><trkpt lat="41.91801033943789" lon="2.8993262981799885"><ele>292.0</ele><time>2026-05-02T07:16:23Z</time></trkpt><trkpt lat="41.91804516568687" lon="2.8993971747994984"><ele>292.0</ele><time>2026-05-02T07:16:24Z</time></trkpt><trkpt lat="41.91812299641582" lon="2.8995177796029767"><ele>292.4</ele><time>2026-05-02T07:16:26Z</time></trkpt><trkpt lat="41.91818453205856" lon="2.8996410857593258"><ele>292.79999999999995</ele><time>2026-05-02T07:16:28Z</time></trkpt><trkpt lat="41.91824496728841" lon="2.8997705713753494"><ele>293.2</ele><time>2026-05-02T07:16:30Z</time></trkpt><trkpt lat="41.91828854314281" lon="2.8998840077128913"><ele>293.59999999999997</ele><time>2026-05-02T07:16:32Z</time></trkpt><trkpt lat="41.91833816128348" lon="2.8999916438906648"><ele>294.0</ele><time>2026-05-02T07:16:34Z</time></trkpt><trkpt lat="41.918376667975366" lon="2.900084423026233"><ele>293.0</ele><time>2026-05-02T07:16:36Z</time></trkpt><trkpt lat="41.918411919719034" lon="2.900177934508817"><ele>292.0</ele><time>2026-05-02T07:16:38Z</time></trkpt><trkpt lat="41.91844849912848" lon="2.900279376772517"><ele>291.0</ele><time>2026-05-02T07:16:40Z</time></trkpt><trkpt lat="41.91850685349982" lon="2.900382582411344"><ele>290.0</ele><time>2026-05-02T07:16:42Z</time></trkpt><trkpt lat="41.918548352267536" lon="2.9005026094744495"><ele>289.0</ele><time>2026-05-02T07:16:44Z</time></trkpt><trkpt lat="41.91858937911689" lon="2.9006294869856255"><ele>289.0</ele><time>2026-05-02T07:16:46Z</time></trkpt><trkpt lat="41.91862845913891" lon="2.900764413520823"><ele>289.0</ele><time>2026-05-02T07:16:48Z</time></trkpt><trkpt lat="41.91865243035215" lon="2.900905394504035"><ele>289.0</ele><time>2026-05-02T07:16:50Z</time></trkpt><trkpt lat="41.91868961989952" lon="2.901048080055375"><ele>289.0</ele><time>2026-05-02T07:16:52Z</time></trkpt><trkpt lat="41.91872700489928" lon="2.9011915155128034"><ele>289.0</ele><time>2026-05-02T07:16:54Z</time></trkpt><trkpt lat="41.91876389572696" lon="2.9013382507498666"><ele>290.5</ele><time>2026-05-02T07:16:56Z</time></trkpt><trkpt lat="41.91879573686791" lon="2.9014743124320144"><ele>292.0</ele><time>2026-05-02T07:16:57.999Z</time></trkpt><trkpt lat="41.9188229661364" lon="2.9016000589482074"><ele>293.5</ele><time>2026-05-02T07:16:59.999Z</time></trkpt><trkpt lat="41.918843928870515" lon="2.901704670509874"><ele>295.0</ele><time>2026-05-02T07:17:01.999Z</time></trkpt><trkpt lat="41.91885946053021" lon="2.901795997716114"><ele>296.5</ele><time>2026-05-02T07:17:03.999Z</time></trkpt><trkpt lat="41.918874669175366" lon="2.901917017099773"><ele>298.0</ele><time>2026-05-02T07:17:06.999Z</time></trkpt><trkpt lat="41.91888134047799" lon="2.9020087603274263"><ele>299.0</ele><time>2026-05-02T07:17:08.999Z</time></trkpt><trkpt lat="41.918886254086864" lon="2.9021378577558883"><ele>300.0</ele><time>2026-05-02T07:17:11.999Z</time></trkpt><trkpt lat="41.91894576441802" lon="2.9022660208167483"><ele>301.0</ele><time>2026-05-02T07:17:14.999Z</time></trkpt><trkpt lat="41.91893428555624" lon="2.902389178329473"><ele>302.0</ele><time>2026-05-02T07:17:17.999Z</time></trkpt><trkpt lat="41.918940000660655" lon="2.902478289753192"><ele>303.0</ele><time>2026-05-02T07:17:19.999Z</time></trkpt><trkpt lat="41.918932072791435" lon="2.902564924320407"><ele>304.0</ele><time>2026-05-02T07:17:21.999Z</time></trkpt><trkpt lat="41.91892466303232" lon="2.902684510155161"><ele>305.4285714285714</ele><time>2026-05-02T07:17:24.999Z</time></trkpt><trkpt lat="41.91891695853293" lon="2.902772205162209"><ele>306.8571428571429</ele><time>2026-05-02T07:17:27.999Z</time></trkpt><trkpt lat="41.918911455429914" lon="2.902876658107767"><ele>308.2857142857143</ele><time>2026-05-02T07:17:31.999Z</time></trkpt><trkpt lat="41.918898258481114" lon="2.902978528133157"><ele>309.71428571428567</ele><time>2026-05-02T07:17:35.999Z</time></trkpt><trkpt lat="41.918885693992834" lon="2.9030729314407884"><ele>311.1428571428571</ele><time>2026-05-02T07:17:39.999Z</time></trkpt><trkpt lat="41.9188817034741" lon="2.9031596393760295"><ele>312.57142857142856</ele><time>2026-05-02T07:17:43.999Z</time></trkpt><trkpt lat="41.91887412207944" lon="2.9032620604102455"><ele>314.0</ele><time>2026-05-02T07:17:48.999Z</time></trkpt><trkpt lat="41.918857169432805" lon="2.903372606143527"><ele>314.99999999999994</ele><time>2026-05-02T07:17:53.999Z</time></trkpt><trkpt lat="41.91886800563743" lon="2.9034788744155278"><ele>316.0</ele><time>2026-05-02T07:17:57.999Z</time></trkpt><trkpt lat="41.918897670092704" lon="2.9035649790743223"><ele>317.0</ele><time>2026-05-02T07:18:01.999Z</time></trkpt><trkpt lat="41.91892102870653" lon="2.9036520120933633"><ele>318.0</ele><time>2026-05-02T07:18:05.999Z</time></trkpt><trkpt lat="41.91895376999991" lon="2.9037360616070984"><ele>319.0</ele><time>2026-05-02T07:18:10Z</time></trkpt><trkpt lat="41.91899856573811" lon="2.9038034566240527"><ele>319.99999999999994</ele><time>2026-05-02T07:18:14Z</time></trkpt><trkpt lat="41.91905680888159" lon="2.90388560178645"><ele>321.0</ele><time>2026-05-02T07:18:18Z</time></trkpt><trkpt lat="41.91911005535377" lon="2.9039447844469457"><ele>320.99999999999994</ele><time>2026-05-02T07:18:22Z</time></trkpt><trkpt lat="41.91915363239704" lon="2.9040277086223423"><ele>321.0</ele><time>2026-05-02T07:18:26Z</time></trkpt><trkpt lat="41.919186916761994" lon="2.9041117573232977"><ele>321.0</ele><time>2026-05-02T07:18:30Z</time></trkpt><trkpt lat="41.919220670810255" lon="2.904201653871536"><ele>321.0</ele><time>2026-05-02T07:18:34Z</time></trkpt><trkpt lat="41.91925577916858" lon="2.904291297244546"><ele>321.0</ele><time>2026-05-02T07:18:38Z</time></trkpt><trkpt lat="41.91927731072064" lon="2.9043773049968538"><ele>320.99999999999994</ele><time>2026-05-02T07:18:42Z</time></trkpt><trkpt lat="41.91929660685952" lon="2.9044734154076814"><ele>321.0</ele><time>2026-05-02T07:18:46Z</time></trkpt><trkpt lat="41.91932302336952" lon="2.9045514794404244"><ele>324.3333333333333</ele><time>2026-05-02T07:18:49Z</time></trkpt><trkpt lat="41.91933805320372" lon="2.9046375485457268"><ele>327.6666666666667</ele><time>2026-05-02T07:18:52Z</time></trkpt><trkpt lat="41.91934491972507" lon="2.9047488145324563"><ele>331.0</ele><time>2026-05-02T07:18:56Z</time></trkpt><trkpt lat="41.91935063888634" lon="2.904842280344234"><ele>334.33333333333337</ele><time>2026-05-02T07:18:59Z</time></trkpt><trkpt lat="41.919342432093174" lon="2.904943244285002"><ele>337.6666666666667</ele><time>2026-05-02T07:19:01Z</time></trkpt><trkpt lat="41.91933863199578" lon="2.905065444395832"><ele>341.0</ele><time>2026-05-02T07:19:05Z</time></trkpt><trkpt lat="41.91932263431061" lon="2.9051714724964963"><ele>344.1428571428571</ele><time>2026-05-02T07:19:09Z</time></trkpt><trkpt lat="41.919308227958844" lon="2.905279124006585"><ele>347.2857142857143</ele><time>2026-05-02T07:19:13Z</time></trkpt><trkpt lat="41.919281751265075" lon="2.9053771500465446"><ele>350.42857142857144</ele><time>2026-05-02T07:19:15.999Z</time></trkpt><trkpt lat="41.919281461233105" lon="2.9054783285725403"><ele>353.57142857142856</ele><time>2026-05-02T07:19:18.999Z</time></trkpt><trkpt lat="41.91929397148419" lon="2.9055681646662137"><ele>356.7142857142857</ele><time>2026-05-02T07:19:21.999Z</time></trkpt><trkpt lat="41.91931521595943" lon="2.9056528017264256"><ele>359.85714285714283</ele><time>2026-05-02T07:19:25.999Z</time></trkpt><trkpt lat="41.919352906384084" lon="2.9057259348140323"><ele>363.0</ele><time>2026-05-02T07:19:28.999Z</time></trkpt><trkpt lat="41.91940659294753" lon="2.905801808700483"><ele>362.99999999999994</ele><time>2026-05-02T07:19:32.999Z</time></trkpt><trkpt lat="41.919458288896216" lon="2.9058592782739394"><ele>363.0</ele><time>2026-05-02T07:19:36.999Z</time></trkpt><trkpt lat="41.91951081421909" lon="2.9059077158738975"><ele>363.0</ele><time>2026-05-02T07:19:40.999Z</time></trkpt><trkpt lat="41.91956663499894" lon="2.9059509130365004"><ele>363.0</ele><time>2026-05-02T07:19:44.999Z</time></trkpt><trkpt lat="41.919629369803005" lon="2.906008979780851"><ele>363.0</ele><time>2026-05-02T07:19:49.999Z</time></trkpt><trkpt lat="41.91969096074957" lon="2.9060558111637804"><ele>362.99999999999994</ele><time>2026-05-02T07:19:54.999Z</time></trkpt><trkpt lat="41.919749904736655" lon="2.9060963519421548"><ele>363.0</ele><time>2026-05-02T07:19:59.999Z</time></trkpt><trkpt lat="41.919803965112926" lon="2.9061408860005824"><ele>363.85714285714283</ele><time>2026-05-02T07:20:04.999Z</time></trkpt><trkpt lat="41.91986362689016" lon="2.9061970300735354"><ele>364.7142857142857</ele><time>2026-05-02T07:20:09.999Z</time></trkpt><trkpt lat="41.91992286885687" lon="2.9062407176488763"><ele>365.57142857142856</ele><time>2026-05-02T07:20:15Z</time></trkpt><trkpt lat="41.919983091916386" lon="2.9063141276147175"><ele>366.42857142857144</ele><time>2026-05-02T07:20:20Z</time></trkpt><trkpt lat="41.92004282471488" lon="2.906348565626667"><ele>367.2857142857143</ele><time>2026-05-02T07:20:24Z</time></trkpt><trkpt lat="41.920106908975555" lon="2.906392905411597"><ele>368.1428571428571</ele><time>2026-05-02T07:20:29Z</time></trkpt><trkpt lat="41.920172099652575" lon="2.9064546354295664"><ele>369.0</ele><time>2026-05-02T07:20:34Z</time></trkpt><trkpt lat="41.920232802285625" lon="2.906519526050282"><ele>370.7142857142857</ele><time>2026-05-02T07:20:39Z</time></trkpt><trkpt lat="41.92028000456879" lon="2.9065761555792933"><ele>372.42857142857144</ele><time>2026-05-02T07:20:43Z</time></trkpt><trkpt lat="41.92032566984022" lon="2.906643327233547"><ele>374.1428571428571</ele><time>2026-05-02T07:20:47Z</time></trkpt><trkpt lat="41.920363235957424" lon="2.906713905969347"><ele>375.8571428571429</ele><time>2026-05-02T07:20:50Z</time></trkpt><trkpt lat="41.92038330684244" lon="2.9068214668241152"><ele>377.5714285714286</ele><time>2026-05-02T07:20:55Z</time></trkpt><trkpt lat="41.92039750520189" lon="2.9069115242886903"><ele>379.2857142857143</ele><time>2026-05-02T07:20:59Z</time></trkpt><trkpt lat="41.920415802349666" lon="2.9070079563015874"><ele>381.0</ele><time>2026-05-02T07:21:04Z</time></trkpt><trkpt lat="41.92042846132857" lon="2.9070967313259986"><ele>381.85714285714283</ele><time>2026-05-02T07:21:08Z</time></trkpt><trkpt lat="41.92044934633118" lon="2.907182136077961"><ele>382.7142857142857</ele><time>2026-05-02T07:21:13Z</time></trkpt><trkpt lat="41.92047745160754" lon="2.9072748018292587"><ele>383.57142857142856</ele><time>2026-05-02T07:21:18Z</time></trkpt><trkpt lat="41.92050855087807" lon="2.907373799059326"><ele>384.42857142857144</ele><time>2026-05-02T07:21:22.999Z</time></trkpt><trkpt lat="41.92054786288052" lon="2.907464135750458"><ele>385.28571428571433</ele><time>2026-05-02T07:21:27.999Z</time></trkpt><trkpt lat="41.92058992228" lon="2.9075314038273583"><ele>386.14285714285717</ele><time>2026-05-02T07:21:31.999Z</time></trkpt><trkpt lat="41.92063291531694" lon="2.9075982748386933"><ele>387.0</ele><time>2026-05-02T07:21:36.999Z</time></trkpt><trkpt lat="41.92069020121361" lon="2.90766810841987"><ele>387.42857142857144</ele><time>2026-05-02T07:21:41.999Z</time></trkpt><trkpt lat="41.92074098595236" lon="2.9077231760982705"><ele>387.8571428571429</ele><time>2026-05-02T07:21:46.999Z</time></trkpt><trkpt lat="41.920772748420745" lon="2.907804461282391"><ele>388.2857142857143</ele><time>2026-05-02T07:21:50.999Z</time></trkpt><trkpt lat="41.920772084553285" lon="2.9078933016264465"><ele>388.7142857142857</ele><time>2026-05-02T07:21:54.999Z</time></trkpt><trkpt lat="41.92070763093924" lon="2.9078965018528304"><ele>389.1428571428571</ele><time>2026-05-02T07:21:57.999Z</time></trkpt><trkpt lat="41.920635910082474" lon="2.9078789239753355"><ele>389.57142857142856</ele><time>2026-05-02T07:22:00.999Z</time></trkpt><trkpt lat="41.92056383099421" lon="2.9078514266149655"><ele>390.0</ele><time>2026-05-02T07:22:03.999Z</time></trkpt><trkpt lat="41.920472004066575" lon="2.9078311284186733"><ele>390.0</ele><time>2026-05-02T07:22:07.999Z</time></trkpt><trkpt lat="41.92021568020906" lon="2.907771316958544"><ele>390.0</ele><time>2026-05-02T07:22:09.999Z</time></trkpt><trkpt lat="41.920125721861815" lon="2.907784193292325"><ele>390.0</ele><time>2026-05-02T07:22:11.999Z</time></trkpt><trkpt lat="41.92002940242298" lon="2.907797895965585"><ele>390.0</ele><time>2026-05-02T07:22:13.999Z</time></trkpt><trkpt lat="41.91993769196462" lon="2.9078150394360964"><ele>390.42857142857144</ele><time>2026-05-02T07:22:15.999Z</time></trkpt><trkpt lat="41.91985658139803" lon="2.9078168063609082"><ele>390.85714285714283</ele><time>2026-05-02T07:22:17.999Z</time></trkpt><trkpt lat="41.919778692046535" lon="2.907804535130675"><ele>391.28571428571433</ele><time>2026-05-02T07:22:19.999Z</time></trkpt><trkpt lat="41.919704532467776" lon="2.9077926652498802"><ele>391.7142857142857</ele><time>2026-05-02T07:22:22Z</time></trkpt><trkpt lat="41.919625722178296" lon="2.9077794556699454"><ele>392.14285714285717</ele><time>2026-05-02T07:22:24Z</time></trkpt><trkpt lat="41.91955633815966" lon="2.9077938387337463"><ele>392.5714285714286</ele><time>2026-05-02T07:22:26Z</time></trkpt><trkpt lat="41.91951139280428" lon="2.9078553994211256"><ele>393.0</ele><time>2026-05-02T07:22:28Z</time></trkpt><trkpt lat="41.919550298673805" lon="2.9080138474384363"><ele>393.0</ele><time>2026-05-02T07:22:31Z</time></trkpt><trkpt lat="41.91959520264269" lon="2.9081206092075735"><ele>393.0</ele><time>2026-05-02T07:22:33Z</time></trkpt><trkpt lat="41.919632067049356" lon="2.9082354502356482"><ele>393.0</ele><time>2026-05-02T07:22:35Z</time></trkpt><trkpt lat="41.919674566952544" lon="2.908358107349911"><ele>393.0</ele><time>2026-05-02T07:22:37Z</time></trkpt><trkpt lat="41.91970655708333" lon="2.90848674684881"><ele>393.0</ele><time>2026-05-02T07:22:39Z</time></trkpt><trkpt lat="41.91974408088564" lon="2.9086198041953524"><ele>392.4</ele><time>2026-05-02T07:22:41Z</time></trkpt><trkpt lat="41.91975452483347" lon="2.908756441839875"><ele>391.79999999999995</ele><time>2026-05-02T07:22:43Z</time></trkpt><trkpt lat="41.91971099138012" lon="2.90883088049693"><ele>391.2</ele><time>2026-05-02T07:22:44Z</time></trkpt><trkpt lat="41.91969370524637" lon="2.9089713589332735"><ele>390.6</ele><time>2026-05-02T07:22:46Z</time></trkpt><trkpt lat="41.91968319084975" lon="2.9091324313598825"><ele>390.0</ele><time>2026-05-02T07:22:48Z</time></trkpt><trkpt lat="41.91968662212265" lon="2.9092185228820906"><ele>388.7142857142857</ele><time>2026-05-02T07:22:49Z</time></trkpt><trkpt lat="41.919705155134125" lon="2.909312100420358"><ele>387.42857142857144</ele><time>2026-05-02T07:22:50Z</time></trkpt><trkpt lat="41.91973793895146" lon="2.909400960505821"><ele>386.1428571428571</ele><time>2026-05-02T07:22:51Z</time></trkpt><trkpt lat="41.9197681472483" lon="2.909486535485436"><ele>384.8571428571429</ele><time>2026-05-02T07:22:52Z</time></trkpt><trkpt lat="41.919797998294534" lon="2.909569285712575"><ele>383.5714285714286</ele><time>2026-05-02T07:22:53Z</time></trkpt><trkpt lat="41.919828722621574" lon="2.9096518611288085"><ele>382.2857142857143</ele><time>2026-05-02T07:22:54Z</time></trkpt><trkpt lat="41.91985941779247" lon="2.9097295962415997"><ele>381.0</ele><time>2026-05-02T07:22:55Z</time></trkpt><trkpt lat="41.919893481779546" lon="2.9098093914989587"><ele>381.0</ele><time>2026-05-02T07:22:56Z</time></trkpt><trkpt lat="41.91994198759666" lon="2.909877017551379"><ele>381.0</ele><time>2026-05-02T07:22:57Z</time></trkpt><trkpt lat="41.919974273045604" lon="2.909952840793045"><ele>381.0</ele><time>2026-05-02T07:22:58Z</time></trkpt><trkpt lat="41.92001147362354" lon="2.9100319322874437"><ele>381.0</ele><time>2026-05-02T07:22:59Z</time></trkpt><trkpt lat="41.920088112060164" lon="2.9101443846571913"><ele>381.0</ele><time>2026-05-02T07:23:01Z</time></trkpt><trkpt lat="41.920140698453025" lon="2.9102652397724564"><ele>381.0</ele><time>2026-05-02T07:23:03Z</time></trkpt><trkpt lat="41.92017518729285" lon="2.9103771868918966"><ele>382.3333333333333</ele><time>2026-05-02T07:23:05Z</time></trkpt><trkpt lat="41.92021630016153" lon="2.91046121498553"><ele>383.66666666666663</ele><time>2026-05-02T07:23:07Z</time></trkpt><trkpt lat="41.920254472833925" lon="2.910536916008088"><ele>385.0</ele><time>2026-05-02T07:23:09Z</time></trkpt><trkpt lat="41.92029312425246" lon="2.910608585949854"><ele>386.3333333333333</ele><time>2026-05-02T07:23:12Z</time></trkpt><trkpt lat="41.92033384017791" lon="2.910683745266394"><ele>387.66666666666663</ele><time>2026-05-02T07:23:14Z</time></trkpt><trkpt lat="41.92040014374341" lon="2.910793636434461"><ele>389.0</ele><time>2026-05-02T07:23:16Z</time></trkpt><trkpt lat="41.92045257709614" lon="2.9108610687626095"><ele>390.66666666666663</ele><time>2026-05-02T07:23:18Z</time></trkpt><trkpt lat="41.920511335522185" lon="2.910924702802737"><ele>392.3333333333333</ele><time>2026-05-02T07:23:20Z</time></trkpt><trkpt lat="41.92055140826031" lon="2.911011044935625"><ele>394.0</ele><time>2026-05-02T07:23:22Z</time></trkpt><trkpt lat="41.920578985600514" lon="2.9111241864499533"><ele>395.66666666666663</ele><time>2026-05-02T07:23:24Z</time></trkpt><trkpt lat="41.92058422530671" lon="2.911246146865672"><ele>397.3333333333333</ele><time>2026-05-02T07:23:26Z</time></trkpt><trkpt lat="41.92055608507893" lon="2.911361171496072"><ele>399.0</ele><time>2026-05-02T07:23:29Z</time></trkpt><trkpt lat="41.92053539183509" lon="2.911468815029266"><ele>399.0</ele><time>2026-05-02T07:23:30.999Z</time></trkpt><trkpt lat="41.92050830331099" lon="2.9116067580345932"><ele>399.0</ele><time>2026-05-02T07:23:34.999Z</time></trkpt><trkpt lat="41.92049855671464" lon="2.9117478633888965"><ele>399.0</ele><time>2026-05-02T07:23:38.999Z</time></trkpt><trkpt lat="41.920494345455275" lon="2.9118493533639795"><ele>399.0</ele><time>2026-05-02T07:23:41.999Z</time></trkpt><trkpt lat="41.92048737202679" lon="2.9119347689964212"><ele>399.0</ele><time>2026-05-02T07:23:43.999Z</time></trkpt><trkpt lat="41.92047076478041" lon="2.9120610248008116"><ele>399.0</ele><time>2026-05-02T07:23:46.999Z</time></trkpt><trkpt lat="41.9204621323841" lon="2.9121527733035664"><ele>399.0</ele><time>2026-05-02T07:23:48.999Z</time></trkpt><trkpt lat="41.920452778733726" lon="2.912245530024878"><ele>399.0</ele><time>2026-05-02T07:23:50.999Z</time></trkpt><trkpt lat="41.92043479391428" lon="2.912349795164182"><ele>399.0</ele><time>2026-05-02T07:23:52.999Z</time></trkpt><trkpt lat="41.92040558916834" lon="2.9124722135645733"><ele>399.0</ele><time>2026-05-02T07:23:54.999Z</time></trkpt><trkpt lat="41.9203758885059" lon="2.9125998221688136"><ele>399.0</ele><time>2026-05-02T07:23:56.999Z</time></trkpt><trkpt lat="41.92034919325895" lon="2.912703824872279"><ele>399.0</ele><time>2026-05-02T07:23:58.999Z</time></trkpt><trkpt lat="41.92046763909359" lon="2.9127830895427773"><ele>399.0</ele><time>2026-05-02T07:24:00.999Z</time></trkpt><trkpt lat="41.920555217675485" lon="2.912769606977906"><ele>399.0</ele><time>2026-05-02T07:24:02.999Z</time></trkpt><trkpt lat="41.92063039418156" lon="2.9126924269502004"><ele>399.0</ele><time>2026-05-02T07:24:04.999Z</time></trkpt><trkpt lat="41.92070259648889" lon="2.9126329411677925"><ele>399.0</ele><time>2026-05-02T07:24:06.999Z</time></trkpt><trkpt lat="41.92076720487799" lon="2.9125828852056888"><ele>399.0</ele><time>2026-05-02T07:24:08.999Z</time></trkpt><trkpt lat="41.92082960719457" lon="2.9125706702165677"><ele>399.0</ele><time>2026-05-02T07:24:10.999Z</time></trkpt><trkpt lat="41.92090321968723" lon="2.912519989733636"><ele>399.5</ele><time>2026-05-02T07:24:13.999Z</time></trkpt><trkpt lat="41.920972681325814" lon="2.912513927483486"><ele>400.0</ele><time>2026-05-02T07:24:16.999Z</time></trkpt><trkpt lat="41.92105134662307" lon="2.9124878356482573"><ele>400.5</ele><time>2026-05-02T07:24:19.999Z</time></trkpt><trkpt lat="41.92112398387824" lon="2.9124536348002557"><ele>401.0</ele><time>2026-05-02T07:24:22.999Z</time></trkpt><trkpt lat="41.92120338646252" lon="2.9124006954425914"><ele>401.5</ele><time>2026-05-02T07:24:25.999Z</time></trkpt><trkpt lat="41.92128120797524" lon="2.912383969756678"><ele>402.0</ele><time>2026-05-02T07:24:29Z</time></trkpt><trkpt lat="41.9213669317512" lon="2.9123549886993225"><ele>402.0</ele><time>2026-05-02T07:24:32Z</time></trkpt><trkpt lat="41.92144644322829" lon="2.912345992753373"><ele>402.0</ele><time>2026-05-02T07:24:35Z</time></trkpt><trkpt lat="41.92150978594355" lon="2.9123384349997985"><ele>402.0</ele><time>2026-05-02T07:24:37Z</time></trkpt><trkpt lat="41.921579287920444" lon="2.9123446605464665"><ele>402.0</ele><time>2026-05-02T07:24:40Z</time></trkpt><trkpt lat="41.92167388140878" lon="2.912328372262373"><ele>402.0</ele><time>2026-05-02T07:24:43Z</time></trkpt><trkpt lat="41.92183217614334" lon="2.9123351747272057"><ele>402.6</ele><time>2026-05-02T07:24:45Z</time></trkpt><trkpt lat="41.92194703504639" lon="2.9123538385052004"><ele>403.20000000000005</ele><time>2026-05-02T07:24:47Z</time></trkpt><trkpt lat="41.92206323142751" lon="2.912392891598315"><ele>403.8</ele><time>2026-05-02T07:24:49Z</time></trkpt><trkpt lat="41.92216627354093" lon="2.912471471070118"><ele>404.4</ele><time>2026-05-02T07:24:51Z</time></trkpt><trkpt lat="41.92222343923648" lon="2.912510769796838"><ele>405.0</ele><time>2026-05-02T07:24:52Z</time></trkpt><trkpt lat="41.92228576867003" lon="2.9125422017690012"><ele>405.1666666666667</ele><time>2026-05-02T07:24:53Z</time></trkpt><trkpt lat="41.92234076182818" lon="2.912583717978208"><ele>405.33333333333337</ele><time>2026-05-02T07:24:54Z</time></trkpt><trkpt lat="41.92244470907814" lon="2.9126793892726206"><ele>405.5</ele><time>2026-05-02T07:24:56Z</time></trkpt><trkpt lat="41.92255819140472" lon="2.912755502918399"><ele>405.6666666666667</ele><time>2026-05-02T07:24:58Z</time></trkpt><trkpt lat="41.92261467336308" lon="2.912793725627259"><ele>405.83333333333337</ele><time>2026-05-02T07:24:59Z</time></trkpt><trkpt lat="41.9226730975619" lon="2.9128283080440642"><ele>406.0</ele><time>2026-05-02T07:25:00Z</time></trkpt><trkpt lat="41.922750805103576" lon="2.912868805734433"><ele>402.0</ele><time>2026-05-02T07:25:02Z</time></trkpt><trkpt lat="41.92120338646252" lon="2.9124006954425914"><ele>402.0</ele><time>2026-05-02T07:24:25.999Z</time></trkpt><trkpt lat="41.92128120797524" lon="2.912383969756678"><ele>402.0</ele><time>2026-05-02T07:24:29Z</time></trkpt><trkpt lat="41.9213669317512" lon="2.9123549886993225"><ele>402.0</ele><time>2026-05-02T07:24:32Z</time></trkpt><trkpt lat="41.92144644322829" lon="2.912345992753373"><ele>402.0</ele><time>2026-05-02T07:24:35Z</time></trkpt><trkpt lat="41.92150978594355" lon="2.9123384349997985"><ele>402.0</ele><time>2026-05-02T07:24:37Z</time></trkpt><trkpt lat="41.921579287920444" lon="2.9123446605464665"><ele>402.0</ele><time>2026-05-02T07:24:40Z</time></trkpt><trkpt lat="41.92167388140878" lon="2.912328372262373"><ele>402.75</ele><time>2026-05-02T07:24:43Z</time></trkpt><trkpt lat="41.92183217614334" lon="2.9123351747272057"><ele>403.5</ele><time>2026-05-02T07:24:45Z</time></trkpt><trkpt lat="41.92194703504639" lon="2.9123538385052004"><ele>404.25</ele><time>2026-05-02T07:24:47Z</time></trkpt><trkpt lat="41.92206323142751" lon="2.912392891598315"><ele>405.0</ele><time>2026-05-02T07:24:49Z</time></trkpt><trkpt lat="41.92216627354093" lon="2.912471471070118"><ele>405.0</ele><time>2026-05-02T07:24:51Z</time></trkpt><trkpt lat="41.92222343923648" lon="2.912510769796838"><ele>405.0</ele><time>2026-05-02T07:24:52Z</time></trkpt><trkpt lat="41.92228576867003" lon="2.9125422017690012"><ele>405.0</ele><time>2026-05-02T07:24:53Z</time></trkpt><trkpt lat="41.92234076182818" lon="2.912583717978208"><ele>405.0</ele><time>2026-05-02T07:24:54Z</time></trkpt><trkpt lat="41.92244470907814" lon="2.9126793892726206"><ele>405.0</ele><time>2026-05-02T07:24:56Z</time></trkpt><trkpt lat="41.92255819140472" lon="2.912755502918399"><ele>405.0</ele><time>2026-05-02T07:24:58Z</time></trkpt><trkpt lat="41.92261467336308" lon="2.912793725627259"><ele>405.1666666666667</ele><time>2026-05-02T07:24:59Z</time></trkpt><trkpt lat="41.9226730975619" lon="2.9128283080440642"><ele>405.33333333333337</ele><time>2026-05-02T07:25:00Z</time></trkpt><trkpt lat="41.922750805103576" lon="2.912868805734433"><ele>405.5</ele><time>2026-05-02T07:25:02Z</time></trkpt><trkpt lat="41.92285387099781" lon="2.9129051572076285"><ele>405.6666666666667</ele><time>2026-05-02T07:25:04Z</time></trkpt><trkpt lat="41.92294654416083" lon="2.9129329888681936"><ele>405.83333333333337</ele><time>2026-05-02T07:25:06Z</time></trkpt><trkpt lat="41.92302324831045" lon="2.912955407993532"><ele>406.0</ele><time>2026-05-02T07:25:08Z</time></trkpt><trkpt lat="41.923134853062805" lon="2.912982188146792"><ele>406.0</ele><time>2026-05-02T07:25:10Z</time></trkpt><trkpt lat="41.923249997813905" lon="2.9130244717705263"><ele>406.0</ele><time>2026-05-02T07:25:12Z</time></trkpt><trkpt lat="41.92331510424521" lon="2.9130269813351792"><ele>406.0</ele><time>2026-05-02T07:25:13Z</time></trkpt><trkpt lat="41.92343384084799" lon="2.913006361385073"><ele>406.0</ele><time>2026-05-02T07:25:15Z</time></trkpt><trkpt lat="41.923541245655244" lon="2.912972578146866"><ele>406.0</ele><time>2026-05-02T07:25:17Z</time></trkpt><trkpt lat="41.92365213321377" lon="2.912927698433679"><ele>406.0</ele><time>2026-05-02T07:25:19Z</time></trkpt><trkpt lat="41.92375101974439" lon="2.912867177223051"><ele>406.0</ele><time>2026-05-02T07:25:21Z</time></trkpt><trkpt lat="41.92385505256005" lon="2.912825658996367"><ele>406.0</ele><time>2026-05-02T07:25:23Z</time></trkpt><trkpt lat="41.92395689324815" lon="2.912791399754357"><ele>406.0</ele><time>2026-05-02T07:25:25Z</time></trkpt><trkpt lat="41.92405392435145" lon="2.9127661211355016"><ele>406.0</ele><time>2026-05-02T07:25:27Z</time></trkpt><trkpt lat="41.92413855764787" lon="2.91274908287318"><ele>406.00000000000006</ele><time>2026-05-02T07:25:29Z</time></trkpt><trkpt lat="41.92421504781372" lon="2.9127531547601393"><ele>406.0</ele><time>2026-05-02T07:25:31Z</time></trkpt><trkpt lat="41.924286734960255" lon="2.9127502351782892"><ele>406.0</ele><time>2026-05-02T07:25:33Z</time></trkpt><trkpt lat="41.92437957921227" lon="2.912750577797495"><ele>406.0</ele><time>2026-05-02T07:25:36Z</time></trkpt><trkpt lat="41.92447292546281" lon="2.912747774821573"><ele>406.00000000000006</ele><time>2026-05-02T07:25:38.999Z</time></trkpt><trkpt lat="41.92453843239976" lon="2.912754665604328"><ele>406.0</ele><time>2026-05-02T07:25:40.999Z</time></trkpt><trkpt lat="41.92461342452813" lon="2.9127483793286957"><ele>406.20000000000005</ele><time>2026-05-02T07:25:42.999Z</time></trkpt><trkpt lat="41.92468964469296" lon="2.912770690166239"><ele>406.40000000000003</ele><time>2026-05-02T07:25:44.999Z</time></trkpt><trkpt lat="41.92476715237895" lon="2.9128403636939466"><ele>406.6</ele><time>2026-05-02T07:25:46.999Z</time></trkpt><trkpt lat="41.92485463914943" lon="2.912861277246973"><ele>406.8</ele><time>2026-05-02T07:25:48.999Z</time></trkpt><trkpt lat="41.9249558976603" lon="2.9128967633321623"><ele>407.0</ele><time>2026-05-02T07:25:50.999Z</time></trkpt><trkpt lat="41.92517298427079" lon="2.912970405776488"><ele>406.99999999999994</ele><time>2026-05-02T07:25:53.999Z</time></trkpt><trkpt lat="41.925283068393334" lon="2.913014913680783"><ele>407.0</ele><time>2026-05-02T07:25:55.999Z</time></trkpt><trkpt lat="41.92534131268969" lon="2.913048403317514"><ele>407.0</ele><time>2026-05-02T07:25:56.999Z</time></trkpt><trkpt lat="41.92540039035808" lon="2.9130883845005076"><ele>407.0</ele><time>2026-05-02T07:25:57.999Z</time></trkpt><trkpt lat="41.92546192661414" lon="2.91314091103815"><ele>406.99999999999994</ele><time>2026-05-02T07:25:58.999Z</time></trkpt><trkpt lat="41.925522516137036" lon="2.913190733532863"><ele>407.0</ele><time>2026-05-02T07:25:59.999Z</time></trkpt><trkpt lat="41.92558759408843" lon="2.9132458879102265"><ele>406.99999999999994</ele><time>2026-05-02T07:26:00.999Z</time></trkpt><trkpt lat="41.9256573481241" lon="2.9133014958358436"><ele>407.0</ele><time>2026-05-02T07:26:01.999Z</time></trkpt><trkpt lat="41.92572734436002" lon="2.9133642712496153"><ele>407.0</ele><time>2026-05-02T07:26:02.999Z</time></trkpt><trkpt lat="41.92579665920875" lon="2.9134308631485677"><ele>407.0</ele><time>2026-05-02T07:26:03.999Z</time></trkpt><trkpt lat="41.92586722754945" lon="2.913495152650861"><ele>406.99999999999994</ele><time>2026-05-02T07:26:04.999Z</time></trkpt><trkpt lat="41.92594773256476" lon="2.913560735257783"><ele>407.0</ele><time>2026-05-02T07:26:05.999Z</time></trkpt><trkpt lat="41.926032238451725" lon="2.913624518913131"><ele>404.99999999999994</ele><time>2026-05-02T07:26:06.999Z</time></trkpt><trkpt lat="41.92611065034364" lon="2.913683764435809"><ele>403.0</ele><time>2026-05-02T07:26:07.999Z</time></trkpt><trkpt lat="41.92618626921165" lon="2.913743272884246"><ele>401.0</ele><time>2026-05-02T07:26:08.999Z</time></trkpt><trkpt lat="41.926259132690596" lon="2.9138035552539217"><ele>399.0</ele><time>2026-05-02T07:26:09.999Z</time></trkpt><trkpt lat="41.92632677140879" lon="2.9138664386490225"><ele>396.99999999999994</ele><time>2026-05-02T07:26:10.999Z</time></trkpt><trkpt lat="41.92639878456259" lon="2.913934356758952"><ele>395.0</ele><time>2026-05-02T07:26:11.999Z</time></trkpt><trkpt lat="41.92647746135802" lon="2.9140068046094116"><ele>395.0</ele><time>2026-05-02T07:26:12.999Z</time></trkpt><trkpt lat="41.92655139858997" lon="2.914062607871282"><ele>395.0</ele><time>2026-05-02T07:26:13.999Z</time></trkpt><trkpt lat="41.926627169000305" lon="2.9141436120886315"><ele>395.0</ele><time>2026-05-02T07:26:14.999Z</time></trkpt><trkpt lat="41.92669867362671" lon="2.9142365624873467"><ele>395.0</ele><time>2026-05-02T07:26:15.999Z</time></trkpt><trkpt lat="41.92676463275047" lon="2.9143279065835603"><ele>395.0</ele><time>2026-05-02T07:26:16.999Z</time></trkpt><trkpt lat="41.92683297911394" lon="2.9144116020610316"><ele>395.8333333333333</ele><time>2026-05-02T07:26:17.999Z</time></trkpt><trkpt lat="41.926901264909496" lon="2.9144888363714436"><ele>396.66666666666663</ele><time>2026-05-02T07:26:18.999Z</time></trkpt><trkpt lat="41.9269739798962" lon="2.914552809458538"><ele>397.5</ele><time>2026-05-02T07:26:19.999Z</time></trkpt><trkpt lat="41.9270464229999" lon="2.914615296577607"><ele>398.33333333333337</ele><time>2026-05-02T07:26:20.999Z</time></trkpt><trkpt lat="41.92711756488508" lon="2.914662841162616"><ele>399.1666666666667</ele><time>2026-05-02T07:26:21.999Z</time></trkpt><trkpt lat="41.92719174896921" lon="2.914698820469173"><ele>400.0</ele><time>2026-05-02T07:26:22.999Z</time></trkpt><trkpt lat="41.927264582008256" lon="2.914717276300894"><ele>400.00000000000006</ele><time>2026-05-02T07:26:23.999Z</time></trkpt><trkpt lat="41.92733394652648" lon="2.9147327422029288"><ele>400.0</ele><time>2026-05-02T07:26:24.999Z</time></trkpt><trkpt lat="41.9274014094042" lon="2.914710028658013"><ele>400.0</ele><time>2026-05-02T07:26:25.999Z</time></trkpt><trkpt lat="41.92749892518875" lon="2.9146487016995666"><ele>400.0</ele><time>2026-05-02T07:26:27.999Z</time></trkpt><trkpt lat="41.927579335344326" lon="2.9146201663925657"><ele>400.00000000000006</ele><time>2026-05-02T07:26:29.999Z</time></trkpt><trkpt lat="41.92765048235368" lon="2.914577373433616"><ele>400.0</ele><time>2026-05-02T07:26:32Z</time></trkpt><trkpt lat="41.927745295184955" lon="2.9145596305125903"><ele>399.6666666666667</ele><time>2026-05-02T07:26:34Z</time></trkpt><trkpt lat="41.92784165303369" lon="2.914559516831426"><ele>399.33333333333337</ele><time>2026-05-02T07:26:36Z</time></trkpt><trkpt lat="41.92790468861686" lon="2.9145733259966513"><ele>399.0</ele><time>2026-05-02T07:26:37Z</time></trkpt><trkpt lat="41.927966937131295" lon="2.914597436725015"><ele>398.66666666666663</ele><time>2026-05-02T07:26:38Z</time></trkpt><trkpt lat="41.92803234168489" lon="2.914599652180446"><ele>398.3333333333333</ele><time>2026-05-02T07:26:39Z</time></trkpt><trkpt lat="41.92813635699135" lon="2.9146067397838427"><ele>398.0</ele><time>2026-05-02T07:26:41Z</time></trkpt><trkpt lat="41.92824593840982" lon="2.9146193485857097"><ele>398.0</ele><time>2026-05-02T07:26:43Z</time></trkpt><trkpt lat="41.9283607834541" lon="2.9146305739684366"><ele>398.0</ele><time>2026-05-02T07:26:45Z</time></trkpt><trkpt lat="41.92846498467225" lon="2.914644941008599"><ele>398.0</ele><time>2026-05-02T07:26:47Z</time></trkpt><trkpt lat="41.92857160100144" lon="2.9146674586030903"><ele>398.0</ele><time>2026-05-02T07:26:49Z</time></trkpt><trkpt lat="41.92869279635576" lon="2.9146872841576594"><ele>396.79999999999995</ele><time>2026-05-02T07:26:51Z</time></trkpt><trkpt lat="41.928813221459095" lon="2.9147169074129735"><ele>395.6</ele><time>2026-05-02T07:26:53Z</time></trkpt><trkpt lat="41.92894088440535" lon="2.9147521025853"><ele>394.4</ele><time>2026-05-02T07:26:55Z</time></trkpt><trkpt lat="41.92901040707017" lon="2.9147722923724513"><ele>393.20000000000005</ele><time>2026-05-02T07:26:56Z</time></trkpt><trkpt lat="41.92907377959221" lon="2.914791491032568"><ele>392.0</ele><time>2026-05-02T07:26:57Z</time></trkpt><trkpt lat="41.92918812608114" lon="2.914810066087918"><ele>391.0</ele><time>2026-05-02T07:26:59Z</time></trkpt><trkpt lat="41.92929595977703" lon="2.9148007892838654"><ele>390.0</ele><time>2026-05-02T07:27:01Z</time></trkpt><trkpt lat="41.929405321527405" lon="2.914814140029588"><ele>389.0</ele><time>2026-05-02T07:27:03Z</time></trkpt><trkpt lat="41.92950765176191" lon="2.9148660951349656"><ele>388.0</ele><time>2026-05-02T07:27:05Z</time></trkpt><trkpt lat="41.92960011690711" lon="2.914896571286859"><ele>387.0</ele><time>2026-05-02T07:27:07Z</time></trkpt><trkpt lat="41.92968786642264" lon="2.9149201052477998"><ele>387.0</ele><time>2026-05-02T07:27:09Z</time></trkpt><trkpt lat="41.92977364844292" lon="2.914924333768796"><ele>387.0</ele><time>2026-05-02T07:27:11Z</time></trkpt><trkpt lat="41.929873130201656" lon="2.91490226654188"><ele>387.0</ele><time>2026-05-02T07:27:13Z</time></trkpt><trkpt lat="41.92997570616666" lon="2.914875368648936"><ele>387.0</ele><time>2026-05-02T07:27:15Z</time></trkpt><trkpt lat="41.93007807027804" lon="2.9148748098372494"><ele>387.0</ele><time>2026-05-02T07:27:17Z</time></trkpt><trkpt lat="41.930180123084845" lon="2.914897469189998"><ele>385.20000000000005</ele><time>2026-05-02T07:27:19Z</time></trkpt><trkpt lat="41.93026873613898" lon="2.914946037667054"><ele>383.4</ele><time>2026-05-02T07:27:21Z</time></trkpt><trkpt lat="41.93034341437062" lon="2.9149968299326794"><ele>381.6</ele><time>2026-05-02T07:27:23Z</time></trkpt><trkpt lat="41.9304268048017" lon="2.915023149492034"><ele>379.79999999999995</ele><time>2026-05-02T07:27:25Z</time></trkpt><trkpt lat="41.93051756567121" lon="2.9150073651087114"><ele>378.0</ele><time>2026-05-02T07:27:27Z</time></trkpt><trkpt lat="41.93058977590883" lon="2.914917281474323"><ele>378.0</ele><time>2026-05-02T07:27:29Z</time></trkpt><trkpt lat="41.93062531680454" lon="2.9148012297987846"><ele>378.0</ele><time>2026-05-02T07:27:31Z</time></trkpt><trkpt lat="41.930599077582386" lon="2.9146841175939118"><ele>378.0</ele><time>2026-05-02T07:27:33Z</time></trkpt><trkpt lat="41.9305501150127" lon="2.914605410247333"><ele>378.0</ele><time>2026-05-02T07:27:35Z</time></trkpt><trkpt lat="41.9304775595698" lon="2.9145376960752074"><ele>378.0</ele><time>2026-05-02T07:27:37Z</time></trkpt><trkpt lat="41.93038804098263" lon="2.914474213078527"><ele>378.0</ele><time>2026-05-02T07:27:39Z</time></trkpt><trkpt lat="41.93030216024298" lon="2.914359738228868"><ele>378.0</ele><time>2026-05-02T07:27:41Z</time></trkpt><trkpt lat="41.93020246964686" lon="2.9142633280219004"><ele>378.0</ele><time>2026-05-02T07:27:43Z</time></trkpt><trkpt lat="41.93010875163275" lon="2.914149425554899"><ele>378.0</ele><time>2026-05-02T07:27:45Z</time></trkpt><trkpt lat="41.9300352469215" lon="2.9140243422796637"><ele>379.0</ele><time>2026-05-02T07:27:47Z</time></trkpt><trkpt lat="41.92998180899412" lon="2.913881861451972"><ele>380.0</ele><time>2026-05-02T07:27:48.999Z</time></trkpt><trkpt lat="41.929960274672915" lon="2.913742416448188"><ele>381.0</ele><time>2026-05-02T07:27:50.999Z</time></trkpt><trkpt lat="41.9300115049219" lon="2.913614891842029"><ele>382.0</ele><time>2026-05-02T07:27:52.999Z</time></trkpt><trkpt lat="41.93005229478515" lon="2.9135072246836287"><ele>383.0</ele><time>2026-05-02T07:27:54.999Z</time></trkpt><trkpt lat="41.93010761311955" lon="2.9133897937015925"><ele>379.83333333333337</ele><time>2026-05-02T07:27:56.999Z</time></trkpt><trkpt lat="41.93017362274869" lon="2.9132667316887098"><ele>376.6666666666667</ele><time>2026-05-02T07:27:58.999Z</time></trkpt><trkpt lat="41.93019854050823" lon="2.9131833705620958"><ele>373.5</ele><time>2026-05-02T07:27:59.999Z</time></trkpt><trkpt lat="41.930211639836756" lon="2.913099387583268"><ele>370.3333333333333</ele><time>2026-05-02T07:28:00.999Z</time></trkpt><trkpt lat="41.93022630321576" lon="2.9130164799039457"><ele>367.16666666666663</ele><time>2026-05-02T07:28:01.999Z</time></trkpt><trkpt lat="41.93024088830134" lon="2.9129340148974645"><ele>364.0</ele><time>2026-05-02T07:28:02.999Z</time></trkpt><trkpt lat="41.93027586576431" lon="2.9127897076736873"><ele>364.0</ele><time>2026-05-02T07:28:04.999Z</time></trkpt><trkpt lat="41.93037260068433" lon="2.9127372207888915"><ele>364.0</ele><time>2026-05-02T07:28:06.999Z</time></trkpt><trkpt lat="41.930478868654966" lon="2.912725744150795"><ele>364.0</ele><time>2026-05-02T07:28:08.999Z</time></trkpt><trkpt lat="41.9305445561395" lon="2.9127235909598292"><ele>364.0</ele><time>2026-05-02T07:28:09.999Z</time></trkpt><trkpt lat="41.93065472910891" lon="2.912644127425783"><ele>364.0</ele><time>2026-05-02T07:28:11.999Z</time></trkpt><trkpt lat="41.93071398464682" lon="2.9125975759085696"><ele>363.16666666666663</ele><time>2026-05-02T07:28:12.999Z</time></trkpt><trkpt lat="41.93075857632667" lon="2.9125190979010736"><ele>362.3333333333333</ele><time>2026-05-02T07:28:13.999Z</time></trkpt><trkpt lat="41.93080117344429" lon="2.9124410620077703"><ele>361.5</ele><time>2026-05-02T07:28:14.999Z</time></trkpt><trkpt lat="41.93085042862467" lon="2.9123424439773067"><ele>360.6666666666667</ele><time>2026-05-02T07:28:15.999Z</time></trkpt><trkpt lat="41.93089230964882" lon="2.9122512854492806"><ele>359.83333333333337</ele><time>2026-05-02T07:28:16.999Z</time></trkpt><trkpt lat="41.9309273658642" lon="2.91215801409926"><ele>359.0</ele><time>2026-05-02T07:28:17.999Z</time></trkpt><trkpt lat="41.9309633128534" lon="2.912072634151349"><ele>359.0</ele><time>2026-05-02T07:28:18.999Z</time></trkpt><trkpt lat="41.93100042277707" lon="2.9119935237978196"><ele>359.0</ele><time>2026-05-02T07:28:19.999Z</time></trkpt><trkpt lat="41.931092773345185" lon="2.911899175862439"><ele>359.0</ele><time>2026-05-02T07:28:21.999Z</time></trkpt><trkpt lat="41.93120011048489" lon="2.911827776187758"><ele>359.0</ele><time>2026-05-02T07:28:23.999Z</time></trkpt><trkpt lat="41.93127272802367" lon="2.9118093986026907"><ele>359.0</ele><time>2026-05-02T07:28:24.999Z</time></trkpt><trkpt lat="41.931342489740345" lon="2.9117879357893726"><ele>359.0</ele><time>2026-05-02T07:28:25.999Z</time></trkpt><trkpt lat="41.93141714216829" lon="2.9117688510924404"><ele>359.0</ele><time>2026-05-02T07:28:26.999Z</time></trkpt><trkpt lat="41.9314943040251" lon="2.91174391133844"><ele>359.0</ele><time>2026-05-02T07:28:27.999Z</time></trkpt><trkpt lat="41.931614329652774" lon="2.911698963265347"><ele>359.0</ele><time>2026-05-02T07:28:29.999Z</time></trkpt><trkpt lat="41.93168301363845" lon="2.911677311054409"><ele>359.0</ele><time>2026-05-02T07:28:30.999Z</time></trkpt><trkpt lat="41.931746229540934" lon="2.911671235485964"><ele>359.0</ele><time>2026-05-02T07:28:31.999Z</time></trkpt><trkpt lat="41.93185688007603" lon="2.911651937407581"><ele>361.33333333333337</ele><time>2026-05-02T07:28:33.999Z</time></trkpt><trkpt lat="41.93194913337909" lon="2.9116325094475326"><ele>363.6666666666667</ele><time>2026-05-02T07:28:35.999Z</time></trkpt><trkpt lat="41.932033876775385" lon="2.9116131577550535"><ele>366.0</ele><time>2026-05-02T07:28:39Z</time></trkpt><trkpt lat="41.93211154097152" lon="2.9116028155600375"><ele>368.3333333333333</ele><time>2026-05-02T07:28:43Z</time></trkpt><trkpt lat="41.932175062605666" lon="2.9115749811368805"><ele>370.66666666666663</ele><time>2026-05-02T07:28:46Z</time></trkpt><trkpt lat="41.932250640471956" lon="2.9115696033825613"><ele>373.0</ele><time>2026-05-02T07:28:49Z</time></trkpt><trkpt lat="41.932330366678094" lon="2.9115702838375737"><ele>373.0</ele><time>2026-05-02T07:28:53Z</time></trkpt><trkpt lat="41.932410363231696" lon="2.9115771462888413"><ele>373.0</ele><time>2026-05-02T07:28:56Z</time></trkpt><trkpt lat="41.93247767193832" lon="2.911582444860554"><ele>373.0</ele><time>2026-05-02T07:28:58Z</time></trkpt><trkpt lat="41.932560924379686" lon="2.911625765451561"><ele>373.0</ele><time>2026-05-02T07:29:01Z</time></trkpt><trkpt lat="41.93263603675888" lon="2.911654301208515"><ele>373.0</ele><time>2026-05-02T07:29:03Z</time></trkpt><trkpt lat="41.93272510364851" lon="2.911663546135969"><ele>373.0</ele><time>2026-05-02T07:29:05Z</time></trkpt><trkpt lat="41.932830626704884" lon="2.911672721946043"><ele>372.79999999999995</ele><time>2026-05-02T07:29:07Z</time></trkpt><trkpt lat="41.93294036156467" lon="2.911678903910087"><ele>372.6</ele><time>2026-05-02T07:29:09Z</time></trkpt><trkpt lat="41.933058261734175" lon="2.9116612724373314"><ele>372.4</ele><time>2026-05-02T07:29:11Z</time></trkpt><trkpt lat="41.93312308064369" lon="2.9116575940647222"><ele>372.20000000000005</ele><time>2026-05-02T07:29:12Z</time></trkpt><trkpt lat="41.93324196292679" lon="2.9116614622577828"><ele>372.0</ele><time>2026-05-02T07:29:14Z</time></trkpt><trkpt lat="41.93335334113889" lon="2.911665817025292"><ele>374.6</ele><time>2026-05-02T07:29:16Z</time></trkpt><trkpt lat="41.93345892149519" lon="2.9116684437314633"><ele>377.20000000000005</ele><time>2026-05-02T07:29:18Z</time></trkpt><trkpt lat="41.93356989059201" lon="2.911660270451619"><ele>379.8</ele><time>2026-05-02T07:29:20Z</time></trkpt><trkpt lat="41.93366958706062" lon="2.9116542363241904"><ele>382.4</ele><time>2026-05-02T07:29:22Z</time></trkpt><trkpt lat="41.933759881184876" lon="2.911658425861937"><ele>385.0</ele><time>2026-05-02T07:29:24Z</time></trkpt><trkpt lat="41.93383193917043" lon="2.911673585612389"><ele>385.00000000000006</ele><time>2026-05-02T07:29:26Z</time></trkpt><trkpt lat="41.93391337644504" lon="2.91168937110978"><ele>385.0</ele><time>2026-05-02T07:29:29Z</time></trkpt><trkpt lat="41.933979285107384" lon="2.911718475035551"><ele>385.0</ele><time>2026-05-02T07:29:32Z</time></trkpt><trkpt lat="41.93404782187152" lon="2.9117692846493624"><ele>385.0</ele><time>2026-05-02T07:29:35Z</time></trkpt><trkpt lat="41.93411671084443" lon="2.911818391886837"><ele>385.00000000000006</ele><time>2026-05-02T07:29:38Z</time></trkpt><trkpt lat="41.93419275705178" lon="2.911859349971218"><ele>385.0</ele><time>2026-05-02T07:29:41Z</time></trkpt><trkpt lat="41.934258040790354" lon="2.9119007885354296"><ele>381.6666666666667</ele><time>2026-05-02T07:29:44Z</time></trkpt><trkpt lat="41.934318422862454" lon="2.911939500977072"><ele>378.33333333333337</ele><time>2026-05-02T07:29:47Z</time></trkpt><trkpt lat="41.93437502132629" lon="2.9119782800605494"><ele>375.0</ele><time>2026-05-02T07:29:50Z</time></trkpt><trkpt lat="41.93444362535132" lon="2.9119945591808927"><ele>371.6666666666667</ele><time>2026-05-02T07:29:53Z</time></trkpt><trkpt lat="41.93451976375588" lon="2.9119549712316424"><ele>368.33333333333337</ele><time>2026-05-02T07:29:57Z</time></trkpt><trkpt lat="41.934569637910286" lon="2.9118764210769243"><ele>365.0</ele><time>2026-05-02T07:29:59.999Z</time></trkpt><trkpt lat="41.93463110839684" lon="2.911747109527992"><ele>368.4</ele><time>2026-05-02T07:30:02.999Z</time></trkpt><trkpt lat="41.93467259692505" lon="2.9116574761036973"><ele>371.8</ele><time>2026-05-02T07:30:04.999Z</time></trkpt><trkpt lat="41.9347293313995" lon="2.911518777452787"><ele>375.20000000000005</ele><time>2026-05-02T07:30:06.999Z</time></trkpt><trkpt lat="41.93481397810237" lon="2.9114308467185213"><ele>378.6</ele><time>2026-05-02T07:30:08.999Z</time></trkpt><trkpt lat="41.93487491773779" lon="2.9113164062157195"><ele>382.0</ele><time>2026-05-02T07:30:10.999Z</time></trkpt><trkpt lat="41.93496478780787" lon="2.911237173934819"><ele>381.40000000000003</ele><time>2026-05-02T07:30:12.999Z</time></trkpt><trkpt lat="41.935060759442216" lon="2.911184454412531"><ele>380.8</ele><time>2026-05-02T07:30:14.999Z</time></trkpt><trkpt lat="41.935151183408344" lon="2.911173238762219"><ele>380.2</ele><time>2026-05-02T07:30:16.999Z</time></trkpt><trkpt lat="41.935248920259845" lon="2.911200457710753"><ele>379.6</ele><time>2026-05-02T07:30:18.999Z</time></trkpt><trkpt lat="41.93534000492901" lon="2.9112149532782405"><ele>379.0</ele><time>2026-05-02T07:30:20.999Z</time></trkpt><trkpt lat="41.935418131684806" lon="2.911218979293048"><ele>379.0</ele><time>2026-05-02T07:30:22.999Z</time></trkpt><trkpt lat="41.93548215616979" lon="2.911224807441494"><ele>379.0</ele><time>2026-05-02T07:30:24.999Z</time></trkpt><trkpt lat="41.93556833768557" lon="2.911176127009556"><ele>379.0</ele><time>2026-05-02T07:30:27.999Z</time></trkpt><trkpt lat="41.93563632451857" lon="2.911134215523307"><ele>379.0</ele><time>2026-05-02T07:30:29.999Z</time></trkpt><trkpt lat="41.935699814667736" lon="2.911075845881922"><ele>379.0</ele><time>2026-05-02T07:30:31.999Z</time></trkpt><trkpt lat="41.9357854669348" lon="2.911052455345666"><ele>379.0</ele><time>2026-05-02T07:30:33.999Z</time></trkpt><trkpt lat="41.93587943574448" lon="2.9110423014865754"><ele>379.4</ele><time>2026-05-02T07:30:35.999Z</time></trkpt><trkpt lat="41.93598029238853" lon="2.9110060471641095"><ele>379.79999999999995</ele><time>2026-05-02T07:30:37.999Z</time></trkpt><trkpt lat="41.936083627809815" lon="2.910950938812221"><ele>380.20000000000005</ele><time>2026-05-02T07:30:39.999Z</time></trkpt><trkpt lat="41.93617832124292" lon="2.910888241243331"><ele>380.6</ele><time>2026-05-02T07:30:41.999Z</time></trkpt><trkpt lat="41.936278535906624" lon="2.9108209997575356"><ele>381.0</ele><time>2026-05-02T07:30:44Z</time></trkpt><trkpt lat="41.93638757376367" lon="2.910776802112901"><ele>381.0</ele><time>2026-05-02T07:30:46Z</time></trkpt><trkpt lat="41.93650165396558" lon="2.9107532094601836"><ele>381.0</ele><time>2026-05-02T07:30:48Z</time></trkpt><trkpt lat="41.93661038266786" lon="2.9107493148023065"><ele>381.0</ele><time>2026-05-02T07:30:50Z</time></trkpt><trkpt lat="41.93670865890469" lon="2.9107807671019694"><ele>381.0</ele><time>2026-05-02T07:30:52Z</time></trkpt><trkpt lat="41.93680900411008" lon="2.910832824775418"><ele>381.0</ele><time>2026-05-02T07:30:54Z</time></trkpt><trkpt lat="41.936907825175744" lon="2.910897596306024"><ele>381.20000000000005</ele><time>2026-05-02T07:30:56Z</time></trkpt><trkpt lat="41.93702012809212" lon="2.9109657471046853"><ele>381.40000000000003</ele><time>2026-05-02T07:30:58Z</time></trkpt><trkpt lat="41.93711695477785" lon="2.911051544122336"><ele>381.6</ele><time>2026-05-02T07:31:00Z</time></trkpt><trkpt lat="41.937209180691994" lon="2.911105138999101"><ele>381.8</ele><time>2026-05-02T07:31:02Z</time></trkpt><trkpt lat="41.93729265520883" lon="2.9111238329209486"><ele>382.0</ele><time>2026-05-02T07:31:04Z</time></trkpt><trkpt lat="41.93737245677506" lon="2.9111095565726592"><ele>382.0</ele><time>2026-05-02T07:31:07Z</time></trkpt><trkpt lat="41.93743943734187" lon="2.91107057907702"><ele>382.0</ele><time>2026-05-02T07:31:09Z</time></trkpt><trkpt lat="41.93752096656654" lon="2.911023353476577"><ele>382.0</ele><time>2026-05-02T07:31:11Z</time></trkpt><trkpt lat="41.937604465583526" lon="2.910939840574288"><ele>382.0</ele><time>2026-05-02T07:31:13Z</time></trkpt><trkpt lat="41.93770719476611" lon="2.9108689696870127"><ele>382.0</ele><time>2026-05-02T07:31:15Z</time></trkpt><trkpt lat="41.937798601236594" lon="2.910754135587334"><ele>379.8</ele><time>2026-05-02T07:31:17Z</time></trkpt><trkpt lat="41.93785750456564" lon="2.910709313041434"><ele>377.6</ele><time>2026-05-02T07:31:18Z</time></trkpt><trkpt lat="41.93791855262959" lon="2.9106850131409554"><ele>375.40000000000003</ele><time>2026-05-02T07:31:19Z</time></trkpt><trkpt lat="41.93803581223497" lon="2.910645487711597"><ele>373.20000000000005</ele><time>2026-05-02T07:31:21Z</time></trkpt><trkpt lat="41.938161031418346" lon="2.9106200593903537"><ele>371.0</ele><time>2026-05-02T07:31:23Z</time></trkpt><trkpt lat="41.93823295039968" lon="2.9106136231688042"><ele>371.0</ele><time>2026-05-02T07:31:24Z</time></trkpt><trkpt lat="41.93830412620745" lon="2.9106026520356405"><ele>371.0</ele><time>2026-05-02T07:31:25Z</time></trkpt><trkpt lat="41.938376402465046" lon="2.910591648907607"><ele>371.0</ele><time>2026-05-02T07:31:26Z</time></trkpt><trkpt lat="41.938447489549006" lon="2.9105781278892824"><ele>371.0</ele><time>2026-05-02T07:31:27Z</time></trkpt><trkpt lat="41.93852131636904" lon="2.91056297955546"><ele>371.0</ele><time>2026-05-02T07:31:28Z</time></trkpt><trkpt lat="41.93859787409402" lon="2.9105488285670704"><ele>371.0</ele><time>2026-05-02T07:31:29Z</time></trkpt><trkpt lat="41.93867597800049" lon="2.910527695399515"><ele>371.0</ele><time>2026-05-02T07:31:30Z</time></trkpt><trkpt lat="41.93875637686933" lon="2.9105057386512323"><ele>370.6666666666667</ele><time>2026-05-02T07:31:31Z</time></trkpt><trkpt lat="41.938834983282696" lon="2.910482937047086"><ele>370.33333333333337</ele><time>2026-05-02T07:31:32Z</time></trkpt><trkpt lat="41.93891161457318" lon="2.9104632203717173"><ele>370.0</ele><time>2026-05-02T07:31:33Z</time></trkpt><trkpt lat="41.93899005644819" lon="2.910446702143116"><ele>369.6666666666667</ele><time>2026-05-02T07:31:34Z</time></trkpt><trkpt lat="41.93906842231472" lon="2.9104380230123286"><ele>369.3333333333333</ele><time>2026-05-02T07:31:35Z</time></trkpt><trkpt lat="41.939143910731886" lon="2.9104216371739766"><ele>369.0</ele><time>2026-05-02T07:31:36Z</time></trkpt><trkpt lat="41.93921602089021" lon="2.910413576854444"><ele>369.0</ele><time>2026-05-02T07:31:37Z</time></trkpt><trkpt lat="41.93928774112945" lon="2.910408593777232"><ele>369.0</ele><time>2026-05-02T07:31:38Z</time></trkpt><trkpt lat="41.93936133740998" lon="2.910401258509874"><ele>369.0</ele><time>2026-05-02T07:31:39Z</time></trkpt><trkpt lat="41.93943421674804" lon="2.910390613962661"><ele>369.0</ele><time>2026-05-02T07:31:40Z</time></trkpt><trkpt lat="41.939503079779676" lon="2.910371931138219"><ele>369.0</ele><time>2026-05-02T07:31:41Z</time></trkpt><trkpt lat="41.93957819512751" lon="2.91035088823993"><ele>369.0</ele><time>2026-05-02T07:31:42Z</time></trkpt><trkpt lat="41.93964526902913" lon="2.9103263865080424"><ele>369.0</ele><time>2026-05-02T07:31:43Z</time></trkpt><trkpt lat="41.93976213242632" lon="2.9103053842607034"><ele>369.0</ele><time>2026-05-02T07:31:45Z</time></trkpt><trkpt lat="41.93985762694131" lon="2.9103321908056614"><ele>369.0</ele><time>2026-05-02T07:31:47Z</time></trkpt><trkpt lat="41.93992512127242" lon="2.9103734817426887"><ele>369.0</ele><time>2026-05-02T07:31:49Z</time></trkpt><trkpt lat="41.939981921092844" lon="2.9104151094785453"><ele>369.0</ele><time>2026-05-02T07:31:51Z</time></trkpt><trkpt lat="41.94003822149676" lon="2.910455903684728"><ele>369.0</ele><time>2026-05-02T07:31:53Z</time></trkpt><trkpt lat="41.940094975924765" lon="2.9105080477663643"><ele>369.0</ele><time>2026-05-02T07:31:55Z</time></trkpt><trkpt lat="41.94015714540775" lon="2.9105460741587104"><ele>369.0</ele><time>2026-05-02T07:31:57Z</time></trkpt><trkpt lat="41.940227407465386" lon="2.91057113077656"><ele>370.1666666666667</ele><time>2026-05-02T07:31:59Z</time></trkpt><trkpt lat="41.940309580889206" lon="2.9105910634397776"><ele>371.3333333333333</ele><time>2026-05-02T07:32:01Z</time></trkpt><trkpt lat="41.94039128624407" lon="2.9105971196682425"><ele>372.5</ele><time>2026-05-02T07:32:03Z</time></trkpt><trkpt lat="41.94047433943009" lon="2.9105997116426"><ele>373.66666666666663</ele><time>2026-05-02T07:32:05Z</time></trkpt><trkpt lat="41.940554172715" lon="2.9105951360700315"><ele>374.8333333333333</ele><time>2026-05-02T07:32:07Z</time></trkpt><trkpt lat="41.94062584219431" lon="2.910578467290138"><ele>376.0</ele><time>2026-05-02T07:32:08.999Z</time></trkpt><trkpt lat="41.940686156779755" lon="2.9105492381674063"><ele>376.0</ele><time>2026-05-02T07:32:10.999Z</time></trkpt><trkpt lat="41.94077573352737" lon="2.910516272268564"><ele>376.0</ele><time>2026-05-02T07:32:13.999Z</time></trkpt><trkpt lat="41.94085306972462" lon="2.910470865404417"><ele>376.0</ele><time>2026-05-02T07:32:16.999Z</time></trkpt><trkpt lat="41.940911449478" lon="2.910431429189296"><ele>376.0</ele><time>2026-05-02T07:32:19.999Z</time></trkpt><trkpt lat="41.94096697530083" lon="2.910388002141193"><ele>376.0</ele><time>2026-05-02T07:32:22.999Z</time></trkpt><trkpt lat="41.94102817911603" lon="2.910343514799918"><ele>376.0</ele><time>2026-05-02T07:32:26.999Z</time></trkpt><trkpt lat="41.941096192083265" lon="2.9102852215858968"><ele>378.3333333333333</ele><time>2026-05-02T07:32:30.999Z</time></trkpt><trkpt lat="41.94116160476028" lon="2.910220131869271"><ele>380.66666666666663</ele><time>2026-05-02T07:32:34.999Z</time></trkpt><trkpt lat="41.941229860927045" lon="2.9101634685368674"><ele>383.0</ele><time>2026-05-02T07:32:38.999Z</time></trkpt><trkpt lat="41.94128992005687" lon="2.9101123026720828"><ele>385.3333333333333</ele><time>2026-05-02T07:32:42.999Z</time></trkpt><trkpt lat="41.94133231890037" lon="2.9100488765842316"><ele>387.6666666666667</ele><time>2026-05-02T07:32:45.999Z</time></trkpt><trkpt lat="41.941399458979035" lon="2.909980381971955"><ele>390.0</ele><time>2026-05-02T07:32:48.999Z</time></trkpt><trkpt lat="41.94146337331394" lon="2.909924018772487"><ele>390.0</ele><time>2026-05-02T07:32:51Z</time></trkpt><trkpt lat="41.94153018166182" lon="2.9098857860521683"><ele>390.0</ele><time>2026-05-02T07:32:53Z</time></trkpt><trkpt lat="41.94159609511179" lon="2.9098543676445265"><ele>390.0</ele><time>2026-05-02T07:32:55Z</time></trkpt><trkpt lat="41.94166007852578" lon="2.909814722759538"><ele>390.0</ele><time>2026-05-02T07:32:57Z</time></trkpt><trkpt lat="41.941724294991104" lon="2.9097810111468005"><ele>390.0</ele><time>2026-05-02T07:32:59Z</time></trkpt><trkpt lat="41.94179016099823" lon="2.9097169239748975"><ele>390.0</ele><time>2026-05-02T07:33:02Z</time></trkpt><trkpt lat="41.94185242955411" lon="2.909632335805926"><ele>388.1666666666667</ele><time>2026-05-02T07:33:05Z</time></trkpt><trkpt lat="41.94188023978501" lon="2.909548950209508"><ele>386.3333333333333</ele><time>2026-05-02T07:33:07Z</time></trkpt><trkpt lat="41.94188665004916" lon="2.909444411420904"><ele>384.5</ele><time>2026-05-02T07:33:09Z</time></trkpt><trkpt lat="41.941901779864104" lon="2.909339029037042"><ele>382.66666666666663</ele><time>2026-05-02T07:33:11Z</time></trkpt><trkpt lat="41.94190677463898" lon="2.909254549292148"><ele>380.8333333333333</ele><time>2026-05-02T07:33:14Z</time></trkpt><trkpt lat="41.94194127561418" lon="2.9091019003008336"><ele>379.0</ele><time>2026-05-02T07:33:15Z</time></trkpt><trkpt lat="41.94194311610569" lon="2.9089710461686393"><ele>377.4</ele><time>2026-05-02T07:33:17Z</time></trkpt><trkpt lat="41.941943889100735" lon="2.908853103769969"><ele>375.79999999999995</ele><time>2026-05-02T07:33:19Z</time></trkpt><trkpt lat="41.941946261979226" lon="2.9087235950054002"><ele>374.20000000000005</ele><time>2026-05-02T07:33:21Z</time></trkpt><trkpt lat="41.94195520152264" lon="2.9085930645939966"><ele>372.6</ele><time>2026-05-02T07:33:23Z</time></trkpt><trkpt lat="41.94197848429578" lon="2.908462397818323"><ele>371.0</ele><time>2026-05-02T07:33:25Z</time></trkpt><trkpt lat="41.94198749782292" lon="2.9083343781598665"><ele>370.83333333333337</ele><time>2026-05-02T07:33:27Z</time></trkpt><trkpt lat="41.94195190935736" lon="2.908239360282635"><ele>370.6666666666667</ele><time>2026-05-02T07:33:29Z</time></trkpt><trkpt lat="41.94190588839089" lon="2.9081617251505647"><ele>370.5</ele><time>2026-05-02T07:33:31Z</time></trkpt><trkpt lat="41.941837685037335" lon="2.908098395496401"><ele>370.3333333333333</ele><time>2026-05-02T07:33:33Z</time></trkpt><trkpt lat="41.941752066972064" lon="2.908052629132766"><ele>370.16666666666663</ele><time>2026-05-02T07:33:35Z</time></trkpt><trkpt lat="41.94171174460822" lon="2.907981808564969"><ele>370.0</ele><time>2026-05-02T07:33:37Z</time></trkpt><trkpt lat="41.941630781736556" lon="2.907859512075664"><ele>372.6</ele><time>2026-05-02T07:33:39Z</time></trkpt><trkpt lat="41.94159560376764" lon="2.9077373209184354"><ele>375.2</ele><time>2026-05-02T07:33:41Z</time></trkpt><trkpt lat="41.941590112601034" lon="2.907612665067573"><ele>377.79999999999995</ele><time>2026-05-02T07:33:43Z</time></trkpt><trkpt lat="41.941594349903376" lon="2.907499581365945"><ele>380.4</ele><time>2026-05-02T07:33:45Z</time></trkpt><trkpt lat="41.94163208885422" lon="2.9073872396930964"><ele>383.0</ele><time>2026-05-02T07:33:47Z</time></trkpt><trkpt lat="41.941687794834074" lon="2.9072958729817113"><ele>380.59999999999997</ele><time>2026-05-02T07:33:49Z</time></trkpt><trkpt lat="41.94176200637641" lon="2.9072173111033472"><ele>378.2</ele><time>2026-05-02T07:33:51Z</time></trkpt><trkpt lat="41.94183378657323" lon="2.9071533643914353"><ele>375.8</ele><time>2026-05-02T07:33:53Z</time></trkpt><trkpt lat="41.941917960503254" lon="2.9070944134949808"><ele>373.4</ele><time>2026-05-02T07:33:55Z</time></trkpt><trkpt lat="41.94201043379404" lon="2.90703241339422"><ele>371.0</ele><time>2026-05-02T07:33:57Z</time></trkpt><trkpt lat="41.94209317843941" lon="2.9069752610275197"><ele>371.0</ele><time>2026-05-02T07:33:59Z</time></trkpt><trkpt lat="41.942201541660125" lon="2.906942693341281"><ele>371.0</ele><time>2026-05-02T07:34:01Z</time></trkpt><trkpt lat="41.94230268200389" lon="2.9069341218485873"><ele>371.0</ele><time>2026-05-02T07:34:03Z</time></trkpt><trkpt lat="41.94238844839199" lon="2.9069248694122245"><ele>371.0</ele><time>2026-05-02T07:34:05Z</time></trkpt><trkpt lat="41.94247246638395" lon="2.906931381444097"><ele>371.0</ele><time>2026-05-02T07:34:07Z</time></trkpt><trkpt lat="41.94255854630405" lon="2.906927504166388"><ele>371.0</ele><time>2026-05-02T07:34:09Z</time></trkpt><trkpt lat="41.942644955262594" lon="2.9069327947417243"><ele>371.0</ele><time>2026-05-02T07:34:11Z</time></trkpt><trkpt lat="41.94273567177615" lon="2.9069410600877212"><ele>371.0</ele><time>2026-05-02T07:34:13Z</time></trkpt><trkpt lat="41.942814257587685" lon="2.9069080060109513"><ele>371.0</ele><time>2026-05-02T07:34:15Z</time></trkpt><trkpt lat="41.94289329928226" lon="2.9068264918977222"><ele>371.0</ele><time>2026-05-02T07:34:17Z</time></trkpt><trkpt lat="41.9429768345136" lon="2.9067025389050967"><ele>371.0</ele><time>2026-05-02T07:34:19Z</time></trkpt><trkpt lat="41.94302858272943" lon="2.9065753072824045"><ele>371.0</ele><time>2026-05-02T07:34:21Z</time></trkpt><trkpt lat="41.94309602105208" lon="2.9064676836944234"><ele>371.0</ele><time>2026-05-02T07:34:23Z</time></trkpt><trkpt lat="41.94317323091718" lon="2.9063583133589233"><ele>371.0</ele><time>2026-05-02T07:34:24.999Z</time></trkpt><trkpt lat="41.9432556538746" lon="2.9062360069916373"><ele>371.0</ele><time>2026-05-02T07:34:26.999Z</time></trkpt><trkpt lat="41.94329103228418" lon="2.9061619107226426"><ele>371.0</ele><time>2026-05-02T07:34:27.999Z</time></trkpt><trkpt lat="41.94331300655523" lon="2.906069993109868"><ele>371.0</ele><time>2026-05-02T07:34:28.999Z</time></trkpt><trkpt lat="41.94334293741164" lon="2.9059455937962917"><ele>371.0</ele><time>2026-05-02T07:34:30.999Z</time></trkpt><trkpt lat="41.943420029226665" lon="2.9058446699679474"><ele>371.0</ele><time>2026-05-02T07:34:32.999Z</time></trkpt><trkpt lat="41.94353197450335" lon="2.905792564575505"><ele>371.0</ele><time>2026-05-02T07:34:34.999Z</time></trkpt><trkpt lat="41.9436432398372" lon="2.9058001504142053"><ele>370.6</ele><time>2026-05-02T07:34:36.999Z</time></trkpt><trkpt lat="41.943760588990344" lon="2.9058062053385045"><ele>370.20000000000005</ele><time>2026-05-02T07:34:38.999Z</time></trkpt><trkpt lat="41.943861235730424" lon="2.9058413606547817"><ele>369.79999999999995</ele><time>2026-05-02T07:34:40.999Z</time></trkpt><trkpt lat="41.943951184532814" lon="2.905913615929947"><ele>369.4</ele><time>2026-05-02T07:34:42.999Z</time></trkpt><trkpt lat="41.94403326971904" lon="2.9060212766662183"><ele>369.0</ele><time>2026-05-02T07:34:44.999Z</time></trkpt><trkpt lat="41.944104911182386" lon="2.9061472906042276"><ele>369.0</ele><time>2026-05-02T07:34:46.999Z</time></trkpt><trkpt lat="41.944179284138556" lon="2.906275988131197"><ele>369.0</ele><time>2026-05-02T07:34:48.999Z</time></trkpt><trkpt lat="41.94425264121428" lon="2.906401915712144"><ele>369.0</ele><time>2026-05-02T07:34:50.999Z</time></trkpt><trkpt lat="41.94433179309907" lon="2.906460357478206"><ele>369.0</ele><time>2026-05-02T07:34:52.999Z</time></trkpt><trkpt lat="41.944396078031396" lon="2.9064804219734994"><ele>369.0</ele><time>2026-05-02T07:34:54.999Z</time></trkpt><trkpt lat="41.944465351311166" lon="2.906399998614722"><ele>367.4</ele><time>2026-05-02T07:34:57Z</time></trkpt><trkpt lat="41.94450442954234" lon="2.9062976831187344"><ele>365.79999999999995</ele><time>2026-05-02T07:34:59Z</time></trkpt><trkpt lat="41.94455507565502" lon="2.9061740100770086"><ele>364.20000000000005</ele><time>2026-05-02T07:35:01Z</time></trkpt><trkpt lat="41.944570335902526" lon="2.9060898240816955"><ele>362.6</ele><time>2026-05-02T07:35:02Z</time></trkpt><trkpt lat="41.94458957374612" lon="2.9059180793875017"><ele>361.0</ele><time>2026-05-02T07:35:04Z</time></trkpt><trkpt lat="41.94459654207974" lon="2.9058269639108043"><ele>361.0</ele><time>2026-05-02T07:35:05Z</time></trkpt><trkpt lat="41.94460753814762" lon="2.90566110550127"><ele>361.0</ele><time>2026-05-02T07:35:07Z</time></trkpt><trkpt lat="41.94461256662557" lon="2.905570965051507"><ele>361.0</ele><time>2026-05-02T07:35:08Z</time></trkpt><trkpt lat="41.94461734625694" lon="2.905476912413811"><ele>361.0</ele><time>2026-05-02T07:35:09Z</time></trkpt><trkpt lat="41.94461997462559" lon="2.905391452577987"><ele>361.0</ele><time>2026-05-02T07:35:10Z</time></trkpt><trkpt lat="41.94462095487695" lon="2.9053030006350937"><ele>361.0</ele><time>2026-05-02T07:35:11Z</time></trkpt><trkpt lat="41.944619904493415" lon="2.9052110874224626"><ele>361.0</ele><time>2026-05-02T07:35:12Z</time></trkpt><trkpt lat="41.94461452495433" lon="2.9051250569789007"><ele>361.0</ele><time>2026-05-02T07:35:13Z</time></trkpt><trkpt lat="41.94460073449698" lon="2.9049527489742726"><ele>361.0</ele><time>2026-05-02T07:35:15Z</time></trkpt><trkpt lat="41.94459920536989" lon="2.90478308101848"><ele>361.0</ele><time>2026-05-02T07:35:17Z</time></trkpt><trkpt lat="41.94463205939531" lon="2.9046321184905044"><ele>361.0</ele><time>2026-05-02T07:35:19Z</time></trkpt><trkpt lat="41.944698860448895" lon="2.9045028388847527"><ele>361.3333333333333</ele><time>2026-05-02T07:35:21Z</time></trkpt><trkpt lat="41.94476862063688" lon="2.9043753774272454"><ele>361.66666666666663</ele><time>2026-05-02T07:35:23Z</time></trkpt><trkpt lat="41.94483432811291" lon="2.9042480143198834"><ele>362.0</ele><time>2026-05-02T07:35:25Z</time></trkpt><trkpt lat="41.94487040858101" lon="2.904177603747988"><ele>362.3333333333333</ele><time>2026-05-02T07:35:26Z</time></trkpt><trkpt lat="41.944907593286246" lon="2.9041075802986267"><ele>362.6666666666667</ele><time>2026-05-02T07:35:27Z</time></trkpt><trkpt lat="41.94494620203033" lon="2.9040378653141508"><ele>363.0</ele><time>2026-05-02T07:35:28Z</time></trkpt><trkpt lat="41.94501438782876" lon="2.903934895666778"><ele>361.2</ele><time>2026-05-02T07:35:30Z</time></trkpt><trkpt lat="41.9450930127633" lon="2.9038698641373357"><ele>359.4</ele><time>2026-05-02T07:35:32Z</time></trkpt><trkpt lat="41.945178948514865" lon="2.9038216448393652"><ele>357.59999999999997</ele><time>2026-05-02T07:35:34Z</time></trkpt><trkpt lat="41.94529561679035" lon="2.903827419806549"><ele>355.79999999999995</ele><time>2026-05-02T07:35:36Z</time></trkpt><trkpt lat="41.94541282857993" lon="2.903813406784183"><ele>354.0</ele><time>2026-05-02T07:35:38Z</time></trkpt><trkpt lat="41.945529064042084" lon="2.9037821225751936"><ele>354.0</ele><time>2026-05-02T07:35:40Z</time></trkpt><trkpt lat="41.94564587308766" lon="2.903719313024024"><ele>354.0</ele><time>2026-05-02T07:35:42Z</time></trkpt><trkpt lat="41.94571127545989" lon="2.903685682825869"><ele>354.0</ele><time>2026-05-02T07:35:43Z</time></trkpt><trkpt lat="41.945782306770354" lon="2.9036691447859653"><ele>354.0</ele><time>2026-05-02T07:35:44Z</time></trkpt><trkpt lat="41.94584884048457" lon="2.903634866460491"><ele>354.0</ele><time>2026-05-02T07:35:45Z</time></trkpt><trkpt lat="41.94594860666086" lon="2.903577165247224"><ele>354.0</ele><time>2026-05-02T07:35:47Z</time></trkpt><trkpt lat="41.946032609351526" lon="2.903541828292385"><ele>353.4</ele><time>2026-05-02T07:35:49Z</time></trkpt><trkpt lat="41.94612381668784" lon="2.9034807147617765"><ele>352.79999999999995</ele><time>2026-05-02T07:35:51Z</time></trkpt><trkpt lat="41.946195136811475" lon="2.9033686970877537"><ele>352.20000000000005</ele><time>2026-05-02T07:35:53Z</time></trkpt><trkpt lat="41.94630743069326" lon="2.903313301016309"><ele>351.6</ele><time>2026-05-02T07:35:55Z</time></trkpt><trkpt lat="41.946377008711686" lon="2.903317537023526"><ele>351.0</ele><time>2026-05-02T07:35:56Z</time></trkpt><trkpt lat="41.94645044246061" lon="2.903327074141294"><ele>352.6666666666667</ele><time>2026-05-02T07:35:57Z</time></trkpt><trkpt lat="41.94651885628244" lon="2.903334216997394"><ele>354.3333333333333</ele><time>2026-05-02T07:35:58Z</time></trkpt><trkpt lat="41.9465869159982" lon="2.9033347921203316"><ele>356.0</ele><time>2026-05-02T07:35:59Z</time></trkpt><trkpt lat="41.946651493289444" lon="2.9033371723797643"><ele>357.66666666666663</ele><time>2026-05-02T07:36:00Z</time></trkpt><trkpt lat="41.94676793567884" lon="2.9033472087410837"><ele>359.3333333333333</ele><time>2026-05-02T07:36:02Z</time></trkpt><trkpt lat="41.9468780739752" lon="2.9033617148241704"><ele>361.0</ele><time>2026-05-02T07:36:04Z</time></trkpt><trkpt lat="41.946989059467825" lon="2.903371809212839"><ele>361.0</ele><time>2026-05-02T07:36:06Z</time></trkpt><trkpt lat="41.947099753865004" lon="2.9033806039274794"><ele>361.0</ele><time>2026-05-02T07:36:08Z</time></trkpt><trkpt lat="41.94720420547212" lon="2.903383313741745"><ele>361.0</ele><time>2026-05-02T07:36:10Z</time></trkpt><trkpt lat="41.947308911379196" lon="2.9033781851309604"><ele>361.0</ele><time>2026-05-02T07:36:12Z</time></trkpt><trkpt lat="41.94742451703615" lon="2.903365968549823"><ele>361.0</ele><time>2026-05-02T07:36:14Z</time></trkpt><trkpt lat="41.947554400930876" lon="2.903386361868324"><ele>360.0</ele><time>2026-05-02T07:36:16Z</time></trkpt><trkpt lat="41.94762599692475" lon="2.9034078891374593"><ele>359.0</ele><time>2026-05-02T07:36:17Z</time></trkpt><trkpt lat="41.94769573427196" lon="2.903447008054858"><ele>358.0</ele><time>2026-05-02T07:36:18Z</time></trkpt><trkpt lat="41.947766874896644" lon="2.903489834436077"><ele>357.0</ele><time>2026-05-02T07:36:19Z</time></trkpt><trkpt lat="41.947846373370595" lon="2.903528322274221"><ele>356.0</ele><time>2026-05-02T07:36:20Z</time></trkpt><trkpt lat="41.947925512779555" lon="2.903586760219763"><ele>355.0</ele><time>2026-05-02T07:36:21Z</time></trkpt><trkpt lat="41.94800748565606" lon="2.903644459979008"><ele>355.0</ele><time>2026-05-02T07:36:22Z</time></trkpt><trkpt lat="41.94809106422635" lon="2.9037107397338433"><ele>355.0</ele><time>2026-05-02T07:36:23Z</time></trkpt><trkpt lat="41.948168226656804" lon="2.903791757278546"><ele>355.0</ele><time>2026-05-02T07:36:24Z</time></trkpt><trkpt lat="41.948237652964025" lon="2.90388797845909"><ele>355.0</ele><time>2026-05-02T07:36:25Z</time></trkpt><trkpt lat="41.94829752514353" lon="2.903988850840643"><ele>355.0</ele><time>2026-05-02T07:36:26Z</time></trkpt><trkpt lat="41.94835538079956" lon="2.904090818309824"><ele>355.0</ele><time>2026-05-02T07:36:27Z</time></trkpt><trkpt lat="41.948402128760925" lon="2.9041943883259"><ele>355.0</ele><time>2026-05-02T07:36:28Z</time></trkpt><trkpt lat="41.948441619054286" lon="2.904300033309863"><ele>355.0</ele><time>2026-05-02T07:36:29Z</time></trkpt><trkpt lat="41.94847678631393" lon="2.9044093233274175"><ele>355.0</ele><time>2026-05-02T07:36:30Z</time></trkpt><trkpt lat="41.94850574306483" lon="2.9045073787090816"><ele>355.0</ele><time>2026-05-02T07:36:31Z</time></trkpt><trkpt lat="41.94853214399419" lon="2.904602409734012"><ele>355.0</ele><time>2026-05-02T07:36:32Z</time></trkpt><trkpt lat="41.94856678529314" lon="2.904694305104874"><ele>355.0</ele><time>2026-05-02T07:36:33Z</time></trkpt><trkpt lat="41.948607585146014" lon="2.9047748675672587"><ele>355.0</ele><time>2026-05-02T07:36:33.999Z</time></trkpt><trkpt lat="41.9486626434771" lon="2.9048364154367996"><ele>355.0</ele><time>2026-05-02T07:36:34.999Z</time></trkpt><trkpt lat="41.948725647521265" lon="2.904889831027715"><ele>355.0</ele><time>2026-05-02T07:36:35.999Z</time></trkpt><trkpt lat="41.94879237787162" lon="2.904937966431844"><ele>355.0</ele><time>2026-05-02T07:36:36.999Z</time></trkpt><trkpt lat="41.94885948548661" lon="2.9049860861938117"><ele>355.0</ele><time>2026-05-02T07:36:37.999Z</time></trkpt><trkpt lat="41.94893023966065" lon="2.9050359084005524"><ele>354.8333333333333</ele><time>2026-05-02T07:36:38.999Z</time></trkpt><trkpt lat="41.949002779180695" lon="2.905083257787448"><ele>354.66666666666663</ele><time>2026-05-02T07:36:39.999Z</time></trkpt><trkpt lat="41.94907438463645" lon="2.905135145699853"><ele>354.5</ele><time>2026-05-02T07:36:40.999Z</time></trkpt><trkpt lat="41.949144259922654" lon="2.90519917960248"><ele>354.3333333333333</ele><time>2026-05-02T07:36:41.999Z</time></trkpt><trkpt lat="41.949213456601115" lon="2.905275846733775"><ele>354.1666666666667</ele><time>2026-05-02T07:36:42.999Z</time></trkpt><trkpt lat="41.94927873131233" lon="2.9053607066604887"><ele>354.0</ele><time>2026-05-02T07:36:43.999Z</time></trkpt><trkpt lat="41.949353477073956" lon="2.905447716351249"><ele>354.0</ele><time>2026-05-02T07:36:44.999Z</time></trkpt><trkpt lat="41.94943760475663" lon="2.905525105294469"><ele>354.0</ele><time>2026-05-02T07:36:45.999Z</time></trkpt><trkpt lat="41.949526878412456" lon="2.9055876910943312"><ele>354.0</ele><time>2026-05-02T07:36:46.999Z</time></trkpt><trkpt lat="41.949620149170045" lon="2.9056403463707894"><ele>354.0</ele><time>2026-05-02T07:36:47.999Z</time></trkpt><trkpt lat="41.94971462158222" lon="2.905680515853108"><ele>354.0</ele><time>2026-05-02T07:36:48.999Z</time></trkpt><trkpt lat="41.94981144408076" lon="2.905709689117869"><ele>354.0</ele><time>2026-05-02T07:36:49.999Z</time></trkpt><trkpt lat="41.94990718054822" lon="2.905736064645234"><ele>354.0</ele><time>2026-05-02T07:36:50.999Z</time></trkpt><trkpt lat="41.95000257554169" lon="2.9057505917001607"><ele>354.0</ele><time>2026-05-02T07:36:51.999Z</time></trkpt><trkpt lat="41.95009706740314" lon="2.9057577199891385"><ele>354.0</ele><time>2026-05-02T07:36:52.999Z</time></trkpt><trkpt lat="41.95018715023363" lon="2.9057633927429682"><ele>354.0</ele><time>2026-05-02T07:36:53.999Z</time></trkpt><trkpt lat="41.95027482281517" lon="2.9057692791231133"><ele>355.0</ele><time>2026-05-02T07:36:54.999Z</time></trkpt><trkpt lat="41.95036019299594" lon="2.905778159321942"><ele>356.0</ele><time>2026-05-02T07:36:55.999Z</time></trkpt><trkpt lat="41.95044189485248" lon="2.9057838419615742"><ele>357.0</ele><time>2026-05-02T07:36:56.999Z</time></trkpt><trkpt lat="41.95052043684396" lon="2.9057898087531164"><ele>358.0</ele><time>2026-05-02T07:36:57.999Z</time></trkpt><trkpt lat="41.95059517437162" lon="2.9057973491284486"><ele>359.0</ele><time>2026-05-02T07:36:58.999Z</time></trkpt><trkpt lat="41.95067045151031" lon="2.9057940073724438"><ele>360.0</ele><time>2026-05-02T07:36:59.999Z</time></trkpt><trkpt lat="41.95073751918192" lon="2.905803625867905"><ele>360.0</ele><time>2026-05-02T07:37:01Z</time></trkpt><trkpt lat="41.95080827874988" lon="2.9057882366315964"><ele>360.0</ele><time>2026-05-02T07:37:02Z</time></trkpt><trkpt lat="41.95087223139582" lon="2.905780470537319"><ele>360.0</ele><time>2026-05-02T07:37:03Z</time></trkpt><trkpt lat="41.950939503926065" lon="2.9057767675281707"><ele>360.0</ele><time>2026-05-02T07:37:04Z</time></trkpt><trkpt lat="41.95106200012569" lon="2.9057519507059997"><ele>360.0</ele><time>2026-05-02T07:37:06Z</time></trkpt><trkpt lat="41.951170844634184" lon="2.9056847084697934"><ele>360.0</ele><time>2026-05-02T07:37:08Z</time></trkpt><trkpt lat="41.951261565545096" lon="2.9055885976791256"><ele>360.0</ele><time>2026-05-02T07:37:10Z</time></trkpt><trkpt lat="41.951352600435115" lon="2.9055000659359456"><ele>360.0</ele><time>2026-05-02T07:37:12Z</time></trkpt><trkpt lat="41.95146186486532" lon="2.9054538718420444"><ele>360.0</ele><time>2026-05-02T07:37:14Z</time></trkpt><trkpt lat="41.95156078952186" lon="2.905395859964536"><ele>360.0</ele><time>2026-05-02T07:37:16Z</time></trkpt><trkpt lat="41.95166571460299" lon="2.9053651992945153"><ele>360.0</ele><time>2026-05-02T07:37:18Z</time></trkpt><trkpt lat="41.95177453299356" lon="2.90535115270433"><ele>359.8</ele><time>2026-05-02T07:37:20Z</time></trkpt><trkpt lat="41.95188381306662" lon="2.9053511071681504"><ele>359.6</ele><time>2026-05-02T07:37:22Z</time></trkpt><trkpt lat="41.95198534971306" lon="2.905376162673993"><ele>359.4</ele><time>2026-05-02T07:37:24Z</time></trkpt><trkpt lat="41.95208124107446" lon="2.905406546391629"><ele>359.2</ele><time>2026-05-02T07:37:26Z</time></trkpt><trkpt lat="41.95218321469291" lon="2.905430337277641"><ele>359.0</ele><time>2026-05-02T07:37:28Z</time></trkpt><trkpt lat="41.9522896660012" lon="2.9054384958359107"><ele>359.0</ele><time>2026-05-02T07:37:30Z</time></trkpt><trkpt lat="41.95239752358033" lon="2.9054301419289508"><ele>359.0</ele><time>2026-05-02T07:37:32Z</time></trkpt><trkpt lat="41.952502442429775" lon="2.9053984656576084"><ele>359.0</ele><time>2026-05-02T07:37:34Z</time></trkpt><trkpt lat="41.95259181900969" lon="2.905355325046919"><ele>359.0</ele><time>2026-05-02T07:37:36Z</time></trkpt><trkpt lat="41.952674587470604" lon="2.9053129910815043"><ele>359.0</ele><time>2026-05-02T07:37:38Z</time></trkpt><trkpt lat="41.952753834753004" lon="2.905274485601437"><ele>359.0</ele><time>2026-05-02T07:37:40Z</time></trkpt><trkpt lat="41.95282976152359" lon="2.905239038754171"><ele>359.0</ele><time>2026-05-02T07:37:42Z</time></trkpt><trkpt lat="41.95290655254699" lon="2.905196991527375"><ele>359.0</ele><time>2026-05-02T07:37:44Z</time></trkpt><trkpt lat="41.95297685432949" lon="2.905150866485404"><ele>359.0</ele><time>2026-05-02T07:37:46Z</time></trkpt><trkpt lat="41.95303768506201" lon="2.9050884013152856"><ele>359.0</ele><time>2026-05-02T07:37:48Z</time></trkpt><trkpt lat="41.953087297574605" lon="2.905009683078024"><ele>359.0</ele><time>2026-05-02T07:37:50Z</time></trkpt><trkpt lat="41.95313661282734" lon="2.9049271592847647"><ele>360.83333333333337</ele><time>2026-05-02T07:37:52Z</time></trkpt><trkpt lat="41.953178419364264" lon="2.904845615610408"><ele>362.6666666666667</ele><time>2026-05-02T07:37:54Z</time></trkpt><trkpt lat="41.95321404616617" lon="2.9047736060190514"><ele>364.5</ele><time>2026-05-02T07:37:56Z</time></trkpt><trkpt lat="41.95324735070372" lon="2.9046945398553867"><ele>366.3333333333333</ele><time>2026-05-02T07:37:58Z</time></trkpt><trkpt lat="41.953289274120614" lon="2.9046066669551105"><ele>368.16666666666663</ele><time>2026-05-02T07:38:00Z</time></trkpt><trkpt lat="41.95333001213672" lon="2.9045083061588737"><ele>370.0</ele><time>2026-05-02T07:38:02Z</time></trkpt><trkpt lat="41.95337466473825" lon="2.9044083884723584"><ele>371.0</ele><time>2026-05-02T07:38:04Z</time></trkpt><trkpt lat="41.95340790345182" lon="2.904308642984748"><ele>372.0</ele><time>2026-05-02T07:38:06Z</time></trkpt><trkpt lat="41.95343920678145" lon="2.9041857253774213"><ele>373.0</ele><time>2026-05-02T07:38:08Z</time></trkpt><trkpt lat="41.95345736702547" lon="2.9040598697757347"><ele>374.0</ele><time>2026-05-02T07:38:10Z</time></trkpt><trkpt lat="41.95349867266582" lon="2.9039859811562616"><ele>375.0</ele><time>2026-05-02T07:38:12Z</time></trkpt><trkpt lat="41.95357480172778" lon="2.904060630013854"><ele>376.0</ele><time>2026-05-02T07:38:14Z</time></trkpt><trkpt lat="41.95361494435232" lon="2.9042172495415084"><ele>376.0</ele><time>2026-05-02T07:38:16Z</time></trkpt><trkpt lat="41.95364188394317" lon="2.904304136470178"><ele>376.0</ele><time>2026-05-02T07:38:17Z</time></trkpt><trkpt lat="41.953679914920905" lon="2.904381698995227"><ele>376.0</ele><time>2026-05-02T07:38:18Z</time></trkpt><trkpt lat="41.95372874288749" lon="2.904449881574971"><ele>376.0</ele><time>2026-05-02T07:38:19Z</time></trkpt><trkpt lat="41.95378321860374" lon="2.9045136016174036"><ele>376.0</ele><time>2026-05-02T07:38:20Z</time></trkpt><trkpt lat="41.9538354533209" lon="2.904574138012213"><ele>376.0</ele><time>2026-05-02T07:38:21Z</time></trkpt><trkpt lat="41.95388936892719" lon="2.904634270166188"><ele>376.0</ele><time>2026-05-02T07:38:22Z</time></trkpt><trkpt lat="41.953946013600444" lon="2.9046916043017754"><ele>376.0</ele><time>2026-05-02T07:38:23Z</time></trkpt><trkpt lat="41.953998061125866" lon="2.904753790530201"><ele>376.0</ele><time>2026-05-02T07:38:24Z</time></trkpt><trkpt lat="41.95405276660715" lon="2.90482259401735"><ele>376.0</ele><time>2026-05-02T07:38:25Z</time></trkpt><trkpt lat="41.95411032905063" lon="2.9048970143235726"><ele>376.0</ele><time>2026-05-02T07:38:26Z</time></trkpt><trkpt lat="41.95416238427635" lon="2.9049676692860187"><ele>376.0</ele><time>2026-05-02T07:38:27Z</time></trkpt><trkpt lat="41.95420459437575" lon="2.9050546824605883"><ele>376.0</ele><time>2026-05-02T07:38:28Z</time></trkpt><trkpt lat="41.954229584100155" lon="2.905154057171431"><ele>378.5</ele><time>2026-05-02T07:38:29Z</time></trkpt><trkpt lat="41.954235717609585" lon="2.9052514044402327"><ele>381.0</ele><time>2026-05-02T07:38:30Z</time></trkpt><trkpt lat="41.9542399204047" lon="2.9053458803965433"><ele>383.5</ele><time>2026-05-02T07:38:31Z</time></trkpt><trkpt lat="41.95426289042111" lon="2.90550802223477"><ele>386.0</ele><time>2026-05-02T07:38:33Z</time></trkpt><trkpt lat="41.954300457003065" lon="2.9055830562340597"><ele>388.50000000000006</ele><time>2026-05-02T07:38:34Z</time></trkpt><trkpt lat="41.95434320752413" lon="2.905657150543799"><ele>391.0</ele><time>2026-05-02T07:38:35Z</time></trkpt><trkpt lat="41.95439424177435" lon="2.905724341732367"><ele>391.00000000000006</ele><time>2026-05-02T07:38:36Z</time></trkpt><trkpt lat="41.95444207261407" lon="2.9057958924625864"><ele>391.0</ele><time>2026-05-02T07:38:37Z</time></trkpt><trkpt lat="41.954488286183945" lon="2.905873550745285"><ele>391.0</ele><time>2026-05-02T07:38:38Z</time></trkpt><trkpt lat="41.95450985399114" lon="2.9059681764093988"><ele>391.0</ele><time>2026-05-02T07:38:39Z</time></trkpt><trkpt lat="41.954583412919646" lon="2.906022028750891"><ele>391.00000000000006</ele><time>2026-05-02T07:38:40Z</time></trkpt><trkpt lat="41.954626430688656" lon="2.906090419475766"><ele>391.0</ele><time>2026-05-02T07:38:41Z</time></trkpt><trkpt lat="41.95467747498144" lon="2.9061831761827506"><ele>388.1666666666667</ele><time>2026-05-02T07:38:43Z</time></trkpt><trkpt lat="41.95472953151083" lon="2.906264987254529"><ele>385.33333333333337</ele><time>2026-05-02T07:38:46Z</time></trkpt><trkpt lat="41.954777679856264" lon="2.906340701529193"><ele>382.5</ele><time>2026-05-02T07:38:48.999Z</time></trkpt><trkpt lat="41.9548424969006" lon="2.906429383620073"><ele>379.6666666666667</ele><time>2026-05-02T07:38:51.999Z</time></trkpt><trkpt lat="41.954898928691776" lon="2.906476832459754"><ele>376.83333333333337</ele><time>2026-05-02T07:38:53.999Z</time></trkpt><trkpt lat="41.95496536067479" lon="2.9065308470911275"><ele>374.0</ele><time>2026-05-02T07:38:56.999Z</time></trkpt><trkpt lat="41.95502686727834" lon="2.906584408848122"><ele>373.79999999999995</ele><time>2026-05-02T07:38:58.999Z</time></trkpt><trkpt lat="41.95509813624538" lon="2.90663510266451"><ele>373.59999999999997</ele><time>2026-05-02T07:39:00.999Z</time></trkpt><trkpt lat="41.95516316629895" lon="2.9066778156772006"><ele>373.4</ele><time>2026-05-02T07:39:02.999Z</time></trkpt><trkpt lat="41.955230985514035" lon="2.906721731001389"><ele>373.2</ele><time>2026-05-02T07:39:04.999Z</time></trkpt><trkpt lat="41.95529738166846" lon="2.9067570325535703"><ele>373.0</ele><time>2026-05-02T07:39:08.001Z</time></trkpt><trkpt lat="41.95544990332641" lon="2.9068246794020385"><ele>373.0</ele><time>2026-05-02T07:39:11.001Z</time></trkpt><trkpt lat="41.95552037598477" lon="2.90685445250353"><ele>373.0</ele><time>2026-05-02T07:39:13.001Z</time></trkpt><trkpt lat="41.95558338975762" lon="2.9068898648221952"><ele>373.0</ele><time>2026-05-02T07:39:15.001Z</time></trkpt><trkpt lat="41.95564411149472" lon="2.906923645182477"><ele>373.0</ele><time>2026-05-02T07:39:17.001Z</time></trkpt><trkpt lat="41.9557042428149" lon="2.906962061239279"><ele>373.0</ele><time>2026-05-02T07:39:19.001Z</time></trkpt><trkpt lat="41.955766807109185" lon="2.906997233669345"><ele>373.0</ele><time>2026-05-02T07:39:21.001Z</time></trkpt><trkpt lat="41.95582776591505" lon="2.907027439424032"><ele>373.0</ele><time>2026-05-02T07:39:23Z</time></trkpt><trkpt lat="41.95591228877279" lon="2.9070839783159332"><ele>373.66666666666663</ele><time>2026-05-02T07:39:26Z</time></trkpt><trkpt lat="41.95600252381647" lon="2.9071207288356247"><ele>374.3333333333333</ele><time>2026-05-02T07:39:29Z</time></trkpt><trkpt lat="41.95606213175753" lon="2.9071553731556388"><ele>375.0</ele><time>2026-05-02T07:39:31Z</time></trkpt><trkpt lat="41.956130858315845" lon="2.907206480762054"><ele>375.6666666666667</ele><time>2026-05-02T07:39:33Z</time></trkpt><trkpt lat="41.956193239262184" lon="2.907237438409879"><ele>376.33333333333337</ele><time>2026-05-02T07:39:36Z</time></trkpt><trkpt lat="41.956283245329764" lon="2.907261405042784"><ele>377.0</ele><time>2026-05-02T07:39:37Z</time></trkpt><trkpt lat="41.956366438625366" lon="2.907235578007134"><ele>377.0</ele><time>2026-05-02T07:39:39Z</time></trkpt><trkpt lat="41.95645099064864" lon="2.907199360020284"><ele>377.0</ele><time>2026-05-02T07:39:41Z</time></trkpt><trkpt lat="41.956523590890434" lon="2.907144571314616"><ele>377.0</ele><time>2026-05-02T07:39:42.999Z</time></trkpt><trkpt lat="41.95657926480661" lon="2.9070940755253516"><ele>377.0</ele><time>2026-05-02T07:39:44.999Z</time></trkpt><trkpt lat="41.95664782938236" lon="2.907016299002183"><ele>377.0</ele><time>2026-05-02T07:39:47.999Z</time></trkpt><trkpt lat="41.956707715890154" lon="2.9069323415614656"><ele>377.0</ele><time>2026-05-02T07:39:50.999Z</time></trkpt><trkpt lat="41.95675456871943" lon="2.9068269236894193"><ele>375.83333333333337</ele><time>2026-05-02T07:39:53.999Z</time></trkpt><trkpt lat="41.95678910515056" lon="2.9067495406040793"><ele>374.6666666666667</ele><time>2026-05-02T07:39:55.999Z</time></trkpt><trkpt lat="41.95683414795108" lon="2.9066744745238964"><ele>373.5</ele><time>2026-05-02T07:39:57.999Z</time></trkpt><trkpt lat="41.95686100358952" lon="2.9065706688685373"><ele>372.3333333333333</ele><time>2026-05-02T07:39:59.999Z</time></trkpt><trkpt lat="41.956906185564996" lon="2.906466663201644"><ele>371.16666666666663</ele><time>2026-05-02T07:40:01.999Z</time></trkpt><trkpt lat="41.95695177368333" lon="2.906357210564844"><ele>370.0</ele><time>2026-05-02T07:40:03.999Z</time></trkpt><trkpt lat="41.957022102953175" lon="2.906273797951183"><ele>372.5</ele><time>2026-05-02T07:40:05.999Z</time></trkpt><trkpt lat="41.95711385342976" lon="2.90623943933916"><ele>375.0</ele><time>2026-05-02T07:40:07.999Z</time></trkpt><trkpt lat="41.95719805835646" lon="2.906242496068955"><ele>377.5</ele><time>2026-05-02T07:40:09.999Z</time></trkpt><trkpt lat="41.957274119281365" lon="2.9062328327584996"><ele>380.0</ele><time>2026-05-02T07:40:12.999Z</time></trkpt><trkpt lat="41.95733617122403" lon="2.906199797308769"><ele>382.50000000000006</ele><time>2026-05-02T07:40:14.999Z</time></trkpt><trkpt lat="41.95739441698645" lon="2.9061559494405222"><ele>385.0</ele><time>2026-05-02T07:40:16.999Z</time></trkpt><trkpt lat="41.957457098239914" lon="2.9061006396943356"><ele>385.00000000000006</ele><time>2026-05-02T07:40:18.999Z</time></trkpt><trkpt lat="41.95752247992471" lon="2.906050952991224"><ele>385.0</ele><time>2026-05-02T07:40:20.999Z</time></trkpt><trkpt lat="41.957607066359856" lon="2.9060387273064676"><ele>385.0</ele><time>2026-05-02T07:40:22.999Z</time></trkpt><trkpt lat="41.95768166440775" lon="2.906063326925491"><ele>385.0</ele><time>2026-05-02T07:40:24.999Z</time></trkpt><trkpt lat="41.95777438934531" lon="2.9061161065712007"><ele>385.00000000000006</ele><time>2026-05-02T07:40:27.999Z</time></trkpt><trkpt lat="41.95784348661766" lon="2.9061763757674637"><ele>385.0</ele><time>2026-05-02T07:40:29.999Z</time></trkpt><trkpt lat="41.95793288769284" lon="2.9062113882790146"><ele>385.0</ele><time>2026-05-02T07:40:31.999Z</time></trkpt><trkpt lat="41.95802685444513" lon="2.9062113990640634"><ele>385.0</ele><time>2026-05-02T07:40:33.999Z</time></trkpt><trkpt lat="41.95811964938822" lon="2.9062073886867945"><ele>385.0</ele><time>2026-05-02T07:40:35.999Z</time></trkpt><trkpt lat="41.95821761271194" lon="2.9061876882815563"><ele>385.0</ele><time>2026-05-02T07:40:37.999Z</time></trkpt><trkpt lat="41.95830900452387" lon="2.9061431848251034"><ele>385.0</ele><time>2026-05-02T07:40:39.999Z</time></trkpt><trkpt lat="41.95837629890277" lon="2.906058326832979"><ele>385.6666666666667</ele><time>2026-05-02T07:40:41.999Z</time></trkpt><trkpt lat="41.95842426341668" lon="2.905956835366605"><ele>386.33333333333337</ele><time>2026-05-02T07:40:43.999Z</time></trkpt><trkpt lat="41.95847389244979" lon="2.9058614975988486"><ele>387.0</ele><time>2026-05-02T07:40:45.999Z</time></trkpt><trkpt lat="41.958538351131416" lon="2.9057738833485978"><ele>387.66666666666663</ele><time>2026-05-02T07:40:47.999Z</time></trkpt><trkpt lat="41.95861124905363" lon="2.9057070512511705"><ele>388.3333333333333</ele><time>2026-05-02T07:40:49.999Z</time></trkpt><trkpt lat="41.95868764192161" lon="2.9056457568910172"><ele>389.0</ele><time>2026-05-02T07:40:51.999Z</time></trkpt><trkpt lat="41.95875148704732" lon="2.905571157131751"><ele>388.99999999999994</ele><time>2026-05-02T07:40:53.998Z</time></trkpt><trkpt lat="41.95882581945684" lon="2.9055238574115188"><ele>389.0</ele><time>2026-05-02T07:40:55.998Z</time></trkpt><trkpt lat="41.95888577104381" lon="2.9054589379436493"><ele>389.0</ele><time>2026-05-02T07:40:57.998Z</time></trkpt><trkpt lat="41.958926463726584" lon="2.9053674273797974"><ele>389.0</ele><time>2026-05-02T07:40:59.998Z</time></trkpt><trkpt lat="41.95894525450548" lon="2.90526151511429"><ele>388.99999999999994</ele><time>2026-05-02T07:41:01.998Z</time></trkpt><trkpt lat="41.958954893359845" lon="2.9051395934126507"><ele>389.0</ele><time>2026-05-02T07:41:03.998Z</time></trkpt><trkpt lat="41.95895379671481" lon="2.905024882200999"><ele>391.2</ele><time>2026-05-02T07:41:05.998Z</time></trkpt><trkpt lat="41.95894951868355" lon="2.9049048044654517"><ele>393.4</ele><time>2026-05-02T07:41:07.998Z</time></trkpt><trkpt lat="41.95895309002799" lon="2.9047751638615114"><ele>395.6</ele><time>2026-05-02T07:41:09.998Z</time></trkpt><trkpt lat="41.95898432347625" lon="2.9046411715108515"><ele>397.8</ele><time>2026-05-02T07:41:11.998Z</time></trkpt><trkpt lat="41.95905934637313" lon="2.904524073579425"><ele>400.0</ele><time>2026-05-02T07:41:14Z</time></trkpt><trkpt lat="41.959121277731654" lon="2.9045433508214056"><ele>401.0</ele><time>2026-05-02T07:41:15Z</time></trkpt><trkpt lat="41.95920761764336" lon="2.904474516615037"><ele>402.0</ele><time>2026-05-02T07:41:17Z</time></trkpt><trkpt lat="41.959300235435734" lon="2.904388403766257"><ele>403.0</ele><time>2026-05-02T07:41:19Z</time></trkpt><trkpt lat="41.9593773954271" lon="2.9042783701481305"><ele>404.0</ele><time>2026-05-02T07:41:21Z</time></trkpt><trkpt lat="41.95944766759404" lon="2.9041615547827293"><ele>405.0</ele><time>2026-05-02T07:41:23Z</time></trkpt><trkpt lat="41.95949558865144" lon="2.9040974888034805"><ele>404.99999999999994</ele><time>2026-05-02T07:41:24Z</time></trkpt><trkpt lat="41.959574600748034" lon="2.904093961462182"><ele>405.0</ele><time>2026-05-02T07:41:25Z</time></trkpt><trkpt lat="41.95964476943516" lon="2.904111255973246"><ele>405.0</ele><time>2026-05-02T07:41:26Z</time></trkpt><trkpt lat="41.959713813569785" lon="2.9041383408545745"><ele>405.0</ele><time>2026-05-02T07:41:27Z</time></trkpt><trkpt lat="41.959778515368875" lon="2.9041705079659947"><ele>405.0</ele><time>2026-05-02T07:41:28Z</time></trkpt><trkpt lat="41.9598421812025" lon="2.9042001133002393"><ele>404.99999999999994</ele><time>2026-05-02T07:41:29Z</time></trkpt><trkpt lat="41.9599070361624" lon="2.9042333510401614"><ele>405.0</ele><time>2026-05-02T07:41:30Z</time></trkpt><trkpt lat="41.959970303681" lon="2.9042632709656733"><ele>402.8333333333333</ele><time>2026-05-02T07:41:31Z</time></trkpt><trkpt lat="41.9600301730074" lon="2.9042991735276753"><ele>400.66666666666663</ele><time>2026-05-02T07:41:31.999Z</time></trkpt><trkpt lat="41.96009480877308" lon="2.9043364031221977"><ele>398.5</ele><time>2026-05-02T07:41:32.999Z</time></trkpt><trkpt lat="41.960163679740575" lon="2.9043780334720237"><ele>396.3333333333333</ele><time>2026-05-02T07:41:33.999Z</time></trkpt><trkpt lat="41.96023605951758" lon="2.904422535432907"><ele>394.16666666666663</ele><time>2026-05-02T07:41:34.999Z</time></trkpt><trkpt lat="41.9603103439841" lon="2.904462415709423"><ele>392.0</ele><time>2026-05-02T07:41:35.999Z</time></trkpt><trkpt lat="41.96038662146396" lon="2.90450640789253"><ele>391.99999999999994</ele><time>2026-05-02T07:41:36.999Z</time></trkpt><trkpt lat="41.96046460809887" lon="2.9045454454925683"><ele>392.0</ele><time>2026-05-02T07:41:37.999Z</time></trkpt><trkpt lat="41.960545246754215" lon="2.904573867964513"><ele>392.0</ele><time>2026-05-02T07:41:38.999Z</time></trkpt><trkpt lat="41.960624524608775" lon="2.9045978956287115"><ele>392.0</ele><time>2026-05-02T07:41:39.999Z</time></trkpt><trkpt lat="41.96070460048694" lon="2.9046270603795854"><ele>391.99999999999994</ele><time>2026-05-02T07:41:40.999Z</time></trkpt><trkpt lat="41.96078948040986" lon="2.9046545382857762"><ele>392.0</ele><time>2026-05-02T07:41:41.999Z</time></trkpt><trkpt lat="41.9608753440822" lon="2.904680899962658"><ele>392.66666666666663</ele><time>2026-05-02T07:41:42.999Z</time></trkpt><trkpt lat="41.96096071790435" lon="2.904697772675915"><ele>393.3333333333333</ele><time>2026-05-02T07:41:43.999Z</time></trkpt><trkpt lat="41.96104244574518" lon="2.904708863816243"><ele>394.0</ele><time>2026-05-02T07:41:44.999Z</time></trkpt><trkpt lat="41.961125520599154" lon="2.904720564206656"><ele>394.66666666666663</ele><time>2026-05-02T07:41:45.999Z</time></trkpt><trkpt lat="41.96120548962122" lon="2.904734942480833"><ele>395.3333333333333</ele><time>2026-05-02T07:41:46.999Z</time></trkpt><trkpt lat="41.9612828273873" lon="2.90474586378863"><ele>396.0</ele><time>2026-05-02T07:41:47.999Z</time></trkpt><trkpt lat="41.961358364462285" lon="2.9047503944980013"><ele>396.0</ele><time>2026-05-02T07:41:48.999Z</time></trkpt><trkpt lat="41.96143233714322" lon="2.904752443267383"><ele>396.0</ele><time>2026-05-02T07:41:49.999Z</time></trkpt><trkpt lat="41.961505751521095" lon="2.904748984145787"><ele>396.0</ele><time>2026-05-02T07:41:50.999Z</time></trkpt><trkpt lat="41.96157590065333" lon="2.9047348891836187"><ele>396.0</ele><time>2026-05-02T07:41:51.999Z</time></trkpt><trkpt lat="41.961643852771076" lon="2.9047217749768035"><ele>396.0</ele><time>2026-05-02T07:41:52.999Z</time></trkpt><trkpt lat="41.961707135451334" lon="2.9047033020621917"><ele>396.0</ele><time>2026-05-02T07:41:53.999Z</time></trkpt><trkpt lat="41.96181634665887" lon="2.9046455055439813"><ele>396.6666666666667</ele><time>2026-05-02T07:41:55.999Z</time></trkpt><trkpt lat="41.96193815905098" lon="2.9046033282354826"><ele>397.33333333333337</ele><time>2026-05-02T07:41:57.999Z</time></trkpt><trkpt lat="41.962007544202336" lon="2.9045701852853596"><ele>398.0</ele><time>2026-05-02T07:41:58.999Z</time></trkpt><trkpt lat="41.96207886962959" lon="2.9045348076893043"><ele>398.6666666666667</ele><time>2026-05-02T07:41:59.999Z</time></trkpt><trkpt lat="41.962152644337415" lon="2.9044906210083465"><ele>399.33333333333337</ele><time>2026-05-02T07:42:00.999Z</time></trkpt><trkpt lat="41.962222460499596" lon="2.904434788582538"><ele>400.0</ele><time>2026-05-02T07:42:01.999Z</time></trkpt><trkpt lat="41.96229708458016" lon="2.9043908784087007"><ele>400.00000000000006</ele><time>2026-05-02T07:42:02.999Z</time></trkpt><trkpt lat="41.96236718612443" lon="2.9043327658062448"><ele>400.0</ele><time>2026-05-02T07:42:03.999Z</time></trkpt><trkpt lat="41.962437184848355" lon="2.904273156716775"><ele>400.0</ele><time>2026-05-02T07:42:04.999Z</time></trkpt><trkpt lat="41.96250661025216" lon="2.904214578432281"><ele>400.0</ele><time>2026-05-02T07:42:05.999Z</time></trkpt><trkpt lat="41.962569229362046" lon="2.904152478649452"><ele>400.00000000000006</ele><time>2026-05-02T07:42:06.999Z</time></trkpt><trkpt lat="41.962632231792306" lon="2.9040825703157034"><ele>400.0</ele><time>2026-05-02T07:42:07.999Z</time></trkpt><trkpt lat="41.96269449279687" lon="2.9040166769875486"><ele>398.00000000000006</ele><time>2026-05-02T07:42:08.999Z</time></trkpt><trkpt lat="41.96274853907506" lon="2.9039592769204168"><ele>396.0</ele><time>2026-05-02T07:42:09.999Z</time></trkpt><trkpt lat="41.962802215716806" lon="2.9039089789718977"><ele>394.0</ele><time>2026-05-02T07:42:10.999Z</time></trkpt><trkpt lat="41.96285343269075" lon="2.9038551056872324"><ele>392.0</ele><time>2026-05-02T07:42:11.999Z</time></trkpt><trkpt lat="41.962905920976354" lon="2.903801479206543"><ele>390.0</ele><time>2026-05-02T07:42:12.999Z</time></trkpt><trkpt lat="41.9629637934136" lon="2.903749359026991"><ele>388.00000000000006</ele><time>2026-05-02T07:42:13.999Z</time></trkpt><trkpt lat="41.96302008021067" lon="2.9037105159832293"><ele>386.0</ele><time>2026-05-02T07:42:14.999Z</time></trkpt><trkpt lat="41.96312110846066" lon="2.9036440038784797"><ele>386.0</ele><time>2026-05-02T07:42:16.999Z</time></trkpt><trkpt lat="41.96321276337756" lon="2.9035830617475358"><ele>386.0</ele><time>2026-05-02T07:42:18.999Z</time></trkpt><trkpt lat="41.96331145787764" lon="2.9035200811461848"><ele>386.0</ele><time>2026-05-02T07:42:20.999Z</time></trkpt><trkpt lat="41.96340176544115" lon="2.9034499015886683"><ele>386.0</ele><time>2026-05-02T07:42:22.999Z</time></trkpt><trkpt lat="41.963488745307544" lon="2.9033646752593336"><ele>386.0</ele><time>2026-05-02T07:42:24.999Z</time></trkpt><trkpt lat="41.96355022755765" lon="2.9032475690105866"><ele>382.4</ele><time>2026-05-02T07:42:26.999Z</time></trkpt><trkpt lat="41.96356757338747" lon="2.9031602639776497"><ele>378.8</ele><time>2026-05-02T07:42:27.999Z</time></trkpt><trkpt lat="41.963583635815304" lon="2.903001216163396"><ele>375.2</ele><time>2026-05-02T07:42:29.999Z</time></trkpt><trkpt lat="41.963593412392065" lon="2.9028671266582173"><ele>371.59999999999997</ele><time>2026-05-02T07:42:31.999Z</time></trkpt><trkpt lat="41.96360879401259" lon="2.90275567780162"><ele>368.0</ele><time>2026-05-02T07:42:33.999Z</time></trkpt><trkpt lat="41.963630031106746" lon="2.9026490231238102"><ele>367.83333333333337</ele><time>2026-05-02T07:42:35.999Z</time></trkpt><trkpt lat="41.963677316037995" lon="2.9025589319091663"><ele>367.6666666666667</ele><time>2026-05-02T07:42:37.999Z</time></trkpt><trkpt lat="41.963751653357" lon="2.902487216797674"><ele>367.5</ele><time>2026-05-02T07:42:39.999Z</time></trkpt><trkpt lat="41.96380833810057" lon="2.902393983066319"><ele>367.3333333333333</ele><time>2026-05-02T07:42:41.999Z</time></trkpt><trkpt lat="41.96389521419359" lon="2.902331682250022"><ele>367.16666666666663</ele><time>2026-05-02T07:42:43.999Z</time></trkpt><trkpt lat="41.96396077665352" lon="2.902318893407856"><ele>367.0</ele><time>2026-05-02T07:42:44.999Z</time></trkpt><trkpt lat="41.964018899613414" lon="2.902267663485668"><ele>367.0</ele><time>2026-05-02T07:42:45.999Z</time></trkpt><trkpt lat="41.96408026925048" lon="2.9022065107186394"><ele>367.0</ele><time>2026-05-02T07:42:46.999Z</time></trkpt><trkpt lat="41.96412773171337" lon="2.9021066459483946"><ele>367.0</ele><time>2026-05-02T07:42:47.999Z</time></trkpt><trkpt lat="41.96419054281814" lon="2.902029118134538"><ele>367.0</ele><time>2026-05-02T07:42:48.999Z</time></trkpt><trkpt lat="41.96425670987414" lon="2.9019413218383527"><ele>367.0</ele><time>2026-05-02T07:42:49.999Z</time></trkpt><trkpt lat="41.964327435889004" lon="2.901858099502486"><ele>367.0</ele><time>2026-05-02T07:42:50.999Z</time></trkpt><trkpt lat="41.964398764750264" lon="2.901773311223742"><ele>364.8</ele><time>2026-05-02T07:42:51.999Z</time></trkpt><trkpt lat="41.96446918419991" lon="2.901686264768708"><ele>362.6</ele><time>2026-05-02T07:42:52.999Z</time></trkpt><trkpt lat="41.9645418153362" lon="2.9016005575540738"><ele>360.40000000000003</ele><time>2026-05-02T07:42:53.999Z</time></trkpt><trkpt lat="41.964616051070436" lon="2.901516234556542"><ele>358.20000000000005</ele><time>2026-05-02T07:42:54.999Z</time></trkpt><trkpt lat="41.96469365522564" lon="2.9014357727133318"><ele>356.0</ele><time>2026-05-02T07:42:55.999Z</time></trkpt><trkpt lat="41.964772392652655" lon="2.901364479424107"><ele>356.0</ele><time>2026-05-02T07:42:56.999Z</time></trkpt><trkpt lat="41.96485158293475" lon="2.901301123421322"><ele>356.0</ele><time>2026-05-02T07:42:57.999Z</time></trkpt><trkpt lat="41.96493315635148" lon="2.9012401343096825"><ele>356.0</ele><time>2026-05-02T07:42:58.999Z</time></trkpt><trkpt lat="41.96500773430801" lon="2.9011848198923182"><ele>356.0</ele><time>2026-05-02T07:42:59.999Z</time></trkpt><trkpt lat="41.96508736848752" lon="2.901145306828059"><ele>356.0</ele><time>2026-05-02T07:43:00.999Z</time></trkpt><trkpt lat="41.965154858298625" lon="2.901084583176245"><ele>356.0</ele><time>2026-05-02T07:43:01.999Z</time></trkpt><trkpt lat="41.96522158837165" lon="2.9010168789509563"><ele>355.0</ele><time>2026-05-02T07:43:02.999Z</time></trkpt><trkpt lat="41.96528187924866" lon="2.9009460743513977"><ele>354.0</ele><time>2026-05-02T07:43:03.999Z</time></trkpt><trkpt lat="41.965335436717126" lon="2.900864687502192"><ele>353.0</ele><time>2026-05-02T07:43:04.999Z</time></trkpt><trkpt lat="41.96537895094876" lon="2.900782061939563"><ele>352.0</ele><time>2026-05-02T07:43:05.999Z</time></trkpt><trkpt lat="41.96541962212759" lon="2.9006984217467005"><ele>351.0</ele><time>2026-05-02T07:43:06.998Z</time></trkpt><trkpt lat="41.96546096082882" lon="2.900619184603926"><ele>350.0</ele><time>2026-05-02T07:43:07.998Z</time></trkpt><trkpt lat="41.96550413250214" lon="2.900540628353534"><ele>350.0</ele><time>2026-05-02T07:43:08.998Z</time></trkpt><trkpt lat="41.96554675473918" lon="2.9004630718877222"><ele>350.0</ele><time>2026-05-02T07:43:09.998Z</time></trkpt><trkpt lat="41.96558755547828" lon="2.900388829998028"><ele>350.0</ele><time>2026-05-02T07:43:10.998Z</time></trkpt><trkpt lat="41.96563143353861" lon="2.9003136573869"><ele>350.0</ele><time>2026-05-02T07:43:11.998Z</time></trkpt><trkpt lat="41.9656744058712" lon="2.9002431526603956"><ele>350.0</ele><time>2026-05-02T07:43:12.998Z</time></trkpt><trkpt lat="41.965718083592684" lon="2.9001760498509617"><ele>350.0</ele><time>2026-05-02T07:43:13.998Z</time></trkpt><trkpt lat="41.96576175671078" lon="2.9001137417666523"><ele>350.0</ele><time>2026-05-02T07:43:14.998Z</time></trkpt><trkpt lat="41.96580840127714" lon="2.9000536876811687"><ele>352.5</ele><time>2026-05-02T07:43:15.998Z</time></trkpt><trkpt lat="41.96585448905101" lon="2.899995827969411"><ele>355.0</ele><time>2026-05-02T07:43:16.998Z</time></trkpt><trkpt lat="41.965952417613174" lon="2.8998909829122512"><ele>357.5</ele><time>2026-05-02T07:43:19Z</time></trkpt><trkpt lat="41.966005701201254" lon="2.899843929859093"><ele>360.0</ele><time>2026-05-02T07:43:20Z</time></trkpt><trkpt lat="41.96606011145771" lon="2.8998013385935697"><ele>362.5</ele><time>2026-05-02T07:43:21Z</time></trkpt><trkpt lat="41.96616300165051" lon="2.899729249770662"><ele>365.0</ele><time>2026-05-02T07:43:23Z</time></trkpt><trkpt lat="41.966265920474434" lon="2.899659673169337"><ele>365.2</ele><time>2026-05-02T07:43:25Z</time></trkpt><trkpt lat="41.966375702445696" lon="2.8996364136515655"><ele>365.4</ele><time>2026-05-02T07:43:27Z</time></trkpt><trkpt lat="41.966480878879956" lon="2.899623785711631"><ele>365.6</ele><time>2026-05-02T07:43:29Z</time></trkpt><trkpt lat="41.966578903955806" lon="2.8996431835725476"><ele>365.8</ele><time>2026-05-02T07:43:31Z</time></trkpt><trkpt lat="41.96666602660362" lon="2.899685781197919"><ele>366.0</ele><time>2026-05-02T07:43:33Z</time></trkpt><trkpt lat="41.96675645192338" lon="2.899740918704346"><ele>367.4</ele><time>2026-05-02T07:43:35Z</time></trkpt><trkpt lat="41.96683765016887" lon="2.8998029577680833"><ele>368.8</ele><time>2026-05-02T07:43:37Z</time></trkpt><trkpt lat="41.96691420908514" lon="2.899857223438763"><ele>370.2</ele><time>2026-05-02T07:43:39Z</time></trkpt><trkpt lat="41.966996500426795" lon="2.899915389727285"><ele>371.59999999999997</ele><time>2026-05-02T07:43:41Z</time></trkpt><trkpt lat="41.967091931811844" lon="2.8999678207223245"><ele>373.0</ele><time>2026-05-02T07:43:43Z</time></trkpt><trkpt lat="41.967192711645055" lon="2.900000403332376"><ele>373.0</ele><time>2026-05-02T07:43:44.999Z</time></trkpt><trkpt lat="41.96730485496766" lon="2.9000185494418127"><ele>373.0</ele><time>2026-05-02T07:43:46.999Z</time></trkpt><trkpt lat="41.96742097400425" lon="2.900050456453379"><ele>373.0</ele><time>2026-05-02T07:43:48.999Z</time></trkpt><trkpt lat="41.96753552971504" lon="2.9000825578353338"><ele>373.0</ele><time>2026-05-02T07:43:50.999Z</time></trkpt><trkpt lat="41.96763770545538" lon="2.900149314439755"><ele>371.79999999999995</ele><time>2026-05-02T07:43:52.999Z</time></trkpt><trkpt lat="41.9677389480562" lon="2.9002216387377877"><ele>370.6</ele><time>2026-05-02T07:43:54.999Z</time></trkpt><trkpt lat="41.96783895402811" lon="2.900292740061943"><ele>369.4</ele><time>2026-05-02T07:43:56.999Z</time></trkpt><trkpt lat="41.96793487372129" lon="2.900348275214845"><ele>368.20000000000005</ele><time>2026-05-02T07:43:58.999Z</time></trkpt><trkpt lat="41.96803587635891" lon="2.900366365543553"><ele>367.0</ele><time>2026-05-02T07:44:00.999Z</time></trkpt><trkpt lat="41.968129968114255" lon="2.9003190674958867"><ele>367.0</ele><time>2026-05-02T07:44:02.999Z</time></trkpt><trkpt lat="41.96821425834811" lon="2.9002220440726885"><ele>367.0</ele><time>2026-05-02T07:44:04.999Z</time></trkpt><trkpt lat="41.96827936672531" lon="2.9000879926335843"><ele>367.0</ele><time>2026-05-02T07:44:06.999Z</time></trkpt><trkpt lat="41.968351590597585" lon="2.899966873643713"><ele>367.0</ele><time>2026-05-02T07:44:08.999Z</time></trkpt><trkpt lat="41.96840116851246" lon="2.899810350572172"><ele>365.4285714285714</ele><time>2026-05-02T07:44:10.999Z</time></trkpt><trkpt lat="41.968448140376005" lon="2.8997431600713424"><ele>363.8571428571429</ele><time>2026-05-02T07:44:11.999Z</time></trkpt><trkpt lat="41.968482268495244" lon="2.899665875860512"><ele>362.2857142857143</ele><time>2026-05-02T07:44:12.999Z</time></trkpt><trkpt lat="41.968517351784335" lon="2.8995893645025994"><ele>360.71428571428567</ele><time>2026-05-02T07:44:13.999Z</time></trkpt><trkpt lat="41.96854511901616" lon="2.899502931545108"><ele>359.1428571428571</ele><time>2026-05-02T07:44:14.999Z</time></trkpt><trkpt lat="41.968592338425005" lon="2.8994342244367193"><ele>357.57142857142856</ele><time>2026-05-02T07:44:15.999Z</time></trkpt><trkpt lat="41.968642489171614" lon="2.899371171288121"><ele>356.0</ele><time>2026-05-02T07:44:16.999Z</time></trkpt><trkpt lat="41.96869495723262" lon="2.8993080080002906"><ele>357.71428571428567</ele><time>2026-05-02T07:44:17.999Z</time></trkpt><trkpt lat="41.9687464371123" lon="2.8992453818660437"><ele>359.42857142857144</ele><time>2026-05-02T07:44:18.999Z</time></trkpt><trkpt lat="41.968798219093664" lon="2.8991840264773887"><ele>361.1428571428571</ele><time>2026-05-02T07:44:19.999Z</time></trkpt><trkpt lat="41.96885498036664" lon="2.899125518528558"><ele>362.85714285714283</ele><time>2026-05-02T07:44:20.999Z</time></trkpt><trkpt lat="41.96892233898042" lon="2.8990913405923857"><ele>364.57142857142856</ele><time>2026-05-02T07:44:21.999Z</time></trkpt><trkpt lat="41.968986634682906" lon="2.8990376288339865"><ele>366.2857142857143</ele><time>2026-05-02T07:44:22.999Z</time></trkpt><trkpt lat="41.969052678006584" lon="2.8989855788912844"><ele>368.0</ele><time>2026-05-02T07:44:23.999Z</time></trkpt><trkpt lat="41.969118428060106" lon="2.898933238579541"><ele>368.0</ele><time>2026-05-02T07:44:24.999Z</time></trkpt><trkpt lat="41.969184687742974" lon="2.8988782809366085"><ele>368.0</ele><time>2026-05-02T07:44:25.999Z</time></trkpt><trkpt lat="41.96925199578558" lon="2.8988193588162314"><ele>368.0</ele><time>2026-05-02T07:44:26.999Z</time></trkpt><trkpt lat="41.96931665287521" lon="2.8987606040593366"><ele>368.0</ele><time>2026-05-02T07:44:27.999Z</time></trkpt><trkpt lat="41.969382552289034" lon="2.898699237459898"><ele>368.0</ele><time>2026-05-02T07:44:28.999Z</time></trkpt><trkpt lat="41.96944730466108" lon="2.89863508155487"><ele>368.0</ele><time>2026-05-02T07:44:29.999Z</time></trkpt><trkpt lat="41.96950905572288" lon="2.898562529373273"><ele>367.33333333333337</ele><time>2026-05-02T07:44:30.999Z</time></trkpt><trkpt lat="41.969566535290355" lon="2.8984866512927785"><ele>366.6666666666667</ele><time>2026-05-02T07:44:31.999Z</time></trkpt><trkpt lat="41.969627482391104" lon="2.8984046923059927"><ele>366.0</ele><time>2026-05-02T07:44:32.999Z</time></trkpt><trkpt lat="41.96968800723434" lon="2.898320019813179"><ele>365.3333333333333</ele><time>2026-05-02T07:44:33.999Z</time></trkpt><trkpt lat="41.9697521934849" lon="2.898242076242482"><ele>364.66666666666663</ele><time>2026-05-02T07:44:34.999Z</time></trkpt><trkpt lat="41.969820579845184" lon="2.8981734465610605"><ele>364.0</ele><time>2026-05-02T07:44:35.999Z</time></trkpt><trkpt lat="41.96989358493926" lon="2.898118782725863"><ele>364.0</ele><time>2026-05-02T07:44:36.999Z</time></trkpt><trkpt lat="41.969969547205025" lon="2.8980717953638684"><ele>364.0</ele><time>2026-05-02T07:44:37.999Z</time></trkpt><trkpt lat="41.970050236416284" lon="2.898031726916291"><ele>364.0</ele><time>2026-05-02T07:44:38.999Z</time></trkpt><trkpt lat="41.970130333773064" lon="2.89798228355085"><ele>364.0</ele><time>2026-05-02T07:44:39.999Z</time></trkpt><trkpt lat="41.97021173060683" lon="2.897931179322402"><ele>364.0</ele><time>2026-05-02T07:44:40.999Z</time></trkpt><trkpt lat="41.970294045514386" lon="2.897874515751921"><ele>364.0</ele><time>2026-05-02T07:44:41.999Z</time></trkpt><trkpt lat="41.970374825316" lon="2.8978112947955363"><ele>364.4</ele><time>2026-05-02T07:44:42.999Z</time></trkpt><trkpt lat="41.97045394890036" lon="2.897741620295596"><ele>364.79999999999995</ele><time>2026-05-02T07:44:43.999Z</time></trkpt><trkpt lat="41.97053029501787" lon="2.897671850800054"><ele>365.20000000000005</ele><time>2026-05-02T07:44:44.999Z</time></trkpt><trkpt lat="41.970605483389726" lon="2.8975972635575435"><ele>365.6</ele><time>2026-05-02T07:44:45.999Z</time></trkpt><trkpt lat="41.97068005918082" lon="2.8975146987813796"><ele>366.0</ele><time>2026-05-02T07:44:46.999Z</time></trkpt><trkpt lat="41.97075060105042" lon="2.897421857321577"><ele>366.0</ele><time>2026-05-02T07:44:47.999Z</time></trkpt><trkpt lat="41.97081141939682" lon="2.89731692848879"><ele>366.0</ele><time>2026-05-02T07:44:48.999Z</time></trkpt><trkpt lat="41.970887179591514" lon="2.8972377333159214"><ele>366.0</ele><time>2026-05-02T07:44:49.999Z</time></trkpt><trkpt lat="41.97097211523908" lon="2.8971830785956634"><ele>366.0</ele><time>2026-05-02T07:44:50.999Z</time></trkpt><trkpt lat="41.97103892748719" lon="2.8970972335380623"><ele>366.0</ele><time>2026-05-02T07:44:51.999Z</time></trkpt><trkpt lat="41.971112930928754" lon="2.8970460188000935"><ele>366.8</ele><time>2026-05-02T07:44:52.999Z</time></trkpt><trkpt lat="41.97118539286421" lon="2.8969901617490796"><ele>367.6</ele><time>2026-05-02T07:44:53.999Z</time></trkpt><trkpt lat="41.97124533327023" lon="2.8969385575819326"><ele>368.4</ele><time>2026-05-02T07:44:54.999Z</time></trkpt><trkpt lat="41.97130783692752" lon="2.896892299284318"><ele>369.2</ele><time>2026-05-02T07:44:55.999Z</time></trkpt><trkpt lat="41.97141604662371" lon="2.8968093689573053"><ele>370.0</ele><time>2026-05-02T07:44:57.999Z</time></trkpt><trkpt lat="41.97151419404275" lon="2.896725997606298"><ele>370.0</ele><time>2026-05-02T07:44:59.999Z</time></trkpt><trkpt lat="41.97162207431072" lon="2.8966788834506887"><ele>370.0</ele><time>2026-05-02T07:45:01.999Z</time></trkpt><trkpt lat="41.97172732190395" lon="2.8965890804376198"><ele>370.0</ele><time>2026-05-02T07:45:03.999Z</time></trkpt><trkpt lat="41.97178046058178" lon="2.8965312923841067"><ele>370.0</ele><time>2026-05-02T07:45:04.999Z</time></trkpt><trkpt lat="41.97182741459978" lon="2.896466356015448"><ele>370.0</ele><time>2026-05-02T07:45:05.999Z</time></trkpt><trkpt lat="41.97186621970691" lon="2.8963902719279138"><ele>370.0</ele><time>2026-05-02T07:45:06.999Z</time></trkpt><trkpt lat="41.97188075387363" lon="2.8962998693257536"><ele>370.25</ele><time>2026-05-02T07:45:07.999Z</time></trkpt><trkpt lat="41.971927219939765" lon="2.8961506336898255"><ele>370.5</ele><time>2026-05-02T07:45:09.999Z</time></trkpt><trkpt lat="41.971982144003384" lon="2.896015195705404"><ele>370.75</ele><time>2026-05-02T07:45:11.999Z</time></trkpt><trkpt lat="41.972032851465045" lon="2.8958827633380713"><ele>371.0</ele><time>2026-05-02T07:45:13.999Z</time></trkpt><trkpt lat="41.972065354194214" lon="2.895748248784286"><ele>371.0</ele><time>2026-05-02T07:45:15.998Z</time></trkpt><trkpt lat="41.97212016376322" lon="2.8956380075649224"><ele>371.0</ele><time>2026-05-02T07:45:17.998Z</time></trkpt><trkpt lat="41.97215595896572" lon="2.895531632666146"><ele>371.0</ele><time>2026-05-02T07:45:19.998Z</time></trkpt><trkpt lat="41.972191607740804" lon="2.895433417827711"><ele>371.0</ele><time>2026-05-02T07:45:21.998Z</time></trkpt><trkpt lat="41.97222921163042" lon="2.8953359256318913"><ele>371.0</ele><time>2026-05-02T07:45:23.998Z</time></trkpt><trkpt lat="41.97226760651936" lon="2.895238669004642"><ele>371.0</ele><time>2026-05-02T07:45:26Z</time></trkpt><trkpt lat="41.97232687437287" lon="2.8951667732117707"><ele>371.0</ele><time>2026-05-02T07:45:28Z</time></trkpt><trkpt lat="41.97238797851565" lon="2.895095808199625"><ele>371.0</ele><time>2026-05-02T07:45:30Z</time></trkpt><trkpt lat="41.97245807332895" lon="2.8950391424198263"><ele>371.0</ele><time>2026-05-02T07:45:32Z</time></trkpt><trkpt lat="41.97253740310118" lon="2.894995753040746"><ele>371.0</ele><time>2026-05-02T07:45:34Z</time></trkpt><trkpt lat="41.97261890077993" lon="2.8949609857132557"><ele>371.0</ele><time>2026-05-02T07:45:36Z</time></trkpt><trkpt lat="41.97270940313109" lon="2.894955319412654"><ele>371.0</ele><time>2026-05-02T07:45:38Z</time></trkpt><trkpt lat="41.97279596057187" lon="2.8949379591357056"><ele>372.8</ele><time>2026-05-02T07:45:40Z</time></trkpt><trkpt lat="41.97288984511116" lon="2.894924335198367"><ele>374.6</ele><time>2026-05-02T07:45:42Z</time></trkpt><trkpt lat="41.97299335994538" lon="2.8949300350798457"><ele>376.4</ele><time>2026-05-02T07:45:44Z</time></trkpt><trkpt lat="41.97308141168993" lon="2.894988504649917"><ele>378.2</ele><time>2026-05-02T07:45:46Z</time></trkpt><trkpt lat="41.97313584423239" lon="2.895089173517412"><ele>380.0</ele><time>2026-05-02T07:45:48Z</time></trkpt><trkpt lat="41.97316987040353" lon="2.8952166648270503"><ele>380.0</ele><time>2026-05-02T07:45:50Z</time></trkpt><trkpt lat="41.973181636076006" lon="2.8953058831573015"><ele>380.0</ele><time>2026-05-02T07:45:51Z</time></trkpt><trkpt lat="41.97317925302141" lon="2.89545720409468"><ele>380.0</ele><time>2026-05-02T07:45:53Z</time></trkpt><trkpt lat="41.97317900057572" lon="2.895614610506172"><ele>380.0</ele><time>2026-05-02T07:45:54.999Z</time></trkpt><trkpt lat="41.973200594585784" lon="2.8957642834750192"><ele>380.0</ele><time>2026-05-02T07:45:56.999Z</time></trkpt><trkpt lat="41.97327647370785" lon="2.8958784076541773"><ele>381.6</ele><time>2026-05-02T07:45:58.999Z</time></trkpt><trkpt lat="41.97339153521386" lon="2.8958975027551137"><ele>383.2</ele><time>2026-05-02T07:46:00.999Z</time></trkpt><trkpt lat="41.97349768045043" lon="2.8958706981458504"><ele>384.79999999999995</ele><time>2026-05-02T07:46:02.999Z</time></trkpt><trkpt lat="41.97356317166319" lon="2.895847112377779"><ele>386.4</ele><time>2026-05-02T07:46:03.999Z</time></trkpt><trkpt lat="41.97366854462954" lon="2.895790928399823"><ele>388.0</ele><time>2026-05-02T07:46:05.999Z</time></trkpt><trkpt lat="41.97376546992636" lon="2.895708297505495"><ele>388.0</ele><time>2026-05-02T07:46:07.999Z</time></trkpt><trkpt lat="41.97386070486124" lon="2.895617723425853"><ele>388.0</ele><time>2026-05-02T07:46:09.999Z</time></trkpt><trkpt lat="41.97394895966454" lon="2.8955210570089918"><ele>388.0</ele><time>2026-05-02T07:46:11.999Z</time></trkpt><trkpt lat="41.97403319859246" lon="2.8954175037391554"><ele>388.0</ele><time>2026-05-02T07:46:13.999Z</time></trkpt><trkpt lat="41.97412676384003" lon="2.895318767919421"><ele>391.2</ele><time>2026-05-02T07:46:15.999Z</time></trkpt><trkpt lat="41.97420439743206" lon="2.895215853969747"><ele>394.4</ele><time>2026-05-02T07:46:17.999Z</time></trkpt><trkpt lat="41.97430081445026" lon="2.895163619447204"><ele>397.59999999999997</ele><time>2026-05-02T07:46:19.999Z</time></trkpt><trkpt lat="41.97439881910105" lon="2.895200190899465"><ele>400.79999999999995</ele><time>2026-05-02T07:46:21.999Z</time></trkpt><trkpt lat="41.97446432723443" lon="2.8952722939613365"><ele>404.0</ele><time>2026-05-02T07:46:23.999Z</time></trkpt><trkpt lat="41.974487960043895" lon="2.895382055066028"><ele>404.0</ele><time>2026-05-02T07:46:25.999Z</time></trkpt><trkpt lat="41.97450802507008" lon="2.895498656271235"><ele>404.0</ele><time>2026-05-02T07:46:27.999Z</time></trkpt><trkpt lat="41.974540776820604" lon="2.8956158263151557"><ele>404.0</ele><time>2026-05-02T07:46:29.999Z</time></trkpt><trkpt lat="41.97457020209425" lon="2.8957308765206067"><ele>404.0</ele><time>2026-05-02T07:46:31.999Z</time></trkpt><trkpt lat="41.97456235079068" lon="2.895867955317006"><ele>404.0</ele><time>2026-05-02T07:46:33.999Z</time></trkpt><trkpt lat="41.97452011600045" lon="2.896007060423338"><ele>400.79999999999995</ele><time>2026-05-02T07:46:35.999Z</time></trkpt><trkpt lat="41.974460763465345" lon="2.8961270104263104"><ele>397.59999999999997</ele><time>2026-05-02T07:46:37.999Z</time></trkpt><trkpt lat="41.974417539922975" lon="2.8962548536033648"><ele>394.4</ele><time>2026-05-02T07:46:39.999Z</time></trkpt><trkpt lat="41.97438347574773" lon="2.8963914721806043"><ele>391.2</ele><time>2026-05-02T07:46:41.999Z</time></trkpt><trkpt lat="41.974385417781555" lon="2.8965353184004914"><ele>388.0</ele><time>2026-05-02T07:46:43.999Z</time></trkpt><trkpt lat="41.97444699730277" lon="2.89665637514404"><ele>388.0</ele><time>2026-05-02T07:46:45.999Z</time></trkpt><trkpt lat="41.97455035610342" lon="2.8967084748670113"><ele>388.0</ele><time>2026-05-02T07:46:47.999Z</time></trkpt><trkpt lat="41.97465446379403" lon="2.8966862874602706"><ele>388.0</ele><time>2026-05-02T07:46:49.999Z</time></trkpt><trkpt lat="41.97474627395661" lon="2.8966255640579983"><ele>388.0</ele><time>2026-05-02T07:46:51.999Z</time></trkpt><trkpt lat="41.97483924471051" lon="2.8965620096201987"><ele>388.0</ele><time>2026-05-02T07:46:53.999Z</time></trkpt><trkpt lat="41.974931242048086" lon="2.896505148918036"><ele>388.2</ele><time>2026-05-02T07:46:55.999Z</time></trkpt><trkpt lat="41.975023368590016" lon="2.896451279555188"><ele>388.4</ele><time>2026-05-02T07:46:57.999Z</time></trkpt><trkpt lat="41.97511593955096" lon="2.896404743019702"><ele>388.59999999999997</ele><time>2026-05-02T07:46:59.999Z</time></trkpt><trkpt lat="41.97520823468514" lon="2.8963482919101136"><ele>388.79999999999995</ele><time>2026-05-02T07:47:01.999Z</time></trkpt><trkpt lat="41.97530333631665" lon="2.896291967301665"><ele>389.0</ele><time>2026-05-02T07:47:03.999Z</time></trkpt><trkpt lat="41.975397166897174" lon="2.896248985194173"><ele>389.0</ele><time>2026-05-02T07:47:05.999Z</time></trkpt><trkpt lat="41.97549487593704" lon="2.8962061859698673"><ele>389.0</ele><time>2026-05-02T07:47:07.999Z</time></trkpt><trkpt lat="41.975587562848325" lon="2.8961950702774484"><ele>389.0</ele><time>2026-05-02T07:47:09.999Z</time></trkpt><trkpt lat="41.97567401497908" lon="2.896200390420566"><ele>389.0</ele><time>2026-05-02T07:47:11.999Z</time></trkpt><trkpt lat="41.97576027707658" lon="2.896193596469238"><ele>389.0</ele><time>2026-05-02T07:47:13.999Z</time></trkpt><trkpt lat="41.97585091233398" lon="2.896175082269596"><ele>390.3333333333333</ele><time>2026-05-02T07:47:15.999Z</time></trkpt><trkpt lat="41.97593512427991" lon="2.896169355029921"><ele>391.66666666666663</ele><time>2026-05-02T07:47:17.999Z</time></trkpt><trkpt lat="41.976018104027695" lon="2.8961623420355567"><ele>393.0</ele><time>2026-05-02T07:47:19.999Z</time></trkpt><trkpt lat="41.97609883439139" lon="2.8961570609363547"><ele>394.33333333333337</ele><time>2026-05-02T07:47:21.999Z</time></trkpt><trkpt lat="41.97618251513887" lon="2.896140133405127"><ele>395.6666666666667</ele><time>2026-05-02T07:47:23.999Z</time></trkpt><trkpt lat="41.976262336989606" lon="2.8961094395354414"><ele>397.0</ele><time>2026-05-02T07:47:25.999Z</time></trkpt><trkpt lat="41.97634363413425" lon="2.8960715324334054"><ele>397.00000000000006</ele><time>2026-05-02T07:47:27.998Z</time></trkpt><trkpt lat="41.97642240596896" lon="2.896025359492181"><ele>397.0</ele><time>2026-05-02T07:47:29.998Z</time></trkpt><trkpt lat="41.97649633981229" lon="2.895972611996811"><ele>397.0</ele><time>2026-05-02T07:47:32Z</time></trkpt><trkpt lat="41.97656806124547" lon="2.8959171260902234"><ele>397.0</ele><time>2026-05-02T07:47:34Z</time></trkpt><trkpt lat="41.976638139882965" lon="2.895853025381953"><ele>397.00000000000006</ele><time>2026-05-02T07:47:36Z</time></trkpt><trkpt lat="41.976711072651106" lon="2.8957898653830645"><ele>397.0</ele><time>2026-05-02T07:47:38Z</time></trkpt><trkpt lat="41.976788436160994" lon="2.895736175017649"><ele>398.33333333333337</ele><time>2026-05-02T07:47:40Z</time></trkpt><trkpt lat="41.97687790166117" lon="2.8957094701486703"><ele>399.6666666666667</ele><time>2026-05-02T07:47:42Z</time></trkpt><trkpt lat="41.976964982625205" lon="2.8957485557016156"><ele>401.0</ele><time>2026-05-02T07:47:44Z</time></trkpt><trkpt lat="41.97702630849867" lon="2.89579802196945"><ele>402.33333333333337</ele><time>2026-05-02T07:47:46Z</time></trkpt><trkpt lat="41.977085939415254" lon="2.895881048772222"><ele>403.6666666666667</ele><time>2026-05-02T07:47:48Z</time></trkpt><trkpt lat="41.97714277104932" lon="2.895963584414335"><ele>405.0</ele><time>2026-05-02T07:47:50Z</time></trkpt><trkpt lat="41.97719687496309" lon="2.89605438358247"><ele>404.6</ele><time>2026-05-02T07:47:52Z</time></trkpt><trkpt lat="41.977265284002634" lon="2.896125910360763"><ele>404.2</ele><time>2026-05-02T07:47:54Z</time></trkpt><trkpt lat="41.97734467469556" lon="2.896185040994354"><ele>403.79999999999995</ele><time>2026-05-02T07:47:56Z</time></trkpt><trkpt lat="41.977428063630605" lon="2.8962409839629157"><ele>403.4</ele><time>2026-05-02T07:47:58Z</time></trkpt><trkpt lat="41.97751464663224" lon="2.896301976674594"><ele>403.0</ele><time>2026-05-02T07:48:00Z</time></trkpt><trkpt lat="41.97760859730516" lon="2.8963685266586796"><ele>403.00000000000006</ele><time>2026-05-02T07:48:02Z</time></trkpt><trkpt lat="41.977710439226826" lon="2.896424721130088"><ele>403.0</ele><time>2026-05-02T07:48:04Z</time></trkpt><trkpt lat="41.977812508503796" lon="2.896522941818132"><ele>403.0</ele><time>2026-05-02T07:48:05.999Z</time></trkpt><trkpt lat="41.97788188739096" lon="2.896555672769992"><ele>403.0</ele><time>2026-05-02T07:48:06.999Z</time></trkpt><trkpt lat="41.97793449924945" lon="2.89661335300017"><ele>403.00000000000006</ele><time>2026-05-02T07:48:07.999Z</time></trkpt><trkpt lat="41.977983556992584" lon="2.896682880701733"><ele>403.0</ele><time>2026-05-02T07:48:08.999Z</time></trkpt><trkpt lat="41.978032319336045" lon="2.8967465093009355"><ele>404.5714285714286</ele><time>2026-05-02T07:48:09.999Z</time></trkpt><trkpt lat="41.978078061580256" lon="2.8968140821148776"><ele>406.1428571428571</ele><time>2026-05-02T07:48:10.999Z</time></trkpt><trkpt lat="41.978129577250314" lon="2.896879666040888"><ele>407.7142857142857</ele><time>2026-05-02T07:48:11.999Z</time></trkpt><trkpt lat="41.978187178328376" lon="2.896939456915575"><ele>409.28571428571433</ele><time>2026-05-02T07:48:12.999Z</time></trkpt><trkpt lat="41.97824918794367" lon="2.896984603169857"><ele>410.8571428571429</ele><time>2026-05-02T07:48:13.999Z</time></trkpt><trkpt lat="41.97832258931274" lon="2.89700642588068"><ele>412.42857142857144</ele><time>2026-05-02T07:48:14.999Z</time></trkpt><trkpt lat="41.978392280294216" lon="2.8970025312437624"><ele>414.0</ele><time>2026-05-02T07:48:15.999Z</time></trkpt><trkpt lat="41.97845597460875" lon="2.897016764364395"><ele>410.0</ele><time>2026-05-02T07:48:16.999Z</time></trkpt><trkpt lat="41.9785585654473" lon="2.8970905209720894"><ele>406.0</ele><time>2026-05-02T07:48:18.999Z</time></trkpt><trkpt lat="41.9786183008809" lon="2.897227091877072"><ele>402.0</ele><time>2026-05-02T07:48:20.999Z</time></trkpt><trkpt lat="41.978651754490535" lon="2.897305762046651"><ele>398.0</ele><time>2026-05-02T07:48:21.999Z</time></trkpt><trkpt lat="41.978683334917676" lon="2.8973799931999284"><ele>394.0</ele><time>2026-05-02T07:48:22.999Z</time></trkpt><trkpt lat="41.97871700514717" lon="2.8974516560662296"><ele>390.0</ele><time>2026-05-02T07:48:23.999Z</time></trkpt><trkpt lat="41.978755490256745" lon="2.8975238870537945"><ele>391.6666666666667</ele><time>2026-05-02T07:48:24.999Z</time></trkpt><trkpt lat="41.978804038533006" lon="2.8975916128573296"><ele>393.33333333333337</ele><time>2026-05-02T07:48:25.999Z</time></trkpt><trkpt lat="41.97884445701191" lon="2.897671294888447"><ele>395.0</ele><time>2026-05-02T07:48:26.999Z</time></trkpt><trkpt lat="41.97889178761176" lon="2.897753690339322"><ele>396.6666666666667</ele><time>2026-05-02T07:48:27.999Z</time></trkpt><trkpt lat="41.97894533020326" lon="2.897835255568521"><ele>398.33333333333337</ele><time>2026-05-02T07:48:28.999Z</time></trkpt><trkpt lat="41.97900402041244" lon="2.8979178805940737"><ele>400.0</ele><time>2026-05-02T07:48:29.999Z</time></trkpt><trkpt lat="41.97906698503821" lon="2.8979933930429977"><ele>400.00000000000006</ele><time>2026-05-02T07:48:30.999Z</time></trkpt><trkpt lat="41.97913431592243" lon="2.898061659707663"><ele>400.0</ele><time>2026-05-02T07:48:31.999Z</time></trkpt><trkpt lat="41.97919983739908" lon="2.8981115116925156"><ele>400.0</ele><time>2026-05-02T07:48:32.999Z</time></trkpt><trkpt lat="41.97927314438572" lon="2.89816969052802"><ele>400.0</ele><time>2026-05-02T07:48:33.999Z</time></trkpt><trkpt lat="41.97934019119876" lon="2.8982244000630373"><ele>400.00000000000006</ele><time>2026-05-02T07:48:34.999Z</time></trkpt><trkpt lat="41.97941203297299" lon="2.898278220234176"><ele>400.0</ele><time>2026-05-02T07:48:35.999Z</time></trkpt><trkpt lat="41.979479360564504" lon="2.8983193491605936"><ele>398.50000000000006</ele><time>2026-05-02T07:48:36.999Z</time></trkpt><trkpt lat="41.97955580585593" lon="2.898334592012635"><ele>397.0</ele><time>2026-05-02T07:48:37.999Z</time></trkpt><trkpt lat="41.97962301433567" lon="2.898355965066695"><ele>395.5</ele><time>2026-05-02T07:48:38.999Z</time></trkpt><trkpt lat="41.97969587130816" lon="2.8983606158431208"><ele>394.0</ele><time>2026-05-02T07:48:39.999Z</time></trkpt><trkpt lat="41.979766952281395" lon="2.8983622900883947"><ele>392.50000000000006</ele><time>2026-05-02T07:48:40.999Z</time></trkpt><trkpt lat="41.979836152398114" lon="2.898368439407232"><ele>391.0</ele><time>2026-05-02T07:48:41.999Z</time></trkpt><trkpt lat="41.97995500694791" lon="2.898404756412172"><ele>390.0</ele><time>2026-05-02T07:48:43.999Z</time></trkpt><trkpt lat="41.98005745475777" lon="2.8984825086607215"><ele>389.0</ele><time>2026-05-02T07:48:45.999Z</time></trkpt><trkpt lat="41.98014400196785" lon="2.898598002584301"><ele>388.0</ele><time>2026-05-02T07:48:47.999Z</time></trkpt><trkpt lat="41.98019722245618" lon="2.898656907826975"><ele>387.0</ele><time>2026-05-02T07:48:48.999Z</time></trkpt><trkpt lat="41.98025615584855" lon="2.898709952561391"><ele>386.0</ele><time>2026-05-02T07:48:49.999Z</time></trkpt><trkpt lat="41.980316672526406" lon="2.89876872179964"><ele>385.99999999999994</ele><time>2026-05-02T07:48:50.999Z</time></trkpt><trkpt lat="41.980378410216645" lon="2.898834149960932"><ele>386.0</ele><time>2026-05-02T07:48:51.999Z</time></trkpt><trkpt lat="41.98044026683335" lon="2.898907736155323"><ele>386.0</ele><time>2026-05-02T07:48:52.999Z</time></trkpt><trkpt lat="41.98050633983105" lon="2.89898282703649"><ele>386.0</ele><time>2026-05-02T07:48:53.999Z</time></trkpt><trkpt lat="41.98057626674297" lon="2.8990569990052353"><ele>385.99999999999994</ele><time>2026-05-02T07:48:54.999Z</time></trkpt><trkpt lat="41.98064480892526" lon="2.8991236333432315"><ele>386.0</ele><time>2026-05-02T07:48:55.999Z</time></trkpt><trkpt lat="41.98071784396198" lon="2.8992046105427387"><ele>385.49999999999994</ele><time>2026-05-02T07:48:56.999Z</time></trkpt><trkpt lat="41.98077807371968" lon="2.8992694212662182"><ele>385.0</ele><time>2026-05-02T07:48:57.999Z</time></trkpt><trkpt lat="41.98084289285771" lon="2.8993385356865353"><ele>384.5</ele><time>2026-05-02T07:48:58.999Z</time></trkpt><trkpt lat="41.98090857342982" lon="2.8993998020500453"><ele>384.0</ele><time>2026-05-02T07:48:59.999Z</time></trkpt><trkpt lat="41.98096681356372" lon="2.8994602817167565"><ele>383.5</ele><time>2026-05-02T07:49:00.999Z</time></trkpt><trkpt lat="41.981023006594135" lon="2.899525414800109"><ele>383.0</ele><time>2026-05-02T07:49:01.999Z</time></trkpt><trkpt lat="41.9810822289017" lon="2.899582872761199"><ele>385.1428571428571</ele><time>2026-05-02T07:49:02.999Z</time></trkpt><trkpt lat="41.98114244435518" lon="2.8996372174748886"><ele>387.2857142857143</ele><time>2026-05-02T07:49:03.999Z</time></trkpt><trkpt lat="41.98120675863204" lon="2.8996925656477877"><ele>389.42857142857144</ele><time>2026-05-02T07:49:04.999Z</time></trkpt><trkpt lat="41.98127038768684" lon="2.8997475835401185"><ele>391.57142857142856</ele><time>2026-05-02T07:49:05.999Z</time></trkpt><trkpt lat="41.98133246637756" lon="2.8997935252078433"><ele>393.7142857142857</ele><time>2026-05-02T07:49:06.999Z</time></trkpt><trkpt lat="41.981391773837544" lon="2.899835329313979"><ele>395.85714285714283</ele><time>2026-05-02T07:49:07.999Z</time></trkpt><trkpt lat="41.98145373185445" lon="2.899868578775317"><ele>398.0</ele><time>2026-05-02T07:49:08.999Z</time></trkpt><trkpt lat="41.98151307144323" lon="2.8998970012643523"><ele>397.99999999999994</ele><time>2026-05-02T07:49:09.999Z</time></trkpt><trkpt lat="41.981617542874865" lon="2.899924240152981"><ele>398.0</ele><time>2026-05-02T07:49:11.999Z</time></trkpt><trkpt lat="41.98169504034921" lon="2.8999482134635755"><ele>398.0</ele><time>2026-05-02T07:49:13.999Z</time></trkpt><trkpt lat="41.98175658109087" lon="2.899970448649551"><ele>398.0</ele><time>2026-05-02T07:49:15.999Z</time></trkpt><trkpt lat="41.98182879354298" lon="2.8999951551051253"><ele>397.99999999999994</ele><time>2026-05-02T07:49:18.999Z</time></trkpt><trkpt lat="41.981900520809916" lon="2.900023604460539"><ele>398.0</ele><time>2026-05-02T07:49:21.999Z</time></trkpt><trkpt lat="41.98197823474542" lon="2.9000402863650696"><ele>399.1428571428571</ele><time>2026-05-02T07:49:25.999Z</time></trkpt><trkpt lat="41.982055601238336" lon="2.900054830098378"><ele>400.2857142857143</ele><time>2026-05-02T07:49:29.999Z</time></trkpt><trkpt lat="41.982083619773704" lon="2.900142988357421"><ele>401.42857142857144</ele><time>2026-05-02T07:49:32.999Z</time></trkpt><trkpt lat="41.98211206458233" lon="2.900261277361113"><ele>402.57142857142856</ele><time>2026-05-02T07:49:35.999Z</time></trkpt><trkpt lat="41.982137096354315" lon="2.900345645015164"><ele>403.7142857142857</ele><time>2026-05-02T07:49:38Z</time></trkpt><trkpt lat="41.982151991255336" lon="2.900433513303633"><ele>404.85714285714283</ele><time>2026-05-02T07:49:40Z</time></trkpt><trkpt lat="41.98217649098409" lon="2.900513343825501"><ele>406.0</ele><time>2026-05-02T07:49:42Z</time></trkpt><trkpt lat="41.98220384550951" lon="2.900592038369316"><ele>407.42857142857144</ele><time>2026-05-02T07:49:44Z</time></trkpt><trkpt lat="41.982221165689005" lon="2.900679674275119"><ele>408.8571428571429</ele><time>2026-05-02T07:49:46Z</time></trkpt><trkpt lat="41.98222085134985" lon="2.9007720209736676"><ele>410.2857142857143</ele><time>2026-05-02T07:49:48Z</time></trkpt><trkpt lat="41.98219833897425" lon="2.9008633655293616"><ele>411.7142857142857</ele><time>2026-05-02T07:49:50Z</time></trkpt><trkpt lat="41.98215234316962" lon="2.9009383642413766"><ele>413.14285714285717</ele><time>2026-05-02T07:49:52Z</time></trkpt><trkpt lat="41.98209318504166" lon="2.900993039646452"><ele>414.57142857142856</ele><time>2026-05-02T07:49:54Z</time></trkpt><trkpt lat="41.98202965620687" lon="2.901028260023947"><ele>416.0</ele><time>2026-05-02T07:49:56Z</time></trkpt><trkpt lat="41.981957755192575" lon="2.9010439237408763"><ele>416.7142857142857</ele><time>2026-05-02T07:49:58Z</time></trkpt><trkpt lat="41.98188553099367" lon="2.901044634090319"><ele>417.42857142857144</ele><time>2026-05-02T07:50:00Z</time></trkpt><trkpt lat="41.98181763734869" lon="2.9010633586280647"><ele>418.14285714285717</ele><time>2026-05-02T07:50:02Z</time></trkpt><trkpt lat="41.981755062139634" lon="2.9011161164737063"><ele>418.8571428571429</ele><time>2026-05-02T07:50:04Z</time></trkpt><trkpt lat="41.981703352146425" lon="2.901190653782774"><ele>419.57142857142856</ele><time>2026-05-02T07:50:06Z</time></trkpt><trkpt lat="41.98166060438252" lon="2.9012733641963018"><ele>420.28571428571433</ele><time>2026-05-02T07:50:08Z</time></trkpt><trkpt lat="41.98162403901891" lon="2.9013626711299323"><ele>421.0</ele><time>2026-05-02T07:50:10Z</time></trkpt><trkpt lat="41.98158483834928" lon="2.901448359690009"><ele>422.14285714285717</ele><time>2026-05-02T07:50:12Z</time></trkpt><trkpt lat="41.9815315820729" lon="2.9015036879285394"><ele>423.2857142857143</ele><time>2026-05-02T07:50:13.999Z</time></trkpt><trkpt lat="41.98146566801127" lon="2.901535545590518"><ele>424.42857142857144</ele><time>2026-05-02T07:50:15.999Z</time></trkpt><trkpt lat="41.981398001744125" lon="2.901543148639227"><ele>425.57142857142856</ele><time>2026-05-02T07:50:17.999Z</time></trkpt><trkpt lat="41.98132819757823" lon="2.9015378392398716"><ele>426.7142857142857</ele><time>2026-05-02T07:50:20.999Z</time></trkpt><trkpt lat="41.98123353245695" lon="2.9015191895018093"><ele>427.8571428571429</ele><time>2026-05-02T07:50:23.999Z</time></trkpt><trkpt lat="41.98116673439627" lon="2.9015140992032924"><ele>429.0</ele><time>2026-05-02T07:50:26.999Z</time></trkpt><trkpt lat="41.98101396348425" lon="2.901520523523363"><ele>429.0</ele><time>2026-05-02T07:50:27.999Z</time></trkpt><trkpt lat="41.980938786997505" lon="2.901533851913273"><ele>429.0</ele><time>2026-05-02T07:50:29.999Z</time></trkpt><trkpt lat="41.980870184967394" lon="2.9015744162087884"><ele>429.0</ele><time>2026-05-02T07:50:31.999Z</time></trkpt><trkpt lat="41.98080748106416" lon="2.9016413284541405"><ele>429.0</ele><time>2026-05-02T07:50:33.999Z</time></trkpt><trkpt lat="41.980773519380946" lon="2.901732898055869"><ele>429.0</ele><time>2026-05-02T07:50:35.999Z</time></trkpt><trkpt lat="41.98075938275403" lon="2.9018270054836575"><ele>429.0</ele><time>2026-05-02T07:50:37.999Z</time></trkpt><trkpt lat="41.980774595212466" lon="2.9019222133127496"><ele>428.6666666666667</ele><time>2026-05-02T07:50:39.999Z</time></trkpt><trkpt lat="41.98080198808025" lon="2.9020078528115176"><ele>428.33333333333337</ele><time>2026-05-02T07:50:42.999Z</time></trkpt><trkpt lat="41.98081566948331" lon="2.902173447681138"><ele>428.0</ele><time>2026-05-02T07:50:44.999Z</time></trkpt><trkpt lat="41.980824511211146" lon="2.9022680568130794"><ele>427.6666666666667</ele><time>2026-05-02T07:50:46.999Z</time></trkpt><trkpt lat="41.98082329419573" lon="2.9023668248680154"><ele>427.33333333333337</ele><time>2026-05-02T07:50:48.999Z</time></trkpt><trkpt lat="41.98082172253861" lon="2.902464236190884"><ele>427.0</ele><time>2026-05-02T07:50:50.999Z</time></trkpt><trkpt lat="41.98081672444293" lon="2.9025651773183077"><ele>425.6666666666667</ele><time>2026-05-02T07:50:52.999Z</time></trkpt><trkpt lat="41.98080962917214" lon="2.9026651511975947"><ele>424.33333333333337</ele><time>2026-05-02T07:50:54.999Z</time></trkpt><trkpt lat="41.980801292648785" lon="2.902762741908457"><ele>423.0</ele><time>2026-05-02T07:50:56.999Z</time></trkpt><trkpt lat="41.98080046516965" lon="2.902859402926464"><ele>421.66666666666663</ele><time>2026-05-02T07:50:58.999Z</time></trkpt><trkpt lat="41.98081823782145" lon="2.9029557401723385"><ele>420.3333333333333</ele><time>2026-05-02T07:51:00.999Z</time></trkpt><trkpt lat="41.9808621034253" lon="2.90303888432394"><ele>419.0</ele><time>2026-05-02T07:51:02.999Z</time></trkpt><trkpt lat="41.98093386655293" lon="2.9030969319139706"><ele>421.99999999999994</ele><time>2026-05-02T07:51:05.999Z</time></trkpt><trkpt lat="41.98098746668147" lon="2.9031647564612055"><ele>425.0</ele><time>2026-05-02T07:51:08.999Z</time></trkpt><trkpt lat="41.98107140217854" lon="2.903241706770849"><ele>428.0</ele><time>2026-05-02T07:51:09.999Z</time></trkpt><trkpt lat="41.98113593139568" lon="2.903289815671179"><ele>431.0</ele><time>2026-05-02T07:51:11.999Z</time></trkpt><trkpt lat="41.981205397092474" lon="2.90331194366859"><ele>433.99999999999994</ele><time>2026-05-02T07:51:13.999Z</time></trkpt><trkpt lat="41.981269021064065" lon="2.9033579872263764"><ele>437.0</ele><time>2026-05-02T07:51:15.999Z</time></trkpt><trkpt lat="41.98132330127378" lon="2.9034237657587214"><ele>436.99999999999994</ele><time>2026-05-02T07:51:17.999Z</time></trkpt><trkpt lat="41.98137028418713" lon="2.9035034404911153"><ele>437.0</ele><time>2026-05-02T07:51:19.999Z</time></trkpt><trkpt lat="41.98141413274107" lon="2.9035865451170415"><ele>437.0</ele><time>2026-05-02T07:51:21.999Z</time></trkpt><trkpt lat="41.98145043258734" lon="2.9036722345500023"><ele>437.0</ele><time>2026-05-02T07:51:23.999Z</time></trkpt><trkpt lat="41.98147134541698" lon="2.9037735066259374"><ele>436.99999999999994</ele><time>2026-05-02T07:51:25.999Z</time></trkpt><trkpt lat="41.98146521619186" lon="2.90388035390509"><ele>437.0</ele><time>2026-05-02T07:51:27.999Z</time></trkpt><trkpt lat="41.98145132636008" lon="2.9039858907428213"><ele>436.99999999999994</ele><time>2026-05-02T07:51:30.999Z</time></trkpt><trkpt lat="41.98141837764411" lon="2.9040783178229366"><ele>437.0</ele><time>2026-05-02T07:51:31.999Z</time></trkpt><trkpt lat="41.981402848376376" lon="2.904180925274668"><ele>437.0</ele><time>2026-05-02T07:51:33.999Z</time></trkpt><trkpt lat="41.981425583803976" lon="2.904285419804296"><ele>437.0</ele><time>2026-05-02T07:51:35.999Z</time></trkpt><trkpt lat="41.98146492370305" lon="2.9043731948180596"><ele>436.99999999999994</ele><time>2026-05-02T07:51:37.999Z</time></trkpt><trkpt lat="41.98151178120398" lon="2.9044504738145642"><ele>437.0</ele><time>2026-05-02T07:51:39.999Z</time></trkpt><trkpt lat="41.981557371878544" lon="2.904529875954141"><ele>437.0</ele><time>2026-05-02T07:51:41.999Z</time></trkpt><trkpt lat="41.98159221595781" lon="2.904617635594644"><ele>437.0</ele><time>2026-05-02T07:51:44Z</time></trkpt><trkpt lat="41.98162176594086" lon="2.9047076652173103"><ele>437.0</ele><time>2026-05-02T07:51:46Z</time></trkpt><trkpt lat="41.98165597484999" lon="2.904793738104308"><ele>437.0</ele><time>2026-05-02T07:51:48Z</time></trkpt><trkpt lat="41.981695342102654" lon="2.9048763547278775"><ele>437.0</ele><time>2026-05-02T07:51:50Z</time></trkpt><trkpt lat="41.981741892269746" lon="2.904934700860341"><ele>437.0</ele><time>2026-05-02T07:51:52Z</time></trkpt><trkpt lat="41.981790937113374" lon="2.905018593596837"><ele>437.0</ele><time>2026-05-02T07:51:55Z</time></trkpt><trkpt lat="41.98183486615991" lon="2.9050877286363854"><ele>436.99999999999994</ele><time>2026-05-02T07:51:57Z</time></trkpt><trkpt lat="41.98190183519357" lon="2.905186109987003"><ele>437.0</ele><time>2026-05-02T07:51:59Z</time></trkpt><trkpt lat="41.9819618967393" lon="2.9052864556182243"><ele>437.0</ele><time>2026-05-02T07:52:02Z</time></trkpt><trkpt lat="41.9819950165694" lon="2.9053894989539066"><ele>437.0</ele><time>2026-05-02T07:52:04Z</time></trkpt><trkpt lat="41.98201325495911" lon="2.9054919832203723"><ele>436.99999999999994</ele><time>2026-05-02T07:52:06Z</time></trkpt><trkpt lat="41.98202496895695" lon="2.9055916309191097"><ele>437.0</ele><time>2026-05-02T07:52:08Z</time></trkpt><trkpt lat="41.98205238486381" lon="2.90568666382862"><ele>436.99999999999994</ele><time>2026-05-02T07:52:10Z</time></trkpt><trkpt lat="41.982086119238545" lon="2.9057793321750864"><ele>437.0</ele><time>2026-05-02T07:52:12Z</time></trkpt><trkpt lat="41.982121133431846" lon="2.905868356132449"><ele>437.0</ele><time>2026-05-02T07:52:14Z</time></trkpt><trkpt lat="41.98216259803205" lon="2.9059492762379993"><ele>437.0</ele><time>2026-05-02T07:52:16Z</time></trkpt><trkpt lat="41.9822100669291" lon="2.9060259733641365"><ele>436.99999999999994</ele><time>2026-05-02T07:52:18Z</time></trkpt><trkpt lat="41.98225239209316" lon="2.906106142637192"><ele>437.0</ele><time>2026-05-02T07:52:20Z</time></trkpt><trkpt lat="41.98228469423312" lon="2.9062283277108065"><ele>439.16666666666663</ele><time>2026-05-02T07:52:23Z</time></trkpt><trkpt lat="41.98229811031837" lon="2.9063330437780426"><ele>441.3333333333333</ele><time>2026-05-02T07:52:24.999Z</time></trkpt><trkpt lat="41.982335596857595" lon="2.906428838233498"><ele>443.5</ele><time>2026-05-02T07:52:25.999Z</time></trkpt><trkpt lat="41.98234331128517" lon="2.906536086695913"><ele>445.66666666666663</ele><time>2026-05-02T07:52:27.999Z</time></trkpt><trkpt lat="41.98235476591702" lon="2.90664632514943"><ele>447.8333333333333</ele><time>2026-05-02T07:52:29.999Z</time></trkpt><trkpt lat="41.98237484981277" lon="2.906749388939355"><ele>450.0</ele><time>2026-05-02T07:52:31.999Z</time></trkpt><trkpt lat="41.982409652996516" lon="2.9068500376968895"><ele>452.0</ele><time>2026-05-02T07:52:33.999Z</time></trkpt><trkpt lat="41.982436442738646" lon="2.906959605547235"><ele>454.0</ele><time>2026-05-02T07:52:35.999Z</time></trkpt><trkpt lat="41.98246903950706" lon="2.9070657601917373"><ele>456.0</ele><time>2026-05-02T07:52:37.999Z</time></trkpt><trkpt lat="41.98251450830254" lon="2.9071624697538114"><ele>458.0</ele><time>2026-05-02T07:52:39.999Z</time></trkpt><trkpt lat="41.98255144917273" lon="2.907250764452852"><ele>460.0</ele><time>2026-05-02T07:52:41.999Z</time></trkpt><trkpt lat="41.98258030444436" lon="2.9073579027667105"><ele>462.0</ele><time>2026-05-02T07:52:43.999Z</time></trkpt><trkpt lat="41.982589211700386" lon="2.90746040145943"><ele>459.0</ele><time>2026-05-02T07:52:45.999Z</time></trkpt><trkpt lat="41.98261886017043" lon="2.907569003229488"><ele>456.0</ele><time>2026-05-02T07:52:47.999Z</time></trkpt><trkpt lat="41.982649787341536" lon="2.907663398094204"><ele>453.0</ele><time>2026-05-02T07:52:49.999Z</time></trkpt><trkpt lat="41.9826453405309" lon="2.9077850506992875"><ele>450.0</ele><time>2026-05-02T07:52:51.999Z</time></trkpt><trkpt lat="41.98261077025174" lon="2.907890528389344"><ele>447.0</ele><time>2026-05-02T07:52:53.999Z</time></trkpt><trkpt lat="41.98256130974015" lon="2.907991189674383"><ele>444.0</ele><time>2026-05-02T07:52:55.999Z</time></trkpt><trkpt lat="41.9825248100656" lon="2.9081062999506635"><ele>447.0</ele><time>2026-05-02T07:52:57.999Z</time></trkpt><trkpt lat="41.982508687511285" lon="2.9082299119084607"><ele>450.0</ele><time>2026-05-02T07:52:59.999Z</time></trkpt><trkpt lat="41.982508918667" lon="2.9083526718727697"><ele>453.0</ele><time>2026-05-02T07:53:01.999Z</time></trkpt><trkpt lat="41.982515241134834" lon="2.9084722883679692"><ele>456.0</ele><time>2026-05-02T07:53:03.999Z</time></trkpt><trkpt lat="41.98252702237374" lon="2.908604329048849"><ele>459.0</ele><time>2026-05-02T07:53:05.999Z</time></trkpt><trkpt lat="41.98253908519888" lon="2.9087271873306473"><ele>459.8333333333333</ele><time>2026-05-02T07:53:07.999Z</time></trkpt><trkpt lat="41.982545596532475" lon="2.908841006095632"><ele>460.66666666666663</ele><time>2026-05-02T07:53:09.999Z</time></trkpt><trkpt lat="41.982555120544035" lon="2.908930097359482"><ele>461.5</ele><time>2026-05-02T07:53:11.999Z</time></trkpt><trkpt lat="41.9825570011685" lon="2.9090361741945214"><ele>462.3333333333333</ele><time>2026-05-02T07:53:13.999Z</time></trkpt><trkpt lat="41.98256947348128" lon="2.909154330153687"><ele>463.16666666666663</ele><time>2026-05-02T07:53:15.999Z</time></trkpt><trkpt lat="41.98257542328804" lon="2.9092452956983683"><ele>464.0</ele><time>2026-05-02T07:53:17.999Z</time></trkpt><trkpt lat="41.98259172603263" lon="2.9093385509948813"><ele>466.16666666666663</ele><time>2026-05-02T07:53:18.999Z</time></trkpt><trkpt lat="41.98261015359759" lon="2.909444339932935"><ele>468.3333333333333</ele><time>2026-05-02T07:53:20.999Z</time></trkpt><trkpt lat="41.982627978719286" lon="2.9095621111837042"><ele>470.5</ele><time>2026-05-02T07:53:22.999Z</time></trkpt><trkpt lat="41.98264606536172" lon="2.909676334792328"><ele>472.66666666666663</ele><time>2026-05-02T07:53:24.999Z</time></trkpt><trkpt lat="41.982650402174365" lon="2.9097874497571183"><ele>474.8333333333333</ele><time>2026-05-02T07:53:26.999Z</time></trkpt><trkpt lat="41.98262448364365" lon="2.90989877885209"><ele>477.0</ele><time>2026-05-02T07:53:28.999Z</time></trkpt><trkpt lat="41.98255035718726" lon="2.910019576617294"><ele>474.1666666666667</ele><time>2026-05-02T07:53:31.999Z</time></trkpt><trkpt lat="41.98248853201555" lon="2.9101714383433515"><ele>471.33333333333337</ele><time>2026-05-02T07:53:33.999Z</time></trkpt><trkpt lat="41.98249098767081" lon="2.910265156107308"><ele>468.5</ele><time>2026-05-02T07:53:34.999Z</time></trkpt><trkpt lat="41.98253305418782" lon="2.910357947839087"><ele>465.6666666666667</ele><time>2026-05-02T07:53:35.999Z</time></trkpt><trkpt lat="41.98260780891494" lon="2.9104145625056828"><ele>462.83333333333337</ele><time>2026-05-02T07:53:36.999Z</time></trkpt><trkpt lat="41.98266967012278" lon="2.9104528895606254"><ele>460.0</ele><time>2026-05-02T07:53:37.999Z</time></trkpt><trkpt lat="41.98273762429107" lon="2.9104735551906784"><ele>460.00000000000006</ele><time>2026-05-02T07:53:38.999Z</time></trkpt><trkpt lat="41.982812394441815" lon="2.9104996416085482"><ele>460.0</ele><time>2026-05-02T07:53:39.999Z</time></trkpt><trkpt lat="41.98288978934373" lon="2.9105155662785087"><ele>460.0</ele><time>2026-05-02T07:53:40.999Z</time></trkpt><trkpt lat="41.98296707473382" lon="2.910526290141798"><ele>460.0</ele><time>2026-05-02T07:53:41.999Z</time></trkpt><trkpt lat="41.983040806530425" lon="2.9105367823181414"><ele>460.00000000000006</ele><time>2026-05-02T07:53:42.999Z</time></trkpt><trkpt lat="41.98311501663767" lon="2.910541298923635"><ele>460.0</ele><time>2026-05-02T07:53:43.999Z</time></trkpt><trkpt lat="41.983187584692935" lon="2.9105448784941266"><ele>460.00000000000006</ele><time>2026-05-02T07:53:44.999Z</time></trkpt><trkpt lat="41.98325974012207" lon="2.910548821936624"><ele>460.0</ele><time>2026-05-02T07:53:45.999Z</time></trkpt><trkpt lat="41.98333420490663" lon="2.910552041485586"><ele>460.0</ele><time>2026-05-02T07:53:46.999Z</time></trkpt><trkpt lat="41.983409991301016" lon="2.910553546797862"><ele>460.0</ele><time>2026-05-02T07:53:47.999Z</time></trkpt><trkpt lat="41.98348668444095" lon="2.910556916639419"><ele>460.00000000000006</ele><time>2026-05-02T07:53:49Z</time></trkpt><trkpt lat="41.983563986285574" lon="2.9105474460568956"><ele>460.0</ele><time>2026-05-02T07:53:50Z</time></trkpt><trkpt lat="41.98364221186998" lon="2.910533048881433"><ele>460.00000000000006</ele><time>2026-05-02T07:53:51Z</time></trkpt><trkpt lat="41.98371964522964" lon="2.9105157003007234"><ele>460.0</ele><time>2026-05-02T07:53:52Z</time></trkpt><trkpt lat="41.98378618130985" lon="2.9105020464198947"><ele>460.0</ele><time>2026-05-02T07:53:53Z</time></trkpt><trkpt lat="41.98386306676199" lon="2.9104919001453533"><ele>460.0</ele><time>2026-05-02T07:53:54Z</time></trkpt><trkpt lat="41.983951053708964" lon="2.9104869137125915"><ele>460.00000000000006</ele><time>2026-05-02T07:53:55Z</time></trkpt><trkpt lat="41.984027078709744" lon="2.910495164511158"><ele>460.0</ele><time>2026-05-02T07:53:56Z</time></trkpt><trkpt lat="41.98408905016653" lon="2.910524070886528"><ele>460.00000000000006</ele><time>2026-05-02T07:53:57Z</time></trkpt><trkpt lat="41.984160006343195" lon="2.9105832691677684"><ele>460.0</ele><time>2026-05-02T07:53:58Z</time></trkpt><trkpt lat="41.984231406950165" lon="2.9106532581650386"><ele>460.0</ele><time>2026-05-02T07:53:59Z</time></trkpt><trkpt lat="41.984300982121304" lon="2.910729670699315"><ele>460.0</ele><time>2026-05-02T07:54:00Z</time></trkpt><trkpt lat="41.98437250893876" lon="2.910806874591951"><ele>460.00000000000006</ele><time>2026-05-02T07:54:01Z</time></trkpt><trkpt lat="41.98444647951271" lon="2.9108824291620725"><ele>460.0</ele><time>2026-05-02T07:54:02Z</time></trkpt><trkpt lat="41.984526566134335" lon="2.910955574853863"><ele>458.2</ele><time>2026-05-02T07:54:03Z</time></trkpt><trkpt lat="41.98460960449309" lon="2.9110195712738713"><ele>456.4</ele><time>2026-05-02T07:54:04Z</time></trkpt><trkpt lat="41.9846976254077" lon="2.911079491109755"><ele>454.6</ele><time>2026-05-02T07:54:05Z</time></trkpt><trkpt lat="41.98479167347607" lon="2.9111409308986675"><ele>452.8</ele><time>2026-05-02T07:54:06Z</time></trkpt><trkpt lat="41.98488196555827" lon="2.9112031956894393"><ele>451.0</ele><time>2026-05-02T07:54:07Z</time></trkpt><trkpt lat="41.98498020348557" lon="2.9112642354013243"><ele>453.0</ele><time>2026-05-02T07:54:08Z</time></trkpt><trkpt lat="41.985079079839245" lon="2.911321456966122"><ele>455.0</ele><time>2026-05-02T07:54:09Z</time></trkpt><trkpt lat="41.98517797889023" lon="2.911375440635697"><ele>457.0</ele><time>2026-05-02T07:54:10Z</time></trkpt><trkpt lat="41.985267833475866" lon="2.911432234216541"><ele>459.0</ele><time>2026-05-02T07:54:11Z</time></trkpt><trkpt lat="41.98534614884322" lon="2.9114993481222604"><ele>461.0</ele><time>2026-05-02T07:54:12Z</time></trkpt><trkpt lat="41.985410663588766" lon="2.911585710168555"><ele>461.0</ele><time>2026-05-02T07:54:13Z</time></trkpt><trkpt lat="41.98545630573091" lon="2.911691552960935"><ele>461.0</ele><time>2026-05-02T07:54:14Z</time></trkpt><trkpt lat="41.98548075307361" lon="2.911813281722984"><ele>461.0</ele><time>2026-05-02T07:54:15Z</time></trkpt><trkpt lat="41.98547519288363" lon="2.9119462740154813"><ele>461.0</ele><time>2026-05-02T07:54:16Z</time></trkpt><trkpt lat="41.98544824935685" lon="2.912077020099505"><ele>461.0</ele><time>2026-05-02T07:54:17Z</time></trkpt><trkpt lat="41.98541324017258" lon="2.9122034543005073"><ele>460.4</ele><time>2026-05-02T07:54:18Z</time></trkpt><trkpt lat="41.98537672762195" lon="2.9123309499558"><ele>459.8</ele><time>2026-05-02T07:54:19Z</time></trkpt><trkpt lat="41.985351092329324" lon="2.9124658832807118"><ele>459.19999999999993</ele><time>2026-05-02T07:54:20Z</time></trkpt><trkpt lat="41.98534123251835" lon="2.9126044790154744"><ele>458.59999999999997</ele><time>2026-05-02T07:54:21Z</time></trkpt><trkpt lat="41.985349053100684" lon="2.912747787589294"><ele>458.0</ele><time>2026-05-02T07:54:22Z</time></trkpt><trkpt lat="41.98536760516007" lon="2.91288766778169"><ele>456.0</ele><time>2026-05-02T07:54:23Z</time></trkpt><trkpt lat="41.985382379977885" lon="2.9130324045807705"><ele>453.99999999999994</ele><time>2026-05-02T07:54:24Z</time></trkpt><trkpt lat="41.98537922355481" lon="2.913179950215487"><ele>451.99999999999994</ele><time>2026-05-02T07:54:25Z</time></trkpt><trkpt lat="41.98535757224727" lon="2.9133300625821295"><ele>450.0</ele><time>2026-05-02T07:54:26Z</time></trkpt><trkpt lat="41.985330597510156" lon="2.913476336413772"><ele>448.0</ele><time>2026-05-02T07:54:27Z</time></trkpt><trkpt lat="41.98530223715507" lon="2.913618916139512"><ele>444.59999999999997</ele><time>2026-05-02T07:54:27.999Z</time></trkpt><trkpt lat="41.98527198842155" lon="2.9137619322191175"><ele>441.19999999999993</ele><time>2026-05-02T07:54:28.999Z</time></trkpt><trkpt lat="41.9852395034396" lon="2.913904181297356"><ele>437.8</ele><time>2026-05-02T07:54:29.999Z</time></trkpt><trkpt lat="41.98520870964022" lon="2.91404209364797"><ele>434.4</ele><time>2026-05-02T07:54:30.999Z</time></trkpt><trkpt lat="41.985181485613985" lon="2.914160657078654"><ele>431.0</ele><time>2026-05-02T07:54:31.999Z</time></trkpt><trkpt lat="41.9851593742088" lon="2.9142677154518353"><ele>429.3333333333333</ele><time>2026-05-02T07:54:32.999Z</time></trkpt><trkpt lat="41.98514614444376" lon="2.914377129616535"><ele>427.66666666666663</ele><time>2026-05-02T07:54:33.999Z</time></trkpt><trkpt lat="41.9851360203679" lon="2.914485377751715"><ele>426.0</ele><time>2026-05-02T07:54:34.999Z</time></trkpt><trkpt lat="41.98513091404787" lon="2.9145731710567633"><ele>424.33333333333337</ele><time>2026-05-02T07:54:35.999Z</time></trkpt><trkpt lat="41.985127163897126" lon="2.914707966743921"><ele>422.6666666666667</ele><time>2026-05-02T07:54:37.999Z</time></trkpt><trkpt lat="41.98524546051808" lon="2.9147138063355915"><ele>421.0</ele><time>2026-05-02T07:54:43.999Z</time></trkpt><trkpt lat="41.98530810343916" lon="2.9146177634880432"><ele>421.0</ele><time>2026-05-02T07:54:45.999Z</time></trkpt><trkpt lat="41.98536613041804" lon="2.9144926671882017"><ele>421.0</ele><time>2026-05-02T07:54:47.999Z</time></trkpt><trkpt lat="41.985417569861205" lon="2.914386727066499"><ele>421.0</ele><time>2026-05-02T07:54:49.999Z</time></trkpt><trkpt lat="41.98549756615426" lon="2.9142784093622884"><ele>421.0</ele><time>2026-05-02T07:54:51.999Z</time></trkpt><trkpt lat="41.98555025489269" lon="2.914217331145282"><ele>421.0</ele><time>2026-05-02T07:54:52.999Z</time></trkpt><trkpt lat="41.98560053237475" lon="2.9141610207365938"><ele>422.42857142857144</ele><time>2026-05-02T07:54:53.999Z</time></trkpt><trkpt lat="41.985652407463576" lon="2.914102061465033"><ele>423.8571428571429</ele><time>2026-05-02T07:54:54.999Z</time></trkpt><trkpt lat="41.98570600288711" lon="2.9140424827829525"><ele>425.28571428571433</ele><time>2026-05-02T07:54:55.999Z</time></trkpt><trkpt lat="41.98575750629629" lon="2.9139806649398277"><ele>426.7142857142857</ele><time>2026-05-02T07:54:56.999Z</time></trkpt><trkpt lat="41.985812713724506" lon="2.913913951521676"><ele>428.1428571428571</ele><time>2026-05-02T07:54:57.999Z</time></trkpt><trkpt lat="41.98587159814729" lon="2.9138501460042368"><ele>429.5714285714286</ele><time>2026-05-02T07:54:58.999Z</time></trkpt><trkpt lat="41.98592891220799" lon="2.913790119460713"><ele>431.0</ele><time>2026-05-02T07:54:59.999Z</time></trkpt><trkpt lat="41.98602777162312" lon="2.9136915073229743"><ele>430.66666666666663</ele><time>2026-05-02T07:55:01.999Z</time></trkpt><trkpt lat="41.98607318549619" lon="2.9136323790806506"><ele>430.3333333333333</ele><time>2026-05-02T07:55:02.999Z</time></trkpt><trkpt lat="41.986119463141044" lon="2.913573217869346"><ele>430.0</ele><time>2026-05-02T07:55:03.999Z</time></trkpt><trkpt lat="41.98618932363097" lon="2.913471866253867"><ele>429.66666666666663</ele><time>2026-05-02T07:55:05.999Z</time></trkpt><trkpt lat="41.98626147302583" lon="2.9133932051316664"><ele>429.3333333333333</ele><time>2026-05-02T07:55:07.999Z</time></trkpt><trkpt lat="41.986382665047344" lon="2.9133641699849884"><ele>429.0</ele><time>2026-05-02T07:55:09.999Z</time></trkpt><trkpt lat="41.98645238197843" lon="2.9133755430102513"><ele>429.0</ele><time>2026-05-02T07:55:10.999Z</time></trkpt><trkpt lat="41.98652060824644" lon="2.913392072132284"><ele>429.0</ele><time>2026-05-02T07:55:11.999Z</time></trkpt><trkpt lat="41.9865835892863" lon="2.913414491337435"><ele>429.0</ele><time>2026-05-02T07:55:12.999Z</time></trkpt><trkpt lat="41.98670291519327" lon="2.9134208851067"><ele>429.0</ele><time>2026-05-02T07:55:14.999Z</time></trkpt><trkpt lat="41.98681469265053" lon="2.9133972005327493"><ele>429.0</ele><time>2026-05-02T07:55:16.999Z</time></trkpt><trkpt lat="41.98687565444103" lon="2.9133732813967375"><ele>429.0</ele><time>2026-05-02T07:55:17.999Z</time></trkpt><trkpt lat="41.9869418049547" lon="2.913339821727938"><ele>425.6666666666667</ele><time>2026-05-02T07:55:18.999Z</time></trkpt><trkpt lat="41.98701067884538" lon="2.9133015612790865"><ele>422.33333333333337</ele><time>2026-05-02T07:55:19.999Z</time></trkpt><trkpt lat="41.98707764034773" lon="2.9132655262027782"><ele>419.0</ele><time>2026-05-02T07:55:20.999Z</time></trkpt><trkpt lat="41.98713976717288" lon="2.913231819856797"><ele>415.6666666666667</ele><time>2026-05-02T07:55:21.999Z</time></trkpt><trkpt lat="41.9872032295084" lon="2.9132055181353387"><ele>412.33333333333337</ele><time>2026-05-02T07:55:22.999Z</time></trkpt><trkpt lat="41.98726527620081" lon="2.913184403685472"><ele>409.0</ele><time>2026-05-02T07:55:23.999Z</time></trkpt><trkpt lat="41.98737805244929" lon="2.913170878428728"><ele>409.00000000000006</ele><time>2026-05-02T07:55:25.999Z</time></trkpt><trkpt lat="41.98747196274084" lon="2.9131662043463002"><ele>409.0</ele><time>2026-05-02T07:55:27.999Z</time></trkpt><trkpt lat="41.98755260117301" lon="2.913143369815263"><ele>409.0</ele><time>2026-05-02T07:55:29.999Z</time></trkpt><trkpt lat="41.98760510400401" lon="2.9130908401135684"><ele>409.0</ele><time>2026-05-02T07:55:31.999Z</time></trkpt><trkpt lat="41.98760829848381" lon="2.912975309841664"><ele>409.00000000000006</ele><time>2026-05-02T07:55:33.999Z</time></trkpt><trkpt lat="41.98759190090987" lon="2.9128277948836168"><ele>409.0</ele><time>2026-05-02T07:55:35.999Z</time></trkpt><trkpt lat="41.98756269111006" lon="2.9127084613645233"><ele>408.2</ele><time>2026-05-02T07:55:37.999Z</time></trkpt><trkpt lat="41.98758024903035" lon="2.912609169604039"><ele>407.4</ele><time>2026-05-02T07:55:39.999Z</time></trkpt><trkpt lat="41.987653044136415" lon="2.91252663046456"><ele>406.6</ele><time>2026-05-02T07:55:41.999Z</time></trkpt><trkpt lat="41.987749788344296" lon="2.9124918457687072"><ele>405.8</ele><time>2026-05-02T07:55:43.999Z</time></trkpt><trkpt lat="41.98787525331505" lon="2.912453286661885"><ele>405.0</ele><time>2026-05-02T07:55:45.999Z</time></trkpt><trkpt lat="41.98794314035154" lon="2.9124392158841608"><ele>405.0</ele><time>2026-05-02T07:55:46.999Z</time></trkpt><trkpt lat="41.98800956158676" lon="2.9124390941161282"><ele>405.0</ele><time>2026-05-02T07:55:47.999Z</time></trkpt><trkpt lat="41.98807778954249" lon="2.912456956325951"><ele>405.0</ele><time>2026-05-02T07:55:48.999Z</time></trkpt><trkpt lat="41.98814121096917" lon="2.912483131092659"><ele>405.0</ele><time>2026-05-02T07:55:49.999Z</time></trkpt><trkpt lat="41.98824923929064" lon="2.912515257847543"><ele>405.0</ele><time>2026-05-02T07:55:51.999Z</time></trkpt><trkpt lat="41.98834851232991" lon="2.912546395258019"><ele>405.0</ele><time>2026-05-02T07:55:53.999Z</time></trkpt><trkpt lat="41.988466335553824" lon="2.9125732523834613"><ele>402.3333333333333</ele><time>2026-05-02T07:55:56Z</time></trkpt><trkpt lat="41.98853393262645" lon="2.912598062705561"><ele>399.66666666666663</ele><time>2026-05-02T07:55:57Z</time></trkpt><trkpt lat="41.988595982378484" lon="2.912625382408202"><ele>397.0</ele><time>2026-05-02T07:55:58Z</time></trkpt><trkpt lat="41.98865921868372" lon="2.9126517556644083"><ele>394.3333333333333</ele><time>2026-05-02T07:55:59Z</time></trkpt><trkpt lat="41.98877580257573" lon="2.912682568297226"><ele>391.66666666666663</ele><time>2026-05-02T07:56:01Z</time></trkpt><trkpt lat="41.98888711371939" lon="2.9127107733330684"><ele>389.0</ele><time>2026-05-02T07:56:03Z</time></trkpt><trkpt lat="41.988949907620174" lon="2.912726954064511"><ele>389.0</ele><time>2026-05-02T07:56:04Z</time></trkpt><trkpt lat="41.98906414428105" lon="2.9127694007493656"><ele>389.0</ele><time>2026-05-02T07:56:06Z</time></trkpt><trkpt lat="41.989170302686055" lon="2.912817338203528"><ele>389.0</ele><time>2026-05-02T07:56:08Z</time></trkpt><trkpt lat="41.98926863074176" lon="2.912862477125314"><ele>389.0</ele><time>2026-05-02T07:56:10Z</time></trkpt><trkpt lat="41.98936830499174" lon="2.912902896393194"><ele>389.0</ele><time>2026-05-02T07:56:12Z</time></trkpt><trkpt lat="41.989476084352795" lon="2.912945309860998"><ele>388.2</ele><time>2026-05-02T07:56:14Z</time></trkpt><trkpt lat="41.98960142388581" lon="2.912973635435424"><ele>387.4</ele><time>2026-05-02T07:56:16Z</time></trkpt><trkpt lat="41.98966631438983" lon="2.9129792371023893"><ele>386.6</ele><time>2026-05-02T07:56:17Z</time></trkpt><trkpt lat="41.989730703527826" lon="2.912982046413086"><ele>385.8</ele><time>2026-05-02T07:56:18Z</time></trkpt><trkpt lat="41.989842330133946" lon="2.9129774662810815"><ele>385.0</ele><time>2026-05-02T07:56:20Z</time></trkpt><trkpt lat="41.989940233450554" lon="2.912985528571115"><ele>383.00000000000006</ele><time>2026-05-02T07:56:22Z</time></trkpt><trkpt lat="41.99003758542705" lon="2.9129984461675664"><ele>381.0</ele><time>2026-05-02T07:56:24Z</time></trkpt><trkpt lat="41.99013735742552" lon="2.9130133387702513"><ele>379.0</ele><time>2026-05-02T07:56:26Z</time></trkpt><trkpt lat="41.9902409405312" lon="2.913052578717047"><ele>377.0</ele><time>2026-05-02T07:56:28Z</time></trkpt><trkpt lat="41.99030428052537" lon="2.913079444503572"><ele>375.0</ele><time>2026-05-02T07:56:29Z</time></trkpt><trkpt lat="41.99036302138894" lon="2.9131136989342554"><ele>373.0</ele><time>2026-05-02T07:56:30Z</time></trkpt><trkpt lat="41.99047931170764" lon="2.913138711941051"><ele>373.0</ele><time>2026-05-02T07:56:32Z</time></trkpt><trkpt lat="41.99056286668891" lon="2.9130947636033113"><ele>373.0</ele><time>2026-05-02T07:56:34Z</time></trkpt><trkpt lat="41.99062843064335" lon="2.913066082382009"><ele>373.0</ele><time>2026-05-02T07:56:36Z</time></trkpt><trkpt lat="41.990697588979884" lon="2.913045941873619"><ele>373.0</ele><time>2026-05-02T07:56:38Z</time></trkpt><trkpt lat="41.99080109765803" lon="2.913077459327083"><ele>373.0</ele><time>2026-05-02T07:56:41Z</time></trkpt><trkpt lat="41.99088126485588" lon="2.913153312973619"><ele>373.0</ele><time>2026-05-02T07:56:42.999Z</time></trkpt><trkpt lat="41.99093162690511" lon="2.9132048526821346"><ele>370.3333333333333</ele><time>2026-05-02T07:56:43.999Z</time></trkpt><trkpt lat="41.99098515913188" lon="2.9132526941144103"><ele>367.66666666666663</ele><time>2026-05-02T07:56:44.999Z</time></trkpt><trkpt lat="41.99104573218405" lon="2.9132995421229224"><ele>365.0</ele><time>2026-05-02T07:56:45.999Z</time></trkpt><trkpt lat="41.99110754550248" lon="2.913335798388203"><ele>362.3333333333333</ele><time>2026-05-02T07:56:46.999Z</time></trkpt><trkpt lat="41.991204471616314" lon="2.913385824618435"><ele>359.6666666666667</ele><time>2026-05-02T07:56:48.999Z</time></trkpt><trkpt lat="41.991285834916965" lon="2.9134594763345207"><ele>357.0</ele><time>2026-05-02T07:56:50.999Z</time></trkpt><trkpt lat="41.99136941225139" lon="2.913531539811368"><ele>355.6666666666667</ele><time>2026-05-02T07:56:52.999Z</time></trkpt><trkpt lat="41.9914763861906" lon="2.913566077068862"><ele>354.3333333333333</ele><time>2026-05-02T07:56:54.999Z</time></trkpt><trkpt lat="41.99159434921286" lon="2.913554306127423"><ele>353.0</ele><time>2026-05-02T07:56:56.999Z</time></trkpt><trkpt lat="41.99165895117294" lon="2.9135505994370963"><ele>351.66666666666663</ele><time>2026-05-02T07:56:57.999Z</time></trkpt><trkpt lat="41.99172484956997" lon="2.9135490456524473"><ele>350.3333333333333</ele><time>2026-05-02T07:56:58.999Z</time></trkpt><trkpt lat="41.9917915302976" lon="2.913551382534983"><ele>349.0</ele><time>2026-05-02T07:56:59.999Z</time></trkpt><trkpt lat="41.99190822716563" lon="2.9135544668556355"><ele>347.0</ele><time>2026-05-02T07:57:01.999Z</time></trkpt><trkpt lat="41.992014307215314" lon="2.913563794642805"><ele>345.0</ele><time>2026-05-02T07:57:03.999Z</time></trkpt><trkpt lat="41.99211846178838" lon="2.913579476012161"><ele>343.0</ele><time>2026-05-02T07:57:05.999Z</time></trkpt><trkpt lat="41.99222662420137" lon="2.9136029717019123"><ele>341.0</ele><time>2026-05-02T07:57:07.999Z</time></trkpt><trkpt lat="41.9923474488529" lon="2.913597121299912"><ele>339.0</ele><time>2026-05-02T07:57:09.999Z</time></trkpt><trkpt lat="41.99241446791527" lon="2.913584062325363"><ele>339.0</ele><time>2026-05-02T07:57:10.999Z</time></trkpt><trkpt lat="41.99249024885957" lon="2.9135744599763496"><ele>339.0</ele><time>2026-05-02T07:57:11.999Z</time></trkpt><trkpt lat="41.992564369161585" lon="2.9135763046022007"><ele>339.0</ele><time>2026-05-02T07:57:12.999Z</time></trkpt><trkpt lat="41.99263152518688" lon="2.913584870090404"><ele>339.0</ele><time>2026-05-02T07:57:13.999Z</time></trkpt><trkpt lat="41.992695964531954" lon="2.9136055857474403"><ele>339.0</ele><time>2026-05-02T07:57:14.999Z</time></trkpt><trkpt lat="41.99275986596522" lon="2.913634960746276"><ele>339.0</ele><time>2026-05-02T07:57:15.999Z</time></trkpt><trkpt lat="41.99282744268574" lon="2.913664884832371"><ele>339.0</ele><time>2026-05-02T07:57:16.999Z</time></trkpt><trkpt lat="41.99288781884872" lon="2.9136974868936014"><ele>338.5</ele><time>2026-05-02T07:57:17.999Z</time></trkpt><trkpt lat="41.99300353645892" lon="2.9137546534341587"><ele>338.0</ele><time>2026-05-02T07:57:19.999Z</time></trkpt><trkpt lat="41.9930677224515" lon="2.91377825196307"><ele>337.5</ele><time>2026-05-02T07:57:20.999Z</time></trkpt><trkpt lat="41.993139840610716" lon="2.9138027645994065"><ele>337.0</ele><time>2026-05-02T07:57:21.999Z</time></trkpt><trkpt lat="41.99320786206838" lon="2.9138297377199653"><ele>336.5</ele><time>2026-05-02T07:57:22.999Z</time></trkpt><trkpt lat="41.993279549599755" lon="2.9138601114750626"><ele>336.0</ele><time>2026-05-02T07:57:23.999Z</time></trkpt><trkpt lat="41.99335389985202" lon="2.913906101244167"><ele>337.1666666666667</ele><time>2026-05-02T07:57:24.999Z</time></trkpt><trkpt lat="41.99342993267817" lon="2.913961704291503"><ele>338.3333333333333</ele><time>2026-05-02T07:57:25.999Z</time></trkpt><trkpt lat="41.99350649191629" lon="2.9140161068024404"><ele>339.5</ele><time>2026-05-02T07:57:26.999Z</time></trkpt><trkpt lat="41.99358865399647" lon="2.9140648484352156"><ele>340.66666666666663</ele><time>2026-05-02T07:57:27.999Z</time></trkpt><trkpt lat="41.9936687502494" lon="2.914115665718215"><ele>341.8333333333333</ele><time>2026-05-02T07:57:28.999Z</time></trkpt><trkpt lat="41.99375223212391" lon="2.9141739572066014"><ele>343.0</ele><time>2026-05-02T07:57:29.999Z</time></trkpt><trkpt lat="41.993830554797945" lon="2.9142331204494765"><ele>342.3333333333333</ele><time>2026-05-02T07:57:30.999Z</time></trkpt><trkpt lat="41.99390414884566" lon="2.9143003397194205"><ele>341.66666666666663</ele><time>2026-05-02T07:57:31.999Z</time></trkpt><trkpt lat="41.99397368581761" lon="2.914369149151676"><ele>341.0</ele><time>2026-05-02T07:57:32.999Z</time></trkpt><trkpt lat="41.99403276512218" lon="2.9144471716652887"><ele>340.3333333333333</ele><time>2026-05-02T07:57:33.999Z</time></trkpt><trkpt lat="41.99408871428606" lon="2.914524579946371"><ele>339.6666666666667</ele><time>2026-05-02T07:57:34.999Z</time></trkpt><trkpt lat="41.99414628318551" lon="2.914593703346955"><ele>339.0</ele><time>2026-05-02T07:57:35.999Z</time></trkpt><trkpt lat="41.99420114169476" lon="2.91465485930953"><ele>339.0</ele><time>2026-05-02T07:57:36.999Z</time></trkpt><trkpt lat="41.99429435858209" lon="2.9147366896920484"><ele>339.0</ele><time>2026-05-02T07:57:38.999Z</time></trkpt><trkpt lat="41.99439503549946" lon="2.914804448519183"><ele>339.0</ele><time>2026-05-02T07:57:40.999Z</time></trkpt><trkpt lat="41.99450404807624" lon="2.9148545361459837"><ele>339.0</ele><time>2026-05-02T07:57:42.999Z</time></trkpt><trkpt lat="41.994614216441725" lon="2.91488332957297"><ele>339.0</ele><time>2026-05-02T07:57:44.999Z</time></trkpt><trkpt lat="41.99472205468194" lon="2.9149058561639656"><ele>339.0</ele><time>2026-05-02T07:57:46.999Z</time></trkpt><trkpt lat="41.99483873300704" lon="2.9149719496420117"><ele>339.0</ele><time>2026-05-02T07:57:48.999Z</time></trkpt><trkpt lat="41.99490140318468" lon="2.915029812598546"><ele>339.0</ele><time>2026-05-02T07:57:49.999Z</time></trkpt><trkpt lat="41.99496210089696" lon="2.915082040288341"><ele>339.0</ele><time>2026-05-02T07:57:50.999Z</time></trkpt><trkpt lat="41.99501334740672" lon="2.9151328272154897"><ele>339.0</ele><time>2026-05-02T07:57:51.999Z</time></trkpt><trkpt lat="41.995064961228586" lon="2.9151831735524483"><ele>336.7142857142857</ele><time>2026-05-02T07:57:52.999Z</time></trkpt><trkpt lat="41.99511849734983" lon="2.915245294010364"><ele>334.42857142857144</ele><time>2026-05-02T07:57:53.999Z</time></trkpt><trkpt lat="41.99516423648372" lon="2.915310962428834"><ele>332.14285714285717</ele><time>2026-05-02T07:57:54.999Z</time></trkpt><trkpt lat="41.99520725859341" lon="2.915378042057884"><ele>329.8571428571429</ele><time>2026-05-02T07:57:55.999Z</time></trkpt><trkpt lat="41.99524997116657" lon="2.9154441721384154"><ele>327.57142857142856</ele><time>2026-05-02T07:57:56.999Z</time></trkpt><trkpt lat="41.995304819867755" lon="2.915506575543968"><ele>325.28571428571433</ele><time>2026-05-02T07:57:57.999Z</time></trkpt><trkpt lat="41.995365075388605" lon="2.915573826010926"><ele>323.0</ele><time>2026-05-02T07:57:58.999Z</time></trkpt><trkpt lat="41.995420295741546" lon="2.9156415224693757"><ele>323.0</ele><time>2026-05-02T07:57:59.999Z</time></trkpt><trkpt lat="41.995471796419245" lon="2.9156972816565596"><ele>323.0</ele><time>2026-05-02T07:58:01Z</time></trkpt><trkpt lat="41.99555112184161" lon="2.9158267186308"><ele>323.0</ele><time>2026-05-02T07:58:03Z</time></trkpt><trkpt lat="41.995577490379596" lon="2.915906140598437"><ele>323.0</ele><time>2026-05-02T07:58:04Z</time></trkpt><trkpt lat="41.995607856417315" lon="2.915981963421038"><ele>323.0</ele><time>2026-05-02T07:58:05Z</time></trkpt><trkpt lat="41.99566854068721" lon="2.9160897690194747"><ele>323.0</ele><time>2026-05-02T07:58:07Z</time></trkpt><trkpt lat="41.99576288030094" lon="2.916176136665232"><ele>320.8571428571429</ele><time>2026-05-02T07:58:09Z</time></trkpt><trkpt lat="41.99582977165709" lon="2.9162086284212836"><ele>318.7142857142857</ele><time>2026-05-02T07:58:10Z</time></trkpt><trkpt lat="41.995902483749106" lon="2.916233970198001"><ele>316.57142857142856</ele><time>2026-05-02T07:58:11Z</time></trkpt><trkpt lat="41.99597126596094" lon="2.9162651848778056"><ele>314.42857142857144</ele><time>2026-05-02T07:58:12Z</time></trkpt><trkpt lat="41.99603630980834" lon="2.9163135652610634"><ele>312.2857142857143</ele><time>2026-05-02T07:58:13Z</time></trkpt><trkpt lat="41.996095074049194" lon="2.916369129440709"><ele>310.14285714285717</ele><time>2026-05-02T07:58:14Z</time></trkpt><trkpt lat="41.99614605392071" lon="2.9164355532544115"><ele>308.0</ele><time>2026-05-02T07:58:15Z</time></trkpt><trkpt lat="41.99619313965475" lon="2.9165107431855786"><ele>308.0</ele><time>2026-05-02T07:58:16Z</time></trkpt><trkpt lat="41.99623737768641" lon="2.916586477496702"><ele>308.0</ele><time>2026-05-02T07:58:17Z</time></trkpt><trkpt lat="41.99628468276986" lon="2.916652743188975"><ele>308.0</ele><time>2026-05-02T07:58:18Z</time></trkpt><trkpt lat="41.99633061418108" lon="2.9167219763713823"><ele>308.0</ele><time>2026-05-02T07:58:19Z</time></trkpt><trkpt lat="41.996379466621455" lon="2.9167994951283536"><ele>308.0</ele><time>2026-05-02T07:58:20Z</time></trkpt><trkpt lat="41.996417887796134" lon="2.916878966592584"><ele>308.0</ele><time>2026-05-02T07:58:21Z</time></trkpt><trkpt lat="41.99648223020557" lon="2.9170064088580907"><ele>305.1666666666667</ele><time>2026-05-02T07:58:23Z</time></trkpt><trkpt lat="41.99656240256847" lon="2.917104544283227"><ele>302.33333333333337</ele><time>2026-05-02T07:58:25Z</time></trkpt><trkpt lat="41.99662143250263" lon="2.917137430721593"><ele>299.5</ele><time>2026-05-02T07:58:26Z</time></trkpt><trkpt lat="41.99668709998734" lon="2.917158756040107"><ele>296.6666666666667</ele><time>2026-05-02T07:58:27Z</time></trkpt><trkpt lat="41.99675548130709" lon="2.917200094317536"><ele>293.8333333333333</ele><time>2026-05-02T07:58:28Z</time></trkpt><trkpt lat="41.996816218120664" lon="2.917161157419305"><ele>291.0</ele><time>2026-05-02T07:58:29Z</time></trkpt><trkpt lat="41.996911903555834" lon="2.9171027268631216"><ele>290.1666666666667</ele><time>2026-05-02T07:58:31Z</time></trkpt><trkpt lat="41.9969943311523" lon="2.917019376661176"><ele>289.3333333333333</ele><time>2026-05-02T07:58:33Z</time></trkpt><trkpt lat="41.99704068388107" lon="2.9169582007563406"><ele>288.5</ele><time>2026-05-02T07:58:34Z</time></trkpt><trkpt lat="41.99709864849884" lon="2.916917424217225"><ele>287.66666666666663</ele><time>2026-05-02T07:58:35Z</time></trkpt><trkpt lat="41.99722640028013" lon="2.9168819927370775"><ele>286.8333333333333</ele><time>2026-05-02T07:58:37Z</time></trkpt><trkpt lat="41.997294813834245" lon="2.916891045660817"><ele>286.0</ele><time>2026-05-02T07:58:38Z</time></trkpt><trkpt lat="41.9974005599136" lon="2.9169122073040725"><ele>286.0</ele><time>2026-05-02T07:58:40Z</time></trkpt><trkpt lat="41.99748266122118" lon="2.917052203572765"><ele>286.0</ele><time>2026-05-02T07:58:42Z</time></trkpt><trkpt lat="41.997552798391474" lon="2.9171580483539645"><ele>286.0</ele><time>2026-05-02T07:58:44Z</time></trkpt><trkpt lat="41.99763847283481" lon="2.9172388452966618"><ele>286.0</ele><time>2026-05-02T07:58:46Z</time></trkpt><trkpt lat="41.99772979130888" lon="2.917309420803932"><ele>286.0</ele><time>2026-05-02T07:58:48Z</time></trkpt><trkpt lat="41.9978179849956" lon="2.917349980888213"><ele>285.5</ele><time>2026-05-02T07:58:50Z</time></trkpt><trkpt lat="41.99791489228653" lon="2.9173623909202497"><ele>285.0</ele><time>2026-05-02T07:58:51.999Z</time></trkpt><trkpt lat="41.99800849372792" lon="2.917353142757828"><ele>284.5</ele><time>2026-05-02T07:58:53.999Z</time></trkpt><trkpt lat="41.99809549168226" lon="2.917343826572169"><ele>284.0</ele><time>2026-05-02T07:58:55.999Z</time></trkpt><trkpt lat="41.99815464617252" lon="2.917446735652787"><ele>283.5</ele><time>2026-05-02T07:58:57.999Z</time></trkpt><trkpt lat="41.998111739136746" lon="2.9175238727105626"><ele>283.0</ele><time>2026-05-02T07:58:58.999Z</time></trkpt><trkpt lat="41.99804331617065" lon="2.9175966214165894"><ele>280.0</ele><time>2026-05-02T07:59:00.999Z</time></trkpt><trkpt lat="41.997973095608934" lon="2.9177047817324193"><ele>277.0</ele><time>2026-05-02T07:59:02.999Z</time></trkpt><trkpt lat="41.99788565010707" lon="2.9178106559927097"><ele>274.0</ele><time>2026-05-02T07:59:04.999Z</time></trkpt><trkpt lat="41.997785968027195" lon="2.9177569365973524"><ele>271.0</ele><time>2026-05-02T07:59:06.999Z</time></trkpt><trkpt lat="41.99765728805219" lon="2.9177466356813295"><ele>271.0</ele><time>2026-05-02T07:59:08.999Z</time></trkpt><trkpt lat="41.99754146282219" lon="2.9177778785564152"><ele>271.0</ele><time>2026-05-02T07:59:10.999Z</time></trkpt><trkpt lat="41.9974669417125" lon="2.91786584608007"><ele>271.0</ele><time>2026-05-02T07:59:12.999Z</time></trkpt><trkpt lat="41.99746282063103" lon="2.9180193541325483"><ele>271.0</ele><time>2026-05-02T07:59:15.999Z</time></trkpt><trkpt lat="41.99757176330307" lon="2.9181048409356913"><ele>271.0</ele><time>2026-05-02T07:59:17.999Z</time></trkpt><trkpt lat="41.99761442248325" lon="2.9181805122165945"><ele>271.0</ele><time>2026-05-02T07:59:18.999Z</time></trkpt><trkpt lat="41.997679542118654" lon="2.9183100537537965"><ele>271.0</ele><time>2026-05-02T07:59:20.999Z</time></trkpt><trkpt lat="41.99771226852648" lon="2.918386051008762"><ele>271.0</ele><time>2026-05-02T07:59:21.999Z</time></trkpt><trkpt lat="41.997748529806195" lon="2.918471362641268"><ele>271.0</ele><time>2026-05-02T07:59:22.999Z</time></trkpt><trkpt lat="41.99778445680955" lon="2.918550360299267"><ele>271.0</ele><time>2026-05-02T07:59:23.999Z</time></trkpt><trkpt lat="41.99784582812644" lon="2.9186686391413317"><ele>268.3333333333333</ele><time>2026-05-02T07:59:25.999Z</time></trkpt><trkpt lat="41.99790604661269" lon="2.9187590180381884"><ele>265.66666666666663</ele><time>2026-05-02T07:59:27.999Z</time></trkpt><trkpt lat="41.99797386373142" lon="2.9187744984304964"><ele>263.0</ele><time>2026-05-02T07:59:29.999Z</time></trkpt><trkpt lat="41.99808753935639" lon="2.918757358396497"><ele>260.3333333333333</ele><time>2026-05-02T07:59:31.999Z</time></trkpt><trkpt lat="41.99813786287605" lon="2.9186934516105687"><ele>257.6666666666667</ele><time>2026-05-02T07:59:32.999Z</time></trkpt><trkpt lat="41.998194672067605" lon="2.9186477250859326"><ele>255.0</ele><time>2026-05-02T07:59:33.999Z</time></trkpt><trkpt lat="41.998258840974074" lon="2.918634493401044"><ele>255.0</ele><time>2026-05-02T07:59:34.999Z</time></trkpt><trkpt lat="41.99831918451281" lon="2.9186066145790597"><ele>255.00000000000003</ele><time>2026-05-02T07:59:35.999Z</time></trkpt><trkpt lat="41.998386656282285" lon="2.9185859330404194"><ele>255.0</ele><time>2026-05-02T07:59:36.999Z</time></trkpt><trkpt lat="41.99845847621643" lon="2.9185767762602586"><ele>255.0</ele><time>2026-05-02T07:59:37.999Z</time></trkpt><trkpt lat="41.998534303720106" lon="2.918570506557418"><ele>255.00000000000003</ele><time>2026-05-02T07:59:38.999Z</time></trkpt><trkpt lat="41.99860838183573" lon="2.9185531378983236"><ele>255.0</ele><time>2026-05-02T07:59:39.999Z</time></trkpt><trkpt lat="41.99868637177659" lon="2.9185544551014875"><ele>255.0</ele><time>2026-05-02T07:59:40.999Z</time></trkpt><trkpt lat="41.99876000373637" lon="2.9185501294899994"><ele>252.83333333333334</ele><time>2026-05-02T07:59:41.999Z</time></trkpt><trkpt lat="41.99883759875166" lon="2.9185402539727083"><ele>250.66666666666669</ele><time>2026-05-02T07:59:42.999Z</time></trkpt><trkpt lat="41.99890568596978" lon="2.918529636355389"><ele>248.5</ele><time>2026-05-02T07:59:43.999Z</time></trkpt><trkpt lat="41.99897940739896" lon="2.91852259747146"><ele>246.33333333333334</ele><time>2026-05-02T07:59:44.999Z</time></trkpt><trkpt lat="41.999063727640745" lon="2.91850681980659"><ele>244.16666666666669</ele><time>2026-05-02T07:59:45.999Z</time></trkpt><trkpt lat="41.99914116170643" lon="2.918491599940353"><ele>242.0</ele><time>2026-05-02T07:59:46.999Z</time></trkpt><trkpt lat="41.99925489608038" lon="2.9184718856128358"><ele>241.39999999999998</ele><time>2026-05-02T07:59:48.999Z</time></trkpt><trkpt lat="41.99937438066879" lon="2.918448539673948"><ele>240.79999999999998</ele><time>2026-05-02T07:59:50.999Z</time></trkpt><trkpt lat="41.99949406064066" lon="2.9184057720857557"><ele>240.2</ele><time>2026-05-02T07:59:52.999Z</time></trkpt><trkpt lat="41.9995580267491" lon="2.9183835691523767"><ele>239.6</ele><time>2026-05-02T07:59:53.999Z</time></trkpt><trkpt lat="41.999629993285524" lon="2.918365954780049"><ele>239.0</ele><time>2026-05-02T07:59:54.999Z</time></trkpt><trkpt lat="41.99970274329088" lon="2.9183459728205836"><ele>240.33333333333334</ele><time>2026-05-02T07:59:55.999Z</time></trkpt><trkpt lat="41.99976969439422" lon="2.9183366292249353"><ele>241.66666666666669</ele><time>2026-05-02T07:59:56.999Z</time></trkpt><trkpt lat="41.99983205951264" lon="2.918322452691281"><ele>243.0</ele><time>2026-05-02T07:59:57.999Z</time></trkpt><trkpt lat="41.99989840212343" lon="2.918294766214594"><ele>244.33333333333331</ele><time>2026-05-02T07:59:58.999Z</time></trkpt><trkpt lat="41.99996809793793" lon="2.918261202156903"><ele>245.66666666666666</ele><time>2026-05-02T07:59:59.999Z</time></trkpt><trkpt lat="42.00003614652986" lon="2.9182307669171035"><ele>247.0</ele><time>2026-05-02T08:00:00.999Z</time></trkpt><trkpt lat="42.000140942121455" lon="2.91817974609804"><ele>247.0</ele><time>2026-05-02T08:00:02.999Z</time></trkpt><trkpt lat="42.000239939375206" lon="2.9181398340674494"><ele>247.0</ele><time>2026-05-02T08:00:04.999Z</time></trkpt><trkpt lat="42.00033514217301" lon="2.9181416131620557"><ele>247.0</ele><time>2026-05-02T08:00:07Z</time></trkpt><trkpt lat="42.00040429979057" lon="2.918135056103888"><ele>247.0</ele><time>2026-05-02T08:00:09Z</time></trkpt><trkpt lat="42.00047651517457" lon="2.9182192693559093"><ele>247.0</ele><time>2026-05-02T08:00:11Z</time></trkpt><trkpt lat="42.00049584494589" lon="2.9183814004812043"><ele>245.39999999999998</ele><time>2026-05-02T08:00:13Z</time></trkpt><trkpt lat="42.00044444341572" lon="2.918498706008152"><ele>243.79999999999998</ele><time>2026-05-02T08:00:15Z</time></trkpt><trkpt lat="42.00038982431714" lon="2.9186049302314667"><ele>242.2</ele><time>2026-05-02T08:00:17Z</time></trkpt><trkpt lat="42.00032427000438" lon="2.918707510636247"><ele>240.6</ele><time>2026-05-02T08:00:19Z</time></trkpt><trkpt lat="42.00022903438094" lon="2.9187651963679992"><ele>239.0</ele><time>2026-05-02T08:00:21Z</time></trkpt><trkpt lat="42.00014561382726" lon="2.918854188424808"><ele>239.0</ele><time>2026-05-02T08:00:23Z</time></trkpt><trkpt lat="42.00010005467748" lon="2.9189701886163464"><ele>238.99999999999997</ele><time>2026-05-02T08:00:25Z</time></trkpt><trkpt lat="42.000122722749005" lon="2.9190955311641904"><ele>238.99999999999997</ele><time>2026-05-02T08:00:27Z</time></trkpt><trkpt lat="42.000215191873075" lon="2.9191546892667923"><ele>239.0</ele><time>2026-05-02T08:00:29Z</time></trkpt><trkpt lat="42.00028385595403" lon="2.919283142636417"><ele>239.0</ele><time>2026-05-02T08:00:31Z</time></trkpt><trkpt lat="42.00034571386301" lon="2.9193921082595096"><ele>236.16666666666669</ele><time>2026-05-02T08:00:33Z</time></trkpt><trkpt lat="42.00036891110156" lon="2.9195071177999297"><ele>233.33333333333334</ele><time>2026-05-02T08:00:35Z</time></trkpt><trkpt lat="42.000358029064266" lon="2.9196002665106433"><ele>230.5</ele><time>2026-05-02T08:00:36Z</time></trkpt><trkpt lat="42.00033218944938" lon="2.919678166206654"><ele>227.66666666666669</ele><time>2026-05-02T08:00:37Z</time></trkpt><trkpt lat="42.00027606338462" lon="2.9198098305604963"><ele>224.83333333333334</ele><time>2026-05-02T08:00:39Z</time></trkpt><trkpt lat="42.00027342064533" lon="2.919954040346189"><ele>222.0</ele><time>2026-05-02T08:00:42Z</time></trkpt><trkpt lat="42.00025009570119" lon="2.920059541240068"><ele>222.0</ele><time>2026-05-02T08:00:44Z</time></trkpt><trkpt lat="42.00029908240969" lon="2.9201477557611915"><ele>222.0</ele><time>2026-05-02T08:00:46Z</time></trkpt><trkpt lat="42.00037168900247" lon="2.920122135554429"><ele>222.0</ele><time>2026-05-02T08:00:48Z</time></trkpt><trkpt lat="42.00046279971995" lon="2.920046204230389"><ele>222.0</ele><time>2026-05-02T08:00:51Z</time></trkpt><trkpt lat="42.00050561895238" lon="2.919949772494435"><ele>222.0</ele><time>2026-05-02T08:00:53Z</time></trkpt><trkpt lat="42.00054962287717" lon="2.919844191457675"><ele>222.0</ele><time>2026-05-02T08:00:55Z</time></trkpt><trkpt lat="42.0005992743934" lon="2.919733968322568"><ele>222.0</ele><time>2026-05-02T08:00:57Z</time></trkpt><trkpt lat="42.00065823215698" lon="2.9196263779892404"><ele>222.0</ele><time>2026-05-02T08:00:59Z</time></trkpt><trkpt lat="42.00075331554748" lon="2.9195263740688193"><ele>222.0</ele><time>2026-05-02T08:01:02Z</time></trkpt><trkpt lat="42.00079757295635" lon="2.9194630980622778"><ele>222.0</ele><time>2026-05-02T08:01:02.999Z</time></trkpt><trkpt lat="42.00083308492524" lon="2.919369659606462"><ele>222.0</ele><time>2026-05-02T08:01:03.999Z</time></trkpt><trkpt lat="42.0009054585727" lon="2.919263080884696"><ele>221.2</ele><time>2026-05-02T08:01:05.999Z</time></trkpt><trkpt lat="42.00097909591034" lon="2.9191494160999456"><ele>220.39999999999998</ele><time>2026-05-02T08:01:07.999Z</time></trkpt><trkpt lat="42.00104124255311" lon="2.919022101960694"><ele>219.60000000000002</ele><time>2026-05-02T08:01:09.999Z</time></trkpt><trkpt lat="42.00111622715012" lon="2.9189338673668996"><ele>218.8</ele><time>2026-05-02T08:01:11.999Z</time></trkpt><trkpt lat="42.00119024210396" lon="2.918891331021279"><ele>218.0</ele><time>2026-05-02T08:01:13.999Z</time></trkpt><trkpt lat="42.001347666642026" lon="2.919069190051582"><ele>218.0</ele><time>2026-05-02T08:01:18.999Z</time></trkpt><trkpt lat="42.00142643906607" lon="2.919158382881795"><ele>218.0</ele><time>2026-05-02T08:01:20.999Z</time></trkpt><trkpt lat="42.0015371527002" lon="2.919245738564221"><ele>218.0</ele><time>2026-05-02T08:01:22.999Z</time></trkpt><trkpt lat="42.00159929490816" lon="2.919284878140995"><ele>218.0</ele><time>2026-05-02T08:01:23.999Z</time></trkpt><trkpt lat="42.001667122042846" lon="2.919314780950976"><ele>218.0</ele><time>2026-05-02T08:01:24.999Z</time></trkpt><trkpt lat="42.00173989536665" lon="2.919361482780416"><ele>213.50000000000003</ele><time>2026-05-02T08:01:25.999Z</time></trkpt><trkpt lat="42.0018110452772" lon="2.9194165051946532"><ele>209.0</ele><time>2026-05-02T08:01:26.999Z</time></trkpt><trkpt lat="42.00187899185267" lon="2.9194739082901586"><ele>204.5</ele><time>2026-05-02T08:01:27.999Z</time></trkpt><trkpt lat="42.00194598301201" lon="2.9195331704884993"><ele>200.0</ele><time>2026-05-02T08:01:28.999Z</time></trkpt><trkpt lat="42.00200987870858" lon="2.919593947917949"><ele>195.5</ele><time>2026-05-02T08:01:29.999Z</time></trkpt><trkpt lat="42.00207190477401" lon="2.9196627426111585"><ele>191.0</ele><time>2026-05-02T08:01:30.999Z</time></trkpt><trkpt lat="42.002142508190076" lon="2.919713470675187"><ele>191.0</ele><time>2026-05-02T08:01:31.999Z</time></trkpt><trkpt lat="42.00220540672054" lon="2.919756606483282"><ele>191.0</ele><time>2026-05-02T08:01:32.999Z</time></trkpt><trkpt lat="42.002269908277" lon="2.9198175964358377"><ele>191.0</ele><time>2026-05-02T08:01:33.999Z</time></trkpt><trkpt lat="42.00233135691625" lon="2.91988146938253"><ele>191.0</ele><time>2026-05-02T08:01:34.999Z</time></trkpt><trkpt lat="42.00238578220985" lon="2.9199489037840074"><ele>191.0</ele><time>2026-05-02T08:01:35.999Z</time></trkpt><trkpt lat="42.00242497305041" lon="2.92001527369038"><ele>191.0</ele><time>2026-05-02T08:01:36.999Z</time></trkpt><trkpt lat="42.00251901016049" lon="2.920110030594717"><ele>187.8</ele><time>2026-05-02T08:01:38.999Z</time></trkpt><trkpt lat="42.00260812931691" lon="2.9201936420928662"><ele>184.60000000000002</ele><time>2026-05-02T08:01:40.999Z</time></trkpt><trkpt lat="42.00269948494358" lon="2.92024030663053"><ele>181.4</ele><time>2026-05-02T08:01:42.999Z</time></trkpt><trkpt lat="42.002808400478" lon="2.920259065564396"><ele>178.2</ele><time>2026-05-02T08:01:44.999Z</time></trkpt><trkpt lat="42.002919963993534" lon="2.9202484404001874"><ele>175.0</ele><time>2026-05-02T08:01:46.999Z</time></trkpt><trkpt lat="42.00298097878341" lon="2.920217525243727"><ele>175.0</ele><time>2026-05-02T08:01:47.999Z</time></trkpt><trkpt lat="42.00310174917841" lon="2.9201885162037144"><ele>175.0</ele><time>2026-05-02T08:01:49.999Z</time></trkpt><trkpt lat="42.00318637261842" lon="2.920172040816014"><ele>175.0</ele><time>2026-05-02T08:01:51.999Z</time></trkpt><trkpt lat="42.00325886169332" lon="2.920129629658897"><ele>175.0</ele><time>2026-05-02T08:01:53.999Z</time></trkpt><trkpt lat="42.00331828676021" lon="2.9200647301861538"><ele>175.0</ele><time>2026-05-02T08:01:55.999Z</time></trkpt><trkpt lat="42.003380589340274" lon="2.920010497131756"><ele>175.0</ele><time>2026-05-02T08:01:57.999Z</time></trkpt><trkpt lat="42.003442600896015" lon="2.9199807368104973"><ele>173.8</ele><time>2026-05-02T08:01:59.999Z</time></trkpt><trkpt lat="42.00353479175904" lon="2.9200133626209452"><ele>172.6</ele><time>2026-05-02T08:02:01.999Z</time></trkpt><trkpt lat="42.00363748849303" lon="2.9200591342748465"><ele>171.39999999999998</ele><time>2026-05-02T08:02:03.999Z</time></trkpt><trkpt lat="42.00369831055195" lon="2.9200829072004297"><ele>170.2</ele><time>2026-05-02T08:02:04.999Z</time></trkpt><trkpt lat="42.00376323909121" lon="2.9200679772074563"><ele>169.0</ele><time>2026-05-02T08:02:05.999Z</time></trkpt><trkpt lat="42.00388683277056" lon="2.9201325051057196"><ele>169.0</ele><time>2026-05-02T08:02:07.999Z</time></trkpt><trkpt lat="42.003986907594644" lon="2.920220814765119"><ele>169.0</ele><time>2026-05-02T08:02:09.999Z</time></trkpt><trkpt lat="42.00407915597806" lon="2.920222644089408"><ele>169.0</ele><time>2026-05-02T08:02:12Z</time></trkpt><trkpt lat="42.00416804116752" lon="2.9202638755421058"><ele>169.0</ele><time>2026-05-02T08:02:14Z</time></trkpt><trkpt lat="42.004238623108684" lon="2.9203172358145446"><ele>169.0</ele><time>2026-05-02T08:02:16Z</time></trkpt><trkpt lat="42.004337087566775" lon="2.92030066040239"><ele>167.2</ele><time>2026-05-02T08:02:18Z</time></trkpt><trkpt lat="42.004422200949044" lon="2.9203173411761423"><ele>165.39999999999998</ele><time>2026-05-02T08:02:20Z</time></trkpt><trkpt lat="42.00452127527853" lon="2.920330111044626"><ele>163.6</ele><time>2026-05-02T08:02:22Z</time></trkpt><trkpt lat="42.00460205186227" lon="2.9204049900774898"><ele>161.8</ele><time>2026-05-02T08:02:24Z</time></trkpt><trkpt lat="42.004675893418494" lon="2.9204395884461865"><ele>160.0</ele><time>2026-05-02T08:02:26Z</time></trkpt><trkpt lat="42.0047729558764" lon="2.920463912410017"><ele>160.0</ele><time>2026-05-02T08:02:28Z</time></trkpt><trkpt lat="42.00487630332036" lon="2.9203824715383364"><ele>160.0</ele><time>2026-05-02T08:02:30Z</time></trkpt><trkpt lat="42.0049785851304" lon="2.920327526818217"><ele>160.0</ele><time>2026-05-02T08:02:32Z</time></trkpt><trkpt lat="42.005074655904245" lon="2.9202638454363834"><ele>160.0</ele><time>2026-05-02T08:02:34Z</time></trkpt><trkpt lat="42.00518810854643" lon="2.920209737845128"><ele>161.2</ele><time>2026-05-02T08:02:36Z</time></trkpt><trkpt lat="42.00524677554898" lon="2.920173870398346"><ele>162.4</ele><time>2026-05-02T08:02:37Z</time></trkpt><trkpt lat="42.00533429091815" lon="2.920107730831981"><ele>163.60000000000002</ele><time>2026-05-02T08:02:39Z</time></trkpt><trkpt lat="42.005411205221" lon="2.920069951463196"><ele>164.8</ele><time>2026-05-02T08:02:41Z</time></trkpt><trkpt lat="42.005545044076385" lon="2.92006065793073"><ele>166.0</ele><time>2026-05-02T08:02:43Z</time></trkpt><trkpt lat="42.005618779403214" lon="2.9200522085449676"><ele>166.0</ele><time>2026-05-02T08:02:44Z</time></trkpt><trkpt lat="42.00568661912401" lon="2.920044328320478"><ele>166.0</ele><time>2026-05-02T08:02:45Z</time></trkpt><trkpt lat="42.00576395235316" lon="2.9200340629285924"><ele>166.0</ele><time>2026-05-02T08:02:46Z</time></trkpt><trkpt lat="42.00583199907622" lon="2.9200010688259472"><ele>166.0</ele><time>2026-05-02T08:02:47Z</time></trkpt><trkpt lat="42.005892631841604" lon="2.9199694970125214"><ele>166.0</ele><time>2026-05-02T08:02:48Z</time></trkpt><trkpt lat="42.005955610796796" lon="2.9199572850657525"><ele>166.0</ele><time>2026-05-02T08:02:49Z</time></trkpt><trkpt lat="42.00602653181494" lon="2.9199290459536273"><ele>166.0</ele><time>2026-05-02T08:02:50Z</time></trkpt><trkpt lat="42.006093253643" lon="2.9199346827631087"><ele>163.0</ele><time>2026-05-02T08:02:51Z</time></trkpt><trkpt lat="42.006222098414355" lon="2.919916237444934"><ele>160.0</ele><time>2026-05-02T08:02:53Z</time></trkpt><trkpt lat="42.00628414531551" lon="2.9199001719451667"><ele>157.0</ele><time>2026-05-02T08:02:54Z</time></trkpt><trkpt lat="42.00635416467623" lon="2.9198669075128088"><ele>154.0</ele><time>2026-05-02T08:02:55Z</time></trkpt><trkpt lat="42.00655680908389" lon="2.919900176521441"><ele>154.0</ele><time>2026-05-02T08:02:58Z</time></trkpt><trkpt lat="42.006620315170714" lon="2.9198880703607015"><ele>154.0</ele><time>2026-05-02T08:02:59Z</time></trkpt><trkpt lat="42.00669113937033" lon="2.9198794908640124"><ele>154.0</ele><time>2026-05-02T08:03:00Z</time></trkpt><trkpt lat="42.00678184337817" lon="2.919894032481566"><ele>154.0</ele><time>2026-05-02T08:03:01Z</time></trkpt><trkpt lat="42.00686077102086" lon="2.9198934125113873"><ele>154.0</ele><time>2026-05-02T08:03:02Z</time></trkpt><trkpt lat="42.006937144632374" lon="2.9198964094011397"><ele>154.0</ele><time>2026-05-02T08:03:03Z</time></trkpt><trkpt lat="42.007000687839906" lon="2.919899989255123"><ele>154.0</ele><time>2026-05-02T08:03:04Z</time></trkpt><trkpt lat="42.00706998276399" lon="2.919908304240773"><ele>152.0</ele><time>2026-05-02T08:03:05Z</time></trkpt><trkpt lat="42.00713817798678" lon="2.919900830149255"><ele>150.0</ele><time>2026-05-02T08:03:06Z</time></trkpt><trkpt lat="42.00724010604052" lon="2.919935721412667"><ele>148.0</ele><time>2026-05-02T08:03:08Z</time></trkpt><trkpt lat="42.007347108020724" lon="2.9199974395671253"><ele>146.0</ele><time>2026-05-02T08:03:10Z</time></trkpt><trkpt lat="42.00743323608173" lon="2.9200497837025945"><ele>144.0</ele><time>2026-05-02T08:03:12Z</time></trkpt><trkpt lat="42.00751890608092" lon="2.9201235536028416"><ele>139.6</ele><time>2026-05-02T08:03:13.999Z</time></trkpt><trkpt lat="42.00761787695079" lon="2.9202097761704713"><ele>135.2</ele><time>2026-05-02T08:03:15.999Z</time></trkpt><trkpt lat="42.00772205849607" lon="2.9202978628700866"><ele>130.79999999999998</ele><time>2026-05-02T08:03:17.999Z</time></trkpt><trkpt lat="42.0077813982432" lon="2.920350766415774"><ele>126.39999999999999</ele><time>2026-05-02T08:03:18.999Z</time></trkpt><trkpt lat="42.00784395571627" lon="2.9204086974673924"><ele>122.0</ele><time>2026-05-02T08:03:19.999Z</time></trkpt><trkpt lat="42.00790089576529" lon="2.920454514658662"><ele>122.0</ele><time>2026-05-02T08:03:20.999Z</time></trkpt><trkpt lat="42.007954355920944" lon="2.9205019889433843"><ele>122.0</ele><time>2026-05-02T08:03:21.999Z</time></trkpt><trkpt lat="42.00805363982663" lon="2.9205573757644387"><ele>122.0</ele><time>2026-05-02T08:03:23.999Z</time></trkpt><trkpt lat="42.00816853226578" lon="2.9205752005669203"><ele>122.0</ele><time>2026-05-02T08:03:25.999Z</time></trkpt><trkpt lat="42.00838312788921" lon="2.9205579066529936"><ele>121.16666666666666</ele><time>2026-05-02T08:03:29.999Z</time></trkpt><trkpt lat="42.00850273997581" lon="2.9205648850803305"><ele>120.33333333333333</ele><time>2026-05-02T08:03:31.999Z</time></trkpt><trkpt lat="42.00856579638653" lon="2.920592448094424"><ele>119.5</ele><time>2026-05-02T08:03:32.999Z</time></trkpt><trkpt lat="42.008682852324355" lon="2.920590570445249"><ele>118.66666666666666</ele><time>2026-05-02T08:03:34.999Z</time></trkpt><trkpt lat="42.00874719610641" lon="2.920602514471679"><ele>117.83333333333333</ele><time>2026-05-02T08:03:35.999Z</time></trkpt><trkpt lat="42.00881636453798" lon="2.9206258494305284"><ele>117.0</ele><time>2026-05-02T08:03:36.999Z</time></trkpt><trkpt lat="42.00889883975985" lon="2.920671363457299"><ele>117.0</ele><time>2026-05-02T08:03:37.999Z</time></trkpt><trkpt lat="42.00897552913422" lon="2.920728178558484"><ele>117.00000000000001</ele><time>2026-05-02T08:03:38.999Z</time></trkpt><trkpt lat="42.00904180635963" lon="2.9207637885373043"><ele>117.0</ele><time>2026-05-02T08:03:39.999Z</time></trkpt><trkpt lat="42.009102575167326" lon="2.9207947194632142"><ele>117.0</ele><time>2026-05-02T08:03:40.999Z</time></trkpt><trkpt lat="42.009166288532384" lon="2.9208028751057924"><ele>117.00000000000001</ele><time>2026-05-02T08:03:41.999Z</time></trkpt><trkpt lat="42.00923129342774" lon="2.9207928610220617"><ele>117.0</ele><time>2026-05-02T08:03:42.999Z</time></trkpt><trkpt lat="42.00930031059647" lon="2.9207670510995376"><ele>117.0</ele><time>2026-05-02T08:03:43.999Z</time></trkpt><trkpt lat="42.00936591144028" lon="2.9207280045811377"><ele>114.8</ele><time>2026-05-02T08:03:44.999Z</time></trkpt><trkpt lat="42.00942554118801" lon="2.9207007903565794"><ele>112.6</ele><time>2026-05-02T08:03:45.999Z</time></trkpt><trkpt lat="42.00952892509852" lon="2.920690909567841"><ele>110.39999999999999</ele><time>2026-05-02T08:03:47.999Z</time></trkpt><trkpt lat="42.00963101126271" lon="2.920745139796687"><ele>108.19999999999999</ele><time>2026-05-02T08:03:49.999Z</time></trkpt><trkpt lat="42.009732078069995" lon="2.920804027245547"><ele>106.0</ele><time>2026-05-02T08:03:51.999Z</time></trkpt><trkpt lat="42.00981991229182" lon="2.9209331570832404"><ele>106.0</ele><time>2026-05-02T08:03:53.999Z</time></trkpt><trkpt lat="42.00987020527119" lon="2.9210078815360268"><ele>106.0</ele><time>2026-05-02T08:03:54.999Z</time></trkpt><trkpt lat="42.00991911350969" lon="2.921064079473886"><ele>106.0</ele><time>2026-05-02T08:03:55.999Z</time></trkpt><trkpt lat="42.010008219786535" lon="2.9211722580226804"><ele>106.0</ele><time>2026-05-02T08:03:57.999Z</time></trkpt><trkpt lat="42.0100701689005" lon="2.921268654452501"><ele>106.0</ele><time>2026-05-02T08:03:59.999Z</time></trkpt><trkpt lat="42.01009337982953" lon="2.9214029686081733"><ele>105.33333333333334</ele><time>2026-05-02T08:04:01.999Z</time></trkpt><trkpt lat="42.010156429718975" lon="2.9214350630302035"><ele>104.66666666666667</ele><time>2026-05-02T08:04:02.999Z</time></trkpt><trkpt lat="42.01021625457197" lon="2.9215363467297375"><ele>104.0</ele><time>2026-05-02T08:04:04.999Z</time></trkpt><trkpt lat="42.01029927379432" lon="2.921570995468032"><ele>103.33333333333334</ele><time>2026-05-02T08:04:06.999Z</time></trkpt><trkpt lat="42.0103613535322" lon="2.9216077750338445"><ele>102.66666666666667</ele><time>2026-05-02T08:04:08.999Z</time></trkpt><trkpt lat="42.010430997539316" lon="2.921753572159205"><ele>102.0</ele><time>2026-05-02T08:04:11.999Z</time></trkpt><trkpt lat="42.01044289051741" lon="2.9218924393824985"><ele>102.0</ele><time>2026-05-02T08:04:13.999Z</time></trkpt><trkpt lat="42.01050015598953" lon="2.922032406411386"><ele>102.0</ele><time>2026-05-02T08:04:15.999Z</time></trkpt><trkpt lat="42.01056400239791" lon="2.922169477024938"><ele>102.0</ele><time>2026-05-02T08:04:18Z</time></trkpt><trkpt lat="42.01060831251463" lon="2.922230313997412"><ele>102.0</ele><time>2026-05-02T08:04:19Z</time></trkpt><trkpt lat="42.01065896019126" lon="2.9222857103354047"><ele>102.0</ele><time>2026-05-02T08:04:20Z</time></trkpt><trkpt lat="42.01071091097725" lon="2.9223445564534574"><ele>102.0</ele><time>2026-05-02T08:04:21Z</time></trkpt><trkpt lat="42.01076508505327" lon="2.9224042731249766"><ele>102.28571428571429</ele><time>2026-05-02T08:04:22Z</time></trkpt><trkpt lat="42.01082567393817" lon="2.922468878495599"><ele>102.57142857142858</ele><time>2026-05-02T08:04:23Z</time></trkpt><trkpt lat="42.0108732624441" lon="2.922531579995177"><ele>102.85714285714286</ele><time>2026-05-02T08:04:24Z</time></trkpt><trkpt lat="42.01092909700616" lon="2.9225978310898935"><ele>103.14285714285714</ele><time>2026-05-02T08:04:25Z</time></trkpt><trkpt lat="42.010989047214146" lon="2.9226681370771193"><ele>103.42857142857143</ele><time>2026-05-02T08:04:26Z</time></trkpt><trkpt lat="42.01105889125339" lon="2.92271484434867"><ele>103.71428571428571</ele><time>2026-05-02T08:04:27Z</time></trkpt><trkpt lat="42.011116414756444" lon="2.922773836953392"><ele>104.0</ele><time>2026-05-02T08:04:28Z</time></trkpt><trkpt lat="42.01116957582154" lon="2.9228493390613637"><ele>103.99999999999999</ele><time>2026-05-02T08:04:29Z</time></trkpt><trkpt lat="42.01123457030579" lon="2.9229061474778577"><ele>104.0</ele><time>2026-05-02T08:04:30Z</time></trkpt><trkpt lat="42.01130566666206" lon="2.922953689988641"><ele>104.0</ele><time>2026-05-02T08:04:31Z</time></trkpt><trkpt lat="42.01137660432802" lon="2.922995495313686"><ele>104.0</ele><time>2026-05-02T08:04:32Z</time></trkpt><trkpt lat="42.01144762625681" lon="2.923033588532453"><ele>103.99999999999999</ele><time>2026-05-02T08:04:33Z</time></trkpt><trkpt lat="42.01151798869402" lon="2.923054083935686"><ele>104.0</ele><time>2026-05-02T08:04:34Z</time></trkpt><trkpt lat="42.011586768497835" lon="2.9230611409391862"><ele>104.0</ele><time>2026-05-02T08:04:35Z</time></trkpt><trkpt lat="42.011650277886254" lon="2.923063489453082"><ele>104.0</ele><time>2026-05-02T08:04:36Z</time></trkpt><trkpt lat="42.011769756632475" lon="2.9230418909408304"><ele>104.0</ele><time>2026-05-02T08:04:38Z</time></trkpt><trkpt lat="42.01183514798045" lon="2.9230158959598103"><ele>104.0</ele><time>2026-05-02T08:04:39Z</time></trkpt><trkpt lat="42.01196343951735" lon="2.923011142207774"><ele>104.0</ele><time>2026-05-02T08:04:41Z</time></trkpt><trkpt lat="42.01203737501778" lon="2.9230158153782866"><ele>103.0</ele><time>2026-05-02T08:04:42Z</time></trkpt><trkpt lat="42.01210533860497" lon="2.9230632372154135"><ele>102.0</ele><time>2026-05-02T08:04:43Z</time></trkpt><trkpt lat="42.012170378106326" lon="2.9231103660008535"><ele>101.0</ele><time>2026-05-02T08:04:44Z</time></trkpt><trkpt lat="42.01223573001538" lon="2.923165764238462"><ele>100.0</ele><time>2026-05-02T08:04:45Z</time></trkpt><trkpt lat="42.012296378956705" lon="2.9232200316455628"><ele>99.0</ele><time>2026-05-02T08:04:46Z</time></trkpt><trkpt lat="42.012359698722264" lon="2.923274775552246"><ele>98.0</ele><time>2026-05-02T08:04:47Z</time></trkpt><trkpt lat="42.01242218098252" lon="2.923322608299168"><ele>97.0</ele><time>2026-05-02T08:04:48Z</time></trkpt><trkpt lat="42.012487886266854" lon="2.9233671427989867"><ele>97.33333333333334</ele><time>2026-05-02T08:04:49Z</time></trkpt><trkpt lat="42.012557693198325" lon="2.9234115605484168"><ele>97.66666666666667</ele><time>2026-05-02T08:04:50Z</time></trkpt><trkpt lat="42.01262793307542" lon="2.9234577064278606"><ele>98.0</ele><time>2026-05-02T08:04:51Z</time></trkpt><trkpt lat="42.012696076039454" lon="2.923510951157436"><ele>98.33333333333334</ele><time>2026-05-02T08:04:52Z</time></trkpt><trkpt lat="42.01276518033621" lon="2.9235660368380327"><ele>98.66666666666667</ele><time>2026-05-02T08:04:53Z</time></trkpt><trkpt lat="42.01283663867747" lon="2.9236148150046106"><ele>99.0</ele><time>2026-05-02T08:04:54Z</time></trkpt><trkpt lat="42.012907797821605" lon="2.9236429849528784"><ele>99.0</ele><time>2026-05-02T08:04:55Z</time></trkpt><trkpt lat="42.01298127578456" lon="2.923672014900996"><ele>99.0</ele><time>2026-05-02T08:04:56Z</time></trkpt><trkpt lat="42.013155500109775" lon="2.9236831138382495"><ele>99.0</ele><time>2026-05-02T08:04:58Z</time></trkpt><trkpt lat="42.01324585229181" lon="2.9237085078908143"><ele>99.0</ele><time>2026-05-02T08:04:59Z</time></trkpt><trkpt lat="42.01334080420262" lon="2.9237146285030153"><ele>99.0</ele><time>2026-05-02T08:05:00Z</time></trkpt><trkpt lat="42.01343186783318" lon="2.9237357630894"><ele>98.5</ele><time>2026-05-02T08:05:01Z</time></trkpt><trkpt lat="42.01352183248164" lon="2.923777384242482"><ele>98.0</ele><time>2026-05-02T08:05:02Z</time></trkpt><trkpt lat="42.01361662003786" lon="2.923774836766152"><ele>97.5</ele><time>2026-05-02T08:05:03Z</time></trkpt><trkpt lat="42.01370387851595" lon="2.923789486542761"><ele>97.0</ele><time>2026-05-02T08:05:04Z</time></trkpt><trkpt lat="42.013789750267364" lon="2.9238038485185784"><ele>96.5</ele><time>2026-05-02T08:05:05Z</time></trkpt><trkpt lat="42.013873498166475" lon="2.92381966486061"><ele>96.0</ele><time>2026-05-02T08:05:06Z</time></trkpt><trkpt lat="42.01395528951879" lon="2.9238386575838033"><ele>96.0</ele><time>2026-05-02T08:05:07Z</time></trkpt><trkpt lat="42.01403537899057" lon="2.923865608846412"><ele>96.0</ele><time>2026-05-02T08:05:08Z</time></trkpt><trkpt lat="42.01411867650333" lon="2.923904416112912"><ele>96.0</ele><time>2026-05-02T08:05:09Z</time></trkpt><trkpt lat="42.01418755450589" lon="2.9239534797805833"><ele>96.0</ele><time>2026-05-02T08:05:10Z</time></trkpt><trkpt lat="42.01424650783538" lon="2.9240067048860667"><ele>96.0</ele><time>2026-05-02T08:05:11Z</time></trkpt><trkpt lat="42.01430785135037" lon="2.9240840995340824"><ele>96.0</ele><time>2026-05-02T08:05:12Z</time></trkpt><trkpt lat="42.014360753535975" lon="2.9241574252074387"><ele>95.57142857142857</ele><time>2026-05-02T08:05:13Z</time></trkpt><trkpt lat="42.01440794592525" lon="2.9242348944601844"><ele>95.14285714285714</ele><time>2026-05-02T08:05:14Z</time></trkpt><trkpt lat="42.01445109681643" lon="2.9243040346642823"><ele>94.71428571428572</ele><time>2026-05-02T08:05:15Z</time></trkpt><trkpt lat="42.0144940264266" lon="2.9243765066207033"><ele>94.28571428571428</ele><time>2026-05-02T08:05:16Z</time></trkpt><trkpt lat="42.01453342684867" lon="2.9244638411559842"><ele>93.85714285714286</ele><time>2026-05-02T08:05:17Z</time></trkpt><trkpt lat="42.01455868960958" lon="2.924551051754506"><ele>93.42857142857143</ele><time>2026-05-02T08:05:18Z</time></trkpt><trkpt lat="42.014564521357045" lon="2.924652184904723"><ele>93.0</ele><time>2026-05-02T08:05:19Z</time></trkpt><trkpt lat="42.014590913296914" lon="2.9248131649087883"><ele>93.0</ele><time>2026-05-02T08:05:21Z</time></trkpt><trkpt lat="42.0146545552019" lon="2.9249392943204118"><ele>93.0</ele><time>2026-05-02T08:05:23Z</time></trkpt><trkpt lat="42.01473641273598" lon="2.925043667538786"><ele>93.0</ele><time>2026-05-02T08:05:24.999Z</time></trkpt><trkpt lat="42.01479948582136" lon="2.925121304944833"><ele>93.0</ele><time>2026-05-02T08:05:26.999Z</time></trkpt><trkpt lat="42.01486788309057" lon="2.925204040075674"><ele>93.0</ele><time>2026-05-02T08:05:28.999Z</time></trkpt><trkpt lat="42.01491869846951" lon="2.9252742209548632"><ele>93.4</ele><time>2026-05-02T08:05:30.999Z</time></trkpt><trkpt lat="42.01496235104682" lon="2.925388746332444"><ele>93.80000000000001</ele><time>2026-05-02T08:05:32.999Z</time></trkpt><trkpt lat="42.01502847205876" lon="2.925512869474433"><ele>94.2</ele><time>2026-05-02T08:05:34.999Z</time></trkpt><trkpt lat="42.015097449678855" lon="2.9256120097497065"><ele>94.6</ele><time>2026-05-02T08:05:36.999Z</time></trkpt><trkpt lat="42.015179977105895" lon="2.925709246184316"><ele>95.0</ele><time>2026-05-02T08:05:38.999Z</time></trkpt><trkpt lat="42.01526426311921" lon="2.925808782735566"><ele>97.5</ele><time>2026-05-02T08:05:40.999Z</time></trkpt><trkpt lat="42.01534438692537" lon="2.9259244986236297"><ele>100.0</ele><time>2026-05-02T08:05:42.999Z</time></trkpt><trkpt lat="42.015389330102245" lon="2.9259894061583602"><ele>102.5</ele><time>2026-05-02T08:05:43.999Z</time></trkpt><trkpt lat="42.015435631556436" lon="2.926056275284928"><ele>105.0</ele><time>2026-05-02T08:05:44.999Z</time></trkpt><trkpt lat="42.01552140147439" lon="2.926178015681143"><ele>107.49999999999999</ele><time>2026-05-02T08:05:46.999Z</time></trkpt><trkpt lat="42.01557116046676" lon="2.9262375339095685"><ele>110.0</ele><time>2026-05-02T08:05:47.999Z</time></trkpt><trkpt lat="42.015616321104126" lon="2.92630081896361"><ele>109.99999999999999</ele><time>2026-05-02T08:05:48.999Z</time></trkpt><trkpt lat="42.0156629985842" lon="2.926365515285262"><ele>110.0</ele><time>2026-05-02T08:05:49.999Z</time></trkpt><trkpt lat="42.01571118926934" lon="2.9264288237649905"><ele>110.0</ele><time>2026-05-02T08:05:50.999Z</time></trkpt><trkpt lat="42.0157565738118" lon="2.9264891070126122"><ele>110.0</ele><time>2026-05-02T08:05:51.999Z</time></trkpt><trkpt lat="42.015799115224674" lon="2.926554301675649"><ele>110.0</ele><time>2026-05-02T08:05:52.999Z</time></trkpt><trkpt lat="42.01584275689557" lon="2.9266273446426867"><ele>109.99999999999999</ele><time>2026-05-02T08:05:53.999Z</time></trkpt><trkpt lat="42.01587911633611" lon="2.9266976423748785"><ele>110.0</ele><time>2026-05-02T08:05:54.999Z</time></trkpt><trkpt lat="42.015964322429575" lon="2.9268160888061026"><ele>108.57142857142857</ele><time>2026-05-02T08:05:56.999Z</time></trkpt><trkpt lat="42.01601156729832" lon="2.9268728473541477"><ele>107.14285714285714</ele><time>2026-05-02T08:05:57.999Z</time></trkpt><trkpt lat="42.01606262081347" lon="2.926922968155135"><ele>105.71428571428572</ele><time>2026-05-02T08:05:58.999Z</time></trkpt><trkpt lat="42.01611470529891" lon="2.9269738856443404"><ele>104.28571428571428</ele><time>2026-05-02T08:05:59.999Z</time></trkpt><trkpt lat="42.016168238570664" lon="2.9270199100865"><ele>102.85714285714286</ele><time>2026-05-02T08:06:00.999Z</time></trkpt><trkpt lat="42.016224447474585" lon="2.9270633649601514"><ele>101.42857142857143</ele><time>2026-05-02T08:06:01.999Z</time></trkpt><trkpt lat="42.01628157171744" lon="2.9271054492368336"><ele>100.0</ele><time>2026-05-02T08:06:02.999Z</time></trkpt><trkpt lat="42.0163358525622" lon="2.927156954265262"><ele>100.00000000000001</ele><time>2026-05-02T08:06:03.999Z</time></trkpt><trkpt lat="42.01638576363756" lon="2.9272136119928844"><ele>100.0</ele><time>2026-05-02T08:06:04.999Z</time></trkpt><trkpt lat="42.0164379157021" lon="2.927261790607228"><ele>100.0</ele><time>2026-05-02T08:06:05.999Z</time></trkpt><trkpt lat="42.01652983081005" lon="2.9273357039527257"><ele>100.0</ele><time>2026-05-02T08:06:07.999Z</time></trkpt><trkpt lat="42.01660844355819" lon="2.927413715417261"><ele>100.00000000000001</ele><time>2026-05-02T08:06:09.999Z</time></trkpt><trkpt lat="42.01669487425315" lon="2.9274868221837633"><ele>100.0</ele><time>2026-05-02T08:06:11.999Z</time></trkpt><trkpt lat="42.01677930087026" lon="2.9275607801005425"><ele>99.4</ele><time>2026-05-02T08:06:13.999Z</time></trkpt><trkpt lat="42.01686369599074" lon="2.9276419055259395"><ele>98.8</ele><time>2026-05-02T08:06:15.999Z</time></trkpt><trkpt lat="42.0169571226444" lon="2.9276955744148507"><ele>98.19999999999999</ele><time>2026-05-02T08:06:17.999Z</time></trkpt><trkpt lat="42.01703691144879" lon="2.927773066655412"><ele>97.6</ele><time>2026-05-02T08:06:19.999Z</time></trkpt><trkpt lat="42.017128042601186" lon="2.92783105196009"><ele>97.0</ele><time>2026-05-02T08:06:21.999Z</time></trkpt><trkpt lat="42.01720791557305" lon="2.9278979576408735"><ele>97.0</ele><time>2026-05-02T08:06:24Z</time></trkpt><trkpt lat="42.017279541559475" lon="2.927968249829018"><ele>97.0</ele><time>2026-05-02T08:06:26Z</time></trkpt><trkpt lat="42.01735231183259" lon="2.9280511402830127"><ele>97.0</ele><time>2026-05-02T08:06:28Z</time></trkpt><trkpt lat="42.01741717207241" lon="2.928145981013215"><ele>97.0</ele><time>2026-05-02T08:06:30Z</time></trkpt><trkpt lat="42.017477066876985" lon="2.92823987101912"><ele>97.0</ele><time>2026-05-02T08:06:32Z</time></trkpt><trkpt lat="42.01755037146328" lon="2.928341924795914"><ele>95.8</ele><time>2026-05-02T08:06:34Z</time></trkpt><trkpt lat="42.017632999483865" lon="2.928444169492695"><ele>94.6</ele><time>2026-05-02T08:06:36Z</time></trkpt><trkpt lat="42.01773563413391" lon="2.928540599904278"><ele>93.39999999999999</ele><time>2026-05-02T08:06:38Z</time></trkpt><trkpt lat="42.01779225651139" lon="2.928594543124663"><ele>92.19999999999999</ele><time>2026-05-02T08:06:39Z</time></trkpt><trkpt lat="42.01785179749057" lon="2.928646866800169"><ele>91.0</ele><time>2026-05-02T08:06:40Z</time></trkpt><trkpt lat="42.01791410326482" lon="2.9287012661840666"><ele>91.0</ele><time>2026-05-02T08:06:41Z</time></trkpt><trkpt lat="42.01797079354085" lon="2.92876192922981"><ele>91.0</ele><time>2026-05-02T08:06:42Z</time></trkpt><trkpt lat="42.0180383200408" lon="2.9288043682606744"><ele>91.0</ele><time>2026-05-02T08:06:43Z</time></trkpt><trkpt lat="42.01809770807629" lon="2.9288608114112202"><ele>91.0</ele><time>2026-05-02T08:06:44Z</time></trkpt><trkpt lat="42.01816242248064" lon="2.928926204673451"><ele>91.0</ele><time>2026-05-02T08:06:45Z</time></trkpt><trkpt lat="42.01822928453285" lon="2.928994616540791"><ele>91.0</ele><time>2026-05-02T08:06:46Z</time></trkpt><trkpt lat="42.018294821754886" lon="2.929063274569348"><ele>90.19999999999999</ele><time>2026-05-02T08:06:47Z</time></trkpt><trkpt lat="42.01836570015844" lon="2.9291375281603327"><ele>89.39999999999999</ele><time>2026-05-02T08:06:48Z</time></trkpt><trkpt lat="42.018438528141" lon="2.929213824654101"><ele>88.6</ele><time>2026-05-02T08:06:49Z</time></trkpt><trkpt lat="42.0185015236625" lon="2.929304582469432"><ele>87.8</ele><time>2026-05-02T08:06:50Z</time></trkpt><trkpt lat="42.018569114771786" lon="2.929379760362752"><ele>87.0</ele><time>2026-05-02T08:06:51Z</time></trkpt><trkpt lat="42.01864253330534" lon="2.9294456669015867"><ele>86.83333333333333</ele><time>2026-05-02T08:06:52Z</time></trkpt><trkpt lat="42.01871523024939" lon="2.9295223169138516"><ele>86.66666666666667</ele><time>2026-05-02T08:06:53Z</time></trkpt><trkpt lat="42.0187845092271" lon="2.9295963402355887"><ele>86.5</ele><time>2026-05-02T08:06:54Z</time></trkpt><trkpt lat="42.018852131265824" lon="2.929669684123025"><ele>86.33333333333334</ele><time>2026-05-02T08:06:55Z</time></trkpt><trkpt lat="42.01891327422175" lon="2.9297451613959686"><ele>86.16666666666667</ele><time>2026-05-02T08:06:56Z</time></trkpt><trkpt lat="42.01897189502408" lon="2.92982333777905"><ele>86.0</ele><time>2026-05-02T08:06:57Z</time></trkpt><trkpt lat="42.019028379053395" lon="2.9298996380648137"><ele>86.0</ele><time>2026-05-02T08:06:58Z</time></trkpt><trkpt lat="42.01907631254769" lon="2.929969040421889"><ele>86.0</ele><time>2026-05-02T08:06:59Z</time></trkpt><trkpt lat="42.01911797396926" lon="2.93003453527479"><ele>86.0</ele><time>2026-05-02T08:07:00Z</time></trkpt><trkpt lat="42.01919745190683" lon="2.930147143698811"><ele>86.0</ele><time>2026-05-02T08:07:02Z</time></trkpt><trkpt lat="42.01924334467468" lon="2.930253743877383"><ele>86.0</ele><time>2026-05-02T08:07:04Z</time></trkpt><trkpt lat="42.01930722098245" lon="2.9302852458587023"><ele>86.0</ele><time>2026-05-02T08:07:06Z</time></trkpt><trkpt lat="42.01934943622313" lon="2.9301919798088423"><ele>85.57142857142858</ele><time>2026-05-02T08:07:08Z</time></trkpt><trkpt lat="42.019336914489976" lon="2.930107329484952"><ele>85.14285714285714</ele><time>2026-05-02T08:07:09Z</time></trkpt><trkpt lat="42.01931592123074" lon="2.9300250164786816"><ele>84.71428571428572</ele><time>2026-05-02T08:07:10Z</time></trkpt><trkpt lat="42.019300058349764" lon="2.92993112224356"><ele>84.28571428571429</ele><time>2026-05-02T08:07:11Z</time></trkpt><trkpt lat="42.019308595195724" lon="2.929827177616013"><ele>83.85714285714286</ele><time>2026-05-02T08:07:12Z</time></trkpt><trkpt lat="42.01930092483923" lon="2.9297270188880353"><ele>83.42857142857143</ele><time>2026-05-02T08:07:13Z</time></trkpt><trkpt lat="42.01929619374049" lon="2.9296336228716173"><ele>83.0</ele><time>2026-05-02T08:07:14Z</time></trkpt><trkpt lat="42.019289047811235" lon="2.9295466780154884"><ele>82.5</ele><time>2026-05-02T08:07:15Z</time></trkpt><trkpt lat="42.01932983299278" lon="2.9294719667844236"><ele>82.0</ele><time>2026-05-02T08:07:16Z</time></trkpt><trkpt lat="42.01938855193185" lon="2.9294244288297877"><ele>81.5</ele><time>2026-05-02T08:07:17Z</time></trkpt><trkpt lat="42.019460390338416" lon="2.929412908505956"><ele>81.0</ele><time>2026-05-02T08:07:18Z</time></trkpt><trkpt lat="42.019517956243014" lon="2.9293771803021005"><ele>80.5</ele><time>2026-05-02T08:07:19Z</time></trkpt><trkpt lat="42.01961595116942" lon="2.929496341366884"><ele>80.0</ele><time>2026-05-02T08:07:20Z</time></trkpt><trkpt lat="42.01970205555729" lon="2.92952989183875"><ele>80.0</ele><time>2026-05-02T08:07:21Z</time></trkpt><trkpt lat="42.01979060258232" lon="2.9295654156144577"><ele>80.0</ele><time>2026-05-02T08:07:22Z</time></trkpt><trkpt lat="42.01987632265371" lon="2.929617681914867"><ele>80.0</ele><time>2026-05-02T08:07:23Z</time></trkpt><trkpt lat="42.01995346710182" lon="2.929675742286169"><ele>80.0</ele><time>2026-05-02T08:07:24Z</time></trkpt><trkpt lat="42.02001921055738" lon="2.9297412190959586"><ele>80.0</ele><time>2026-05-02T08:07:25Z</time></trkpt><trkpt lat="42.020081928061934" lon="2.929811384752965"><ele>80.0</ele><time>2026-05-02T08:07:26Z</time></trkpt><trkpt lat="42.02014667104039" lon="2.9298773420766975"><ele>79.83333333333334</ele><time>2026-05-02T08:07:27Z</time></trkpt><trkpt lat="42.02021071671801" lon="2.929946621586495"><ele>79.66666666666667</ele><time>2026-05-02T08:07:28Z</time></trkpt><trkpt lat="42.02027276451623" lon="2.930033316124512"><ele>79.5</ele><time>2026-05-02T08:07:29Z</time></trkpt><trkpt lat="42.02032839614758" lon="2.930121687590223"><ele>79.33333333333333</ele><time>2026-05-02T08:07:30Z</time></trkpt><trkpt lat="42.02038635979328" lon="2.930211198644575"><ele>79.16666666666666</ele><time>2026-05-02T08:07:30.999Z</time></trkpt><trkpt lat="42.02044083321544" lon="2.9303071860262073"><ele>79.0</ele><time>2026-05-02T08:07:31.999Z</time></trkpt><trkpt lat="42.02049982953049" lon="2.9304005348093836"><ele>79.00000000000001</ele><time>2026-05-02T08:07:32.999Z</time></trkpt><trkpt lat="42.020559709485354" lon="2.930486746912421"><ele>79.0</ele><time>2026-05-02T08:07:33.999Z</time></trkpt><trkpt lat="42.020622174616555" lon="2.9305651737476794"><ele>79.0</ele><time>2026-05-02T08:07:34.999Z</time></trkpt><trkpt lat="42.020681957722914" lon="2.9306292369205584"><ele>79.0</ele><time>2026-05-02T08:07:35.999Z</time></trkpt><trkpt lat="42.02073832123298" lon="2.93067863234243"><ele>79.0</ele><time>2026-05-02T08:07:36.999Z</time></trkpt><trkpt lat="42.02079438770018" lon="2.930723910739886"><ele>79.00000000000001</ele><time>2026-05-02T08:07:37.999Z</time></trkpt><trkpt lat="42.02086052308954" lon="2.930741084968199"><ele>79.0</ele><time>2026-05-02T08:07:38.999Z</time></trkpt><trkpt lat="42.02092464335362" lon="2.9307707218124017"><ele>77.60000000000001</ele><time>2026-05-02T08:07:39.999Z</time></trkpt><trkpt lat="42.020941647218514" lon="2.930964386759602"><ele>76.2</ele><time>2026-05-02T08:07:40.999Z</time></trkpt><trkpt lat="42.02098354872437" lon="2.931064485258924"><ele>74.80000000000001</ele><time>2026-05-02T08:07:41.999Z</time></trkpt><trkpt lat="42.02103491650155" lon="2.931166020436589"><ele>73.4</ele><time>2026-05-02T08:07:42.999Z</time></trkpt><trkpt lat="42.021091354925744" lon="2.9312677336322945"><ele>72.0</ele><time>2026-05-02T08:07:43.999Z</time></trkpt><trkpt lat="42.02116945727895" lon="2.931347719968774"><ele>72.0</ele><time>2026-05-02T08:07:44.999Z</time></trkpt><trkpt lat="42.02123110291501" lon="2.9314506022093982"><ele>72.0</ele><time>2026-05-02T08:07:45.999Z</time></trkpt><trkpt lat="42.02128845222177" lon="2.931551943064173"><ele>72.0</ele><time>2026-05-02T08:07:46.999Z</time></trkpt><trkpt lat="42.02133549668076" lon="2.9316625620240373"><ele>72.0</ele><time>2026-05-02T08:07:47.999Z</time></trkpt><trkpt lat="42.02141242466811" lon="2.9317411438137744"><ele>72.0</ele><time>2026-05-02T08:07:48.999Z</time></trkpt><trkpt lat="42.021480749166734" lon="2.931831455351645"><ele>71.4</ele><time>2026-05-02T08:07:49.999Z</time></trkpt><trkpt lat="42.021547293841216" lon="2.9319203183033995"><ele>70.80000000000001</ele><time>2026-05-02T08:07:50.999Z</time></trkpt><trkpt lat="42.0216147051667" lon="2.932009995878028"><ele>70.2</ele><time>2026-05-02T08:07:51.999Z</time></trkpt><trkpt lat="42.021683167693574" lon="2.9321010718720797"><ele>69.60000000000001</ele><time>2026-05-02T08:07:52.999Z</time></trkpt><trkpt lat="42.0217462817601" lon="2.932187291358774"><ele>69.0</ele><time>2026-05-02T08:07:53.999Z</time></trkpt><trkpt lat="42.02180396282265" lon="2.932273335881113"><ele>69.0</ele><time>2026-05-02T08:07:54.999Z</time></trkpt><trkpt lat="42.02186198568376" lon="2.9323524466545754"><ele>69.0</ele><time>2026-05-02T08:07:55.999Z</time></trkpt><trkpt lat="42.02192336113019" lon="2.932421468637371"><ele>69.0</ele><time>2026-05-02T08:07:56.999Z</time></trkpt><trkpt lat="42.02198911245959" lon="2.9324883410121427"><ele>69.0</ele><time>2026-05-02T08:07:57.999Z</time></trkpt><trkpt lat="42.02204788591153" lon="2.9325649020992586"><ele>69.0</ele><time>2026-05-02T08:07:58.999Z</time></trkpt><trkpt lat="42.022122727365684" lon="2.9326107231016967"><ele>69.0</ele><time>2026-05-02T08:07:59.999Z</time></trkpt><trkpt lat="42.02219247830289" lon="2.932654015405946"><ele>68.83333333333333</ele><time>2026-05-02T08:08:00.999Z</time></trkpt><trkpt lat="42.022259632900166" lon="2.9326963059884004"><ele>68.66666666666667</ele><time>2026-05-02T08:08:01.999Z</time></trkpt><trkpt lat="42.02232382070271" lon="2.9327334861904713"><ele>68.5</ele><time>2026-05-02T08:08:02.999Z</time></trkpt><trkpt lat="42.02238552583121" lon="2.932769393040326"><ele>68.33333333333334</ele><time>2026-05-02T08:08:03.999Z</time></trkpt><trkpt lat="42.02249653055728" lon="2.932819531108648"><ele>68.16666666666667</ele><time>2026-05-02T08:08:05.999Z</time></trkpt><trkpt lat="42.02254835326223" lon="2.9328788396339474"><ele>68.0</ele><time>2026-05-02T08:08:07.999Z</time></trkpt><trkpt lat="42.02242509546411" lon="2.933059448610848"><ele>68.66666666666667</ele><time>2026-05-02T08:08:08.999Z</time></trkpt><trkpt lat="42.022375989624635" lon="2.93313238666389"><ele>69.33333333333334</ele><time>2026-05-02T08:08:09.999Z</time></trkpt><trkpt lat="42.022325514397906" lon="2.9332097180796093"><ele>70.0</ele><time>2026-05-02T08:08:10.999Z</time></trkpt><trkpt lat="42.022282065942655" lon="2.933300333995269"><ele>70.66666666666667</ele><time>2026-05-02T08:08:11.999Z</time></trkpt><trkpt lat="42.02222139378744" lon="2.933380380237559"><ele>71.33333333333333</ele><time>2026-05-02T08:08:12.999Z</time></trkpt><trkpt lat="42.02215990731118" lon="2.9334668184418877"><ele>72.0</ele><time>2026-05-02T08:08:13.999Z</time></trkpt><trkpt lat="42.02209558144848" lon="2.9335449184256133"><ele>72.0</ele><time>2026-05-02T08:08:14.999Z</time></trkpt><trkpt lat="42.02202773854578" lon="2.933621848544063"><ele>72.0</ele><time>2026-05-02T08:08:15.999Z</time></trkpt><trkpt lat="42.02195097313464" lon="2.933683588423623"><ele>72.0</ele><time>2026-05-02T08:08:16.999Z</time></trkpt><trkpt lat="42.02187725896921" lon="2.9337458686504765"><ele>72.0</ele><time>2026-05-02T08:08:17.999Z</time></trkpt><trkpt lat="42.021801986708105" lon="2.933802594698032"><ele>72.0</ele><time>2026-05-02T08:08:18.999Z</time></trkpt><trkpt lat="42.02173152625892" lon="2.933860428408104"><ele>72.0</ele><time>2026-05-02T08:08:19.999Z</time></trkpt><trkpt lat="42.02165409423879" lon="2.9338901929051286"><ele>72.57142857142858</ele><time>2026-05-02T08:08:20.999Z</time></trkpt><trkpt lat="42.021585229773706" lon="2.9339415186064026"><ele>73.14285714285714</ele><time>2026-05-02T08:08:21.999Z</time></trkpt><trkpt lat="42.02152324899425" lon="2.9339968363748667"><ele>73.71428571428572</ele><time>2026-05-02T08:08:22.999Z</time></trkpt><trkpt lat="42.021473222795656" lon="2.934071061677666"><ele>74.28571428571429</ele><time>2026-05-02T08:08:23.999Z</time></trkpt><trkpt lat="42.02141497751663" lon="2.934125644070594"><ele>74.85714285714286</ele><time>2026-05-02T08:08:24.999Z</time></trkpt><trkpt lat="42.02136246198429" lon="2.9341929847083663"><ele>75.42857142857143</ele><time>2026-05-02T08:08:25.999Z</time></trkpt><trkpt lat="42.021317493067656" lon="2.9342688007138"><ele>76.0</ele><time>2026-05-02T08:08:26.999Z</time></trkpt><trkpt lat="42.02128020400327" lon="2.9343472228973435"><ele>76.0</ele><time>2026-05-02T08:08:27.999Z</time></trkpt><trkpt lat="42.02124120475532" lon="2.934428221916491"><ele>76.0</ele><time>2026-05-02T08:08:29Z</time></trkpt><trkpt lat="42.021211182717344" lon="2.9345089127166393"><ele>76.0</ele><time>2026-05-02T08:08:30Z</time></trkpt><trkpt lat="42.02118306886728" lon="2.9345941791171173"><ele>76.0</ele><time>2026-05-02T08:08:31Z</time></trkpt><trkpt lat="42.02116092089522" lon="2.9346804000422386"><ele>76.0</ele><time>2026-05-02T08:08:32Z</time></trkpt><trkpt lat="42.02113378564179" lon="2.9347648218493103"><ele>76.0</ele><time>2026-05-02T08:08:33Z</time></trkpt><trkpt lat="42.021106350889724" lon="2.934846136342127"><ele>76.0</ele><time>2026-05-02T08:08:34Z</time></trkpt><trkpt lat="42.02105470869291" lon="2.934987945209287"><ele>75.0</ele><time>2026-05-02T08:08:36Z</time></trkpt><trkpt lat="42.020997078761944" lon="2.935108511358492"><ele>74.0</ele><time>2026-05-02T08:08:38Z</time></trkpt><trkpt lat="42.02091798336489" lon="2.935212119149625"><ele>73.0</ele><time>2026-05-02T08:08:40Z</time></trkpt><trkpt lat="42.02082808812748" lon="2.9353080027284824"><ele>72.0</ele><time>2026-05-02T08:08:42Z</time></trkpt><trkpt lat="42.02072262513923" lon="2.9353724197448474"><ele>71.0</ele><time>2026-05-02T08:08:44Z</time></trkpt><trkpt lat="42.020609157017915" lon="2.9354253865196935"><ele>71.0</ele><time>2026-05-02T08:08:46Z</time></trkpt><trkpt lat="42.020487747739146" lon="2.935448698464178"><ele>71.0</ele><time>2026-05-02T08:08:48Z</time></trkpt><trkpt lat="42.02037448120151" lon="2.9354934797267456"><ele>71.0</ele><time>2026-05-02T08:08:50Z</time></trkpt><trkpt lat="42.02027642123444" lon="2.935575021971511"><ele>71.0</ele><time>2026-05-02T08:08:52Z</time></trkpt><trkpt lat="42.02017084239944" lon="2.9356576830321828"><ele>71.0</ele><time>2026-05-02T08:08:54Z</time></trkpt><trkpt lat="42.020119284549516" lon="2.9357066582653237"><ele>71.0</ele><time>2026-05-02T08:08:55Z</time></trkpt><trkpt lat="42.02006672687398" lon="2.9357640471180515"><ele>71.0</ele><time>2026-05-02T08:08:56Z</time></trkpt><trkpt lat="42.02001553075526" lon="2.935824771027335"><ele>71.0</ele><time>2026-05-02T08:08:57Z</time></trkpt><trkpt lat="42.01996702345274" lon="2.93588331338846"><ele>71.0</ele><time>2026-05-02T08:08:58Z</time></trkpt><trkpt lat="42.0199168625411" lon="2.9359396315299207"><ele>71.0</ele><time>2026-05-02T08:08:59Z</time></trkpt><trkpt lat="42.01986186043295" lon="2.9359958792719723"><ele>71.0</ele><time>2026-05-02T08:09:00Z</time></trkpt><trkpt lat="42.01981261948289" lon="2.9360525074145993"><ele>71.83333333333334</ele><time>2026-05-02T08:09:01Z</time></trkpt><trkpt lat="42.01976141395857" lon="2.936107174944241"><ele>72.66666666666667</ele><time>2026-05-02T08:09:02Z</time></trkpt><trkpt lat="42.01970941658469" lon="2.9361596519444504"><ele>73.5</ele><time>2026-05-02T08:09:03Z</time></trkpt><trkpt lat="42.01965440802522" lon="2.9362078103621196"><ele>74.33333333333333</ele><time>2026-05-02T08:09:04Z</time></trkpt><trkpt lat="42.019599173331336" lon="2.936255977770536"><ele>75.16666666666666</ele><time>2026-05-02T08:09:05Z</time></trkpt><trkpt lat="42.01954401293204" lon="2.9363027707312526"><ele>76.0</ele><time>2026-05-02T08:09:06Z</time></trkpt><trkpt lat="42.01943650435587" lon="2.9363822245480615"><ele>76.0</ele><time>2026-05-02T08:09:08Z</time></trkpt><trkpt lat="42.01932603103654" lon="2.9364616957137186"><ele>76.0</ele><time>2026-05-02T08:09:10Z</time></trkpt><trkpt lat="42.019216859157865" lon="2.936539017083014"><ele>76.0</ele><time>2026-05-02T08:09:12Z</time></trkpt><trkpt lat="42.01916151953898" lon="2.9365811822191294"><ele>76.0</ele><time>2026-05-02T08:09:13Z</time></trkpt><trkpt lat="42.01905369697676" lon="2.936657565797788"><ele>76.0</ele><time>2026-05-02T08:09:15Z</time></trkpt><trkpt lat="42.01895267799963" lon="2.936732267976015"><ele>76.75</ele><time>2026-05-02T08:09:17Z</time></trkpt><trkpt lat="42.01884980055797" lon="2.936803752862356"><ele>77.5</ele><time>2026-05-02T08:09:19Z</time></trkpt><trkpt lat="42.018746439673734" lon="2.936880297818341"><ele>78.25</ele><time>2026-05-02T08:09:21Z</time></trkpt><trkpt lat="42.01864618693859" lon="2.936972561979984"><ele>79.0</ele><time>2026-05-02T08:09:23Z</time></trkpt><trkpt lat="42.018561172282844" lon="2.93708145908008"><ele>79.0</ele><time>2026-05-02T08:09:25Z</time></trkpt><trkpt lat="42.01847731436194" lon="2.9372034426870974"><ele>79.0</ele><time>2026-05-02T08:09:27Z</time></trkpt><trkpt lat="42.0184419361417" lon="2.9372742366567826"><ele>79.0</ele><time>2026-05-02T08:09:28Z</time></trkpt><trkpt lat="42.0183779136983" lon="2.9374064532031667"><ele>79.0</ele><time>2026-05-02T08:09:30Z</time></trkpt><trkpt lat="42.01831791119254" lon="2.9375475755368874"><ele>79.0</ele><time>2026-05-02T08:09:32Z</time></trkpt><trkpt lat="42.018285711492695" lon="2.9376204377962503"><ele>79.42857142857143</ele><time>2026-05-02T08:09:33Z</time></trkpt><trkpt lat="42.018250075025556" lon="2.9376927863774966"><ele>79.85714285714286</ele><time>2026-05-02T08:09:34Z</time></trkpt><trkpt lat="42.018216315370374" lon="2.937764786512842"><ele>80.28571428571428</ele><time>2026-05-02T08:09:35Z</time></trkpt><trkpt lat="42.01818217158595" lon="2.9378381273029994"><ele>80.71428571428572</ele><time>2026-05-02T08:09:36Z</time></trkpt><trkpt lat="42.018149486151955" lon="2.9379105883422625"><ele>81.14285714285714</ele><time>2026-05-02T08:09:37Z</time></trkpt><trkpt lat="42.01811385911768" lon="2.937980763014387"><ele>81.57142857142857</ele><time>2026-05-02T08:09:38Z</time></trkpt><trkpt lat="42.018073187768955" lon="2.9380530240484535"><ele>82.0</ele><time>2026-05-02T08:09:39Z</time></trkpt><trkpt lat="42.0180302473088" lon="2.9381219505249017"><ele>82.0</ele><time>2026-05-02T08:09:40Z</time></trkpt><trkpt lat="42.0179848853335" lon="2.9381902228842143"><ele>82.0</ele><time>2026-05-02T08:09:41Z</time></trkpt><trkpt lat="42.01794073423131" lon="2.938256542072259"><ele>82.0</ele><time>2026-05-02T08:09:42Z</time></trkpt><trkpt lat="42.017900961245694" lon="2.9383242117898725"><ele>82.0</ele><time>2026-05-02T08:09:43Z</time></trkpt><trkpt lat="42.01785856577007" lon="2.9383886356303943"><ele>82.0</ele><time>2026-05-02T08:09:44Z</time></trkpt><trkpt lat="42.017814915813815" lon="2.938451525211112"><ele>82.0</ele><time>2026-05-02T08:09:45Z</time></trkpt><trkpt lat="42.01772757016938" lon="2.9385690288188218"><ele>82.0</ele><time>2026-05-02T08:09:47Z</time></trkpt><trkpt lat="42.01763463359205" lon="2.9386640908731825"><ele>82.0</ele><time>2026-05-02T08:09:48.999Z</time></trkpt><trkpt lat="42.01756241340185" lon="2.9387815661178407"><ele>82.0</ele><time>2026-05-02T08:09:50.999Z</time></trkpt><trkpt lat="42.01748873075358" lon="2.93887329210004"><ele>82.0</ele><time>2026-05-02T08:09:52.999Z</time></trkpt><trkpt lat="42.01741500968702" lon="2.9389718560575377"><ele>82.0</ele><time>2026-05-02T08:09:54.999Z</time></trkpt><trkpt lat="42.01734287784623" lon="2.939055501765283"><ele>82.0</ele><time>2026-05-02T08:09:56.999Z</time></trkpt><trkpt lat="42.01727947813036" lon="2.9391472503242357"><ele>82.0</ele><time>2026-05-02T08:09:58.999Z</time></trkpt><trkpt lat="42.01721382941385" lon="2.939230250328603"><ele>82.0</ele><time>2026-05-02T08:10:00.999Z</time></trkpt><trkpt lat="42.01714496174726" lon="2.9393155346633364"><ele>82.0</ele><time>2026-05-02T08:10:02.999Z</time></trkpt><trkpt lat="42.01707676240208" lon="2.939393007293394"><ele>82.0</ele><time>2026-05-02T08:10:04.999Z</time></trkpt><trkpt lat="42.017012426419186" lon="2.9394726591456553"><ele>82.0</ele><time>2026-05-02T08:10:06.999Z</time></trkpt><trkpt lat="42.01694442616606" lon="2.939552634064988"><ele>82.0</ele><time>2026-05-02T08:10:08.999Z</time></trkpt><trkpt lat="42.01687491656385" lon="2.939626387757253"><ele>82.0</ele><time>2026-05-02T08:10:10.999Z</time></trkpt><trkpt lat="42.016803190940344" lon="2.9396942999737523"><ele>82.0</ele><time>2026-05-02T08:10:12.999Z</time></trkpt><trkpt lat="42.01672972631786" lon="2.939756730996976"><ele>82.0</ele><time>2026-05-02T08:10:14.999Z</time></trkpt><trkpt lat="42.0166554580693" lon="2.9398096832937726"><ele>82.0</ele><time>2026-05-02T08:10:16.999Z</time></trkpt><trkpt lat="42.01654820838937" lon="2.9398715912293594"><ele>82.66666666666666</ele><time>2026-05-02T08:10:19.999Z</time></trkpt><trkpt lat="42.016486654942625" lon="2.9398919710541023"><ele>83.33333333333333</ele><time>2026-05-02T08:10:21.999Z</time></trkpt><trkpt lat="42.0164199463084" lon="2.9399230733477406"><ele>84.0</ele><time>2026-05-02T08:10:22.999Z</time></trkpt><trkpt lat="42.01629563173152" lon="2.939961109306779"><ele>84.66666666666667</ele><time>2026-05-02T08:10:25.999Z</time></trkpt><trkpt lat="42.016228495024855" lon="2.9399810104664894"><ele>85.33333333333334</ele><time>2026-05-02T08:10:26.999Z</time></trkpt><trkpt lat="42.016143797742416" lon="2.939989268719869"><ele>86.0</ele><time>2026-05-02T08:10:28.999Z</time></trkpt><trkpt lat="42.01605442401949" lon="2.9400008762722236"><ele>86.0</ele><time>2026-05-02T08:10:30.999Z</time></trkpt><trkpt lat="42.01596133335815" lon="2.939996258404862"><ele>86.0</ele><time>2026-05-02T08:10:32.999Z</time></trkpt><trkpt lat="42.01587015058557" lon="2.9400059392778553"><ele>86.0</ele><time>2026-05-02T08:10:35Z</time></trkpt><trkpt lat="42.01576972507505" lon="2.9400166014536784"><ele>86.0</ele><time>2026-05-02T08:10:37Z</time></trkpt><trkpt lat="42.015666083423206" lon="2.940028794445747"><ele>86.0</ele><time>2026-05-02T08:10:39Z</time></trkpt><trkpt lat="42.01556029017677" lon="2.940044143435836"><ele>87.6</ele><time>2026-05-02T08:10:41Z</time></trkpt><trkpt lat="42.0154556810962" lon="2.9400628339164934"><ele>89.19999999999999</ele><time>2026-05-02T08:10:43Z</time></trkpt><trkpt lat="42.01534881657866" lon="2.94008525674861"><ele>90.80000000000001</ele><time>2026-05-02T08:10:45Z</time></trkpt><trkpt lat="42.01524391268438" lon="2.9401137226214895"><ele>92.4</ele><time>2026-05-02T08:10:47Z</time></trkpt><trkpt lat="42.01514225933069" lon="2.9401433715515646"><ele>94.0</ele><time>2026-05-02T08:10:49Z</time></trkpt><trkpt lat="42.01504682691193" lon="2.940197665849754"><ele>94.0</ele><time>2026-05-02T08:10:51Z</time></trkpt><trkpt lat="42.01495203678973" lon="2.9402348129593014"><ele>94.0</ele><time>2026-05-02T08:10:53Z</time></trkpt><trkpt lat="42.014858586519196" lon="2.9402768015930847"><ele>94.0</ele><time>2026-05-02T08:10:55Z</time></trkpt><trkpt lat="42.0147658590074" lon="2.940317391608088"><ele>94.0</ele><time>2026-05-02T08:10:57Z</time></trkpt><trkpt lat="42.01467163551586" lon="2.940358530922621"><ele>94.0</ele><time>2026-05-02T08:10:59Z</time></trkpt><trkpt lat="42.01457503553394" lon="2.940401238889392"><ele>94.0</ele><time>2026-05-02T08:11:01Z</time></trkpt><trkpt lat="42.01447673858611" lon="2.9404397454338773"><ele>94.0</ele><time>2026-05-02T08:11:03Z</time></trkpt><trkpt lat="42.014378680833744" lon="2.9404800974671366"><ele>94.0</ele><time>2026-05-02T08:11:05Z</time></trkpt><trkpt lat="42.01428294939859" lon="2.9405289752971284"><ele>94.0</ele><time>2026-05-02T08:11:07Z</time></trkpt><trkpt lat="42.01417876026978" lon="2.940552264423829"><ele>94.0</ele><time>2026-05-02T08:11:09Z</time></trkpt><trkpt lat="42.01408823631063" lon="2.9405923114286425"><ele>93.75</ele><time>2026-05-02T08:11:11Z</time></trkpt><trkpt lat="42.01406984802114" lon="2.9408149150725684"><ele>93.5</ele><time>2026-05-02T08:11:13Z</time></trkpt><trkpt lat="42.01404166666712" lon="2.940944902155505"><ele>93.25</ele><time>2026-05-02T08:11:15Z</time></trkpt><trkpt lat="42.01400185423434" lon="2.9410800446104512"><ele>93.0</ele><time>2026-05-02T08:11:18Z</time></trkpt><trkpt lat="42.01395253000999" lon="2.941222769177636"><ele>94.60000000000001</ele><time>2026-05-02T08:11:20Z</time></trkpt><trkpt lat="42.013920799266835" lon="2.9413386902770005"><ele>96.2</ele><time>2026-05-02T08:11:22Z</time></trkpt><trkpt lat="42.01391145649624" lon="2.9414594299060424"><ele>97.8</ele><time>2026-05-02T08:11:24Z</time></trkpt><trkpt lat="42.01390637574287" lon="2.941583618089789"><ele>99.4</ele><time>2026-05-02T08:11:26Z</time></trkpt><trkpt lat="42.01390195580426" lon="2.9417358853696"><ele>101.0</ele><time>2026-05-02T08:11:28Z</time></trkpt><trkpt lat="42.01389483410833" lon="2.941831875246053"><ele>100.99999999999999</ele><time>2026-05-02T08:11:29Z</time></trkpt><trkpt lat="42.01388437447529" lon="2.9419474956087415"><ele>101.0</ele><time>2026-05-02T08:11:30Z</time></trkpt><trkpt lat="42.01385828681441" lon="2.942049549020251"><ele>101.0</ele><time>2026-05-02T08:11:31Z</time></trkpt><trkpt lat="42.01383143322185" lon="2.9421476142232494"><ele>101.0</ele><time>2026-05-02T08:11:32Z</time></trkpt><trkpt lat="42.013801429076786" lon="2.9422583282270534"><ele>100.99999999999999</ele><time>2026-05-02T08:11:33Z</time></trkpt><trkpt lat="42.0137726535566" lon="2.942364508673313"><ele>101.0</ele><time>2026-05-02T08:11:34Z</time></trkpt><trkpt lat="42.01374070221744" lon="2.942482379832635"><ele>100.99999999999999</ele><time>2026-05-02T08:11:35Z</time></trkpt><trkpt lat="42.01371250352568" lon="2.942598997296884"><ele>101.0</ele><time>2026-05-02T08:11:36Z</time></trkpt><trkpt lat="42.013690984293476" lon="2.942718052740462"><ele>101.0</ele><time>2026-05-02T08:11:37Z</time></trkpt><trkpt lat="42.013683644649774" lon="2.9428359925248837"><ele>101.0</ele><time>2026-05-02T08:11:38Z</time></trkpt><trkpt lat="42.0136929406951" lon="2.9429475887172027"><ele>100.99999999999999</ele><time>2026-05-02T08:11:39Z</time></trkpt><trkpt lat="42.01368711146819" lon="2.9430480295839923"><ele>101.0</ele><time>2026-05-02T08:11:40Z</time></trkpt><trkpt lat="42.01368652256941" lon="2.943147506940176"><ele>101.0</ele><time>2026-05-02T08:11:41Z</time></trkpt><trkpt lat="42.013710576760175" lon="2.9432801951565155"><ele>101.0</ele><time>2026-05-02T08:11:43Z</time></trkpt><trkpt lat="42.0137425606488" lon="2.943410386132874"><ele>101.0</ele><time>2026-05-02T08:11:45Z</time></trkpt><trkpt lat="42.0138008504414" lon="2.943522066380037"><ele>101.0</ele><time>2026-05-02T08:11:47Z</time></trkpt><trkpt lat="42.01385868609908" lon="2.943627536806332"><ele>101.0</ele><time>2026-05-02T08:11:49Z</time></trkpt><trkpt lat="42.01394576945528" lon="2.9436654273734955"><ele>102.99999999999999</ele><time>2026-05-02T08:11:51Z</time></trkpt><trkpt lat="42.014030788306044" lon="2.9436770041067555"><ele>105.0</ele><time>2026-05-02T08:11:53Z</time></trkpt><trkpt lat="42.014122083630745" lon="2.9436902149663293"><ele>107.0</ele><time>2026-05-02T08:11:54.999Z</time></trkpt><trkpt lat="42.01421326917631" lon="2.9436955971040186"><ele>109.0</ele><time>2026-05-02T08:11:56.999Z</time></trkpt><trkpt lat="42.014299452819735" lon="2.9437118855189333"><ele>110.99999999999999</ele><time>2026-05-02T08:11:58.999Z</time></trkpt><trkpt lat="42.01439063541662" lon="2.9437166830356207"><ele>113.0</ele><time>2026-05-02T08:12:00.999Z</time></trkpt><trkpt lat="42.01447702163044" lon="2.9437229970704655"><ele>112.99999999999999</ele><time>2026-05-02T08:12:02.999Z</time></trkpt><trkpt lat="42.014560045842536" lon="2.943735151062171"><ele>113.0</ele><time>2026-05-02T08:12:04.999Z</time></trkpt><trkpt lat="42.014636382670055" lon="2.9437456906426953"><ele>113.0</ele><time>2026-05-02T08:12:06.999Z</time></trkpt><trkpt lat="42.01470862975425" lon="2.943757052490001"><ele>113.0</ele><time>2026-05-02T08:12:08.999Z</time></trkpt><trkpt lat="42.0147801744669" lon="2.943773843219292"><ele>112.99999999999999</ele><time>2026-05-02T08:12:10.999Z</time></trkpt><trkpt lat="42.014881139903785" lon="2.9437913996013747"><ele>113.0</ele><time>2026-05-02T08:12:13.999Z</time></trkpt><trkpt lat="42.01496091672145" lon="2.943849506923869"><ele>112.66666666666666</ele><time>2026-05-02T08:12:16.999Z</time></trkpt><trkpt lat="42.015011288513556" lon="2.9439296661868224"><ele>112.33333333333333</ele><time>2026-05-02T08:12:19.999Z</time></trkpt><trkpt lat="42.01505421755048" lon="2.944017180480432"><ele>112.0</ele><time>2026-05-02T08:12:22.999Z</time></trkpt><trkpt lat="42.015084368115126" lon="2.944115934069916"><ele>111.66666666666666</ele><time>2026-05-02T08:12:25.999Z</time></trkpt><trkpt lat="42.01508185489786" lon="2.944227149706361"><ele>111.33333333333333</ele><time>2026-05-02T08:12:28.999Z</time></trkpt><trkpt lat="42.01505319701607" lon="2.9443336239149445"><ele>111.0</ele><time>2026-05-02T08:12:31.999Z</time></trkpt><trkpt lat="42.01501585402515" lon="2.944435473070577"><ele>111.0</ele><time>2026-05-02T08:12:34.999Z</time></trkpt><trkpt lat="42.01499099088304" lon="2.944537256181993"><ele>111.0</ele><time>2026-05-02T08:12:37.999Z</time></trkpt><trkpt lat="42.01496745919507" lon="2.9446406599591484"><ele>111.0</ele><time>2026-05-02T08:12:41Z</time></trkpt><trkpt lat="42.01494790278261" lon="2.9447474600387316"><ele>111.0</ele><time>2026-05-02T08:12:44Z</time></trkpt><trkpt lat="42.01493620989365" lon="2.9448518565606956"><ele>111.0</ele><time>2026-05-02T08:12:47Z</time></trkpt><trkpt lat="42.014940371356246" lon="2.9449563937860823"><ele>111.0</ele><time>2026-05-02T08:12:50Z</time></trkpt><trkpt lat="42.014954049527475" lon="2.945081409814546"><ele>112.19999999999999</ele><time>2026-05-02T08:12:52Z</time></trkpt><trkpt lat="42.014968069889825" lon="2.94521126188959"><ele>113.39999999999999</ele><time>2026-05-02T08:12:54Z</time></trkpt><trkpt lat="42.015009642927815" lon="2.9453273736893237"><ele>114.6</ele><time>2026-05-02T08:12:56Z</time></trkpt><trkpt lat="42.01507267601512" lon="2.9454506693067524"><ele>115.8</ele><time>2026-05-02T08:12:58Z</time></trkpt><trkpt lat="42.0151327529014" lon="2.945569943983985"><ele>117.0</ele><time>2026-05-02T08:13:00Z</time></trkpt><trkpt lat="42.01520376691396" lon="2.9456947079018234"><ele>117.0</ele><time>2026-05-02T08:13:02Z</time></trkpt><trkpt lat="42.01527904421059" lon="2.9458112613098986"><ele>117.0</ele><time>2026-05-02T08:13:04Z</time></trkpt><trkpt lat="42.01533779287863" lon="2.945956415944575"><ele>117.0</ele><time>2026-05-02T08:13:06Z</time></trkpt><trkpt lat="42.01533579249544" lon="2.9460473242896574"><ele>117.0</ele><time>2026-05-02T08:13:07Z</time></trkpt><trkpt lat="42.01532243051193" lon="2.946132442710759"><ele>117.0</ele><time>2026-05-02T08:13:08Z</time></trkpt><trkpt lat="42.015307183431084" lon="2.9462250780011146"><ele>117.0</ele><time>2026-05-02T08:13:09Z</time></trkpt><trkpt lat="42.01528761630024" lon="2.946306517453848"><ele>117.0</ele><time>2026-05-02T08:13:10Z</time></trkpt><trkpt lat="42.01524667858901" lon="2.946384965256534"><ele>116.99999999999999</ele><time>2026-05-02T08:13:11Z</time></trkpt><trkpt lat="42.0152188200315" lon="2.9464661081452723"><ele>116.99999999999999</ele><time>2026-05-02T08:13:12Z</time></trkpt><trkpt lat="42.01515486239427" lon="2.946601747071108"><ele>117.0</ele><time>2026-05-02T08:13:14Z</time></trkpt><trkpt lat="42.015057951801076" lon="2.946707058889276"><ele>117.0</ele><time>2026-05-02T08:13:16Z</time></trkpt><trkpt lat="42.01501383018786" lon="2.9467837579991"><ele>116.6</ele><time>2026-05-02T08:13:17Z</time></trkpt><trkpt lat="42.01498799772471" lon="2.9468686706766376"><ele>116.19999999999999</ele><time>2026-05-02T08:13:18Z</time></trkpt><trkpt lat="42.01497968777389" lon="2.946960609634668"><ele>115.8</ele><time>2026-05-02T08:13:19Z</time></trkpt><trkpt lat="42.01496718366622" lon="2.9471217666051945"><ele>115.4</ele><time>2026-05-02T08:13:21Z</time></trkpt><trkpt lat="42.01498385473318" lon="2.947260650426723"><ele>115.0</ele><time>2026-05-02T08:13:23Z</time></trkpt><trkpt lat="42.015036830215074" lon="2.9474008119535418"><ele>115.00000000000001</ele><time>2026-05-02T08:13:25Z</time></trkpt><trkpt lat="42.01512405078276" lon="2.9475047551299003"><ele>115.0</ele><time>2026-05-02T08:13:27Z</time></trkpt><trkpt lat="42.01516237686391" lon="2.9475785125373304"><ele>115.0</ele><time>2026-05-02T08:13:28Z</time></trkpt><trkpt lat="42.01519393703076" lon="2.947665630037365"><ele>115.0</ele><time>2026-05-02T08:13:29Z</time></trkpt><trkpt lat="42.01519930107587" lon="2.947770786264874"><ele>115.00000000000001</ele><time>2026-05-02T08:13:30Z</time></trkpt><trkpt lat="42.01516493834688" lon="2.94787557062561"><ele>115.0</ele><time>2026-05-02T08:13:31Z</time></trkpt><trkpt lat="42.01514296415706" lon="2.9479593536103486"><ele>114.8</ele><time>2026-05-02T08:13:32Z</time></trkpt><trkpt lat="42.015104857796594" lon="2.9481021774899547"><ele>114.6</ele><time>2026-05-02T08:13:34Z</time></trkpt><trkpt lat="42.015069129108895" lon="2.948242883117908"><ele>114.4</ele><time>2026-05-02T08:13:36Z</time></trkpt><trkpt lat="42.01502970908266" lon="2.9483574940125576"><ele>114.2</ele><time>2026-05-02T08:13:38Z</time></trkpt><trkpt lat="42.01500122019891" lon="2.948469051165997"><ele>114.0</ele><time>2026-05-02T08:13:40Z</time></trkpt><trkpt lat="42.01496689296919" lon="2.9485772027571264"><ele>116.0</ele><time>2026-05-02T08:13:42Z</time></trkpt><trkpt lat="42.01490076739183" lon="2.9486696609983603"><ele>118.0</ele><time>2026-05-02T08:13:44Z</time></trkpt><trkpt lat="42.014833473832525" lon="2.9487697150330283"><ele>120.0</ele><time>2026-05-02T08:13:46Z</time></trkpt><trkpt lat="42.014769921630744" lon="2.9488904332181947"><ele>122.0</ele><time>2026-05-02T08:13:48Z</time></trkpt><trkpt lat="42.0146918014081" lon="2.9489773873426177"><ele>124.0</ele><time>2026-05-02T08:13:50Z</time></trkpt><trkpt lat="42.0146385618004" lon="2.9491087568781222"><ele>124.0</ele><time>2026-05-02T08:13:52Z</time></trkpt><trkpt lat="42.01463447259324" lon="2.949193667657274"><ele>124.0</ele><time>2026-05-02T08:13:53Z</time></trkpt><trkpt lat="42.014651647898866" lon="2.949337630794704"><ele>124.0</ele><time>2026-05-02T08:13:54.999Z</time></trkpt><trkpt lat="42.014636105066465" lon="2.9494896631947376"><ele>124.0</ele><time>2026-05-02T08:13:56.999Z</time></trkpt><trkpt lat="42.01459718588027" lon="2.949639981705606"><ele>124.0</ele><time>2026-05-02T08:13:58.999Z</time></trkpt><trkpt lat="42.014578909799425" lon="2.949789344028348"><ele>123.4</ele><time>2026-05-02T08:14:00.999Z</time></trkpt><trkpt lat="42.01460051722808" lon="2.949939925317126"><ele>122.80000000000001</ele><time>2026-05-02T08:14:02.999Z</time></trkpt><trkpt lat="42.01463170912461" lon="2.950058634614637"><ele>122.19999999999999</ele><time>2026-05-02T08:14:04.999Z</time></trkpt><trkpt lat="42.01466406168407" lon="2.950133392565126"><ele>121.6</ele><time>2026-05-02T08:14:05.999Z</time></trkpt><trkpt lat="42.01471937722247" lon="2.950267802617674"><ele>121.0</ele><time>2026-05-02T08:14:07.999Z</time></trkpt><trkpt lat="42.01475472673213" lon="2.9503795953274707"><ele>121.0</ele><time>2026-05-02T08:14:09.999Z</time></trkpt><trkpt lat="42.01479495299716" lon="2.9504632041691394"><ele>121.0</ele><time>2026-05-02T08:14:11.999Z</time></trkpt><trkpt lat="42.01500101801965" lon="2.9504358302967084"><ele>121.0</ele><time>2026-05-02T08:14:13.999Z</time></trkpt><trkpt lat="42.01512195572563" lon="2.950459506330253"><ele>121.0</ele><time>2026-05-02T08:14:15.999Z</time></trkpt><trkpt lat="42.01523793328664" lon="2.950461838579344"><ele>121.8</ele><time>2026-05-02T08:14:17.999Z</time></trkpt><trkpt lat="42.015349093065325" lon="2.950432785423739"><ele>122.6</ele><time>2026-05-02T08:14:19.999Z</time></trkpt><trkpt lat="42.01546234606845" lon="2.9504042546211218"><ele>123.4</ele><time>2026-05-02T08:14:21.999Z</time></trkpt><trkpt lat="42.01556198607642" lon="2.950377454612396"><ele>124.2</ele><time>2026-05-02T08:14:23.999Z</time></trkpt><trkpt lat="42.015621960430515" lon="2.9503499899062975"><ele>125.0</ele><time>2026-05-02T08:14:24.999Z</time></trkpt><trkpt lat="42.01568031178618" lon="2.950311350440819"><ele>125.0</ele><time>2026-05-02T08:14:25.999Z</time></trkpt><trkpt lat="42.01578448015174" lon="2.950235462676077"><ele>125.0</ele><time>2026-05-02T08:14:27.999Z</time></trkpt><trkpt lat="42.015892037333536" lon="2.950163484138432"><ele>125.0</ele><time>2026-05-02T08:14:29.999Z</time></trkpt><trkpt lat="42.01600810394706" lon="2.9501528333422162"><ele>125.0</ele><time>2026-05-02T08:14:31.999Z</time></trkpt><trkpt lat="42.01607486840226" lon="2.9501318522421087"><ele>125.0</ele><time>2026-05-02T08:14:32.999Z</time></trkpt><trkpt lat="42.0161328007441" lon="2.950084722131793"><ele>124.71428571428571</ele><time>2026-05-02T08:14:33.999Z</time></trkpt><trkpt lat="42.01619894390707" lon="2.950058769545185"><ele>124.42857142857144</ele><time>2026-05-02T08:14:34.999Z</time></trkpt><trkpt lat="42.016265036526256" lon="2.9500334770070795"><ele>124.14285714285715</ele><time>2026-05-02T08:14:35.999Z</time></trkpt><trkpt lat="42.016331595978485" lon="2.949989710941478"><ele>123.85714285714286</ele><time>2026-05-02T08:14:36.999Z</time></trkpt><trkpt lat="42.016387194434024" lon="2.9499449741246573"><ele>123.57142857142858</ele><time>2026-05-02T08:14:37.999Z</time></trkpt><trkpt lat="42.01643959683056" lon="2.9498890958451565"><ele>123.2857142857143</ele><time>2026-05-02T08:14:38.999Z</time></trkpt><trkpt lat="42.01649616445441" lon="2.949842567214523"><ele>123.00000000000001</ele><time>2026-05-02T08:14:39.999Z</time></trkpt><trkpt lat="42.01661595402981" lon="2.94980029767665"><ele>123.2857142857143</ele><time>2026-05-02T08:14:41.999Z</time></trkpt><trkpt lat="42.01668031973357" lon="2.9497662161318527"><ele>123.57142857142858</ele><time>2026-05-02T08:14:42.999Z</time></trkpt><trkpt lat="42.016744599546016" lon="2.9497307897081084"><ele>123.85714285714286</ele><time>2026-05-02T08:14:43.999Z</time></trkpt><trkpt lat="42.016806303073466" lon="2.949701078890997"><ele>124.14285714285715</ele><time>2026-05-02T08:14:44.999Z</time></trkpt><trkpt lat="42.016871927926886" lon="2.949664498701882"><ele>124.42857142857144</ele><time>2026-05-02T08:14:46Z</time></trkpt><trkpt lat="42.016940618612864" lon="2.949620626575171"><ele>124.71428571428571</ele><time>2026-05-02T08:14:47Z</time></trkpt><trkpt lat="42.017012112843645" lon="2.9495788824199036"><ele>125.0</ele><time>2026-05-02T08:14:48Z</time></trkpt><trkpt lat="42.01708147020433" lon="2.949537479685672"><ele>124.99999999999999</ele><time>2026-05-02T08:14:49Z</time></trkpt><trkpt lat="42.01715678414106" lon="2.949493754826003"><ele>125.0</ele><time>2026-05-02T08:14:50Z</time></trkpt><trkpt lat="42.01722616965473" lon="2.949454706107432"><ele>125.0</ele><time>2026-05-02T08:14:51Z</time></trkpt><trkpt lat="42.01730044862472" lon="2.949415010742886"><ele>125.0</ele><time>2026-05-02T08:14:52Z</time></trkpt><trkpt lat="42.0173713722962" lon="2.9493808983340815"><ele>124.99999999999999</ele><time>2026-05-02T08:14:53Z</time></trkpt><trkpt lat="42.01743974427315" lon="2.9493354472392643"><ele>125.0</ele><time>2026-05-02T08:14:54Z</time></trkpt><trkpt lat="42.01750681769244" lon="2.949298974266549"><ele>125.42857142857142</ele><time>2026-05-02T08:14:55Z</time></trkpt><trkpt lat="42.01757190890579" lon="2.9492780419113305"><ele>125.85714285714286</ele><time>2026-05-02T08:14:56Z</time></trkpt><trkpt lat="42.017643187391805" lon="2.9492544467192947"><ele>126.28571428571428</ele><time>2026-05-02T08:14:57Z</time></trkpt><trkpt lat="42.01771479900533" lon="2.94923379647073"><ele>126.71428571428571</ele><time>2026-05-02T08:14:58Z</time></trkpt><trkpt lat="42.017788560191285" lon="2.9492150247448987"><ele>127.14285714285714</ele><time>2026-05-02T08:14:59Z</time></trkpt><trkpt lat="42.017861781356835" lon="2.949195328897421"><ele>127.57142857142857</ele><time>2026-05-02T08:15:00Z</time></trkpt><trkpt lat="42.017935821834904" lon="2.949179514616336"><ele>128.0</ele><time>2026-05-02T08:15:01Z</time></trkpt><trkpt lat="42.01800664695741" lon="2.9491658190034644"><ele>127.16666666666666</ele><time>2026-05-02T08:15:02Z</time></trkpt><trkpt lat="42.01807886230451" lon="2.949152896797541"><ele>126.33333333333333</ele><time>2026-05-02T08:15:03Z</time></trkpt><trkpt lat="42.01814971012145" lon="2.9491493896889693"><ele>125.5</ele><time>2026-05-02T08:15:04Z</time></trkpt><trkpt lat="42.01821519290499" lon="2.9491525456287326"><ele>124.66666666666666</ele><time>2026-05-02T08:15:05Z</time></trkpt><trkpt lat="42.01828049136816" lon="2.949158530110119"><ele>123.83333333333333</ele><time>2026-05-02T08:15:06Z</time></trkpt><trkpt lat="42.018343775297666" lon="2.9491646470578985"><ele>123.0</ele><time>2026-05-02T08:15:07Z</time></trkpt><trkpt lat="42.018529501003265" lon="2.9491665951144586"><ele>123.0</ele><time>2026-05-02T08:15:10Z</time></trkpt><trkpt lat="42.0185926629036" lon="2.949173077214941"><ele>123.00000000000001</ele><time>2026-05-02T08:15:11Z</time></trkpt><trkpt lat="42.01870666955756" lon="2.9491833906238485"><ele>123.00000000000001</ele><time>2026-05-02T08:15:13Z</time></trkpt><trkpt lat="42.018819582021834" lon="2.9491793283616357"><ele>123.0</ele><time>2026-05-02T08:15:15Z</time></trkpt><trkpt lat="42.01892668303049" lon="2.949182477378329"><ele>123.0</ele><time>2026-05-02T08:15:17Z</time></trkpt><trkpt lat="42.01903583358768" lon="2.9491943855841893"><ele>124.80000000000001</ele><time>2026-05-02T08:15:19Z</time></trkpt><trkpt lat="42.01914034970519" lon="2.94922036801293"><ele>126.60000000000001</ele><time>2026-05-02T08:15:21Z</time></trkpt><trkpt lat="42.01923773859499" lon="2.9492512961094293"><ele>128.39999999999998</ele><time>2026-05-02T08:15:23Z</time></trkpt><trkpt lat="42.0193219432754" lon="2.9492870311061137"><ele>130.2</ele><time>2026-05-02T08:15:25Z</time></trkpt><trkpt lat="42.01940025616463" lon="2.949303030558234"><ele>132.0</ele><time>2026-05-02T08:15:27Z</time></trkpt><trkpt lat="42.01948669450061" lon="2.9493159840527485"><ele>133.0</ele><time>2026-05-02T08:15:29Z</time></trkpt><trkpt lat="42.01956803566738" lon="2.9493665452168107"><ele>134.0</ele><time>2026-05-02T08:15:31Z</time></trkpt><trkpt lat="42.01963654162755" lon="2.949431215011635"><ele>135.0</ele><time>2026-05-02T08:15:33Z</time></trkpt><trkpt lat="42.019697121712355" lon="2.9494925129559655"><ele>136.0</ele><time>2026-05-02T08:15:35Z</time></trkpt><trkpt lat="42.0197597925142" lon="2.949552437077232"><ele>137.0</ele><time>2026-05-02T08:15:37Z</time></trkpt><trkpt lat="42.01983217384818" lon="2.9496243713536954"><ele>138.0</ele><time>2026-05-02T08:15:39Z</time></trkpt><trkpt lat="42.019915563550235" lon="2.949687657815298"><ele>137.8</ele><time>2026-05-02T08:15:41Z</time></trkpt><trkpt lat="42.020005531941464" lon="2.9497428984118947"><ele>137.60000000000002</ele><time>2026-05-02T08:15:43Z</time></trkpt><trkpt lat="42.02010123074466" lon="2.9497935801572925"><ele>137.39999999999998</ele><time>2026-05-02T08:15:45Z</time></trkpt><trkpt lat="42.020207694466244" lon="2.9498462795837175"><ele>137.2</ele><time>2026-05-02T08:15:47Z</time></trkpt><trkpt lat="42.0203157542552" lon="2.949887763423614"><ele>137.0</ele><time>2026-05-02T08:15:49Z</time></trkpt><trkpt lat="42.020431677782966" lon="2.949938326400894"><ele>137.0</ele><time>2026-05-02T08:15:51Z</time></trkpt><trkpt lat="42.02055036613295" lon="2.9499838468040442"><ele>137.0</ele><time>2026-05-02T08:15:53Z</time></trkpt><trkpt lat="42.02065850157664" lon="2.950033007784645"><ele>137.0</ele><time>2026-05-02T08:15:55Z</time></trkpt><trkpt lat="42.0207529016489" lon="2.9500972038457305"><ele>137.0</ele><time>2026-05-02T08:15:57Z</time></trkpt><trkpt lat="42.02083995932939" lon="2.950185055392457"><ele>136.79999999999998</ele><time>2026-05-02T08:15:59Z</time></trkpt><trkpt lat="42.02090976107083" lon="2.950301978772627"><ele>136.6</ele><time>2026-05-02T08:16:01Z</time></trkpt><trkpt lat="42.02098109888372" lon="2.950422781160949"><ele>136.39999999999998</ele><time>2026-05-02T08:16:03Z</time></trkpt><trkpt lat="42.021087791406224" lon="2.9505059008822476"><ele>136.2</ele><time>2026-05-02T08:16:05Z</time></trkpt><trkpt lat="42.02115242322971" lon="2.950530989402561"><ele>136.0</ele><time>2026-05-02T08:16:06Z</time></trkpt><trkpt lat="42.02121524237113" lon="2.950541761206963"><ele>136.0</ele><time>2026-05-02T08:16:06.999Z</time></trkpt><trkpt lat="42.02127856780028" lon="2.9505353931900484"><ele>136.0</ele><time>2026-05-02T08:16:07.999Z</time></trkpt><trkpt lat="42.02139906656243" lon="2.9505203851711834"><ele>136.0</ele><time>2026-05-02T08:16:09.999Z</time></trkpt><trkpt lat="42.02151627415234" lon="2.950521166271214"><ele>136.0</ele><time>2026-05-02T08:16:11.999Z</time></trkpt><trkpt lat="42.021580230059215" lon="2.9505025881040803"><ele>136.0</ele><time>2026-05-02T08:16:12.999Z</time></trkpt><trkpt lat="42.021696888560285" lon="2.9504499233973553"><ele>135.66666666666669</ele><time>2026-05-02T08:16:14.999Z</time></trkpt><trkpt lat="42.0217605291135" lon="2.950429674302795"><ele>135.33333333333334</ele><time>2026-05-02T08:16:15.999Z</time></trkpt><trkpt lat="42.021831459048336" lon="2.9504203402077986"><ele>135.0</ele><time>2026-05-02T08:16:16.999Z</time></trkpt><trkpt lat="42.021905814018936" lon="2.950427687039963"><ele>134.66666666666666</ele><time>2026-05-02T08:16:17.999Z</time></trkpt><trkpt lat="42.021977031331204" lon="2.95043426611675"><ele>134.33333333333331</ele><time>2026-05-02T08:16:18.999Z</time></trkpt><trkpt lat="42.022088114636965" lon="2.9504620845245104"><ele>134.0</ele><time>2026-05-02T08:16:20.999Z</time></trkpt><trkpt lat="42.02219851759697" lon="2.9505268720006463"><ele>134.0</ele><time>2026-05-02T08:16:22.999Z</time></trkpt><trkpt lat="42.02231063702574" lon="2.9505816862440413"><ele>134.0</ele><time>2026-05-02T08:16:24.999Z</time></trkpt><trkpt lat="42.02237615434087" lon="2.9505929659715147"><ele>134.0</ele><time>2026-05-02T08:16:25.999Z</time></trkpt><trkpt lat="42.02244205367641" lon="2.950600956805967"><ele>134.0</ele><time>2026-05-02T08:16:26.999Z</time></trkpt><trkpt lat="42.02250854209923" lon="2.9506092600148945"><ele>134.0</ele><time>2026-05-02T08:16:27.999Z</time></trkpt><trkpt lat="42.02257335962178" lon="2.950617204355556"><ele>134.0</ele><time>2026-05-02T08:16:28.999Z</time></trkpt><trkpt lat="42.02264216205073" lon="2.9506283856861795"><ele>133.57142857142858</ele><time>2026-05-02T08:16:29.999Z</time></trkpt><trkpt lat="42.02271121631605" lon="2.950642083243221"><ele>133.14285714285714</ele><time>2026-05-02T08:16:30.999Z</time></trkpt><trkpt lat="42.022776762321435" lon="2.9506629417383308"><ele>132.71428571428572</ele><time>2026-05-02T08:16:31.999Z</time></trkpt><trkpt lat="42.02284524925004" lon="2.950680030072898"><ele>132.28571428571428</ele><time>2026-05-02T08:16:32.999Z</time></trkpt><trkpt lat="42.02291639708514" lon="2.9506965254407387"><ele>131.85714285714286</ele><time>2026-05-02T08:16:33.999Z</time></trkpt><trkpt lat="42.02298832218844" lon="2.950713557063769"><ele>131.42857142857144</ele><time>2026-05-02T08:16:34.999Z</time></trkpt><trkpt lat="42.02305964819653" lon="2.950727924401512"><ele>131.0</ele><time>2026-05-02T08:16:35.999Z</time></trkpt><trkpt lat="42.02313324138097" lon="2.950742837662933"><ele>131.0</ele><time>2026-05-02T08:16:36.999Z</time></trkpt><trkpt lat="42.02320677183025" lon="2.950759920857519"><ele>131.0</ele><time>2026-05-02T08:16:37.999Z</time></trkpt><trkpt lat="42.023280026475746" lon="2.9507762959227084"><ele>131.0</ele><time>2026-05-02T08:16:38.999Z</time></trkpt><trkpt lat="42.0233522767426" lon="2.9507907560229083"><ele>131.0</ele><time>2026-05-02T08:16:39.999Z</time></trkpt><trkpt lat="42.023425679322" lon="2.9508006556496116"><ele>131.0</ele><time>2026-05-02T08:16:40.999Z</time></trkpt><trkpt lat="42.02349773091945" lon="2.9508090699632477"><ele>131.0</ele><time>2026-05-02T08:16:41.999Z</time></trkpt><trkpt lat="42.0235661512904" lon="2.9508165945693805"><ele>131.0</ele><time>2026-05-02T08:16:42.999Z</time></trkpt><trkpt lat="42.02362996576612" lon="2.9508290459426134"><ele>131.4</ele><time>2026-05-02T08:16:43.999Z</time></trkpt><trkpt lat="42.02372583345581" lon="2.950882262010002"><ele>131.8</ele><time>2026-05-02T08:16:45.999Z</time></trkpt><trkpt lat="42.02377474056166" lon="2.9509469960980743"><ele>132.20000000000002</ele><time>2026-05-02T08:16:47.999Z</time></trkpt><trkpt lat="42.023807073486324" lon="2.9510590590622385"><ele>132.6</ele><time>2026-05-02T08:16:50.999Z</time></trkpt><trkpt lat="42.02381600903103" lon="2.9511791951647846"><ele>133.0</ele><time>2026-05-02T08:16:53Z</time></trkpt><trkpt lat="42.02379818526649" lon="2.9513312252984774"><ele>133.0</ele><time>2026-05-02T08:16:55Z</time></trkpt><trkpt lat="42.02378454366238" lon="2.9514158300521984"><ele>133.0</ele><time>2026-05-02T08:16:56Z</time></trkpt><trkpt lat="42.023768716003886" lon="2.9515795252854224"><ele>133.0</ele><time>2026-05-02T08:16:58Z</time></trkpt><trkpt lat="42.023793911829245" lon="2.9517434408583982"><ele>133.0</ele><time>2026-05-02T08:17:00Z</time></trkpt><trkpt lat="42.02385687864019" lon="2.9518830979073796"><ele>133.0</ele><time>2026-05-02T08:17:02Z</time></trkpt><trkpt lat="42.02395309688295" lon="2.9519868071001034"><ele>132.75</ele><time>2026-05-02T08:17:04Z</time></trkpt><trkpt lat="42.02405163031506" lon="2.9520816634945612"><ele>132.5</ele><time>2026-05-02T08:17:06Z</time></trkpt><trkpt lat="42.0241489228072" lon="2.952164440363697"><ele>132.25</ele><time>2026-05-02T08:17:08Z</time></trkpt><trkpt lat="42.02425441414253" lon="2.952227989833251"><ele>132.0</ele><time>2026-05-02T08:17:10Z</time></trkpt><trkpt lat="42.02436745553338" lon="2.952267079853122"><ele>132.0</ele><time>2026-05-02T08:17:12Z</time></trkpt><trkpt lat="42.02443100305256" lon="2.952290341905527"><ele>132.0</ele><time>2026-05-02T08:17:13Z</time></trkpt><trkpt lat="42.02455071381688" lon="2.9523177040099586"><ele>132.0</ele><time>2026-05-02T08:17:15Z</time></trkpt><trkpt lat="42.02467378926351" lon="2.952353873324995"><ele>132.0</ele><time>2026-05-02T08:17:17Z</time></trkpt><trkpt lat="42.02473622878505" lon="2.9523792385680037"><ele>132.0</ele><time>2026-05-02T08:17:18Z</time></trkpt><trkpt lat="42.02479850063386" lon="2.952406312711215"><ele>132.0</ele><time>2026-05-02T08:17:19Z</time></trkpt><trkpt lat="42.02486295806513" lon="2.9524208806503878"><ele>132.0</ele><time>2026-05-02T08:17:20Z</time></trkpt><trkpt lat="42.024927848338955" lon="2.9524301543650333"><ele>132.0</ele><time>2026-05-02T08:17:21Z</time></trkpt><trkpt lat="42.02499470768581" lon="2.9524432979179256"><ele>132.0</ele><time>2026-05-02T08:17:22Z</time></trkpt><trkpt lat="42.02505894364394" lon="2.9524534974247096"><ele>132.0</ele><time>2026-05-02T08:17:23Z</time></trkpt><trkpt lat="42.025123537977535" lon="2.9524601611772416"><ele>132.0</ele><time>2026-05-02T08:17:24Z</time></trkpt><trkpt lat="42.025188541559686" lon="2.9524601844273968"><ele>132.0</ele><time>2026-05-02T08:17:25Z</time></trkpt><trkpt lat="42.02525638675858" lon="2.9524625668691282"><ele>132.0</ele><time>2026-05-02T08:17:26Z</time></trkpt><trkpt lat="42.02532658650251" lon="2.9524590498858303"><ele>132.14285714285714</ele><time>2026-05-02T08:17:27Z</time></trkpt><trkpt lat="42.02540001965212" lon="2.9524588671363015"><ele>132.28571428571428</ele><time>2026-05-02T08:17:28Z</time></trkpt><trkpt lat="42.02547302126626" lon="2.9524662920721996"><ele>132.42857142857144</ele><time>2026-05-02T08:17:29Z</time></trkpt><trkpt lat="42.025544899913186" lon="2.9524796856059603"><ele>132.57142857142856</ele><time>2026-05-02T08:17:30Z</time></trkpt><trkpt lat="42.02560993569645" lon="2.952494095084096"><ele>132.71428571428572</ele><time>2026-05-02T08:17:31Z</time></trkpt><trkpt lat="42.02567553465616" lon="2.9525109307058806"><ele>132.85714285714286</ele><time>2026-05-02T08:17:32Z</time></trkpt><trkpt lat="42.02574162384316" lon="2.952524210628784"><ele>133.0</ele><time>2026-05-02T08:17:33Z</time></trkpt><trkpt lat="42.02580941034896" lon="2.952541207981923"><ele>133.14285714285714</ele><time>2026-05-02T08:17:34Z</time></trkpt><trkpt lat="42.02587777491815" lon="2.952556151659528"><ele>133.28571428571428</ele><time>2026-05-02T08:17:35Z</time></trkpt><trkpt lat="42.025947078419854" lon="2.9525682897285037"><ele>133.42857142857144</ele><time>2026-05-02T08:17:36Z</time></trkpt><trkpt lat="42.026018691208336" lon="2.9525817202005165"><ele>133.57142857142856</ele><time>2026-05-02T08:17:37Z</time></trkpt><trkpt lat="42.02608972309679" lon="2.9526025602794705"><ele>133.71428571428572</ele><time>2026-05-02T08:17:38Z</time></trkpt><trkpt lat="42.026163136012734" lon="2.9526278976159226"><ele>133.85714285714286</ele><time>2026-05-02T08:17:39Z</time></trkpt><trkpt lat="42.02623714559461" lon="2.952650913010153"><ele>134.0</ele><time>2026-05-02T08:17:40Z</time></trkpt><trkpt lat="42.02630918008325" lon="2.9526741080734733"><ele>134.0</ele><time>2026-05-02T08:17:41Z</time></trkpt><trkpt lat="42.026381081641496" lon="2.9526983142937464"><ele>134.0</ele><time>2026-05-02T08:17:42Z</time></trkpt><trkpt lat="42.026452568319584" lon="2.9527210397215984"><ele>134.0</ele><time>2026-05-02T08:17:43Z</time></trkpt><trkpt lat="42.02652071968222" lon="2.952745831436993"><ele>134.0</ele><time>2026-05-02T08:17:44Z</time></trkpt><trkpt lat="42.0265905665946" lon="2.9527773917290134"><ele>134.0</ele><time>2026-05-02T08:17:45Z</time></trkpt><trkpt lat="42.0266599554692" lon="2.95279829906174"><ele>134.0</ele><time>2026-05-02T08:17:46Z</time></trkpt><trkpt lat="42.026739169972906" lon="2.95280346956068"><ele>134.0</ele><time>2026-05-02T08:17:47Z</time></trkpt><trkpt lat="42.02682117081553" lon="2.9527991229334813"><ele>133.83333333333331</ele><time>2026-05-02T08:17:48Z</time></trkpt><trkpt lat="42.02690211976589" lon="2.9527996719548444"><ele>133.66666666666666</ele><time>2026-05-02T08:17:49Z</time></trkpt><trkpt lat="42.02698944572363" lon="2.9528030892506187"><ele>133.5</ele><time>2026-05-02T08:17:50Z</time></trkpt><trkpt lat="42.027076474266565" lon="2.9528052366776114"><ele>133.33333333333334</ele><time>2026-05-02T08:17:51Z</time></trkpt><trkpt lat="42.02716494737961" lon="2.9528014495196397"><ele>133.16666666666669</ele><time>2026-05-02T08:17:52Z</time></trkpt><trkpt lat="42.027246257852646" lon="2.952796759262388"><ele>133.0</ele><time>2026-05-02T08:17:53Z</time></trkpt><trkpt lat="42.02732738022996" lon="2.952794723334006"><ele>133.0</ele><time>2026-05-02T08:17:54Z</time></trkpt><trkpt lat="42.027403780204985" lon="2.952793750165161"><ele>133.0</ele><time>2026-05-02T08:17:55Z</time></trkpt><trkpt lat="42.02748237328651" lon="2.952801723265804"><ele>133.0</ele><time>2026-05-02T08:17:56Z</time></trkpt><trkpt lat="42.02755793417201" lon="2.9528154429076565"><ele>133.0</ele><time>2026-05-02T08:17:57Z</time></trkpt><trkpt lat="42.02763771446327" lon="2.952827812999057"><ele>133.0</ele><time>2026-05-02T08:17:58Z</time></trkpt><trkpt lat="42.02772302027928" lon="2.952833055435595"><ele>133.0</ele><time>2026-05-02T08:17:59Z</time></trkpt><trkpt lat="42.02780832574872" lon="2.9528287081833686"><ele>133.16666666666669</ele><time>2026-05-02T08:18:00Z</time></trkpt><trkpt lat="42.02789729661841" lon="2.952810858541362"><ele>133.33333333333334</ele><time>2026-05-02T08:18:01Z</time></trkpt><trkpt lat="42.02798612243648" lon="2.9527948321472337"><ele>133.5</ele><time>2026-05-02T08:18:02Z</time></trkpt><trkpt lat="42.02806677411253" lon="2.9527880427771254"><ele>133.66666666666666</ele><time>2026-05-02T08:18:03Z</time></trkpt><trkpt lat="42.028144109825575" lon="2.9527954763252526"><ele>133.83333333333331</ele><time>2026-05-02T08:18:04Z</time></trkpt><trkpt lat="42.02822639306896" lon="2.952817337841588"><ele>134.0</ele><time>2026-05-02T08:18:05Z</time></trkpt><trkpt lat="42.02830595798364" lon="2.9528434483533155"><ele>133.0</ele><time>2026-05-02T08:18:06Z</time></trkpt><trkpt lat="42.02838327852789" lon="2.952861583097932"><ele>132.0</ele><time>2026-05-02T08:18:07Z</time></trkpt><trkpt lat="42.028463523442554" lon="2.9528736901926997"><ele>131.0</ele><time>2026-05-02T08:18:08Z</time></trkpt><trkpt lat="42.02854696579248" lon="2.952877019691317"><ele>130.0</ele><time>2026-05-02T08:18:09Z</time></trkpt><trkpt lat="42.02863168572835" lon="2.9528764714095272"><ele>129.0</ele><time>2026-05-02T08:18:10Z</time></trkpt><trkpt lat="42.02870842359891" lon="2.952867078942503"><ele>128.0</ele><time>2026-05-02T08:18:11Z</time></trkpt><trkpt lat="42.028780969683" lon="2.952851644969625"><ele>127.99999999999999</ele><time>2026-05-02T08:18:12Z</time></trkpt><trkpt lat="42.02886021744031" lon="2.952835659406505"><ele>128.0</ele><time>2026-05-02T08:18:13Z</time></trkpt><trkpt lat="42.02894404031953" lon="2.9528305135594697"><ele>128.0</ele><time>2026-05-02T08:18:14Z</time></trkpt><trkpt lat="42.02903255586014" lon="2.952830036521546"><ele>128.0</ele><time>2026-05-02T08:18:15Z</time></trkpt><trkpt lat="42.02911944754058" lon="2.952831928759584"><ele>127.99999999999999</ele><time>2026-05-02T08:18:16Z</time></trkpt><trkpt lat="42.02920690933827" lon="2.952830833778805"><ele>128.0</ele><time>2026-05-02T08:18:17Z</time></trkpt><trkpt lat="42.029293807763125" lon="2.952830443759219"><ele>126.66666666666666</ele><time>2026-05-02T08:18:18Z</time></trkpt><trkpt lat="42.02938021587777" lon="2.9528274393706906"><ele>125.33333333333333</ele><time>2026-05-02T08:18:19Z</time></trkpt><trkpt lat="42.029460481184266" lon="2.9528202603165856"><ele>124.0</ele><time>2026-05-02T08:18:19.999Z</time></trkpt><trkpt lat="42.02953706508515" lon="2.9528072764997035"><ele>122.66666666666666</ele><time>2026-05-02T08:18:20.999Z</time></trkpt><trkpt lat="42.02961475726071" lon="2.9527890634282445"><ele>121.33333333333333</ele><time>2026-05-02T08:18:21.999Z</time></trkpt><trkpt lat="42.029681467500986" lon="2.952770421228964"><ele>120.0</ele><time>2026-05-02T08:18:22.999Z</time></trkpt><trkpt lat="42.029782855912536" lon="2.9527412301984524"><ele>120.0</ele><time>2026-05-02T08:18:24.999Z</time></trkpt><trkpt lat="42.02985568885665" lon="2.952709349368179"><ele>120.0</ele><time>2026-05-02T08:18:26.999Z</time></trkpt><trkpt lat="42.029938679000104" lon="2.952643794382379"><ele>120.0</ele><time>2026-05-02T08:18:28.999Z</time></trkpt><trkpt lat="42.03004772341223" lon="2.952583492015757"><ele>120.0</ele><time>2026-05-02T08:18:30.999Z</time></trkpt><trkpt lat="42.03011043088889" lon="2.9525687863357883"><ele>120.0</ele><time>2026-05-02T08:18:31.999Z</time></trkpt><trkpt lat="42.03023070091636" lon="2.9525304307407443"><ele>118.14285714285715</ele><time>2026-05-02T08:18:33.999Z</time></trkpt><trkpt lat="42.030292695650544" lon="2.9525093319650355"><ele>116.28571428571428</ele><time>2026-05-02T08:18:34.999Z</time></trkpt><trkpt lat="42.03035556848213" lon="2.952490410156986"><ele>114.42857142857143</ele><time>2026-05-02T08:18:35.999Z</time></trkpt><trkpt lat="42.03042289896985" lon="2.9524689135897013"><ele>112.57142857142858</ele><time>2026-05-02T08:18:36.999Z</time></trkpt><trkpt lat="42.03049005110305" lon="2.9524475792236933"><ele>110.71428571428572</ele><time>2026-05-02T08:18:37.999Z</time></trkpt><trkpt lat="42.03055122524479" lon="2.9524237929908"><ele>108.85714285714286</ele><time>2026-05-02T08:18:38.999Z</time></trkpt><trkpt lat="42.03061496002906" lon="2.9523949147055157"><ele>107.0</ele><time>2026-05-02T08:18:39.999Z</time></trkpt><trkpt lat="42.03067786231276" lon="2.9523690798155364"><ele>107.0</ele><time>2026-05-02T08:18:40.999Z</time></trkpt><trkpt lat="42.030739188081974" lon="2.952343404180718"><ele>106.99999999999999</ele><time>2026-05-02T08:18:41.999Z</time></trkpt><trkpt lat="42.030842352290634" lon="2.9523075173715476"><ele>106.99999999999999</ele><time>2026-05-02T08:18:43.999Z</time></trkpt><trkpt lat="42.0309381711881" lon="2.9523438801027173"><ele>107.0</ele><time>2026-05-02T08:18:45.999Z</time></trkpt><trkpt lat="42.03100871732257" lon="2.9524641686029534"><ele>107.0</ele><time>2026-05-02T08:18:47.999Z</time></trkpt><trkpt lat="42.0310040389088" lon="2.952631560705481"><ele>105.8</ele><time>2026-05-02T08:18:49.999Z</time></trkpt><trkpt lat="42.0310104941133" lon="2.9527968077584608"><ele>104.6</ele><time>2026-05-02T08:18:51.999Z</time></trkpt><trkpt lat="42.0310513270881" lon="2.952937896367328"><ele>103.39999999999999</ele><time>2026-05-02T08:18:53.999Z</time></trkpt><trkpt lat="42.031025809584754" lon="2.953097070295123"><ele>102.19999999999999</ele><time>2026-05-02T08:18:55.999Z</time></trkpt><trkpt lat="42.031010839862105" lon="2.953179433295287"><ele>101.0</ele><time>2026-05-02T08:18:57Z</time></trkpt><trkpt lat="42.03099761675454" lon="2.9533526078119006"><ele>100.85714285714286</ele><time>2026-05-02T08:18:59Z</time></trkpt><trkpt lat="42.03099800337788" lon="2.9534406233574693"><ele>100.71428571428571</ele><time>2026-05-02T08:19:00Z</time></trkpt><trkpt lat="42.03099085129817" lon="2.953529117640199"><ele>100.57142857142858</ele><time>2026-05-02T08:19:01Z</time></trkpt><trkpt lat="42.030985539160255" lon="2.9536177530960157"><ele>100.42857142857143</ele><time>2026-05-02T08:19:02Z</time></trkpt><trkpt lat="42.030981916095755" lon="2.9537123953733535"><ele>100.28571428571429</ele><time>2026-05-02T08:19:03Z</time></trkpt><trkpt lat="42.03097619296749" lon="2.953809461576441"><ele>100.14285714285715</ele><time>2026-05-02T08:19:04Z</time></trkpt><trkpt lat="42.03097169310541" lon="2.95390402299029"><ele>100.0</ele><time>2026-05-02T08:19:05Z</time></trkpt><trkpt lat="42.03096709401434" lon="2.9540061176589094"><ele>100.00000000000001</ele><time>2026-05-02T08:19:06Z</time></trkpt><trkpt lat="42.030960135773036" lon="2.954107128751066"><ele>100.0</ele><time>2026-05-02T08:19:07Z</time></trkpt><trkpt lat="42.03095112767282" lon="2.9542112209101776"><ele>100.0</ele><time>2026-05-02T08:19:08Z</time></trkpt><trkpt lat="42.03094401112776" lon="2.954313874149534"><ele>100.0</ele><time>2026-05-02T08:19:09Z</time></trkpt><trkpt lat="42.03093239863063" lon="2.9544133405761475"><ele>100.0</ele><time>2026-05-02T08:19:10Z</time></trkpt><trkpt lat="42.03091832995863" lon="2.9545058380585436"><ele>100.00000000000001</ele><time>2026-05-02T08:19:11Z</time></trkpt><trkpt lat="42.03091258263804" lon="2.954603174902901"><ele>100.0</ele><time>2026-05-02T08:19:12Z</time></trkpt><trkpt lat="42.03091225769936" lon="2.954699157090251"><ele>99.85714285714286</ele><time>2026-05-02T08:19:13Z</time></trkpt><trkpt lat="42.03091093750616" lon="2.954797511622781"><ele>99.71428571428572</ele><time>2026-05-02T08:19:14Z</time></trkpt><trkpt lat="42.030908761953924" lon="2.9548921822794076"><ele>99.57142857142858</ele><time>2026-05-02T08:19:15Z</time></trkpt><trkpt lat="42.03091042669773" lon="2.9549850337060684"><ele>99.42857142857143</ele><time>2026-05-02T08:19:16Z</time></trkpt><trkpt lat="42.030915816665996" lon="2.9550777435831135"><ele>99.28571428571428</ele><time>2026-05-02T08:19:17Z</time></trkpt><trkpt lat="42.030914092516355" lon="2.9551696102816254"><ele>99.14285714285715</ele><time>2026-05-02T08:19:18Z</time></trkpt><trkpt lat="42.030908671647914" lon="2.9552600846120556"><ele>99.0</ele><time>2026-05-02T08:19:19Z</time></trkpt><trkpt lat="42.030905512231655" lon="2.9553463208529958"><ele>99.6</ele><time>2026-05-02T08:19:20Z</time></trkpt><trkpt lat="42.03090093949516" lon="2.9554338058245633"><ele>100.2</ele><time>2026-05-02T08:19:21Z</time></trkpt><trkpt lat="42.03089534788498" lon="2.955519341680218"><ele>100.8</ele><time>2026-05-02T08:19:22Z</time></trkpt><trkpt lat="42.03088271426452" lon="2.955677114011525"><ele>101.39999999999999</ele><time>2026-05-02T08:19:24Z</time></trkpt><trkpt lat="42.03086428460278" lon="2.9558227623518274"><ele>102.0</ele><time>2026-05-02T08:19:26Z</time></trkpt><trkpt lat="42.03082695086165" lon="2.9559626734165025"><ele>103.0</ele><time>2026-05-02T08:19:28Z</time></trkpt><trkpt lat="42.030799189240994" lon="2.9560905298138977"><ele>104.0</ele><time>2026-05-02T08:19:30Z</time></trkpt><trkpt lat="42.03076423417202" lon="2.9562187949492276"><ele>104.99999999999999</ele><time>2026-05-02T08:19:32Z</time></trkpt><trkpt lat="42.0307389962069" lon="2.956309473295838"><ele>106.0</ele><time>2026-05-02T08:19:34Z</time></trkpt><trkpt lat="42.03066208799492" lon="2.9563929636083914"><ele>107.0</ele><time>2026-05-02T08:19:37Z</time></trkpt><trkpt lat="42.030589330953006" lon="2.9563528065931646"><ele>107.0</ele><time>2026-05-02T08:19:38Z</time></trkpt><trkpt lat="42.030483667212714" lon="2.956407889773345"><ele>106.99999999999999</ele><time>2026-05-02T08:19:40Z</time></trkpt><trkpt lat="42.030368616422464" lon="2.956462007375216"><ele>106.99999999999999</ele><time>2026-05-02T08:19:42Z</time></trkpt><trkpt lat="42.03030393320802" lon="2.956491821848047"><ele>107.0</ele><time>2026-05-02T08:19:43Z</time></trkpt><trkpt lat="42.03023105133135" lon="2.9565213578128127"><ele>107.0</ele><time>2026-05-02T08:19:44Z</time></trkpt><trkpt lat="42.03015515129116" lon="2.956552680133653"><ele>106.99999999999999</ele><time>2026-05-02T08:19:45Z</time></trkpt><trkpt lat="42.03008729551577" lon="2.956580682760555"><ele>107.0</ele><time>2026-05-02T08:19:46Z</time></trkpt><trkpt lat="42.03000761442225" lon="2.956613565450327"><ele>107.0</ele><time>2026-05-02T08:19:47Z</time></trkpt><trkpt lat="42.02993301292643" lon="2.956646808915013"><ele>107.0</ele><time>2026-05-02T08:19:48Z</time></trkpt><trkpt lat="42.02985602708438" lon="2.956681712596976"><ele>106.99999999999999</ele><time>2026-05-02T08:19:49Z</time></trkpt><trkpt lat="42.02977332532751" lon="2.95671920760673"><ele>107.0</ele><time>2026-05-02T08:19:50Z</time></trkpt><trkpt lat="42.02969183506592" lon="2.956748820110302"><ele>104.6</ele><time>2026-05-02T08:19:51Z</time></trkpt><trkpt lat="42.0296026029422" lon="2.956776109301164"><ele>102.19999999999999</ele><time>2026-05-02T08:19:52Z</time></trkpt><trkpt lat="42.029517041753245" lon="2.956800775154642"><ele>99.8</ele><time>2026-05-02T08:19:53Z</time></trkpt><trkpt lat="42.02942577463238" lon="2.9568251146099405"><ele>97.4</ele><time>2026-05-02T08:19:54Z</time></trkpt><trkpt lat="42.02933431649413" lon="2.9568480361518095"><ele>95.0</ele><time>2026-05-02T08:19:55Z</time></trkpt><trkpt lat="42.02923793255352" lon="2.956870401991595"><ele>95.0</ele><time>2026-05-02T08:19:56Z</time></trkpt><trkpt lat="42.029150016217564" lon="2.956890471937148"><ele>95.0</ele><time>2026-05-02T08:19:57Z</time></trkpt><trkpt lat="42.029057351538036" lon="2.9569104516931493"><ele>95.0</ele><time>2026-05-02T08:19:58Z</time></trkpt><trkpt lat="42.02895875317578" lon="2.9569293394199683"><ele>95.0</ele><time>2026-05-02T08:19:59Z</time></trkpt><trkpt lat="42.02885456844954" lon="2.9569480258169905"><ele>95.0</ele><time>2026-05-02T08:20:00Z</time></trkpt><trkpt lat="42.02874867097719" lon="2.956966056600926"><ele>95.83333333333334</ele><time>2026-05-02T08:20:01Z</time></trkpt><trkpt lat="42.028646007932146" lon="2.9569777155485335"><ele>96.66666666666667</ele><time>2026-05-02T08:20:02Z</time></trkpt><trkpt lat="42.02855168895033" lon="2.9569700520614353"><ele>97.5</ele><time>2026-05-02T08:20:03Z</time></trkpt><trkpt lat="42.02846301131066" lon="2.9569671602078476"><ele>98.33333333333334</ele><time>2026-05-02T08:20:04Z</time></trkpt><trkpt lat="42.02839446895715" lon="2.9569863330556276"><ele>99.16666666666667</ele><time>2026-05-02T08:20:05Z</time></trkpt><trkpt lat="42.02831831885883" lon="2.957054345757872"><ele>100.0</ele><time>2026-05-02T08:20:06Z</time></trkpt><trkpt lat="42.028295351033925" lon="2.95720753761443"><ele>100.85714285714286</ele><time>2026-05-02T08:20:07Z</time></trkpt><trkpt lat="42.02826311874946" lon="2.957293713942433"><ele>101.71428571428572</ele><time>2026-05-02T08:20:08Z</time></trkpt><trkpt lat="42.02828080390898" lon="2.957399998735474"><ele>102.57142857142858</ele><time>2026-05-02T08:20:09Z</time></trkpt><trkpt lat="42.028290121766716" lon="2.957493811789618"><ele>103.42857142857143</ele><time>2026-05-02T08:20:10Z</time></trkpt><trkpt lat="42.02830382483135" lon="2.957581590109881"><ele>104.28571428571428</ele><time>2026-05-02T08:20:11Z</time></trkpt><trkpt lat="42.02831653830802" lon="2.9576672620936186"><ele>105.14285714285715</ele><time>2026-05-02T08:20:12Z</time></trkpt><trkpt lat="42.02831354675283" lon="2.9577583269206555"><ele>106.0</ele><time>2026-05-02T08:20:13Z</time></trkpt><trkpt lat="42.028263577507694" lon="2.957834921160064"><ele>106.00000000000001</ele><time>2026-05-02T08:20:14Z</time></trkpt><trkpt lat="42.028161890287095" lon="2.9579358572772194"><ele>106.0</ele><time>2026-05-02T08:20:16Z</time></trkpt><trkpt lat="42.02810716338937" lon="2.9579982827035556"><ele>106.0</ele><time>2026-05-02T08:20:17Z</time></trkpt><trkpt lat="42.02805392471894" lon="2.958050803331697"><ele>106.0</ele><time>2026-05-02T08:20:18Z</time></trkpt><trkpt lat="42.02799654851893" lon="2.958109619588462"><ele>106.00000000000001</ele><time>2026-05-02T08:20:19Z</time></trkpt><trkpt lat="42.02794099705077" lon="2.9581665652543188"><ele>106.0</ele><time>2026-05-02T08:20:19.999Z</time></trkpt><trkpt lat="42.027882934763305" lon="2.958231542661822"><ele>106.00000000000001</ele><time>2026-05-02T08:20:20.999Z</time></trkpt><trkpt lat="42.02782939092886" lon="2.9583022846694615"><ele>106.0</ele><time>2026-05-02T08:20:21.999Z</time></trkpt><trkpt lat="42.02777950720295" lon="2.95837195903732"><ele>106.0</ele><time>2026-05-02T08:20:22.999Z</time></trkpt><trkpt lat="42.02773288000268" lon="2.958437990089633"><ele>106.0</ele><time>2026-05-02T08:20:23.999Z</time></trkpt><trkpt lat="42.027658011954315" lon="2.9585361606969065"><ele>106.00000000000001</ele><time>2026-05-02T08:20:25.999Z</time></trkpt><trkpt lat="42.027595080718065" lon="2.9586082622292094"><ele>106.0</ele><time>2026-05-02T08:20:27.999Z</time></trkpt><trkpt lat="42.027652513467245" lon="2.958802282981399"><ele>104.57142857142857</ele><time>2026-05-02T08:20:30.999Z</time></trkpt><trkpt lat="42.027682870734616" lon="2.958881542088182"><ele>103.14285714285714</ele><time>2026-05-02T08:20:31.999Z</time></trkpt><trkpt lat="42.027730708856474" lon="2.9589546024501137"><ele>101.71428571428571</ele><time>2026-05-02T08:20:32.999Z</time></trkpt><trkpt lat="42.02777418472006" lon="2.959037307796751"><ele>100.28571428571428</ele><time>2026-05-02T08:20:33.999Z</time></trkpt><trkpt lat="42.02781531712532" lon="2.9591248988289895"><ele>98.85714285714286</ele><time>2026-05-02T08:20:34.999Z</time></trkpt><trkpt lat="42.02785161184439" lon="2.9592138913819004"><ele>97.42857142857142</ele><time>2026-05-02T08:20:35.999Z</time></trkpt><trkpt lat="42.027889123722126" lon="2.9593002530745105"><ele>96.0</ele><time>2026-05-02T08:20:36.999Z</time></trkpt><trkpt lat="42.027922850408515" lon="2.959381196455856"><ele>95.0</ele><time>2026-05-02T08:20:37.999Z</time></trkpt><trkpt lat="42.027966652109235" lon="2.959534851119415"><ele>94.0</ele><time>2026-05-02T08:20:39.999Z</time></trkpt><trkpt lat="42.02798421758342" lon="2.9596670430057093"><ele>93.0</ele><time>2026-05-02T08:20:41.999Z</time></trkpt><trkpt lat="42.02788026374966" lon="2.9597506915334404"><ele>92.0</ele><time>2026-05-02T08:20:42.999Z</time></trkpt><trkpt lat="42.027838710427496" lon="2.9598237537113"><ele>91.0</ele><time>2026-05-02T08:20:43.999Z</time></trkpt><trkpt lat="42.027784755408895" lon="2.9598701153696325"><ele>91.0</ele><time>2026-05-02T08:20:44.999Z</time></trkpt><trkpt lat="42.02772475396504" lon="2.959907615209389"><ele>91.0</ele><time>2026-05-02T08:20:45.999Z</time></trkpt><trkpt lat="42.0276591548838" lon="2.959950917641595"><ele>91.0</ele><time>2026-05-02T08:20:46.999Z</time></trkpt><trkpt lat="42.0275912387289" lon="2.9599957496870064"><ele>91.0</ele><time>2026-05-02T08:20:47.999Z</time></trkpt><trkpt lat="42.027524383722536" lon="2.960035388649485"><ele>91.0</ele><time>2026-05-02T08:20:48.999Z</time></trkpt><trkpt lat="42.02745887262587" lon="2.960074652985124"><ele>91.0</ele><time>2026-05-02T08:20:49.999Z</time></trkpt><trkpt lat="42.02739404405001" lon="2.960110941229641"><ele>91.0</ele><time>2026-05-02T08:20:50.999Z</time></trkpt><trkpt lat="42.02733022587571" lon="2.9601361473925243"><ele>90.33333333333333</ele><time>2026-05-02T08:20:51.999Z</time></trkpt><trkpt lat="42.02726685505588" lon="2.960142735609872"><ele>89.66666666666666</ele><time>2026-05-02T08:20:52.999Z</time></trkpt><trkpt lat="42.02719639868977" lon="2.960145653290632"><ele>89.0</ele><time>2026-05-02T08:20:53.999Z</time></trkpt><trkpt lat="42.02708549217574" lon="2.9601697303566805"><ele>88.33333333333333</ele><time>2026-05-02T08:20:55.999Z</time></trkpt><trkpt lat="42.02699618367119" lon="2.96023216043144"><ele>87.66666666666667</ele><time>2026-05-02T08:20:57.999Z</time></trkpt><trkpt lat="42.026965023097084" lon="2.9603098896561946"><ele>87.0</ele><time>2026-05-02T08:20:58.999Z</time></trkpt><trkpt lat="42.02698268416899" lon="2.960425611195531"><ele>87.0</ele><time>2026-05-02T08:20:59.999Z</time></trkpt><trkpt lat="42.026973063147125" lon="2.9605214463127383"><ele>87.0</ele><time>2026-05-02T08:21:00.999Z</time></trkpt><trkpt lat="42.02696284774147" lon="2.960624313713536"><ele>87.0</ele><time>2026-05-02T08:21:01.999Z</time></trkpt><trkpt lat="42.026947442316725" lon="2.9607305140201605"><ele>87.0</ele><time>2026-05-02T08:21:03Z</time></trkpt><trkpt lat="42.02693036474102" lon="2.960835158980697"><ele>87.0</ele><time>2026-05-02T08:21:04Z</time></trkpt><trkpt lat="42.02689664751523" lon="2.960935707537043"><ele>87.0</ele><time>2026-05-02T08:21:05Z</time></trkpt><trkpt lat="42.0268679805203" lon="2.9610402087417964"><ele>86.16666666666667</ele><time>2026-05-02T08:21:06Z</time></trkpt><trkpt lat="42.026836391511075" lon="2.961140795263572"><ele>85.33333333333333</ele><time>2026-05-02T08:21:07Z</time></trkpt><trkpt lat="42.02680037810184" lon="2.961243236143709"><ele>84.5</ele><time>2026-05-02T08:21:08Z</time></trkpt><trkpt lat="42.02676040849186" lon="2.9613446244663955"><ele>83.66666666666666</ele><time>2026-05-02T08:21:09Z</time></trkpt><trkpt lat="42.0267187270582" lon="2.961452260541777"><ele>82.83333333333333</ele><time>2026-05-02T08:21:10Z</time></trkpt><trkpt lat="42.02668036750315" lon="2.9615618136982644"><ele>82.0</ele><time>2026-05-02T08:21:11Z</time></trkpt><trkpt lat="42.026645044156886" lon="2.9616743425014644"><ele>82.19999999999999</ele><time>2026-05-02T08:21:12Z</time></trkpt><trkpt lat="42.026612460632535" lon="2.961790392335408"><ele>82.4</ele><time>2026-05-02T08:21:13Z</time></trkpt><trkpt lat="42.0265906468912" lon="2.961909272788651"><ele>82.6</ele><time>2026-05-02T08:21:14Z</time></trkpt><trkpt lat="42.026557909178614" lon="2.962019236407794"><ele>82.80000000000001</ele><time>2026-05-02T08:21:15Z</time></trkpt><trkpt lat="42.02651123107811" lon="2.9621265902682055"><ele>83.0</ele><time>2026-05-02T08:21:16Z</time></trkpt><trkpt lat="42.02647451120146" lon="2.962236248806389"><ele>83.0</ele><time>2026-05-02T08:21:17Z</time></trkpt><trkpt lat="42.026449095246" lon="2.962358077055151"><ele>83.0</ele><time>2026-05-02T08:21:18Z</time></trkpt><trkpt lat="42.026402314135446" lon="2.9624769902446118"><ele>83.0</ele><time>2026-05-02T08:21:19Z</time></trkpt><trkpt lat="42.0263546179935" lon="2.9625967077029647"><ele>83.0</ele><time>2026-05-02T08:21:20Z</time></trkpt><trkpt lat="42.026292571780445" lon="2.962699344534315"><ele>83.0</ele><time>2026-05-02T08:21:21Z</time></trkpt><trkpt lat="42.02624413404764" lon="2.9628102153644233"><ele>82.4</ele><time>2026-05-02T08:21:22Z</time></trkpt><trkpt lat="42.02620007931692" lon="2.962913683914847"><ele>81.80000000000001</ele><time>2026-05-02T08:21:23Z</time></trkpt><trkpt lat="42.02617089223593" lon="2.963029907365755"><ele>81.2</ele><time>2026-05-02T08:21:24Z</time></trkpt><trkpt lat="42.02611425649698" lon="2.9631307389802415"><ele>80.6</ele><time>2026-05-02T08:21:25Z</time></trkpt><trkpt lat="42.02607553304692" lon="2.963244341314049"><ele>80.0</ele><time>2026-05-02T08:21:26Z</time></trkpt><trkpt lat="42.02605451611818" lon="2.9633670801071337"><ele>79.4</ele><time>2026-05-02T08:21:27Z</time></trkpt><trkpt lat="42.02602006372087" lon="2.963478612471391"><ele>78.8</ele><time>2026-05-02T08:21:28Z</time></trkpt><trkpt lat="42.02598629558282" lon="2.963590885243773"><ele>78.2</ele><time>2026-05-02T08:21:29Z</time></trkpt><trkpt lat="42.0259563267893" lon="2.9637035925495323"><ele>77.6</ele><time>2026-05-02T08:21:30Z</time></trkpt><trkpt lat="42.025912722419825" lon="2.9637951774862357"><ele>77.0</ele><time>2026-05-02T08:21:31Z</time></trkpt><trkpt lat="42.02587092783719" lon="2.9639420851323575"><ele>77.0</ele><time>2026-05-02T08:21:33Z</time></trkpt><trkpt lat="42.02584473273348" lon="2.96403416056548"><ele>77.0</ele><time>2026-05-02T08:21:34Z</time></trkpt><trkpt lat="42.025813629762595" lon="2.964129409563338"><ele>77.0</ele><time>2026-05-02T08:21:35Z</time></trkpt><trkpt lat="42.02577137295686" lon="2.9642273439045312"><ele>77.0</ele><time>2026-05-02T08:21:36Z</time></trkpt><trkpt lat="42.0257278666016" lon="2.964332180226762"><ele>77.0</ele><time>2026-05-02T08:21:37Z</time></trkpt><trkpt lat="42.02569950264043" lon="2.9644491180243215"><ele>77.0</ele><time>2026-05-02T08:21:38Z</time></trkpt><trkpt lat="42.02566412013394" lon="2.964563121344494"><ele>76.2</ele><time>2026-05-02T08:21:39Z</time></trkpt><trkpt lat="42.0256356367167" lon="2.964682595194284"><ele>75.4</ele><time>2026-05-02T08:21:40Z</time></trkpt><trkpt lat="42.025619140622126" lon="2.9648040616377296"><ele>74.6</ele><time>2026-05-02T08:21:41Z</time></trkpt><trkpt lat="42.02560572801959" lon="2.9649288629239936"><ele>73.8</ele><time>2026-05-02T08:21:42Z</time></trkpt><trkpt lat="42.025592137973916" lon="2.9650564448811636"><ele>73.0</ele><time>2026-05-02T08:21:43Z</time></trkpt><trkpt lat="42.02558065914069" lon="2.9651802216152596"><ele>72.2</ele><time>2026-05-02T08:21:44Z</time></trkpt><trkpt lat="42.025570347141304" lon="2.9653039921344084"><ele>71.4</ele><time>2026-05-02T08:21:45Z</time></trkpt><trkpt lat="42.02556456321477" lon="2.9654467233610244"><ele>70.60000000000001</ele><time>2026-05-02T08:21:46Z</time></trkpt><trkpt lat="42.02556005687776" lon="2.9655717939530235"><ele>69.8</ele><time>2026-05-02T08:21:47Z</time></trkpt><trkpt lat="42.02556314098336" lon="2.965678444603186"><ele>69.0</ele><time>2026-05-02T08:21:48Z</time></trkpt><trkpt lat="42.02555194226877" lon="2.965786320225251"><ele>68.33333333333333</ele><time>2026-05-02T08:21:49Z</time></trkpt><trkpt lat="42.02549787247732" lon="2.9658842870385067"><ele>67.66666666666667</ele><time>2026-05-02T08:21:50Z</time></trkpt><trkpt lat="42.02546141427047" lon="2.965988194477504"><ele>67.0</ele><time>2026-05-02T08:21:51Z</time></trkpt><trkpt lat="42.02542449678991" lon="2.9660934111469213"><ele>66.33333333333334</ele><time>2026-05-02T08:21:52Z</time></trkpt><trkpt lat="42.02538694386287" lon="2.966202597818443"><ele>65.66666666666667</ele><time>2026-05-02T08:21:53Z</time></trkpt><trkpt lat="42.025368598361105" lon="2.9663222371385802"><ele>65.0</ele><time>2026-05-02T08:21:54Z</time></trkpt><trkpt lat="42.0253461969507" lon="2.9664365046107575"><ele>65.0</ele><time>2026-05-02T08:21:55Z</time></trkpt><trkpt lat="42.02532858727178" lon="2.9665585409470614"><ele>65.0</ele><time>2026-05-02T08:21:56Z</time></trkpt><trkpt lat="42.02532140446474" lon="2.9666827615509335"><ele>65.0</ele><time>2026-05-02T08:21:57Z</time></trkpt><trkpt lat="42.025309721621646" lon="2.9668080305202893"><ele>65.0</ele><time>2026-05-02T08:21:58Z</time></trkpt><trkpt lat="42.02527858269602" lon="2.966923645483598"><ele>65.0</ele><time>2026-05-02T08:21:59Z</time></trkpt><trkpt lat="42.025277655675346" lon="2.967046785080631"><ele>65.0</ele><time>2026-05-02T08:22:00Z</time></trkpt><trkpt lat="42.02525863729181" lon="2.9671617937191077"><ele>65.0</ele><time>2026-05-02T08:22:01Z</time></trkpt><trkpt lat="42.025244715758966" lon="2.967267968466939"><ele>65.0</ele><time>2026-05-02T08:22:02Z</time></trkpt><trkpt lat="42.025235879460205" lon="2.967370376039606"><ele>65.0</ele><time>2026-05-02T08:22:03Z</time></trkpt><trkpt lat="42.02523925537737" lon="2.9674723059482706"><ele>65.0</ele><time>2026-05-02T08:22:04Z</time></trkpt><trkpt lat="42.025258772919415" lon="2.967569432573258"><ele>65.0</ele><time>2026-05-02T08:22:05Z</time></trkpt><trkpt lat="42.02529356131569" lon="2.9676588995182343"><ele>65.00000000000001</ele><time>2026-05-02T08:22:06Z</time></trkpt><trkpt lat="42.02530905084246" lon="2.967759304680956"><ele>65.0</ele><time>2026-05-02T08:22:07Z</time></trkpt><trkpt lat="42.02533079087161" lon="2.967857140430347"><ele>65.0</ele><time>2026-05-02T08:22:08Z</time></trkpt><trkpt lat="42.025363502955514" lon="2.9679542020354415"><ele>65.0</ele><time>2026-05-02T08:22:09Z</time></trkpt><trkpt lat="42.025359433863585" lon="2.9680601086257177"><ele>65.0</ele><time>2026-05-02T08:22:10Z</time></trkpt><trkpt lat="42.025374269765166" lon="2.9681439160692773"><ele>65.00000000000001</ele><time>2026-05-02T08:22:11Z</time></trkpt><trkpt lat="42.02533661053806" lon="2.9682173834927092"><ele>65.0</ele><time>2026-05-02T08:22:12Z</time></trkpt><trkpt lat="42.02525088713126" lon="2.968339695036372"><ele>64.42857142857143</ele><time>2026-05-02T08:22:14Z</time></trkpt><trkpt lat="42.02520250128505" lon="2.9684051816440804"><ele>63.85714285714286</ele><time>2026-05-02T08:22:15Z</time></trkpt><trkpt lat="42.02515217260028" lon="2.968469851896484"><ele>63.285714285714285</ele><time>2026-05-02T08:22:16Z</time></trkpt><trkpt lat="42.02510071942226" lon="2.968534246407905"><ele>62.714285714285715</ele><time>2026-05-02T08:22:17Z</time></trkpt><trkpt lat="42.02504722712808" lon="2.968601192884372"><ele>62.14285714285714</ele><time>2026-05-02T08:22:18Z</time></trkpt><trkpt lat="42.02499377708237" lon="2.968668086482323"><ele>61.57142857142856</ele><time>2026-05-02T08:22:19Z</time></trkpt><trkpt lat="42.02493893081532" lon="2.96873840764685"><ele>60.99999999999999</ele><time>2026-05-02T08:22:20Z</time></trkpt><trkpt lat="42.024886396232986" lon="2.968809204741979"><ele>62.14285714285714</ele><time>2026-05-02T08:22:21Z</time></trkpt><trkpt lat="42.02483317464835" lon="2.9688808367138044"><ele>63.285714285714285</ele><time>2026-05-02T08:22:22Z</time></trkpt><trkpt lat="42.024780353352966" lon="2.9689525807587858"><ele>64.42857142857143</ele><time>2026-05-02T08:22:23Z</time></trkpt><trkpt lat="42.024728025855445" lon="2.9690246733670738"><ele>65.57142857142857</ele><time>2026-05-02T08:22:24Z</time></trkpt><trkpt lat="42.02467479446093" lon="2.9690959506168517"><ele>66.71428571428572</ele><time>2026-05-02T08:22:25Z</time></trkpt><trkpt lat="42.024625466299725" lon="2.9691675375873734"><ele>67.85714285714286</ele><time>2026-05-02T08:22:26Z</time></trkpt><trkpt lat="42.02458812431254" lon="2.969239721126762"><ele>69.0</ele><time>2026-05-02T08:22:27Z</time></trkpt><trkpt lat="42.02457947217913" lon="2.9693260102700347"><ele>69.0</ele><time>2026-05-02T08:22:28Z</time></trkpt><trkpt lat="42.02460457291459" lon="2.969419911437273"><ele>69.0</ele><time>2026-05-02T08:22:29Z</time></trkpt><trkpt lat="42.024619398135485" lon="2.969587467712162"><ele>69.0</ele><time>2026-05-02T08:22:31Z</time></trkpt><trkpt lat="42.024614057071965" lon="2.9696784764399067"><ele>69.0</ele><time>2026-05-02T08:22:32Z</time></trkpt><trkpt lat="42.024622013303784" lon="2.9697680443095194"><ele>69.0</ele><time>2026-05-02T08:22:33Z</time></trkpt><trkpt lat="42.02464439743499" lon="2.9698481434626243"><ele>69.0</ele><time>2026-05-02T08:22:34Z</time></trkpt><trkpt lat="42.024712893449504" lon="2.9699907828421948"><ele>68.5</ele><time>2026-05-02T08:22:35.999Z</time></trkpt><trkpt lat="42.0247795244023" lon="2.97013325492344"><ele>68.0</ele><time>2026-05-02T08:22:37.999Z</time></trkpt><trkpt lat="42.02481381962819" lon="2.97022275433117"><ele>67.5</ele><time>2026-05-02T08:22:38.999Z</time></trkpt><trkpt lat="42.02484840488737" lon="2.97031763807104"><ele>67.0</ele><time>2026-05-02T08:22:39.999Z</time></trkpt><trkpt lat="42.02487849618548" lon="2.9704078655348085"><ele>66.5</ele><time>2026-05-02T08:22:40.999Z</time></trkpt><trkpt lat="42.02491204066566" lon="2.970498862212383"><ele>66.0</ele><time>2026-05-02T08:22:41.999Z</time></trkpt><trkpt lat="42.02494383325198" lon="2.970588519867823"><ele>66.0</ele><time>2026-05-02T08:22:42.999Z</time></trkpt><trkpt lat="42.02497254642433" lon="2.9706802697898214"><ele>66.0</ele><time>2026-05-02T08:22:43.999Z</time></trkpt><trkpt lat="42.02499899752237" lon="2.970771670047549"><ele>66.0</ele><time>2026-05-02T08:22:44.999Z</time></trkpt><trkpt lat="42.02502963392079" lon="2.9708618666373727"><ele>66.0</ele><time>2026-05-02T08:22:45.999Z</time></trkpt><trkpt lat="42.025058099748776" lon="2.970949498221414"><ele>66.0</ele><time>2026-05-02T08:22:46.999Z</time></trkpt><trkpt lat="42.025083507872374" lon="2.971032662090409"><ele>66.0</ele><time>2026-05-02T08:22:47.999Z</time></trkpt><trkpt lat="42.02512519292958" lon="2.971174917689125"><ele>66.5</ele><time>2026-05-02T08:22:49.999Z</time></trkpt><trkpt lat="42.0251604579333" lon="2.971303367876702"><ele>67.0</ele><time>2026-05-02T08:22:51.999Z</time></trkpt><trkpt lat="42.02534643694434" lon="2.971245015015101"><ele>67.5</ele><time>2026-05-02T08:22:56.999Z</time></trkpt><trkpt lat="42.02545106206179" lon="2.971151952863536"><ele>68.0</ele><time>2026-05-02T08:22:58.999Z</time></trkpt><trkpt lat="42.02550719082499" lon="2.971099963037304"><ele>67.99999999999999</ele><time>2026-05-02T08:22:59.999Z</time></trkpt><trkpt lat="42.025567803586604" lon="2.9710470007031624"><ele>68.0</ele><time>2026-05-02T08:23:00.999Z</time></trkpt><trkpt lat="42.02562895255356" lon="2.97100107803352"><ele>68.0</ele><time>2026-05-02T08:23:01.999Z</time></trkpt><trkpt lat="42.025691289654254" lon="2.970953574049651"><ele>68.0</ele><time>2026-05-02T08:23:02.999Z</time></trkpt><trkpt lat="42.025756072715375" lon="2.9709054350936848"><ele>68.0</ele><time>2026-05-02T08:23:03.999Z</time></trkpt><trkpt lat="42.025825201049045" lon="2.970859489638222"><ele>67.99999999999999</ele><time>2026-05-02T08:23:04.999Z</time></trkpt><trkpt lat="42.02589306669536" lon="2.9708128081791334"><ele>68.0</ele><time>2026-05-02T08:23:05.999Z</time></trkpt><trkpt lat="42.02596417012684" lon="2.97076734881797"><ele>68.0</ele><time>2026-05-02T08:23:06.999Z</time></trkpt><trkpt lat="42.02603711714325" lon="2.9707243846317346"><ele>68.0</ele><time>2026-05-02T08:23:07.999Z</time></trkpt><trkpt lat="42.02611363677241" lon="2.970683015325801"><ele>68.0</ele><time>2026-05-02T08:23:09Z</time></trkpt><trkpt lat="42.0261885813747" lon="2.970637316683142"><ele>68.0</ele><time>2026-05-02T08:23:10Z</time></trkpt><trkpt lat="42.02626669209682" lon="2.9705916725680925"><ele>68.0</ele><time>2026-05-02T08:23:11Z</time></trkpt><trkpt lat="42.02634482641" lon="2.9705463802623977"><ele>68.0</ele><time>2026-05-02T08:23:12Z</time></trkpt><trkpt lat="42.02642449106475" lon="2.970499107553053"><ele>68.0</ele><time>2026-05-02T08:23:13Z</time></trkpt><trkpt lat="42.02650658590245" lon="2.9704571453918196"><ele>68.0</ele><time>2026-05-02T08:23:14Z</time></trkpt><trkpt lat="42.026586641409075" lon="2.9704151419305265"><ele>68.0</ele><time>2026-05-02T08:23:15Z</time></trkpt><trkpt lat="42.026667457785614" lon="2.9703853202839743"><ele>68.0</ele><time>2026-05-02T08:23:16Z</time></trkpt><trkpt lat="42.026747884742306" lon="2.970359395186669"><ele>68.0</ele><time>2026-05-02T08:23:17Z</time></trkpt><trkpt lat="42.026831960062246" lon="2.9703345621546218"><ele>68.0</ele><time>2026-05-02T08:23:18Z</time></trkpt><trkpt lat="42.02691709006887" lon="2.97031219895753"><ele>68.66666666666667</ele><time>2026-05-02T08:23:19Z</time></trkpt><trkpt lat="42.02700308206952" lon="2.9702956381953536"><ele>69.33333333333334</ele><time>2026-05-02T08:23:20Z</time></trkpt><trkpt lat="42.02708846579474" lon="2.9702813380045403"><ele>70.0</ele><time>2026-05-02T08:23:21Z</time></trkpt><trkpt lat="42.0271729674339" lon="2.970266103546682"><ele>70.66666666666667</ele><time>2026-05-02T08:23:22Z</time></trkpt><trkpt lat="42.027257860352854" lon="2.9702461789619896"><ele>71.33333333333333</ele><time>2026-05-02T08:23:23Z</time></trkpt><trkpt lat="42.02733577451004" lon="2.9702197014603424"><ele>72.0</ele><time>2026-05-02T08:23:24Z</time></trkpt><trkpt lat="42.02741160144301" lon="2.970193115321708"><ele>71.83333333333333</ele><time>2026-05-02T08:23:25Z</time></trkpt><trkpt lat="42.02748539417352" lon="2.9701466385204154"><ele>71.66666666666667</ele><time>2026-05-02T08:23:26Z</time></trkpt><trkpt lat="42.02756378675942" lon="2.970113194075279"><ele>71.5</ele><time>2026-05-02T08:23:27Z</time></trkpt><trkpt lat="42.02763061545245" lon="2.970043636052281"><ele>71.33333333333334</ele><time>2026-05-02T08:23:28Z</time></trkpt><trkpt lat="42.027706428868115" lon="2.969994712527004"><ele>71.16666666666667</ele><time>2026-05-02T08:23:29Z</time></trkpt><trkpt lat="42.027781205616385" lon="2.9699450060329213"><ele>71.0</ele><time>2026-05-02T08:23:30Z</time></trkpt><trkpt lat="42.02785282065637" lon="2.969900191638462"><ele>70.5</ele><time>2026-05-02T08:23:31Z</time></trkpt><trkpt lat="42.02792548557525" lon="2.9698568606570857"><ele>70.0</ele><time>2026-05-02T08:23:32Z</time></trkpt><trkpt lat="42.0279965397709" lon="2.969828015946234"><ele>69.5</ele><time>2026-05-02T08:23:33Z</time></trkpt><trkpt lat="42.028077006862276" lon="2.969830814023802"><ele>69.0</ele><time>2026-05-02T08:23:34Z</time></trkpt><trkpt lat="42.028154573432325" lon="2.9698405581575975"><ele>68.5</ele><time>2026-05-02T08:23:35Z</time></trkpt><trkpt lat="42.02823884920082" lon="2.9698512991738992"><ele>68.0</ele><time>2026-05-02T08:23:36Z</time></trkpt><trkpt lat="42.02832061148084" lon="2.969851591001023"><ele>68.0</ele><time>2026-05-02T08:23:37Z</time></trkpt><trkpt lat="42.02840338485246" lon="2.9698396214974823"><ele>68.0</ele><time>2026-05-02T08:23:38Z</time></trkpt><trkpt lat="42.028483407337134" lon="2.969825921106737"><ele>68.0</ele><time>2026-05-02T08:23:39Z</time></trkpt><trkpt lat="42.02856633350992" lon="2.969810113423604"><ele>68.0</ele><time>2026-05-02T08:23:40Z</time></trkpt><trkpt lat="42.02864748938154" lon="2.9697919399537382"><ele>68.0</ele><time>2026-05-02T08:23:41Z</time></trkpt><trkpt lat="42.02872875981879" lon="2.9697731949594464"><ele>68.0</ele><time>2026-05-02T08:23:42Z</time></trkpt><trkpt lat="42.02881115129678" lon="2.9697584147631604"><ele>68.0</ele><time>2026-05-02T08:23:43Z</time></trkpt><trkpt lat="42.02889168777446" lon="2.969738823609954"><ele>68.0</ele><time>2026-05-02T08:23:44Z</time></trkpt><trkpt lat="42.0289704904028" lon="2.969721014253443"><ele>68.0</ele><time>2026-05-02T08:23:45Z</time></trkpt><trkpt lat="42.02905161869668" lon="2.969699674050698"><ele>68.0</ele><time>2026-05-02T08:23:46Z</time></trkpt><trkpt lat="42.02912845501316" lon="2.96968148828411"><ele>68.0</ele><time>2026-05-02T08:23:47Z</time></trkpt><trkpt lat="42.02920936197735" lon="2.969669491166569"><ele>68.0</ele><time>2026-05-02T08:23:48Z</time></trkpt><trkpt lat="42.029288758185935" lon="2.969657822556856"><ele>68.33333333333334</ele><time>2026-05-02T08:23:49Z</time></trkpt><trkpt lat="42.02936490330447" lon="2.9696443617990966"><ele>68.66666666666667</ele><time>2026-05-02T08:23:50Z</time></trkpt><trkpt lat="42.02944296925425" lon="2.9696303226309975"><ele>69.0</ele><time>2026-05-02T08:23:51Z</time></trkpt><trkpt lat="42.02952105986622" lon="2.9696183759431114"><ele>69.33333333333333</ele><time>2026-05-02T08:23:52Z</time></trkpt><trkpt lat="42.02960027177906" lon="2.9696113348574658"><ele>69.66666666666666</ele><time>2026-05-02T08:23:53Z</time></trkpt><trkpt lat="42.029674861304755" lon="2.969594705734925"><ele>70.0</ele><time>2026-05-02T08:23:54Z</time></trkpt><trkpt lat="42.0297491897299" lon="2.969585166515708"><ele>70.0</ele><time>2026-05-02T08:23:55Z</time></trkpt><trkpt lat="42.02982350056316" lon="2.9695674400324132"><ele>70.0</ele><time>2026-05-02T08:23:56Z</time></trkpt><trkpt lat="42.029897037699605" lon="2.9695374079225507"><ele>70.0</ele><time>2026-05-02T08:23:57Z</time></trkpt><trkpt lat="42.02996643768681" lon="2.969493317065512"><ele>70.0</ele><time>2026-05-02T08:23:58Z</time></trkpt><trkpt lat="42.03003475719154" lon="2.969441544273727"><ele>70.0</ele><time>2026-05-02T08:23:59Z</time></trkpt><trkpt lat="42.03009504509921" lon="2.9693838759186293"><ele>70.0</ele><time>2026-05-02T08:24:00Z</time></trkpt><trkpt lat="42.03015440407418" lon="2.9693193941481506"><ele>70.28571428571429</ele><time>2026-05-02T08:24:01Z</time></trkpt><trkpt lat="42.030207398714495" lon="2.9692528581982267"><ele>70.57142857142857</ele><time>2026-05-02T08:24:02Z</time></trkpt><trkpt lat="42.03026844394503" lon="2.9691978713676996"><ele>70.85714285714286</ele><time>2026-05-02T08:24:03Z</time></trkpt><trkpt lat="42.030329850526456" lon="2.969147886537083"><ele>71.14285714285714</ele><time>2026-05-02T08:24:04Z</time></trkpt><trkpt lat="42.030392925204524" lon="2.9690967833064272"><ele>71.42857142857143</ele><time>2026-05-02T08:24:05Z</time></trkpt><trkpt lat="42.03045853530514" lon="2.9690455296453617"><ele>71.71428571428572</ele><time>2026-05-02T08:24:06Z</time></trkpt><trkpt lat="42.03052772451761" lon="2.9689977127706344"><ele>72.0</ele><time>2026-05-02T08:24:07Z</time></trkpt><trkpt lat="42.030596633586384" lon="2.9689486448846125"><ele>71.83333333333333</ele><time>2026-05-02T08:24:08Z</time></trkpt><trkpt lat="42.03067131384629" lon="2.9688986677023546"><ele>71.66666666666667</ele><time>2026-05-02T08:24:09Z</time></trkpt><trkpt lat="42.0307466115116" lon="2.968841533262099"><ele>71.5</ele><time>2026-05-02T08:24:10Z</time></trkpt><trkpt lat="42.03082412787557" lon="2.9687822062464435"><ele>71.33333333333334</ele><time>2026-05-02T08:24:11Z</time></trkpt><trkpt lat="42.03090493796504" lon="2.9687244658149976"><ele>71.16666666666667</ele><time>2026-05-02T08:24:12Z</time></trkpt><trkpt lat="42.0309896804983" lon="2.968662697360539"><ele>71.0</ele><time>2026-05-02T08:24:13Z</time></trkpt><trkpt lat="42.031075973337856" lon="2.9686032439903958"><ele>71.0</ele><time>2026-05-02T08:24:14Z</time></trkpt><trkpt lat="42.03116303115075" lon="2.9685449891057107"><ele>71.0</ele><time>2026-05-02T08:24:15Z</time></trkpt><trkpt lat="42.031248385507986" lon="2.96848526062335"><ele>71.0</ele><time>2026-05-02T08:24:16Z</time></trkpt><trkpt lat="42.03133713573373" lon="2.968429304871661"><ele>71.0</ele><time>2026-05-02T08:24:17Z</time></trkpt><trkpt lat="42.03142960351221" lon="2.9683788225036243"><ele>71.0</ele><time>2026-05-02T08:24:18Z</time></trkpt><trkpt lat="42.03151939438909" lon="2.9683258781520707"><ele>70.2</ele><time>2026-05-02T08:24:19Z</time></trkpt><trkpt lat="42.03161303234341" lon="2.9682752837790227"><ele>69.39999999999999</ele><time>2026-05-02T08:24:20Z</time></trkpt><trkpt lat="42.031706563719524" lon="2.968219799629242"><ele>68.6</ele><time>2026-05-02T08:24:21Z</time></trkpt><trkpt lat="42.03180028648291" lon="2.968163290306898"><ele>67.8</ele><time>2026-05-02T08:24:22Z</time></trkpt><trkpt lat="42.03189230692351" lon="2.9681061383376255"><ele>67.0</ele><time>2026-05-02T08:24:23Z</time></trkpt><trkpt lat="42.031980971504055" lon="2.968037298871015"><ele>67.0</ele><time>2026-05-02T08:24:24Z</time></trkpt><trkpt lat="42.032069115108804" lon="2.967972934586701"><ele>67.0</ele><time>2026-05-02T08:24:25Z</time></trkpt><trkpt lat="42.032154539257064" lon="2.9679020024937164"><ele>67.0</ele><time>2026-05-02T08:24:26Z</time></trkpt><trkpt lat="42.03224247548768" lon="2.967842047875427"><ele>67.0</ele><time>2026-05-02T08:24:27Z</time></trkpt><trkpt lat="42.03232641721977" lon="2.9677805211784194"><ele>67.0</ele><time>2026-05-02T08:24:28Z</time></trkpt><trkpt lat="42.03241716910591" lon="2.9677127573558786"><ele>67.4</ele><time>2026-05-02T08:24:29Z</time></trkpt><trkpt lat="42.032505249645915" lon="2.967640541120802"><ele>67.80000000000001</ele><time>2026-05-02T08:24:30Z</time></trkpt><trkpt lat="42.03258937611596" lon="2.967567712357953"><ele>68.2</ele><time>2026-05-02T08:24:31Z</time></trkpt><trkpt lat="42.0326725131091" lon="2.9674913567728347"><ele>68.60000000000001</ele><time>2026-05-02T08:24:32Z</time></trkpt><trkpt lat="42.032762169734" lon="2.967429235503294"><ele>69.0</ele><time>2026-05-02T08:24:33Z</time></trkpt><trkpt lat="42.03284362379961" lon="2.9673563648515144"><ele>67.2</ele><time>2026-05-02T08:24:34Z</time></trkpt><trkpt lat="42.03292616844886" lon="2.9672907615352537"><ele>65.4</ele><time>2026-05-02T08:24:35Z</time></trkpt><trkpt lat="42.03301403621328" lon="2.967226924884321"><ele>63.6</ele><time>2026-05-02T08:24:36Z</time></trkpt><trkpt lat="42.033104966745555" lon="2.967174164856209"><ele>61.8</ele><time>2026-05-02T08:24:37Z</time></trkpt><trkpt lat="42.033197397402624" lon="2.9671234580345605"><ele>60.0</ele><time>2026-05-02T08:24:38Z</time></trkpt><trkpt lat="42.03327922715294" lon="2.967047054056862"><ele>60.8</ele><time>2026-05-02T08:24:39Z</time></trkpt><trkpt lat="42.03336638894068" lon="2.966997275040116"><ele>61.6</ele><time>2026-05-02T08:24:40Z</time></trkpt><trkpt lat="42.03345138354266" lon="2.9669456498228297"><ele>62.400000000000006</ele><time>2026-05-02T08:24:41Z</time></trkpt><trkpt lat="42.03353998641406" lon="2.966886632999351"><ele>63.2</ele><time>2026-05-02T08:24:42Z</time></trkpt><trkpt lat="42.03362917380998" lon="2.9668273765349396"><ele>64.0</ele><time>2026-05-02T08:24:43Z</time></trkpt><trkpt lat="42.033724805897315" lon="2.9667854082413747"><ele>64.0</ele><time>2026-05-02T08:24:44Z</time></trkpt><trkpt lat="42.033814478589676" lon="2.966717313706166"><ele>64.0</ele><time>2026-05-02T08:24:45Z</time></trkpt><trkpt lat="42.033900832548255" lon="2.9666410907531224"><ele>64.0</ele><time>2026-05-02T08:24:46Z</time></trkpt><trkpt lat="42.033985419069346" lon="2.966559249716857"><ele>64.0</ele><time>2026-05-02T08:24:47Z</time></trkpt><trkpt lat="42.034061831862275" lon="2.9664623063139826"><ele>64.0</ele><time>2026-05-02T08:24:48Z</time></trkpt><trkpt lat="42.034147062211076" lon="2.966384368199829"><ele>62.800000000000004</ele><time>2026-05-02T08:24:48.999Z</time></trkpt><trkpt lat="42.03423485607426" lon="2.9663025310368227"><ele>61.60000000000001</ele><time>2026-05-02T08:24:49.999Z</time></trkpt><trkpt lat="42.034322042267" lon="2.9662213676268627"><ele>60.4</ele><time>2026-05-02T08:24:50.999Z</time></trkpt><trkpt lat="42.03441296385117" lon="2.9661393527840443"><ele>59.2</ele><time>2026-05-02T08:24:51.999Z</time></trkpt><trkpt lat="42.03450175988934" lon="2.9660558665104544"><ele>58.0</ele><time>2026-05-02T08:24:52.999Z</time></trkpt><trkpt lat="42.034585583674804" lon="2.965975418497546"><ele>58.0</ele><time>2026-05-02T08:24:53.999Z</time></trkpt><trkpt lat="42.03466798306767" lon="2.965895080433071"><ele>58.0</ele><time>2026-05-02T08:24:54.999Z</time></trkpt><trkpt lat="42.034748196967286" lon="2.9658184889021055"><ele>58.0</ele><time>2026-05-02T08:24:55.999Z</time></trkpt><trkpt lat="42.034826926649984" lon="2.965745188265235"><ele>58.0</ele><time>2026-05-02T08:24:56.999Z</time></trkpt><trkpt lat="42.03490314197271" lon="2.96567608220621"><ele>58.0</ele><time>2026-05-02T08:24:57.999Z</time></trkpt><trkpt lat="42.03496129948434" lon="2.9656252744092564"><ele>57.83333333333333</ele><time>2026-05-02T08:24:58.999Z</time></trkpt><trkpt lat="42.035048437397485" lon="2.9655642660652455"><ele>57.666666666666664</ele><time>2026-05-02T08:25:00.999Z</time></trkpt><trkpt lat="42.03514323848162" lon="2.965472537485956"><ele>57.5</ele><time>2026-05-02T08:25:02.999Z</time></trkpt><trkpt lat="42.035199882748735" lon="2.965416306100815"><ele>57.33333333333333</ele><time>2026-05-02T08:25:03.999Z</time></trkpt><trkpt lat="42.03524726736029" lon="2.9653416152687098"><ele>57.166666666666664</ele><time>2026-05-02T08:25:04.999Z</time></trkpt><trkpt lat="42.03530705462564" lon="2.965280095975776"><ele>57.0</ele><time>2026-05-02T08:25:05.999Z</time></trkpt><trkpt lat="42.03537366109557" lon="2.9652166698666944"><ele>57.0</ele><time>2026-05-02T08:25:06.999Z</time></trkpt><trkpt lat="42.035440807420535" lon="2.965157799912418"><ele>57.0</ele><time>2026-05-02T08:25:07.999Z</time></trkpt><trkpt lat="42.03550482259288" lon="2.965098025922835"><ele>57.0</ele><time>2026-05-02T08:25:08.999Z</time></trkpt><trkpt lat="42.0355714610871" lon="2.9650347324905826"><ele>57.0</ele><time>2026-05-02T08:25:09.999Z</time></trkpt><trkpt lat="42.03564465641279" lon="2.96497367237489"><ele>57.0</ele><time>2026-05-02T08:25:10.999Z</time></trkpt><trkpt lat="42.0357199666709" lon="2.964921968549577"><ele>57.0</ele><time>2026-05-02T08:25:11.999Z</time></trkpt><trkpt lat="42.03579887155646" lon="2.9648696310529914"><ele>57.0</ele><time>2026-05-02T08:25:12.999Z</time></trkpt><trkpt lat="42.035879336084925" lon="2.964820242811239"><ele>57.0</ele><time>2026-05-02T08:25:13.999Z</time></trkpt><trkpt lat="42.03596273651129" lon="2.964772648633215"><ele>57.0</ele><time>2026-05-02T08:25:15Z</time></trkpt><trkpt lat="42.03604992662601" lon="2.9647347094436136"><ele>57.0</ele><time>2026-05-02T08:25:16Z</time></trkpt><trkpt lat="42.03613430384157" lon="2.9646989132611226"><ele>57.0</ele><time>2026-05-02T08:25:17Z</time></trkpt><trkpt lat="42.036216325314264" lon="2.9646605086300744"><ele>57.0</ele><time>2026-05-02T08:25:18Z</time></trkpt><trkpt lat="42.03630477778959" lon="2.9646379234470275"><ele>57.0</ele><time>2026-05-02T08:25:19Z</time></trkpt><trkpt lat="42.03638610576451" lon="2.964590952245752"><ele>57.0</ele><time>2026-05-02T08:25:20Z</time></trkpt><trkpt lat="42.03646754232952" lon="2.96452571529568"><ele>57.0</ele><time>2026-05-02T08:25:21Z</time></trkpt><trkpt lat="42.03654350970748" lon="2.964445908356348"><ele>57.0</ele><time>2026-05-02T08:25:22Z</time></trkpt><trkpt lat="42.03662251533698" lon="2.964383701047843"><ele>57.0</ele><time>2026-05-02T08:25:23Z</time></trkpt><trkpt lat="42.036698452302005" lon="2.9643060808799166"><ele>57.0</ele><time>2026-05-02T08:25:24Z</time></trkpt><trkpt lat="42.03677785701877" lon="2.964230476976295"><ele>57.0</ele><time>2026-05-02T08:25:25Z</time></trkpt><trkpt lat="42.03686626260924" lon="2.964150545738334"><ele>57.0</ele><time>2026-05-02T08:25:26Z</time></trkpt><trkpt lat="42.03695102277438" lon="2.9640692661027415"><ele>57.0</ele><time>2026-05-02T08:25:27Z</time></trkpt><trkpt lat="42.037033251113506" lon="2.9639827642770045"><ele>57.0</ele><time>2026-05-02T08:25:28Z</time></trkpt><trkpt lat="42.0371253442911" lon="2.9639235618831496"><ele>57.0</ele><time>2026-05-02T08:25:29Z</time></trkpt><trkpt lat="42.03719671011932" lon="2.96383003366979"><ele>57.0</ele><time>2026-05-02T08:25:30Z</time></trkpt><trkpt lat="42.03728095491389" lon="2.9637625098969433"><ele>57.0</ele><time>2026-05-02T08:25:31Z</time></trkpt><trkpt lat="42.03736383205884" lon="2.9637002638759404"><ele>57.0</ele><time>2026-05-02T08:25:32Z</time></trkpt><trkpt lat="42.03744779359191" lon="2.9636551752362084"><ele>57.0</ele><time>2026-05-02T08:25:33Z</time></trkpt><trkpt lat="42.03753005003184" lon="2.963628193411524"><ele>56.8</ele><time>2026-05-02T08:25:34Z</time></trkpt><trkpt lat="42.037611299123874" lon="2.9636160469253734"><ele>56.6</ele><time>2026-05-02T08:25:35Z</time></trkpt><trkpt lat="42.03776899012939" lon="2.9635937001253434"><ele>56.39999999999999</ele><time>2026-05-02T08:25:37Z</time></trkpt><trkpt lat="42.037847221855934" lon="2.9635551428158924"><ele>56.199999999999996</ele><time>2026-05-02T08:25:38Z</time></trkpt><trkpt lat="42.037930635069415" lon="2.9635043350197807"><ele>56.0</ele><time>2026-05-02T08:25:39Z</time></trkpt><trkpt lat="42.03801484215363" lon="2.963461343950064"><ele>56.00000000000001</ele><time>2026-05-02T08:25:40Z</time></trkpt><trkpt lat="42.03809098611696" lon="2.9634185067596075"><ele>56.0</ele><time>2026-05-02T08:25:41Z</time></trkpt><trkpt lat="42.03816832731897" lon="2.963386367185603"><ele>56.0</ele><time>2026-05-02T08:25:42Z</time></trkpt><trkpt lat="42.03824630949128" lon="2.9633702697277418"><ele>56.0</ele><time>2026-05-02T08:25:43Z</time></trkpt><trkpt lat="42.03832757519969" lon="2.9633607916033284"><ele>56.00000000000001</ele><time>2026-05-02T08:25:44Z</time></trkpt><trkpt lat="42.0384077099726" lon="2.963339420496613"><ele>56.0</ele><time>2026-05-02T08:25:45Z</time></trkpt><trkpt lat="42.0384875772543" lon="2.963316687618237"><ele>55.00000000000001</ele><time>2026-05-02T08:25:46Z</time></trkpt><trkpt lat="42.038563245790925" lon="2.9632866920976455"><ele>54.0</ele><time>2026-05-02T08:25:47Z</time></trkpt><trkpt lat="42.03864532913127" lon="2.9632579037006113"><ele>53.0</ele><time>2026-05-02T08:25:48Z</time></trkpt><trkpt lat="42.03872970054102" lon="2.963225910318125"><ele>52.0</ele><time>2026-05-02T08:25:49Z</time></trkpt><trkpt lat="42.0388133729251" lon="2.9632006429137574"><ele>51.00000000000001</ele><time>2026-05-02T08:25:50Z</time></trkpt><trkpt lat="42.0388983075051" lon="2.9631755709156056"><ele>50.0</ele><time>2026-05-02T08:25:51Z</time></trkpt><trkpt lat="42.03898158088287" lon="2.9631555164635066"><ele>50.00000000000001</ele><time>2026-05-02T08:25:52Z</time></trkpt><trkpt lat="42.03906189080561" lon="2.9631417279513337"><ele>50.0</ele><time>2026-05-02T08:25:53Z</time></trkpt><trkpt lat="42.03914973124471" lon="2.9631931176122994"><ele>50.0</ele><time>2026-05-02T08:25:54Z</time></trkpt><trkpt lat="42.03923257073086" lon="2.9631858558434563"><ele>50.0</ele><time>2026-05-02T08:25:55Z</time></trkpt><trkpt lat="42.039319812280226" lon="2.963166658668944"><ele>50.00000000000001</ele><time>2026-05-02T08:25:56Z</time></trkpt><trkpt lat="42.03940489064059" lon="2.963129269444202"><ele>50.0</ele><time>2026-05-02T08:25:57Z</time></trkpt><trkpt lat="42.03947968189039" lon="2.963091343435909"><ele>50.66666666666667</ele><time>2026-05-02T08:25:58Z</time></trkpt><trkpt lat="42.03954785085546" lon="2.963039191515503"><ele>51.333333333333336</ele><time>2026-05-02T08:25:59Z</time></trkpt><trkpt lat="42.03961811608254" lon="2.9630033257845065"><ele>52.0</ele><time>2026-05-02T08:26:00Z</time></trkpt><trkpt lat="42.03969090632566" lon="2.9629525773359857"><ele>52.66666666666667</ele><time>2026-05-02T08:26:01Z</time></trkpt><trkpt lat="42.0397668973265" lon="2.9629140070123046"><ele>53.333333333333336</ele><time>2026-05-02T08:26:02Z</time></trkpt><trkpt lat="42.039841173816605" lon="2.9628631165443644"><ele>54.0</ele><time>2026-05-02T08:26:03Z</time></trkpt><trkpt lat="42.03992336890293" lon="2.962814717770783"><ele>54.5</ele><time>2026-05-02T08:26:04Z</time></trkpt><trkpt lat="42.040009517728336" lon="2.9627835820248283"><ele>55.0</ele><time>2026-05-02T08:26:05Z</time></trkpt><trkpt lat="42.04009192019165" lon="2.9627453233751653"><ele>55.5</ele><time>2026-05-02T08:26:06Z</time></trkpt><trkpt lat="42.04017734251718" lon="2.962719047956206"><ele>56.0</ele><time>2026-05-02T08:26:07Z</time></trkpt><trkpt lat="42.04026286388311" lon="2.962693466273217"><ele>56.5</ele><time>2026-05-02T08:26:08Z</time></trkpt><trkpt lat="42.04034908943271" lon="2.9626694165717846"><ele>57.0</ele><time>2026-05-02T08:26:09Z</time></trkpt><trkpt lat="42.04043336483232" lon="2.962638489116295"><ele>57.0</ele><time>2026-05-02T08:26:10Z</time></trkpt><trkpt lat="42.04051458714675" lon="2.9626071037402077"><ele>57.0</ele><time>2026-05-02T08:26:11Z</time></trkpt><trkpt lat="42.040593529971275" lon="2.9625912311918756"><ele>57.0</ele><time>2026-05-02T08:26:12Z</time></trkpt><trkpt lat="42.04066575239926" lon="2.962584002108376"><ele>57.0</ele><time>2026-05-02T08:26:13Z</time></trkpt><trkpt lat="42.04073191280474" lon="2.962497127485308"><ele>57.0</ele><time>2026-05-02T08:26:14Z</time></trkpt><trkpt lat="42.04081781460735" lon="2.962484884694384"><ele>57.0</ele><time>2026-05-02T08:26:15Z</time></trkpt><trkpt lat="42.040902408834526" lon="2.962466821200943"><ele>55.833333333333336</ele><time>2026-05-02T08:26:16Z</time></trkpt><trkpt lat="42.040983956263204" lon="2.9624305775676225"><ele>54.66666666666667</ele><time>2026-05-02T08:26:17Z</time></trkpt><trkpt lat="42.04107074399319" lon="2.962391339639888"><ele>53.5</ele><time>2026-05-02T08:26:18Z</time></trkpt><trkpt lat="42.04115069883552" lon="2.9623495088768306"><ele>52.333333333333336</ele><time>2026-05-02T08:26:19Z</time></trkpt><trkpt lat="42.04123055788017" lon="2.962305405039876"><ele>51.16666666666667</ele><time>2026-05-02T08:26:20Z</time></trkpt><trkpt lat="42.04131353445837" lon="2.9622561729715997"><ele>50.0</ele><time>2026-05-02T08:26:21Z</time></trkpt><trkpt lat="42.04139289396199" lon="2.9622126822502626"><ele>50.00000000000001</ele><time>2026-05-02T08:26:22Z</time></trkpt><trkpt lat="42.041467705500885" lon="2.9621651920778795"><ele>50.0</ele><time>2026-05-02T08:26:23Z</time></trkpt><trkpt lat="42.04154041626193" lon="2.962115220452851"><ele>50.0</ele><time>2026-05-02T08:26:24Z</time></trkpt><trkpt lat="42.041617040068715" lon="2.962055897200207"><ele>50.0</ele><time>2026-05-02T08:26:25Z</time></trkpt><trkpt lat="42.04167395120118" lon="2.9619652151602973"><ele>50.00000000000001</ele><time>2026-05-02T08:26:26Z</time></trkpt><trkpt lat="42.04174525170047" lon="2.9618667043388136"><ele>50.0</ele><time>2026-05-02T08:26:27Z</time></trkpt><trkpt lat="42.04182914154141" lon="2.961781767948018"><ele>49.333333333333336</ele><time>2026-05-02T08:26:28Z</time></trkpt><trkpt lat="42.041912534988754" lon="2.961704909466704"><ele>48.66666666666667</ele><time>2026-05-02T08:26:29Z</time></trkpt><trkpt lat="42.04197725848847" lon="2.961634692975537"><ele>48.0</ele><time>2026-05-02T08:26:30Z</time></trkpt><trkpt lat="42.04202381597119" lon="2.961562051156723"><ele>47.333333333333336</ele><time>2026-05-02T08:26:31Z</time></trkpt><trkpt lat="42.04207597780921" lon="2.96149495317904"><ele>46.66666666666667</ele><time>2026-05-02T08:26:32Z</time></trkpt><trkpt lat="42.042147572316544" lon="2.9614475499097974"><ele>46.0</ele><time>2026-05-02T08:26:33Z</time></trkpt><trkpt lat="42.04220903632941" lon="2.961393693247613"><ele>46.0</ele><time>2026-05-02T08:26:34Z</time></trkpt><trkpt lat="42.04227311616853" lon="2.9613450397101384"><ele>46.0</ele><time>2026-05-02T08:26:35Z</time></trkpt><trkpt lat="42.04232550834619" lon="2.9612970332292017"><ele>46.0</ele><time>2026-05-02T08:26:36Z</time></trkpt><trkpt lat="42.04239032313752" lon="2.961264024288405"><ele>46.0</ele><time>2026-05-02T08:26:37Z</time></trkpt><trkpt lat="42.04249493737753" lon="2.9612310967973663"><ele>46.0</ele><time>2026-05-02T08:26:39Z</time></trkpt><trkpt lat="42.04259910912662" lon="2.961159689744271"><ele>46.0</ele><time>2026-05-02T08:26:41Z</time></trkpt><trkpt lat="42.04270207584348" lon="2.9611025000121165"><ele>46.0</ele><time>2026-05-02T08:26:43Z</time></trkpt><trkpt lat="42.04279534730629" lon="2.961029367668245"><ele>46.0</ele><time>2026-05-02T08:26:45Z</time></trkpt><trkpt lat="42.042851338550854" lon="2.960975718831683"><ele>46.0</ele><time>2026-05-02T08:26:46Z</time></trkpt><trkpt lat="42.04292536523055" lon="2.9609144602273214"><ele>46.0</ele><time>2026-05-02T08:26:47Z</time></trkpt><trkpt lat="42.04301184312993" lon="2.9608604293044456"><ele>46.0</ele><time>2026-05-02T08:26:48Z</time></trkpt><trkpt lat="42.04307365788045" lon="2.9608178245014933"><ele>46.0</ele><time>2026-05-02T08:26:49Z</time></trkpt><trkpt lat="42.043147569732895" lon="2.960797005191178"><ele>46.0</ele><time>2026-05-02T08:26:50Z</time></trkpt><trkpt lat="42.04319553174015" lon="2.9607173515469722"><ele>46.0</ele><time>2026-05-02T08:26:51Z</time></trkpt><trkpt lat="42.04324003913709" lon="2.9606485573115475"><ele>46.0</ele><time>2026-05-02T08:26:52Z</time></trkpt><trkpt lat="42.04331175696826" lon="2.9605531311483224"><ele>46.0</ele><time>2026-05-02T08:26:53.999Z</time></trkpt><trkpt lat="42.04335908979176" lon="2.9604949170488584"><ele>46.0</ele><time>2026-05-02T08:26:55.999Z</time></trkpt><trkpt lat="42.043412617525476" lon="2.960434249565869"><ele>46.0</ele><time>2026-05-02T08:26:57.998Z</time></trkpt><trkpt lat="42.04347653359494" lon="2.9603620487289093"><ele>46.0</ele><time>2026-05-02T08:27:00.998Z</time></trkpt><trkpt lat="42.04355660176019" lon="2.9603173555508477"><ele>46.0</ele><time>2026-05-02T08:27:02.998Z</time></trkpt><trkpt lat="42.04366083712319" lon="2.9602687605052402"><ele>46.0</ele><time>2026-05-02T08:27:04.998Z</time></trkpt><trkpt lat="42.043761943394216" lon="2.96023017392494"><ele>46.0</ele><time>2026-05-02T08:27:06.998Z</time></trkpt><trkpt lat="42.04384481201925" lon="2.960220362956589"><ele>46.0</ele><time>2026-05-02T08:27:08.998Z</time></trkpt><trkpt lat="42.04398728987319" lon="2.960180639779453"><ele>46.0</ele><time>2026-05-02T08:27:10.998Z</time></trkpt><trkpt lat="42.04402236375761" lon="2.9601011272387856"><ele>46.0</ele><time>2026-05-02T08:27:12.998Z</time></trkpt><trkpt lat="42.04405506624051" lon="2.9600241200842543"><ele>46.0</ele><time>2026-05-02T08:27:14.998Z</time></trkpt><trkpt lat="42.04409244378798" lon="2.9599361043776717"><ele>46.0</ele><time>2026-05-02T08:27:16.998Z</time></trkpt><trkpt lat="42.04412346634783" lon="2.9598496960644036"><ele>46.0</ele><time>2026-05-02T08:27:18.998Z</time></trkpt><trkpt lat="42.04415755587153" lon="2.959754868668884"><ele>46.0</ele><time>2026-05-02T08:27:21.999Z</time></trkpt><trkpt lat="42.04401178514447" lon="2.9596541816313424"><ele>46.0</ele><time>2026-05-02T08:27:35Z</time></trkpt><trkpt lat="42.04405326101224" lon="2.9595520045746295"><ele>46.0</ele><time>2026-05-02T08:27:38.999Z</time></trkpt><trkpt lat="42.04408005520836" lon="2.959474545057966"><ele>46.0</ele><time>2026-05-02T08:27:47.999Z</time></trkpt><trkpt lat="42.04410217646715" lon="2.9593931273365954"><ele>46.0</ele><time>2026-05-02T08:28:00.999Z</time></trkpt><trkpt lat="42.04415259666508" lon="2.959337760573753"><ele>46.0</ele><time>2026-05-02T08:28:14.063Z</time></trkpt><trkpt lat="42.04433662743963" lon="2.959136389486856"><ele>45.42857142857143</ele><time>2026-05-02T08:28:17.999Z</time></trkpt><trkpt lat="42.04436871568919" lon="2.9592352783581597"><ele>44.857142857142854</ele><time>2026-05-02T08:28:18.999Z</time></trkpt><trkpt lat="42.0444105226312" lon="2.9593396603946194"><ele>44.285714285714285</ele><time>2026-05-02T08:28:20.999Z</time></trkpt><trkpt lat="42.04444350610517" lon="2.959432873097863"><ele>43.714285714285715</ele><time>2026-05-02T08:28:25.999Z</time></trkpt><trkpt lat="42.04440944420555" lon="2.959510412373419"><ele>43.14285714285714</ele><time>2026-05-02T08:28:32.999Z</time></trkpt><trkpt lat="42.04438047360257" lon="2.959587201370455"><ele>42.57142857142857</ele><time>2026-05-02T08:28:43.999Z</time></trkpt><trkpt lat="42.044347629062834" lon="2.959660872905062"><ele>42.0</ele><time>2026-05-02T08:28:45.999Z</time></trkpt><trkpt lat="42.04431255526032" lon="2.9597512384764233"><ele>42.0</ele><time>2026-05-02T08:28:47.999Z</time></trkpt><trkpt lat="42.04429046881053" lon="2.9598749305601353"><ele>42.0</ele><time>2026-05-02T08:28:50.999Z</time></trkpt><trkpt lat="42.044289870111484" lon="2.959998370758536"><ele>42.0</ele><time>2026-05-02T08:28:53.999Z</time></trkpt><trkpt lat="42.04430045899118" lon="2.960112370527984"><ele>42.0</ele><time>2026-05-02T08:28:56.999Z</time></trkpt><trkpt lat="42.04435814951775" lon="2.960268556475697"><ele>42.0</ele><time>2026-05-02T08:28:58.999Z</time></trkpt><trkpt lat="42.04441126243928" lon="2.9603547295850157"><ele>42.57142857142857</ele><time>2026-05-02T08:29:00.999Z</time></trkpt><trkpt lat="42.044445519656215" lon="2.960447038588499"><ele>43.14285714285714</ele><time>2026-05-02T08:29:02.999Z</time></trkpt><trkpt lat="42.044466175023175" lon="2.960535600143858"><ele>43.714285714285715</ele><time>2026-05-02T08:29:04.999Z</time></trkpt><trkpt lat="42.04447052815252" lon="2.9606264308109256"><ele>44.285714285714285</ele><time>2026-05-02T08:29:07.999Z</time></trkpt><trkpt lat="42.04444764125735" lon="2.9607056603585495"><ele>44.857142857142854</ele><time>2026-05-02T08:29:19.998Z</time></trkpt><trkpt lat="42.04438634370168" lon="2.960752069542101"><ele>45.42857142857143</ele><time>2026-05-02T08:29:29Z</time></trkpt><trkpt lat="42.04434179765277" lon="2.9608266669377152"><ele>46.0</ele><time>2026-05-02T08:29:31Z</time></trkpt><trkpt lat="42.04426319189874" lon="2.9608733051074796"><ele>46.16666666666667</ele><time>2026-05-02T08:29:33Z</time></trkpt><trkpt lat="42.044173223101104" lon="2.960917079575568"><ele>46.333333333333336</ele><time>2026-05-02T08:29:35Z</time></trkpt><trkpt lat="42.04410118416746" lon="2.9609830578227188"><ele>46.5</ele><time>2026-05-02T08:29:37Z</time></trkpt><trkpt lat="42.04414149843476" lon="2.961069164778414"><ele>46.666666666666664</ele><time>2026-05-02T08:29:40Z</time></trkpt><trkpt lat="42.04421523132369" lon="2.9610622514303797"><ele>46.83333333333333</ele><time>2026-05-02T08:29:43Z</time></trkpt><trkpt lat="42.04428586675281" lon="2.961040754329867"><ele>47.0</ele><time>2026-05-02T08:29:46Z</time></trkpt><trkpt lat="42.04434957931389" lon="2.9610214752611115"><ele>47.75</ele><time>2026-05-02T08:29:48.999Z</time></trkpt><trkpt lat="42.044534112786735" lon="2.9609482411496852"><ele>48.5</ele><time>2026-05-02T08:29:49.999Z</time></trkpt><trkpt lat="42.04462823577989" lon="2.9609746303195354"><ele>49.25</ele><time>2026-05-02T08:29:51.999Z</time></trkpt><trkpt lat="42.044721327388274" lon="2.961022538243763"><ele>50.0</ele><time>2026-05-02T08:29:53.999Z</time></trkpt><trkpt lat="42.04480978969779" lon="2.961078596042508"><ele>50.00000000000001</ele><time>2026-05-02T08:29:55.999Z</time></trkpt><trkpt lat="42.0448802325612" lon="2.961143391410622"><ele>50.0</ele><time>2026-05-02T08:29:57.999Z</time></trkpt><trkpt lat="42.04495563754009" lon="2.9611896022191195"><ele>50.0</ele><time>2026-05-02T08:29:59.999Z</time></trkpt><trkpt lat="42.045031109291465" lon="2.961229533948754"><ele>50.0</ele><time>2026-05-02T08:30:01.999Z</time></trkpt><trkpt lat="42.04510914802805" lon="2.9612688729840144"><ele>50.00000000000001</ele><time>2026-05-02T08:30:03.999Z</time></trkpt><trkpt lat="42.045199670995025" lon="2.961299880432597"><ele>50.0</ele><time>2026-05-02T08:30:05.999Z</time></trkpt><trkpt lat="42.04529543375852" lon="2.961337051132027"><ele>50.2</ele><time>2026-05-02T08:30:07.999Z</time></trkpt><trkpt lat="42.045396385054296" lon="2.9613835120432315"><ele>50.4</ele><time>2026-05-02T08:30:09.999Z</time></trkpt><trkpt lat="42.04548865021263" lon="2.9614197302882177"><ele>50.599999999999994</ele><time>2026-05-02T08:30:11.999Z</time></trkpt><trkpt lat="42.04559195091258" lon="2.9614429112651433"><ele>50.8</ele><time>2026-05-02T08:30:13.999Z</time></trkpt><trkpt lat="42.045703445112295" lon="2.961472241974297"><ele>51.0</ele><time>2026-05-02T08:30:15.999Z</time></trkpt><trkpt lat="42.045805354729644" lon="2.9615209357061714"><ele>51.599999999999994</ele><time>2026-05-02T08:30:17.999Z</time></trkpt><trkpt lat="42.0459145180775" lon="2.961561332908145"><ele>52.2</ele><time>2026-05-02T08:30:19.999Z</time></trkpt><trkpt lat="42.04601052990529" lon="2.961600886711957"><ele>52.800000000000004</ele><time>2026-05-02T08:30:21.999Z</time></trkpt><trkpt lat="42.0460982799259" lon="2.961643310767345"><ele>53.400000000000006</ele><time>2026-05-02T08:30:23.999Z</time></trkpt><trkpt lat="42.04618881986118" lon="2.9616737569320932"><ele>54.0</ele><time>2026-05-02T08:30:25.999Z</time></trkpt><trkpt lat="42.046264597973064" lon="2.9617446520245125"><ele>54.0</ele><time>2026-05-02T08:30:27.999Z</time></trkpt><trkpt lat="42.046343437764506" lon="2.9618241120884954"><ele>54.00000000000001</ele><time>2026-05-02T08:30:29.999Z</time></trkpt><trkpt lat="42.046421459032786" lon="2.96189740818925"><ele>54.00000000000001</ele><time>2026-05-02T08:30:31.999Z</time></trkpt><trkpt lat="42.04650176652847" lon="2.9619878314252412"><ele>54.0</ele><time>2026-05-02T08:30:33.999Z</time></trkpt><trkpt lat="42.04657774370257" lon="2.962068474885789"><ele>54.0</ele><time>2026-05-02T08:30:35.999Z</time></trkpt><trkpt lat="42.04663608095146" lon="2.962165786888247"><ele>54.800000000000004</ele><time>2026-05-02T08:30:37.999Z</time></trkpt><trkpt lat="42.046674883146736" lon="2.9622719261770865"><ele>55.60000000000001</ele><time>2026-05-02T08:30:39.999Z</time></trkpt><trkpt lat="42.04669785786354" lon="2.9623906112762954"><ele>56.4</ele><time>2026-05-02T08:30:41.999Z</time></trkpt><trkpt lat="42.04672480588791" lon="2.962510549789244"><ele>57.2</ele><time>2026-05-02T08:30:43.999Z</time></trkpt><trkpt lat="42.04675809412992" lon="2.9626207003050804"><ele>58.0</ele><time>2026-05-02T08:30:45.999Z</time></trkpt><trkpt lat="42.04681993799471" lon="2.9627097220097047"><ele>58.33333333333333</ele><time>2026-05-02T08:30:47.999Z</time></trkpt><trkpt lat="42.04688703795147" lon="2.9627620694349557"><ele>58.666666666666664</ele><time>2026-05-02T08:30:49.999Z</time></trkpt><trkpt lat="42.04695151705814" lon="2.9628069017741168"><ele>59.0</ele><time>2026-05-02T08:30:51.999Z</time></trkpt><trkpt lat="42.04701999059801" lon="2.9628908714809006"><ele>59.33333333333333</ele><time>2026-05-02T08:30:54.999Z</time></trkpt><trkpt lat="42.047068680832865" lon="2.9629617059259603"><ele>59.666666666666664</ele><time>2026-05-02T08:30:57.999Z</time></trkpt><trkpt lat="42.04712689404891" lon="2.9630325291338693"><ele>60.0</ele><time>2026-05-02T08:31:00.999Z</time></trkpt><trkpt lat="42.047194189576885" lon="2.963101230571114"><ele>60.0</ele><time>2026-05-02T08:31:03.999Z</time></trkpt><trkpt lat="42.047269716364205" lon="2.9631526722745707"><ele>60.0</ele><time>2026-05-02T08:31:06.999Z</time></trkpt><trkpt lat="42.04735911943746" lon="2.963231241085897"><ele>60.0</ele><time>2026-05-02T08:31:08.999Z</time></trkpt><trkpt lat="42.047396276360104" lon="2.9633572937486172"><ele>60.0</ele><time>2026-05-02T08:31:11.999Z</time></trkpt><trkpt lat="42.04741409926873" lon="2.9634661177689674"><ele>60.0</ele><time>2026-05-02T08:31:13.998Z</time></trkpt><trkpt lat="42.04743671164107" lon="2.9635870182922206"><ele>61.8</ele><time>2026-05-02T08:31:15.998Z</time></trkpt><trkpt lat="42.047463574435575" lon="2.963706616311899"><ele>63.6</ele><time>2026-05-02T08:31:17.998Z</time></trkpt><trkpt lat="42.04748904051304" lon="2.9638283753302397"><ele>65.4</ele><time>2026-05-02T08:31:19.998Z</time></trkpt><trkpt lat="42.04751542634166" lon="2.9639509145012637"><ele>67.2</ele><time>2026-05-02T08:31:21.998Z</time></trkpt><trkpt lat="42.04754015545244" lon="2.9640775804944246"><ele>69.0</ele><time>2026-05-02T08:31:23.998Z</time></trkpt><trkpt lat="42.04756948834228" lon="2.9642055291198304"><ele>69.0</ele><time>2026-05-02T08:31:25.998Z</time></trkpt><trkpt lat="42.04759693943835" lon="2.964351239302205"><ele>69.0</ele><time>2026-05-02T08:31:27.998Z</time></trkpt><trkpt lat="42.04760332971204" lon="2.9645051775985203"><ele>69.0</ele><time>2026-05-02T08:31:29.998Z</time></trkpt><trkpt lat="42.047618531961824" lon="2.9646646818150426"><ele>69.0</ele><time>2026-05-02T08:31:32Z</time></trkpt><trkpt lat="42.047629217753894" lon="2.96483106653166"><ele>69.0</ele><time>2026-05-02T08:31:34Z</time></trkpt><trkpt lat="42.0476329335888" lon="2.9649169973069918"><ele>69.0</ele><time>2026-05-02T08:31:35Z</time></trkpt><trkpt lat="42.04763617367639" lon="2.9650030885200924"><ele>69.0</ele><time>2026-05-02T08:31:36Z</time></trkpt><trkpt lat="42.04763839141312" lon="2.965089838975196"><ele>69.0</ele><time>2026-05-02T08:31:37Z</time></trkpt><trkpt lat="42.04764064361301" lon="2.9651779374447487"><ele>69.0</ele><time>2026-05-02T08:31:38Z</time></trkpt><trkpt lat="42.04766135005063" lon="2.9652661327131224"><ele>69.0</ele><time>2026-05-02T08:31:39Z</time></trkpt><trkpt lat="42.04766516803246" lon="2.9653535886794633"><ele>69.0</ele><time>2026-05-02T08:31:40Z</time></trkpt><trkpt lat="42.04766860926078" lon="2.965442684956598"><ele>68.57142857142857</ele><time>2026-05-02T08:31:41Z</time></trkpt><trkpt lat="42.04767370297025" lon="2.965529404637058"><ele>68.14285714285715</ele><time>2026-05-02T08:31:42Z</time></trkpt><trkpt lat="42.04768228074989" lon="2.9656192615789903"><ele>67.71428571428572</ele><time>2026-05-02T08:31:43Z</time></trkpt><trkpt lat="42.047686223354965" lon="2.9657072938883777"><ele>67.28571428571429</ele><time>2026-05-02T08:31:44Z</time></trkpt><trkpt lat="42.0476866808335" lon="2.965798597839209"><ele>66.85714285714286</ele><time>2026-05-02T08:31:45Z</time></trkpt><trkpt lat="42.047670723189654" lon="2.9658918138014543"><ele>66.42857142857143</ele><time>2026-05-02T08:31:46Z</time></trkpt><trkpt lat="42.04767265471757" lon="2.9659913658855066"><ele>66.0</ele><time>2026-05-02T08:31:47Z</time></trkpt><trkpt lat="42.04769387372964" lon="2.9660955718400137"><ele>67.16666666666667</ele><time>2026-05-02T08:31:48Z</time></trkpt><trkpt lat="42.04769152080613" lon="2.9662083815604676"><ele>68.33333333333333</ele><time>2026-05-02T08:31:49Z</time></trkpt><trkpt lat="42.047653927295755" lon="2.966314591596097"><ele>69.5</ele><time>2026-05-02T08:31:50Z</time></trkpt><trkpt lat="42.04760897199327" lon="2.9664050983398447"><ele>70.66666666666666</ele><time>2026-05-02T08:31:51Z</time></trkpt><trkpt lat="42.04756601923909" lon="2.966499881430154"><ele>71.83333333333333</ele><time>2026-05-02T08:31:52Z</time></trkpt><trkpt lat="42.047519680895014" lon="2.9665832436012036"><ele>73.0</ele><time>2026-05-02T08:31:53Z</time></trkpt><trkpt lat="42.04748150409223" lon="2.9666747007957097"><ele>73.16666666666666</ele><time>2026-05-02T08:31:54Z</time></trkpt><trkpt lat="42.04741990397226" lon="2.9667366793876866"><ele>73.33333333333333</ele><time>2026-05-02T08:31:55Z</time></trkpt><trkpt lat="42.04736893052901" lon="2.966812839835945"><ele>73.5</ele><time>2026-05-02T08:31:56Z</time></trkpt><trkpt lat="42.04731923456752" lon="2.966887205606215"><ele>73.66666666666667</ele><time>2026-05-02T08:31:56.999Z</time></trkpt><trkpt lat="42.047272674148715" lon="2.9669602647435642"><ele>73.83333333333334</ele><time>2026-05-02T08:31:57.999Z</time></trkpt><trkpt lat="42.04722987704714" lon="2.9670310079742666"><ele>74.0</ele><time>2026-05-02T08:31:58.999Z</time></trkpt><trkpt lat="42.0471618704119" lon="2.9671497079455653"><ele>74.0</ele><time>2026-05-02T08:32:00.999Z</time></trkpt><trkpt lat="42.047097037637286" lon="2.967279345201939"><ele>74.0</ele><time>2026-05-02T08:32:02.999Z</time></trkpt><trkpt lat="42.04704829936479" lon="2.9673929296486454"><ele>74.0</ele><time>2026-05-02T08:32:04.999Z</time></trkpt><trkpt lat="42.04700322264767" lon="2.9675047243614636"><ele>74.0</ele><time>2026-05-02T08:32:06.999Z</time></trkpt><trkpt lat="42.04695768863997" lon="2.967627322868811"><ele>74.0</ele><time>2026-05-02T08:32:08.999Z</time></trkpt><trkpt lat="42.04692207452472" lon="2.96773585453894"><ele>75.0</ele><time>2026-05-02T08:32:10.999Z</time></trkpt><trkpt lat="42.046882837210575" lon="2.967885063533196"><ele>76.0</ele><time>2026-05-02T08:32:12.999Z</time></trkpt><trkpt lat="42.04685737115664" lon="2.9680331347136253"><ele>77.0</ele><time>2026-05-02T08:32:14.999Z</time></trkpt><trkpt lat="42.04686680642728" lon="2.968180389491887"><ele>78.0</ele><time>2026-05-02T08:32:16.999Z</time></trkpt><trkpt lat="42.04687996482533" lon="2.9683358848723183"><ele>78.0</ele><time>2026-05-02T08:32:18.999Z</time></trkpt><trkpt lat="42.0468894582309" lon="2.9684929004629086"><ele>78.0</ele><time>2026-05-02T08:32:20.999Z</time></trkpt><trkpt lat="42.04688764327138" lon="2.9685782726892276"><ele>78.0</ele><time>2026-05-02T08:32:21.999Z</time></trkpt><trkpt lat="42.04687227427935" lon="2.9686675090938137"><ele>78.0</ele><time>2026-05-02T08:32:22.999Z</time></trkpt><trkpt lat="42.04682672790811" lon="2.9687443924547274"><ele>78.0</ele><time>2026-05-02T08:32:23.999Z</time></trkpt><trkpt lat="42.0467812677253" lon="2.9688147589588234"><ele>78.0</ele><time>2026-05-02T08:32:24.999Z</time></trkpt><trkpt lat="42.046738065742424" lon="2.968896047348006"><ele>78.0</ele><time>2026-05-02T08:32:25.999Z</time></trkpt><trkpt lat="42.04669484608216" lon="2.9689778571780754"><ele>78.0</ele><time>2026-05-02T08:32:26.999Z</time></trkpt><trkpt lat="42.04665102191198" lon="2.969065104923289"><ele>78.0</ele><time>2026-05-02T08:32:27.999Z</time></trkpt><trkpt lat="42.04661065562909" lon="2.9691582381331374"><ele>78.0</ele><time>2026-05-02T08:32:28.999Z</time></trkpt><trkpt lat="42.04657179465545" lon="2.9692545717384675"><ele>78.0</ele><time>2026-05-02T08:32:29.999Z</time></trkpt><trkpt lat="42.04653619810293" lon="2.9693471580341124"><ele>78.0</ele><time>2026-05-02T08:32:30.999Z</time></trkpt><trkpt lat="42.04650318566364" lon="2.9694421711486716"><ele>77.83333333333333</ele><time>2026-05-02T08:32:31.999Z</time></trkpt><trkpt lat="42.0464777542158" lon="2.969547218934899"><ele>77.66666666666667</ele><time>2026-05-02T08:32:32.999Z</time></trkpt><trkpt lat="42.04648382601998" lon="2.9696516700454385"><ele>77.5</ele><time>2026-05-02T08:32:33.999Z</time></trkpt><trkpt lat="42.046472715991065" lon="2.9697507455361327"><ele>77.33333333333334</ele><time>2026-05-02T08:32:34.999Z</time></trkpt><trkpt lat="42.04646681848626" lon="2.969848824554046"><ele>77.16666666666667</ele><time>2026-05-02T08:32:35.999Z</time></trkpt><trkpt lat="42.04645933812482" lon="2.9699498459623115"><ele>77.0</ele><time>2026-05-02T08:32:36.999Z</time></trkpt><trkpt lat="42.04645925380844" lon="2.970048931721842"><ele>77.5</ele><time>2026-05-02T08:32:37.999Z</time></trkpt><trkpt lat="42.04645165330869" lon="2.970148025417098"><ele>78.0</ele><time>2026-05-02T08:32:38.999Z</time></trkpt><trkpt lat="42.04641588560408" lon="2.9702402964245027"><ele>78.5</ele><time>2026-05-02T08:32:39.999Z</time></trkpt><trkpt lat="42.046391742555464" lon="2.9703306692570863"><ele>79.0</ele><time>2026-05-02T08:32:40.999Z</time></trkpt><trkpt lat="42.046369947914535" lon="2.970417299680205"><ele>79.5</ele><time>2026-05-02T08:32:41.999Z</time></trkpt><trkpt lat="42.04634568801094" lon="2.9705054688971724"><ele>80.0</ele><time>2026-05-02T08:32:42.999Z</time></trkpt><trkpt lat="42.04630377158649" lon="2.970649041218031"><ele>80.0</ele><time>2026-05-02T08:32:44.999Z</time></trkpt><trkpt lat="42.04626548264241" lon="2.97078921260751"><ele>80.0</ele><time>2026-05-02T08:32:46.999Z</time></trkpt><trkpt lat="42.046239786269076" lon="2.970892212214859"><ele>80.0</ele><time>2026-05-02T08:32:48.999Z</time></trkpt><trkpt lat="42.04621858431317" lon="2.9709798196827046"><ele>80.0</ele><time>2026-05-02T08:32:50.999Z</time></trkpt><trkpt lat="42.04619870104789" lon="2.971061976458001"><ele>80.0</ele><time>2026-05-02T08:32:52.999Z</time></trkpt><trkpt lat="42.046190441279485" lon="2.9711552653660482"><ele>80.0</ele><time>2026-05-02T08:32:54.999Z</time></trkpt><trkpt lat="42.046199034474505" lon="2.971242729450162"><ele>81.33333333333334</ele><time>2026-05-02T08:32:56.999Z</time></trkpt><trkpt lat="42.04617593376916" lon="2.9713612208551194"><ele>82.66666666666667</ele><time>2026-05-02T08:32:59.999Z</time></trkpt><trkpt lat="42.04614162283212" lon="2.971471382784897"><ele>84.0</ele><time>2026-05-02T08:33:02.999Z</time></trkpt><trkpt lat="42.04612810732378" lon="2.971564441054535"><ele>85.33333333333333</ele><time>2026-05-02T08:33:04.999Z</time></trkpt><trkpt lat="42.046108537623134" lon="2.971660341277826"><ele>86.66666666666666</ele><time>2026-05-02T08:33:06.999Z</time></trkpt><trkpt lat="42.04608945711942" lon="2.9717520762427703"><ele>88.0</ele><time>2026-05-02T08:33:08.999Z</time></trkpt><trkpt lat="42.046066602117435" lon="2.9718431330856574"><ele>88.80000000000001</ele><time>2026-05-02T08:33:10.999Z</time></trkpt><trkpt lat="42.04603548917683" lon="2.9719570991197872"><ele>89.6</ele><time>2026-05-02T08:33:12.999Z</time></trkpt><trkpt lat="42.04597953883695" lon="2.972076856615039"><ele>90.4</ele><time>2026-05-02T08:33:14.999Z</time></trkpt><trkpt lat="42.04590781587766" lon="2.972185607846086"><ele>91.19999999999999</ele><time>2026-05-02T08:33:16.999Z</time></trkpt><trkpt lat="42.04580932829336" lon="2.9722434235254425"><ele>92.0</ele><time>2026-05-02T08:33:18.999Z</time></trkpt><trkpt lat="42.045705441753654" lon="2.972285176935096"><ele>92.25</ele><time>2026-05-02T08:33:20.999Z</time></trkpt><trkpt lat="42.04560563615181" lon="2.972323908322511"><ele>92.5</ele><time>2026-05-02T08:33:22.999Z</time></trkpt><trkpt lat="42.04549953716347" lon="2.972365081172907"><ele>92.75</ele><time>2026-05-02T08:33:24.999Z</time></trkpt><trkpt lat="42.0453907025042" lon="2.9724386288286175"><ele>93.0</ele><time>2026-05-02T08:33:26.999Z</time></trkpt><trkpt lat="42.04529577282773" lon="2.97253849208007"><ele>92.80000000000001</ele><time>2026-05-02T08:33:28.999Z</time></trkpt><trkpt lat="42.04520002295432" lon="2.972639451223228"><ele>92.6</ele><time>2026-05-02T08:33:30.998Z</time></trkpt><trkpt lat="42.0451104991827" lon="2.972730458714314"><ele>92.4</ele><time>2026-05-02T08:33:32.998Z</time></trkpt><trkpt lat="42.04501493253454" lon="2.972804852200584"><ele>92.19999999999999</ele><time>2026-05-02T08:33:34.998Z</time></trkpt><trkpt lat="42.0449289305517" lon="2.9728452430399104"><ele>92.0</ele><time>2026-05-02T08:33:36.998Z</time></trkpt><trkpt lat="42.04484018558779" lon="2.9728685298347255"><ele>92.0</ele><time>2026-05-02T08:33:39Z</time></trkpt><trkpt lat="42.04473757051365" lon="2.9728815950885696"><ele>92.0</ele><time>2026-05-02T08:33:41Z</time></trkpt><trkpt lat="42.04463058568467" lon="2.9728931327393866"><ele>92.0</ele><time>2026-05-02T08:33:43Z</time></trkpt><trkpt lat="42.04453581956405" lon="2.972942726025803"><ele>92.0</ele><time>2026-05-02T08:33:45Z</time></trkpt><trkpt lat="42.04445008893026" lon="2.9729368994469016"><ele>92.0</ele><time>2026-05-02T08:33:47Z</time></trkpt><trkpt lat="42.04436362506501" lon="2.9729502093532254"><ele>92.0</ele><time>2026-05-02T08:33:49Z</time></trkpt><trkpt lat="42.044269055300454" lon="2.9729698821152"><ele>92.0</ele><time>2026-05-02T08:33:51Z</time></trkpt><trkpt lat="42.04417878321447" lon="2.973039160833653"><ele>92.0</ele><time>2026-05-02T08:33:53Z</time></trkpt><trkpt lat="42.044098369155776" lon="2.97314181787475"><ele>92.0</ele><time>2026-05-02T08:33:55Z</time></trkpt><trkpt lat="42.04405004389179" lon="2.973261507585662"><ele>92.0</ele><time>2026-05-02T08:33:57Z</time></trkpt><trkpt lat="42.04400221887907" lon="2.9733847149370196"><ele>93.39999999999999</ele><time>2026-05-02T08:33:59Z</time></trkpt><trkpt lat="42.04395596343981" lon="2.9735038785904706"><ele>94.8</ele><time>2026-05-02T08:34:01Z</time></trkpt><trkpt lat="42.0439015337631" lon="2.973608587872346"><ele>96.2</ele><time>2026-05-02T08:34:03Z</time></trkpt><trkpt lat="42.04384340295525" lon="2.9736700235000018"><ele>97.6</ele><time>2026-05-02T08:34:05Z</time></trkpt><trkpt lat="42.0438408560895" lon="2.9737590941545555"><ele>99.0</ele><time>2026-05-02T08:34:07.999Z</time></trkpt><trkpt lat="42.04397222754012" lon="2.973899972531726"><ele>99.0</ele><time>2026-05-02T08:34:08.999Z</time></trkpt><trkpt lat="42.04401673984482" lon="2.9739868737257824"><ele>99.0</ele><time>2026-05-02T08:34:10.999Z</time></trkpt><trkpt lat="42.04405914428388" lon="2.9740771491038114"><ele>99.0</ele><time>2026-05-02T08:34:12.999Z</time></trkpt><trkpt lat="42.04409294322833" lon="2.9741728986826175"><ele>99.0</ele><time>2026-05-02T08:34:14.999Z</time></trkpt><trkpt lat="42.04412407588847" lon="2.974265150803618"><ele>99.0</ele><time>2026-05-02T08:34:16.999Z</time></trkpt><trkpt lat="42.04415854566831" lon="2.9743588260531997"><ele>99.0</ele><time>2026-05-02T08:34:18.999Z</time></trkpt><trkpt lat="42.04415643854626" lon="2.97444963390442"><ele>100.16666666666667</ele><time>2026-05-02T08:34:20.999Z</time></trkpt><trkpt lat="42.04411037219073" lon="2.9745136380816724"><ele>101.33333333333334</ele><time>2026-05-02T08:34:22.999Z</time></trkpt><trkpt lat="42.044050021356824" lon="2.9745653785961648"><ele>102.5</ele><time>2026-05-02T08:34:24.999Z</time></trkpt><trkpt lat="42.04398044674022" lon="2.974607820479042"><ele>103.66666666666667</ele><time>2026-05-02T08:34:26.999Z</time></trkpt><trkpt lat="42.04391132610132" lon="2.9746546049906506"><ele>104.83333333333334</ele><time>2026-05-02T08:34:28.999Z</time></trkpt><trkpt lat="42.04384312220212" lon="2.974712501291093"><ele>106.0</ele><time>2026-05-02T08:34:30.999Z</time></trkpt><trkpt lat="42.043769264221034" lon="2.9747797726846557"><ele>106.00000000000001</ele><time>2026-05-02T08:34:32.999Z</time></trkpt><trkpt lat="42.04368430837791" lon="2.9748107720249286"><ele>106.0</ele><time>2026-05-02T08:34:34.999Z</time></trkpt><trkpt lat="42.04359572263091" lon="2.974840564232615"><ele>106.0</ele><time>2026-05-02T08:34:36.999Z</time></trkpt><trkpt lat="42.043510146004266" lon="2.9748880192715412"><ele>106.0</ele><time>2026-05-02T08:34:38.999Z</time></trkpt><trkpt lat="42.04345402095673" lon="2.974947112305232"><ele>106.00000000000001</ele><time>2026-05-02T08:34:40.999Z</time></trkpt><trkpt lat="42.04337970441299" lon="2.9750032705909932"><ele>106.0</ele><time>2026-05-02T08:34:42.999Z</time></trkpt><trkpt lat="42.043318647708524" lon="2.975048113875254"><ele>106.19999999999999</ele><time>2026-05-02T08:34:44.999Z</time></trkpt><trkpt lat="42.04324534463573" lon="2.9751034490357475"><ele>106.39999999999999</ele><time>2026-05-02T08:34:46.999Z</time></trkpt><trkpt lat="42.04317580358682" lon="2.9751797097078048"><ele>106.6</ele><time>2026-05-02T08:34:48.999Z</time></trkpt><trkpt lat="42.04311479378387" lon="2.9752767013838284"><ele>106.8</ele><time>2026-05-02T08:34:50.999Z</time></trkpt><trkpt lat="42.043077370879395" lon="2.975397932210498"><ele>107.0</ele><time>2026-05-02T08:34:52.999Z</time></trkpt><trkpt lat="42.04305530088781" lon="2.975532230918184"><ele>106.99999999999999</ele><time>2026-05-02T08:34:54.999Z</time></trkpt><trkpt lat="42.043031936055904" lon="2.9756644685637412"><ele>107.0</ele><time>2026-05-02T08:34:56.999Z</time></trkpt><trkpt lat="42.043003975129174" lon="2.9757921568997228"><ele>107.0</ele><time>2026-05-02T08:34:58.999Z</time></trkpt><trkpt lat="42.04297704671868" lon="2.975897629943329"><ele>107.0</ele><time>2026-05-02T08:35:00.999Z</time></trkpt><trkpt lat="42.04294969098463" lon="2.9759906227395843"><ele>106.99999999999999</ele><time>2026-05-02T08:35:02.999Z</time></trkpt><trkpt lat="42.042884500667554" lon="2.976048001253328"><ele>107.0</ele><time>2026-05-02T08:35:04.999Z</time></trkpt><trkpt lat="42.04280941858149" lon="2.9760781744500004"><ele>107.83333333333333</ele><time>2026-05-02T08:35:06.999Z</time></trkpt><trkpt lat="42.042717512988354" lon="2.9760998984823432"><ele>108.66666666666666</ele><time>2026-05-02T08:35:08.999Z</time></trkpt><trkpt lat="42.04263800125222" lon="2.9761342612039354"><ele>109.5</ele><time>2026-05-02T08:35:10.999Z</time></trkpt><trkpt lat="42.04256229587799" lon="2.976188379530212"><ele>110.33333333333334</ele><time>2026-05-02T08:35:12.999Z</time></trkpt><trkpt lat="42.04248678676018" lon="2.9762521461217943"><ele>111.16666666666667</ele><time>2026-05-02T08:35:14.999Z</time></trkpt><trkpt lat="42.04241468875928" lon="2.976307382104157"><ele>112.0</ele><time>2026-05-02T08:35:16.999Z</time></trkpt><trkpt lat="42.04234244468952" lon="2.976376416066594"><ele>112.0</ele><time>2026-05-02T08:35:20.999Z</time></trkpt><trkpt lat="42.04228726412541" lon="2.976443223529049"><ele>112.0</ele><time>2026-05-02T08:35:22.999Z</time></trkpt><trkpt lat="42.04225152362867" lon="2.976524560856776"><ele>112.0</ele><time>2026-05-02T08:35:25.999Z</time></trkpt><trkpt lat="42.04218803613451" lon="2.976595595037735"><ele>112.0</ele><time>2026-05-02T08:35:29.999Z</time></trkpt><trkpt lat="42.04212611853008" lon="2.9766579243589644"><ele>112.0</ele><time>2026-05-02T08:35:33.999Z</time></trkpt><trkpt lat="42.04207560170832" lon="2.9767245683130765"><ele>112.0</ele><time>2026-05-02T08:35:37.999Z</time></trkpt><trkpt lat="42.042016665355796" lon="2.9767608931019907"><ele>112.0</ele><time>2026-05-02T08:35:40.998Z</time></trkpt><trkpt lat="42.0419724761843" lon="2.9768340715667536"><ele>112.83333333333334</ele><time>2026-05-02T08:35:44Z</time></trkpt><trkpt lat="42.041909784988455" lon="2.976908003495608"><ele>113.66666666666667</ele><time>2026-05-02T08:35:47Z</time></trkpt><trkpt lat="42.041844177196644" lon="2.9769663360872816"><ele>114.5</ele><time>2026-05-02T08:35:50Z</time></trkpt><trkpt lat="42.04180909597385" lon="2.977059291636606"><ele>115.33333333333334</ele><time>2026-05-02T08:35:54Z</time></trkpt><trkpt lat="42.041757248209976" lon="2.9771281772097695"><ele>116.16666666666667</ele><time>2026-05-02T08:35:58Z</time></trkpt><trkpt lat="42.041673389350706" lon="2.9772064663247217"><ele>117.0</ele><time>2026-05-02T08:36:01Z</time></trkpt><trkpt lat="42.04162273607629" lon="2.9772654019472253"><ele>117.0</ele><time>2026-05-02T08:36:04Z</time></trkpt><trkpt lat="42.041557887176914" lon="2.977322852300993"><ele>117.0</ele><time>2026-05-02T08:36:07Z</time></trkpt><trkpt lat="42.04148374163576" lon="2.9773720058004534"><ele>117.0</ele><time>2026-05-02T08:36:10Z</time></trkpt><trkpt lat="42.04142389814815" lon="2.9774513975080685"><ele>117.0</ele><time>2026-05-02T08:36:13Z</time></trkpt><trkpt lat="42.04135404222868" lon="2.977477595930617"><ele>117.0</ele><time>2026-05-02T08:36:14.999Z</time></trkpt><trkpt lat="42.041277231353796" lon="2.9775256170105906"><ele>117.0</ele><time>2026-05-02T08:36:17.999Z</time></trkpt><trkpt lat="42.04124927955881" lon="2.9776386411819002"><ele>117.66666666666667</ele><time>2026-05-02T08:36:19.999Z</time></trkpt><trkpt lat="42.04124404076547" lon="2.9777456093948396"><ele>118.33333333333334</ele><time>2026-05-02T08:36:22.999Z</time></trkpt><trkpt lat="42.04120701153899" lon="2.9778500828276266"><ele>119.0</ele><time>2026-05-02T08:36:26.999Z</time></trkpt><trkpt lat="42.0411867934939" lon="2.9779333470715645"><ele>119.66666666666667</ele><time>2026-05-02T08:36:29.999Z</time></trkpt><trkpt lat="42.04115283173934" lon="2.9780167298536964"><ele>120.33333333333334</ele><time>2026-05-02T08:36:32.999Z</time></trkpt><trkpt lat="42.04113394204642" lon="2.978108984393477"><ele>121.0</ele><time>2026-05-02T08:36:37.999Z</time></trkpt><trkpt lat="42.0412459107484" lon="2.9781019217249334"><ele>121.00000000000001</ele><time>2026-05-02T08:36:39.999Z</time></trkpt><trkpt lat="42.04126356829985" lon="2.9781991777005343"><ele>121.0</ele><time>2026-05-02T08:36:45.999Z</time></trkpt><trkpt lat="42.04126633780807" lon="2.97829612136754"><ele>121.0</ele><time>2026-05-02T08:36:50.999Z</time></trkpt><trkpt lat="42.041235723126285" lon="2.9783970145450125"><ele>121.0</ele><time>2026-05-02T08:36:54.999Z</time></trkpt><trkpt lat="42.04119119707298" lon="2.978475485884525"><ele>121.00000000000001</ele><time>2026-05-02T08:36:56.999Z</time></trkpt><trkpt lat="42.04115916647349" lon="2.978571160360058"><ele>121.0</ele><time>2026-05-02T08:36:58.999Z</time></trkpt><trkpt lat="42.04112782942465" lon="2.978664282844213"><ele>121.0</ele><time>2026-05-02T08:37:00.999Z</time></trkpt><trkpt lat="42.0411108741571" lon="2.9787650999531885"><ele>121.0</ele><time>2026-05-02T08:37:02.999Z</time></trkpt><trkpt lat="42.04110262591029" lon="2.9788857151507737"><ele>121.0</ele><time>2026-05-02T08:37:04.999Z</time></trkpt><trkpt lat="42.04110250322362" lon="2.979016069963313"><ele>121.0</ele><time>2026-05-02T08:37:06.999Z</time></trkpt><trkpt lat="42.04109844809692" lon="2.979169316164374"><ele>121.0</ele><time>2026-05-02T08:37:08.999Z</time></trkpt><trkpt lat="42.0410866940808" lon="2.9793113966480793"><ele>121.0</ele><time>2026-05-02T08:37:10.999Z</time></trkpt><trkpt lat="42.04106607324319" lon="2.9794205595023073"><ele>121.0</ele><time>2026-05-02T08:37:12.999Z</time></trkpt><trkpt lat="42.04107739608966" lon="2.979564345490776"><ele>121.0</ele><time>2026-05-02T08:37:14.999Z</time></trkpt><trkpt lat="42.041079439527856" lon="2.9797093900932006"><ele>121.0</ele><time>2026-05-02T08:37:16.999Z</time></trkpt><trkpt lat="42.04107143207981" lon="2.979838783411575"><ele>121.0</ele><time>2026-05-02T08:37:18.999Z</time></trkpt><trkpt lat="42.04105171212688" lon="2.979951477358179"><ele>121.83333333333334</ele><time>2026-05-02T08:37:20.999Z</time></trkpt><trkpt lat="42.04105189934665" lon="2.980071365204238"><ele>122.66666666666667</ele><time>2026-05-02T08:37:22.999Z</time></trkpt><trkpt lat="42.041063235616434" lon="2.9801850710789854"><ele>123.5</ele><time>2026-05-02T08:37:24.999Z</time></trkpt><trkpt lat="42.04107720373389" lon="2.980303483936295"><ele>124.33333333333334</ele><time>2026-05-02T08:37:26.999Z</time></trkpt><trkpt lat="42.0410847078336" lon="2.980412601715593"><ele>125.16666666666667</ele><time>2026-05-02T08:37:28.999Z</time></trkpt><trkpt lat="42.04109600526905" lon="2.9805224322316337"><ele>126.0</ele><time>2026-05-02T08:37:30.999Z</time></trkpt><trkpt lat="42.041102200194906" lon="2.980609021351529"><ele>126.0</ele><time>2026-05-02T08:37:32.999Z</time></trkpt><trkpt lat="42.041110738468234" lon="2.9806981604967273"><ele>126.0</ele><time>2026-05-02T08:37:35.999Z</time></trkpt><trkpt lat="42.04113064156105" lon="2.980790523999286"><ele>126.0</ele><time>2026-05-02T08:37:38.999Z</time></trkpt><trkpt lat="42.04114185814262" lon="2.980902217813714"><ele>126.0</ele><time>2026-05-02T08:37:41.999Z</time></trkpt><trkpt lat="42.0411447937143" lon="2.98099531220186"><ele>126.0</ele><time>2026-05-02T08:37:44.999Z</time></trkpt><trkpt lat="42.041161634898586" lon="2.9811089162266695"><ele>126.0</ele><time>2026-05-02T08:37:48.998Z</time></trkpt><trkpt lat="42.04117728467366" lon="2.981200193259734"><ele>126.0</ele><time>2026-05-02T08:37:53Z</time></trkpt><trkpt lat="42.041194207251856" lon="2.981299870813538"><ele>126.66666666666667</ele><time>2026-05-02T08:37:57Z</time></trkpt><trkpt lat="42.041249459185934" lon="2.9813804435612257"><ele>127.33333333333334</ele><time>2026-05-02T08:38:01Z</time></trkpt><trkpt lat="42.0413232237945" lon="2.9814315394049853"><ele>128.0</ele><time>2026-05-02T08:38:05Z</time></trkpt><trkpt lat="42.04140051197735" lon="2.9814593502746716"><ele>128.66666666666669</ele><time>2026-05-02T08:38:08Z</time></trkpt><trkpt lat="42.0414788576887" lon="2.9814754537315595"><ele>129.33333333333334</ele><time>2026-05-02T08:38:11Z</time></trkpt><trkpt lat="42.04160087717485" lon="2.9814930437052753"><ele>130.0</ele><time>2026-05-02T08:38:12Z</time></trkpt><trkpt lat="42.04166771049079" lon="2.981536620005701"><ele>131.0</ele><time>2026-05-02T08:38:14Z</time></trkpt><trkpt lat="42.04173510961689" lon="2.9815663499603366"><ele>132.0</ele><time>2026-05-02T08:38:16Z</time></trkpt><trkpt lat="42.041801082494246" lon="2.9815433605318504"><ele>133.0</ele><time>2026-05-02T08:38:18Z</time></trkpt><trkpt lat="42.041890152078906" lon="2.981523842403828"><ele>134.0</ele><time>2026-05-02T08:38:20Z</time></trkpt><trkpt lat="42.04199598117202" lon="2.9814773818234057"><ele>135.0</ele><time>2026-05-02T08:38:22Z</time></trkpt><trkpt lat="42.0420781503933" lon="2.9814307042137305"><ele>136.0</ele><time>2026-05-02T08:38:24Z</time></trkpt><trkpt lat="42.04215214708735" lon="2.9813824968932856"><ele>136.0</ele><time>2026-05-02T08:38:25.999Z</time></trkpt><trkpt lat="42.04221962619771" lon="2.9813343646909205"><ele>136.0</ele><time>2026-05-02T08:38:27.999Z</time></trkpt><trkpt lat="42.04232588902044" lon="2.9813143749578432"><ele>136.0</ele><time>2026-05-02T08:38:29.999Z</time></trkpt><trkpt lat="42.04243509129026" lon="2.981300120497398"><ele>136.0</ele><time>2026-05-02T08:38:31.999Z</time></trkpt><trkpt lat="42.04250600573055" lon="2.981262893912065"><ele>136.0</ele><time>2026-05-02T08:38:33.999Z</time></trkpt><trkpt lat="42.04254697792421" lon="2.981176279808942"><ele>136.0</ele><time>2026-05-02T08:38:35.999Z</time></trkpt><trkpt lat="42.04264166342226" lon="2.981208922217212"><ele>137.16666666666669</ele><time>2026-05-02T08:38:37.999Z</time></trkpt><trkpt lat="42.04272408170991" lon="2.981245861610812"><ele>138.33333333333334</ele><time>2026-05-02T08:38:39.999Z</time></trkpt><trkpt lat="42.04278894742214" lon="2.9812804144923715"><ele>139.5</ele><time>2026-05-02T08:38:41.999Z</time></trkpt><trkpt lat="42.04288041584359" lon="2.9812811396747088"><ele>140.66666666666666</ele><time>2026-05-02T08:38:44.999Z</time></trkpt><trkpt lat="42.042954109873676" lon="2.9812402652215106"><ele>141.83333333333331</ele><time>2026-05-02T08:38:46.999Z</time></trkpt><trkpt lat="42.04301832918282" lon="2.981183379119796"><ele>143.0</ele><time>2026-05-02T08:38:48.999Z</time></trkpt><trkpt lat="42.04308127473492" lon="2.981109118089951"><ele>143.0</ele><time>2026-05-02T08:38:50.999Z</time></trkpt><trkpt lat="42.043154994367995" lon="2.9810675361824703"><ele>143.0</ele><time>2026-05-02T08:38:52.999Z</time></trkpt><trkpt lat="42.04323405344775" lon="2.981043758295965"><ele>143.0</ele><time>2026-05-02T08:38:54.999Z</time></trkpt><trkpt lat="42.04332532475851" lon="2.9809905127607417"><ele>143.0</ele><time>2026-05-02T08:38:56.999Z</time></trkpt><trkpt lat="42.04342024725458" lon="2.980983467456285"><ele>143.0</ele><time>2026-05-02T08:38:58.999Z</time></trkpt><trkpt lat="42.043504568916866" lon="2.98089418274055"><ele>141.8</ele><time>2026-05-02T08:39:00.999Z</time></trkpt><trkpt lat="42.04358853925405" lon="2.9808407742052303"><ele>140.60000000000002</ele><time>2026-05-02T08:39:02.999Z</time></trkpt><trkpt lat="42.043668214058684" lon="2.9807480279359817"><ele>139.39999999999998</ele><time>2026-05-02T08:39:04.999Z</time></trkpt><trkpt lat="42.043751994661335" lon="2.980686902132878"><ele>138.2</ele><time>2026-05-02T08:39:06.999Z</time></trkpt><trkpt lat="42.04386645780828" lon="2.980686200992285"><ele>137.0</ele><time>2026-05-02T08:39:09.999Z</time></trkpt><trkpt lat="42.04393141499315" lon="2.9806811034584477"><ele>137.0</ele><time>2026-05-02T08:39:11.999Z</time></trkpt><trkpt lat="42.04401197936623" lon="2.980679142488957"><ele>137.0</ele><time>2026-05-02T08:39:14.999Z</time></trkpt><trkpt lat="42.04407481455089" lon="2.9807003200820223"><ele>137.0</ele><time>2026-05-02T08:39:16.999Z</time></trkpt><trkpt lat="42.04416278441571" lon="2.980717378061169"><ele>137.0</ele><time>2026-05-02T08:39:19.999Z</time></trkpt><trkpt lat="42.04423304146079" lon="2.9807773983948698"><ele>137.0</ele><time>2026-05-02T08:39:22.999Z</time></trkpt><trkpt lat="42.044253627648814" lon="2.9808837630969296"><ele>137.0</ele><time>2026-05-02T08:39:26.999Z</time></trkpt><trkpt lat="42.04428022294331" lon="2.980981164241599"><ele>139.66666666666666</ele><time>2026-05-02T08:39:30.999Z</time></trkpt><trkpt lat="42.044316245488055" lon="2.9810624259742013"><ele>142.33333333333331</ele><time>2026-05-02T08:39:34.999Z</time></trkpt><trkpt lat="42.044340924802" lon="2.9811489654131753"><ele>145.0</ele><time>2026-05-02T08:39:38.999Z</time></trkpt><trkpt lat="42.04436632917066" lon="2.981242840222935"><ele>147.66666666666666</ele><time>2026-05-02T08:39:43.999Z</time></trkpt><trkpt lat="42.04441020720772" lon="2.9813140470315154"><ele>150.33333333333334</ele><time>2026-05-02T08:39:48.999Z</time></trkpt><trkpt lat="42.044555564252796" lon="2.9813475718327713"><ele>153.0</ele><time>2026-05-02T08:39:57Z</time></trkpt><trkpt lat="42.04460408440414" lon="2.9814095574310406"><ele>153.0</ele><time>2026-05-02T08:40:00Z</time></trkpt><trkpt lat="42.044620405931674" lon="2.9815239546534156"><ele>153.0</ele><time>2026-05-02T08:40:03Z</time></trkpt><trkpt lat="42.04469366082523" lon="2.981712253237588"><ele>153.0</ele><time>2026-05-02T08:40:05Z</time></trkpt><trkpt lat="42.04472408132474" lon="2.981853677042945"><ele>153.0</ele><time>2026-05-02T08:40:07Z</time></trkpt><trkpt lat="42.044747313072016" lon="2.981972596158737"><ele>153.0</ele><time>2026-05-02T08:40:09Z</time></trkpt><trkpt lat="42.04477983731514" lon="2.9820900179519567"><ele>153.8</ele><time>2026-05-02T08:40:11Z</time></trkpt><trkpt lat="42.04480829185937" lon="2.9822222226306474"><ele>154.60000000000002</ele><time>2026-05-02T08:40:13Z</time></trkpt><trkpt lat="42.04483235131173" lon="2.9823643457314484"><ele>155.39999999999998</ele><time>2026-05-02T08:40:15Z</time></trkpt><trkpt lat="42.044844200582595" lon="2.982490893024189"><ele>156.2</ele><time>2026-05-02T08:40:17Z</time></trkpt><trkpt lat="42.044845878005276" lon="2.9826011506295598"><ele>157.0</ele><time>2026-05-02T08:40:19Z</time></trkpt><trkpt lat="42.04484132242758" lon="2.982713996685362"><ele>157.4</ele><time>2026-05-02T08:40:21Z</time></trkpt><trkpt lat="42.044822040479005" lon="2.9828275334443872"><ele>157.79999999999998</ele><time>2026-05-02T08:40:23Z</time></trkpt><trkpt lat="42.04480906407379" lon="2.9829644061310088"><ele>158.2</ele><time>2026-05-02T08:40:25Z</time></trkpt><trkpt lat="42.04474175143603" lon="2.9830612902248066"><ele>158.6</ele><time>2026-05-02T08:40:27Z</time></trkpt><trkpt lat="42.04471097412868" lon="2.983169334533217"><ele>159.0</ele><time>2026-05-02T08:40:29Z</time></trkpt><trkpt lat="42.04467900915891" lon="2.983295958481189"><ele>159.0</ele><time>2026-05-02T08:40:31Z</time></trkpt><trkpt lat="42.04465659683958" lon="2.9834129192978254"><ele>159.0</ele><time>2026-05-02T08:40:33Z</time></trkpt><trkpt lat="42.044641615958916" lon="2.9835062932344534"><ele>159.0</ele><time>2026-05-02T08:40:34Z</time></trkpt><trkpt lat="42.04463263299935" lon="2.9836513570572114"><ele>159.0</ele><time>2026-05-02T08:40:35.999Z</time></trkpt><trkpt lat="42.04462572085828" lon="2.9838023689364603"><ele>159.0</ele><time>2026-05-02T08:40:37.999Z</time></trkpt><trkpt lat="42.044619119231115" lon="2.983952001669866"><ele>159.0</ele><time>2026-05-02T08:40:39.999Z</time></trkpt><trkpt lat="42.04461242213516" lon="2.9840886390011256"><ele>159.0</ele><time>2026-05-02T08:40:41.999Z</time></trkpt><trkpt lat="42.04461823508242" lon="2.9842299802539323"><ele>159.0</ele><time>2026-05-02T08:40:43.999Z</time></trkpt><trkpt lat="42.04463388590174" lon="2.9843755667551704"><ele>159.0</ele><time>2026-05-02T08:40:45.999Z</time></trkpt><trkpt lat="42.04462236172904" lon="2.984524521810521"><ele>159.0</ele><time>2026-05-02T08:40:47.999Z</time></trkpt><trkpt lat="42.04457040872299" lon="2.984671340046889"><ele>157.2</ele><time>2026-05-02T08:40:49.999Z</time></trkpt><trkpt lat="42.0445051067108" lon="2.984795547420609"><ele>155.4</ele><time>2026-05-02T08:40:51.999Z</time></trkpt><trkpt lat="42.04445141843907" lon="2.9848879940512307"><ele>153.6</ele><time>2026-05-02T08:40:53.999Z</time></trkpt><trkpt lat="42.044426722923646" lon="2.9849947651659146"><ele>151.8</ele><time>2026-05-02T08:40:55.999Z</time></trkpt><trkpt lat="42.04442790779049" lon="2.985109353874776"><ele>150.0</ele><time>2026-05-02T08:40:57.999Z</time></trkpt><trkpt lat="42.044413268739554" lon="2.985223985506496"><ele>148.5</ele><time>2026-05-02T08:40:59.999Z</time></trkpt><trkpt lat="42.044393193497974" lon="2.985322319764184"><ele>147.0</ele><time>2026-05-02T08:41:01.999Z</time></trkpt><trkpt lat="42.04438611691495" lon="2.985440219234373"><ele>145.5</ele><time>2026-05-02T08:41:04.999Z</time></trkpt><trkpt lat="42.04440518273881" lon="2.9855246021412514"><ele>144.0</ele><time>2026-05-02T08:41:06.999Z</time></trkpt><trkpt lat="42.044450870333186" lon="2.985597965297114"><ele>142.5</ele><time>2026-05-02T08:41:08.999Z</time></trkpt><trkpt lat="42.0445139956914" lon="2.9856519148936247"><ele>141.0</ele><time>2026-05-02T08:41:10.999Z</time></trkpt><trkpt lat="42.04454877079601" lon="2.9857474235076102"><ele>141.0</ele><time>2026-05-02T08:41:12.999Z</time></trkpt><trkpt lat="42.04456977143" lon="2.9858330943499816"><ele>141.0</ele><time>2026-05-02T08:41:14.999Z</time></trkpt><trkpt lat="42.04461129453456" lon="2.9859086750906014"><ele>141.0</ele><time>2026-05-02T08:41:17.999Z</time></trkpt><trkpt lat="42.044803695044195" lon="2.985755908128065"><ele>141.0</ele><time>2026-05-02T08:41:23.999Z</time></trkpt><trkpt lat="42.044892239148105" lon="2.985691525914871"><ele>139.83333333333334</ele><time>2026-05-02T08:41:25.999Z</time></trkpt><trkpt lat="42.044994803286784" lon="2.985630406067191"><ele>138.66666666666666</ele><time>2026-05-02T08:41:27.999Z</time></trkpt><trkpt lat="42.04505270357828" lon="2.985594708106825"><ele>137.5</ele><time>2026-05-02T08:41:28.999Z</time></trkpt><trkpt lat="42.04510936208684" lon="2.98555562386117"><ele>136.33333333333331</ele><time>2026-05-02T08:41:29.999Z</time></trkpt><trkpt lat="42.04521835203533" lon="2.9854771386856345"><ele>135.16666666666666</ele><time>2026-05-02T08:41:31.999Z</time></trkpt><trkpt lat="42.04527676159352" lon="2.9854314063951866"><ele>134.0</ele><time>2026-05-02T08:41:32.999Z</time></trkpt><trkpt lat="42.045331755669345" lon="2.9853815707108984"><ele>134.0</ele><time>2026-05-02T08:41:33.999Z</time></trkpt><trkpt lat="42.04539015941884" lon="2.9853290224836195"><ele>134.0</ele><time>2026-05-02T08:41:34.999Z</time></trkpt><trkpt lat="42.04544783469692" lon="2.985276513884464"><ele>134.0</ele><time>2026-05-02T08:41:35.999Z</time></trkpt><trkpt lat="42.04550509815063" lon="2.9852262281521575"><ele>134.0</ele><time>2026-05-02T08:41:36.999Z</time></trkpt><trkpt lat="42.0455570178954" lon="2.985178118234382"><ele>134.0</ele><time>2026-05-02T08:41:37.999Z</time></trkpt><trkpt lat="42.045670037534634" lon="2.98508658275279"><ele>134.0</ele><time>2026-05-02T08:41:39.999Z</time></trkpt><trkpt lat="42.04572715212739" lon="2.9850486338359756"><ele>133.66666666666666</ele><time>2026-05-02T08:41:40.999Z</time></trkpt><trkpt lat="42.04578483525412" lon="2.9850101186197837"><ele>133.33333333333331</ele><time>2026-05-02T08:41:41.999Z</time></trkpt><trkpt lat="42.045847210259275" lon="2.9849802014899516"><ele>133.0</ele><time>2026-05-02T08:41:42.999Z</time></trkpt><trkpt lat="42.0459092400096" lon="2.9849593197269564"><ele>132.66666666666666</ele><time>2026-05-02T08:41:43.999Z</time></trkpt><trkpt lat="42.04600598199389" lon="2.9848988557909424"><ele>132.33333333333334</ele><time>2026-05-02T08:41:45.999Z</time></trkpt><trkpt lat="42.046093800181374" lon="2.9847866078139442"><ele>132.0</ele><time>2026-05-02T08:41:47.999Z</time></trkpt><trkpt lat="42.04613749774469" lon="2.9847231679794777"><ele>132.0</ele><time>2026-05-02T08:41:48.999Z</time></trkpt><trkpt lat="42.04617570915891" lon="2.9846500951784747"><ele>132.0</ele><time>2026-05-02T08:41:49.999Z</time></trkpt><trkpt lat="42.04621429607571" lon="2.9845713074454103"><ele>132.0</ele><time>2026-05-02T08:41:50.999Z</time></trkpt><trkpt lat="42.04625477294673" lon="2.984487706680149"><ele>132.0</ele><time>2026-05-02T08:41:51.999Z</time></trkpt><trkpt lat="42.04629454566977" lon="2.9844138332796057"><ele>132.0</ele><time>2026-05-02T08:41:52.999Z</time></trkpt><trkpt lat="42.046336727418925" lon="2.984344925949416"><ele>132.0</ele><time>2026-05-02T08:41:53.999Z</time></trkpt><trkpt lat="42.04643248245101" lon="2.9842360240242365"><ele>132.0</ele><time>2026-05-02T08:41:55.999Z</time></trkpt><trkpt lat="42.04649106133035" lon="2.9842033809843422"><ele>132.0</ele><time>2026-05-02T08:41:56.999Z</time></trkpt><trkpt lat="42.046549028041724" lon="2.9841627158498434"><ele>132.0</ele><time>2026-05-02T08:41:57.999Z</time></trkpt><trkpt lat="42.046596956347905" lon="2.9841004615356717"><ele>132.0</ele><time>2026-05-02T08:41:58.999Z</time></trkpt><trkpt lat="42.0466529107099" lon="2.9840317038787525"><ele>132.0</ele><time>2026-05-02T08:41:59.999Z</time></trkpt><trkpt lat="42.046703058093385" lon="2.983969039560402"><ele>132.0</ele><time>2026-05-02T08:42:00.999Z</time></trkpt><trkpt lat="42.046751606142664" lon="2.983907028591824"><ele>132.0</ele><time>2026-05-02T08:42:02Z</time></trkpt><trkpt lat="42.04680114632993" lon="2.9838471903869586"><ele>131.75</ele><time>2026-05-02T08:42:03Z</time></trkpt><trkpt lat="42.04689386067966" lon="2.983727769087418"><ele>131.5</ele><time>2026-05-02T08:42:05Z</time></trkpt><trkpt lat="42.046994261319725" lon="2.983639701866627"><ele>131.25</ele><time>2026-05-02T08:42:07Z</time></trkpt><trkpt lat="42.047123187308166" lon="2.9836004239613003"><ele>131.0</ele><time>2026-05-02T08:42:09Z</time></trkpt><trkpt lat="42.04719263957042" lon="2.983596197480534"><ele>131.0</ele><time>2026-05-02T08:42:10Z</time></trkpt><trkpt lat="42.04727031364161" lon="2.9835915203707897"><ele>131.0</ele><time>2026-05-02T08:42:11Z</time></trkpt><trkpt lat="42.047343276462996" lon="2.9835879940286794"><ele>131.0</ele><time>2026-05-02T08:42:12Z</time></trkpt><trkpt lat="42.04741646368062" lon="2.9835997436124595"><ele>131.0</ele><time>2026-05-02T08:42:13Z</time></trkpt><trkpt lat="42.04749302026975" lon="2.9836251941997567"><ele>131.0</ele><time>2026-05-02T08:42:14Z</time></trkpt><trkpt lat="42.04755969274466" lon="2.983663502061593"><ele>131.0</ele><time>2026-05-02T08:42:15Z</time></trkpt><trkpt lat="42.047618940379905" lon="2.9837017391400207"><ele>131.0</ele><time>2026-05-02T08:42:16Z</time></trkpt><trkpt lat="42.04774525648461" lon="2.9837429372781887"><ele>129.5</ele><time>2026-05-02T08:42:18Z</time></trkpt><trkpt lat="42.04785358489814" lon="2.9838172071727542"><ele>128.0</ele><time>2026-05-02T08:42:20Z</time></trkpt><trkpt lat="42.04789338265848" lon="2.983887248147237"><ele>126.5</ele><time>2026-05-02T08:42:21Z</time></trkpt><trkpt lat="42.047932754324194" lon="2.9839661944511646"><ele>125.0</ele><time>2026-05-02T08:42:22Z</time></trkpt><trkpt lat="42.04797657156407" lon="2.984035756310803"><ele>123.49999999999999</ele><time>2026-05-02T08:42:23Z</time></trkpt><trkpt lat="42.04807093923101" lon="2.984130718209573"><ele>122.0</ele><time>2026-05-02T08:42:25Z</time></trkpt><trkpt lat="42.04821466699479" lon="2.984045964896936"><ele>121.25</ele><time>2026-05-02T08:42:29Z</time></trkpt><trkpt lat="42.0483063272973" lon="2.983953017534846"><ele>120.5</ele><time>2026-05-02T08:42:31Z</time></trkpt><trkpt lat="42.04842135200928" lon="2.9839285713206185"><ele>119.75</ele><time>2026-05-02T08:42:33Z</time></trkpt><trkpt lat="42.0485392924652" lon="2.98392230403772"><ele>119.0</ele><time>2026-05-02T08:42:35Z</time></trkpt><trkpt lat="42.04865243479824" lon="2.983905009199331"><ele>118.99999999999999</ele><time>2026-05-02T08:42:37Z</time></trkpt><trkpt lat="42.04876541820331" lon="2.9838984611193773"><ele>119.0</ele><time>2026-05-02T08:42:39Z</time></trkpt><trkpt lat="42.04887874337732" lon="2.983923430823904"><ele>119.0</ele><time>2026-05-02T08:42:41Z</time></trkpt><trkpt lat="42.048940763394505" lon="2.9839394274342794"><ele>119.0</ele><time>2026-05-02T08:42:42Z</time></trkpt><trkpt lat="42.04900354540459" lon="2.983951067430748"><ele>118.99999999999999</ele><time>2026-05-02T08:42:43Z</time></trkpt><trkpt lat="42.049072965265765" lon="2.9839442708576107"><ele>119.0</ele><time>2026-05-02T08:42:43.999Z</time></trkpt><trkpt lat="42.04913599907608" lon="2.983928327853486"><ele>117.33333333333333</ele><time>2026-05-02T08:42:44.999Z</time></trkpt><trkpt lat="42.04924326873617" lon="2.983911339460575"><ele>115.66666666666666</ele><time>2026-05-02T08:42:46.999Z</time></trkpt><trkpt lat="42.04933971152217" lon="2.983888403028581"><ele>114.0</ele><time>2026-05-02T08:42:48.999Z</time></trkpt><trkpt lat="42.04942319064279" lon="2.9838802129928537"><ele>112.33333333333334</ele><time>2026-05-02T08:42:50.999Z</time></trkpt><trkpt lat="42.04948278975957" lon="2.983944807521971"><ele>110.66666666666667</ele><time>2026-05-02T08:42:52.999Z</time></trkpt><trkpt lat="42.049504877622056" lon="2.984045233569542"><ele>109.0</ele><time>2026-05-02T08:42:54.999Z</time></trkpt><trkpt lat="42.04953663433547" lon="2.9841408222091097"><ele>109.2</ele><time>2026-05-02T08:42:56.999Z</time></trkpt><trkpt lat="42.04958670970767" lon="2.9842302001257734"><ele>109.4</ele><time>2026-05-02T08:42:58.999Z</time></trkpt><trkpt lat="42.049680996028194" lon="2.9842889076144394"><ele>109.6</ele><time>2026-05-02T08:43:00.999Z</time></trkpt><trkpt lat="42.049786194582424" lon="2.984302787404623"><ele>109.8</ele><time>2026-05-02T08:43:02.999Z</time></trkpt><trkpt lat="42.04989117358816" lon="2.984295195212439"><ele>110.0</ele><time>2026-05-02T08:43:04.999Z</time></trkpt><trkpt lat="42.0500000310597" lon="2.9842795180032673"><ele>109.0</ele><time>2026-05-02T08:43:06.999Z</time></trkpt><trkpt lat="42.05010157228798" lon="2.984253522132592"><ele>108.0</ele><time>2026-05-02T08:43:08.999Z</time></trkpt><trkpt lat="42.05020398769879" lon="2.9841773498522146"><ele>107.0</ele><time>2026-05-02T08:43:10.999Z</time></trkpt><trkpt lat="42.05026504293352" lon="2.9841362210210063"><ele>106.0</ele><time>2026-05-02T08:43:11.999Z</time></trkpt><trkpt lat="42.050321662243455" lon="2.9840941690961227"><ele>105.0</ele><time>2026-05-02T08:43:12.999Z</time></trkpt><trkpt lat="42.05043577252971" lon="2.984021305884625"><ele>105.0</ele><time>2026-05-02T08:43:14.999Z</time></trkpt><trkpt lat="42.05054523314227" lon="2.98394495374705"><ele>105.0</ele><time>2026-05-02T08:43:16.999Z</time></trkpt><trkpt lat="42.05065646045962" lon="2.983877776159868"><ele>105.0</ele><time>2026-05-02T08:43:18.999Z</time></trkpt><trkpt lat="42.05075761116817" lon="2.983808596167723"><ele>105.0</ele><time>2026-05-02T08:43:20.999Z</time></trkpt><trkpt lat="42.050852097831836" lon="2.9837642473897605"><ele>104.0</ele><time>2026-05-02T08:43:22.999Z</time></trkpt><trkpt lat="42.050937922561644" lon="2.9837488560181273"><ele>103.0</ele><time>2026-05-02T08:43:24.999Z</time></trkpt><trkpt lat="42.05100524587739" lon="2.9837792848340574"><ele>102.0</ele><time>2026-05-02T08:43:26.999Z</time></trkpt><trkpt lat="42.05105115925973" lon="2.9838924280620285"><ele>101.0</ele><time>2026-05-02T08:43:28.999Z</time></trkpt><trkpt lat="42.0511020469663" lon="2.984049590765433"><ele>100.0</ele><time>2026-05-02T08:43:30.999Z</time></trkpt><trkpt lat="42.05112937801799" lon="2.9841284966931365"><ele>99.0</ele><time>2026-05-02T08:43:31.999Z</time></trkpt><trkpt lat="42.05114291610026" lon="2.984213840092763"><ele>99.0</ele><time>2026-05-02T08:43:32.999Z</time></trkpt><trkpt lat="42.051149815505084" lon="2.9843385996186393"><ele>99.0</ele><time>2026-05-02T08:43:34.999Z</time></trkpt><trkpt lat="42.05110462089698" lon="2.9844174337298917"><ele>99.0</ele><time>2026-05-02T08:43:36.999Z</time></trkpt><trkpt lat="42.0510526987321" lon="2.9844687226539843"><ele>99.0</ele><time>2026-05-02T08:43:38.999Z</time></trkpt><trkpt lat="42.05104586453599" lon="2.9845638564865977"><ele>99.0</ele><time>2026-05-02T08:43:41.999Z</time></trkpt><trkpt lat="42.05105289415388" lon="2.9846540781850033"><ele>99.0</ele><time>2026-05-02T08:43:45.999Z</time></trkpt><trkpt lat="42.051055407021" lon="2.9847585083532384"><ele>99.0</ele><time>2026-05-02T08:43:49.999Z</time></trkpt><trkpt lat="42.05105736047852" lon="2.9848670199736747"><ele>99.0</ele><time>2026-05-02T08:43:52.999Z</time></trkpt><trkpt lat="42.05107050895276" lon="2.9849827370369226"><ele>99.0</ele><time>2026-05-02T08:43:55.999Z</time></trkpt><trkpt lat="42.051057678014296" lon="2.9850770415005403"><ele>99.0</ele><time>2026-05-02T08:43:58.999Z</time></trkpt><trkpt lat="42.05104963380752" lon="2.9852166942082716"><ele>99.0</ele><time>2026-05-02T08:44:01.999Z</time></trkpt><trkpt lat="42.05104550588804" lon="2.9853402167687237"><ele>99.0</ele><time>2026-05-02T08:44:04.999Z</time></trkpt><trkpt lat="42.05104506679711" lon="2.98546551510935"><ele>99.0</ele><time>2026-05-02T08:44:06.999Z</time></trkpt><trkpt lat="42.051048827429234" lon="2.9855915450691173"><ele>100.0</ele><time>2026-05-02T08:44:10Z</time></trkpt><trkpt lat="42.0510643765852" lon="2.9856764847885637"><ele>101.0</ele><time>2026-05-02T08:44:12Z</time></trkpt><trkpt lat="42.05113287520247" lon="2.9857526945087858"><ele>102.0</ele><time>2026-05-02T08:44:16Z</time></trkpt><trkpt lat="42.05119274609519" lon="2.985782796252681"><ele>103.0</ele><time>2026-05-02T08:44:18Z</time></trkpt><trkpt lat="42.05128786004255" lon="2.9858063187025508"><ele>104.0</ele><time>2026-05-02T08:44:20Z</time></trkpt><trkpt lat="42.05135399424291" lon="2.985820378770678"><ele>105.0</ele><time>2026-05-02T08:44:22Z</time></trkpt><trkpt lat="42.05142633874832" lon="2.9858466566784636"><ele>105.2</ele><time>2026-05-02T08:44:24Z</time></trkpt><trkpt lat="42.051502700265054" lon="2.9858686205509963"><ele>105.4</ele><time>2026-05-02T08:44:27Z</time></trkpt><trkpt lat="42.05161912422911" lon="2.9858794691034665"><ele>105.6</ele><time>2026-05-02T08:44:29Z</time></trkpt><trkpt lat="42.051705816237195" lon="2.9858419776904292"><ele>105.8</ele><time>2026-05-02T08:44:32Z</time></trkpt><trkpt lat="42.051793017408315" lon="2.985797907104243"><ele>106.0</ele><time>2026-05-02T08:44:35Z</time></trkpt><trkpt lat="42.051863346979594" lon="2.9857664344748835"><ele>106.00000000000001</ele><time>2026-05-02T08:44:37Z</time></trkpt><trkpt lat="42.05190939273926" lon="2.9857009206331657"><ele>106.0</ele><time>2026-05-02T08:44:39Z</time></trkpt><trkpt lat="42.05195594751213" lon="2.985606943050764"><ele>106.0</ele><time>2026-05-02T08:44:41Z</time></trkpt><trkpt lat="42.052004568543644" lon="2.9854965197672545"><ele>106.0</ele><time>2026-05-02T08:44:43Z</time></trkpt><trkpt lat="42.05206190228424" lon="2.9853770546047564"><ele>106.00000000000001</ele><time>2026-05-02T08:44:45Z</time></trkpt><trkpt lat="42.05209082318619" lon="2.9852730902782008"><ele>106.0</ele><time>2026-05-02T08:44:47Z</time></trkpt><trkpt lat="42.052096289238754" lon="2.9851653647397183"><ele>106.0</ele><time>2026-05-02T08:44:49Z</time></trkpt><trkpt lat="42.05206471784031" lon="2.98506886901555"><ele>106.0</ele><time>2026-05-02T08:44:51Z</time></trkpt><trkpt lat="42.052019226791295" lon="2.984940847519428"><ele>106.0</ele><time>2026-05-02T08:44:53Z</time></trkpt><trkpt lat="42.051992491712745" lon="2.9848165681785765"><ele>106.0</ele><time>2026-05-02T08:44:55Z</time></trkpt><trkpt lat="42.05198799181626" lon="2.9846821809373445"><ele>106.0</ele><time>2026-05-02T08:44:57Z</time></trkpt><trkpt lat="42.05201080664189" lon="2.9845507902706374"><ele>104.25</ele><time>2026-05-02T08:44:59Z</time></trkpt><trkpt lat="42.05205614556591" lon="2.984428922287789"><ele>102.5</ele><time>2026-05-02T08:45:00.999Z</time></trkpt><trkpt lat="42.05212592444588" lon="2.984310562239564"><ele>100.75</ele><time>2026-05-02T08:45:02.999Z</time></trkpt><trkpt lat="42.05218951176937" lon="2.9841864321163643"><ele>99.0</ele><time>2026-05-02T08:45:04.999Z</time></trkpt><trkpt lat="42.05227100630935" lon="2.9840582437872665"><ele>99.0</ele><time>2026-05-02T08:45:06.999Z</time></trkpt><trkpt lat="42.05231340141134" lon="2.9839848321012705"><ele>99.0</ele><time>2026-05-02T08:45:07.999Z</time></trkpt><trkpt lat="42.05235418871196" lon="2.983913002149114"><ele>99.0</ele><time>2026-05-02T08:45:08.999Z</time></trkpt><trkpt lat="42.05239368792963" lon="2.983841886016427"><ele>99.0</ele><time>2026-05-02T08:45:09.999Z</time></trkpt><trkpt lat="42.05243429095066" lon="2.983776145789957"><ele>99.0</ele><time>2026-05-02T08:45:10.999Z</time></trkpt><trkpt lat="42.05247760042887" lon="2.983703865738796"><ele>99.0</ele><time>2026-05-02T08:45:11.999Z</time></trkpt><trkpt lat="42.05251556727641" lon="2.983625316209729"><ele>99.0</ele><time>2026-05-02T08:45:12.999Z</time></trkpt><trkpt lat="42.052579461363614" lon="2.9834802128170326"><ele>99.0</ele><time>2026-05-02T08:45:14.999Z</time></trkpt><trkpt lat="42.052615745009724" lon="2.983407559663216"><ele>99.0</ele><time>2026-05-02T08:45:15.999Z</time></trkpt><trkpt lat="42.0526530188641" lon="2.983334632277802"><ele>99.0</ele><time>2026-05-02T08:45:16.999Z</time></trkpt><trkpt lat="42.052722338386246" lon="2.9831981544011175"><ele>99.0</ele><time>2026-05-02T08:45:18.999Z</time></trkpt><trkpt lat="42.05278958461611" lon="2.983062089201671"><ele>99.0</ele><time>2026-05-02T08:45:20.999Z</time></trkpt><trkpt lat="42.052866078439195" lon="2.9829271640812856"><ele>100.16666666666667</ele><time>2026-05-02T08:45:22.999Z</time></trkpt><trkpt lat="42.052953196690844" lon="2.982847861652754"><ele>101.33333333333334</ele><time>2026-05-02T08:45:24.999Z</time></trkpt><trkpt lat="42.0530229274422" lon="2.98281257812771"><ele>102.5</ele><time>2026-05-02T08:45:26.999Z</time></trkpt><trkpt lat="42.05308184916899" lon="2.9827817391058256"><ele>103.66666666666667</ele><time>2026-05-02T08:45:28.999Z</time></trkpt><trkpt lat="42.05315339532141" lon="2.9827377632893346"><ele>104.83333333333334</ele><time>2026-05-02T08:45:31.999Z</time></trkpt><trkpt lat="42.05321956593285" lon="2.982688451534267"><ele>106.0</ele><time>2026-05-02T08:45:34.999Z</time></trkpt><trkpt lat="42.053290201239484" lon="2.982653563020044"><ele>106.0</ele><time>2026-05-02T08:45:38.999Z</time></trkpt><trkpt lat="42.05336457965545" lon="2.9826245576059818"><ele>106.0</ele><time>2026-05-02T08:45:42.999Z</time></trkpt><trkpt lat="42.05343176656963" lon="2.982599581395953"><ele>106.0</ele><time>2026-05-02T08:45:46.999Z</time></trkpt><trkpt lat="42.05350311122032" lon="2.9825783769413885"><ele>106.0</ele><time>2026-05-02T08:45:50.999Z</time></trkpt><trkpt lat="42.05357550014475" lon="2.9825589718267747"><ele>106.0</ele><time>2026-05-02T08:45:55.999Z</time></trkpt><trkpt lat="42.05364062497686" lon="2.9825241308976134"><ele>106.0</ele><time>2026-05-02T08:45:59.999Z</time></trkpt><trkpt lat="42.053704550072744" lon="2.9824978707155725"><ele>106.0</ele><time>2026-05-02T08:46:03.999Z</time></trkpt><trkpt lat="42.053778336601795" lon="2.9824875287069084"><ele>106.0</ele><time>2026-05-02T08:46:08.999Z</time></trkpt><trkpt lat="42.05385414454231" lon="2.982485663605596"><ele>106.0</ele><time>2026-05-02T08:46:14Z</time></trkpt><trkpt lat="42.053909649948544" lon="2.9825273330452102"><ele>106.0</ele><time>2026-05-02T08:46:18Z</time></trkpt><trkpt lat="42.05395468089281" lon="2.982587426618773"><ele>106.0</ele><time>2026-05-02T08:46:22Z</time></trkpt><trkpt lat="42.05399462516912" lon="2.982660412432416"><ele>106.0</ele><time>2026-05-02T08:46:26Z</time></trkpt><trkpt lat="42.05402841371536" lon="2.9827539608149"><ele>106.0</ele><time>2026-05-02T08:46:29Z</time></trkpt><trkpt lat="42.054075570818384" lon="2.982827701961013"><ele>106.0</ele><time>2026-05-02T08:46:32Z</time></trkpt><trkpt lat="42.054130895878004" lon="2.9828873460839223"><ele>106.66666666666667</ele><time>2026-05-02T08:46:34Z</time></trkpt><trkpt lat="42.05419400348437" lon="2.9829470532722566"><ele>107.33333333333334</ele><time>2026-05-02T08:46:36Z</time></trkpt><trkpt lat="42.054259318264236" lon="2.9830127261937904"><ele>108.0</ele><time>2026-05-02T08:46:38Z</time></trkpt><trkpt lat="42.0543339127772" lon="2.9830852072644785"><ele>108.66666666666666</ele><time>2026-05-02T08:46:40Z</time></trkpt><trkpt lat="42.05441003174167" lon="2.9831690858010793"><ele>109.33333333333333</ele><time>2026-05-02T08:46:42Z</time></trkpt><trkpt lat="42.05447526704136" lon="2.9832305581719227"><ele>110.0</ele><time>2026-05-02T08:46:44Z</time></trkpt><trkpt lat="42.05455175161536" lon="2.9832967000386104"><ele>109.99999999999999</ele><time>2026-05-02T08:46:46Z</time></trkpt><trkpt lat="42.05462670063893" lon="2.9833445534947423"><ele>110.0</ele><time>2026-05-02T08:46:48Z</time></trkpt><trkpt lat="42.054713534219424" lon="2.9833647887528585"><ele>110.0</ele><time>2026-05-02T08:46:50Z</time></trkpt><trkpt lat="42.05480309492038" lon="2.983403536821688"><ele>110.0</ele><time>2026-05-02T08:46:52Z</time></trkpt><trkpt lat="42.05487814493882" lon="2.9834610612625667"><ele>109.99999999999999</ele><time>2026-05-02T08:46:54Z</time></trkpt><trkpt lat="42.054934719295794" lon="2.9835408226087785"><ele>110.0</ele><time>2026-05-02T08:46:56Z</time></trkpt><trkpt lat="42.05496485559458" lon="2.983653009288444"><ele>108.4</ele><time>2026-05-02T08:46:58Z</time></trkpt><trkpt lat="42.05496581030064" lon="2.983803020020963"><ele>106.8</ele><time>2026-05-02T08:47:00Z</time></trkpt><trkpt lat="42.054992346735986" lon="2.983903313704571"><ele>105.19999999999999</ele><time>2026-05-02T08:47:02Z</time></trkpt><trkpt lat="42.05505370679563" lon="2.983972116459309"><ele>103.6</ele><time>2026-05-02T08:47:04Z</time></trkpt><trkpt lat="42.055174242680835" lon="2.9839824482695843"><ele>102.0</ele><time>2026-05-02T08:47:06Z</time></trkpt><trkpt lat="42.055249074679416" lon="2.9839730256667427"><ele>102.0</ele><time>2026-05-02T08:47:07Z</time></trkpt><trkpt lat="42.05532036124112" lon="2.9839708099137465"><ele>102.0</ele><time>2026-05-02T08:47:08Z</time></trkpt><trkpt lat="42.055388598160555" lon="2.983971502864546"><ele>102.0</ele><time>2026-05-02T08:47:09Z</time></trkpt><trkpt lat="42.05546247721676" lon="2.9839710777661796"><ele>102.0</ele><time>2026-05-02T08:47:09.999Z</time></trkpt><trkpt lat="42.05553769714787" lon="2.9839811477608182"><ele>102.0</ele><time>2026-05-02T08:47:10.999Z</time></trkpt><trkpt lat="42.0556099353975" lon="2.9839898898596298"><ele>102.0</ele><time>2026-05-02T08:47:11.999Z</time></trkpt><trkpt lat="42.05567619493922" lon="2.9839911710940714"><ele>102.0</ele><time>2026-05-02T08:47:12.999Z</time></trkpt><trkpt lat="42.05579075140946" lon="2.9839944477537528"><ele>100.16666666666667</ele><time>2026-05-02T08:47:14.999Z</time></trkpt><trkpt lat="42.05590843079944" lon="2.983976273105793"><ele>98.33333333333333</ele><time>2026-05-02T08:47:16.999Z</time></trkpt><trkpt lat="42.05597308958048" lon="2.983961781218904"><ele>96.5</ele><time>2026-05-02T08:47:17.999Z</time></trkpt><trkpt lat="42.05603573746105" lon="2.9839401851004204"><ele>94.66666666666666</ele><time>2026-05-02T08:47:18.999Z</time></trkpt><trkpt lat="42.05610004953508" lon="2.9839185611388555"><ele>92.83333333333333</ele><time>2026-05-02T08:47:19.999Z</time></trkpt><trkpt lat="42.05616738305118" lon="2.9839065779679843"><ele>91.0</ele><time>2026-05-02T08:47:20.999Z</time></trkpt><trkpt lat="42.05623483987591" lon="2.9839036692364744"><ele>91.0</ele><time>2026-05-02T08:47:21.999Z</time></trkpt><trkpt lat="42.0563005524739" lon="2.9839150710126785"><ele>91.0</ele><time>2026-05-02T08:47:22.999Z</time></trkpt><trkpt lat="42.05642092830036" lon="2.983921369292156"><ele>91.0</ele><time>2026-05-02T08:47:24.999Z</time></trkpt><trkpt lat="42.056536223980764" lon="2.9839205421784"><ele>91.0</ele><time>2026-05-02T08:47:26.999Z</time></trkpt><trkpt lat="42.05663577605434" lon="2.9839266430524174"><ele>91.0</ele><time>2026-05-02T08:47:28.999Z</time></trkpt><trkpt lat="42.05673315902076" lon="2.983954868740388"><ele>90.16666666666666</ele><time>2026-05-02T08:47:30.999Z</time></trkpt><trkpt lat="42.056822712545866" lon="2.9839949034310482"><ele>89.33333333333333</ele><time>2026-05-02T08:47:32.999Z</time></trkpt><trkpt lat="42.056926243747185" lon="2.9840635459884415"><ele>88.5</ele><time>2026-05-02T08:47:34.999Z</time></trkpt><trkpt lat="42.056978430925625" lon="2.984114244964821"><ele>87.66666666666667</ele><time>2026-05-02T08:47:35.999Z</time></trkpt><trkpt lat="42.057033748979904" lon="2.984172594820892"><ele>86.83333333333334</ele><time>2026-05-02T08:47:36.999Z</time></trkpt><trkpt lat="42.057086160908874" lon="2.984240468974638"><ele>86.0</ele><time>2026-05-02T08:47:37.999Z</time></trkpt><trkpt lat="42.05718169758942" lon="2.9843614417906394"><ele>85.0</ele><time>2026-05-02T08:47:39.999Z</time></trkpt><trkpt lat="42.057256050604444" lon="2.984494433071937"><ele>84.0</ele><time>2026-05-02T08:47:41.999Z</time></trkpt><trkpt lat="42.057294143586496" lon="2.9846520859044827"><ele>83.0</ele><time>2026-05-02T08:47:43.999Z</time></trkpt><trkpt lat="42.05729882864539" lon="2.9848144574390214"><ele>82.0</ele><time>2026-05-02T08:47:45.999Z</time></trkpt><trkpt lat="42.057280537105875" lon="2.98497320660048"><ele>81.33333333333333</ele><time>2026-05-02T08:47:47.999Z</time></trkpt><trkpt lat="42.05724803614256" lon="2.98513137359261"><ele>80.66666666666666</ele><time>2026-05-02T08:47:49.999Z</time></trkpt><trkpt lat="42.057232325583314" lon="2.98521805750791"><ele>80.0</ele><time>2026-05-02T08:47:50.999Z</time></trkpt><trkpt lat="42.05721518491729" lon="2.985304114876062"><ele>79.33333333333333</ele><time>2026-05-02T08:47:51.999Z</time></trkpt><trkpt lat="42.057198383151814" lon="2.985386838245275"><ele>78.66666666666667</ele><time>2026-05-02T08:47:52.999Z</time></trkpt><trkpt lat="42.05717160321013" lon="2.985546584928016"><ele>78.0</ele><time>2026-05-02T08:47:54.999Z</time></trkpt><trkpt lat="42.0571360819502" lon="2.9856999780284474"><ele>78.0</ele><time>2026-05-02T08:47:56.999Z</time></trkpt><trkpt lat="42.05710172649304" lon="2.9858399478723032"><ele>78.0</ele><time>2026-05-02T08:47:58.999Z</time></trkpt><trkpt lat="42.05707755274283" lon="2.9859732707397746"><ele>78.0</ele><time>2026-05-02T08:48:00.999Z</time></trkpt><trkpt lat="42.05708718648764" lon="2.986120242371234"><ele>78.0</ele><time>2026-05-02T08:48:02.999Z</time></trkpt><trkpt lat="42.05713413980113" lon="2.9862426140840683"><ele>78.0</ele><time>2026-05-02T08:48:04.999Z</time></trkpt><trkpt lat="42.057192276134415" lon="2.9863745044480168"><ele>77.83333333333333</ele><time>2026-05-02T08:48:06.999Z</time></trkpt><trkpt lat="42.05723948280826" lon="2.9864779299148765"><ele>77.66666666666667</ele><time>2026-05-02T08:48:08.999Z</time></trkpt><trkpt lat="42.05727525412142" lon="2.9865658046907533"><ele>77.5</ele><time>2026-05-02T08:48:10.999Z</time></trkpt><trkpt lat="42.05730695606133" lon="2.986640759837225"><ele>77.33333333333334</ele><time>2026-05-02T08:48:13.999Z</time></trkpt><trkpt lat="42.05736349635228" lon="2.9867009101124498"><ele>77.16666666666667</ele><time>2026-05-02T08:48:16.999Z</time></trkpt><trkpt lat="42.05742863619809" lon="2.9867551491955724"><ele>77.0</ele><time>2026-05-02T08:48:18.999Z</time></trkpt><trkpt lat="42.05751179045844" lon="2.986782987524989"><ele>76.83333333333334</ele><time>2026-05-02T08:48:22Z</time></trkpt><trkpt lat="42.0575784999334" lon="2.986808137064137"><ele>76.66666666666667</ele><time>2026-05-02T08:48:24Z</time></trkpt><trkpt lat="42.05765294877991" lon="2.9868478486610583"><ele>76.5</ele><time>2026-05-02T08:48:26Z</time></trkpt><trkpt lat="42.05772798007077" lon="2.9869223467727517"><ele>76.33333333333333</ele><time>2026-05-02T08:48:28Z</time></trkpt><trkpt lat="42.057795206013374" lon="2.987015956345196"><ele>76.16666666666666</ele><time>2026-05-02T08:48:30Z</time></trkpt><trkpt lat="42.05785446565571" lon="2.9871122458266397"><ele>76.0</ele><time>2026-05-02T08:48:32Z</time></trkpt><trkpt lat="42.05790904155362" lon="2.9872152477553984"><ele>76.0</ele><time>2026-05-02T08:48:34Z</time></trkpt><trkpt lat="42.05796396592726" lon="2.987313947112029"><ele>76.0</ele><time>2026-05-02T08:48:36Z</time></trkpt><trkpt lat="42.05801193787505" lon="2.987396223153733"><ele>76.0</ele><time>2026-05-02T08:48:38Z</time></trkpt><trkpt lat="42.05807335159058" lon="2.987452980653422"><ele>76.0</ele><time>2026-05-02T08:48:40Z</time></trkpt><trkpt lat="42.05823687320581" lon="2.9874062345932106"><ele>76.0</ele><time>2026-05-02T08:48:44Z</time></trkpt><trkpt lat="42.058323592474785" lon="2.987348695850671"><ele>76.39999999999999</ele><time>2026-05-02T08:48:46Z</time></trkpt><trkpt lat="42.05839403712051" lon="2.9873589664491513"><ele>76.8</ele><time>2026-05-02T08:48:48Z</time></trkpt><trkpt lat="42.05845872837505" lon="2.98735252952763"><ele>77.19999999999999</ele><time>2026-05-02T08:48:50Z</time></trkpt><trkpt lat="42.05850634100169" lon="2.98721295169445"><ele>77.6</ele><time>2026-05-02T08:48:52Z</time></trkpt><trkpt lat="42.05855156130606" lon="2.9870693202758694"><ele>78.0</ele><time>2026-05-02T08:48:54Z</time></trkpt><trkpt lat="42.05861017947259" lon="2.986924186050626"><ele>78.0</ele><time>2026-05-02T08:48:56Z</time></trkpt><trkpt lat="42.05863955939738" lon="2.986845278185365"><ele>78.0</ele><time>2026-05-02T08:48:57Z</time></trkpt><trkpt lat="42.05866713705276" lon="2.9867656213693783"><ele>78.0</ele><time>2026-05-02T08:48:58Z</time></trkpt><trkpt lat="42.05868883602281" lon="2.986683160714336"><ele>78.0</ele><time>2026-05-02T08:48:59Z</time></trkpt><trkpt lat="42.05870805833715" lon="2.9865979202969775"><ele>78.0</ele><time>2026-05-02T08:49:00Z</time></trkpt><trkpt lat="42.05873898905166" lon="2.9864384791577048"><ele>78.0</ele><time>2026-05-02T08:49:02Z</time></trkpt><trkpt lat="42.058758314646745" lon="2.9862887117775134"><ele>77.66666666666667</ele><time>2026-05-02T08:49:04Z</time></trkpt><trkpt lat="42.05877377925871" lon="2.9861509450039043"><ele>77.33333333333333</ele><time>2026-05-02T08:49:06Z</time></trkpt><trkpt lat="42.05882241106315" lon="2.9860962109482014"><ele>77.0</ele><time>2026-05-02T08:49:09Z</time></trkpt><trkpt lat="42.058892917765455" lon="2.9861402382183004"><ele>76.66666666666666</ele><time>2026-05-02T08:49:12Z</time></trkpt><trkpt lat="42.058952091990655" lon="2.9862138046553572"><ele>76.33333333333333</ele><time>2026-05-02T08:49:15Z</time></trkpt><trkpt lat="42.059001661354344" lon="2.9862891335341457"><ele>76.0</ele><time>2026-05-02T08:49:16.999Z</time></trkpt><trkpt lat="42.05905185573205" lon="2.986362332453098"><ele>76.0</ele><time>2026-05-02T08:49:18.999Z</time></trkpt><trkpt lat="42.05910278547872" lon="2.986430544087511"><ele>76.0</ele><time>2026-05-02T08:49:20.999Z</time></trkpt><trkpt lat="42.05917246910956" lon="2.9864890118528042"><ele>76.0</ele><time>2026-05-02T08:49:22.999Z</time></trkpt><trkpt lat="42.059220707227205" lon="2.9865659282185324"><ele>76.0</ele><time>2026-05-02T08:49:24.999Z</time></trkpt><trkpt lat="42.05924888613553" lon="2.9866703395707526"><ele>76.0</ele><time>2026-05-02T08:49:26.999Z</time></trkpt><trkpt lat="42.05928202229474" lon="2.986782641331782"><ele>76.0</ele><time>2026-05-02T08:49:28.999Z</time></trkpt><trkpt lat="42.059332681885664" lon="2.9868852132968087"><ele>76.66666666666666</ele><time>2026-05-02T08:49:30.999Z</time></trkpt><trkpt lat="42.0593920884558" lon="2.986973451783852"><ele>77.33333333333333</ele><time>2026-05-02T08:49:32.999Z</time></trkpt><trkpt lat="42.059454716504575" lon="2.9870471276688346"><ele>78.0</ele><time>2026-05-02T08:49:34.999Z</time></trkpt><trkpt lat="42.05951319881152" lon="2.987125885796614"><ele>78.66666666666667</ele><time>2026-05-02T08:49:36.999Z</time></trkpt><trkpt lat="42.05957997897366" lon="2.987185489620854"><ele>79.33333333333334</ele><time>2026-05-02T08:49:38.999Z</time></trkpt><trkpt lat="42.05964510301943" lon="2.9872511973754285"><ele>80.0</ele><time>2026-05-02T08:49:40.999Z</time></trkpt><trkpt lat="42.05970851059092" lon="2.9873125570121393"><ele>80.0</ele><time>2026-05-02T08:49:42.999Z</time></trkpt><trkpt lat="42.05977108666378" lon="2.9873697927163487"><ele>80.0</ele><time>2026-05-02T08:49:44.999Z</time></trkpt><trkpt lat="42.05982786973257" lon="2.987423503932832"><ele>80.0</ele><time>2026-05-02T08:49:46.999Z</time></trkpt><trkpt lat="42.05988776630821" lon="2.9874644731204856"><ele>80.0</ele><time>2026-05-02T08:49:48.999Z</time></trkpt><trkpt lat="42.059966876109684" lon="2.987500922797967"><ele>80.0</ele><time>2026-05-02T08:49:50.999Z</time></trkpt><trkpt lat="42.06003983483563" lon="2.987538670315734"><ele>80.0</ele><time>2026-05-02T08:49:52.999Z</time></trkpt><trkpt lat="42.0601108100936" lon="2.9875498805182037"><ele>80.0</ele><time>2026-05-02T08:49:54.999Z</time></trkpt><trkpt lat="42.06018245270212" lon="2.987515710330932"><ele>80.66666666666667</ele><time>2026-05-02T08:49:56.999Z</time></trkpt><trkpt lat="42.060251939478896" lon="2.9874942064930714"><ele>81.33333333333334</ele><time>2026-05-02T08:49:58.999Z</time></trkpt><trkpt lat="42.060323063048905" lon="2.9874798444377517"><ele>82.0</ele><time>2026-05-02T08:50:00.999Z</time></trkpt><trkpt lat="42.060393565302874" lon="2.9875150678134923"><ele>82.66666666666667</ele><time>2026-05-02T08:50:02.999Z</time></trkpt><trkpt lat="42.06044962036958" lon="2.9876051574134257"><ele>83.33333333333333</ele><time>2026-05-02T08:50:04.999Z</time></trkpt><trkpt lat="42.06048792355943" lon="2.9876832612551913"><ele>84.0</ele><time>2026-05-02T08:50:06.999Z</time></trkpt><trkpt lat="42.06055013630288" lon="2.9877620362944977"><ele>85.0</ele><time>2026-05-02T08:50:08.999Z</time></trkpt><trkpt lat="42.06060414630235" lon="2.9878414180018043"><ele>86.0</ele><time>2026-05-02T08:50:10.999Z</time></trkpt><trkpt lat="42.06063896511854" lon="2.987920463854998"><ele>87.0</ele><time>2026-05-02T08:50:12.999Z</time></trkpt><trkpt lat="42.06063650409237" lon="2.988048826581953"><ele>88.0</ele><time>2026-05-02T08:50:15.999Z</time></trkpt><trkpt lat="42.060609220248466" lon="2.988134199058999"><ele>89.0</ele><time>2026-05-02T08:50:18.999Z</time></trkpt><trkpt lat="42.060612247271095" lon="2.988247737135206"><ele>90.0</ele><time>2026-05-02T08:50:20.999Z</time></trkpt><trkpt lat="42.06066839464818" lon="2.9883513188305026"><ele>90.85714285714285</ele><time>2026-05-02T08:50:23.999Z</time></trkpt><trkpt lat="42.06071395142668" lon="2.9884145042127668"><ele>91.71428571428572</ele><time>2026-05-02T08:50:26Z</time></trkpt><trkpt lat="42.06075541968391" lon="2.9884848563196407"><ele>92.57142857142857</ele><time>2026-05-02T08:50:28Z</time></trkpt><trkpt lat="42.06079067429995" lon="2.988564677564184"><ele>93.42857142857142</ele><time>2026-05-02T08:50:30Z</time></trkpt><trkpt lat="42.060837266928694" lon="2.988674192591737"><ele>94.28571428571428</ele><time>2026-05-02T08:50:33Z</time></trkpt><trkpt lat="42.060857736827145" lon="2.9887651091163474"><ele>95.14285714285714</ele><time>2026-05-02T08:50:35Z</time></trkpt><trkpt lat="42.060843606598176" lon="2.988870936357874"><ele>96.0</ele><time>2026-05-02T08:50:37Z</time></trkpt><trkpt lat="42.06081309576596" lon="2.988954103326676"><ele>96.16666666666667</ele><time>2026-05-02T08:50:39Z</time></trkpt><trkpt lat="42.060782124324895" lon="2.9890294688974097"><ele>96.33333333333334</ele><time>2026-05-02T08:50:41Z</time></trkpt><trkpt lat="42.060747519158944" lon="2.989104430464101"><ele>96.5</ele><time>2026-05-02T08:50:43Z</time></trkpt><trkpt lat="42.060687126499474" lon="2.989198458983353"><ele>96.66666666666667</ele><time>2026-05-02T08:50:46Z</time></trkpt><trkpt lat="42.0606229842182" lon="2.9892733604780846"><ele>96.83333333333334</ele><time>2026-05-02T08:50:49Z</time></trkpt><trkpt lat="42.06055824083298" lon="2.989340675917404"><ele>97.0</ele><time>2026-05-02T08:50:52Z</time></trkpt><trkpt lat="42.06050440629838" lon="2.9893921949966535"><ele>97.50000000000001</ele><time>2026-05-02T08:50:54Z</time></trkpt><trkpt lat="42.06042495495045" lon="2.989449487859134"><ele>98.0</ele><time>2026-05-02T08:50:57Z</time></trkpt><trkpt lat="42.06036068406897" lon="2.989495634636139"><ele>98.5</ele><time>2026-05-02T08:51:00Z</time></trkpt><trkpt lat="42.06030380710638" lon="2.989537531559362"><ele>99.0</ele><time>2026-05-02T08:51:02Z</time></trkpt><trkpt lat="42.06022164872053" lon="2.989599597148164"><ele>99.50000000000001</ele><time>2026-05-02T08:51:04Z</time></trkpt><trkpt lat="42.060144958618736" lon="2.989670489301628"><ele>100.0</ele><time>2026-05-02T08:51:06Z</time></trkpt><trkpt lat="42.06008064451539" lon="2.989739083114257"><ele>100.0</ele><time>2026-05-02T08:51:08Z</time></trkpt><trkpt lat="42.060011916047245" lon="2.9898149984029994"><ele>100.0</ele><time>2026-05-02T08:51:10Z</time></trkpt><trkpt lat="42.059956358532574" lon="2.989909939432707"><ele>100.0</ele><time>2026-05-02T08:51:12Z</time></trkpt><trkpt lat="42.059905747103926" lon="2.990014903696998"><ele>100.0</ele><time>2026-05-02T08:51:14Z</time></trkpt><trkpt lat="42.05984225079173" lon="2.990119616590742"><ele>100.0</ele><time>2026-05-02T08:51:16Z</time></trkpt><trkpt lat="42.05977137964146" lon="2.990206291789195"><ele>100.83333333333334</ele><time>2026-05-02T08:51:18Z</time></trkpt><trkpt lat="42.05969396307779" lon="2.9902833666507145"><ele>101.66666666666667</ele><time>2026-05-02T08:51:20Z</time></trkpt><trkpt lat="42.05961805390324" lon="2.990348310512006"><ele>102.5</ele><time>2026-05-02T08:51:22Z</time></trkpt><trkpt lat="42.0595501222334" lon="2.9903930237984033"><ele>103.33333333333334</ele><time>2026-05-02T08:51:24Z</time></trkpt><trkpt lat="42.059462738269474" lon="2.9904369963311805"><ele>104.16666666666667</ele><time>2026-05-02T08:51:27Z</time></trkpt><trkpt lat="42.05938071913111" lon="2.990481881951199"><ele>105.0</ele><time>2026-05-02T08:51:29.999Z</time></trkpt><trkpt lat="42.05929947147375" lon="2.990541067453313"><ele>105.0</ele><time>2026-05-02T08:51:32.999Z</time></trkpt><trkpt lat="42.05923179048937" lon="2.9905834464764096"><ele>105.0</ele><time>2026-05-02T08:51:34.999Z</time></trkpt><trkpt lat="42.05916127201592" lon="2.990635131715711"><ele>105.0</ele><time>2026-05-02T08:51:36.999Z</time></trkpt><trkpt lat="42.059095874049554" lon="2.990666287894516"><ele>105.0</ele><time>2026-05-02T08:51:38.999Z</time></trkpt><trkpt lat="42.059002671419364" lon="2.9907222187529285"><ele>105.0</ele><time>2026-05-02T08:51:40.999Z</time></trkpt><trkpt lat="42.05890084350908" lon="2.990773914186448"><ele>105.0</ele><time>2026-05-02T08:51:42.999Z</time></trkpt><trkpt lat="42.058801678868925" lon="2.9908100256628245"><ele>102.75</ele><time>2026-05-02T08:51:44.999Z</time></trkpt><trkpt lat="42.058694171259894" lon="2.9908541881084387"><ele>100.5</ele><time>2026-05-02T08:51:46.999Z</time></trkpt><trkpt lat="42.05858505053647" lon="2.990906342279091"><ele>98.25</ele><time>2026-05-02T08:51:48.999Z</time></trkpt><trkpt lat="42.05847141475754" lon="2.990960844726318"><ele>96.0</ele><time>2026-05-02T08:51:50.999Z</time></trkpt><trkpt lat="42.0583575025303" lon="2.991021163581433"><ele>95.99999999999999</ele><time>2026-05-02T08:51:52.999Z</time></trkpt><trkpt lat="42.05829459412436" lon="2.9910499449713925"><ele>96.0</ele><time>2026-05-02T08:51:53.999Z</time></trkpt><trkpt lat="42.05823171908278" lon="2.99107274553053"><ele>96.0</ele><time>2026-05-02T08:51:54.999Z</time></trkpt><trkpt lat="42.05816800163281" lon="2.9910904315194284"><ele>96.0</ele><time>2026-05-02T08:51:55.999Z</time></trkpt><trkpt lat="42.05810544112833" lon="2.9911114569856374"><ele>96.0</ele><time>2026-05-02T08:51:56.999Z</time></trkpt><trkpt lat="42.058043233153114" lon="2.9911394162351908"><ele>95.99999999999999</ele><time>2026-05-02T08:51:57.999Z</time></trkpt><trkpt lat="42.057984159238806" lon="2.991170738008871"><ele>96.0</ele><time>2026-05-02T08:51:58.999Z</time></trkpt><trkpt lat="42.057919617998635" lon="2.9912047741720804"><ele>96.71428571428571</ele><time>2026-05-02T08:51:59.999Z</time></trkpt><trkpt lat="42.0578439502701" lon="2.9912262492928603"><ele>97.42857142857143</ele><time>2026-05-02T08:52:00.999Z</time></trkpt><trkpt lat="42.05778169898809" lon="2.9912615847781847"><ele>98.14285714285714</ele><time>2026-05-02T08:52:01.999Z</time></trkpt><trkpt lat="42.05771271422279" lon="2.991294005007147"><ele>98.85714285714286</ele><time>2026-05-02T08:52:02.999Z</time></trkpt><trkpt lat="42.05764448333983" lon="2.9913334870763193"><ele>99.57142857142857</ele><time>2026-05-02T08:52:03.999Z</time></trkpt><trkpt lat="42.05757238873161" lon="2.9913698554553294"><ele>100.28571428571428</ele><time>2026-05-02T08:52:04.999Z</time></trkpt><trkpt lat="42.0575007062159" lon="2.9914035924485023"><ele>101.0</ele><time>2026-05-02T08:52:05.999Z</time></trkpt><trkpt lat="42.0574279907179" lon="2.9914411176627844"><ele>101.49999999999999</ele><time>2026-05-02T08:52:06.999Z</time></trkpt><trkpt lat="42.05735937268853" lon="2.9914822287215523"><ele>102.0</ele><time>2026-05-02T08:52:07.999Z</time></trkpt><trkpt lat="42.05729009475218" lon="2.9915260984792673"><ele>102.5</ele><time>2026-05-02T08:52:08.999Z</time></trkpt><trkpt lat="42.0572247437205" lon="2.9915653984549624"><ele>103.0</ele><time>2026-05-02T08:52:09.999Z</time></trkpt><trkpt lat="42.057161707630556" lon="2.9915985437072585"><ele>103.49999999999999</ele><time>2026-05-02T08:52:10.999Z</time></trkpt><trkpt lat="42.05704225874563" lon="2.991638857629387"><ele>104.0</ele><time>2026-05-02T08:52:12.999Z</time></trkpt><trkpt lat="42.05691845108935" lon="2.991669803072863"><ele>103.85714285714285</ele><time>2026-05-02T08:52:14.999Z</time></trkpt><trkpt lat="42.056851752125105" lon="2.991680488417648"><ele>103.71428571428572</ele><time>2026-05-02T08:52:15.999Z</time></trkpt><trkpt lat="42.05678438802184" lon="2.991691189102751"><ele>103.57142857142857</ele><time>2026-05-02T08:52:16.999Z</time></trkpt><trkpt lat="42.05671504465707" lon="2.991704065551149"><ele>103.42857142857142</ele><time>2026-05-02T08:52:17.999Z</time></trkpt><trkpt lat="42.05665168179305" lon="2.9917230841758404"><ele>103.28571428571428</ele><time>2026-05-02T08:52:18.999Z</time></trkpt><trkpt lat="42.05658999400013" lon="2.9917437438656913"><ele>103.14285714285714</ele><time>2026-05-02T08:52:19.999Z</time></trkpt><trkpt lat="42.05647903999519" lon="2.9917728311485687"><ele>103.0</ele><time>2026-05-02T08:52:21.999Z</time></trkpt><trkpt lat="42.05637278573274" lon="2.991798400048991"><ele>103.0</ele><time>2026-05-02T08:52:23.999Z</time></trkpt><trkpt lat="42.05626363149966" lon="2.991825387353121"><ele>103.0</ele><time>2026-05-02T08:52:25.999Z</time></trkpt><trkpt lat="42.0561482584754" lon="2.9918487573734653"><ele>103.0</ele><time>2026-05-02T08:52:27.999Z</time></trkpt><trkpt lat="42.056035536738" lon="2.9918761543274717"><ele>103.0</ele><time>2026-05-02T08:52:29.999Z</time></trkpt><trkpt lat="42.05592355289789" lon="2.991909809199421"><ele>103.0</ele><time>2026-05-02T08:52:32Z</time></trkpt><trkpt lat="42.05581503861193" lon="2.9919492539416357"><ele>103.0</ele><time>2026-05-02T08:52:34Z</time></trkpt><trkpt lat="42.05570673062644" lon="2.9919878242726523"><ele>103.0</ele><time>2026-05-02T08:52:36Z</time></trkpt><trkpt lat="42.05558660734871" lon="2.992024626081852"><ele>103.0</ele><time>2026-05-02T08:52:38Z</time></trkpt><trkpt lat="42.05547061583028" lon="2.992053029285395"><ele>103.75</ele><time>2026-05-02T08:52:40Z</time></trkpt><trkpt lat="42.05535025668169" lon="2.9920992366752674"><ele>104.5</ele><time>2026-05-02T08:52:42Z</time></trkpt><trkpt lat="42.05523812399273" lon="2.9921551510099627"><ele>105.25</ele><time>2026-05-02T08:52:44Z</time></trkpt><trkpt lat="42.055131875206854" lon="2.992229050221791"><ele>106.0</ele><time>2026-05-02T08:52:46Z</time></trkpt><trkpt lat="42.05502036400307" lon="2.9923012339486967"><ele>106.4</ele><time>2026-05-02T08:52:48Z</time></trkpt><trkpt lat="42.054925849222506" lon="2.9923928664135313"><ele>106.8</ele><time>2026-05-02T08:52:50Z</time></trkpt><trkpt lat="42.05484620041595" lon="2.9924947593974567"><ele>107.20000000000002</ele><time>2026-05-02T08:52:52Z</time></trkpt><trkpt lat="42.054767018205084" lon="2.9926090890108066"><ele>107.60000000000001</ele><time>2026-05-02T08:52:54Z</time></trkpt><trkpt lat="42.054726706218766" lon="2.992682113029042"><ele>108.0</ele><time>2026-05-02T08:52:55Z</time></trkpt><trkpt lat="42.05470147259281" lon="2.99277412458864"><ele>108.0</ele><time>2026-05-02T08:52:56Z</time></trkpt><trkpt lat="42.05469311559918" lon="2.992877371673772"><ele>108.0</ele><time>2026-05-02T08:52:57Z</time></trkpt><trkpt lat="42.05469038989005" lon="2.9929824867430597"><ele>108.0</ele><time>2026-05-02T08:52:58Z</time></trkpt><trkpt lat="42.05469780682211" lon="2.993080532616651"><ele>108.0</ele><time>2026-05-02T08:52:59Z</time></trkpt><trkpt lat="42.054705794943544" lon="2.993174416712857"><ele>108.0</ele><time>2026-05-02T08:53:00Z</time></trkpt><trkpt lat="42.05470732785135" lon="2.9932656999416207"><ele>108.0</ele><time>2026-05-02T08:53:01Z</time></trkpt><trkpt lat="42.054694262887736" lon="2.993353784051513"><ele>108.0</ele><time>2026-05-02T08:53:02Z</time></trkpt><trkpt lat="42.05466257407637" lon="2.9934314663121904"><ele>107.57142857142857</ele><time>2026-05-02T08:53:03Z</time></trkpt><trkpt lat="42.05461760074351" lon="2.9934967863985906"><ele>107.14285714285714</ele><time>2026-05-02T08:53:04Z</time></trkpt><trkpt lat="42.054566993792285" lon="2.993557398361532"><ele>106.71428571428572</ele><time>2026-05-02T08:53:05Z</time></trkpt><trkpt lat="42.05451212297934" lon="2.9936038672254464"><ele>106.28571428571428</ele><time>2026-05-02T08:53:06Z</time></trkpt><trkpt lat="42.05445234705903" lon="2.9936421486199203"><ele>105.85714285714286</ele><time>2026-05-02T08:53:07Z</time></trkpt><trkpt lat="42.0543881266539" lon="2.9936667789441738"><ele>105.42857142857143</ele><time>2026-05-02T08:53:08Z</time></trkpt><trkpt lat="42.05432226606887" lon="2.99368091177693"><ele>105.0</ele><time>2026-05-02T08:53:09Z</time></trkpt><trkpt lat="42.054254418367435" lon="2.9936826616150363"><ele>105.0</ele><time>2026-05-02T08:53:10Z</time></trkpt><trkpt lat="42.05418385718055" lon="2.993675315555211"><ele>105.0</ele><time>2026-05-02T08:53:11Z</time></trkpt><trkpt lat="42.054115232856596" lon="2.9936668794331545"><ele>105.0</ele><time>2026-05-02T08:53:12Z</time></trkpt><trkpt lat="42.05404302494906" lon="2.993658591413626"><ele>105.0</ele><time>2026-05-02T08:53:13Z</time></trkpt><trkpt lat="42.05397111507412" lon="2.9936545101767837"><ele>105.0</ele><time>2026-05-02T08:53:14Z</time></trkpt><trkpt lat="42.053898005385584" lon="2.9936542499082446"><ele>105.0</ele><time>2026-05-02T08:53:15Z</time></trkpt><trkpt lat="42.05382887653833" lon="2.9936584128327777"><ele>105.0</ele><time>2026-05-02T08:53:16Z</time></trkpt><trkpt lat="42.05375666853106" lon="2.9936692558070677"><ele>104.28571428571429</ele><time>2026-05-02T08:53:17Z</time></trkpt><trkpt lat="42.053686041550634" lon="2.993689399801319"><ele>103.57142857142857</ele><time>2026-05-02T08:53:18Z</time></trkpt><trkpt lat="42.05361431484454" lon="2.9937180214306216"><ele>102.85714285714286</ele><time>2026-05-02T08:53:19Z</time></trkpt><trkpt lat="42.05353989899415" lon="2.993741279505961"><ele>102.14285714285714</ele><time>2026-05-02T08:53:20Z</time></trkpt><trkpt lat="42.05346805495755" lon="2.993761456326029"><ele>101.42857142857143</ele><time>2026-05-02T08:53:21Z</time></trkpt><trkpt lat="42.053398388857815" lon="2.993784602218304"><ele>100.71428571428572</ele><time>2026-05-02T08:53:22Z</time></trkpt><trkpt lat="42.05333068989698" lon="2.9938090412745946"><ele>100.0</ele><time>2026-05-02T08:53:23Z</time></trkpt><trkpt lat="42.053253952703024" lon="2.993843433106457"><ele>99.00000000000001</ele><time>2026-05-02T08:53:24Z</time></trkpt><trkpt lat="42.053171191324694" lon="2.9938704852694227"><ele>98.0</ele><time>2026-05-02T08:53:25Z</time></trkpt><trkpt lat="42.0530888045135" lon="2.9938906415269115"><ele>97.0</ele><time>2026-05-02T08:53:26Z</time></trkpt><trkpt lat="42.05300884635145" lon="2.993908849059306"><ele>96.0</ele><time>2026-05-02T08:53:27Z</time></trkpt><trkpt lat="42.05292462325127" lon="2.993922797969197"><ele>95.0</ele><time>2026-05-02T08:53:28Z</time></trkpt><trkpt lat="42.0528380174423" lon="2.993937159100414"><ele>94.0</ele><time>2026-05-02T08:53:29Z</time></trkpt><trkpt lat="42.05275846626417" lon="2.9939414126355754"><ele>94.0</ele><time>2026-05-02T08:53:30Z</time></trkpt><trkpt lat="42.05267831619636" lon="2.9939435617730856"><ele>94.0</ele><time>2026-05-02T08:53:31Z</time></trkpt><trkpt lat="42.052593191408086" lon="2.9939515471788907"><ele>94.0</ele><time>2026-05-02T08:53:32Z</time></trkpt><trkpt lat="42.05252158159344" lon="2.9939607395468157"><ele>94.0</ele><time>2026-05-02T08:53:33Z</time></trkpt><trkpt lat="42.05244123962148" lon="2.993982009833122"><ele>94.0</ele><time>2026-05-02T08:53:34Z</time></trkpt><trkpt lat="42.05235906618376" lon="2.994016290837759"><ele>94.0</ele><time>2026-05-02T08:53:35Z</time></trkpt><trkpt lat="42.05227882849397" lon="2.994056603422055"><ele>94.2</ele><time>2026-05-02T08:53:36Z</time></trkpt><trkpt lat="42.052194376014334" lon="2.994097662672344"><ele>94.4</ele><time>2026-05-02T08:53:37Z</time></trkpt><trkpt lat="42.05210433294301" lon="2.994138544677568"><ele>94.6</ele><time>2026-05-02T08:53:38Z</time></trkpt><trkpt lat="42.05201277490808" lon="2.994173775766037"><ele>94.8</ele><time>2026-05-02T08:53:39Z</time></trkpt><trkpt lat="42.05192404199377" lon="2.9942047996948293"><ele>95.0</ele><time>2026-05-02T08:53:40Z</time></trkpt><trkpt lat="42.05183541315934" lon="2.9942354879263826"><ele>93.33333333333334</ele><time>2026-05-02T08:53:41Z</time></trkpt><trkpt lat="42.051751005430376" lon="2.9942618560997323"><ele>91.66666666666667</ele><time>2026-05-02T08:53:42Z</time></trkpt><trkpt lat="42.051666517100344" lon="2.9942880237579153"><ele>90.0</ele><time>2026-05-02T08:53:43Z</time></trkpt><trkpt lat="42.05158288556095" lon="2.9943147584882923"><ele>88.33333333333333</ele><time>2026-05-02T08:53:44Z</time></trkpt><trkpt lat="42.05149888538796" lon="2.9943288090182825"><ele>86.66666666666666</ele><time>2026-05-02T08:53:45Z</time></trkpt><trkpt lat="42.05141824178489" lon="2.994326197208729"><ele>85.0</ele><time>2026-05-02T08:53:46Z</time></trkpt><trkpt lat="42.05134208458761" lon="2.9943040806785466"><ele>84.83333333333333</ele><time>2026-05-02T08:53:46.999Z</time></trkpt><trkpt lat="42.05127653615637" lon="2.994262248097821"><ele>84.66666666666666</ele><time>2026-05-02T08:53:47.999Z</time></trkpt><trkpt lat="42.05122286154807" lon="2.9942130753668157"><ele>84.5</ele><time>2026-05-02T08:53:48.999Z</time></trkpt><trkpt lat="42.05111786263115" lon="2.994155635408367"><ele>84.33333333333333</ele><time>2026-05-02T08:53:50.999Z</time></trkpt><trkpt lat="42.05105337224656" lon="2.994168673101916"><ele>84.16666666666667</ele><time>2026-05-02T08:53:51.999Z</time></trkpt><trkpt lat="42.05098457273411" lon="2.9942004297066935"><ele>84.0</ele><time>2026-05-02T08:53:52.999Z</time></trkpt><trkpt lat="42.05091304840278" lon="2.9942380694694193"><ele>84.0</ele><time>2026-05-02T08:53:53.999Z</time></trkpt><trkpt lat="42.05083899094426" lon="2.9942781269392262"><ele>84.0</ele><time>2026-05-02T08:53:54.999Z</time></trkpt><trkpt lat="42.05076581088946" lon="2.9943087797549777"><ele>84.0</ele><time>2026-05-02T08:53:55.999Z</time></trkpt><trkpt lat="42.05069275018565" lon="2.9943438842647376"><ele>84.0</ele><time>2026-05-02T08:53:56.999Z</time></trkpt><trkpt lat="42.05062662711534" lon="2.994401154776694"><ele>84.0</ele><time>2026-05-02T08:53:57.999Z</time></trkpt><trkpt lat="42.05057394498764" lon="2.9944604814371476"><ele>84.0</ele><time>2026-05-02T08:53:58.999Z</time></trkpt><trkpt lat="42.05046788972245" lon="2.9945342303341884"><ele>84.4</ele><time>2026-05-02T08:54:00.999Z</time></trkpt><trkpt lat="42.050375922946536" lon="2.99460213264159"><ele>84.80000000000001</ele><time>2026-05-02T08:54:02.999Z</time></trkpt><trkpt lat="42.05035697858259" lon="2.994751614439364"><ele>85.19999999999999</ele><time>2026-05-02T08:54:04.999Z</time></trkpt><trkpt lat="42.05035432299526" lon="2.994902255873778"><ele>85.6</ele><time>2026-05-02T08:54:06.999Z</time></trkpt><trkpt lat="42.05029010158595" lon="2.995002174975303"><ele>86.0</ele><time>2026-05-02T08:54:08.999Z</time></trkpt><trkpt lat="42.05018511722767" lon="2.995054353676803"><ele>86.28571428571429</ele><time>2026-05-02T08:54:10.999Z</time></trkpt><trkpt lat="42.050128227015946" lon="2.995091097243942"><ele>86.57142857142857</ele><time>2026-05-02T08:54:11.999Z</time></trkpt><trkpt lat="42.05006629107513" lon="2.9951327831095895"><ele>86.85714285714286</ele><time>2026-05-02T08:54:12.999Z</time></trkpt><trkpt lat="42.05000084305638" lon="2.995172022461234"><ele>87.14285714285714</ele><time>2026-05-02T08:54:13.999Z</time></trkpt><trkpt lat="42.04993865558535" lon="2.995217515007803"><ele>87.42857142857143</ele><time>2026-05-02T08:54:14.999Z</time></trkpt><trkpt lat="42.04988117991313" lon="2.995277726963564"><ele>87.71428571428572</ele><time>2026-05-02T08:54:15.999Z</time></trkpt><trkpt lat="42.04982461305968" lon="2.995333985284951"><ele>88.0</ele><time>2026-05-02T08:54:16.999Z</time></trkpt><trkpt lat="42.04977174566525" lon="2.995386383801734"><ele>88.0</ele><time>2026-05-02T08:54:17.999Z</time></trkpt><trkpt lat="42.04972688269081" lon="2.995446583751721"><ele>88.0</ele><time>2026-05-02T08:54:18.999Z</time></trkpt><trkpt lat="42.04965746419794" lon="2.995578869110329"><ele>88.0</ele><time>2026-05-02T08:54:20.999Z</time></trkpt><trkpt lat="42.04958771362808" lon="2.995712965629335"><ele>88.0</ele><time>2026-05-02T08:54:22.999Z</time></trkpt><trkpt lat="42.04953978071278" lon="2.995854486812898"><ele>88.0</ele><time>2026-05-02T08:54:24.999Z</time></trkpt><trkpt lat="42.04949281072739" lon="2.9959707714171193"><ele>86.2</ele><time>2026-05-02T08:54:26.999Z</time></trkpt><trkpt lat="42.04941726114838" lon="2.9960304399114692"><ele>84.4</ele><time>2026-05-02T08:54:28.999Z</time></trkpt><trkpt lat="42.0493406557747" lon="2.996100653321882"><ele>82.60000000000001</ele><time>2026-05-02T08:54:30.999Z</time></trkpt><trkpt lat="42.04932290839052" lon="2.996223630274387"><ele>80.80000000000001</ele><time>2026-05-02T08:54:32.999Z</time></trkpt><trkpt lat="42.049384614759035" lon="2.9963902147989696"><ele>79.0</ele><time>2026-05-02T08:54:34.999Z</time></trkpt><trkpt lat="42.04941710537919" lon="2.996491020731023"><ele>79.0</ele><time>2026-05-02T08:54:35.999Z</time></trkpt><trkpt lat="42.04944918732925" lon="2.9965991990877363"><ele>79.0</ele><time>2026-05-02T08:54:36.999Z</time></trkpt><trkpt lat="42.049480150413864" lon="2.996688115877897"><ele>79.0</ele><time>2026-05-02T08:54:38Z</time></trkpt><trkpt lat="42.049502584117135" lon="2.996773040024353"><ele>79.0</ele><time>2026-05-02T08:54:39Z</time></trkpt><trkpt lat="42.0495120823053" lon="2.9968606682424155"><ele>79.0</ele><time>2026-05-02T08:54:40Z</time></trkpt><trkpt lat="42.049473296333545" lon="2.9970099722328625"><ele>79.0</ele><time>2026-05-02T08:54:42Z</time></trkpt><trkpt lat="42.049412721568444" lon="2.9970502279980353"><ele>77.66666666666666</ele><time>2026-05-02T08:54:43Z</time></trkpt><trkpt lat="42.049354788570554" lon="2.9970911887137914"><ele>76.33333333333333</ele><time>2026-05-02T08:54:44Z</time></trkpt><trkpt lat="42.04929895676754" lon="2.9971485759795704"><ele>75.0</ele><time>2026-05-02T08:54:45Z</time></trkpt><trkpt lat="42.04924742537378" lon="2.997222423796429"><ele>73.66666666666667</ele><time>2026-05-02T08:54:46Z</time></trkpt><trkpt lat="42.04918756577024" lon="2.9972964058120697"><ele>72.33333333333334</ele><time>2026-05-02T08:54:47Z</time></trkpt><trkpt lat="42.049121354366" lon="2.9973628492135913"><ele>71.0</ele><time>2026-05-02T08:54:48Z</time></trkpt><trkpt lat="42.04905834858791" lon="2.9974306282429546"><ele>71.0</ele><time>2026-05-02T08:54:49Z</time></trkpt><trkpt lat="42.04899246238486" lon="2.9975019638907887"><ele>71.0</ele><time>2026-05-02T08:54:50Z</time></trkpt><trkpt lat="42.04892627517575" lon="2.997576102439075"><ele>71.0</ele><time>2026-05-02T08:54:51Z</time></trkpt><trkpt lat="42.04885782743452" lon="2.997648644328338"><ele>71.0</ele><time>2026-05-02T08:54:52Z</time></trkpt><trkpt lat="42.04877602524169" lon="2.9976925653771076"><ele>71.0</ele><time>2026-05-02T08:54:53Z</time></trkpt><trkpt lat="42.04870208793387" lon="2.9977602045671765"><ele>71.0</ele><time>2026-05-02T08:54:54Z</time></trkpt><trkpt lat="42.04863019235078" lon="2.9978215269090875"><ele>70.0</ele><time>2026-05-02T08:54:55Z</time></trkpt><trkpt lat="42.04855410562525" lon="2.997882962572877"><ele>69.0</ele><time>2026-05-02T08:54:56Z</time></trkpt><trkpt lat="42.04847333004313" lon="2.9979478343865393"><ele>68.0</ele><time>2026-05-02T08:54:57Z</time></trkpt><trkpt lat="42.04839638208112" lon="2.998018220606861"><ele>67.0</ele><time>2026-05-02T08:54:58Z</time></trkpt><trkpt lat="42.04832690142624" lon="2.9980976603907328"><ele>66.0</ele><time>2026-05-02T08:54:59Z</time></trkpt><trkpt lat="42.048255550104415" lon="2.9981542962719585"><ele>66.0</ele><time>2026-05-02T08:55:00Z</time></trkpt><trkpt lat="42.048182236084436" lon="2.998180758637304"><ele>66.0</ele><time>2026-05-02T08:55:01Z</time></trkpt><trkpt lat="42.04811310067313" lon="2.998175028881672"><ele>66.0</ele><time>2026-05-02T08:55:02Z</time></trkpt><trkpt lat="42.04804838717078" lon="2.998168153409885"><ele>66.0</ele><time>2026-05-02T08:55:03Z</time></trkpt><trkpt lat="42.04795314392766" lon="2.9981840835967777"><ele>66.0</ele><time>2026-05-02T08:55:05Z</time></trkpt><trkpt lat="42.04790404603731" lon="2.9983528616295474"><ele>66.0</ele><time>2026-05-02T08:55:07Z</time></trkpt><trkpt lat="42.047848781690725" lon="2.9984855525894556"><ele>65.0</ele><time>2026-05-02T08:55:09Z</time></trkpt><trkpt lat="42.04780695949411" lon="2.9985526254382386"><ele>64.0</ele><time>2026-05-02T08:55:10Z</time></trkpt><trkpt lat="42.0477612005337" lon="2.998620246776454"><ele>63.0</ele><time>2026-05-02T08:55:11Z</time></trkpt><trkpt lat="42.047715904726076" lon="2.998685544296904"><ele>62.0</ele><time>2026-05-02T08:55:12Z</time></trkpt><trkpt lat="42.04767921645031" lon="2.9987682302309238"><ele>61.0</ele><time>2026-05-02T08:55:13Z</time></trkpt><trkpt lat="42.047633396225805" lon="2.9988355747539233"><ele>60.0</ele><time>2026-05-02T08:55:14Z</time></trkpt><trkpt lat="42.04757484106558" lon="2.998891611971123"><ele>59.0</ele><time>2026-05-02T08:55:15Z</time></trkpt><trkpt lat="42.047523694276045" lon="2.9989690817831307"><ele>59.00000000000001</ele><time>2026-05-02T08:55:16Z</time></trkpt><trkpt lat="42.047469505301315" lon="2.9990511594505156"><ele>59.0</ele><time>2026-05-02T08:55:17Z</time></trkpt><trkpt lat="42.04741839465832" lon="2.999128574511602"><ele>59.0</ele><time>2026-05-02T08:55:18Z</time></trkpt><trkpt lat="42.047369031858366" lon="2.9991987754911147"><ele>59.0</ele><time>2026-05-02T08:55:19Z</time></trkpt><trkpt lat="42.047322655698174" lon="2.9992628693912486"><ele>59.00000000000001</ele><time>2026-05-02T08:55:20Z</time></trkpt><trkpt lat="42.047248735341185" lon="2.999370145609837"><ele>59.0</ele><time>2026-05-02T08:55:22Z</time></trkpt><trkpt lat="42.04720380671493" lon="2.99945468625291"><ele>58.0</ele><time>2026-05-02T08:55:24Z</time></trkpt><trkpt lat="42.04731149751193" lon="2.999539904655224"><ele>57.00000000000001</ele><time>2026-05-02T08:55:26Z</time></trkpt><trkpt lat="42.04742409767562" lon="2.9995031605567806"><ele>56.00000000000001</ele><time>2026-05-02T08:55:28Z</time></trkpt><trkpt lat="42.04754776577126" lon="2.999487554465978"><ele>55.0</ele><time>2026-05-02T08:55:30Z</time></trkpt><trkpt lat="42.047618214761854" lon="2.999472653563443"><ele>54.0</ele><time>2026-05-02T08:55:31Z</time></trkpt><trkpt lat="42.04769236286379" lon="2.999462095309304"><ele>53.833333333333336</ele><time>2026-05-02T08:55:32Z</time></trkpt><trkpt lat="42.047768788833615" lon="2.9994446347025847"><ele>53.66666666666667</ele><time>2026-05-02T08:55:33Z</time></trkpt><trkpt lat="42.04784353646808" lon="2.999454662680725"><ele>53.5</ele><time>2026-05-02T08:55:34Z</time></trkpt><trkpt lat="42.04791426096849" lon="2.99942260979152"><ele>53.333333333333336</ele><time>2026-05-02T08:55:35Z</time></trkpt><trkpt lat="42.04798905667687" lon="2.9994189350508984"><ele>53.16666666666667</ele><time>2026-05-02T08:55:36Z</time></trkpt><trkpt lat="42.04806120146775" lon="2.9994035010973166"><ele>53.0</ele><time>2026-05-02T08:55:37Z</time></trkpt><trkpt lat="42.04814374162258" lon="2.9994017849386583"><ele>53.00000000000001</ele><time>2026-05-02T08:55:38Z</time></trkpt><trkpt lat="42.04822675156267" lon="2.999387940785266"><ele>53.0</ele><time>2026-05-02T08:55:39Z</time></trkpt><trkpt lat="42.04831111644088" lon="2.9993677266650813"><ele>53.0</ele><time>2026-05-02T08:55:40Z</time></trkpt><trkpt lat="42.048394316994916" lon="2.99934933884631"><ele>53.0</ele><time>2026-05-02T08:55:41Z</time></trkpt><trkpt lat="42.04847822620792" lon="2.9993300620760133"><ele>53.00000000000001</ele><time>2026-05-02T08:55:42Z</time></trkpt><trkpt lat="42.04856265109141" lon="2.9993077747338717"><ele>53.0</ele><time>2026-05-02T08:55:43Z</time></trkpt><trkpt lat="42.04874655672415" lon="2.999287231963513"><ele>52.599999999999994</ele><time>2026-05-02T08:55:45Z</time></trkpt><trkpt lat="42.048837838718974" lon="2.9992650256823437"><ele>52.199999999999996</ele><time>2026-05-02T08:55:46Z</time></trkpt><trkpt lat="42.0489246185146" lon="2.9992439146562724"><ele>51.8</ele><time>2026-05-02T08:55:47Z</time></trkpt><trkpt lat="42.0490109902464" lon="2.99920478608935"><ele>51.4</ele><time>2026-05-02T08:55:47.999Z</time></trkpt><trkpt lat="42.049099315183255" lon="2.999184787898586"><ele>51.0</ele><time>2026-05-02T08:55:48.999Z</time></trkpt><trkpt lat="42.04919977520619" lon="2.999173958024118"><ele>51.666666666666664</ele><time>2026-05-02T08:55:49.999Z</time></trkpt><trkpt lat="42.04928651776889" lon="2.9991488492509517"><ele>52.33333333333333</ele><time>2026-05-02T08:55:50.999Z</time></trkpt><trkpt lat="42.04935646381724" lon="2.999111005747635"><ele>53.0</ele><time>2026-05-02T08:55:51.999Z</time></trkpt><trkpt lat="42.04944776472275" lon="2.9990704424415107"><ele>53.666666666666664</ele><time>2026-05-02T08:55:52.999Z</time></trkpt><trkpt lat="42.0495287597488" lon="2.999020815769754"><ele>54.33333333333333</ele><time>2026-05-02T08:55:53.999Z</time></trkpt><trkpt lat="42.049608186537085" lon="2.99896172799304"><ele>55.0</ele><time>2026-05-02T08:55:54.999Z</time></trkpt><trkpt lat="42.04968368506535" lon="2.998900453102826"><ele>55.0</ele><time>2026-05-02T08:55:55.999Z</time></trkpt><trkpt lat="42.049761946162775" lon="2.998839870638373"><ele>55.0</ele><time>2026-05-02T08:55:56.999Z</time></trkpt><trkpt lat="42.04983851951095" lon="2.998783246204967"><ele>55.0</ele><time>2026-05-02T08:55:57.999Z</time></trkpt><trkpt lat="42.04992344143372" lon="2.9987377892323432"><ele>55.0</ele><time>2026-05-02T08:55:58.999Z</time></trkpt><trkpt lat="42.050016853710396" lon="2.9987255550728267"><ele>55.0</ele><time>2026-05-02T08:55:59.999Z</time></trkpt><trkpt lat="42.050106170531635" lon="2.9986985408931757"><ele>54.8</ele><time>2026-05-02T08:56:00.999Z</time></trkpt><trkpt lat="42.0501982932637" lon="2.9986760213494112"><ele>54.6</ele><time>2026-05-02T08:56:01.999Z</time></trkpt><trkpt lat="42.05029283855068" lon="2.9986610371704687"><ele>54.400000000000006</ele><time>2026-05-02T08:56:02.999Z</time></trkpt><trkpt lat="42.05038852282746" lon="2.9986554676106456"><ele>54.2</ele><time>2026-05-02T08:56:03.999Z</time></trkpt><trkpt lat="42.05048754173081" lon="2.998656550360327"><ele>54.0</ele><time>2026-05-02T08:56:04.999Z</time></trkpt><trkpt lat="42.050588517420756" lon="2.9986393766970103"><ele>54.0</ele><time>2026-05-02T08:56:05.999Z</time></trkpt><trkpt lat="42.050691926352656" lon="2.998639778205318"><ele>54.00000000000001</ele><time>2026-05-02T08:56:06.999Z</time></trkpt><trkpt lat="42.05079535634516" lon="2.9986333736936275"><ele>54.00000000000001</ele><time>2026-05-02T08:56:07.999Z</time></trkpt><trkpt lat="42.05090208461269" lon="2.9986454311021324"><ele>54.0</ele><time>2026-05-02T08:56:08.999Z</time></trkpt><trkpt lat="42.051004835618365" lon="2.998604634210748"><ele>54.0</ele><time>2026-05-02T08:56:09.999Z</time></trkpt><trkpt lat="42.051103453112674" lon="2.9985667433306777"><ele>53.833333333333336</ele><time>2026-05-02T08:56:10.999Z</time></trkpt><trkpt lat="42.05118246927047" lon="2.998526444552164"><ele>53.66666666666667</ele><time>2026-05-02T08:56:11.999Z</time></trkpt><trkpt lat="42.05124744872833" lon="2.9984953791779527"><ele>53.5</ele><time>2026-05-02T08:56:12.999Z</time></trkpt><trkpt lat="42.051311211909194" lon="2.9984732440560586"><ele>53.333333333333336</ele><time>2026-05-02T08:56:13.999Z</time></trkpt><trkpt lat="42.05138709174163" lon="2.998454390798658"><ele>53.16666666666667</ele><time>2026-05-02T08:56:14.999Z</time></trkpt><trkpt lat="42.05147176760706" lon="2.998452431143499"><ele>53.0</ele><time>2026-05-02T08:56:15.999Z</time></trkpt><trkpt lat="42.05155298949828" lon="2.998462851676261"><ele>54.50000000000001</ele><time>2026-05-02T08:56:16.999Z</time></trkpt><trkpt lat="42.05163596518209" lon="2.9984669120689866"><ele>56.0</ele><time>2026-05-02T08:56:17.999Z</time></trkpt><trkpt lat="42.05172181256653" lon="2.9984646573935567"><ele>57.5</ele><time>2026-05-02T08:56:18.999Z</time></trkpt><trkpt lat="42.05180703361956" lon="2.9984497136376502"><ele>59.0</ele><time>2026-05-02T08:56:19.999Z</time></trkpt><trkpt lat="42.05189015227663" lon="2.9984243216169753"><ele>60.50000000000001</ele><time>2026-05-02T08:56:20.999Z</time></trkpt><trkpt lat="42.0519740027975" lon="2.998389174818245"><ele>62.0</ele><time>2026-05-02T08:56:21.999Z</time></trkpt><trkpt lat="42.05206245843822" lon="2.998347726823261"><ele>60.6</ele><time>2026-05-02T08:56:22.999Z</time></trkpt><trkpt lat="42.05215596941578" lon="2.9983127077566696"><ele>59.2</ele><time>2026-05-02T08:56:23.999Z</time></trkpt><trkpt lat="42.05224713055276" lon="2.998291677542617"><ele>57.8</ele><time>2026-05-02T08:56:24.999Z</time></trkpt><trkpt lat="42.05233625314045" lon="2.998271226025667"><ele>56.4</ele><time>2026-05-02T08:56:25.999Z</time></trkpt><trkpt lat="42.05242285707218" lon="2.9982498545682446"><ele>55.0</ele><time>2026-05-02T08:56:26.999Z</time></trkpt><trkpt lat="42.05251071070983" lon="2.9982241504205245"><ele>54.83333333333333</ele><time>2026-05-02T08:56:27.999Z</time></trkpt><trkpt lat="42.052601726938626" lon="2.998227952135244"><ele>54.666666666666664</ele><time>2026-05-02T08:56:28.999Z</time></trkpt><trkpt lat="42.05268506223087" lon="2.9982171310808283"><ele>54.5</ele><time>2026-05-02T08:56:29.999Z</time></trkpt><trkpt lat="42.052762305501865" lon="2.9981914289587897"><ele>54.33333333333333</ele><time>2026-05-02T08:56:30.999Z</time></trkpt><trkpt lat="42.05284036426078" lon="2.9981926257955434"><ele>54.166666666666664</ele><time>2026-05-02T08:56:31.999Z</time></trkpt><trkpt lat="42.052924261332365" lon="2.998213011174802"><ele>54.0</ele><time>2026-05-02T08:56:32.999Z</time></trkpt><trkpt lat="42.05300701854981" lon="2.998198933423257"><ele>54.0</ele><time>2026-05-02T08:56:33.999Z</time></trkpt><trkpt lat="42.053092547250095" lon="2.998207372598411"><ele>54.0</ele><time>2026-05-02T08:56:34.999Z</time></trkpt><trkpt lat="42.05317622104215" lon="2.9982440056200463"><ele>54.0</ele><time>2026-05-02T08:56:35.999Z</time></trkpt><trkpt lat="42.05325961650816" lon="2.998273687732054"><ele>54.0</ele><time>2026-05-02T08:56:36.999Z</time></trkpt><trkpt lat="42.05334284450135" lon="2.9983069370863347"><ele>54.0</ele><time>2026-05-02T08:56:37.999Z</time></trkpt><trkpt lat="42.05342400824534" lon="2.9983442250685184"><ele>54.0</ele><time>2026-05-02T08:56:38.999Z</time></trkpt><trkpt lat="42.053509200042626" lon="2.998372854757687"><ele>55.833333333333336</ele><time>2026-05-02T08:56:39.999Z</time></trkpt><trkpt lat="42.053596524091745" lon="2.99838870167278"><ele>57.66666666666667</ele><time>2026-05-02T08:56:40.999Z</time></trkpt><trkpt lat="42.05368632625676" lon="2.9983926475013956"><ele>59.5</ele><time>2026-05-02T08:56:41.999Z</time></trkpt><trkpt lat="42.053776270166395" lon="2.9983890572736853"><ele>61.333333333333336</ele><time>2026-05-02T08:56:42.999Z</time></trkpt><trkpt lat="42.053861848159336" lon="2.9983626040338462"><ele>63.16666666666667</ele><time>2026-05-02T08:56:44Z</time></trkpt><trkpt lat="42.05394719684669" lon="2.9983546051259538"><ele>65.0</ele><time>2026-05-02T08:56:45Z</time></trkpt><trkpt lat="42.05403595795502" lon="2.9983449841514656"><ele>61.0</ele><time>2026-05-02T08:56:46Z</time></trkpt><trkpt lat="42.05411933369963" lon="2.9983259465046572"><ele>57.0</ele><time>2026-05-02T08:56:47Z</time></trkpt><trkpt lat="42.054208890743716" lon="2.9983056683563514"><ele>53.0</ele><time>2026-05-02T08:56:48Z</time></trkpt><trkpt lat="42.05430215313157" lon="2.9982997683689767"><ele>49.0</ele><time>2026-05-02T08:56:49Z</time></trkpt><trkpt lat="42.054400397337396" lon="2.998297604660428"><ele>45.0</ele><time>2026-05-02T08:56:50Z</time></trkpt><trkpt lat="42.05449723180152" lon="2.998293769196211"><ele>43.6</ele><time>2026-05-02T08:56:51Z</time></trkpt><trkpt lat="42.05459297483436" lon="2.9982753523374166"><ele>42.2</ele><time>2026-05-02T08:56:52Z</time></trkpt><trkpt lat="42.05469025326128" lon="2.998251805912568"><ele>40.8</ele><time>2026-05-02T08:56:53Z</time></trkpt><trkpt lat="42.05478601547914" lon="2.9982296469925624"><ele>39.4</ele><time>2026-05-02T08:56:54Z</time></trkpt><trkpt lat="42.05488223269406" lon="2.9982140640687738"><ele>38.0</ele><time>2026-05-02T08:56:55Z</time></trkpt><trkpt lat="42.05497683167369" lon="2.9982065579239867"><ele>36.6</ele><time>2026-05-02T08:56:56Z</time></trkpt><trkpt lat="42.055069810576676" lon="2.9982051149394393"><ele>35.199999999999996</ele><time>2026-05-02T08:56:57Z</time></trkpt><trkpt lat="42.05514140823799" lon="2.998205278298604"><ele>33.8</ele><time>2026-05-02T08:56:58Z</time></trkpt><trkpt lat="42.05524145887635" lon="2.9982089312440885"><ele>32.4</ele><time>2026-05-02T08:56:59Z</time></trkpt><trkpt lat="42.055336636612516" lon="2.9982164163866116"><ele>31.0</ele><time>2026-05-02T08:57:00Z</time></trkpt><trkpt lat="42.05542755503251" lon="2.9982557025503462"><ele>31.0</ele><time>2026-05-02T08:57:01Z</time></trkpt><trkpt lat="42.05552420761015" lon="2.998275453295332"><ele>31.0</ele><time>2026-05-02T08:57:02Z</time></trkpt><trkpt lat="42.055809680908766" lon="2.998296578920361"><ele>31.0</ele><time>2026-05-02T08:57:05Z</time></trkpt><trkpt lat="42.055905333556176" lon="2.998285665734217"><ele>29.4</ele><time>2026-05-02T08:57:06Z</time></trkpt><trkpt lat="42.056001005293986" lon="2.9982826359648707"><ele>27.8</ele><time>2026-05-02T08:57:07Z</time></trkpt><trkpt lat="42.05609361859575" lon="2.9982715545126903"><ele>26.2</ele><time>2026-05-02T08:57:08Z</time></trkpt><trkpt lat="42.0561904312405" lon="2.9982572761421817"><ele>24.599999999999998</ele><time>2026-05-02T08:57:09Z</time></trkpt><trkpt lat="42.05628592455422" lon="2.9982486344173456"><ele>23.0</ele><time>2026-05-02T08:57:10Z</time></trkpt><trkpt lat="42.05637922572487" lon="2.9982375499433176"><ele>23.0</ele><time>2026-05-02T08:57:11Z</time></trkpt><trkpt lat="42.05646811331673" lon="2.9982307554039735"><ele>23.0</ele><time>2026-05-02T08:57:12Z</time></trkpt><trkpt lat="42.05656014340406" lon="2.9982273119889924"><ele>23.0</ele><time>2026-05-02T08:57:13Z</time></trkpt><trkpt lat="42.056651256276986" lon="2.9982444149261673"><ele>23.0</ele><time>2026-05-02T08:57:14Z</time></trkpt><trkpt lat="42.056734742370594" lon="2.9982926655289353"><ele>23.0</ele><time>2026-05-02T08:57:15Z</time></trkpt><trkpt lat="42.05681273607113" lon="2.998337535408908"><ele>23.0</ele><time>2026-05-02T08:57:16Z</time></trkpt><trkpt lat="42.05689074389007" lon="2.998373483318336"><ele>22.5</ele><time>2026-05-02T08:57:17Z</time></trkpt><trkpt lat="42.056971274446695" lon="2.998398523362998"><ele>22.0</ele><time>2026-05-02T08:57:18Z</time></trkpt><trkpt lat="42.05705850116422" lon="2.9983761665423514"><ele>21.5</ele><time>2026-05-02T08:57:19Z</time></trkpt><trkpt lat="42.057144781559366" lon="2.9983658842879097"><ele>21.0</ele><time>2026-05-02T08:57:20Z</time></trkpt><trkpt lat="42.057232719771044" lon="2.998349519640493"><ele>20.5</ele><time>2026-05-02T08:57:21Z</time></trkpt><trkpt lat="42.05731774660004" lon="2.998328865821308"><ele>20.0</ele><time>2026-05-02T08:57:22Z</time></trkpt><trkpt lat="42.057408220338814" lon="2.998318580674335"><ele>20.0</ele><time>2026-05-02T08:57:23Z</time></trkpt><trkpt lat="42.05749893352312" lon="2.998302574860156"><ele>20.0</ele><time>2026-05-02T08:57:24Z</time></trkpt><trkpt lat="42.05758884002799" lon="2.9982896407184616"><ele>20.0</ele><time>2026-05-02T08:57:25Z</time></trkpt><trkpt lat="42.05767555075519" lon="2.9982743937906893"><ele>20.0</ele><time>2026-05-02T08:57:26Z</time></trkpt><trkpt lat="42.05776514112437" lon="2.998256955971403"><ele>20.0</ele><time>2026-05-02T08:57:27Z</time></trkpt><trkpt lat="42.057855966959956" lon="2.9982412587512903"><ele>20.0</ele><time>2026-05-02T08:57:28Z</time></trkpt><trkpt lat="42.05794455738811" lon="2.9982230605627684"><ele>20.0</ele><time>2026-05-02T08:57:29Z</time></trkpt><trkpt lat="42.05803310109441" lon="2.998207629441229"><ele>20.0</ele><time>2026-05-02T08:57:30Z</time></trkpt><trkpt lat="42.05812387626286" lon="2.998189971035529"><ele>20.0</ele><time>2026-05-02T08:57:31Z</time></trkpt><trkpt lat="42.05821289828864" lon="2.998175910477835"><ele>20.0</ele><time>2026-05-02T08:57:32Z</time></trkpt><trkpt lat="42.05829989687252" lon="2.9981607273857396"><ele>20.0</ele><time>2026-05-02T08:57:33Z</time></trkpt><trkpt lat="42.0583843497322" lon="2.998146542934945"><ele>20.166666666666668</ele><time>2026-05-02T08:57:34Z</time></trkpt><trkpt lat="42.0584690305129" lon="2.9981320682842103"><ele>20.333333333333336</ele><time>2026-05-02T08:57:35Z</time></trkpt><trkpt lat="42.058556335455854" lon="2.998117049712629"><ele>20.5</ele><time>2026-05-02T08:57:36Z</time></trkpt><trkpt lat="42.05864510404875" lon="2.998099937563168"><ele>20.666666666666668</ele><time>2026-05-02T08:57:37Z</time></trkpt><trkpt lat="42.058732635032975" lon="2.9980846367437324"><ele>20.833333333333332</ele><time>2026-05-02T08:57:38Z</time></trkpt><trkpt lat="42.058818711366285" lon="2.9980655859902003"><ele>21.0</ele><time>2026-05-02T08:57:39Z</time></trkpt><trkpt lat="42.05890345389549" lon="2.998048267707142"><ele>21.0</ele><time>2026-05-02T08:57:40Z</time></trkpt><trkpt lat="42.05898803517698" lon="2.998030633205999"><ele>21.0</ele><time>2026-05-02T08:57:41Z</time></trkpt><trkpt lat="42.05907496392011" lon="2.9980207659462628"><ele>21.0</ele><time>2026-05-02T08:57:42Z</time></trkpt><trkpt lat="42.05916268877319" lon="2.998012109948369"><ele>21.0</ele><time>2026-05-02T08:57:43Z</time></trkpt><trkpt lat="42.05924727985545" lon="2.997994333208411"><ele>21.0</ele><time>2026-05-02T08:57:44Z</time></trkpt><trkpt lat="42.05933188982371" lon="2.997981602033536"><ele>21.0</ele><time>2026-05-02T08:57:45Z</time></trkpt><trkpt lat="42.05941488091813" lon="2.997964311118675"><ele>21.333333333333332</ele><time>2026-05-02T08:57:46Z</time></trkpt><trkpt lat="42.05949976246027" lon="2.997951958985688"><ele>21.666666666666668</ele><time>2026-05-02T08:57:47Z</time></trkpt><trkpt lat="42.059582405136574" lon="2.9979403371505056"><ele>22.0</ele><time>2026-05-02T08:57:48Z</time></trkpt><trkpt lat="42.05966359853553" lon="2.997926729669573"><ele>22.333333333333336</ele><time>2026-05-02T08:57:49Z</time></trkpt><trkpt lat="42.05974013289153" lon="2.9979130064973454"><ele>22.666666666666668</ele><time>2026-05-02T08:57:50Z</time></trkpt><trkpt lat="42.0598157765561" lon="2.9979014216866884"><ele>23.0</ele><time>2026-05-02T08:57:51Z</time></trkpt><trkpt lat="42.05989081167922" lon="2.997891300352392"><ele>22.333333333333336</ele><time>2026-05-02T08:57:52Z</time></trkpt><trkpt lat="42.05996870607748" lon="2.9978775445638055"><ele>21.666666666666668</ele><time>2026-05-02T08:57:53Z</time></trkpt><trkpt lat="42.06004771498654" lon="2.997866671404813"><ele>21.0</ele><time>2026-05-02T08:57:54Z</time></trkpt><trkpt lat="42.060125656812914" lon="2.9978515016345018"><ele>20.333333333333332</ele><time>2026-05-02T08:57:55Z</time></trkpt><trkpt lat="42.06020452466163" lon="2.9978394774673727"><ele>19.666666666666664</ele><time>2026-05-02T08:57:55.999Z</time></trkpt><trkpt lat="42.06028526468272" lon="2.9978306037485556"><ele>19.0</ele><time>2026-05-02T08:57:56.999Z</time></trkpt><trkpt lat="42.060366225103934" lon="2.997823081693678"><ele>19.0</ele><time>2026-05-02T08:57:57.999Z</time></trkpt><trkpt lat="42.06044359989254" lon="2.9978158724891677"><ele>19.0</ele><time>2026-05-02T08:57:58.999Z</time></trkpt><trkpt lat="42.060524423616144" lon="2.997807123439775"><ele>19.0</ele><time>2026-05-02T08:57:59.999Z</time></trkpt><trkpt lat="42.0606047576626" lon="2.997795166218536"><ele>19.0</ele><time>2026-05-02T08:58:00.999Z</time></trkpt><trkpt lat="42.06068730893881" lon="2.997784776545285"><ele>19.0</ele><time>2026-05-02T08:58:01.999Z</time></trkpt><trkpt lat="42.060771383746314" lon="2.997776277187442"><ele>19.0</ele><time>2026-05-02T08:58:02.999Z</time></trkpt><trkpt lat="42.06085442730829" lon="2.997760206203057"><ele>18.833333333333332</ele><time>2026-05-02T08:58:03.999Z</time></trkpt><trkpt lat="42.06094041102518" lon="2.9977426913532925"><ele>18.666666666666664</ele><time>2026-05-02T08:58:04.999Z</time></trkpt><trkpt lat="42.061024204957356" lon="2.9977310600001426"><ele>18.5</ele><time>2026-05-02T08:58:05.999Z</time></trkpt><trkpt lat="42.06110735601297" lon="2.9977217447341937"><ele>18.333333333333332</ele><time>2026-05-02T08:58:06.999Z</time></trkpt><trkpt lat="42.06119111843119" lon="2.9977121827137716"><ele>18.166666666666668</ele><time>2026-05-02T08:58:07.999Z</time></trkpt><trkpt lat="42.06127469856863" lon="2.9977020280682796"><ele>18.0</ele><time>2026-05-02T08:58:08.999Z</time></trkpt><trkpt lat="42.0613595507663" lon="2.9976939260805175"><ele>18.0</ele><time>2026-05-02T08:58:09.999Z</time></trkpt><trkpt lat="42.061442191448585" lon="2.9976844973115013"><ele>18.0</ele><time>2026-05-02T08:58:10.999Z</time></trkpt><trkpt lat="42.06152636025547" lon="2.99766901283235"><ele>18.0</ele><time>2026-05-02T08:58:11.999Z</time></trkpt><trkpt lat="42.06160831785642" lon="2.9976430647678947"><ele>18.0</ele><time>2026-05-02T08:58:12.999Z</time></trkpt><trkpt lat="42.06169120880597" lon="2.9976144686894948"><ele>18.0</ele><time>2026-05-02T08:58:13.999Z</time></trkpt><trkpt lat="42.06177337627631" lon="2.9975883252478637"><ele>18.0</ele><time>2026-05-02T08:58:14.999Z</time></trkpt><trkpt lat="42.061854076194045" lon="2.997560868630955"><ele>17.833333333333332</ele><time>2026-05-02T08:58:15.999Z</time></trkpt><trkpt lat="42.06193056540749" lon="2.9975324929034337"><ele>17.666666666666668</ele><time>2026-05-02T08:58:16.999Z</time></trkpt><trkpt lat="42.06201122951167" lon="2.997507561828396"><ele>17.5</ele><time>2026-05-02T08:58:17.999Z</time></trkpt><trkpt lat="42.06208890645686" lon="2.9974800059475912"><ele>17.333333333333336</ele><time>2026-05-02T08:58:18.999Z</time></trkpt><trkpt lat="42.062168412312005" lon="2.9974523599740546"><ele>17.166666666666668</ele><time>2026-05-02T08:58:19.999Z</time></trkpt><trkpt lat="42.062248196767136" lon="2.9974249471719965"><ele>17.0</ele><time>2026-05-02T08:58:20.999Z</time></trkpt><trkpt lat="42.06232871749704" lon="2.9973979971706393"><ele>17.166666666666668</ele><time>2026-05-02T08:58:21.999Z</time></trkpt><trkpt lat="42.06241021509894" lon="2.9973710961137168"><ele>17.333333333333336</ele><time>2026-05-02T08:58:22.999Z</time></trkpt><trkpt lat="42.062488841086896" lon="2.99734531481731"><ele>17.5</ele><time>2026-05-02T08:58:23.999Z</time></trkpt><trkpt lat="42.062568920581285" lon="2.997322846695066"><ele>17.666666666666668</ele><time>2026-05-02T08:58:24.999Z</time></trkpt><trkpt lat="42.06264836456389" lon="2.997299121348819"><ele>17.833333333333332</ele><time>2026-05-02T08:58:25.999Z</time></trkpt><trkpt lat="42.06272370005525" lon="2.9972818069698803"><ele>18.0</ele><time>2026-05-02T08:58:26.999Z</time></trkpt><trkpt lat="42.06279721102155" lon="2.9972566261589177"><ele>18.0</ele><time>2026-05-02T08:58:27.999Z</time></trkpt><trkpt lat="42.06287443828666" lon="2.9972299596275636"><ele>18.0</ele><time>2026-05-02T08:58:28.999Z</time></trkpt><trkpt lat="42.062952272379256" lon="2.997201607590301"><ele>18.0</ele><time>2026-05-02T08:58:29.999Z</time></trkpt><trkpt lat="42.063032122759495" lon="2.9971721964491618"><ele>18.0</ele><time>2026-05-02T08:58:30.999Z</time></trkpt><trkpt lat="42.063112304968165" lon="2.9971441166898947"><ele>18.0</ele><time>2026-05-02T08:58:31.999Z</time></trkpt><trkpt lat="42.0631936584612" lon="2.9971119231963947"><ele>18.0</ele><time>2026-05-02T08:58:32.999Z</time></trkpt><trkpt lat="42.06327040760997" lon="2.997077513469918"><ele>18.0</ele><time>2026-05-02T08:58:33.999Z</time></trkpt><trkpt lat="42.06335076263222" lon="2.9970402526618445"><ele>18.0</ele><time>2026-05-02T08:58:34.999Z</time></trkpt><trkpt lat="42.06342862283419" lon="2.9970007231269635"><ele>18.0</ele><time>2026-05-02T08:58:35.999Z</time></trkpt><trkpt lat="42.063508100185445" lon="2.9969574875075016"><ele>18.0</ele><time>2026-05-02T08:58:36.999Z</time></trkpt><trkpt lat="42.06358924141919" lon="2.9969164875449326"><ele>18.0</ele><time>2026-05-02T08:58:37.999Z</time></trkpt><trkpt lat="42.06367117655171" lon="2.996874811139801"><ele>18.0</ele><time>2026-05-02T08:58:38.999Z</time></trkpt><trkpt lat="42.063756756307356" lon="2.996856655720648"><ele>18.0</ele><time>2026-05-02T08:58:39.999Z</time></trkpt><trkpt lat="42.06383554485266" lon="2.9968205595028983"><ele>18.0</ele><time>2026-05-02T08:58:40.999Z</time></trkpt><trkpt lat="42.06390881886443" lon="2.9967660343346063"><ele>18.0</ele><time>2026-05-02T08:58:41.999Z</time></trkpt><trkpt lat="42.06398788048696" lon="2.996730511957282"><ele>18.0</ele><time>2026-05-02T08:58:42.999Z</time></trkpt><trkpt lat="42.064072322208986" lon="2.9967204784298036"><ele>18.0</ele><time>2026-05-02T08:58:43.999Z</time></trkpt><trkpt lat="42.064153632876796" lon="2.996684778509741"><ele>18.0</ele><time>2026-05-02T08:58:44.999Z</time></trkpt><trkpt lat="42.06422995163771" lon="2.9966273061421353"><ele>18.166666666666668</ele><time>2026-05-02T08:58:45.999Z</time></trkpt><trkpt lat="42.06431045027946" lon="2.996579431185373"><ele>18.333333333333332</ele><time>2026-05-02T08:58:46.999Z</time></trkpt><trkpt lat="42.06438288659806" lon="2.99651544441311"><ele>18.5</ele><time>2026-05-02T08:58:47.999Z</time></trkpt><trkpt lat="42.064448099487166" lon="2.9964459427160897"><ele>18.666666666666664</ele><time>2026-05-02T08:58:48.999Z</time></trkpt><trkpt lat="42.06450531190649" lon="2.996371684060872"><ele>18.833333333333332</ele><time>2026-05-02T08:58:50Z</time></trkpt><trkpt lat="42.06456558630678" lon="2.996295037557233"><ele>19.0</ele><time>2026-05-02T08:58:51Z</time></trkpt><trkpt lat="42.064631232321325" lon="2.996220752900926"><ele>19.0</ele><time>2026-05-02T08:58:52Z</time></trkpt><trkpt lat="42.06470477068206" lon="2.996157168392945"><ele>19.0</ele><time>2026-05-02T08:58:53Z</time></trkpt><trkpt lat="42.06477993191098" lon="2.9961087670682787"><ele>19.0</ele><time>2026-05-02T08:58:54Z</time></trkpt><trkpt lat="42.06485974458271" lon="2.99606622999747"><ele>19.0</ele><time>2026-05-02T08:58:55Z</time></trkpt><trkpt lat="42.06494385185285" lon="2.996036467774671"><ele>19.0</ele><time>2026-05-02T08:58:56Z</time></trkpt><trkpt lat="42.06503086061425" lon="2.9960156064837533"><ele>19.0</ele><time>2026-05-02T08:58:57Z</time></trkpt><trkpt lat="42.06511649679102" lon="2.9959983704586715"><ele>19.0</ele><time>2026-05-02T08:58:58Z</time></trkpt><trkpt lat="42.06520155121086" lon="2.9959810836143825"><ele>19.0</ele><time>2026-05-02T08:58:59Z</time></trkpt><trkpt lat="42.06528642645431" lon="2.9959703654743737"><ele>19.0</ele><time>2026-05-02T08:59:00Z</time></trkpt><trkpt lat="42.065370988759206" lon="2.9959630483318724"><ele>19.0</ele><time>2026-05-02T08:59:01Z</time></trkpt><trkpt lat="42.06545273134203" lon="2.9959501542317417"><ele>19.0</ele><time>2026-05-02T08:59:02Z</time></trkpt><trkpt lat="42.06553731594258" lon="2.9959414527896366"><ele>19.0</ele><time>2026-05-02T08:59:03Z</time></trkpt><trkpt lat="42.06562118840267" lon="2.9959282165542653"><ele>19.0</ele><time>2026-05-02T08:59:04Z</time></trkpt><trkpt lat="42.065706016337266" lon="2.995915985593706"><ele>19.0</ele><time>2026-05-02T08:59:05Z</time></trkpt><trkpt lat="42.065791136434946" lon="2.9959014584465384"><ele>19.0</ele><time>2026-05-02T08:59:06Z</time></trkpt><trkpt lat="42.06587363348288" lon="2.9958877858053405"><ele>19.0</ele><time>2026-05-02T08:59:07Z</time></trkpt><trkpt lat="42.06595478231696" lon="2.9958744326146682"><ele>19.0</ele><time>2026-05-02T08:59:08Z</time></trkpt><trkpt lat="42.06603347969777" lon="2.995862576855133"><ele>19.0</ele><time>2026-05-02T08:59:09Z</time></trkpt><trkpt lat="42.066118674210216" lon="2.995847758994957"><ele>19.0</ele><time>2026-05-02T08:59:10Z</time></trkpt><trkpt lat="42.06619987951417" lon="2.9958317736674194"><ele>19.0</ele><time>2026-05-02T08:59:11Z</time></trkpt><trkpt lat="42.06627959727082" lon="2.995821380293619"><ele>19.0</ele><time>2026-05-02T08:59:12Z</time></trkpt><trkpt lat="42.066357661321526" lon="2.9958113022812873"><ele>19.0</ele><time>2026-05-02T08:59:13Z</time></trkpt><trkpt lat="42.066439130849574" lon="2.9958025556899233"><ele>19.0</ele><time>2026-05-02T08:59:14Z</time></trkpt><trkpt lat="42.066522212733176" lon="2.9957965026955984"><ele>19.0</ele><time>2026-05-02T08:59:15Z</time></trkpt><trkpt lat="42.066606463210114" lon="2.995787751439164"><ele>19.166666666666664</ele><time>2026-05-02T08:59:16Z</time></trkpt><trkpt lat="42.06668904234029" lon="2.9957800385515663"><ele>19.333333333333332</ele><time>2026-05-02T08:59:17Z</time></trkpt><trkpt lat="42.06677171838683" lon="2.995771690433442"><ele>19.5</ele><time>2026-05-02T08:59:18Z</time></trkpt><trkpt lat="42.06685505303572" lon="2.9957645400472344"><ele>19.666666666666668</ele><time>2026-05-02T08:59:19Z</time></trkpt><trkpt lat="42.066935916068594" lon="2.9957566031628198"><ele>19.833333333333336</ele><time>2026-05-02T08:59:20Z</time></trkpt><trkpt lat="42.06701444035606" lon="2.9957498343747355"><ele>20.0</ele><time>2026-05-02T08:59:21Z</time></trkpt><trkpt lat="42.06709548871115" lon="2.995750934279814"><ele>20.0</ele><time>2026-05-02T08:59:22Z</time></trkpt><trkpt lat="42.06717781226208" lon="2.9957762602026423"><ele>20.0</ele><time>2026-05-02T08:59:23Z</time></trkpt><trkpt lat="42.067238276901946" lon="2.995863432846727"><ele>20.0</ele><time>2026-05-02T08:59:24Z</time></trkpt><trkpt lat="42.06731330054559" lon="2.9959231549627336"><ele>20.0</ele><time>2026-05-02T08:59:25Z</time></trkpt><trkpt lat="42.06739203748902" lon="2.9959590109491647"><ele>20.0</ele><time>2026-05-02T08:59:26Z</time></trkpt><trkpt lat="42.067465703737454" lon="2.995998239452576"><ele>20.0</ele><time>2026-05-02T08:59:27Z</time></trkpt><trkpt lat="42.06754508058825" lon="2.996015027319941"><ele>19.5</ele><time>2026-05-02T08:59:28Z</time></trkpt><trkpt lat="42.06762679559001" lon="2.9960191016734647"><ele>19.0</ele><time>2026-05-02T08:59:29Z</time></trkpt><trkpt lat="42.067709662518126" lon="2.9960179258905164"><ele>18.5</ele><time>2026-05-02T08:59:30Z</time></trkpt><trkpt lat="42.06778890538436" lon="2.996004639333489"><ele>18.0</ele><time>2026-05-02T08:59:31Z</time></trkpt><trkpt lat="42.06786594316011" lon="2.99598684242"><ele>17.5</ele><time>2026-05-02T08:59:32Z</time></trkpt><trkpt lat="42.06794116399576" lon="2.995972637968218"><ele>17.0</ele><time>2026-05-02T08:59:33Z</time></trkpt><trkpt lat="42.06801615302347" lon="2.995958556445994"><ele>16.999999999999996</ele><time>2026-05-02T08:59:34Z</time></trkpt><trkpt lat="42.06809328841861" lon="2.9959386180206233"><ele>17.0</ele><time>2026-05-02T08:59:35Z</time></trkpt><trkpt lat="42.0681673565343" lon="2.995908389989292"><ele>17.0</ele><time>2026-05-02T08:59:36Z</time></trkpt><trkpt lat="42.06823475363193" lon="2.9958764281505044"><ele>17.0</ele><time>2026-05-02T08:59:37Z</time></trkpt><trkpt lat="42.068302505344825" lon="2.9958446595399786"><ele>17.0</ele><time>2026-05-02T08:59:38Z</time></trkpt><trkpt lat="42.06837020195452" lon="2.9958247471282125"><ele>16.999999999999996</ele><time>2026-05-02T08:59:39Z</time></trkpt><trkpt lat="42.068442635396714" lon="2.995799124294321"><ele>17.0</ele><time>2026-05-02T08:59:40Z</time></trkpt><trkpt lat="42.068510404964016" lon="2.995760258583364"><ele>17.428571428571427</ele><time>2026-05-02T08:59:41Z</time></trkpt><trkpt lat="42.06857751410487" lon="2.9957190419962543"><ele>17.857142857142858</ele><time>2026-05-02T08:59:42Z</time></trkpt><trkpt lat="42.068640824330785" lon="2.995672582790749"><ele>18.285714285714285</ele><time>2026-05-02T08:59:43Z</time></trkpt><trkpt lat="42.06870116954339" lon="2.9956154203343344"><ele>18.714285714285715</ele><time>2026-05-02T08:59:44Z</time></trkpt><trkpt lat="42.06874898953168" lon="2.9955567649763566"><ele>19.142857142857142</ele><time>2026-05-02T08:59:45Z</time></trkpt><trkpt lat="42.06879281276607" lon="2.9954727969324537"><ele>19.57142857142857</ele><time>2026-05-02T08:59:46Z</time></trkpt><trkpt lat="42.068825733015544" lon="2.9953845025689088"><ele>20.0</ele><time>2026-05-02T08:59:47Z</time></trkpt><trkpt lat="42.06883973132327" lon="2.9952817325558727"><ele>20.0</ele><time>2026-05-02T08:59:48Z</time></trkpt><trkpt lat="42.06886834809705" lon="2.9951955733677655"><ele>20.0</ele><time>2026-05-02T08:59:49Z</time></trkpt><trkpt lat="42.0689302939762" lon="2.9950469026467323"><ele>20.0</ele><time>2026-05-02T08:59:51Z</time></trkpt><trkpt lat="42.0689916792099" lon="2.9949929053327233"><ele>20.0</ele><time>2026-05-02T08:59:52Z</time></trkpt><trkpt lat="42.069058408917016" lon="2.9949706683554314"><ele>20.0</ele><time>2026-05-02T08:59:53Z</time></trkpt><trkpt lat="42.069126380780034" lon="2.994935856627038"><ele>20.0</ele><time>2026-05-02T08:59:54Z</time></trkpt><trkpt lat="42.06919354181056" lon="2.994903205198519"><ele>20.57142857142857</ele><time>2026-05-02T08:59:55Z</time></trkpt><trkpt lat="42.069256580218884" lon="2.9948716571328"><ele>21.142857142857142</ele><time>2026-05-02T08:59:56Z</time></trkpt><trkpt lat="42.06932961616778" lon="2.994842995088783"><ele>21.714285714285715</ele><time>2026-05-02T08:59:57Z</time></trkpt><trkpt lat="42.06940083406236" lon="2.9948024957496684"><ele>22.285714285714285</ele><time>2026-05-02T08:59:58Z</time></trkpt><trkpt lat="42.06946774625421" lon="2.9947592263157703"><ele>22.857142857142858</ele><time>2026-05-02T08:59:59Z</time></trkpt><trkpt lat="42.06953759209199" lon="2.9947165792756407"><ele>23.428571428571427</ele><time>2026-05-02T09:00:00Z</time></trkpt><trkpt lat="42.06960788021673" lon="2.9946757651786076"><ele>24.0</ele><time>2026-05-02T09:00:01Z</time></trkpt><trkpt lat="42.06967608352197" lon="2.994637258535047"><ele>24.0</ele><time>2026-05-02T09:00:02Z</time></trkpt><trkpt lat="42.06974909183931" lon="2.9946094155081946"><ele>24.0</ele><time>2026-05-02T09:00:03Z</time></trkpt><trkpt lat="42.0698180592079" lon="2.9945819140198218"><ele>24.0</ele><time>2026-05-02T09:00:04Z</time></trkpt><trkpt lat="42.06989591865162" lon="2.994545496776635"><ele>24.0</ele><time>2026-05-02T09:00:05Z</time></trkpt><trkpt lat="42.06997207848505" lon="2.9945048030723207"><ele>24.0</ele><time>2026-05-02T09:00:06Z</time></trkpt><trkpt lat="42.07004700434109" lon="2.994468012590704"><ele>24.0</ele><time>2026-05-02T09:00:07Z</time></trkpt><trkpt lat="42.07012441985258" lon="2.99442443322575"><ele>24.0</ele><time>2026-05-02T09:00:08Z</time></trkpt><trkpt lat="42.07019806870433" lon="2.994382978116762"><ele>24.0</ele><time>2026-05-02T09:00:09Z</time></trkpt><trkpt lat="42.07027422412309" lon="2.994347055103121"><ele>24.0</ele><time>2026-05-02T09:00:10Z</time></trkpt><trkpt lat="42.07035050083761" lon="2.994306236063583"><ele>24.0</ele><time>2026-05-02T09:00:11Z</time></trkpt><trkpt lat="42.070422925087996" lon="2.9942662890245946"><ele>24.0</ele><time>2026-05-02T09:00:12Z</time></trkpt><trkpt lat="42.070492822471536" lon="2.9942269086971995"><ele>24.0</ele><time>2026-05-02T09:00:13Z</time></trkpt><trkpt lat="42.07056276115082" lon="2.9941888438904467"><ele>24.285714285714285</ele><time>2026-05-02T09:00:14Z</time></trkpt><trkpt lat="42.07063503767105" lon="2.994158903138856"><ele>24.57142857142857</ele><time>2026-05-02T09:00:15Z</time></trkpt><trkpt lat="42.070706522600325" lon="2.994132923209461"><ele>24.857142857142854</ele><time>2026-05-02T09:00:16Z</time></trkpt><trkpt lat="42.070776637421" lon="2.9941032177281315"><ele>25.142857142857142</ele><time>2026-05-02T09:00:16.999Z</time></trkpt><trkpt lat="42.070849171077576" lon="2.9940879233195745"><ele>25.42857142857143</ele><time>2026-05-02T09:00:17.999Z</time></trkpt><trkpt lat="42.07092080570434" lon="2.9940751005093444"><ele>25.71428571428571</ele><time>2026-05-02T09:00:18.999Z</time></trkpt><trkpt lat="42.07099424769161" lon="2.994083319680408"><ele>26.0</ele><time>2026-05-02T09:00:19.999Z</time></trkpt><trkpt lat="42.07106526119015" lon="2.994065744428664"><ele>25.999999999999996</ele><time>2026-05-02T09:00:20.999Z</time></trkpt><trkpt lat="42.07114216529105" lon="2.9940383935612944"><ele>26.0</ele><time>2026-05-02T09:00:21.999Z</time></trkpt><trkpt lat="42.0712197505854" lon="2.994006785495511"><ele>26.0</ele><time>2026-05-02T09:00:22.999Z</time></trkpt><trkpt lat="42.071303673484024" lon="2.9939698482526533"><ele>26.0</ele><time>2026-05-02T09:00:23.999Z</time></trkpt><trkpt lat="42.071381562707664" lon="2.9939341345979735"><ele>25.999999999999996</ele><time>2026-05-02T09:00:24.999Z</time></trkpt><trkpt lat="42.07146066041096" lon="2.9938947338166115"><ele>26.0</ele><time>2026-05-02T09:00:25.999Z</time></trkpt><trkpt lat="42.071528897061256" lon="2.993833938329011"><ele>25.999999999999996</ele><time>2026-05-02T09:00:26.999Z</time></trkpt><trkpt lat="42.071604481473265" lon="2.993794200133761"><ele>26.0</ele><time>2026-05-02T09:00:27.999Z</time></trkpt><trkpt lat="42.07167928849551" lon="2.993751315060111"><ele>26.0</ele><time>2026-05-02T09:00:28.999Z</time></trkpt><trkpt lat="42.07175265614567" lon="2.9937063152364836"><ele>26.0</ele><time>2026-05-02T09:00:29.999Z</time></trkpt><trkpt lat="42.07181995938192" lon="2.9936607471716954"><ele>25.999999999999996</ele><time>2026-05-02T09:00:30.999Z</time></trkpt><trkpt lat="42.071893266695646" lon="2.9936128695197364"><ele>26.0</ele><time>2026-05-02T09:00:31.999Z</time></trkpt><trkpt lat="42.071962418798876" lon="2.9935606098353498"><ele>25.857142857142858</ele><time>2026-05-02T09:00:32.999Z</time></trkpt><trkpt lat="42.072036386511755" lon="2.9935305188647474"><ele>25.714285714285715</ele><time>2026-05-02T09:00:33.999Z</time></trkpt><trkpt lat="42.07209197392929" lon="2.993463324759993"><ele>25.571428571428573</ele><time>2026-05-02T09:00:34.999Z</time></trkpt><trkpt lat="42.072155289289675" lon="2.9934153248025046"><ele>25.42857142857143</ele><time>2026-05-02T09:00:35.999Z</time></trkpt><trkpt lat="42.07221854388097" lon="2.993367087288644"><ele>25.285714285714285</ele><time>2026-05-02T09:00:36.999Z</time></trkpt><trkpt lat="42.072281598965766" lon="2.9933220849433013"><ele>25.142857142857146</ele><time>2026-05-02T09:00:37.999Z</time></trkpt><trkpt lat="42.072344738967615" lon="2.993266788263656"><ele>25.0</ele><time>2026-05-02T09:00:38.999Z</time></trkpt><trkpt lat="42.072410844435325" lon="2.993218543934851"><ele>25.28571428571429</ele><time>2026-05-02T09:00:39.999Z</time></trkpt><trkpt lat="42.07248063866464" lon="2.993201163202357"><ele>25.571428571428573</ele><time>2026-05-02T09:00:40.999Z</time></trkpt><trkpt lat="42.07254482041106" lon="2.9931663627769"><ele>25.857142857142858</ele><time>2026-05-02T09:00:41.999Z</time></trkpt><trkpt lat="42.07260512877238" lon="2.9931203655842826"><ele>26.142857142857146</ele><time>2026-05-02T09:00:42.999Z</time></trkpt><trkpt lat="42.07267114316078" lon="2.993091231165228"><ele>26.428571428571427</ele><time>2026-05-02T09:00:43.999Z</time></trkpt><trkpt lat="42.072742246626476" lon="2.9930417936742724"><ele>26.714285714285715</ele><time>2026-05-02T09:00:44.999Z</time></trkpt><trkpt lat="42.072816929987525" lon="2.9930024610208865"><ele>27.0</ele><time>2026-05-02T09:00:45.999Z</time></trkpt><trkpt lat="42.072882895086856" lon="2.9929525267180317"><ele>27.0</ele><time>2026-05-02T09:00:46.999Z</time></trkpt><trkpt lat="42.07294498831158" lon="2.992880771564728"><ele>27.0</ele><time>2026-05-02T09:00:47.999Z</time></trkpt><trkpt lat="42.07301568542357" lon="2.992826432947831"><ele>27.0</ele><time>2026-05-02T09:00:48.999Z</time></trkpt><trkpt lat="42.0730848811623" lon="2.992770302468549"><ele>27.0</ele><time>2026-05-02T09:00:49.999Z</time></trkpt><trkpt lat="42.073154074707524" lon="2.9927034597235487"><ele>27.0</ele><time>2026-05-02T09:00:50.999Z</time></trkpt><trkpt lat="42.07321479148237" lon="2.9926367084600596"><ele>27.0</ele><time>2026-05-02T09:00:51.999Z</time></trkpt><trkpt lat="42.073271052490874" lon="2.9925541321767906"><ele>27.142857142857142</ele><time>2026-05-02T09:00:52.999Z</time></trkpt><trkpt lat="42.07332501218182" lon="2.992476533361332"><ele>27.285714285714285</ele><time>2026-05-02T09:00:53.999Z</time></trkpt><trkpt lat="42.07338612590545" lon="2.9924109080625843"><ele>27.42857142857143</ele><time>2026-05-02T09:00:54.999Z</time></trkpt><trkpt lat="42.07343045586483" lon="2.992349907011887"><ele>27.57142857142857</ele><time>2026-05-02T09:00:56Z</time></trkpt><trkpt lat="42.0734754216234" lon="2.9922870555479393"><ele>27.714285714285715</ele><time>2026-05-02T09:00:57Z</time></trkpt><trkpt lat="42.073520113602676" lon="2.9922227919117788"><ele>27.857142857142858</ele><time>2026-05-02T09:00:58Z</time></trkpt><trkpt lat="42.07356914621595" lon="2.992151344838983"><ele>28.0</ele><time>2026-05-02T09:00:59Z</time></trkpt><trkpt lat="42.073622420565485" lon="2.992072314138799"><ele>28.000000000000004</ele><time>2026-05-02T09:01:00Z</time></trkpt><trkpt lat="42.07367467006737" lon="2.9919916267026716"><ele>28.0</ele><time>2026-05-02T09:01:01Z</time></trkpt><trkpt lat="42.07372702228034" lon="2.9919096176720563"><ele>28.0</ele><time>2026-05-02T09:01:02Z</time></trkpt><trkpt lat="42.0737634883137" lon="2.99182838796944"><ele>28.0</ele><time>2026-05-02T09:01:03Z</time></trkpt><trkpt lat="42.073805559070244" lon="2.9917584568738036"><ele>28.000000000000004</ele><time>2026-05-02T09:01:04Z</time></trkpt><trkpt lat="42.073855835712706" lon="2.991669191498957"><ele>28.0</ele><time>2026-05-02T09:01:05Z</time></trkpt><trkpt lat="42.07391755311882" lon="2.99158810390517"><ele>27.666666666666668</ele><time>2026-05-02T09:01:06Z</time></trkpt><trkpt lat="42.07399066662967" lon="2.9915206557231744"><ele>27.333333333333336</ele><time>2026-05-02T09:01:07Z</time></trkpt><trkpt lat="42.074061221193894" lon="2.9914642005755363"><ele>27.0</ele><time>2026-05-02T09:01:08Z</time></trkpt><trkpt lat="42.074134399627965" lon="2.99141346050326"><ele>26.666666666666664</ele><time>2026-05-02T09:01:09Z</time></trkpt><trkpt lat="42.07420454660428" lon="2.9913551879501923"><ele>26.333333333333332</ele><time>2026-05-02T09:01:10Z</time></trkpt><trkpt lat="42.07426920368435" lon="2.991288452865091"><ele>26.0</ele><time>2026-05-02T09:01:11Z</time></trkpt><trkpt lat="42.07433055696989" lon="2.991216529640298"><ele>25.999999999999996</ele><time>2026-05-02T09:01:12Z</time></trkpt><trkpt lat="42.074382880463816" lon="2.991140641471391"><ele>26.0</ele><time>2026-05-02T09:01:13Z</time></trkpt><trkpt lat="42.074439972596075" lon="2.9910999355032426"><ele>26.0</ele><time>2026-05-02T09:01:14Z</time></trkpt><trkpt lat="42.07449870021131" lon="2.9910355281074037"><ele>26.0</ele><time>2026-05-02T09:01:15Z</time></trkpt><trkpt lat="42.07455744136119" lon="2.990971105859137"><ele>25.999999999999996</ele><time>2026-05-02T09:01:16Z</time></trkpt><trkpt lat="42.074611337925845" lon="2.9909119967464743"><ele>26.0</ele><time>2026-05-02T09:01:17Z</time></trkpt><trkpt lat="42.074704359967456" lon="2.9908114673644413"><ele>26.8</ele><time>2026-05-02T09:01:19Z</time></trkpt><trkpt lat="42.07478888742218" lon="2.990693292430788"><ele>27.6</ele><time>2026-05-02T09:01:21Z</time></trkpt><trkpt lat="42.074890362298696" lon="2.990611405958153"><ele>28.4</ele><time>2026-05-02T09:01:23Z</time></trkpt><trkpt lat="42.074975599038815" lon="2.9904914005279877"><ele>29.2</ele><time>2026-05-02T09:01:25Z</time></trkpt><trkpt lat="42.07503163176755" lon="2.9904450394240705"><ele>30.0</ele><time>2026-05-02T09:01:26Z</time></trkpt><trkpt lat="42.075087779231005" lon="2.990390352061435"><ele>30.0</ele><time>2026-05-02T09:01:27Z</time></trkpt><trkpt lat="42.075150159645005" lon="2.9903430902496573"><ele>30.0</ele><time>2026-05-02T09:01:28Z</time></trkpt><trkpt lat="42.07520937674499" lon="2.9902789545092316"><ele>30.0</ele><time>2026-05-02T09:01:29Z</time></trkpt><trkpt lat="42.075280050043204" lon="2.9902532668641078"><ele>30.0</ele><time>2026-05-02T09:01:30Z</time></trkpt><trkpt lat="42.075341773590516" lon="2.9902160667636073"><ele>30.0</ele><time>2026-05-02T09:01:31Z</time></trkpt><trkpt lat="42.075407898195756" lon="2.9901795268385274"><ele>30.0</ele><time>2026-05-02T09:01:32Z</time></trkpt><trkpt lat="42.07547858577952" lon="2.9901417085335003"><ele>30.0</ele><time>2026-05-02T09:01:33Z</time></trkpt><trkpt lat="42.075548767827485" lon="2.9901050216621123"><ele>30.0</ele><time>2026-05-02T09:01:34Z</time></trkpt><trkpt lat="42.07561984198343" lon="2.990067868459673"><ele>30.0</ele><time>2026-05-02T09:01:35Z</time></trkpt><trkpt lat="42.07567598711844" lon="2.99001441974508"><ele>30.0</ele><time>2026-05-02T09:01:36Z</time></trkpt><trkpt lat="42.07574798547784" lon="2.989999970546531"><ele>30.0</ele><time>2026-05-02T09:01:37Z</time></trkpt><trkpt lat="42.07584887472174" lon="2.9899384079388156"><ele>30.0</ele><time>2026-05-02T09:01:39Z</time></trkpt><trkpt lat="42.075930100752124" lon="2.989910779044491"><ele>30.0</ele><time>2026-05-02T09:01:41Z</time></trkpt><trkpt lat="42.07605861363159" lon="2.9901901100886"><ele>29.5</ele><time>2026-05-02T09:01:43Z</time></trkpt><trkpt lat="42.07608300708855" lon="2.9902735828978124"><ele>29.0</ele><time>2026-05-02T09:01:44Z</time></trkpt><trkpt lat="42.076113014611664" lon="2.990349466719782"><ele>28.5</ele><time>2026-05-02T09:01:45Z</time></trkpt><trkpt lat="42.076172865007216" lon="2.990428801286957"><ele>28.0</ele><time>2026-05-02T09:01:47Z</time></trkpt><trkpt lat="42.0762473845604" lon="2.9904458206977864"><ele>27.5</ele><time>2026-05-02T09:01:50Z</time></trkpt><trkpt lat="42.07636282474095" lon="2.9904686529844287"><ele>27.0</ele><time>2026-05-02T09:03:43Z</time></trkpt><trkpt lat="42.07638642852203" lon="2.990565557921907"><ele>27.0</ele><time>2026-05-02T09:03:55Z</time></trkpt><trkpt lat="42.07644803688297" lon="2.9906314770151283"><ele>27.0</ele><time>2026-05-02T09:03:59Z</time></trkpt><trkpt lat="42.07647266772254" lon="2.9907136967084726"><ele>27.0</ele><time>2026-05-02T09:05:40Z</time></trkpt><trkpt lat="42.076527450992714" lon="2.990790860390033"><ele>27.0</ele><time>2026-05-02T09:05:45Z</time></trkpt><trkpt lat="42.0765995545735" lon="2.990850235339589"><ele>27.0</ele><time>2026-05-02T09:05:48Z</time></trkpt><trkpt lat="42.07665516697202" lon="2.9909200347535627"><ele>27.0</ele><time>2026-05-02T09:05:50Z</time></trkpt><trkpt lat="42.076713160136016" lon="2.990977210862639"><ele>25.400000000000002</ele><time>2026-05-02T09:05:52Z</time></trkpt><trkpt lat="42.07677435932892" lon="2.991063129160805"><ele>23.800000000000004</ele><time>2026-05-02T09:05:54Z</time></trkpt><trkpt lat="42.0768915034084" lon="2.991199593381693"><ele>22.2</ele><time>2026-05-02T09:05:58Z</time></trkpt><trkpt lat="42.07698027931779" lon="2.991278280678679"><ele>20.6</ele><time>2026-05-02T09:06:00Z</time></trkpt><trkpt lat="42.07705866452406" lon="2.9913512916517293"><ele>19.0</ele><time>2026-05-02T09:06:02Z</time></trkpt><trkpt lat="42.07712647466925" lon="2.9914279318893584"><ele>19.0</ele><time>2026-05-02T09:06:04Z</time></trkpt><trkpt lat="42.07720113320747" lon="2.991506836713702"><ele>19.0</ele><time>2026-05-02T09:06:06Z</time></trkpt><trkpt lat="42.07726540757627" lon="2.9915880443951353"><ele>19.0</ele><time>2026-05-02T09:06:08Z</time></trkpt><trkpt lat="42.07726283358172" lon="2.9917227135826"><ele>19.0</ele><time>2026-05-02T09:06:10Z</time></trkpt><trkpt lat="42.07725560529148" lon="2.9918824893934306"><ele>19.0</ele><time>2026-05-02T09:06:12Z</time></trkpt><trkpt lat="42.07721851841862" lon="2.992024489802934"><ele>19.6</ele><time>2026-05-02T09:06:14Z</time></trkpt><trkpt lat="42.077199492026175" lon="2.99212989682716"><ele>20.2</ele><time>2026-05-02T09:06:16Z</time></trkpt><trkpt lat="42.077264733059934" lon="2.9922432014709783"><ele>20.8</ele><time>2026-05-02T09:06:18Z</time></trkpt><trkpt lat="42.07736548773933" lon="2.9923333570940156"><ele>21.400000000000002</ele><time>2026-05-02T09:06:20Z</time></trkpt><trkpt lat="42.07746398462215" lon="2.992432155986934"><ele>22.0</ele><time>2026-05-02T09:06:22Z</time></trkpt><trkpt lat="42.077543022899896" lon="2.992536727597936"><ele>22.6</ele><time>2026-05-02T09:06:24Z</time></trkpt><trkpt lat="42.077621567063616" lon="2.9926240031107167"><ele>23.200000000000003</ele><time>2026-05-02T09:06:26Z</time></trkpt><trkpt lat="42.077696240081174" lon="2.9926677012066474"><ele>23.8</ele><time>2026-05-02T09:06:28Z</time></trkpt><trkpt lat="42.077778770301194" lon="2.992641871783055"><ele>24.4</ele><time>2026-05-02T09:06:30Z</time></trkpt><trkpt lat="42.07787219938893" lon="2.9925316792539363"><ele>25.0</ele><time>2026-05-02T09:06:32Z</time></trkpt><trkpt lat="42.07791747392983" lon="2.992470848555466"><ele>24.833333333333336</ele><time>2026-05-02T09:06:33Z</time></trkpt><trkpt lat="42.0780116124934" lon="2.9923500242175414"><ele>24.666666666666668</ele><time>2026-05-02T09:06:35Z</time></trkpt><trkpt lat="42.07806650170382" lon="2.9923009595519465"><ele>24.5</ele><time>2026-05-02T09:06:35.999Z</time></trkpt><trkpt lat="42.07812565876009" lon="2.9922559216701092"><ele>24.333333333333336</ele><time>2026-05-02T09:06:36.999Z</time></trkpt><trkpt lat="42.07819124837993" lon="2.992215942023629"><ele>24.166666666666668</ele><time>2026-05-02T09:06:37.999Z</time></trkpt><trkpt lat="42.07825769805821" lon="2.992170228502741"><ele>24.0</ele><time>2026-05-02T09:06:38.999Z</time></trkpt><trkpt lat="42.07832210815311" lon="2.992117159503019"><ele>23.999999999999996</ele><time>2026-05-02T09:06:39.999Z</time></trkpt><trkpt lat="42.07838553345651" lon="2.9920614730103368"><ele>24.0</ele><time>2026-05-02T09:06:40.999Z</time></trkpt><trkpt lat="42.078450246612356" lon="2.9920055880464616"><ele>24.0</ele><time>2026-05-02T09:06:41.999Z</time></trkpt><trkpt lat="42.07851987587083" lon="2.991954050545142"><ele>24.0</ele><time>2026-05-02T09:06:42.999Z</time></trkpt><trkpt lat="42.07858437719043" lon="2.991907533372634"><ele>24.0</ele><time>2026-05-02T09:06:43.999Z</time></trkpt><trkpt lat="42.078645091374966" lon="2.9918554687845047"><ele>23.999999999999996</ele><time>2026-05-02T09:06:44.999Z</time></trkpt><trkpt lat="42.07870465618841" lon="2.991807673934749"><ele>24.0</ele><time>2026-05-02T09:06:45.999Z</time></trkpt><trkpt lat="42.07876941678389" lon="2.9917606373726793"><ele>24.0</ele><time>2026-05-02T09:06:46.999Z</time></trkpt><trkpt lat="42.07883176851632" lon="2.9917116391485075"><ele>24.0</ele><time>2026-05-02T09:06:47.999Z</time></trkpt><trkpt lat="42.07889755384747" lon="2.9916604421888913"><ele>24.0</ele><time>2026-05-02T09:06:48.999Z</time></trkpt><trkpt lat="42.07896613461444" lon="2.9916123049115173"><ele>24.0</ele><time>2026-05-02T09:06:49.999Z</time></trkpt><trkpt lat="42.07903468052584" lon="2.9915666087256114"><ele>24.0</ele><time>2026-05-02T09:06:50.999Z</time></trkpt><trkpt lat="42.07910611146484" lon="2.991526526609104"><ele>24.0</ele><time>2026-05-02T09:06:51.999Z</time></trkpt><trkpt lat="42.079178411853654" lon="2.9914855505314093"><ele>23.833333333333332</ele><time>2026-05-02T09:06:52.999Z</time></trkpt><trkpt lat="42.079253382060635" lon="2.991441135595859"><ele>23.666666666666668</ele><time>2026-05-02T09:06:53.999Z</time></trkpt><trkpt lat="42.079325663852224" lon="2.9913962486591505"><ele>23.5</ele><time>2026-05-02T09:06:54.999Z</time></trkpt><trkpt lat="42.07940197205515" lon="2.9913547860818186"><ele>23.333333333333336</ele><time>2026-05-02T09:06:55.999Z</time></trkpt><trkpt lat="42.079473728715335" lon="2.991309370520908"><ele>23.166666666666668</ele><time>2026-05-02T09:06:56.999Z</time></trkpt><trkpt lat="42.07954838278458" lon="2.9912647770090173"><ele>23.0</ele><time>2026-05-02T09:06:57.999Z</time></trkpt><trkpt lat="42.07962415842351" lon="2.9912228215610654"><ele>23.0</ele><time>2026-05-02T09:06:58.999Z</time></trkpt><trkpt lat="42.07970254478387" lon="2.9911825740156406"><ele>23.0</ele><time>2026-05-02T09:06:59.999Z</time></trkpt><trkpt lat="42.0797822146296" lon="2.9911446304326543"><ele>23.0</ele><time>2026-05-02T09:07:00.999Z</time></trkpt><trkpt lat="42.07986528944313" lon="2.991121319774308"><ele>23.0</ele><time>2026-05-02T09:07:01.999Z</time></trkpt><trkpt lat="42.07995071465308" lon="2.9911059025459914"><ele>23.0</ele><time>2026-05-02T09:07:02.999Z</time></trkpt><trkpt lat="42.08003712567323" lon="2.991094903015657"><ele>23.0</ele><time>2026-05-02T09:07:03.999Z</time></trkpt><trkpt lat="42.08012317832605" lon="2.991082746074021"><ele>22.833333333333336</ele><time>2026-05-02T09:07:04.999Z</time></trkpt><trkpt lat="42.080205816926835" lon="2.991074890645426"><ele>22.666666666666668</ele><time>2026-05-02T09:07:05.999Z</time></trkpt><trkpt lat="42.080289058351504" lon="2.9910734332117483"><ele>22.5</ele><time>2026-05-02T09:07:06.999Z</time></trkpt><trkpt lat="42.080373368129784" lon="2.9910755653611276"><ele>22.333333333333332</ele><time>2026-05-02T09:07:07.999Z</time></trkpt><trkpt lat="42.080458044905946" lon="2.99108264611568"><ele>22.166666666666664</ele><time>2026-05-02T09:07:08.999Z</time></trkpt><trkpt lat="42.08054158120398" lon="2.991094931715447"><ele>22.0</ele><time>2026-05-02T09:07:09.999Z</time></trkpt><trkpt lat="42.080627300866205" lon="2.991117634839297"><ele>22.0</ele><time>2026-05-02T09:07:10.999Z</time></trkpt><trkpt lat="42.080711065448135" lon="2.991149249588248"><ele>22.0</ele><time>2026-05-02T09:07:11.999Z</time></trkpt><trkpt lat="42.08079284499668" lon="2.991184229575169"><ele>22.0</ele><time>2026-05-02T09:07:12.999Z</time></trkpt><trkpt lat="42.08087108401462" lon="2.991227751262729"><ele>22.0</ele><time>2026-05-02T09:07:14Z</time></trkpt><trkpt lat="42.08094837231245" lon="2.991269715178901"><ele>22.0</ele><time>2026-05-02T09:07:15Z</time></trkpt><trkpt lat="42.081025832404876" lon="2.9913073923391504"><ele>22.0</ele><time>2026-05-02T09:07:16Z</time></trkpt><trkpt lat="42.08109847073137" lon="2.991343893081491"><ele>22.0</ele><time>2026-05-02T09:07:17Z</time></trkpt><trkpt lat="42.08116319241671" lon="2.9914014784614245"><ele>22.0</ele><time>2026-05-02T09:07:18Z</time></trkpt><trkpt lat="42.08123450638796" lon="2.9914433739775"><ele>22.0</ele><time>2026-05-02T09:07:19Z</time></trkpt><trkpt lat="42.0813047926757" lon="2.991486725171807"><ele>22.0</ele><time>2026-05-02T09:07:20Z</time></trkpt><trkpt lat="42.08137436377163" lon="2.9915296353429697"><ele>22.0</ele><time>2026-05-02T09:07:21Z</time></trkpt><trkpt lat="42.081446726960976" lon="2.991550445272254"><ele>22.0</ele><time>2026-05-02T09:07:22Z</time></trkpt><trkpt lat="42.081510031606655" lon="2.991590301478127"><ele>21.8</ele><time>2026-05-02T09:07:23Z</time></trkpt><trkpt lat="42.08160320931003" lon="2.991679317834301"><ele>21.6</ele><time>2026-05-02T09:07:25Z</time></trkpt><trkpt lat="42.08158640347459" lon="2.9918833356677457"><ele>21.400000000000002</ele><time>2026-05-02T09:07:28Z</time></trkpt><trkpt lat="42.08155138772471" lon="2.991961329743274"><ele>21.200000000000003</ele><time>2026-05-02T09:07:29Z</time></trkpt><trkpt lat="42.081518340177894" lon="2.9920381488558485"><ele>21.0</ele><time>2026-05-02T09:07:30Z</time></trkpt><trkpt lat="42.081492374362014" lon="2.9921266731381375"><ele>21.0</ele><time>2026-05-02T09:07:31Z</time></trkpt><trkpt lat="42.08144989130561" lon="2.9922037973163276"><ele>21.0</ele><time>2026-05-02T09:07:32Z</time></trkpt><trkpt lat="42.08140878336955" lon="2.9922868970210534"><ele>21.0</ele><time>2026-05-02T09:07:33Z</time></trkpt><trkpt lat="42.08137361077027" lon="2.992372311057013"><ele>21.0</ele><time>2026-05-02T09:07:34Z</time></trkpt><trkpt lat="42.08133589011472" lon="2.992459148753082"><ele>21.0</ele><time>2026-05-02T09:07:35Z</time></trkpt><trkpt lat="42.08129611942613" lon="2.9925459521058215"><ele>21.0</ele><time>2026-05-02T09:07:36Z</time></trkpt><trkpt lat="42.08125848582911" lon="2.9926353796785334"><ele>21.0</ele><time>2026-05-02T09:07:37Z</time></trkpt><trkpt lat="42.08121827441033" lon="2.9927231738793303"><ele>21.333333333333332</ele><time>2026-05-02T09:07:38Z</time></trkpt><trkpt lat="42.08117744396131" lon="2.992807580143006"><ele>21.666666666666668</ele><time>2026-05-02T09:07:39Z</time></trkpt><trkpt lat="42.08113478838392" lon="2.9928971107668296"><ele>22.0</ele><time>2026-05-02T09:07:40Z</time></trkpt><trkpt lat="42.08109606338173" lon="2.992985708523512"><ele>22.333333333333336</ele><time>2026-05-02T09:07:41Z</time></trkpt><trkpt lat="42.08105591202558" lon="2.993076358928547"><ele>22.666666666666668</ele><time>2026-05-02T09:07:42Z</time></trkpt><trkpt lat="42.081016558747" lon="2.9931663485734816"><ele>23.0</ele><time>2026-05-02T09:07:43Z</time></trkpt><trkpt lat="42.080964798675645" lon="2.993241893046707"><ele>23.0</ele><time>2026-05-02T09:07:44Z</time></trkpt><trkpt lat="42.080924446460614" lon="2.993332737334867"><ele>23.0</ele><time>2026-05-02T09:07:45Z</time></trkpt><trkpt lat="42.08088538440766" lon="2.993420677049477"><ele>23.0</ele><time>2026-05-02T09:07:46Z</time></trkpt><trkpt lat="42.080843712709004" lon="2.9935144919354366"><ele>23.0</ele><time>2026-05-02T09:07:47Z</time></trkpt><trkpt lat="42.080818849551946" lon="2.993622174759258"><ele>23.0</ele><time>2026-05-02T09:07:48Z</time></trkpt><trkpt lat="42.080776568100696" lon="2.9937160585881606"><ele>23.0</ele><time>2026-05-02T09:07:49Z</time></trkpt><trkpt lat="42.08071838311116" lon="2.9937966443855197"><ele>23.0</ele><time>2026-05-02T09:07:50Z</time></trkpt><trkpt lat="42.0806770706896" lon="2.9938896503700154"><ele>23.0</ele><time>2026-05-02T09:07:51Z</time></trkpt><trkpt lat="42.08063390576427" lon="2.99398591054413"><ele>23.0</ele><time>2026-05-02T09:07:52Z</time></trkpt><trkpt lat="42.08059062038595" lon="2.99408148077825"><ele>23.0</ele><time>2026-05-02T09:07:53Z</time></trkpt><trkpt lat="42.080547547691005" lon="2.9941765814582415"><ele>23.0</ele><time>2026-05-02T09:07:54Z</time></trkpt><trkpt lat="42.08050408505567" lon="2.9942725430660957"><ele>23.0</ele><time>2026-05-02T09:07:55Z</time></trkpt><trkpt lat="42.08046021772325" lon="2.9943698579578313"><ele>22.5</ele><time>2026-05-02T09:07:56Z</time></trkpt><trkpt lat="42.08042567130483" lon="2.994478612512563"><ele>22.0</ele><time>2026-05-02T09:07:57Z</time></trkpt><trkpt lat="42.08037793550137" lon="2.9945774336848063"><ele>21.5</ele><time>2026-05-02T09:07:58Z</time></trkpt><trkpt lat="42.08033775204636" lon="2.994678513215234"><ele>21.0</ele><time>2026-05-02T09:07:59Z</time></trkpt><trkpt lat="42.08029372342128" lon="2.994777837265221"><ele>20.5</ele><time>2026-05-02T09:08:00Z</time></trkpt><trkpt lat="42.0802475351935" lon="2.9948763071845863"><ele>20.0</ele><time>2026-05-02T09:08:01Z</time></trkpt><trkpt lat="42.08020203062471" lon="2.9949722977925273"><ele>20.333333333333336</ele><time>2026-05-02T09:08:02Z</time></trkpt><trkpt lat="42.08015877240763" lon="2.995069908231025"><ele>20.666666666666668</ele><time>2026-05-02T09:08:03Z</time></trkpt><trkpt lat="42.080115199831646" lon="2.995169729479756"><ele>21.0</ele><time>2026-05-02T09:08:04Z</time></trkpt><trkpt lat="42.08007161269101" lon="2.995271465276041"><ele>21.333333333333332</ele><time>2026-05-02T09:08:05Z</time></trkpt><trkpt lat="42.08002991753081" lon="2.9953681546763433"><ele>21.666666666666664</ele><time>2026-05-02T09:08:06Z</time></trkpt><trkpt lat="42.07998958613552" lon="2.995465945557087"><ele>22.0</ele><time>2026-05-02T09:08:07Z</time></trkpt><trkpt lat="42.079934328854556" lon="2.9955509549791253"><ele>22.0</ele><time>2026-05-02T09:08:08Z</time></trkpt><trkpt lat="42.07990644681244" lon="2.9956555291580043"><ele>22.0</ele><time>2026-05-02T09:08:09Z</time></trkpt><trkpt lat="42.079857102760556" lon="2.9957464935289826"><ele>22.0</ele><time>2026-05-02T09:08:10Z</time></trkpt><trkpt lat="42.0798127291595" lon="2.9958380269656786"><ele>22.0</ele><time>2026-05-02T09:08:11Z</time></trkpt><trkpt lat="42.07977228291258" lon="2.9959316131367837"><ele>22.0</ele><time>2026-05-02T09:08:12Z</time></trkpt><trkpt lat="42.07973188383524" lon="2.996026467615417"><ele>22.0</ele><time>2026-05-02T09:08:13Z</time></trkpt><trkpt lat="42.07968956865202" lon="2.9961211799698617"><ele>22.166666666666664</ele><time>2026-05-02T09:08:14Z</time></trkpt><trkpt lat="42.07964898876095" lon="2.996213640862079"><ele>22.333333333333332</ele><time>2026-05-02T09:08:15Z</time></trkpt><trkpt lat="42.0796076403439" lon="2.9963050405722416"><ele>22.5</ele><time>2026-05-02T09:08:16Z</time></trkpt><trkpt lat="42.079566174298634" lon="2.996399266782983"><ele>22.666666666666668</ele><time>2026-05-02T09:08:17Z</time></trkpt><trkpt lat="42.079525992740344" lon="2.996490252048662"><ele>22.833333333333336</ele><time>2026-05-02T09:08:18Z</time></trkpt><trkpt lat="42.07948393139139" lon="2.9965817952405467"><ele>23.0</ele><time>2026-05-02T09:08:19Z</time></trkpt><trkpt lat="42.07944553021746" lon="2.996672461025113"><ele>22.5</ele><time>2026-05-02T09:08:20Z</time></trkpt><trkpt lat="42.079403602118056" lon="2.9967637931997038"><ele>22.0</ele><time>2026-05-02T09:08:21Z</time></trkpt><trkpt lat="42.07936370847374" lon="2.9968534378668554"><ele>21.5</ele><time>2026-05-02T09:08:22Z</time></trkpt><trkpt lat="42.079322817978294" lon="2.99694328409856"><ele>21.0</ele><time>2026-05-02T09:08:23Z</time></trkpt><trkpt lat="42.07926860751204" lon="2.9970205222354"><ele>20.5</ele><time>2026-05-02T09:08:24Z</time></trkpt><trkpt lat="42.07922487967889" lon="2.9971139035105705"><ele>20.0</ele><time>2026-05-02T09:08:25Z</time></trkpt><trkpt lat="42.07919811422605" lon="2.9972176669730506"><ele>20.0</ele><time>2026-05-02T09:08:26Z</time></trkpt><trkpt lat="42.079156755735134" lon="2.997310608930725"><ele>20.0</ele><time>2026-05-02T09:08:27Z</time></trkpt><trkpt lat="42.079116584027226" lon="2.9974041106367375"><ele>20.0</ele><time>2026-05-02T09:08:28Z</time></trkpt><trkpt lat="42.07907560254458" lon="2.9974960489765605"><ele>20.0</ele><time>2026-05-02T09:08:29Z</time></trkpt><trkpt lat="42.079032572409076" lon="2.9975881697614737"><ele>20.0</ele><time>2026-05-02T09:08:29.999Z</time></trkpt><trkpt lat="42.07899259726409" lon="2.9976794274305854"><ele>20.0</ele><time>2026-05-02T09:08:30.999Z</time></trkpt><trkpt lat="42.07895019710722" lon="2.9977708775482337"><ele>20.166666666666668</ele><time>2026-05-02T09:08:31.999Z</time></trkpt><trkpt lat="42.078896348269666" lon="2.997851724125174"><ele>20.333333333333336</ele><time>2026-05-02T09:08:32.999Z</time></trkpt><trkpt lat="42.07885334337812" lon="2.9979416737975115"><ele>20.5</ele><time>2026-05-02T09:08:33.999Z</time></trkpt><trkpt lat="42.078810497798884" lon="2.9980333720811547"><ele>20.666666666666668</ele><time>2026-05-02T09:08:34.999Z</time></trkpt><trkpt lat="42.0787705350563" lon="2.9981269193640725"><ele>20.833333333333332</ele><time>2026-05-02T09:08:35.999Z</time></trkpt><trkpt lat="42.078741684224326" lon="2.9982277737522263"><ele>21.0</ele><time>2026-05-02T09:08:36.999Z</time></trkpt><trkpt lat="42.07869933929017" lon="2.998320232319088"><ele>21.166666666666668</ele><time>2026-05-02T09:08:37.999Z</time></trkpt><trkpt lat="42.07865880244211" lon="2.998415743703241"><ele>21.333333333333332</ele><time>2026-05-02T09:08:38.999Z</time></trkpt><trkpt lat="42.078618689093794" lon="2.9985125501094565"><ele>21.5</ele><time>2026-05-02T09:08:39.999Z</time></trkpt><trkpt lat="42.078575522066515" lon="2.9986070405034275"><ele>21.666666666666664</ele><time>2026-05-02T09:08:40.999Z</time></trkpt><trkpt lat="42.0785356940595" lon="2.9987031879089137"><ele>21.833333333333332</ele><time>2026-05-02T09:08:41.999Z</time></trkpt><trkpt lat="42.078494171130025" lon="2.998795938239233"><ele>22.0</ele><time>2026-05-02T09:08:42.999Z</time></trkpt><trkpt lat="42.07845476385131" lon="2.9988911649466012"><ele>22.0</ele><time>2026-05-02T09:08:43.999Z</time></trkpt><trkpt lat="42.0784145620243" lon="2.998983588305176"><ele>22.0</ele><time>2026-05-02T09:08:44.999Z</time></trkpt><trkpt lat="42.078370960588984" lon="2.9990774228210264"><ele>22.0</ele><time>2026-05-02T09:08:45.999Z</time></trkpt><trkpt lat="42.078324894760655" lon="2.9991702130102698"><ele>22.0</ele><time>2026-05-02T09:08:46.999Z</time></trkpt><trkpt lat="42.07828087443199" lon="2.9992648622506675"><ele>22.0</ele><time>2026-05-02T09:08:47.999Z</time></trkpt><trkpt lat="42.078239382271505" lon="2.9993602580623016"><ele>22.0</ele><time>2026-05-02T09:08:48.999Z</time></trkpt><trkpt lat="42.07819612875852" lon="2.9994544970886796"><ele>21.833333333333332</ele><time>2026-05-02T09:08:49.999Z</time></trkpt><trkpt lat="42.078151895508185" lon="2.9995488086265762"><ele>21.666666666666664</ele><time>2026-05-02T09:08:50.999Z</time></trkpt><trkpt lat="42.078109016411815" lon="2.999644067180175"><ele>21.5</ele><time>2026-05-02T09:08:51.999Z</time></trkpt><trkpt lat="42.07806810204181" lon="2.9997404771250595"><ele>21.333333333333332</ele><time>2026-05-02T09:08:52.999Z</time></trkpt><trkpt lat="42.07802565290889" lon="2.9998374925667113"><ele>21.166666666666668</ele><time>2026-05-02T09:08:53.999Z</time></trkpt><trkpt lat="42.077980824183925" lon="2.9999307674293996"><ele>21.0</ele><time>2026-05-02T09:08:54.999Z</time></trkpt><trkpt lat="42.077938233774894" lon="3.000026192960002"><ele>21.0</ele><time>2026-05-02T09:08:55.999Z</time></trkpt><trkpt lat="42.07789560259278" lon="3.000119652524426"><ele>21.0</ele><time>2026-05-02T09:08:56.999Z</time></trkpt><trkpt lat="42.07785411275807" lon="3.000212156367582"><ele>21.0</ele><time>2026-05-02T09:08:57.999Z</time></trkpt><trkpt lat="42.07781415305271" lon="3.000306437098449"><ele>21.0</ele><time>2026-05-02T09:08:58.999Z</time></trkpt><trkpt lat="42.077773329307774" lon="3.000398982502211"><ele>21.0</ele><time>2026-05-02T09:08:59.999Z</time></trkpt><trkpt lat="42.077731506617454" lon="3.0004929009606975"><ele>21.0</ele><time>2026-05-02T09:09:00.999Z</time></trkpt><trkpt lat="42.077689603393225" lon="3.0005900884568355"><ele>21.0</ele><time>2026-05-02T09:09:01.999Z</time></trkpt><trkpt lat="42.077647757321934" lon="3.0006850567965424"><ele>21.0</ele><time>2026-05-02T09:09:02.999Z</time></trkpt><trkpt lat="42.077600997571714" lon="3.0007819320845024"><ele>21.0</ele><time>2026-05-02T09:09:03.999Z</time></trkpt><trkpt lat="42.07755658394406" lon="3.0008754862300173"><ele>21.0</ele><time>2026-05-02T09:09:04.999Z</time></trkpt><trkpt lat="42.07751204217935" lon="3.000969090078134"><ele>21.0</ele><time>2026-05-02T09:09:05.999Z</time></trkpt><trkpt lat="42.0774672880233" lon="3.0010657495940887"><ele>21.0</ele><time>2026-05-02T09:09:06.999Z</time></trkpt><trkpt lat="42.07742764854544" lon="3.001161661389268"><ele>21.0</ele><time>2026-05-02T09:09:07.999Z</time></trkpt><trkpt lat="42.07738648027117" lon="3.0012585889705568"><ele>21.0</ele><time>2026-05-02T09:09:08.999Z</time></trkpt><trkpt lat="42.0773436533522" lon="3.001354548074885"><ele>21.0</ele><time>2026-05-02T09:09:09.999Z</time></trkpt><trkpt lat="42.07730313837174" lon="3.001449830727008"><ele>21.0</ele><time>2026-05-02T09:09:10.999Z</time></trkpt><trkpt lat="42.07725907144949" lon="3.001545788129684"><ele>21.0</ele><time>2026-05-02T09:09:11.999Z</time></trkpt><trkpt lat="42.07721648052845" lon="3.001639073225248"><ele>21.0</ele><time>2026-05-02T09:09:12.999Z</time></trkpt><trkpt lat="42.077172000278956" lon="3.0017333786914118"><ele>21.0</ele><time>2026-05-02T09:09:13.999Z</time></trkpt><trkpt lat="42.07713005940774" lon="3.0018324205696114"><ele>21.0</ele><time>2026-05-02T09:09:14.999Z</time></trkpt><trkpt lat="42.077088243814295" lon="3.001925292386615"><ele>21.0</ele><time>2026-05-02T09:09:15.999Z</time></trkpt><trkpt lat="42.077049756068604" lon="3.0020196310745"><ele>21.0</ele><time>2026-05-02T09:09:16.999Z</time></trkpt><trkpt lat="42.07701090966367" lon="3.002111562851904"><ele>21.0</ele><time>2026-05-02T09:09:17.999Z</time></trkpt><trkpt lat="42.076971183497484" lon="3.0021970384097467"><ele>21.0</ele><time>2026-05-02T09:09:18.999Z</time></trkpt><trkpt lat="42.07693236091085" lon="3.00228399336388"><ele>21.0</ele><time>2026-05-02T09:09:20Z</time></trkpt><trkpt lat="42.076895224761365" lon="3.002367415601221"><ele>21.0</ele><time>2026-05-02T09:09:21Z</time></trkpt><trkpt lat="42.07686053208868" lon="3.0024507936657456"><ele>21.0</ele><time>2026-05-02T09:09:22Z</time></trkpt><trkpt lat="42.0768244510054" lon="3.0025304349683513"><ele>21.0</ele><time>2026-05-02T09:09:23Z</time></trkpt><trkpt lat="42.07678834649401" lon="3.002609070892841"><ele>21.0</ele><time>2026-05-02T09:09:24Z</time></trkpt><trkpt lat="42.07672410363492" lon="3.0026601240162982"><ele>21.0</ele><time>2026-05-02T09:09:25Z</time></trkpt><trkpt lat="42.076667318610184" lon="3.002724264525172"><ele>21.0</ele><time>2026-05-02T09:09:26Z</time></trkpt><trkpt lat="42.07661024954739" lon="3.0027907894338957"><ele>20.714285714285715</ele><time>2026-05-02T09:09:27Z</time></trkpt><trkpt lat="42.076555593435316" lon="3.0028545026162052"><ele>20.42857142857143</ele><time>2026-05-02T09:09:28Z</time></trkpt><trkpt lat="42.07650148300393" lon="3.0029175785296522"><ele>20.142857142857142</ele><time>2026-05-02T09:09:29Z</time></trkpt><trkpt lat="42.076448028297726" lon="3.002979890068579"><ele>19.857142857142858</ele><time>2026-05-02T09:09:30Z</time></trkpt><trkpt lat="42.07639566502852" lon="3.0030409293420934"><ele>19.571428571428573</ele><time>2026-05-02T09:09:31Z</time></trkpt><trkpt lat="42.076344220984204" lon="3.0031008970155106"><ele>19.285714285714285</ele><time>2026-05-02T09:09:32Z</time></trkpt><trkpt lat="42.076291335580635" lon="3.003162544990307"><ele>19.0</ele><time>2026-05-02T09:09:33Z</time></trkpt><trkpt lat="42.07623728102098" lon="3.003225415044002"><ele>19.0</ele><time>2026-05-02T09:09:34Z</time></trkpt><trkpt lat="42.07618406555283" lon="3.0032892778155436"><ele>19.0</ele><time>2026-05-02T09:09:35Z</time></trkpt><trkpt lat="42.076133184404796" lon="3.003350339390132"><ele>19.0</ele><time>2026-05-02T09:09:36Z</time></trkpt><trkpt lat="42.07608506564504" lon="3.003408085791476"><ele>19.0</ele><time>2026-05-02T09:09:37Z</time></trkpt><trkpt lat="42.0759879442846" lon="3.0035246393448767"><ele>19.0</ele><time>2026-05-02T09:09:39Z</time></trkpt><trkpt lat="42.075938083967294" lon="3.003584475778671"><ele>19.0</ele><time>2026-05-02T09:09:40Z</time></trkpt><trkpt lat="42.07588670422246" lon="3.0036461356266053"><ele>19.0</ele><time>2026-05-02T09:09:40.999Z</time></trkpt><trkpt lat="42.07583596025662" lon="3.0037070324532387"><ele>19.0</ele><time>2026-05-02T09:09:41.999Z</time></trkpt><trkpt lat="42.075781615769294" lon="3.0037722503440767"><ele>19.0</ele><time>2026-05-02T09:09:42.999Z</time></trkpt><trkpt lat="42.07572564914653" lon="3.003839408224778"><ele>19.0</ele><time>2026-05-02T09:09:43.999Z</time></trkpt><trkpt lat="42.075668952923394" lon="3.003907424359905"><ele>19.0</ele><time>2026-05-02T09:09:44.999Z</time></trkpt><trkpt lat="42.0756120446849" lon="3.003975694831994"><ele>19.0</ele><time>2026-05-02T09:09:45.999Z</time></trkpt><trkpt lat="42.0755528291533" lon="3.004046733286553"><ele>19.0</ele><time>2026-05-02T09:09:46.999Z</time></trkpt><trkpt lat="42.07549495876954" lon="3.0041161580388507"><ele>19.166666666666664</ele><time>2026-05-02T09:09:47.999Z</time></trkpt><trkpt lat="42.07543435173259" lon="3.0041888657838434"><ele>19.333333333333332</ele><time>2026-05-02T09:09:48.999Z</time></trkpt><trkpt lat="42.07537495665264" lon="3.0042601196508842"><ele>19.5</ele><time>2026-05-02T09:09:49.999Z</time></trkpt><trkpt lat="42.07531366168206" lon="3.0043336526997884"><ele>19.666666666666668</ele><time>2026-05-02T09:09:50.999Z</time></trkpt><trkpt lat="42.07525205722914" lon="3.004407557024134"><ele>19.833333333333336</ele><time>2026-05-02T09:09:51.999Z</time></trkpt><trkpt lat="42.07518885720696" lon="3.004483375494297"><ele>20.0</ele><time>2026-05-02T09:09:52.999Z</time></trkpt><trkpt lat="42.07513365269987" lon="3.004569168973803"><ele>20.0</ele><time>2026-05-02T09:09:53.999Z</time></trkpt><trkpt lat="42.075070526499275" lon="3.0046455114943345"><ele>20.0</ele><time>2026-05-02T09:09:54.999Z</time></trkpt><trkpt lat="42.07500776682716" lon="3.00472139763098"><ele>20.0</ele><time>2026-05-02T09:09:55.999Z</time></trkpt><trkpt lat="42.07494435055588" lon="3.004797605993701"><ele>20.0</ele><time>2026-05-02T09:09:56.999Z</time></trkpt><trkpt lat="42.074881465052464" lon="3.0048738237486643"><ele>20.0</ele><time>2026-05-02T09:09:57.999Z</time></trkpt><trkpt lat="42.07481891989056" lon="3.004948601032583"><ele>20.0</ele><time>2026-05-02T09:09:58.999Z</time></trkpt><trkpt lat="42.07475634203365" lon="3.0050231660297553"><ele>20.166666666666668</ele><time>2026-05-02T09:09:59.999Z</time></trkpt><trkpt lat="42.07469323221206" lon="3.005099443862403"><ele>20.333333333333336</ele><time>2026-05-02T09:10:00.999Z</time></trkpt><trkpt lat="42.07462147090096" lon="3.0051571444672343"><ele>20.5</ele><time>2026-05-02T09:10:01.999Z</time></trkpt><trkpt lat="42.07455740321041" lon="3.0052324314120913"><ele>20.666666666666668</ele><time>2026-05-02T09:10:02.999Z</time></trkpt><trkpt lat="42.07449398856168" lon="3.0053069508957515"><ele>20.833333333333332</ele><time>2026-05-02T09:10:03.999Z</time></trkpt><trkpt lat="42.074431785223865" lon="3.0053800470895875"><ele>21.0</ele><time>2026-05-02T09:10:04.999Z</time></trkpt><trkpt lat="42.07436915408143" lon="3.005453645899519"><ele>21.0</ele><time>2026-05-02T09:10:05.999Z</time></trkpt><trkpt lat="42.07430593735424" lon="3.005527932882497"><ele>21.0</ele><time>2026-05-02T09:10:06.999Z</time></trkpt><trkpt lat="42.074241749966745" lon="3.0056033604764814"><ele>21.0</ele><time>2026-05-02T09:10:07.999Z</time></trkpt><trkpt lat="42.07417834727552" lon="3.0056778660115917"><ele>21.0</ele><time>2026-05-02T09:10:08.999Z</time></trkpt><trkpt lat="42.07411353813238" lon="3.0057540242359755"><ele>21.0</ele><time>2026-05-02T09:10:09.999Z</time></trkpt><trkpt lat="42.0740483915584" lon="3.0058305789785775"><ele>21.0</ele><time>2026-05-02T09:10:10.999Z</time></trkpt><trkpt lat="42.07398328356757" lon="3.005907088404197"><ele>20.666666666666668</ele><time>2026-05-02T09:10:11.999Z</time></trkpt><trkpt lat="42.07391804915169" lon="3.005983746387289"><ele>20.333333333333332</ele><time>2026-05-02T09:10:12.999Z</time></trkpt><trkpt lat="42.073863205565985" lon="3.006076048405694"><ele>20.0</ele><time>2026-05-02T09:10:13.999Z</time></trkpt><trkpt lat="42.0737889408817" lon="3.006135463529987"><ele>19.666666666666664</ele><time>2026-05-02T09:10:14.999Z</time></trkpt><trkpt lat="42.07372523850901" lon="3.0062100644498027"><ele>19.333333333333332</ele><time>2026-05-02T09:10:15.999Z</time></trkpt><trkpt lat="42.07366004108335" lon="3.006286035539088"><ele>19.0</ele><time>2026-05-02T09:10:16.999Z</time></trkpt><trkpt lat="42.073595627577234" lon="3.006362324725633"><ele>19.0</ele><time>2026-05-02T09:10:17.999Z</time></trkpt><trkpt lat="42.07353305498836" lon="3.006437256184196"><ele>19.0</ele><time>2026-05-02T09:10:18.999Z</time></trkpt><trkpt lat="42.07346984037942" lon="3.0065129564807247"><ele>19.0</ele><time>2026-05-02T09:10:19.999Z</time></trkpt><trkpt lat="42.07340568867397" lon="3.006589778962513"><ele>19.0</ele><time>2026-05-02T09:10:20.999Z</time></trkpt><trkpt lat="42.0733411610086" lon="3.00666705164576"><ele>19.0</ele><time>2026-05-02T09:10:21.999Z</time></trkpt><trkpt lat="42.073279300126785" lon="3.0067411308164793"><ele>19.0</ele><time>2026-05-02T09:10:22.999Z</time></trkpt><trkpt lat="42.07321938523843" lon="3.0068128796495195"><ele>19.166666666666664</ele><time>2026-05-02T09:10:23.999Z</time></trkpt><trkpt lat="42.07315947621104" lon="3.0068846214587786"><ele>19.333333333333332</ele><time>2026-05-02T09:10:24.999Z</time></trkpt><trkpt lat="42.07310261274995" lon="3.006952716157917"><ele>19.5</ele><time>2026-05-02T09:10:25.999Z</time></trkpt><trkpt lat="42.07304524364022" lon="3.0070227604874025"><ele>19.666666666666668</ele><time>2026-05-02T09:10:26.999Z</time></trkpt><trkpt lat="42.07298779208026" lon="3.00709311313707"><ele>19.833333333333336</ele><time>2026-05-02T09:10:27.999Z</time></trkpt><trkpt lat="42.07293289172627" lon="3.0071614854309052"><ele>20.0</ele><time>2026-05-02T09:10:28.999Z</time></trkpt><trkpt lat="42.072884612051496" lon="3.007226485587122"><ele>20.0</ele><time>2026-05-02T09:10:29.999Z</time></trkpt><trkpt lat="42.072843322949026" lon="3.0072960362429897"><ele>20.0</ele><time>2026-05-02T09:10:30.999Z</time></trkpt><trkpt lat="42.0727648346603" lon="3.0074084312188485"><ele>20.0</ele><time>2026-05-02T09:10:32.999Z</time></trkpt><trkpt lat="42.07265784721848" lon="3.007275837153139"><ele>20.0</ele><time>2026-05-02T09:10:33.999Z</time></trkpt><trkpt lat="42.07258747321904" lon="3.007243170050991"><ele>20.0</ele><time>2026-05-02T09:10:34.999Z</time></trkpt><trkpt lat="42.072515012974065" lon="3.007207766426883"><ele>20.0</ele><time>2026-05-02T09:10:35.999Z</time></trkpt><trkpt lat="42.07244090760039" lon="3.0071715589897976"><ele>20.0</ele><time>2026-05-02T09:10:36.999Z</time></trkpt><trkpt lat="42.07236620587075" lon="3.0071350601608735"><ele>20.0</ele><time>2026-05-02T09:10:37.999Z</time></trkpt><trkpt lat="42.07228800397981" lon="3.007098606870987"><ele>20.0</ele><time>2026-05-02T09:10:38.999Z</time></trkpt><trkpt lat="42.072209482100725" lon="3.0070633685669046"><ele>20.0</ele><time>2026-05-02T09:10:39.999Z</time></trkpt><trkpt lat="42.072129048672934" lon="3.007027853559663"><ele>20.0</ele><time>2026-05-02T09:10:40.999Z</time></trkpt><trkpt lat="42.07204494354104" lon="3.0069909742958125"><ele>20.0</ele><time>2026-05-02T09:10:41.999Z</time></trkpt><trkpt lat="42.07196300059938" lon="3.0069550431311014"><ele>20.0</ele><time>2026-05-02T09:10:42.999Z</time></trkpt><trkpt lat="42.07187929293768" lon="3.006918301347015"><ele>20.0</ele><time>2026-05-02T09:10:43.999Z</time></trkpt><trkpt lat="42.0717941532219" lon="3.006880635073781"><ele>20.0</ele><time>2026-05-02T09:10:44.999Z</time></trkpt><trkpt lat="42.071710527052694" lon="3.006843638399837"><ele>20.0</ele><time>2026-05-02T09:10:45.999Z</time></trkpt><trkpt lat="42.07162556177348" lon="3.0068060492956477"><ele>20.0</ele><time>2026-05-02T09:10:46.999Z</time></trkpt><trkpt lat="42.07154267184848" lon="3.0067693783416507"><ele>20.0</ele><time>2026-05-02T09:10:47.999Z</time></trkpt><trkpt lat="42.07145729435483" lon="3.0067316068715306"><ele>20.0</ele><time>2026-05-02T09:10:48.999Z</time></trkpt><trkpt lat="42.0713735048051" lon="3.0066945379176655"><ele>20.0</ele><time>2026-05-02T09:10:49.999Z</time></trkpt><trkpt lat="42.0712902994999" lon="3.0066577274356328"><ele>20.0</ele><time>2026-05-02T09:10:50.999Z</time></trkpt><trkpt lat="42.07120414692113" lon="3.006619613063171"><ele>20.0</ele><time>2026-05-02T09:10:51.999Z</time></trkpt><trkpt lat="42.07112251116895" lon="3.0065834969624476"><ele>20.0</ele><time>2026-05-02T09:10:52.999Z</time></trkpt><trkpt lat="42.07103712499336" lon="3.0065460674880042"><ele>20.0</ele><time>2026-05-02T09:10:53.999Z</time></trkpt><trkpt lat="42.07095397154706" lon="3.006509918325096"><ele>20.0</ele><time>2026-05-02T09:10:54.999Z</time></trkpt><trkpt lat="42.070869855582934" lon="3.006473350724331"><ele>20.0</ele><time>2026-05-02T09:10:55.999Z</time></trkpt><trkpt lat="42.070785824161604" lon="3.0064368198784406"><ele>20.0</ele><time>2026-05-02T09:10:56.999Z</time></trkpt><trkpt lat="42.070699338708465" lon="3.00639922219415"><ele>20.0</ele><time>2026-05-02T09:10:57.999Z</time></trkpt><trkpt lat="42.07061504678901" lon="3.006362578103637"><ele>20.0</ele><time>2026-05-02T09:10:58.998Z</time></trkpt><trkpt lat="42.07052834292361" lon="3.0063248854686884"><ele>19.833333333333336</ele><time>2026-05-02T09:10:59.998Z</time></trkpt><trkpt lat="42.07044387665016" lon="3.006287544715912"><ele>19.666666666666668</ele><time>2026-05-02T09:11:00.998Z</time></trkpt><trkpt lat="42.0703591352407" lon="3.006250020140204"><ele>19.5</ele><time>2026-05-02T09:11:01.998Z</time></trkpt><trkpt lat="42.07027275328176" lon="3.006211769107845"><ele>19.333333333333332</ele><time>2026-05-02T09:11:02.998Z</time></trkpt><trkpt lat="42.070189114000115" lon="3.0061747325690105"><ele>19.166666666666664</ele><time>2026-05-02T09:11:03.998Z</time></trkpt><trkpt lat="42.070105201392465" lon="3.006137574997914"><ele>19.0</ele><time>2026-05-02T09:11:04.998Z</time></trkpt><trkpt lat="42.07002153256441" lon="3.0061005253758566"><ele>19.166666666666664</ele><time>2026-05-02T09:11:05.998Z</time></trkpt><trkpt lat="42.06994132445772" lon="3.0060650082068663"><ele>19.333333333333332</ele><time>2026-05-02T09:11:06.998Z</time></trkpt><trkpt lat="42.06985483071021" lon="3.0060267076711247"><ele>19.5</ele><time>2026-05-02T09:11:07.998Z</time></trkpt><trkpt lat="42.06977188248731" lon="3.0059899771429897"><ele>19.666666666666668</ele><time>2026-05-02T09:11:08.998Z</time></trkpt><trkpt lat="42.06968769792626" lon="3.0059526991461203"><ele>19.833333333333336</ele><time>2026-05-02T09:11:09.998Z</time></trkpt><trkpt lat="42.0696038704968" lon="3.0059155792938212"><ele>20.0</ele><time>2026-05-02T09:11:10.998Z</time></trkpt><trkpt lat="42.06952432772416" lon="3.0058829573550607"><ele>20.0</ele><time>2026-05-02T09:11:11.998Z</time></trkpt><trkpt lat="42.06944052574313" lon="3.0058528923526775"><ele>20.0</ele><time>2026-05-02T09:11:12.998Z</time></trkpt><trkpt lat="42.06935426043032" lon="3.005825452022887"><ele>20.0</ele><time>2026-05-02T09:11:13.998Z</time></trkpt><trkpt lat="42.06926640877658" lon="3.0058012744618705"><ele>20.0</ele><time>2026-05-02T09:11:14.998Z</time></trkpt><trkpt lat="42.0691799139601" lon="3.0057815942652466"><ele>20.0</ele><time>2026-05-02T09:11:15.998Z</time></trkpt><trkpt lat="42.06908848395786" lon="3.005764227764144"><ele>20.0</ele><time>2026-05-02T09:11:16.998Z</time></trkpt><trkpt lat="42.068999344582146" lon="3.0057513756968683"><ele>18.8</ele><time>2026-05-02T09:11:17.998Z</time></trkpt><trkpt lat="42.068908736359255" lon="3.00574904565604"><ele>17.6</ele><time>2026-05-02T09:11:18.998Z</time></trkpt><trkpt lat="42.06881322989259" lon="3.005758048936895"><ele>16.4</ele><time>2026-05-02T09:11:19.998Z</time></trkpt><trkpt lat="42.068722749253496" lon="3.0057695278206857"><ele>15.2</ele><time>2026-05-02T09:11:20.998Z</time></trkpt><trkpt lat="42.068634288354886" lon="3.0057751083647735"><ele>14.0</ele><time>2026-05-02T09:11:21.998Z</time></trkpt><trkpt lat="42.0685422275742" lon="3.005773659051161"><ele>14.000000000000002</ele><time>2026-05-02T09:11:22.998Z</time></trkpt><trkpt lat="42.06845287542883" lon="3.0057704456540186"><ele>14.0</ele><time>2026-05-02T09:11:23.998Z</time></trkpt><trkpt lat="42.06836661484089" lon="3.005789885904607"><ele>14.0</ele><time>2026-05-02T09:11:24.998Z</time></trkpt><trkpt lat="42.068284964579185" lon="3.0057954617302824"><ele>14.0</ele><time>2026-05-02T09:11:25.999Z</time></trkpt><trkpt lat="42.06820426260089" lon="3.0058233465140947"><ele>14.000000000000002</ele><time>2026-05-02T09:11:26.999Z</time></trkpt><trkpt lat="42.068124390668586" lon="3.005869128379655"><ele>14.0</ele><time>2026-05-02T09:11:27.999Z</time></trkpt><trkpt lat="42.06804789166364" lon="3.005925328171364"><ele>14.833333333333334</ele><time>2026-05-02T09:11:28.999Z</time></trkpt><trkpt lat="42.0679716423614" lon="3.0059813020445922"><ele>15.666666666666668</ele><time>2026-05-02T09:11:29.999Z</time></trkpt><trkpt lat="42.067898226817434" lon="3.0060346994701432"><ele>16.5</ele><time>2026-05-02T09:11:30.999Z</time></trkpt><trkpt lat="42.067825122163555" lon="3.006090634877274"><ele>17.333333333333332</ele><time>2026-05-02T09:11:31.999Z</time></trkpt><trkpt lat="42.06774611306844" lon="3.0061432834362822"><ele>18.166666666666664</ele><time>2026-05-02T09:11:32.999Z</time></trkpt><trkpt lat="42.06766064721738" lon="3.0061577467750795"><ele>19.0</ele><time>2026-05-02T09:11:33.999Z</time></trkpt><trkpt lat="42.067581375323186" lon="3.0061793409055357"><ele>19.0</ele><time>2026-05-02T09:11:34.999Z</time></trkpt><trkpt lat="42.06750182350945" lon="3.0061839367515653"><ele>19.0</ele><time>2026-05-02T09:11:35.998Z</time></trkpt><trkpt lat="42.067416844737245" lon="3.0061811992447427"><ele>19.0</ele><time>2026-05-02T09:11:36.998Z</time></trkpt><trkpt lat="42.06733284413067" lon="3.006175465701185"><ele>19.0</ele><time>2026-05-02T09:11:37.998Z</time></trkpt><trkpt lat="42.06725033560951" lon="3.006189023599083"><ele>19.0</ele><time>2026-05-02T09:11:38.998Z</time></trkpt><trkpt lat="42.067173431885806" lon="3.0061592248411304"><ele>19.0</ele><time>2026-05-02T09:11:39.998Z</time></trkpt><trkpt lat="42.067094269677874" lon="3.006149714064987"><ele>19.333333333333332</ele><time>2026-05-02T09:11:40.999Z</time></trkpt><trkpt lat="42.067012987362276" lon="3.0061379300874047"><ele>19.666666666666664</ele><time>2026-05-02T09:11:41.999Z</time></trkpt><trkpt lat="42.066929344650866" lon="3.006125893468782"><ele>20.0</ele><time>2026-05-02T09:11:42.999Z</time></trkpt><trkpt lat="42.06684999384794" lon="3.0061125381474048"><ele>20.333333333333332</ele><time>2026-05-02T09:11:43.999Z</time></trkpt><trkpt lat="42.066768033890746" lon="3.0061203804679675"><ele>20.666666666666668</ele><time>2026-05-02T09:11:44.999Z</time></trkpt><trkpt lat="42.066688014182546" lon="3.006079677836778"><ele>21.0</ele><time>2026-05-02T09:11:45.999Z</time></trkpt><trkpt lat="42.06660631998025" lon="3.0060546426117996"><ele>21.0</ele><time>2026-05-02T09:11:46.999Z</time></trkpt><trkpt lat="42.06652559227603" lon="3.006022233397088"><ele>21.0</ele><time>2026-05-02T09:11:47.999Z</time></trkpt><trkpt lat="42.06644759667763" lon="3.0059767031528803"><ele>21.0</ele><time>2026-05-02T09:11:48.999Z</time></trkpt><trkpt lat="42.06637940880735" lon="3.005912155220532"><ele>21.0</ele><time>2026-05-02T09:11:49.999Z</time></trkpt><trkpt lat="42.066322232847945" lon="3.0058367526491736"><ele>21.0</ele><time>2026-05-02T09:11:50.999Z</time></trkpt><trkpt lat="42.066264731067704" lon="3.0057565928390155"><ele>21.0</ele><time>2026-05-02T09:11:51.999Z</time></trkpt><trkpt lat="42.066204439944656" lon="3.0056714445336796"><ele>21.0</ele><time>2026-05-02T09:11:52.999Z</time></trkpt><trkpt lat="42.06613427837341" lon="3.0056000260599323"><ele>21.0</ele><time>2026-05-02T09:11:53.999Z</time></trkpt><trkpt lat="42.06608509245723" lon="3.0055014952676355"><ele>21.0</ele><time>2026-05-02T09:11:54.999Z</time></trkpt><trkpt lat="42.06602279279826" lon="3.005416133206452"><ele>21.0</ele><time>2026-05-02T09:11:55.999Z</time></trkpt><trkpt lat="42.06595471917631" lon="3.0053349629583597"><ele>21.0</ele><time>2026-05-02T09:11:56.999Z</time></trkpt><trkpt lat="42.0658756110374" lon="3.0052739951224887"><ele>21.0</ele><time>2026-05-02T09:11:57.999Z</time></trkpt><trkpt lat="42.06582065440089" lon="3.0051782488935155"><ele>20.2</ele><time>2026-05-02T09:11:58.999Z</time></trkpt><trkpt lat="42.06576497286758" lon="3.005087213619781"><ele>19.400000000000002</ele><time>2026-05-02T09:11:59.999Z</time></trkpt><trkpt lat="42.06571687020125" lon="3.0049891449762005"><ele>18.6</ele><time>2026-05-02T09:12:00.999Z</time></trkpt><trkpt lat="42.06566147949296" lon="3.0048890225804774"><ele>17.8</ele><time>2026-05-02T09:12:01.999Z</time></trkpt><trkpt lat="42.065592025488" lon="3.004804418800422"><ele>17.0</ele><time>2026-05-02T09:12:02.999Z</time></trkpt><trkpt lat="42.065528202139895" lon="3.004709840226618"><ele>17.0</ele><time>2026-05-02T09:12:03.999Z</time></trkpt><trkpt lat="42.065455474354394" lon="3.004624558689162"><ele>17.0</ele><time>2026-05-02T09:12:04.999Z</time></trkpt><trkpt lat="42.06538117997987" lon="3.004550457812168"><ele>17.0</ele><time>2026-05-02T09:12:05.999Z</time></trkpt><trkpt lat="42.06531541778694" lon="3.0044593992866946"><ele>17.0</ele><time>2026-05-02T09:12:06.999Z</time></trkpt><trkpt lat="42.065237055914665" lon="3.004390906014223"><ele>17.0</ele><time>2026-05-02T09:12:07.999Z</time></trkpt><trkpt lat="42.06515538605062" lon="3.0043270497735475"><ele>17.0</ele><time>2026-05-02T09:12:08.999Z</time></trkpt><trkpt lat="42.06507451619913" lon="3.0042657928378533"><ele>17.0</ele><time>2026-05-02T09:12:09.999Z</time></trkpt><trkpt lat="42.064994553511994" lon="3.004210432293315"><ele>17.0</ele><time>2026-05-02T09:12:10.999Z</time></trkpt><trkpt lat="42.064914178450636" lon="3.0041624155344273"><ele>17.0</ele><time>2026-05-02T09:12:11.999Z</time></trkpt><trkpt lat="42.06483858761166" lon="3.0041367318242043"><ele>17.0</ele><time>2026-05-02T09:12:12.999Z</time></trkpt><trkpt lat="42.064760132191054" lon="3.0041366802133647"><ele>17.0</ele><time>2026-05-02T09:12:14.999Z</time></trkpt><trkpt lat="42.06474244009833" lon="3.0044427506127986"><ele>17.4</ele><time>2026-05-02T09:12:28.999Z</time></trkpt><trkpt lat="42.06467724956958" lon="3.004470286451216"><ele>17.799999999999997</ele><time>2026-05-02T09:12:31.999Z</time></trkpt><trkpt lat="42.06455624068594" lon="3.0044835065858786"><ele>18.2</ele><time>2026-05-02T09:12:34.999Z</time></trkpt><trkpt lat="42.0644672238977" lon="3.004523270627178"><ele>18.599999999999998</ele><time>2026-05-02T09:12:36.999Z</time></trkpt><trkpt lat="42.06436380969675" lon="3.0046057666817068"><ele>19.0</ele><time>2026-05-02T09:12:38.999Z</time></trkpt><trkpt lat="42.064290691830536" lon="3.0046134198372787"><ele>19.0</ele><time>2026-05-02T09:12:39.999Z</time></trkpt><trkpt lat="42.064233766638836" lon="3.004672943528233"><ele>19.0</ele><time>2026-05-02T09:12:40.999Z</time></trkpt><trkpt lat="42.06417209357245" lon="3.004717876247646"><ele>19.0</ele><time>2026-05-02T09:12:41.999Z</time></trkpt><trkpt lat="42.06411300447125" lon="3.004773327653645"><ele>19.0</ele><time>2026-05-02T09:12:42.999Z</time></trkpt><trkpt lat="42.06405665435937" lon="3.0048299966134926"><ele>19.0</ele><time>2026-05-02T09:12:43.999Z</time></trkpt><trkpt lat="42.064002654234905" lon="3.0048893906393412"><ele>19.0</ele><time>2026-05-02T09:12:44.999Z</time></trkpt><trkpt lat="42.063952292311576" lon="3.0049755273915886"><ele>19.0</ele><time>2026-05-02T09:12:45.999Z</time></trkpt><trkpt lat="42.063923379187194" lon="3.005074140317449"><ele>19.333333333333332</ele><time>2026-05-02T09:12:46.999Z</time></trkpt><trkpt lat="42.0639223895792" lon="3.005174363273203"><ele>19.666666666666664</ele><time>2026-05-02T09:12:47.999Z</time></trkpt><trkpt lat="42.063906886056714" lon="3.0053081374937562"><ele>20.0</ele><time>2026-05-02T09:12:49.999Z</time></trkpt><trkpt lat="42.063889268975565" lon="3.0054601489086417"><ele>20.333333333333332</ele><time>2026-05-02T09:12:51.999Z</time></trkpt><trkpt lat="42.063903367195294" lon="3.0055599845816783"><ele>20.666666666666668</ele><time>2026-05-02T09:12:52.999Z</time></trkpt><trkpt lat="42.06391543408356" lon="3.005662145363119"><ele>21.0</ele><time>2026-05-02T09:12:53.999Z</time></trkpt><trkpt lat="42.063929418343655" lon="3.005767530396953"><ele>20.833333333333332</ele><time>2026-05-02T09:12:54.999Z</time></trkpt><trkpt lat="42.06393552802072" lon="3.005863197790128"><ele>20.666666666666668</ele><time>2026-05-02T09:12:55.999Z</time></trkpt><trkpt lat="42.06393357502201" lon="3.005961011359682"><ele>20.5</ele><time>2026-05-02T09:12:56.999Z</time></trkpt><trkpt lat="42.06391227959822" lon="3.0060575056885"><ele>20.333333333333336</ele><time>2026-05-02T09:12:57.999Z</time></trkpt><trkpt lat="42.063905977165156" lon="3.006163425385514"><ele>20.166666666666668</ele><time>2026-05-02T09:12:58.999Z</time></trkpt><trkpt lat="42.063917484396484" lon="3.006270990416815"><ele>20.0</ele><time>2026-05-02T09:12:59.999Z</time></trkpt><trkpt lat="42.06391223937029" lon="3.0063792943754875"><ele>20.0</ele><time>2026-05-02T09:13:00.999Z</time></trkpt><trkpt lat="42.063908225804816" lon="3.006487042903058"><ele>20.0</ele><time>2026-05-02T09:13:01.999Z</time></trkpt><trkpt lat="42.063904052061275" lon="3.0065945249131008"><ele>20.0</ele><time>2026-05-02T09:13:02.999Z</time></trkpt><trkpt lat="42.06389920377627" lon="3.006705952963644"><ele>20.0</ele><time>2026-05-02T09:13:03.999Z</time></trkpt><trkpt lat="42.06389695421712" lon="3.0068128645232113"><ele>20.0</ele><time>2026-05-02T09:13:04.999Z</time></trkpt><trkpt lat="42.06389416179373" lon="3.006921661859029"><ele>20.0</ele><time>2026-05-02T09:13:05.999Z</time></trkpt><trkpt lat="42.063888240602864" lon="3.0070310873822805"><ele>19.833333333333336</ele><time>2026-05-02T09:13:06.999Z</time></trkpt><trkpt lat="42.06388657016666" lon="3.0071389375339836"><ele>19.666666666666668</ele><time>2026-05-02T09:13:07.999Z</time></trkpt><trkpt lat="42.06388261653967" lon="3.0072442231362344"><ele>19.5</ele><time>2026-05-02T09:13:08.999Z</time></trkpt><trkpt lat="42.063870605549965" lon="3.0073473047966566"><ele>19.333333333333332</ele><time>2026-05-02T09:13:09.999Z</time></trkpt><trkpt lat="42.06385179146874" lon="3.0074457220207425"><ele>19.166666666666664</ele><time>2026-05-02T09:13:10.999Z</time></trkpt><trkpt lat="42.06383650682568" lon="3.0075409362365253"><ele>19.0</ele><time>2026-05-02T09:13:11.999Z</time></trkpt><trkpt lat="42.063812692833395" lon="3.0076325985316434"><ele>18.857142857142858</ele><time>2026-05-02T09:13:12.999Z</time></trkpt><trkpt lat="42.06381311540866" lon="3.0077335828800824"><ele>18.714285714285715</ele><time>2026-05-02T09:13:13.999Z</time></trkpt><trkpt lat="42.063833261525915" lon="3.0078299121411556"><ele>18.571428571428573</ele><time>2026-05-02T09:13:14.999Z</time></trkpt><trkpt lat="42.06389728847145" lon="3.0078960182256096"><ele>18.42857142857143</ele><time>2026-05-02T09:13:15.999Z</time></trkpt><trkpt lat="42.06395597238853" lon="3.0079501518665106"><ele>18.285714285714285</ele><time>2026-05-02T09:13:16.999Z</time></trkpt><trkpt lat="42.06401863928788" lon="3.00798405703345"><ele>18.142857142857146</ele><time>2026-05-02T09:13:17.999Z</time></trkpt><trkpt lat="42.06408884142901" lon="3.0080149739036846"><ele>18.0</ele><time>2026-05-02T09:13:18.999Z</time></trkpt><trkpt lat="42.06416271883729" lon="3.0080400604063517"><ele>18.833333333333332</ele><time>2026-05-02T09:13:19.999Z</time></trkpt><trkpt lat="42.06423311757031" lon="3.0080724843009405"><ele>19.666666666666668</ele><time>2026-05-02T09:13:20.999Z</time></trkpt><trkpt lat="42.06430428669291" lon="3.008102186397473"><ele>20.5</ele><time>2026-05-02T09:13:21.999Z</time></trkpt><trkpt lat="42.06437246352816" lon="3.008133093235724"><ele>21.333333333333336</ele><time>2026-05-02T09:13:22.999Z</time></trkpt><trkpt lat="42.064437010742935" lon="3.0081644073018348"><ele>22.166666666666668</ele><time>2026-05-02T09:13:23.999Z</time></trkpt><trkpt lat="42.06449634835308" lon="3.008194386487949"><ele>23.0</ele><time>2026-05-02T09:13:24.999Z</time></trkpt><trkpt lat="42.064605635789746" lon="3.0082536167490925"><ele>23.0</ele><time>2026-05-02T09:13:26.999Z</time></trkpt><trkpt lat="42.064693062267935" lon="3.008310799442984"><ele>23.0</ele><time>2026-05-02T09:13:28.999Z</time></trkpt><trkpt lat="42.06466175984842" lon="3.0084523017906575"><ele>23.0</ele><time>2026-05-02T09:13:29.999Z</time></trkpt><trkpt lat="42.0646650949448" lon="3.0085411569112623"><ele>23.0</ele><time>2026-05-02T09:13:30.998Z</time></trkpt><trkpt lat="42.064667680484405" lon="3.008629323810552"><ele>23.0</ele><time>2026-05-02T09:13:31.999Z</time></trkpt><trkpt lat="42.06468167115633" lon="3.008720450475216"><ele>23.0</ele><time>2026-05-02T09:13:32.999Z</time></trkpt><trkpt lat="42.06467959292333" lon="3.0088158452009592"><ele>22.666666666666668</ele><time>2026-05-02T09:13:33.999Z</time></trkpt><trkpt lat="42.06468407454295" lon="3.0089138110098137"><ele>22.333333333333336</ele><time>2026-05-02T09:13:34.999Z</time></trkpt><trkpt lat="42.06468751664735" lon="3.0090126770291485"><ele>22.0</ele><time>2026-05-02T09:13:35.999Z</time></trkpt><trkpt lat="42.064694921800026" lon="3.0091161554696537"><ele>21.666666666666668</ele><time>2026-05-02T09:13:36.999Z</time></trkpt><trkpt lat="42.064710018237164" lon="3.0092207423232167"><ele>21.333333333333332</ele><time>2026-05-02T09:13:37.999Z</time></trkpt><trkpt lat="42.06472799991255" lon="3.0093272899752725"><ele>21.0</ele><time>2026-05-02T09:13:38.999Z</time></trkpt><trkpt lat="42.06474967390983" lon="3.0094278278970394"><ele>20.833333333333332</ele><time>2026-05-02T09:13:39.999Z</time></trkpt><trkpt lat="42.0647727239204" lon="3.0095312035741832"><ele>20.666666666666668</ele><time>2026-05-02T09:13:40.999Z</time></trkpt><trkpt lat="42.06477621521249" lon="3.0096367814978398"><ele>20.5</ele><time>2026-05-02T09:13:41.999Z</time></trkpt><trkpt lat="42.064789371559996" lon="3.009737849439046"><ele>20.333333333333336</ele><time>2026-05-02T09:13:42.999Z</time></trkpt><trkpt lat="42.06481335840266" lon="3.0098219188681345"><ele>20.166666666666668</ele><time>2026-05-02T09:13:43.999Z</time></trkpt><trkpt lat="42.064807401254505" lon="3.0099064417922237"><ele>20.0</ele><time>2026-05-02T09:13:44.999Z</time></trkpt><trkpt lat="42.06482796841565" lon="3.0100262590678613"><ele>19.8</ele><time>2026-05-02T09:13:46.999Z</time></trkpt><trkpt lat="42.064655228936154" lon="3.010021352947621"><ele>19.6</ele><time>2026-05-02T09:13:47.999Z</time></trkpt><trkpt lat="42.06458873366137" lon="3.010047980714429"><ele>19.4</ele><time>2026-05-02T09:13:48.999Z</time></trkpt><trkpt lat="42.064460516789275" lon="3.01006524733978"><ele>19.2</ele><time>2026-05-02T09:13:50.999Z</time></trkpt><trkpt lat="42.06439123793586" lon="3.0100597467799335"><ele>19.0</ele><time>2026-05-02T09:13:51.999Z</time></trkpt><trkpt lat="42.06431670403917" lon="3.0100458035756628"><ele>19.0</ele><time>2026-05-02T09:13:52.999Z</time></trkpt><trkpt lat="42.06423727745569" lon="3.010033738917072"><ele>19.0</ele><time>2026-05-02T09:13:53.999Z</time></trkpt><trkpt lat="42.064154385331165" lon="3.0100330473383874"><ele>19.0</ele><time>2026-05-02T09:13:54.999Z</time></trkpt><trkpt lat="42.06407551383156" lon="3.010037950740708"><ele>19.0</ele><time>2026-05-02T09:13:55.999Z</time></trkpt><trkpt lat="42.06399165060414" lon="3.010034484072853"><ele>19.0</ele><time>2026-05-02T09:13:56.999Z</time></trkpt><trkpt lat="42.06391025499751" lon="3.010035105764029"><ele>19.0</ele><time>2026-05-02T09:13:57.999Z</time></trkpt><trkpt lat="42.063826436844465" lon="3.010035745959026"><ele>19.166666666666664</ele><time>2026-05-02T09:13:58.999Z</time></trkpt><trkpt lat="42.06374075481884" lon="3.010036400390529"><ele>19.333333333333332</ele><time>2026-05-02T09:13:59.999Z</time></trkpt><trkpt lat="42.063654687420794" lon="3.0100370919434822"><ele>19.5</ele><time>2026-05-02T09:14:00.999Z</time></trkpt><trkpt lat="42.0635690006496" lon="3.0100403376537876"><ele>19.666666666666668</ele><time>2026-05-02T09:14:01.999Z</time></trkpt><trkpt lat="42.063481595711295" lon="3.0100506439295884"><ele>19.833333333333336</ele><time>2026-05-02T09:14:02.999Z</time></trkpt><trkpt lat="42.06339681708689" lon="3.0100798117411776"><ele>20.0</ele><time>2026-05-02T09:14:03.999Z</time></trkpt><trkpt lat="42.063321324736684" lon="3.010121367515447"><ele>19.666666666666668</ele><time>2026-05-02T09:14:04.999Z</time></trkpt><trkpt lat="42.06326772613167" lon="3.0102165619108994"><ele>19.333333333333336</ele><time>2026-05-02T09:14:05.999Z</time></trkpt><trkpt lat="42.063201574497285" lon="3.0102785769057014"><ele>19.0</ele><time>2026-05-02T09:14:06.999Z</time></trkpt><trkpt lat="42.06317473528866" lon="3.01039123509128"><ele>18.666666666666668</ele><time>2026-05-02T09:14:07.999Z</time></trkpt><trkpt lat="42.0631455515987" lon="3.0104879633260078"><ele>18.333333333333332</ele><time>2026-05-02T09:14:08.999Z</time></trkpt><trkpt lat="42.063108511693315" lon="3.010575744474265"><ele>18.0</ele><time>2026-05-02T09:14:09.999Z</time></trkpt><trkpt lat="42.06309770980297" lon="3.010665232562547"><ele>18.0</ele><time>2026-05-02T09:14:10.999Z</time></trkpt><trkpt lat="42.06296942586825" lon="3.010713530536356"><ele>18.0</ele><time>2026-05-02T09:14:12.999Z</time></trkpt><trkpt lat="42.06289171324041" lon="3.010796976916571"><ele>18.0</ele><time>2026-05-02T09:14:14.999Z</time></trkpt><trkpt lat="42.062897282542" lon="3.0109740449048736"><ele>18.0</ele><time>2026-05-02T09:14:16.999Z</time></trkpt><trkpt lat="42.062893419237994" lon="3.0111245369764448"><ele>18.333333333333332</ele><time>2026-05-02T09:14:18.999Z</time></trkpt><trkpt lat="42.06281239663116" lon="3.0112485912270293"><ele>18.666666666666668</ele><time>2026-05-02T09:14:20.999Z</time></trkpt><trkpt lat="42.062752459557636" lon="3.0112786654069734"><ele>19.0</ele><time>2026-05-02T09:14:21.999Z</time></trkpt><trkpt lat="42.06267782481822" lon="3.01126781738002"><ele>19.333333333333336</ele><time>2026-05-02T09:14:22.999Z</time></trkpt><trkpt lat="42.06261502766076" lon="3.0112606825300774"><ele>19.666666666666668</ele><time>2026-05-02T09:14:23.999Z</time></trkpt><trkpt lat="42.062545514537085" lon="3.0112610968660225"><ele>20.0</ele><time>2026-05-02T09:14:24.999Z</time></trkpt><trkpt lat="42.0624757302693" lon="3.0112615128218096"><ele>20.0</ele><time>2026-05-02T09:14:25.999Z</time></trkpt><trkpt lat="42.062401536000806" lon="3.011263038875586"><ele>20.0</ele><time>2026-05-02T09:14:26.999Z</time></trkpt><trkpt lat="42.06232806021815" lon="3.0112650243434285"><ele>20.0</ele><time>2026-05-02T09:14:27.999Z</time></trkpt><trkpt lat="42.062254168402" lon="3.0112670227505314"><ele>20.0</ele><time>2026-05-02T09:14:28.999Z</time></trkpt><trkpt lat="42.062177902575755" lon="3.011269083604868"><ele>20.0</ele><time>2026-05-02T09:14:29.999Z</time></trkpt><trkpt lat="42.062102040316866" lon="3.0112711335687345"><ele>20.0</ele><time>2026-05-02T09:14:30.999Z</time></trkpt><trkpt lat="42.06202350999646" lon="3.0112732556201927"><ele>20.0</ele><time>2026-05-02T09:14:31.999Z</time></trkpt><trkpt lat="42.06194551931418" lon="3.0112753630883797"><ele>20.0</ele><time>2026-05-02T09:14:32.999Z</time></trkpt><trkpt lat="42.061863483697515" lon="3.0112779483502297"><ele>20.0</ele><time>2026-05-02T09:14:33.999Z</time></trkpt><trkpt lat="42.06178158994591" lon="3.011281275809007"><ele>20.0</ele><time>2026-05-02T09:14:34.999Z</time></trkpt><trkpt lat="42.06170021065394" lon="3.011286891066422"><ele>20.0</ele><time>2026-05-02T09:14:35.999Z</time></trkpt><trkpt lat="42.06161945120829" lon="3.0112924635531866"><ele>20.0</ele><time>2026-05-02T09:14:36.999Z</time></trkpt><trkpt lat="42.06153557917824" lon="3.0112969075964777"><ele>19.666666666666668</ele><time>2026-05-02T09:14:37.999Z</time></trkpt><trkpt lat="42.061453365313646" lon="3.0112983185998345"><ele>19.333333333333336</ele><time>2026-05-02T09:14:38.999Z</time></trkpt><trkpt lat="42.06137031782832" lon="3.01129893968207"><ele>19.0</ele><time>2026-05-02T09:14:39.999Z</time></trkpt><trkpt lat="42.061286872201464" lon="3.0112989693689585"><ele>18.666666666666668</ele><time>2026-05-02T09:14:40.999Z</time></trkpt><trkpt lat="42.06120360133702" lon="3.011298417122504"><ele>18.333333333333332</ele><time>2026-05-02T09:14:41.999Z</time></trkpt><trkpt lat="42.06112094920379" lon="3.0112978689783048"><ele>18.0</ele><time>2026-05-02T09:14:42.999Z</time></trkpt><trkpt lat="42.06103722146203" lon="3.011294497664191"><ele>18.0</ele><time>2026-05-02T09:14:43.999Z</time></trkpt><trkpt lat="42.060953240107914" lon="3.011290549914543"><ele>18.0</ele><time>2026-05-02T09:14:44.999Z</time></trkpt><trkpt lat="42.06086851977807" lon="3.0112864611955983"><ele>18.0</ele><time>2026-05-02T09:14:45.999Z</time></trkpt><trkpt lat="42.060784295934646" lon="3.011282396436226"><ele>18.0</ele><time>2026-05-02T09:14:46.999Z</time></trkpt><trkpt lat="42.060700576584715" lon="3.0112783560221903"><ele>18.0</ele><time>2026-05-02T09:14:47.999Z</time></trkpt><trkpt lat="42.06061674874399" lon="3.011276314587526"><ele>18.0</ele><time>2026-05-02T09:14:48.999Z</time></trkpt><trkpt lat="42.060532541440665" lon="3.0112746151483556"><ele>18.0</ele><time>2026-05-02T09:14:49.999Z</time></trkpt><trkpt lat="42.06044657853817" lon="3.0112944724642423"><ele>18.0</ele><time>2026-05-02T09:14:50.999Z</time></trkpt><trkpt lat="42.06036052505176" lon="3.0112941551816483"><ele>18.0</ele><time>2026-05-02T09:14:51.999Z</time></trkpt><trkpt lat="42.06027407648983" lon="3.0112783301135333"><ele>18.0</ele><time>2026-05-02T09:14:52.999Z</time></trkpt><trkpt lat="42.06018861222041" lon="3.0112879568944115"><ele>18.0</ele><time>2026-05-02T09:14:53.999Z</time></trkpt><trkpt lat="42.06010353901215" lon="3.011304985813142"><ele>18.0</ele><time>2026-05-02T09:14:54.999Z</time></trkpt><trkpt lat="42.06001921179501" lon="3.011337290784106"><ele>17.833333333333332</ele><time>2026-05-02T09:14:55.999Z</time></trkpt><trkpt lat="42.05994236280744" lon="3.011389047728129"><ele>17.666666666666668</ele><time>2026-05-02T09:14:56.999Z</time></trkpt><trkpt lat="42.05987539593272" lon="3.0114559851072213"><ele>17.5</ele><time>2026-05-02T09:14:57.999Z</time></trkpt><trkpt lat="42.05983892606119" lon="3.011562102916129"><ele>17.333333333333336</ele><time>2026-05-02T09:14:58.999Z</time></trkpt><trkpt lat="42.05979007578752" lon="3.011646602791036"><ele>17.166666666666668</ele><time>2026-05-02T09:14:59.999Z</time></trkpt><trkpt lat="42.05978020327876" lon="3.0117604530589452"><ele>17.0</ele><time>2026-05-02T09:15:00.999Z</time></trkpt><trkpt lat="42.05976473666525" lon="3.0118658612916542"><ele>17.333333333333336</ele><time>2026-05-02T09:15:01.999Z</time></trkpt><trkpt lat="42.05975840086287" lon="3.0119687385574117"><ele>17.666666666666668</ele><time>2026-05-02T09:15:02.999Z</time></trkpt><trkpt lat="42.05975297420671" lon="3.0120752666110358"><ele>18.0</ele><time>2026-05-02T09:15:03.999Z</time></trkpt><trkpt lat="42.059753718545174" lon="3.012181397717177"><ele>18.333333333333332</ele><time>2026-05-02T09:15:04.999Z</time></trkpt><trkpt lat="42.05975577061514" lon="3.012287115705178"><ele>18.666666666666664</ele><time>2026-05-02T09:15:05.999Z</time></trkpt><trkpt lat="42.05976031347971" lon="3.0123948696464296"><ele>19.0</ele><time>2026-05-02T09:15:06.999Z</time></trkpt><trkpt lat="42.05976368236776" lon="3.012501904491233"><ele>19.0</ele><time>2026-05-02T09:15:07.999Z</time></trkpt><trkpt lat="42.059762930541325" lon="3.012608496685935"><ele>19.0</ele><time>2026-05-02T09:15:08.999Z</time></trkpt><trkpt lat="42.05976633832962" lon="3.0127155448475778"><ele>19.0</ele><time>2026-05-02T09:15:09.999Z</time></trkpt><trkpt lat="42.05977194026022" lon="3.0128231728988837"><ele>19.0</ele><time>2026-05-02T09:15:10.999Z</time></trkpt><trkpt lat="42.059775160444865" lon="3.012930082767958"><ele>19.0</ele><time>2026-05-02T09:15:11.999Z</time></trkpt><trkpt lat="42.05977567929105" lon="3.013039260562314"><ele>19.0</ele><time>2026-05-02T09:15:12.999Z</time></trkpt><trkpt lat="42.05978111509823" lon="3.013147917510517"><ele>19.0</ele><time>2026-05-02T09:15:13.999Z</time></trkpt><trkpt lat="42.05978587095697" lon="3.013256149900326"><ele>19.0</ele><time>2026-05-02T09:15:14.999Z</time></trkpt><trkpt lat="42.05979062160355" lon="3.0133653388446455"><ele>19.0</ele><time>2026-05-02T09:15:15.999Z</time></trkpt><trkpt lat="42.059792925563784" lon="3.013476958269443"><ele>19.0</ele><time>2026-05-02T09:15:16.999Z</time></trkpt><trkpt lat="42.05979663202173" lon="3.0135876262232797"><ele>19.0</ele><time>2026-05-02T09:15:17.999Z</time></trkpt><trkpt lat="42.059802816734646" lon="3.013700198521868"><ele>19.0</ele><time>2026-05-02T09:15:18.999Z</time></trkpt><trkpt lat="42.05981254406151" lon="3.013811902502811"><ele>18.833333333333332</ele><time>2026-05-02T09:15:19.999Z</time></trkpt><trkpt lat="42.059822865563774" lon="3.013922857117393"><ele>18.666666666666664</ele><time>2026-05-02T09:15:20.999Z</time></trkpt><trkpt lat="42.059834972867" lon="3.014033814950775"><ele>18.5</ele><time>2026-05-02T09:15:21.999Z</time></trkpt><trkpt lat="42.059847835273615" lon="3.0141418898923944"><ele>18.333333333333332</ele><time>2026-05-02T09:15:22.999Z</time></trkpt><trkpt lat="42.059858651478535" lon="3.014250930519677"><ele>18.166666666666668</ele><time>2026-05-02T09:15:23.999Z</time></trkpt><trkpt lat="42.05986499004928" lon="3.01435887415624"><ele>18.0</ele><time>2026-05-02T09:15:24.999Z</time></trkpt><trkpt lat="42.05987109464274" lon="3.014468228334872"><ele>17.833333333333332</ele><time>2026-05-02T09:15:25.999Z</time></trkpt><trkpt lat="42.0598798532227" lon="3.0145748086093693"><ele>17.666666666666668</ele><time>2026-05-02T09:15:26.999Z</time></trkpt><trkpt lat="42.059889753043855" lon="3.0146852484428726"><ele>17.5</ele><time>2026-05-02T09:15:27.999Z</time></trkpt><trkpt lat="42.05989821730625" lon="3.0147939033188345"><ele>17.333333333333336</ele><time>2026-05-02T09:15:28.999Z</time></trkpt><trkpt lat="42.059905701540444" lon="3.0149018221116775"><ele>17.166666666666668</ele><time>2026-05-02T09:15:29.999Z</time></trkpt><trkpt lat="42.059909991072914" lon="3.0150116175539385"><ele>17.0</ele><time>2026-05-02T09:15:30.999Z</time></trkpt><trkpt lat="42.05991243059411" lon="3.0151185760883004"><ele>17.333333333333336</ele><time>2026-05-02T09:15:31.999Z</time></trkpt><trkpt lat="42.05991778876763" lon="3.0152218246575777"><ele>17.666666666666668</ele><time>2026-05-02T09:15:32.999Z</time></trkpt><trkpt lat="42.0599226424567" lon="3.015327190432644"><ele>18.0</ele><time>2026-05-02T09:15:33.999Z</time></trkpt><trkpt lat="42.05992664448981" lon="3.015432029675041"><ele>18.333333333333332</ele><time>2026-05-02T09:15:34.999Z</time></trkpt><trkpt lat="42.059932952661924" lon="3.0155331049784624"><ele>18.666666666666664</ele><time>2026-05-02T09:15:35.999Z</time></trkpt><trkpt lat="42.0599356030333" lon="3.0156384335542534"><ele>19.0</ele><time>2026-05-02T09:15:36.999Z</time></trkpt><trkpt lat="42.059942107923675" lon="3.015738723863123"><ele>18.666666666666664</ele><time>2026-05-02T09:15:37.999Z</time></trkpt><trkpt lat="42.059945715051114" lon="3.015843302872422"><ele>18.333333333333332</ele><time>2026-05-02T09:15:38.999Z</time></trkpt><trkpt lat="42.059953990842345" lon="3.0159460465204493"><ele>18.0</ele><time>2026-05-02T09:15:39.999Z</time></trkpt><trkpt lat="42.05995775739684" lon="3.0160494204149293"><ele>17.666666666666668</ele><time>2026-05-02T09:15:40.999Z</time></trkpt><trkpt lat="42.05996239099582" lon="3.016150820289391"><ele>17.333333333333336</ele><time>2026-05-02T09:15:41.999Z</time></trkpt><trkpt lat="42.059965777222004" lon="3.0162539844179297"><ele>17.0</ele><time>2026-05-02T09:15:42.999Z</time></trkpt><trkpt lat="42.059970168301035" lon="3.016358897619809"><ele>17.0</ele><time>2026-05-02T09:15:43.999Z</time></trkpt><trkpt lat="42.05997664925532" lon="3.016461443070207"><ele>17.0</ele><time>2026-05-02T09:15:44.999Z</time></trkpt><trkpt lat="42.05998106717673" lon="3.0165674987056965"><ele>17.0</ele><time>2026-05-02T09:15:45.999Z</time></trkpt><trkpt lat="42.059990282726204" lon="3.016673059673471"><ele>17.0</ele><time>2026-05-02T09:15:46.999Z</time></trkpt><trkpt lat="42.05999754156068" lon="3.0167800402634586"><ele>17.0</ele><time>2026-05-02T09:15:47.999Z</time></trkpt><trkpt lat="42.060002949207885" lon="3.0168879706412834"><ele>17.0</ele><time>2026-05-02T09:15:48.999Z</time></trkpt><trkpt lat="42.06000597686372" lon="3.0169967124706134"><ele>16.666666666666668</ele><time>2026-05-02T09:15:49.999Z</time></trkpt><trkpt lat="42.06001292840375" lon="3.0171067566752705"><ele>16.333333333333336</ele><time>2026-05-02T09:15:50.999Z</time></trkpt><trkpt lat="42.06001806176125" lon="3.017217273438088"><ele>16.0</ele><time>2026-05-02T09:15:51.999Z</time></trkpt><trkpt lat="42.060024760673926" lon="3.0173278666706294"><ele>15.666666666666668</ele><time>2026-05-02T09:15:52.999Z</time></trkpt><trkpt lat="42.06003209006155" lon="3.0174376075890055"><ele>15.333333333333334</ele><time>2026-05-02T09:15:53.999Z</time></trkpt><trkpt lat="42.06004174904048" lon="3.0175467194520236"><ele>15.0</ele><time>2026-05-02T09:15:54.999Z</time></trkpt><trkpt lat="42.06004664583343" lon="3.0176569020590707"><ele>15.0</ele><time>2026-05-02T09:15:55.999Z</time></trkpt><trkpt lat="42.060035345402135" lon="3.017768777685239"><ele>15.0</ele><time>2026-05-02T09:15:56.999Z</time></trkpt><trkpt lat="42.06004259743748" lon="3.017880604055953"><ele>15.0</ele><time>2026-05-02T09:15:57.999Z</time></trkpt><trkpt lat="42.060052212912055" lon="3.0179921521285458"><ele>15.0</ele><time>2026-05-02T09:15:58.999Z</time></trkpt><trkpt lat="42.06007787908764" lon="3.018099615537292"><ele>15.0</ele><time>2026-05-02T09:15:59.999Z</time></trkpt><trkpt lat="42.06009090137295" lon="3.0182067110156443"><ele>15.0</ele><time>2026-05-02T09:16:00.999Z</time></trkpt><trkpt lat="42.06010702935402" lon="3.018313967598194"><ele>15.0</ele><time>2026-05-02T09:16:01.999Z</time></trkpt><trkpt lat="42.060122328197544" lon="3.018418869671173"><ele>15.0</ele><time>2026-05-02T09:16:02.999Z</time></trkpt><trkpt lat="42.060139061221626" lon="3.018521007662561"><ele>15.0</ele><time>2026-05-02T09:16:03.999Z</time></trkpt><trkpt lat="42.06015634267048" lon="3.018625475634129"><ele>15.0</ele><time>2026-05-02T09:16:04.999Z</time></trkpt><trkpt lat="42.06015665938653" lon="3.0187346689422716"><ele>15.0</ele><time>2026-05-02T09:16:05.999Z</time></trkpt><trkpt lat="42.060172046561256" lon="3.018839645560051"><ele>15.0</ele><time>2026-05-02T09:16:06.999Z</time></trkpt><trkpt lat="42.06018820930577" lon="3.018944723934304"><ele>15.0</ele><time>2026-05-02T09:16:07.999Z</time></trkpt><trkpt lat="42.06020471286161" lon="3.019052018073826"><ele>15.0</ele><time>2026-05-02T09:16:08.999Z</time></trkpt><trkpt lat="42.06022119190907" lon="3.019159152903329"><ele>15.0</ele><time>2026-05-02T09:16:09.999Z</time></trkpt><trkpt lat="42.060237391063716" lon="3.0192644680061687"><ele>15.0</ele><time>2026-05-02T09:16:10.999Z</time></trkpt><trkpt lat="42.0602670010062" lon="3.0193661206479607"><ele>15.0</ele><time>2026-05-02T09:16:11.999Z</time></trkpt><trkpt lat="42.060280706108536" lon="3.019471952932557"><ele>15.0</ele><time>2026-05-02T09:16:12.999Z</time></trkpt><trkpt lat="42.060296773867904" lon="3.0195795723108327"><ele>15.166666666666666</ele><time>2026-05-02T09:16:13.999Z</time></trkpt><trkpt lat="42.06031407756198" lon="3.0196872442300124"><ele>15.333333333333332</ele><time>2026-05-02T09:16:14.999Z</time></trkpt><trkpt lat="42.060330486063286" lon="3.01979571999888"><ele>15.5</ele><time>2026-05-02T09:16:15.999Z</time></trkpt><trkpt lat="42.06034518844824" lon="3.0199061522897153"><ele>15.666666666666666</ele><time>2026-05-02T09:16:16.999Z</time></trkpt><trkpt lat="42.06035962533505" lon="3.020016552196718"><ele>15.833333333333332</ele><time>2026-05-02T09:16:17.999Z</time></trkpt><trkpt lat="42.060377104173845" lon="3.0201260416478743"><ele>16.0</ele><time>2026-05-02T09:16:18.999Z</time></trkpt><trkpt lat="42.06039019212608" lon="3.0202393871223907"><ele>16.166666666666664</ele><time>2026-05-02T09:16:19.999Z</time></trkpt><trkpt lat="42.06039909508292" lon="3.0203528759388125"><ele>16.333333333333332</ele><time>2026-05-02T09:16:20.999Z</time></trkpt><trkpt lat="42.06041550728869" lon="3.020461382092362"><ele>16.5</ele><time>2026-05-02T09:16:21.999Z</time></trkpt><trkpt lat="42.0604304605718" lon="3.0205729472309852"><ele>16.666666666666668</ele><time>2026-05-02T09:16:22.999Z</time></trkpt><trkpt lat="42.06044555264984" lon="3.0206802291788915"><ele>16.833333333333336</ele><time>2026-05-02T09:16:23.999Z</time></trkpt><trkpt lat="42.060466090598815" lon="3.0207810532604085"><ele>17.0</ele><time>2026-05-02T09:16:24.999Z</time></trkpt><trkpt lat="42.060501953612054" lon="3.0208717070026823"><ele>16.666666666666668</ele><time>2026-05-02T09:16:25.999Z</time></trkpt><trkpt lat="42.06055671254349" lon="3.0209492412683474"><ele>16.333333333333336</ele><time>2026-05-02T09:16:26.999Z</time></trkpt><trkpt lat="42.06062550100724" lon="3.0210133209682017"><ele>16.0</ele><time>2026-05-02T09:16:27.999Z</time></trkpt><trkpt lat="42.06070185331215" lon="3.0210536130407966"><ele>15.666666666666668</ele><time>2026-05-02T09:16:28.999Z</time></trkpt><trkpt lat="42.060785231669115" lon="3.021075508858422"><ele>15.333333333333334</ele><time>2026-05-02T09:16:29.999Z</time></trkpt><trkpt lat="42.06086569840769" lon="3.0210878383476247"><ele>15.0</ele><time>2026-05-02T09:16:30.999Z</time></trkpt><trkpt lat="42.060948416577084" lon="3.0210969766789355"><ele>15.0</ele><time>2026-05-02T09:16:31.999Z</time></trkpt><trkpt lat="42.061028917826945" lon="3.0211097143513346"><ele>15.0</ele><time>2026-05-02T09:16:32.999Z</time></trkpt><trkpt lat="42.061112074908685" lon="3.02112602315472"><ele>15.0</ele><time>2026-05-02T09:16:33.999Z</time></trkpt><trkpt lat="42.0611951841055" lon="3.0211410910283925"><ele>15.0</ele><time>2026-05-02T09:16:34.999Z</time></trkpt><trkpt lat="42.06127842062573" lon="3.0211550991824825"><ele>15.0</ele><time>2026-05-02T09:16:35.999Z</time></trkpt><trkpt lat="42.06136400722319" lon="3.021173081315758"><ele>15.0</ele><time>2026-05-02T09:16:36.999Z</time></trkpt><trkpt lat="42.06144771457596" lon="3.0211908105272633"><ele>15.0</ele><time>2026-05-02T09:16:37.999Z</time></trkpt><trkpt lat="42.061532559616225" lon="3.0212091439318174"><ele>15.0</ele><time>2026-05-02T09:16:38.999Z</time></trkpt><trkpt lat="42.0616136251761" lon="3.021231531962454"><ele>15.0</ele><time>2026-05-02T09:16:39.999Z</time></trkpt><trkpt lat="42.0616966736236" lon="3.0212506873188887"><ele>15.0</ele><time>2026-05-02T09:16:40.999Z</time></trkpt><trkpt lat="42.06177774706445" lon="3.0212586055629127"><ele>15.0</ele><time>2026-05-02T09:16:41.999Z</time></trkpt><trkpt lat="42.06185033478486" lon="3.0212934329383128"><ele>15.0</ele><time>2026-05-02T09:16:42.999Z</time></trkpt><trkpt lat="42.06192199223134" lon="3.021310714015202"><ele>15.6</ele><time>2026-05-02T09:16:43.999Z</time></trkpt><trkpt lat="42.061994029752654" lon="3.0213074052795497"><ele>16.2</ele><time>2026-05-02T09:16:44.999Z</time></trkpt><trkpt lat="42.062057944235754" lon="3.0213451246726146"><ele>16.8</ele><time>2026-05-02T09:16:45.999Z</time></trkpt><trkpt lat="42.06214984091477" lon="3.021375750894637"><ele>17.4</ele><time>2026-05-02T09:16:47.999Z</time></trkpt><trkpt lat="42.062074376481014" lon="3.0215495377065995"><ele>18.0</ele><time>2026-05-02T09:16:48.999Z</time></trkpt><trkpt lat="42.062075056643025" lon="3.021636258627686"><ele>18.000000000000004</ele><time>2026-05-02T09:16:49.999Z</time></trkpt><trkpt lat="42.06208009216831" lon="3.021731960386965"><ele>18.0</ele><time>2026-05-02T09:16:50.999Z</time></trkpt><trkpt lat="42.06208489729764" lon="3.021823898519368"><ele>18.0</ele><time>2026-05-02T09:16:51.999Z</time></trkpt><trkpt lat="42.06208995281056" lon="3.0219190054433223"><ele>18.0</ele><time>2026-05-02T09:16:52.999Z</time></trkpt><trkpt lat="42.062092972480414" lon="3.0220192584570134"><ele>18.0</ele><time>2026-05-02T09:16:53.999Z</time></trkpt><trkpt lat="42.06209480579703" lon="3.0221168527003375"><ele>18.000000000000004</ele><time>2026-05-02T09:16:54.999Z</time></trkpt><trkpt lat="42.062092682101614" lon="3.0222157855703418"><ele>18.0</ele><time>2026-05-02T09:16:55.999Z</time></trkpt><trkpt lat="42.06208882260418" lon="3.022314146830971"><ele>18.0</ele><time>2026-05-02T09:16:56.999Z</time></trkpt><trkpt lat="42.062083554700955" lon="3.02241660755065"><ele>18.0</ele><time>2026-05-02T09:16:57.999Z</time></trkpt><trkpt lat="42.06207592404468" lon="3.0225131353986905"><ele>18.0</ele><time>2026-05-02T09:16:58.999Z</time></trkpt><trkpt lat="42.06206761595355" lon="3.0226147135993635"><ele>18.0</ele><time>2026-05-02T09:16:59.999Z</time></trkpt><trkpt lat="42.06206168839048" lon="3.0227179458737363"><ele>18.0</ele><time>2026-05-02T09:17:00.999Z</time></trkpt><trkpt lat="42.06206114455727" lon="3.022820520717897"><ele>18.0</ele><time>2026-05-02T09:17:01.999Z</time></trkpt><trkpt lat="42.062062162245525" lon="3.022921192448154"><ele>17.666666666666668</ele><time>2026-05-02T09:17:02.999Z</time></trkpt><trkpt lat="42.062066115042754" lon="3.0230204140670742"><ele>17.333333333333332</ele><time>2026-05-02T09:17:03.999Z</time></trkpt><trkpt lat="42.062071252988304" lon="3.0231210133453237"><ele>17.0</ele><time>2026-05-02T09:17:04.999Z</time></trkpt><trkpt lat="42.06209281133252" lon="3.0232192096745925"><ele>16.666666666666664</ele><time>2026-05-02T09:17:05.999Z</time></trkpt><trkpt lat="42.06209446051475" lon="3.023318552476341"><ele>16.333333333333332</ele><time>2026-05-02T09:17:06.999Z</time></trkpt><trkpt lat="42.06209869327029" lon="3.023419330200712"><ele>16.0</ele><time>2026-05-02T09:17:07.999Z</time></trkpt><trkpt lat="42.06210114095717" lon="3.023523790185035"><ele>15.833333333333332</ele><time>2026-05-02T09:17:08.999Z</time></trkpt><trkpt lat="42.06210146946768" lon="3.023625582745908"><ele>15.666666666666666</ele><time>2026-05-02T09:17:09.999Z</time></trkpt><trkpt lat="42.06209043350064" lon="3.0237336666637056"><ele>15.5</ele><time>2026-05-02T09:17:10.999Z</time></trkpt><trkpt lat="42.06205901824075" lon="3.023830612854735"><ele>15.333333333333332</ele><time>2026-05-02T09:17:11.999Z</time></trkpt><trkpt lat="42.06204074966206" lon="3.023928389364189"><ele>15.166666666666666</ele><time>2026-05-02T09:17:12.999Z</time></trkpt><trkpt lat="42.06201779126342" lon="3.0240291552741816"><ele>15.0</ele><time>2026-05-02T09:17:13.999Z</time></trkpt><trkpt lat="42.06199383674545" lon="3.024127236032124"><ele>15.166666666666666</ele><time>2026-05-02T09:17:14.999Z</time></trkpt><trkpt lat="42.06196804402741" lon="3.024228530424452"><ele>15.333333333333332</ele><time>2026-05-02T09:17:15.999Z</time></trkpt><trkpt lat="42.061942132089094" lon="3.024327061532255"><ele>15.5</ele><time>2026-05-02T09:17:16.999Z</time></trkpt><trkpt lat="42.06191542878113" lon="3.024428601848604"><ele>15.666666666666666</ele><time>2026-05-02T09:17:17.999Z</time></trkpt><trkpt lat="42.06188888372098" lon="3.0245295406862005"><ele>15.833333333333332</ele><time>2026-05-02T09:17:18.999Z</time></trkpt><trkpt lat="42.061862214319376" lon="3.024630952063444"><ele>16.0</ele><time>2026-05-02T09:17:19.999Z</time></trkpt><trkpt lat="42.061835485186336" lon="3.024732590690815"><ele>15.999999999999998</ele><time>2026-05-02T09:17:20.999Z</time></trkpt><trkpt lat="42.06180851180323" lon="3.0248357756413595"><ele>16.0</ele><time>2026-05-02T09:17:21.999Z</time></trkpt><trkpt lat="42.061783999054924" lon="3.0249384405160202"><ele>16.0</ele><time>2026-05-02T09:17:22.999Z</time></trkpt><trkpt lat="42.06175884235054" lon="3.0250438024082005"><ele>16.0</ele><time>2026-05-02T09:17:23.999Z</time></trkpt><trkpt lat="42.06173397325205" lon="3.025147959769478"><ele>15.999999999999998</ele><time>2026-05-02T09:17:24.999Z</time></trkpt><trkpt lat="42.0617227965482" lon="3.025259300377971"><ele>16.0</ele><time>2026-05-02T09:17:25.999Z</time></trkpt><trkpt lat="42.06169547467514" lon="3.0253657205884097"><ele>15.999999999999998</ele><time>2026-05-02T09:17:26.999Z</time></trkpt><trkpt lat="42.06167023406197" lon="3.0254695727119736"><ele>16.0</ele><time>2026-05-02T09:17:27.999Z</time></trkpt><trkpt lat="42.06164308103486" lon="3.025574812879252"><ele>16.0</ele><time>2026-05-02T09:17:28.999Z</time></trkpt><trkpt lat="42.06161497096381" lon="3.025679252342138"><ele>16.0</ele><time>2026-05-02T09:17:29.999Z</time></trkpt><trkpt lat="42.06158665455205" lon="3.0257845893613715"><ele>15.999999999999998</ele><time>2026-05-02T09:17:30.999Z</time></trkpt><trkpt lat="42.061560385742915" lon="3.0258910361933373"><ele>16.0</ele><time>2026-05-02T09:17:31.999Z</time></trkpt><trkpt lat="42.06153539545871" lon="3.025994056292538"><ele>16.166666666666664</ele><time>2026-05-02T09:17:32.999Z</time></trkpt><trkpt lat="42.061509216186444" lon="3.0261007653811656"><ele>16.333333333333332</ele><time>2026-05-02T09:17:33.999Z</time></trkpt><trkpt lat="42.061484938827796" lon="3.026205489932343"><ele>16.5</ele><time>2026-05-02T09:17:34.999Z</time></trkpt><trkpt lat="42.061459781300584" lon="3.0263135726420773"><ele>16.666666666666668</ele><time>2026-05-02T09:17:35.999Z</time></trkpt><trkpt lat="42.06143341698086" lon="3.0264170250992546"><ele>16.833333333333336</ele><time>2026-05-02T09:17:36.999Z</time></trkpt><trkpt lat="42.06140691122029" lon="3.0265195567582905"><ele>17.0</ele><time>2026-05-02T09:17:37.999Z</time></trkpt><trkpt lat="42.06138073575309" lon="3.0266254344078813"><ele>16.833333333333336</ele><time>2026-05-02T09:17:38.999Z</time></trkpt><trkpt lat="42.061360951156686" lon="3.0267305477092767"><ele>16.666666666666668</ele><time>2026-05-02T09:17:39.999Z</time></trkpt><trkpt lat="42.061345898814274" lon="3.02683981453061"><ele>16.5</ele><time>2026-05-02T09:17:40.999Z</time></trkpt><trkpt lat="42.06134277090889" lon="3.0269425547931657"><ele>16.333333333333332</ele><time>2026-05-02T09:17:41.999Z</time></trkpt><trkpt lat="42.06135159057275" lon="3.0270512186913607"><ele>16.166666666666664</ele><time>2026-05-02T09:17:43Z</time></trkpt><trkpt lat="42.06136384027184" lon="3.027156973126208"><ele>16.0</ele><time>2026-05-02T09:17:44Z</time></trkpt><trkpt lat="42.061377405156556" lon="3.02726647140395"><ele>15.999999999999998</ele><time>2026-05-02T09:17:45Z</time></trkpt><trkpt lat="42.06139235374813" lon="3.0273753519315694"><ele>16.0</ele><time>2026-05-02T09:17:46Z</time></trkpt><trkpt lat="42.06140538495729" lon="3.027481375104339"><ele>16.0</ele><time>2026-05-02T09:17:47Z</time></trkpt><trkpt lat="42.061417231824656" lon="3.0275908102361293"><ele>16.0</ele><time>2026-05-02T09:17:48Z</time></trkpt><trkpt lat="42.0614309683431" lon="3.0276989233890506"><ele>15.999999999999998</ele><time>2026-05-02T09:17:49Z</time></trkpt><trkpt lat="42.06144658716175" lon="3.0278062325328468"><ele>16.0</ele><time>2026-05-02T09:17:50Z</time></trkpt><trkpt lat="42.0614643580855" lon="3.027915479013538"><ele>15.999999999999998</ele><time>2026-05-02T09:17:51Z</time></trkpt><trkpt lat="42.06148070263702" lon="3.028022445542974"><ele>16.0</ele><time>2026-05-02T09:17:52Z</time></trkpt><trkpt lat="42.06150083821927" lon="3.0281282242411844"><ele>16.0</ele><time>2026-05-02T09:17:53Z</time></trkpt><trkpt lat="42.06151881947351" lon="3.028233582625755"><ele>16.0</ele><time>2026-05-02T09:17:54Z</time></trkpt><trkpt lat="42.06153560682613" lon="3.028339094495644"><ele>15.999999999999998</ele><time>2026-05-02T09:17:55Z</time></trkpt><trkpt lat="42.06155406473042" lon="3.0284428498012033"><ele>16.0</ele><time>2026-05-02T09:17:56Z</time></trkpt><trkpt lat="42.06156863811525" lon="3.0285488327663397"><ele>15.999999999999998</ele><time>2026-05-02T09:17:57Z</time></trkpt><trkpt lat="42.061585477172066" lon="3.028652845347024"><ele>16.0</ele><time>2026-05-02T09:17:58Z</time></trkpt><trkpt lat="42.06159996878354" lon="3.0287590800068935"><ele>16.0</ele><time>2026-05-02T09:17:59Z</time></trkpt><trkpt lat="42.06161572382028" lon="3.0288671293371032"><ele>16.0</ele><time>2026-05-02T09:18:00Z</time></trkpt><trkpt lat="42.06163447396134" lon="3.028973729234694"><ele>15.999999999999998</ele><time>2026-05-02T09:18:01Z</time></trkpt><trkpt lat="42.06165290331188" lon="3.0290836340774474"><ele>16.0</ele><time>2026-05-02T09:18:02Z</time></trkpt><trkpt lat="42.06166088451345" lon="3.0291935130954477"><ele>16.5</ele><time>2026-05-02T09:18:03Z</time></trkpt><trkpt lat="42.06166489859957" lon="3.029306995836277"><ele>17.0</ele><time>2026-05-02T09:18:04Z</time></trkpt><trkpt lat="42.061660580696355" lon="3.029419840940665"><ele>17.5</ele><time>2026-05-02T09:18:05Z</time></trkpt><trkpt lat="42.06166292747488" lon="3.029528365735914"><ele>18.0</ele><time>2026-05-02T09:18:06Z</time></trkpt><trkpt lat="42.061668428390306" lon="3.029638769966903"><ele>18.5</ele><time>2026-05-02T09:18:07Z</time></trkpt><trkpt lat="42.06167079643532" lon="3.0297491792623816"><ele>19.0</ele><time>2026-05-02T09:18:08Z</time></trkpt><trkpt lat="42.06167446469853" lon="3.029857633559711"><ele>19.0</ele><time>2026-05-02T09:18:09Z</time></trkpt><trkpt lat="42.0616755161149" lon="3.0299644564632344"><ele>19.0</ele><time>2026-05-02T09:18:10Z</time></trkpt><trkpt lat="42.06167465494948" lon="3.0300730979354396"><ele>19.0</ele><time>2026-05-02T09:18:11Z</time></trkpt><trkpt lat="42.06168025864307" lon="3.0301794271819618"><ele>19.0</ele><time>2026-05-02T09:18:12Z</time></trkpt><trkpt lat="42.061687893493975" lon="3.0302848691237028"><ele>19.0</ele><time>2026-05-02T09:18:13Z</time></trkpt><trkpt lat="42.06169360464422" lon="3.0303907637481236"><ele>19.0</ele><time>2026-05-02T09:18:14Z</time></trkpt><trkpt lat="42.061699824474196" lon="3.0304971690949847"><ele>19.0</ele><time>2026-05-02T09:18:15Z</time></trkpt><trkpt lat="42.06170890402202" lon="3.030600638521477"><ele>19.0</ele><time>2026-05-02T09:18:16Z</time></trkpt><trkpt lat="42.061717868717395" lon="3.030700547871597"><ele>19.0</ele><time>2026-05-02T09:18:17Z</time></trkpt><trkpt lat="42.06172336466755" lon="3.0308029816343085"><ele>19.0</ele><time>2026-05-02T09:18:18Z</time></trkpt><trkpt lat="42.061729212971024" lon="3.0309030433099036"><ele>19.0</ele><time>2026-05-02T09:18:19Z</time></trkpt><trkpt lat="42.06173812307128" lon="3.0310017042334114"><ele>19.0</ele><time>2026-05-02T09:18:20Z</time></trkpt><trkpt lat="42.06174119386107" lon="3.03110344416958"><ele>18.857142857142858</ele><time>2026-05-02T09:18:21Z</time></trkpt><trkpt lat="42.061747765248505" lon="3.031199747006935"><ele>18.714285714285715</ele><time>2026-05-02T09:18:22Z</time></trkpt><trkpt lat="42.06175438599415" lon="3.031296396343916"><ele>18.571428571428573</ele><time>2026-05-02T09:18:23Z</time></trkpt><trkpt lat="42.061758161995975" lon="3.0313947733322735"><ele>18.42857142857143</ele><time>2026-05-02T09:18:24Z</time></trkpt><trkpt lat="42.06175781303984" lon="3.0314928324437775"><ele>18.285714285714285</ele><time>2026-05-02T09:18:25Z</time></trkpt><trkpt lat="42.06175763028703" lon="3.0315879347642167"><ele>18.142857142857146</ele><time>2026-05-02T09:18:26Z</time></trkpt><trkpt lat="42.061756087051094" lon="3.0316881675786984"><ele>18.0</ele><time>2026-05-02T09:18:27Z</time></trkpt><trkpt lat="42.06175362581433" lon="3.0317895734466984"><ele>18.000000000000004</ele><time>2026-05-02T09:18:28Z</time></trkpt><trkpt lat="42.06175319411701" lon="3.0318890142627763"><ele>18.0</ele><time>2026-05-02T09:18:29Z</time></trkpt><trkpt lat="42.0617565268987" lon="3.031985512632648"><ele>18.0</ele><time>2026-05-02T09:18:30Z</time></trkpt><trkpt lat="42.06175778956323" lon="3.032083391597433"><ele>18.0</ele><time>2026-05-02T09:18:31Z</time></trkpt><trkpt lat="42.06175686860662" lon="3.0321844991712683"><ele>18.0</ele><time>2026-05-02T09:18:32Z</time></trkpt><trkpt lat="42.06175551655045" lon="3.032285810774408"><ele>18.000000000000004</ele><time>2026-05-02T09:18:33Z</time></trkpt><trkpt lat="42.061755000165476" lon="3.032386087400213"><ele>18.0</ele><time>2026-05-02T09:18:34Z</time></trkpt><trkpt lat="42.061751610124986" lon="3.032485198996054"><ele>17.714285714285715</ele><time>2026-05-02T09:18:35Z</time></trkpt><trkpt lat="42.061747109262136" lon="3.0325834871891404"><ele>17.42857142857143</ele><time>2026-05-02T09:18:36Z</time></trkpt><trkpt lat="42.061739093430745" lon="3.032682792157703"><ele>17.142857142857142</ele><time>2026-05-02T09:18:37Z</time></trkpt><trkpt lat="42.06171267432645" lon="3.0327784927015946"><ele>16.857142857142858</ele><time>2026-05-02T09:18:38Z</time></trkpt><trkpt lat="42.06169838652332" lon="3.0328709308458883"><ele>16.57142857142857</ele><time>2026-05-02T09:18:39Z</time></trkpt><trkpt lat="42.06168377238974" lon="3.0329686752593923"><ele>16.285714285714285</ele><time>2026-05-02T09:18:40Z</time></trkpt><trkpt lat="42.061669665908845" lon="3.03306752751461"><ele>16.0</ele><time>2026-05-02T09:18:41Z</time></trkpt><trkpt lat="42.0616558153478" lon="3.0331686192618457"><ele>15.999999999999998</ele><time>2026-05-02T09:18:42Z</time></trkpt><trkpt lat="42.06164328185246" lon="3.0332667304123335"><ele>16.0</ele><time>2026-05-02T09:18:43Z</time></trkpt><trkpt lat="42.061635912444736" lon="3.033365673969362"><ele>16.0</ele><time>2026-05-02T09:18:44Z</time></trkpt><trkpt lat="42.06163494455796" lon="3.0334672483471845"><ele>16.0</ele><time>2026-05-02T09:18:45Z</time></trkpt><trkpt lat="42.061637884881534" lon="3.033569778430784"><ele>15.999999999999998</ele><time>2026-05-02T09:18:46Z</time></trkpt><trkpt lat="42.06164992650779" lon="3.0336751128226678"><ele>16.0</ele><time>2026-05-02T09:18:47Z</time></trkpt><trkpt lat="42.06166704452476" lon="3.0337725879051676"><ele>15.833333333333332</ele><time>2026-05-02T09:18:48Z</time></trkpt><trkpt lat="42.06168406316574" lon="3.0338712254985984"><ele>15.666666666666666</ele><time>2026-05-02T09:18:49Z</time></trkpt><trkpt lat="42.061701301296864" lon="3.033975583558923"><ele>15.5</ele><time>2026-05-02T09:18:50Z</time></trkpt><trkpt lat="42.06173102723577" lon="3.0340665230630144"><ele>15.333333333333332</ele><time>2026-05-02T09:18:51Z</time></trkpt><trkpt lat="42.06173810350408" lon="3.0341712223311865"><ele>15.166666666666666</ele><time>2026-05-02T09:18:52Z</time></trkpt><trkpt lat="42.06174726428944" lon="3.0342735416595237"><ele>15.0</ele><time>2026-05-02T09:18:53Z</time></trkpt><trkpt lat="42.06175111124127" lon="3.034378977757161"><ele>15.333333333333334</ele><time>2026-05-02T09:18:54Z</time></trkpt><trkpt lat="42.06175695652292" lon="3.034479874100932"><ele>15.666666666666668</ele><time>2026-05-02T09:18:55Z</time></trkpt><trkpt lat="42.06175782454484" lon="3.034584703970043"><ele>16.0</ele><time>2026-05-02T09:18:56Z</time></trkpt><trkpt lat="42.061755769291175" lon="3.034689161438332"><ele>16.333333333333336</ele><time>2026-05-02T09:18:57Z</time></trkpt><trkpt lat="42.06175333511191" lon="3.034793558930064"><ele>16.666666666666668</ele><time>2026-05-02T09:18:58Z</time></trkpt><trkpt lat="42.061742159550974" lon="3.0348974041483854"><ele>17.0</ele><time>2026-05-02T09:18:59Z</time></trkpt><trkpt lat="42.061728255736575" lon="3.034999960757236"><ele>16.333333333333336</ele><time>2026-05-02T09:19:00Z</time></trkpt><trkpt lat="42.06170830403235" lon="3.035098901997631"><ele>15.666666666666668</ele><time>2026-05-02T09:19:01Z</time></trkpt><trkpt lat="42.06170119922585" lon="3.035203740177078"><ele>15.0</ele><time>2026-05-02T09:19:02Z</time></trkpt><trkpt lat="42.061687781507494" lon="3.0353072977479796"><ele>14.333333333333332</ele><time>2026-05-02T09:19:03Z</time></trkpt><trkpt lat="42.061675683614304" lon="3.0354082325116742"><ele>13.666666666666666</ele><time>2026-05-02T09:19:03.999Z</time></trkpt><trkpt lat="42.0616591774782" lon="3.0355120082661022"><ele>13.0</ele><time>2026-05-02T09:19:04.999Z</time></trkpt><trkpt lat="42.0616451567797" lon="3.035612720276286"><ele>12.999999999999998</ele><time>2026-05-02T09:19:05.999Z</time></trkpt><trkpt lat="42.06162666459753" lon="3.035717707790904"><ele>13.0</ele><time>2026-05-02T09:19:06.999Z</time></trkpt><trkpt lat="42.06159621952835" lon="3.0358122542800117"><ele>13.0</ele><time>2026-05-02T09:19:07.999Z</time></trkpt><trkpt lat="42.0615805139861" lon="3.035911061536488"><ele>13.0</ele><time>2026-05-02T09:19:08.999Z</time></trkpt><trkpt lat="42.061564448105194" lon="3.036012136128338"><ele>12.999999999999998</ele><time>2026-05-02T09:19:09.999Z</time></trkpt><trkpt lat="42.061541835138236" lon="3.0361067172043237"><ele>13.0</ele><time>2026-05-02T09:19:10.999Z</time></trkpt><trkpt lat="42.06152721366742" lon="3.036208540314361"><ele>12.857142857142856</ele><time>2026-05-02T09:19:11.999Z</time></trkpt><trkpt lat="42.06149659383523" lon="3.0363026070717547"><ele>12.714285714285715</ele><time>2026-05-02T09:19:12.999Z</time></trkpt><trkpt lat="42.061463220086296" lon="3.036388028530517"><ele>12.571428571428571</ele><time>2026-05-02T09:19:13.999Z</time></trkpt><trkpt lat="42.061415349134045" lon="3.0364611006573172"><ele>12.428571428571427</ele><time>2026-05-02T09:19:14.999Z</time></trkpt><trkpt lat="42.06139145898934" lon="3.036553632201956"><ele>12.285714285714285</ele><time>2026-05-02T09:19:15.999Z</time></trkpt><trkpt lat="42.0613505172892" lon="3.036636523082973"><ele>12.142857142857142</ele><time>2026-05-02T09:19:16.999Z</time></trkpt><trkpt lat="42.061305454622364" lon="3.0367168156096844"><ele>12.0</ele><time>2026-05-02T09:19:17.999Z</time></trkpt><trkpt lat="42.06125489271911" lon="3.036794908638511"><ele>12.0</ele><time>2026-05-02T09:19:18.999Z</time></trkpt><trkpt lat="42.061208420168775" lon="3.036871979247027"><ele>12.0</ele><time>2026-05-02T09:19:19.999Z</time></trkpt><trkpt lat="42.06114348924014" lon="3.0369299689229723"><ele>12.0</ele><time>2026-05-02T09:19:20.999Z</time></trkpt><trkpt lat="42.061084056168134" lon="3.036997777243165"><ele>12.0</ele><time>2026-05-02T09:19:21.999Z</time></trkpt><trkpt lat="42.06102563856464" lon="3.0370644421944237"><ele>12.0</ele><time>2026-05-02T09:19:22.999Z</time></trkpt><trkpt lat="42.06096665446834" lon="3.0371259890904496"><ele>12.0</ele><time>2026-05-02T09:19:23.999Z</time></trkpt><trkpt lat="42.060905303429166" lon="3.0371907231463804"><ele>12.0</ele><time>2026-05-02T09:19:24.999Z</time></trkpt><trkpt lat="42.06084574881488" lon="3.037256690791182"><ele>12.0</ele><time>2026-05-02T09:19:25.999Z</time></trkpt><trkpt lat="42.060786580170976" lon="3.0373287862261957"><ele>12.0</ele><time>2026-05-02T09:19:26.999Z</time></trkpt><trkpt lat="42.06073679211254" lon="3.037416369554305"><ele>12.0</ele><time>2026-05-02T09:19:27.999Z</time></trkpt><trkpt lat="42.0607028141598" lon="3.0375206110458635"><ele>12.0</ele><time>2026-05-02T09:19:28.999Z</time></trkpt><trkpt lat="42.06069057350421" lon="3.037633912882044"><ele>12.0</ele><time>2026-05-02T09:19:29.999Z</time></trkpt><trkpt lat="42.06068649071166" lon="3.037742357366506"><ele>12.166666666666666</ele><time>2026-05-02T09:19:30.999Z</time></trkpt><trkpt lat="42.0606834653418" lon="3.0378489619248707"><ele>12.333333333333332</ele><time>2026-05-02T09:19:31.999Z</time></trkpt><trkpt lat="42.06068342747693" lon="3.037947868156412"><ele>12.5</ele><time>2026-05-02T09:19:32.999Z</time></trkpt><trkpt lat="42.060698966138155" lon="3.038035335584319"><ele>12.666666666666666</ele><time>2026-05-02T09:19:33.999Z</time></trkpt><trkpt lat="42.060677595886574" lon="3.038167844342796"><ele>12.833333333333332</ele><time>2026-05-02T09:19:35.999Z</time></trkpt><trkpt lat="42.06060324539454" lon="3.0382467593763227"><ele>13.0</ele><time>2026-05-02T09:19:37.999Z</time></trkpt><trkpt lat="42.06049115107645" lon="3.038254601989285"><ele>12.999999999999998</ele><time>2026-05-02T09:19:39.999Z</time></trkpt><trkpt lat="42.06038248905384" lon="3.0383028834608417"><ele>13.0</ele><time>2026-05-02T09:19:41.999Z</time></trkpt><trkpt lat="42.06026555730513" lon="3.038354682288332"><ele>13.0</ele><time>2026-05-02T09:19:43.999Z</time></trkpt><trkpt lat="42.06020274908085" lon="3.0383817448709385"><ele>13.0</ele><time>2026-05-02T09:19:44.999Z</time></trkpt><trkpt lat="42.060140851449326" lon="3.0384084150821606"><ele>12.999999999999998</ele><time>2026-05-02T09:19:45.999Z</time></trkpt><trkpt lat="42.06007961030357" lon="3.0384348024357832"><ele>13.0</ele><time>2026-05-02T09:19:46.999Z</time></trkpt><trkpt lat="42.060013633902685" lon="3.0384632300907497"><ele>13.142857142857142</ele><time>2026-05-02T09:19:47.999Z</time></trkpt><trkpt lat="42.05994600787767" lon="3.038492368547493"><ele>13.285714285714286</ele><time>2026-05-02T09:19:49Z</time></trkpt><trkpt lat="42.059877889217745" lon="3.038521719253252"><ele>13.428571428571429</ele><time>2026-05-02T09:19:50Z</time></trkpt><trkpt lat="42.05980940697799" lon="3.038551226621414"><ele>13.571428571428571</ele><time>2026-05-02T09:19:51Z</time></trkpt><trkpt lat="42.05974248438252" lon="3.0385800619738568"><ele>13.714285714285715</ele><time>2026-05-02T09:19:52Z</time></trkpt><trkpt lat="42.059673833667134" lon="3.0386096419367705"><ele>13.857142857142858</ele><time>2026-05-02T09:19:53Z</time></trkpt><trkpt lat="42.05960243647004" lon="3.038640405295439"><ele>14.0</ele><time>2026-05-02T09:19:54Z</time></trkpt><trkpt lat="42.059529191571336" lon="3.038673587377986"><ele>14.000000000000002</ele><time>2026-05-02T09:19:55Z</time></trkpt><trkpt lat="42.05945902610924" lon="3.038707770584698"><ele>14.0</ele><time>2026-05-02T09:19:56Z</time></trkpt><trkpt lat="42.05938886005479" lon="3.0387466774547223"><ele>14.0</ele><time>2026-05-02T09:19:57Z</time></trkpt><trkpt lat="42.05931917888072" lon="3.0387846403013454"><ele>14.0</ele><time>2026-05-02T09:19:58Z</time></trkpt><trkpt lat="42.05924710987749" lon="3.0388159817071165"><ele>14.000000000000002</ele><time>2026-05-02T09:19:59Z</time></trkpt><trkpt lat="42.0591716929987" lon="3.0388462674146948"><ele>14.0</ele><time>2026-05-02T09:20:00Z</time></trkpt><trkpt lat="42.05909772277976" lon="3.038873928833301"><ele>14.500000000000002</ele><time>2026-05-02T09:20:01Z</time></trkpt><trkpt lat="42.059022759711176" lon="3.0389001396832858"><ele>15.0</ele><time>2026-05-02T09:20:02Z</time></trkpt><trkpt lat="42.05894918189971" lon="3.038925692247084"><ele>15.5</ele><time>2026-05-02T09:20:03Z</time></trkpt><trkpt lat="42.058878239597654" lon="3.0389503295322298"><ele>16.0</ele><time>2026-05-02T09:20:04Z</time></trkpt><trkpt lat="42.058801937818195" lon="3.0389770631918966"><ele>16.5</ele><time>2026-05-02T09:20:05Z</time></trkpt><trkpt lat="42.05872811979775" lon="3.039005107303345"><ele>17.0</ele><time>2026-05-02T09:20:06Z</time></trkpt><trkpt lat="42.058652670489344" lon="3.0390362137969613"><ele>17.0</ele><time>2026-05-02T09:20:07Z</time></trkpt><trkpt lat="42.058577867653376" lon="3.0390696335145417"><ele>17.0</ele><time>2026-05-02T09:20:08Z</time></trkpt><trkpt lat="42.05850288880998" lon="3.0391113203067204"><ele>17.0</ele><time>2026-05-02T09:20:09Z</time></trkpt><trkpt lat="42.05842925547159" lon="3.039159057652922"><ele>17.0</ele><time>2026-05-02T09:20:10Z</time></trkpt><trkpt lat="42.05836112906104" lon="3.039226190493668"><ele>17.0</ele><time>2026-05-02T09:20:11Z</time></trkpt><trkpt lat="42.05830971800491" lon="3.03931456747575"><ele>17.0</ele><time>2026-05-02T09:20:12Z</time></trkpt><trkpt lat="42.05829956354239" lon="3.039435893096272"><ele>17.0</ele><time>2026-05-02T09:20:13Z</time></trkpt><trkpt lat="42.05828181939737" lon="3.039544364824944"><ele>17.0</ele><time>2026-05-02T09:20:14Z</time></trkpt><trkpt lat="42.058267163924036" lon="3.039654563135073"><ele>17.0</ele><time>2026-05-02T09:20:15Z</time></trkpt><trkpt lat="42.05825936715971" lon="3.0397667202988123"><ele>17.0</ele><time>2026-05-02T09:20:16Z</time></trkpt><trkpt lat="42.058245660202694" lon="3.039871191206074"><ele>17.0</ele><time>2026-05-02T09:20:17Z</time></trkpt><trkpt lat="42.05823188167576" lon="3.0399878669487204"><ele>17.0</ele><time>2026-05-02T09:20:18Z</time></trkpt><trkpt lat="42.0582165427254" lon="3.0401031960662785"><ele>17.0</ele><time>2026-05-02T09:20:19Z</time></trkpt><trkpt lat="42.05820040471657" lon="3.040211350138307"><ele>17.0</ele><time>2026-05-02T09:20:20Z</time></trkpt><trkpt lat="42.058174422603265" lon="3.0403285215880893"><ele>17.0</ele><time>2026-05-02T09:20:21Z</time></trkpt><trkpt lat="42.058162175560206" lon="3.0404404945814965"><ele>17.0</ele><time>2026-05-02T09:20:22Z</time></trkpt><trkpt lat="42.058143548647145" lon="3.040550630747404"><ele>17.0</ele><time>2026-05-02T09:20:23Z</time></trkpt><trkpt lat="42.05812998439377" lon="3.040655366890192"><ele>17.0</ele><time>2026-05-02T09:20:24Z</time></trkpt><trkpt lat="42.058123007444046" lon="3.0407554179061407"><ele>16.666666666666668</ele><time>2026-05-02T09:20:25Z</time></trkpt><trkpt lat="42.05811884201384" lon="3.0408558303732516"><ele>16.333333333333336</ele><time>2026-05-02T09:20:26Z</time></trkpt><trkpt lat="42.058115047443295" lon="3.0409574825034866"><ele>16.0</ele><time>2026-05-02T09:20:27Z</time></trkpt><trkpt lat="42.0581094956316" lon="3.0410653024241046"><ele>15.666666666666668</ele><time>2026-05-02T09:20:28Z</time></trkpt><trkpt lat="42.05811740061629" lon="3.0411722408870716"><ele>15.333333333333334</ele><time>2026-05-02T09:20:29Z</time></trkpt><trkpt lat="42.05813395804403" lon="3.041284264963245"><ele>15.0</ele><time>2026-05-02T09:20:30Z</time></trkpt><trkpt lat="42.05814619139963" lon="3.0413945248305967"><ele>15.0</ele><time>2026-05-02T09:20:31Z</time></trkpt><trkpt lat="42.05814659425792" lon="3.0415054051642763"><ele>15.0</ele><time>2026-05-02T09:20:32Z</time></trkpt><trkpt lat="42.0581450385536" lon="3.0416126273824653"><ele>15.0</ele><time>2026-05-02T09:20:33Z</time></trkpt><trkpt lat="42.058138032801466" lon="3.041718467490048"><ele>15.0</ele><time>2026-05-02T09:20:34Z</time></trkpt><trkpt lat="42.05813179435957" lon="3.041821134738129"><ele>15.0</ele><time>2026-05-02T09:20:35Z</time></trkpt><trkpt lat="42.058109445229505" lon="3.041915939337505"><ele>15.0</ele><time>2026-05-02T09:20:36Z</time></trkpt><trkpt lat="42.05809788092124" lon="3.0420148733858143"><ele>15.166666666666666</ele><time>2026-05-02T09:20:37Z</time></trkpt><trkpt lat="42.058084384187495" lon="3.0421200044581505"><ele>15.333333333333332</ele><time>2026-05-02T09:20:38Z</time></trkpt><trkpt lat="42.05807067611841" lon="3.0422267817012805"><ele>15.5</ele><time>2026-05-02T09:20:39Z</time></trkpt><trkpt lat="42.058070478253924" lon="3.0423343431154826"><ele>15.666666666666666</ele><time>2026-05-02T09:20:40Z</time></trkpt><trkpt lat="42.05805518687139" lon="3.0424428929614606"><ele>15.833333333333332</ele><time>2026-05-02T09:20:41Z</time></trkpt><trkpt lat="42.05803631749834" lon="3.0425518278147656"><ele>16.0</ele><time>2026-05-02T09:20:42Z</time></trkpt><trkpt lat="42.058020873578705" lon="3.0426586368592647"><ele>15.833333333333332</ele><time>2026-05-02T09:20:43Z</time></trkpt><trkpt lat="42.0580114309595" lon="3.042770089460275"><ele>15.666666666666666</ele><time>2026-05-02T09:20:44Z</time></trkpt><trkpt lat="42.05800121935384" lon="3.0428791609398353"><ele>15.5</ele><time>2026-05-02T09:20:45Z</time></trkpt><trkpt lat="42.0579832065198" lon="3.042989576127126"><ele>15.333333333333332</ele><time>2026-05-02T09:20:46Z</time></trkpt><trkpt lat="42.05796562639316" lon="3.043099068555233"><ele>15.166666666666666</ele><time>2026-05-02T09:20:47Z</time></trkpt><trkpt lat="42.05794938980556" lon="3.043208863178347"><ele>15.0</ele><time>2026-05-02T09:20:48Z</time></trkpt><trkpt lat="42.05792933639378" lon="3.0433134729619535"><ele>15.0</ele><time>2026-05-02T09:20:49Z</time></trkpt><trkpt lat="42.05791119201958" lon="3.0434104984608923"><ele>15.0</ele><time>2026-05-02T09:20:50Z</time></trkpt><trkpt lat="42.05789406116591" lon="3.043511109129157"><ele>15.0</ele><time>2026-05-02T09:20:51Z</time></trkpt><trkpt lat="42.057876602413316" lon="3.043614079819622"><ele>15.0</ele><time>2026-05-02T09:20:52Z</time></trkpt><trkpt lat="42.05785756936505" lon="3.0437193243422995"><ele>15.0</ele><time>2026-05-02T09:20:53Z</time></trkpt><trkpt lat="42.05783904489937" lon="3.0438240249372357"><ele>15.0</ele><time>2026-05-02T09:20:54Z</time></trkpt><trkpt lat="42.05782126116446" lon="3.0439239991598512"><ele>15.0</ele><time>2026-05-02T09:20:55Z</time></trkpt><trkpt lat="42.05780681317071" lon="3.044020612052031"><ele>15.0</ele><time>2026-05-02T09:20:56Z</time></trkpt><trkpt lat="42.057795744060364" lon="3.044114142039912"><ele>15.0</ele><time>2026-05-02T09:20:57Z</time></trkpt><trkpt lat="42.05778584416412" lon="3.0442076598595653"><ele>15.0</ele><time>2026-05-02T09:20:58Z</time></trkpt><trkpt lat="42.05777368385138" lon="3.0442979170887465"><ele>15.0</ele><time>2026-05-02T09:20:59Z</time></trkpt><trkpt lat="42.05775427922437" lon="3.0443851204933527"><ele>15.0</ele><time>2026-05-02T09:21:00Z</time></trkpt><trkpt lat="42.05773993855432" lon="3.044557186443714"><ele>14.833333333333334</ele><time>2026-05-02T09:21:02Z</time></trkpt><trkpt lat="42.057724891524586" lon="3.0446491423529713"><ele>14.666666666666668</ele><time>2026-05-02T09:21:03Z</time></trkpt><trkpt lat="42.057691721001795" lon="3.0447378003450103"><ele>14.5</ele><time>2026-05-02T09:21:04Z</time></trkpt><trkpt lat="42.057674292991784" lon="3.0448272904776013"><ele>14.333333333333334</ele><time>2026-05-02T09:21:05Z</time></trkpt><trkpt lat="42.05765808520741" lon="3.044910514919222"><ele>14.166666666666668</ele><time>2026-05-02T09:21:06Z</time></trkpt><trkpt lat="42.057626933956804" lon="3.045057315598765"><ele>14.0</ele><time>2026-05-02T09:21:08Z</time></trkpt><trkpt lat="42.05757549894843" lon="3.045190982971664"><ele>13.833333333333334</ele><time>2026-05-02T09:21:10Z</time></trkpt><trkpt lat="42.05746297253957" lon="3.0451810097608827"><ele>13.666666666666668</ele><time>2026-05-02T09:21:12Z</time></trkpt><trkpt lat="42.05739836565776" lon="3.045182090916134"><ele>13.5</ele><time>2026-05-02T09:21:13Z</time></trkpt><trkpt lat="42.057332245467556" lon="3.045185221385261"><ele>13.333333333333332</ele><time>2026-05-02T09:21:14Z</time></trkpt><trkpt lat="42.05726408988927" lon="3.0451884482162734"><ele>13.166666666666666</ele><time>2026-05-02T09:21:15Z</time></trkpt><trkpt lat="42.05719306713864" lon="3.045190618216701"><ele>13.0</ele><time>2026-05-02T09:21:16Z</time></trkpt><trkpt lat="42.05712362657918" lon="3.0451912158871823"><ele>13.666666666666666</ele><time>2026-05-02T09:21:17Z</time></trkpt><trkpt lat="42.057057268465826" lon="3.0451917870287546"><ele>14.333333333333332</ele><time>2026-05-02T09:21:18Z</time></trkpt><trkpt lat="42.05699214913949" lon="3.0451923475073666"><ele>15.0</ele><time>2026-05-02T09:21:19Z</time></trkpt><trkpt lat="42.05688923430645" lon="3.0451950916852852"><ele>15.666666666666668</ele><time>2026-05-02T09:21:21Z</time></trkpt><trkpt lat="42.05680888906763" lon="3.0452030311765204"><ele>16.333333333333336</ele><time>2026-05-02T09:21:23Z</time></trkpt><trkpt lat="42.05671332680381" lon="3.045212474041889"><ele>17.0</ele><time>2026-05-02T09:21:24.999Z</time></trkpt><trkpt lat="42.05661425856598" lon="3.0452222633114054"><ele>17.333333333333336</ele><time>2026-05-02T09:21:26.999Z</time></trkpt><trkpt lat="42.05652544357116" lon="3.045242759897973"><ele>17.666666666666668</ele><time>2026-05-02T09:21:28.999Z</time></trkpt><trkpt lat="42.05644939381831" lon="3.045240056889738"><ele>18.0</ele><time>2026-05-02T09:21:30.999Z</time></trkpt><trkpt lat="42.056362475267804" lon="3.0452204877782734"><ele>18.333333333333332</ele><time>2026-05-02T09:21:32.999Z</time></trkpt><trkpt lat="42.05626999347722" lon="3.0452157495144827"><ele>18.666666666666664</ele><time>2026-05-02T09:21:34.999Z</time></trkpt><trkpt lat="42.05619329393754" lon="3.0451637583784206"><ele>19.0</ele><time>2026-05-02T09:21:36.999Z</time></trkpt><trkpt lat="42.05610242466766" lon="3.0451572792164283"><ele>19.0</ele><time>2026-05-02T09:21:39.999Z</time></trkpt><trkpt lat="42.056007987568314" lon="3.0451293939144013"><ele>19.0</ele><time>2026-05-02T09:21:41.999Z</time></trkpt><trkpt lat="42.05591606004155" lon="3.04509975987466"><ele>19.0</ele><time>2026-05-02T09:21:43.999Z</time></trkpt><trkpt lat="42.05582870776088" lon="3.0450759591370193"><ele>19.0</ele><time>2026-05-02T09:21:45.999Z</time></trkpt><trkpt lat="42.055732994170064" lon="3.0450450891405265"><ele>19.0</ele><time>2026-05-02T09:21:47.999Z</time></trkpt><trkpt lat="42.05563099780054" lon="3.045017703727973"><ele>19.0</ele><time>2026-05-02T09:21:49.999Z</time></trkpt><trkpt lat="42.05552787356571" lon="3.0449801618672856"><ele>19.0</ele><time>2026-05-02T09:21:51.999Z</time></trkpt><trkpt lat="42.05541822052123" lon="3.044948975275269"><ele>19.0</ele><time>2026-05-02T09:21:53.999Z</time></trkpt><trkpt lat="42.05531134200079" lon="3.044921270572235"><ele>19.0</ele><time>2026-05-02T09:21:56Z</time></trkpt><trkpt lat="42.05520254371485" lon="3.0448852895485854"><ele>19.0</ele><time>2026-05-02T09:21:58Z</time></trkpt><trkpt lat="42.05509241210573" lon="3.044850731482578"><ele>19.0</ele><time>2026-05-02T09:22:00Z</time></trkpt><trkpt lat="42.05498234279138" lon="3.0448169030226713"><ele>19.0</ele><time>2026-05-02T09:22:02Z</time></trkpt><trkpt lat="42.05488301758179" lon="3.0447849285438116"><ele>19.0</ele><time>2026-05-02T09:22:04Z</time></trkpt><trkpt lat="42.0547955777481" lon="3.044762227406625"><ele>19.0</ele><time>2026-05-02T09:22:06Z</time></trkpt><trkpt lat="42.054661649460535" lon="3.0449541807209783"><ele>18.166666666666664</ele><time>2026-05-02T09:22:08Z</time></trkpt><trkpt lat="42.05459185205751" lon="3.044921710780378"><ele>17.333333333333332</ele><time>2026-05-02T09:22:10Z</time></trkpt><trkpt lat="42.05453267905259" lon="3.044883893866899"><ele>16.5</ele><time>2026-05-02T09:22:13Z</time></trkpt><trkpt lat="42.05447809634236" lon="3.044973030967266"><ele>15.666666666666668</ele><time>2026-05-02T09:22:16Z</time></trkpt><trkpt lat="42.05446811686945" lon="3.045105484076662"><ele>14.833333333333334</ele><time>2026-05-02T09:22:19Z</time></trkpt><trkpt lat="42.05455556567606" lon="3.045150139036651"><ele>14.0</ele><time>2026-05-02T09:22:21Z</time></trkpt><trkpt lat="42.05464660952034" lon="3.045195955107798"><ele>14.000000000000002</ele><time>2026-05-02T09:22:23Z</time></trkpt><trkpt lat="42.05471198271642" lon="3.045216853893384"><ele>14.0</ele><time>2026-05-02T09:22:24Z</time></trkpt><trkpt lat="42.054774968436625" lon="3.0452411883276502"><ele>14.0</ele><time>2026-05-02T09:22:25Z</time></trkpt><trkpt lat="42.0548947561881" lon="3.0452745580062133"><ele>14.0</ele><time>2026-05-02T09:22:27Z</time></trkpt><trkpt lat="42.05496366809578" lon="3.04530616874558"><ele>14.000000000000002</ele><time>2026-05-02T09:22:28Z</time></trkpt><trkpt lat="42.05503461009573" lon="3.0453388883205195"><ele>14.0</ele><time>2026-05-02T09:22:29Z</time></trkpt><trkpt lat="42.05509716610635" lon="3.0453685092005993"><ele>14.666666666666668</ele><time>2026-05-02T09:22:30Z</time></trkpt><trkpt lat="42.05516236242427" lon="3.045399380315832"><ele>15.333333333333334</ele><time>2026-05-02T09:22:31Z</time></trkpt><trkpt lat="42.055233321037626" lon="3.0454333673211873"><ele>16.0</ele><time>2026-05-02T09:22:32Z</time></trkpt><trkpt lat="42.05530368763925" lon="3.0454675904139505"><ele>16.666666666666668</ele><time>2026-05-02T09:22:33Z</time></trkpt><trkpt lat="42.05537624360555" lon="3.0455028783066953"><ele>17.333333333333332</ele><time>2026-05-02T09:22:34Z</time></trkpt><trkpt lat="42.055451193028574" lon="3.045539330315553"><ele>18.0</ele><time>2026-05-02T09:22:35Z</time></trkpt><trkpt lat="42.055523955972944" lon="3.045574718880921"><ele>18.000000000000004</ele><time>2026-05-02T09:22:36Z</time></trkpt><trkpt lat="42.055592403784274" lon="3.0456080087889212"><ele>18.0</ele><time>2026-05-02T09:22:37Z</time></trkpt><trkpt lat="42.05566158845889" lon="3.045641657014884"><ele>18.0</ele><time>2026-05-02T09:22:38Z</time></trkpt><trkpt lat="42.05572647979952" lon="3.045673325105336"><ele>18.0</ele><time>2026-05-02T09:22:39Z</time></trkpt><trkpt lat="42.05578997854563" lon="3.0457044174537087"><ele>18.0</ele><time>2026-05-02T09:22:40Z</time></trkpt><trkpt lat="42.05585282048807" lon="3.045735188198076"><ele>18.000000000000004</ele><time>2026-05-02T09:22:41Z</time></trkpt><trkpt lat="42.05590757657335" lon="3.045784738652907"><ele>18.0</ele><time>2026-05-02T09:22:42Z</time></trkpt><trkpt lat="42.05602033943896" lon="3.045817214370897"><ele>17.6</ele><time>2026-05-02T09:22:44Z</time></trkpt><trkpt lat="42.05608766639165" lon="3.04586778063362"><ele>17.200000000000003</ele><time>2026-05-02T09:22:47Z</time></trkpt><trkpt lat="42.056032623927244" lon="3.0460811240826184"><ele>16.8</ele><time>2026-05-02T09:22:48Z</time></trkpt><trkpt lat="42.05598904242219" lon="3.0462263426592617"><ele>16.400000000000002</ele><time>2026-05-02T09:22:50Z</time></trkpt><trkpt lat="42.05596390263511" lon="3.046308571334667"><ele>16.0</ele><time>2026-05-02T09:22:51Z</time></trkpt><trkpt lat="42.0559384434511" lon="3.046395604086729"><ele>15.999999999999998</ele><time>2026-05-02T09:22:52Z</time></trkpt><trkpt lat="42.055915411531366" lon="3.046488352573515"><ele>16.0</ele><time>2026-05-02T09:22:53Z</time></trkpt><trkpt lat="42.055892869093746" lon="3.0465844022877495"><ele>16.0</ele><time>2026-05-02T09:22:54Z</time></trkpt><trkpt lat="42.05587414887669" lon="3.0466851111688924"><ele>16.0</ele><time>2026-05-02T09:22:55Z</time></trkpt><trkpt lat="42.055847209818" lon="3.04679093757001"><ele>15.999999999999998</ele><time>2026-05-02T09:22:56Z</time></trkpt><trkpt lat="42.055820464417216" lon="3.0468938094962983"><ele>16.0</ele><time>2026-05-02T09:22:57Z</time></trkpt><trkpt lat="42.055794959592255" lon="3.0469933765826682"><ele>15.999999999999998</ele><time>2026-05-02T09:22:58Z</time></trkpt><trkpt lat="42.05577692030135" lon="3.0470955794494246"><ele>16.0</ele><time>2026-05-02T09:22:59Z</time></trkpt><trkpt lat="42.055760749374514" lon="3.0471993497606666"><ele>16.0</ele><time>2026-05-02T09:23:00Z</time></trkpt><trkpt lat="42.055743007167735" lon="3.0472985811157574"><ele>16.0</ele><time>2026-05-02T09:23:01Z</time></trkpt><trkpt lat="42.05572351931212" lon="3.0473925974908003"><ele>15.999999999999998</ele><time>2026-05-02T09:23:02Z</time></trkpt><trkpt lat="42.05570510652859" lon="3.047488453559624"><ele>16.0</ele><time>2026-05-02T09:23:03Z</time></trkpt><trkpt lat="42.05568538566523" lon="3.0475842922974867"><ele>15.833333333333332</ele><time>2026-05-02T09:23:04Z</time></trkpt><trkpt lat="42.0556606621658" lon="3.047682187155563"><ele>15.666666666666666</ele><time>2026-05-02T09:23:05Z</time></trkpt><trkpt lat="42.05563960831075" lon="3.047776066929999"><ele>15.5</ele><time>2026-05-02T09:23:06Z</time></trkpt><trkpt lat="42.055616822959415" lon="3.047866324835184"><ele>15.333333333333332</ele><time>2026-05-02T09:23:07Z</time></trkpt><trkpt lat="42.05559639118652" lon="3.047952244550616"><ele>15.166666666666666</ele><time>2026-05-02T09:23:08Z</time></trkpt><trkpt lat="42.05556703129096" lon="3.04808646421863"><ele>15.0</ele><time>2026-05-02T09:23:10Z</time></trkpt><trkpt lat="42.05560294754217" lon="3.048185681151232"><ele>15.0</ele><time>2026-05-02T09:23:12Z</time></trkpt><trkpt lat="42.055687918054225" lon="3.048227991211691"><ele>15.0</ele><time>2026-05-02T09:23:14Z</time></trkpt><trkpt lat="42.055800384571086" lon="3.0482407771976434"><ele>15.0</ele><time>2026-05-02T09:23:16Z</time></trkpt><trkpt lat="42.05586351955627" lon="3.0482539649123255"><ele>15.0</ele><time>2026-05-02T09:23:17Z</time></trkpt><trkpt lat="42.05598379981396" lon="3.0482952140677506"><ele>15.0</ele><time>2026-05-02T09:23:19Z</time></trkpt><trkpt lat="42.056048242132384" lon="3.0483135742058605"><ele>14.833333333333334</ele><time>2026-05-02T09:23:20Z</time></trkpt><trkpt lat="42.05611372982487" lon="3.048334484336126"><ele>14.666666666666668</ele><time>2026-05-02T09:23:21Z</time></trkpt><trkpt lat="42.056176414822055" lon="3.0483528076931785"><ele>14.5</ele><time>2026-05-02T09:23:22Z</time></trkpt><trkpt lat="42.056237786801134" lon="3.0483729936381057"><ele>14.333333333333334</ele><time>2026-05-02T09:23:23Z</time></trkpt><trkpt lat="42.05634100553678" lon="3.0484186432402773"><ele>14.166666666666668</ele><time>2026-05-02T09:23:24.999Z</time></trkpt><trkpt lat="42.05638221486512" lon="3.0485238553254472"><ele>14.0</ele><time>2026-05-02T09:23:26.999Z</time></trkpt><trkpt lat="42.056352722454925" lon="3.04867708508589"><ele>14.000000000000002</ele><time>2026-05-02T09:23:28.999Z</time></trkpt><trkpt lat="42.05631633184974" lon="3.048839899636494"><ele>14.0</ele><time>2026-05-02T09:23:30.999Z</time></trkpt><trkpt lat="42.05630100144745" lon="3.0489297910930864"><ele>14.0</ele><time>2026-05-02T09:23:31.999Z</time></trkpt><trkpt lat="42.05628810793873" lon="3.049019222612173"><ele>14.0</ele><time>2026-05-02T09:23:32.999Z</time></trkpt><trkpt lat="42.05627278703605" lon="3.049111168268124"><ele>14.000000000000002</ele><time>2026-05-02T09:23:33.999Z</time></trkpt><trkpt lat="42.05625518540665" lon="3.049197015687705"><ele>14.0</ele><time>2026-05-02T09:23:34.999Z</time></trkpt><trkpt lat="42.05624330002519" lon="3.049286109548125"><ele>14.000000000000002</ele><time>2026-05-02T09:23:35.999Z</time></trkpt><trkpt lat="42.05623670665057" lon="3.0493742576665612"><ele>14.0</ele><time>2026-05-02T09:23:36.999Z</time></trkpt><trkpt lat="42.05623903705258" lon="3.0494672977404855"><ele>14.0</ele><time>2026-05-02T09:23:37.999Z</time></trkpt><trkpt lat="42.05624504603542" lon="3.0495610195566494"><ele>14.0</ele><time>2026-05-02T09:23:38.999Z</time></trkpt><trkpt lat="42.056248948282054" lon="3.04964974465454"><ele>14.000000000000002</ele><time>2026-05-02T09:23:39.999Z</time></trkpt><trkpt lat="42.05625457933447" lon="3.049735828821772"><ele>14.0</ele><time>2026-05-02T09:23:40.999Z</time></trkpt><trkpt lat="42.05626767088742" lon="3.049898225926269"><ele>13.857142857142858</ele><time>2026-05-02T09:23:42.999Z</time></trkpt><trkpt lat="42.05627443741521" lon="3.0500546173607863"><ele>13.714285714285715</ele><time>2026-05-02T09:23:44.999Z</time></trkpt><trkpt lat="42.05627996021129" lon="3.0501423079662344"><ele>13.571428571428571</ele><time>2026-05-02T09:23:45.999Z</time></trkpt><trkpt lat="42.056286181525884" lon="3.050230751135645"><ele>13.428571428571429</ele><time>2026-05-02T09:23:46.999Z</time></trkpt><trkpt lat="42.05628854613115" lon="3.050319958739737"><ele>13.285714285714286</ele><time>2026-05-02T09:23:47.999Z</time></trkpt><trkpt lat="42.05629222929512" lon="3.0504079893970704"><ele>13.142857142857142</ele><time>2026-05-02T09:23:48.999Z</time></trkpt><trkpt lat="42.056293582817936" lon="3.0504931722250155"><ele>13.0</ele><time>2026-05-02T09:23:49.999Z</time></trkpt><trkpt lat="42.05629346386497" lon="3.0506538337029"><ele>12.999999999999998</ele><time>2026-05-02T09:23:51.999Z</time></trkpt><trkpt lat="42.05628511426287" lon="3.05080748572968"><ele>13.0</ele><time>2026-05-02T09:23:53.999Z</time></trkpt><trkpt lat="42.05628883802172" lon="3.050923942192767"><ele>13.0</ele><time>2026-05-02T09:23:55.999Z</time></trkpt><trkpt lat="42.05635077271003" lon="3.0509708054917275"><ele>13.0</ele><time>2026-05-02T09:23:59.999Z</time></trkpt><trkpt lat="42.05639425174987" lon="3.0509077299554654"><ele>12.999999999999998</ele><time>2026-05-02T09:24:03Z</time></trkpt><trkpt lat="42.05646931441959" lon="3.0509082100385303"><ele>13.0</ele><time>2026-05-02T09:24:06Z</time></trkpt><trkpt lat="42.056467382331384" lon="3.051023856386843"><ele>12.999999999999998</ele><time>2026-05-02T09:24:08Z</time></trkpt><trkpt lat="42.056404524829965" lon="3.0510631420088146"><ele>13.0</ele><time>2026-05-02T09:24:09Z</time></trkpt><trkpt lat="42.05636939899251" lon="3.051195450184621"><ele>13.0</ele><time>2026-05-02T09:24:11Z</time></trkpt><trkpt lat="42.056327895482426" lon="3.0513517808917388"><ele>13.0</ele><time>2026-05-02T09:24:13Z</time></trkpt><trkpt lat="42.056305608365726" lon="3.0514357294489125"><ele>12.999999999999998</ele><time>2026-05-02T09:24:14Z</time></trkpt><trkpt lat="42.05628021670706" lon="3.051531371787609"><ele>13.0</ele><time>2026-05-02T09:24:15Z</time></trkpt><trkpt lat="42.05625418052928" lon="3.0516294419362953"><ele>12.999999999999998</ele><time>2026-05-02T09:24:16Z</time></trkpt><trkpt lat="42.056254654247276" lon="3.0517388295733854"><ele>13.0</ele><time>2026-05-02T09:24:17Z</time></trkpt><trkpt lat="42.05621910812675" lon="3.051830217500829"><ele>13.0</ele><time>2026-05-02T09:24:18Z</time></trkpt><trkpt lat="42.05619092030239" lon="3.051927897842594"><ele>13.0</ele><time>2026-05-02T09:24:19Z</time></trkpt><trkpt lat="42.05616811086502" lon="3.052036047237691"><ele>12.999999999999998</ele><time>2026-05-02T09:24:20Z</time></trkpt><trkpt lat="42.0561509611088" lon="3.052141906728353"><ele>13.0</ele><time>2026-05-02T09:24:21Z</time></trkpt><trkpt lat="42.05612840591963" lon="3.052240202394813"><ele>12.999999999999998</ele><time>2026-05-02T09:24:22Z</time></trkpt><trkpt lat="42.05609911681666" lon="3.0523376514134033"><ele>13.0</ele><time>2026-05-02T09:24:23Z</time></trkpt><trkpt lat="42.0560719891153" lon="3.0524382222263786"><ele>13.0</ele><time>2026-05-02T09:24:24Z</time></trkpt><trkpt lat="42.05605721954597" lon="3.0525467223331932"><ele>13.0</ele><time>2026-05-02T09:24:25Z</time></trkpt><trkpt lat="42.056040736674575" lon="3.0526571974112797"><ele>12.999999999999998</ele><time>2026-05-02T09:24:26Z</time></trkpt><trkpt lat="42.05598049970469" lon="3.0527572961189002"><ele>13.0</ele><time>2026-05-02T09:24:27Z</time></trkpt><trkpt lat="42.05598719264765" lon="3.052883617144576"><ele>12.8</ele><time>2026-05-02T09:24:28Z</time></trkpt><trkpt lat="42.05594642328524" lon="3.0529947745561743"><ele>12.600000000000001</ele><time>2026-05-02T09:24:29Z</time></trkpt><trkpt lat="42.055914238430354" lon="3.05310750983074"><ele>12.399999999999999</ele><time>2026-05-02T09:24:30Z</time></trkpt><trkpt lat="42.05589604773139" lon="3.05322703549155"><ele>12.2</ele><time>2026-05-02T09:24:31Z</time></trkpt><trkpt lat="42.05587113544706" lon="3.0533457356167544"><ele>12.0</ele><time>2026-05-02T09:24:32Z</time></trkpt><trkpt lat="42.0558432355641" lon="3.0534658642337313"><ele>12.0</ele><time>2026-05-02T09:24:33Z</time></trkpt><trkpt lat="42.05581677878369" lon="3.053584569818948"><ele>12.0</ele><time>2026-05-02T09:24:34Z</time></trkpt><trkpt lat="42.05578834369508" lon="3.05370709482531"><ele>12.0</ele><time>2026-05-02T09:24:35Z</time></trkpt><trkpt lat="42.05576364383977" lon="3.0538303835923735"><ele>12.0</ele><time>2026-05-02T09:24:36Z</time></trkpt><trkpt lat="42.05573627787401" lon="3.053952042499606"><ele>12.0</ele><time>2026-05-02T09:24:37Z</time></trkpt><trkpt lat="42.055710799045826" lon="3.0540706855269155"><ele>12.333333333333334</ele><time>2026-05-02T09:24:38Z</time></trkpt><trkpt lat="42.055685688626966" lon="3.054185195690647"><ele>12.666666666666668</ele><time>2026-05-02T09:24:39Z</time></trkpt><trkpt lat="42.05566023890767" lon="3.0542944889788135"><ele>13.0</ele><time>2026-05-02T09:24:40Z</time></trkpt><trkpt lat="42.05563689222977" lon="3.054402168077783"><ele>13.333333333333334</ele><time>2026-05-02T09:24:41Z</time></trkpt><trkpt lat="42.05559776273294" lon="3.0545072425212285"><ele>13.666666666666668</ele><time>2026-05-02T09:24:42Z</time></trkpt><trkpt lat="42.05557307841001" lon="3.05461847610636"><ele>14.0</ele><time>2026-05-02T09:24:43Z</time></trkpt><trkpt lat="42.05554734292094" lon="3.054734446454596"><ele>14.000000000000002</ele><time>2026-05-02T09:24:44Z</time></trkpt><trkpt lat="42.055522784907716" lon="3.0548451107609487"><ele>14.0</ele><time>2026-05-02T09:24:45Z</time></trkpt><trkpt lat="42.05549854935292" lon="3.0549543220941975"><ele>14.0</ele><time>2026-05-02T09:24:46Z</time></trkpt><trkpt lat="42.05547436708414" lon="3.0550605275455482"><ele>14.0</ele><time>2026-05-02T09:24:47Z</time></trkpt><trkpt lat="42.05544966482047" lon="3.0551678220396896"><ele>14.000000000000002</ele><time>2026-05-02T09:24:48Z</time></trkpt><trkpt lat="42.05542472913503" lon="3.0552761302656606"><ele>14.0</ele><time>2026-05-02T09:24:49Z</time></trkpt><trkpt lat="42.055399485826534" lon="3.055385774622695"><ele>14.000000000000002</ele><time>2026-05-02T09:24:50Z</time></trkpt><trkpt lat="42.05537385656191" lon="3.055498485051661"><ele>14.0</ele><time>2026-05-02T09:24:51Z</time></trkpt><trkpt lat="42.0553483013566" lon="3.0556117150456243"><ele>14.0</ele><time>2026-05-02T09:24:52Z</time></trkpt><trkpt lat="42.055323973054335" lon="3.055728895994304"><ele>14.0</ele><time>2026-05-02T09:24:53Z</time></trkpt><trkpt lat="42.05530252706969" lon="3.055840112208305"><ele>14.000000000000002</ele><time>2026-05-02T09:24:54Z</time></trkpt><trkpt lat="42.05528156682883" lon="3.055955282675586"><ele>14.0</ele><time>2026-05-02T09:24:55Z</time></trkpt><trkpt lat="42.05526102729657" lon="3.0560704482118037"><ele>14.000000000000002</ele><time>2026-05-02T09:24:56Z</time></trkpt><trkpt lat="42.05523981049209" lon="3.0561894113906405"><ele>14.0</ele><time>2026-05-02T09:24:57Z</time></trkpt><trkpt lat="42.05521825151594" lon="3.0563039389672"><ele>14.0</ele><time>2026-05-02T09:24:58Z</time></trkpt><trkpt lat="42.05519514904694" lon="3.0564190853631903"><ele>14.0</ele><time>2026-05-02T09:24:59Z</time></trkpt><trkpt lat="42.05516966116261" lon="3.056535685066025"><ele>14.000000000000002</ele><time>2026-05-02T09:25:00Z</time></trkpt><trkpt lat="42.05514330817919" lon="3.056648824713788"><ele>14.0</ele><time>2026-05-02T09:25:01Z</time></trkpt><trkpt lat="42.05511747588837" lon="3.0567597290928545"><ele>14.000000000000002</ele><time>2026-05-02T09:25:02Z</time></trkpt><trkpt lat="42.05509244245164" lon="3.056867203573546"><ele>14.0</ele><time>2026-05-02T09:25:03Z</time></trkpt><trkpt lat="42.055068788477215" lon="3.0569695699813617"><ele>14.0</ele><time>2026-05-02T09:25:04Z</time></trkpt><trkpt lat="42.05504417487925" lon="3.0570799196608505"><ele>14.0</ele><time>2026-05-02T09:25:05Z</time></trkpt><trkpt lat="42.05502164387536" lon="3.057192293385875"><ele>14.000000000000002</ele><time>2026-05-02T09:25:06Z</time></trkpt><trkpt lat="42.05500051313564" lon="3.057305559725496"><ele>14.0</ele><time>2026-05-02T09:25:07Z</time></trkpt><trkpt lat="42.05497892785634" lon="3.057421262549643"><ele>14.166666666666668</ele><time>2026-05-02T09:25:08Z</time></trkpt><trkpt lat="42.05495682774599" lon="3.0575333388397956"><ele>14.333333333333334</ele><time>2026-05-02T09:25:09Z</time></trkpt><trkpt lat="42.05493527130743" lon="3.0576427529604726"><ele>14.5</ele><time>2026-05-02T09:25:10Z</time></trkpt><trkpt lat="42.054929853558775" lon="3.0577539256791617"><ele>14.666666666666668</ele><time>2026-05-02T09:25:11Z</time></trkpt><trkpt lat="42.054892482552" lon="3.057850570031915"><ele>14.833333333333334</ele><time>2026-05-02T09:25:12Z</time></trkpt><trkpt lat="42.0548710518845" lon="3.057952666839585"><ele>15.0</ele><time>2026-05-02T09:25:13Z</time></trkpt><trkpt lat="42.05484306131191" lon="3.0580560346975147"><ele>14.666666666666666</ele><time>2026-05-02T09:25:14Z</time></trkpt><trkpt lat="42.054814312644645" lon="3.0581603858652255"><ele>14.333333333333332</ele><time>2026-05-02T09:25:15Z</time></trkpt><trkpt lat="42.05478001697409" lon="3.058265104241791"><ele>14.0</ele><time>2026-05-02T09:25:16Z</time></trkpt><trkpt lat="42.05473910701434" lon="3.0583594907531606"><ele>13.666666666666666</ele><time>2026-05-02T09:25:17Z</time></trkpt><trkpt lat="42.05469393334232" lon="3.058442104934173"><ele>13.333333333333332</ele><time>2026-05-02T09:25:18Z</time></trkpt><trkpt lat="42.05464633601779" lon="3.0585150089123836"><ele>13.0</ele><time>2026-05-02T09:25:19Z</time></trkpt><trkpt lat="42.05459032950163" lon="3.0585908298124185"><ele>12.999999999999998</ele><time>2026-05-02T09:25:20Z</time></trkpt><trkpt lat="42.05453394377737" lon="3.058660852202942"><ele>13.0</ele><time>2026-05-02T09:25:21Z</time></trkpt><trkpt lat="42.054474470034734" lon="3.0587327388139065"><ele>13.0</ele><time>2026-05-02T09:25:22Z</time></trkpt><trkpt lat="42.05441459553866" lon="3.0588051097975786"><ele>13.0</ele><time>2026-05-02T09:25:23Z</time></trkpt><trkpt lat="42.05435247160546" lon="3.0588815368323843"><ele>12.999999999999998</ele><time>2026-05-02T09:25:24Z</time></trkpt><trkpt lat="42.05429212102615" lon="3.0589587063614028"><ele>13.0</ele><time>2026-05-02T09:25:25Z</time></trkpt><trkpt lat="42.0542312759323" lon="3.059037769790062"><ele>12.999999999999998</ele><time>2026-05-02T09:25:26Z</time></trkpt><trkpt lat="42.05417193664231" lon="3.0591154089734647"><ele>13.0</ele><time>2026-05-02T09:25:27Z</time></trkpt><trkpt lat="42.05411199704703" lon="3.059193833590092"><ele>13.0</ele><time>2026-05-02T09:25:27.999Z</time></trkpt><trkpt lat="42.054049680179084" lon="3.059275368702088"><ele>13.0</ele><time>2026-05-02T09:25:28.999Z</time></trkpt><trkpt lat="42.053985633416445" lon="3.0593591671322313"><ele>12.999999999999998</ele><time>2026-05-02T09:25:29.999Z</time></trkpt><trkpt lat="42.05392381868808" lon="3.0594400451043"><ele>13.0</ele><time>2026-05-02T09:25:30.999Z</time></trkpt><trkpt lat="42.053860089175856" lon="3.059523428484771"><ele>13.2</ele><time>2026-05-02T09:25:31.999Z</time></trkpt><trkpt lat="42.05380043204571" lon="3.0596014835645793"><ele>13.4</ele><time>2026-05-02T09:25:32.999Z</time></trkpt><trkpt lat="42.05374294933806" lon="3.0596766935495836"><ele>13.599999999999998</ele><time>2026-05-02T09:25:33.999Z</time></trkpt><trkpt lat="42.05369245329656" lon="3.059744240735874"><ele>13.799999999999999</ele><time>2026-05-02T09:25:34.999Z</time></trkpt><trkpt lat="42.05360931726595" lon="3.0598468875412306"><ele>14.0</ele><time>2026-05-02T09:25:36.999Z</time></trkpt><trkpt lat="42.053460279446895" lon="3.059831592489791"><ele>13.666666666666668</ele><time>2026-05-02T09:25:39.999Z</time></trkpt><trkpt lat="42.053513786290026" lon="3.059974434022734"><ele>13.333333333333332</ele><time>2026-05-02T09:25:40.999Z</time></trkpt><trkpt lat="42.053475860347476" lon="3.06006946320732"><ele>13.0</ele><time>2026-05-02T09:25:42.999Z</time></trkpt><trkpt lat="42.05321383073313" lon="3.059922883043849"><ele>13.142857142857142</ele><time>2026-05-02T09:25:43.999Z</time></trkpt><trkpt lat="42.053148057502646" lon="3.059945768551773"><ele>13.285714285714286</ele><time>2026-05-02T09:25:44.999Z</time></trkpt><trkpt lat="42.05307962446545" lon="3.059968871010228"><ele>13.428571428571429</ele><time>2026-05-02T09:25:45.999Z</time></trkpt><trkpt lat="42.05300964341807" lon="3.0599938906375725"><ele>13.571428571428571</ele><time>2026-05-02T09:25:46.999Z</time></trkpt><trkpt lat="42.05293763536249" lon="3.0600151880542166"><ele>13.714285714285715</ele><time>2026-05-02T09:25:47.999Z</time></trkpt><trkpt lat="42.05286602797373" lon="3.06004036755122"><ele>13.857142857142858</ele><time>2026-05-02T09:25:48.999Z</time></trkpt><trkpt lat="42.052791999698705" lon="3.0600615331463983"><ele>14.0</ele><time>2026-05-02T09:25:49.999Z</time></trkpt><trkpt lat="42.052720299603855" lon="3.060084819458411"><ele>14.000000000000002</ele><time>2026-05-02T09:25:50.999Z</time></trkpt><trkpt lat="42.05264775448959" lon="3.060117165249061"><ele>14.0</ele><time>2026-05-02T09:25:51.999Z</time></trkpt><trkpt lat="42.05257723040513" lon="3.0601525960817595"><ele>14.0</ele><time>2026-05-02T09:25:52.999Z</time></trkpt><trkpt lat="42.05250904542773" lon="3.060202658363877"><ele>14.0</ele><time>2026-05-02T09:25:53.999Z</time></trkpt><trkpt lat="42.05244281745646" lon="3.0602556289461984"><ele>14.000000000000002</ele><time>2026-05-02T09:25:54.999Z</time></trkpt><trkpt lat="42.05237489548429" lon="3.0603227596436797"><ele>14.0</ele><time>2026-05-02T09:25:55.999Z</time></trkpt><trkpt lat="42.05231655325661" lon="3.0603960813445226"><ele>14.333333333333334</ele><time>2026-05-02T09:25:56.999Z</time></trkpt><trkpt lat="42.052258598690294" lon="3.0604718367912116"><ele>14.666666666666668</ele><time>2026-05-02T09:25:57.999Z</time></trkpt><trkpt lat="42.05220450864599" lon="3.0605461192518737"><ele>15.0</ele><time>2026-05-02T09:25:58.999Z</time></trkpt><trkpt lat="42.052148603663426" lon="3.060610922639021"><ele>15.333333333333332</ele><time>2026-05-02T09:25:59.999Z</time></trkpt><trkpt lat="42.05209304590095" lon="3.0606751183440783"><ele>15.666666666666666</ele><time>2026-05-02T09:26:00.999Z</time></trkpt><trkpt lat="42.052038316759095" lon="3.060741177786727"><ele>16.0</ele><time>2026-05-02T09:26:01.999Z</time></trkpt><trkpt lat="42.05198285815787" lon="3.060812456725804"><ele>15.999999999999998</ele><time>2026-05-02T09:26:02.999Z</time></trkpt><trkpt lat="42.051924889702306" lon="3.0608831423920333"><ele>16.0</ele><time>2026-05-02T09:26:03.999Z</time></trkpt><trkpt lat="42.05187080648055" lon="3.060950468649863"><ele>16.0</ele><time>2026-05-02T09:26:04.999Z</time></trkpt><trkpt lat="42.05180963632458" lon="3.061020583660291"><ele>16.0</ele><time>2026-05-02T09:26:05.999Z</time></trkpt><trkpt lat="42.05175219595886" lon="3.0610906737850847"><ele>15.999999999999998</ele><time>2026-05-02T09:26:07Z</time></trkpt><trkpt lat="42.051692105503435" lon="3.061159603527753"><ele>16.0</ele><time>2026-05-02T09:26:08Z</time></trkpt><trkpt lat="42.05162879436418" lon="3.0612255662834595"><ele>16.166666666666664</ele><time>2026-05-02T09:26:09Z</time></trkpt><trkpt lat="42.05156178117547" lon="3.061289982734908"><ele>16.333333333333332</ele><time>2026-05-02T09:26:10Z</time></trkpt><trkpt lat="42.051494221723296" lon="3.0613531595861625"><ele>16.5</ele><time>2026-05-02T09:26:11Z</time></trkpt><trkpt lat="42.051427891878305" lon="3.06141509105081"><ele>16.666666666666668</ele><time>2026-05-02T09:26:12Z</time></trkpt><trkpt lat="42.05136407334869" lon="3.0614794641951373"><ele>16.833333333333336</ele><time>2026-05-02T09:26:13Z</time></trkpt><trkpt lat="42.05131451883391" lon="3.061554132578252"><ele>17.0</ele><time>2026-05-02T09:26:14Z</time></trkpt><trkpt lat="42.05126882636612" lon="3.061639930858727"><ele>16.333333333333336</ele><time>2026-05-02T09:26:15Z</time></trkpt><trkpt lat="42.05122841739084" lon="3.0617270310019484"><ele>15.666666666666668</ele><time>2026-05-02T09:26:16Z</time></trkpt><trkpt lat="42.051191191377455" lon="3.0618110076092515"><ele>15.0</ele><time>2026-05-02T09:26:17Z</time></trkpt><trkpt lat="42.05115305863101" lon="3.0619050214368935"><ele>14.333333333333332</ele><time>2026-05-02T09:26:18Z</time></trkpt><trkpt lat="42.05111644951979" lon="3.06200140939043"><ele>13.666666666666666</ele><time>2026-05-02T09:26:19Z</time></trkpt><trkpt lat="42.051081507875104" lon="3.0620982894505326"><ele>13.0</ele><time>2026-05-02T09:26:20Z</time></trkpt><trkpt lat="42.05104778560914" lon="3.0621919420773493"><ele>12.999999999999998</ele><time>2026-05-02T09:26:21Z</time></trkpt><trkpt lat="42.051002477807984" lon="3.0622838047668273"><ele>13.0</ele><time>2026-05-02T09:26:22Z</time></trkpt><trkpt lat="42.05093717989835" lon="3.0623575714317397"><ele>13.0</ele><time>2026-05-02T09:26:23Z</time></trkpt><trkpt lat="42.05086349140306" lon="3.0624165793149394"><ele>13.0</ele><time>2026-05-02T09:26:24Z</time></trkpt><trkpt lat="42.05079362735298" lon="3.0624720851057545"><ele>12.999999999999998</ele><time>2026-05-02T09:26:25Z</time></trkpt><trkpt lat="42.050721778178435" lon="3.0625298868969844"><ele>13.0</ele><time>2026-05-02T09:26:26Z</time></trkpt><trkpt lat="42.0506458915888" lon="3.0625860482365317"><ele>12.499999999999998</ele><time>2026-05-02T09:26:27Z</time></trkpt><trkpt lat="42.050571526590396" lon="3.062642907630733"><ele>12.0</ele><time>2026-05-02T09:26:28Z</time></trkpt><trkpt lat="42.05049778709051" lon="3.0627024570490806"><ele>11.5</ele><time>2026-05-02T09:26:29Z</time></trkpt><trkpt lat="42.05042337758911" lon="3.062764723530347"><ele>11.0</ele><time>2026-05-02T09:26:30Z</time></trkpt><trkpt lat="42.050349946824625" lon="3.0628267439966197"><ele>10.5</ele><time>2026-05-02T09:26:31Z</time></trkpt><trkpt lat="42.05027371926277" lon="3.0628883182857214"><ele>10.0</ele><time>2026-05-02T09:26:32Z</time></trkpt><trkpt lat="42.050198288633794" lon="3.0629537382547"><ele>10.0</ele><time>2026-05-02T09:26:33Z</time></trkpt><trkpt lat="42.05011803259936" lon="3.0630158369780633"><ele>10.0</ele><time>2026-05-02T09:26:34Z</time></trkpt><trkpt lat="42.050037275234715" lon="3.063079370991401"><ele>10.0</ele><time>2026-05-02T09:26:35Z</time></trkpt><trkpt lat="42.04995751293794" lon="3.0631489973252823"><ele>10.0</ele><time>2026-05-02T09:26:36Z</time></trkpt><trkpt lat="42.04987617286914" lon="3.0632145694442325"><ele>10.0</ele><time>2026-05-02T09:26:37Z</time></trkpt><trkpt lat="42.04979588497823" lon="3.0632825769776484"><ele>10.166666666666668</ele><time>2026-05-02T09:26:38Z</time></trkpt><trkpt lat="42.04971966192712" lon="3.063353044903288"><ele>10.333333333333334</ele><time>2026-05-02T09:26:39Z</time></trkpt><trkpt lat="42.049643338624925" lon="3.063413695244597"><ele>10.5</ele><time>2026-05-02T09:26:40Z</time></trkpt><trkpt lat="42.049567407768414" lon="3.0634732598683097"><ele>10.666666666666666</ele><time>2026-05-02T09:26:41Z</time></trkpt><trkpt lat="42.049496527710936" lon="3.063527741941871"><ele>10.833333333333332</ele><time>2026-05-02T09:26:42Z</time></trkpt><trkpt lat="42.04942328787553" lon="3.0635839267263507"><ele>11.0</ele><time>2026-05-02T09:26:43Z</time></trkpt><trkpt lat="42.04935720458522" lon="3.0636441497275295"><ele>11.0</ele><time>2026-05-02T09:26:44Z</time></trkpt><trkpt lat="42.04928513613852" lon="3.0637044456145355"><ele>11.0</ele><time>2026-05-02T09:26:45Z</time></trkpt><trkpt lat="42.04920937973734" lon="3.0637596750929776"><ele>11.0</ele><time>2026-05-02T09:26:46Z</time></trkpt><trkpt lat="42.04913481609623" lon="3.063813825133979"><ele>11.0</ele><time>2026-05-02T09:26:47Z</time></trkpt><trkpt lat="42.049057696037025" lon="3.0638672230527306"><ele>11.0</ele><time>2026-05-02T09:26:48Z</time></trkpt><trkpt lat="42.048983306655984" lon="3.063920731819324"><ele>11.0</ele><time>2026-05-02T09:26:49Z</time></trkpt><trkpt lat="42.04890506748341" lon="3.063968533670893"><ele>11.833333333333332</ele><time>2026-05-02T09:26:50Z</time></trkpt><trkpt lat="42.0488191036411" lon="3.064010316354237"><ele>12.666666666666666</ele><time>2026-05-02T09:26:51Z</time></trkpt><trkpt lat="42.048734245672605" lon="3.0640443009430114"><ele>13.5</ele><time>2026-05-02T09:26:52Z</time></trkpt><trkpt lat="42.04864599099376" lon="3.0640739481091757"><ele>14.333333333333332</ele><time>2026-05-02T09:26:53Z</time></trkpt><trkpt lat="42.04856281130987" lon="3.064107389315568"><ele>15.166666666666666</ele><time>2026-05-02T09:26:54Z</time></trkpt><trkpt lat="42.048478135032624" lon="3.064139711573512"><ele>16.0</ele><time>2026-05-02T09:26:55Z</time></trkpt><trkpt lat="42.048396369066545" lon="3.064165154578411"><ele>15.999999999999998</ele><time>2026-05-02T09:26:56Z</time></trkpt><trkpt lat="42.04831227025885" lon="3.0641906581988234"><ele>16.0</ele><time>2026-05-02T09:26:57Z</time></trkpt><trkpt lat="42.04822943323918" lon="3.0642141234181186"><ele>16.0</ele><time>2026-05-02T09:26:58Z</time></trkpt><trkpt lat="42.0481478097434" lon="3.0642365376572225"><ele>16.0</ele><time>2026-05-02T09:26:59Z</time></trkpt><trkpt lat="42.048063896016636" lon="3.0642630689180357"><ele>15.999999999999998</ele><time>2026-05-02T09:27:00Z</time></trkpt><trkpt lat="42.04798670380515" lon="3.0642916539645357"><ele>16.0</ele><time>2026-05-02T09:27:01Z</time></trkpt><trkpt lat="42.04790012167954" lon="3.0643139831192"><ele>16.333333333333332</ele><time>2026-05-02T09:27:02Z</time></trkpt><trkpt lat="42.047821909376275" lon="3.0643426158266927"><ele>16.666666666666664</ele><time>2026-05-02T09:27:03Z</time></trkpt><trkpt lat="42.0477420052782" lon="3.064364525391272"><ele>17.0</ele><time>2026-05-02T09:27:04Z</time></trkpt><trkpt lat="42.04766136417014" lon="3.0643825706369077"><ele>17.333333333333332</ele><time>2026-05-02T09:27:05Z</time></trkpt><trkpt lat="42.04758150261684" lon="3.06440052311698"><ele>17.666666666666668</ele><time>2026-05-02T09:27:06Z</time></trkpt><trkpt lat="42.04749245652977" lon="3.0644219099252528"><ele>18.0</ele><time>2026-05-02T09:27:07Z</time></trkpt><trkpt lat="42.04740447178386" lon="3.0644379152855636"><ele>17.2</ele><time>2026-05-02T09:27:08Z</time></trkpt><trkpt lat="42.047313863387494" lon="3.0644547537222824"><ele>16.4</ele><time>2026-05-02T09:27:09Z</time></trkpt><trkpt lat="42.047222662210956" lon="3.0644670865192603"><ele>15.599999999999998</ele><time>2026-05-02T09:27:10Z</time></trkpt><trkpt lat="42.04713255901225" lon="3.0644836013260317"><ele>14.799999999999999</ele><time>2026-05-02T09:27:11Z</time></trkpt><trkpt lat="42.04704558106953" lon="3.064495100883435"><ele>14.0</ele><time>2026-05-02T09:27:12Z</time></trkpt><trkpt lat="42.046957296366315" lon="3.0645046888287784"><ele>14.000000000000002</ele><time>2026-05-02T09:27:13Z</time></trkpt><trkpt lat="42.046873988042485" lon="3.0645128436159466"><ele>14.0</ele><time>2026-05-02T09:27:14Z</time></trkpt><trkpt lat="42.04679200215674" lon="3.064517954782251"><ele>14.0</ele><time>2026-05-02T09:27:15Z</time></trkpt><trkpt lat="42.04670965532572" lon="3.0645258755370706"><ele>14.0</ele><time>2026-05-02T09:27:16Z</time></trkpt><trkpt lat="42.04662902292591" lon="3.0645347806912615"><ele>14.000000000000002</ele><time>2026-05-02T09:27:17Z</time></trkpt><trkpt lat="42.046552676484566" lon="3.0645450274895367"><ele>14.0</ele><time>2026-05-02T09:27:18Z</time></trkpt><trkpt lat="42.04647958375271" lon="3.064553887467505"><ele>14.666666666666668</ele><time>2026-05-02T09:27:19Z</time></trkpt><trkpt lat="42.04640850250541" lon="3.0645604780343683"><ele>15.333333333333334</ele><time>2026-05-02T09:27:20Z</time></trkpt><trkpt lat="42.04633107155774" lon="3.0645635095433796"><ele>16.0</ele><time>2026-05-02T09:27:21Z</time></trkpt><trkpt lat="42.0462523498931" lon="3.0645646769521186"><ele>16.666666666666668</ele><time>2026-05-02T09:27:22Z</time></trkpt><trkpt lat="42.046175695421546" lon="3.0645756367905195"><ele>17.333333333333332</ele><time>2026-05-02T09:27:23Z</time></trkpt><trkpt lat="42.0461018723099" lon="3.0645951205457593"><ele>18.0</ele><time>2026-05-02T09:27:24Z</time></trkpt><trkpt lat="42.046033731954466" lon="3.0646310522850526"><ele>18.0</ele><time>2026-05-02T09:27:25Z</time></trkpt><trkpt lat="42.04597424672277" lon="3.064686093155132"><ele>18.0</ele><time>2026-05-02T09:27:26Z</time></trkpt><trkpt lat="42.045929236946726" lon="3.0647633575431183"><ele>18.0</ele><time>2026-05-02T09:27:27Z</time></trkpt><trkpt lat="42.045896700000974" lon="3.064853177490703"><ele>18.0</ele><time>2026-05-02T09:27:27.999Z</time></trkpt><trkpt lat="42.04587404033371" lon="3.064954685237419"><ele>18.0</ele><time>2026-05-02T09:27:28.999Z</time></trkpt><trkpt lat="42.04585613786107" lon="3.065056851932764"><ele>18.0</ele><time>2026-05-02T09:27:29.999Z</time></trkpt><trkpt lat="42.04585962053289" lon="3.0651623020421455"><ele>18.166666666666668</ele><time>2026-05-02T09:27:30.999Z</time></trkpt><trkpt lat="42.04586949869581" lon="3.0652686651871055"><ele>18.333333333333332</ele><time>2026-05-02T09:27:31.999Z</time></trkpt><trkpt lat="42.04588238242599" lon="3.0653741844724736"><ele>18.5</ele><time>2026-05-02T09:27:32.999Z</time></trkpt><trkpt lat="42.045890204939745" lon="3.0654786745014775"><ele>18.666666666666664</ele><time>2026-05-02T09:27:33.999Z</time></trkpt><trkpt lat="42.04590222015602" lon="3.065584345662941"><ele>18.833333333333332</ele><time>2026-05-02T09:27:34.999Z</time></trkpt><trkpt lat="42.04591659859887" lon="3.0656919427441984"><ele>19.0</ele><time>2026-05-02T09:27:35.999Z</time></trkpt><trkpt lat="42.045912300988746" lon="3.0658040515592386"><ele>19.0</ele><time>2026-05-02T09:27:36.999Z</time></trkpt><trkpt lat="42.04590446358606" lon="3.0659143507718136"><ele>19.0</ele><time>2026-05-02T09:27:37.999Z</time></trkpt><trkpt lat="42.04589440112993" lon="3.0660181748515516"><ele>19.0</ele><time>2026-05-02T09:27:38.999Z</time></trkpt><trkpt lat="42.04587994135062" lon="3.066125348950689"><ele>19.0</ele><time>2026-05-02T09:27:39.999Z</time></trkpt><trkpt lat="42.04586622591958" lon="3.0662304516957164"><ele>19.0</ele><time>2026-05-02T09:27:40.999Z</time></trkpt><trkpt lat="42.045859721744165" lon="3.0663407099816737"><ele>19.0</ele><time>2026-05-02T09:27:41.999Z</time></trkpt><trkpt lat="42.04585645854805" lon="3.0664387887629827"><ele>19.0</ele><time>2026-05-02T09:27:42.999Z</time></trkpt><trkpt lat="42.04580124917641" lon="3.0665807256431217"><ele>19.0</ele><time>2026-05-02T09:27:44.999Z</time></trkpt><trkpt lat="42.0457443590157" lon="3.066621459339226"><ele>19.0</ele><time>2026-05-02T09:27:45.999Z</time></trkpt><trkpt lat="42.04566369612743" lon="3.0665856420641613"><ele>19.0</ele><time>2026-05-02T09:27:46.999Z</time></trkpt><trkpt lat="42.04555406862523" lon="3.0666520020312324"><ele>19.0</ele><time>2026-05-02T09:27:48.999Z</time></trkpt><trkpt lat="42.04549523691895" lon="3.066690848180447"><ele>19.71428571428571</ele><time>2026-05-02T09:27:49.999Z</time></trkpt><trkpt lat="42.04543200889191" lon="3.0667361099120978"><ele>20.42857142857143</ele><time>2026-05-02T09:27:50.999Z</time></trkpt><trkpt lat="42.04537283375578" lon="3.0667879137812784"><ele>21.142857142857142</ele><time>2026-05-02T09:27:51.999Z</time></trkpt><trkpt lat="42.0453109598162" lon="3.066848319132106"><ele>21.857142857142854</ele><time>2026-05-02T09:27:52.999Z</time></trkpt><trkpt lat="42.04525145314402" lon="3.066908275987833"><ele>22.57142857142857</ele><time>2026-05-02T09:27:53.999Z</time></trkpt><trkpt lat="42.04519247335937" lon="3.0669686025390956"><ele>23.285714285714285</ele><time>2026-05-02T09:27:54.999Z</time></trkpt><trkpt lat="42.04513443970977" lon="3.067027961416172"><ele>24.0</ele><time>2026-05-02T09:27:55.999Z</time></trkpt><trkpt lat="42.04507350519644" lon="3.067090287387609"><ele>24.0</ele><time>2026-05-02T09:27:56.999Z</time></trkpt><trkpt lat="42.04501011313253" lon="3.0671454674697745"><ele>24.0</ele><time>2026-05-02T09:27:57.999Z</time></trkpt><trkpt lat="42.04494721683176" lon="3.0671922771296276"><ele>24.0</ele><time>2026-05-02T09:27:58.999Z</time></trkpt><trkpt lat="42.044878342899025" lon="3.0672235865559796"><ele>24.0</ele><time>2026-05-02T09:27:59.999Z</time></trkpt><trkpt lat="42.04480797672427" lon="3.0672445826387884"><ele>24.0</ele><time>2026-05-02T09:28:00.999Z</time></trkpt><trkpt lat="42.04473267155333" lon="3.0672672159012926"><ele>24.0</ele><time>2026-05-02T09:28:01.999Z</time></trkpt><trkpt lat="42.044653841818786" lon="3.0672962619135427"><ele>23.666666666666668</ele><time>2026-05-02T09:28:02.999Z</time></trkpt><trkpt lat="42.044578821916716" lon="3.067325685194108"><ele>23.333333333333332</ele><time>2026-05-02T09:28:03.999Z</time></trkpt><trkpt lat="42.04450422613674" lon="3.0673549421885236"><ele>23.0</ele><time>2026-05-02T09:28:04.999Z</time></trkpt><trkpt lat="42.04443115614068" lon="3.067382937093231"><ele>22.666666666666664</ele><time>2026-05-02T09:28:05.999Z</time></trkpt><trkpt lat="42.04435473802233" lon="3.067412905388527"><ele>22.333333333333332</ele><time>2026-05-02T09:28:06.999Z</time></trkpt><trkpt lat="42.04427881197419" lon="3.0674610111747214"><ele>22.0</ele><time>2026-05-02T09:28:07.999Z</time></trkpt><trkpt lat="42.04421650755953" lon="3.0675329540992147"><ele>20.833333333333332</ele><time>2026-05-02T09:28:08.999Z</time></trkpt><trkpt lat="42.044165226324694" lon="3.067606913204565"><ele>19.666666666666664</ele><time>2026-05-02T09:28:09.999Z</time></trkpt><trkpt lat="42.044115577062236" lon="3.0676862231185646"><ele>18.5</ele><time>2026-05-02T09:28:10.999Z</time></trkpt><trkpt lat="42.044069073973944" lon="3.067762737179556"><ele>17.333333333333332</ele><time>2026-05-02T09:28:11.999Z</time></trkpt><trkpt lat="42.04402019945619" lon="3.0678434724548884"><ele>16.166666666666668</ele><time>2026-05-02T09:28:13Z</time></trkpt><trkpt lat="42.04396935294135" lon="3.0679199974124707"><ele>15.0</ele><time>2026-05-02T09:28:14Z</time></trkpt><trkpt lat="42.04392044485887" lon="3.0679936050872794"><ele>14.666666666666666</ele><time>2026-05-02T09:28:15Z</time></trkpt><trkpt lat="42.04387011386962" lon="3.068069354280803"><ele>14.333333333333332</ele><time>2026-05-02T09:28:16Z</time></trkpt><trkpt lat="42.04381735861659" lon="3.068149978023257"><ele>14.0</ele><time>2026-05-02T09:28:17Z</time></trkpt><trkpt lat="42.0437669087772" lon="3.068227873478319"><ele>13.666666666666666</ele><time>2026-05-02T09:28:18Z</time></trkpt><trkpt lat="42.0437150354017" lon="3.0683104368605494"><ele>13.333333333333332</ele><time>2026-05-02T09:28:19Z</time></trkpt><trkpt lat="42.043675992506564" lon="3.068409781452276"><ele>13.0</ele><time>2026-05-02T09:28:20Z</time></trkpt><trkpt lat="42.043627222048585" lon="3.0684958116487966"><ele>12.499999999999998</ele><time>2026-05-02T09:28:21Z</time></trkpt><trkpt lat="42.04359331908154" lon="3.0685930465881444"><ele>12.0</ele><time>2026-05-02T09:28:22Z</time></trkpt><trkpt lat="42.0435790763301" lon="3.068696968217868"><ele>11.5</ele><time>2026-05-02T09:28:23Z</time></trkpt><trkpt lat="42.043581957544184" lon="3.068798330028592"><ele>11.0</ele><time>2026-05-02T09:28:24Z</time></trkpt><trkpt lat="42.04359291533698" lon="3.0688976126535708"><ele>10.5</ele><time>2026-05-02T09:28:25Z</time></trkpt><trkpt lat="42.043602453137595" lon="3.069000668588926"><ele>10.0</ele><time>2026-05-02T09:28:26Z</time></trkpt><trkpt lat="42.04360883031744" lon="3.0691028715809843"><ele>9.833333333333334</ele><time>2026-05-02T09:28:27Z</time></trkpt><trkpt lat="42.043614952646806" lon="3.0692065526415875"><ele>9.666666666666668</ele><time>2026-05-02T09:28:28Z</time></trkpt><trkpt lat="42.043620821449004" lon="3.069309566457634"><ele>9.5</ele><time>2026-05-02T09:28:29Z</time></trkpt><trkpt lat="42.04362627854936" lon="3.0694148018860643"><ele>9.333333333333334</ele><time>2026-05-02T09:28:30Z</time></trkpt><trkpt lat="42.04363256746336" lon="3.069519466126606"><ele>9.166666666666666</ele><time>2026-05-02T09:28:31Z</time></trkpt><trkpt lat="42.043636540556044" lon="3.0696225560435986"><ele>9.0</ele><time>2026-05-02T09:28:32Z</time></trkpt><trkpt lat="42.04364885198793" lon="3.069723366309197"><ele>9.0</ele><time>2026-05-02T09:28:33Z</time></trkpt><trkpt lat="42.04366025412234" lon="3.069825002511143"><ele>9.0</ele><time>2026-05-02T09:28:34Z</time></trkpt><trkpt lat="42.04366713114506" lon="3.069927778667139"><ele>9.0</ele><time>2026-05-02T09:28:35Z</time></trkpt><trkpt lat="42.04367226071495" lon="3.070030712611157"><ele>9.0</ele><time>2026-05-02T09:28:36Z</time></trkpt><trkpt lat="42.043672171671496" lon="3.0701358204748774"><ele>9.0</ele><time>2026-05-02T09:28:37Z</time></trkpt><trkpt lat="42.04367596200751" lon="3.0702382418703604"><ele>9.0</ele><time>2026-05-02T09:28:38Z</time></trkpt><trkpt lat="42.04367966694411" lon="3.07033989155578"><ele>9.166666666666666</ele><time>2026-05-02T09:28:39Z</time></trkpt><trkpt lat="42.04368683591953" lon="3.070443648429121"><ele>9.333333333333334</ele><time>2026-05-02T09:28:40Z</time></trkpt><trkpt lat="42.043696956777815" lon="3.0705433660481463"><ele>9.5</ele><time>2026-05-02T09:28:41Z</time></trkpt><trkpt lat="42.043699611278704" lon="3.0706482927521823"><ele>9.666666666666668</ele><time>2026-05-02T09:28:42Z</time></trkpt><trkpt lat="42.04371232642501" lon="3.0707486410900575"><ele>9.833333333333334</ele><time>2026-05-02T09:28:43Z</time></trkpt><trkpt lat="42.04372070419025" lon="3.0708560896938484"><ele>10.0</ele><time>2026-05-02T09:28:44Z</time></trkpt><trkpt lat="42.043728939153624" lon="3.0709570522453387"><ele>10.166666666666668</ele><time>2026-05-02T09:28:45Z</time></trkpt><trkpt lat="42.04373748065944" lon="3.0710603778575023"><ele>10.333333333333334</ele><time>2026-05-02T09:28:46Z</time></trkpt><trkpt lat="42.04374939344746" lon="3.0711629011645853"><ele>10.5</ele><time>2026-05-02T09:28:47Z</time></trkpt><trkpt lat="42.04376329156059" lon="3.0712610325634295"><ele>10.666666666666666</ele><time>2026-05-02T09:28:48Z</time></trkpt><trkpt lat="42.04374966645072" lon="3.0713636262981687"><ele>10.833333333333332</ele><time>2026-05-02T09:28:49Z</time></trkpt><trkpt lat="42.04374804898905" lon="3.0714659506706146"><ele>11.0</ele><time>2026-05-02T09:28:50Z</time></trkpt><trkpt lat="42.043749342098636" lon="3.0715717263553115"><ele>11.0</ele><time>2026-05-02T09:28:51Z</time></trkpt><trkpt lat="42.043768647029864" lon="3.0716760827659906"><ele>11.0</ele><time>2026-05-02T09:28:52Z</time></trkpt><trkpt lat="42.0437815250589" lon="3.0717764356653974"><ele>11.0</ele><time>2026-05-02T09:28:53Z</time></trkpt><trkpt lat="42.04378154724028" lon="3.0718824757143657"><ele>11.0</ele><time>2026-05-02T09:28:54Z</time></trkpt><trkpt lat="42.043788379114446" lon="3.0719892358846703"><ele>11.0</ele><time>2026-05-02T09:28:55Z</time></trkpt><trkpt lat="42.04379458400239" lon="3.072091285572314"><ele>11.0</ele><time>2026-05-02T09:28:56Z</time></trkpt><trkpt lat="42.04379924658518" lon="3.072197070559713"><ele>11.0</ele><time>2026-05-02T09:28:57Z</time></trkpt><trkpt lat="42.0438000163039" lon="3.072301978262542"><ele>11.0</ele><time>2026-05-02T09:28:58Z</time></trkpt><trkpt lat="42.04379268216832" lon="3.072405873528335"><ele>11.0</ele><time>2026-05-02T09:28:59Z</time></trkpt><trkpt lat="42.04378254352553" lon="3.0725083246121603"><ele>11.0</ele><time>2026-05-02T09:29:00Z</time></trkpt><trkpt lat="42.043772044127465" lon="3.072614420980639"><ele>11.0</ele><time>2026-05-02T09:29:01Z</time></trkpt><trkpt lat="42.043772087056915" lon="3.072721386202053"><ele>11.0</ele><time>2026-05-02T09:29:02Z</time></trkpt><trkpt lat="42.04376420341609" lon="3.0728284630578284"><ele>11.0</ele><time>2026-05-02T09:29:03Z</time></trkpt><trkpt lat="42.04375778923871" lon="3.072931428354853"><ele>11.0</ele><time>2026-05-02T09:29:04Z</time></trkpt><trkpt lat="42.04375007288299" lon="3.0730344988243115"><ele>11.0</ele><time>2026-05-02T09:29:05Z</time></trkpt><trkpt lat="42.043741652974795" lon="3.0731402698926895"><ele>11.0</ele><time>2026-05-02T09:29:06Z</time></trkpt><trkpt lat="42.0437358334891" lon="3.073246360512815"><ele>11.0</ele><time>2026-05-02T09:29:07Z</time></trkpt><trkpt lat="42.04371465947467" lon="3.0733466764856723"><ele>11.0</ele><time>2026-05-02T09:29:08Z</time></trkpt><trkpt lat="42.04370442296085" lon="3.0734517593365935"><ele>11.333333333333332</ele><time>2026-05-02T09:29:09Z</time></trkpt><trkpt lat="42.04371054987467" lon="3.073556879585581"><ele>11.666666666666666</ele><time>2026-05-02T09:29:10Z</time></trkpt><trkpt lat="42.04369379337808" lon="3.073663504148239"><ele>12.0</ele><time>2026-05-02T09:29:11Z</time></trkpt><trkpt lat="42.04368354026204" lon="3.073764604403118"><ele>12.333333333333332</ele><time>2026-05-02T09:29:12Z</time></trkpt><trkpt lat="42.04367822010528" lon="3.073871144588073"><ele>12.666666666666666</ele><time>2026-05-02T09:29:13Z</time></trkpt><trkpt lat="42.04365662401682" lon="3.073975156042084"><ele>13.0</ele><time>2026-05-02T09:29:14Z</time></trkpt><trkpt lat="42.04364692967684" lon="3.0740830751453534"><ele>12.999999999999998</ele><time>2026-05-02T09:29:15Z</time></trkpt><trkpt lat="42.043637447914456" lon="3.0741886277229082"><ele>13.0</ele><time>2026-05-02T09:29:16Z</time></trkpt><trkpt lat="42.04362782303489" lon="3.0742957734974703"><ele>13.0</ele><time>2026-05-02T09:29:17Z</time></trkpt><trkpt lat="42.043618114515084" lon="3.0744038504360756"><ele>13.0</ele><time>2026-05-02T09:29:18Z</time></trkpt><trkpt lat="42.0436087231789" lon="3.0745083964312885"><ele>12.999999999999998</ele><time>2026-05-02T09:29:19Z</time></trkpt><trkpt lat="42.043599338092015" lon="3.0746128728473443"><ele>13.0</ele><time>2026-05-02T09:29:20Z</time></trkpt><trkpt lat="42.04360437667612" lon="3.074719331579219"><ele>12.999999999999998</ele><time>2026-05-02T09:29:21Z</time></trkpt><trkpt lat="42.04357710195724" lon="3.0748202249640295"><ele>13.0</ele><time>2026-05-02T09:29:22Z</time></trkpt><trkpt lat="42.04356557195491" lon="3.0749250463830515"><ele>13.0</ele><time>2026-05-02T09:29:23Z</time></trkpt><trkpt lat="42.04355131328815" lon="3.075027174139601"><ele>13.0</ele><time>2026-05-02T09:29:24Z</time></trkpt><trkpt lat="42.04353641804797" lon="3.075130245082328"><ele>12.999999999999998</ele><time>2026-05-02T09:29:25Z</time></trkpt><trkpt lat="42.043521346465674" lon="3.075234536155709"><ele>13.0</ele><time>2026-05-02T09:29:26Z</time></trkpt><trkpt lat="42.043506217457455" lon="3.075339224805979"><ele>13.142857142857142</ele><time>2026-05-02T09:29:27Z</time></trkpt><trkpt lat="42.04350074637727" lon="3.0754469564739555"><ele>13.285714285714286</ele><time>2026-05-02T09:29:28Z</time></trkpt><trkpt lat="42.043481556161304" lon="3.0755452897760716"><ele>13.428571428571429</ele><time>2026-05-02T09:29:29Z</time></trkpt><trkpt lat="42.04346716104553" lon="3.0756374016984633"><ele>13.571428571428571</ele><time>2026-05-02T09:29:30Z</time></trkpt><trkpt lat="42.04345987007329" lon="3.075729659239"><ele>13.714285714285715</ele><time>2026-05-02T09:29:30.999Z</time></trkpt><trkpt lat="42.04345131421846" lon="3.075823133324269"><ele>13.857142857142858</ele><time>2026-05-02T09:29:31.999Z</time></trkpt><trkpt lat="42.043452905348985" lon="3.0759236120146656"><ele>14.0</ele><time>2026-05-02T09:29:32.999Z</time></trkpt><trkpt lat="42.0434305865835" lon="3.076025030354973"><ele>13.666666666666668</ele><time>2026-05-02T09:29:33.999Z</time></trkpt><trkpt lat="42.04342460969245" lon="3.076130923032875"><ele>13.333333333333334</ele><time>2026-05-02T09:29:34.999Z</time></trkpt><trkpt lat="42.04342055417287" lon="3.076233892965546"><ele>13.0</ele><time>2026-05-02T09:29:35.999Z</time></trkpt><trkpt lat="42.0434188105596" lon="3.076335793036845"><ele>12.666666666666668</ele><time>2026-05-02T09:29:36.999Z</time></trkpt><trkpt lat="42.04341865947871" lon="3.0764373153329814"><ele>12.333333333333334</ele><time>2026-05-02T09:29:37.999Z</time></trkpt><trkpt lat="42.043419298126054" lon="3.076537519176089"><ele>12.0</ele><time>2026-05-02T09:29:38.999Z</time></trkpt><trkpt lat="42.043424950026335" lon="3.076635877550945"><ele>11.857142857142856</ele><time>2026-05-02T09:29:39.999Z</time></trkpt><trkpt lat="42.04344932762196" lon="3.0767283096810565"><ele>11.714285714285714</ele><time>2026-05-02T09:29:40.999Z</time></trkpt><trkpt lat="42.043451437495555" lon="3.0768277224744534"><ele>11.571428571428571</ele><time>2026-05-02T09:29:41.999Z</time></trkpt><trkpt lat="42.04342585413869" lon="3.076917765317816"><ele>11.428571428571427</ele><time>2026-05-02T09:29:42.999Z</time></trkpt><trkpt lat="42.04342249704235" lon="3.0770169933583893"><ele>11.285714285714285</ele><time>2026-05-02T09:29:43.999Z</time></trkpt><trkpt lat="42.04341402337749" lon="3.0771106334162437"><ele>11.142857142857142</ele><time>2026-05-02T09:29:44.999Z</time></trkpt><trkpt lat="42.043414515161366" lon="3.0772046467269925"><ele>11.0</ele><time>2026-05-02T09:29:45.999Z</time></trkpt><trkpt lat="42.04339619975371" lon="3.0772951927603347"><ele>11.0</ele><time>2026-05-02T09:29:46.999Z</time></trkpt><trkpt lat="42.043395661207754" lon="3.077386052009742"><ele>11.0</ele><time>2026-05-02T09:29:47.999Z</time></trkpt><trkpt lat="42.043397141110425" lon="3.077478323960967"><ele>11.0</ele><time>2026-05-02T09:29:48.999Z</time></trkpt><trkpt lat="42.04339954198431" lon="3.0775669261387577"><ele>11.0</ele><time>2026-05-02T09:29:49.999Z</time></trkpt><trkpt lat="42.043402351983225" lon="3.077660000153068"><ele>11.0</ele><time>2026-05-02T09:29:50.999Z</time></trkpt><trkpt lat="42.04340562669377" lon="3.0777513375892624"><ele>11.0</ele><time>2026-05-02T09:29:51.999Z</time></trkpt><trkpt lat="42.04340885370184" lon="3.077841299409341"><ele>11.0</ele><time>2026-05-02T09:29:52.999Z</time></trkpt><trkpt lat="42.0434123205829" lon="3.0779308272368553"><ele>11.0</ele><time>2026-05-02T09:29:53.999Z</time></trkpt><trkpt lat="42.04341683149247" lon="3.0780227596787038"><ele>11.0</ele><time>2026-05-02T09:29:54.999Z</time></trkpt><trkpt lat="42.04343768318561" lon="3.0781122272898"><ele>11.0</ele><time>2026-05-02T09:29:55.999Z</time></trkpt><trkpt lat="42.04344114975891" lon="3.0782042939454257"><ele>11.0</ele><time>2026-05-02T09:29:56.999Z</time></trkpt><trkpt lat="42.043448043219044" lon="3.0782957511245757"><ele>11.0</ele><time>2026-05-02T09:29:57.999Z</time></trkpt><trkpt lat="42.04344130097489" lon="3.078389872934674"><ele>11.0</ele><time>2026-05-02T09:29:58.999Z</time></trkpt><trkpt lat="42.04345073520767" lon="3.0784839994386752"><ele>11.0</ele><time>2026-05-02T09:29:59.999Z</time></trkpt><trkpt lat="42.04346111518116" lon="3.078576053358366"><ele>11.142857142857142</ele><time>2026-05-02T09:30:00.999Z</time></trkpt><trkpt lat="42.04347244812549" lon="3.078664867846728"><ele>11.285714285714285</ele><time>2026-05-02T09:30:01.999Z</time></trkpt><trkpt lat="42.043486179227266" lon="3.0787568923654685"><ele>11.428571428571427</ele><time>2026-05-02T09:30:02.999Z</time></trkpt><trkpt lat="42.0435189297685" lon="3.078846537509958"><ele>11.571428571428571</ele><time>2026-05-02T09:30:03.999Z</time></trkpt><trkpt lat="42.04353925612429" lon="3.078942989537793"><ele>11.714285714285714</ele><time>2026-05-02T09:30:04.999Z</time></trkpt><trkpt lat="42.0435602050447" lon="3.079035377051131"><ele>11.857142857142856</ele><time>2026-05-02T09:30:05.999Z</time></trkpt><trkpt lat="42.04358696686485" lon="3.0791280015773306"><ele>12.0</ele><time>2026-05-02T09:30:06.999Z</time></trkpt><trkpt lat="42.04362132044945" lon="3.0792171484570243"><ele>12.0</ele><time>2026-05-02T09:30:07.999Z</time></trkpt><trkpt lat="42.04363515529627" lon="3.079318170467278"><ele>12.0</ele><time>2026-05-02T09:30:08.999Z</time></trkpt><trkpt lat="42.043663869718515" lon="3.0794126803948187"><ele>12.0</ele><time>2026-05-02T09:30:09.999Z</time></trkpt><trkpt lat="42.04369187103186" lon="3.079504843033612"><ele>12.0</ele><time>2026-05-02T09:30:10.999Z</time></trkpt><trkpt lat="42.04372119412504" lon="3.0796002639751756"><ele>12.0</ele><time>2026-05-02T09:30:11.999Z</time></trkpt><trkpt lat="42.04375109728358" lon="3.0796949641415345"><ele>12.0</ele><time>2026-05-02T09:30:12.999Z</time></trkpt><trkpt lat="42.043781873043244" lon="3.0797924277409994"><ele>12.0</ele><time>2026-05-02T09:30:13.999Z</time></trkpt><trkpt lat="42.04382901924961" lon="3.0798785413827825"><ele>12.0</ele><time>2026-05-02T09:30:14.999Z</time></trkpt><trkpt lat="42.04384679850782" lon="3.0799821827236213"><ele>12.0</ele><time>2026-05-02T09:30:15.999Z</time></trkpt><trkpt lat="42.043880936908806" lon="3.0800763864397465"><ele>12.0</ele><time>2026-05-02T09:30:16.999Z</time></trkpt><trkpt lat="42.04391426255432" lon="3.0801683477917594"><ele>12.0</ele><time>2026-05-02T09:30:17.999Z</time></trkpt><trkpt lat="42.04395965321794" lon="3.0802543079315656"><ele>12.0</ele><time>2026-05-02T09:30:19Z</time></trkpt><trkpt lat="42.043988375048876" lon="3.0803518622719785"><ele>11.833333333333334</ele><time>2026-05-02T09:30:20Z</time></trkpt><trkpt lat="42.04402050755377" lon="3.080445552778426"><ele>11.666666666666666</ele><time>2026-05-02T09:30:21Z</time></trkpt><trkpt lat="42.04405079780048" lon="3.080542016938306"><ele>11.5</ele><time>2026-05-02T09:30:22Z</time></trkpt><trkpt lat="42.04408215895251" lon="3.0806389460389325"><ele>11.333333333333332</ele><time>2026-05-02T09:30:23Z</time></trkpt><trkpt lat="42.04411843715645" lon="3.0807325102901717"><ele>11.166666666666666</ele><time>2026-05-02T09:30:24Z</time></trkpt><trkpt lat="42.04415300217678" lon="3.080828697080418"><ele>11.0</ele><time>2026-05-02T09:30:25Z</time></trkpt><trkpt lat="42.04418606518131" lon="3.0809268219815706"><ele>11.0</ele><time>2026-05-02T09:30:26Z</time></trkpt><trkpt lat="42.04421905386008" lon="3.0810233538135336"><ele>11.0</ele><time>2026-05-02T09:30:27Z</time></trkpt><trkpt lat="42.04425083398266" lon="3.0811216159107153"><ele>11.0</ele><time>2026-05-02T09:30:28Z</time></trkpt><trkpt lat="42.044264329408875" lon="3.0812261809795043"><ele>11.0</ele><time>2026-05-02T09:30:29Z</time></trkpt><trkpt lat="42.04429016803156" lon="3.081323782857326"><ele>11.0</ele><time>2026-05-02T09:30:30Z</time></trkpt><trkpt lat="42.044319241078554" lon="3.081420262990632"><ele>11.0</ele><time>2026-05-02T09:30:31Z</time></trkpt><trkpt lat="42.044362265745924" lon="3.081507557161581"><ele>10.714285714285715</ele><time>2026-05-02T09:30:32Z</time></trkpt><trkpt lat="42.04437697095989" lon="3.0816118426948442"><ele>10.428571428571429</ele><time>2026-05-02T09:30:33Z</time></trkpt><trkpt lat="42.04440309246977" lon="3.081710974052412"><ele>10.142857142857142</ele><time>2026-05-02T09:30:34Z</time></trkpt><trkpt lat="42.044427437406156" lon="3.081804140931433"><ele>9.857142857142858</ele><time>2026-05-02T09:30:35Z</time></trkpt><trkpt lat="42.04445047279382" lon="3.081892296031969"><ele>9.571428571428571</ele><time>2026-05-02T09:30:36Z</time></trkpt><trkpt lat="42.04447227149325" lon="3.0819771253632156"><ele>9.285714285714286</ele><time>2026-05-02T09:30:37Z</time></trkpt><trkpt lat="42.04449297875959" lon="3.082057979912283"><ele>9.0</ele><time>2026-05-02T09:30:38Z</time></trkpt><trkpt lat="42.044535117840915" lon="3.0822225177673235"><ele>9.000000000000002</ele><time>2026-05-02T09:30:40Z</time></trkpt><trkpt lat="42.04455597993488" lon="3.0823089671876014"><ele>9.0</ele><time>2026-05-02T09:30:41Z</time></trkpt><trkpt lat="42.04457775302824" lon="3.0823988827155318"><ele>9.0</ele><time>2026-05-02T09:30:42Z</time></trkpt><trkpt lat="42.0445990603578" lon="3.08248782319583"><ele>9.0</ele><time>2026-05-02T09:30:43Z</time></trkpt><trkpt lat="42.04462939587792" lon="3.0825712612684018"><ele>9.0</ele><time>2026-05-02T09:30:44Z</time></trkpt><trkpt lat="42.044650734057576" lon="3.082652127250201"><ele>9.000000000000002</ele><time>2026-05-02T09:30:45Z</time></trkpt><trkpt lat="42.044655968824735" lon="3.082737640016152"><ele>9.0</ele><time>2026-05-02T09:30:46Z</time></trkpt><trkpt lat="42.0446918002654" lon="3.08289903588042"><ele>9.000000000000002</ele><time>2026-05-02T09:30:48Z</time></trkpt><trkpt lat="42.044709166405546" lon="3.0829826526814488"><ele>9.0</ele><time>2026-05-02T09:30:49Z</time></trkpt><trkpt lat="42.04472637664601" lon="3.083067724429467"><ele>9.0</ele><time>2026-05-02T09:30:50Z</time></trkpt><trkpt lat="42.04475827013681" lon="3.083144656966491"><ele>9.0</ele><time>2026-05-02T09:30:51Z</time></trkpt><trkpt lat="42.04475887050672" lon="3.0832346508174284"><ele>9.0</ele><time>2026-05-02T09:30:52Z</time></trkpt><trkpt lat="42.04477555721897" lon="3.0833215513956187"><ele>9.000000000000002</ele><time>2026-05-02T09:30:53Z</time></trkpt><trkpt lat="42.044791691303395" lon="3.0834087978055322"><ele>9.0</ele><time>2026-05-02T09:30:54Z</time></trkpt><trkpt lat="42.04480721590965" lon="3.083492748067908"><ele>9.000000000000002</ele><time>2026-05-02T09:30:55Z</time></trkpt><trkpt lat="42.04482283202594" lon="3.0835785414874093"><ele>9.0</ele><time>2026-05-02T09:30:56Z</time></trkpt><trkpt lat="42.044837648758566" lon="3.083664325087091"><ele>9.0</ele><time>2026-05-02T09:30:57Z</time></trkpt><trkpt lat="42.04485237896943" lon="3.083749607718727"><ele>9.0</ele><time>2026-05-02T09:30:58Z</time></trkpt><trkpt lat="42.04486707576086" lon="3.083834696784762"><ele>9.0</ele><time>2026-05-02T09:30:59Z</time></trkpt><trkpt lat="42.044882524295495" lon="3.083924137911984"><ele>9.000000000000002</ele><time>2026-05-02T09:31:00Z</time></trkpt><trkpt lat="42.04489844865464" lon="3.084010482857457"><ele>9.0</ele><time>2026-05-02T09:31:01Z</time></trkpt><trkpt lat="42.04491462815503" lon="3.084098026546038"><ele>9.000000000000002</ele><time>2026-05-02T09:31:02Z</time></trkpt><trkpt lat="42.04493148517776" lon="3.0841892363259276"><ele>9.0</ele><time>2026-05-02T09:31:03Z</time></trkpt><trkpt lat="42.044947330005684" lon="3.0842731127372383"><ele>9.0</ele><time>2026-05-02T09:31:04Z</time></trkpt><trkpt lat="42.044964535833316" lon="3.084363161908387"><ele>9.0</ele><time>2026-05-02T09:31:05Z</time></trkpt><trkpt lat="42.04498097518788" lon="3.084448513882486"><ele>9.0</ele><time>2026-05-02T09:31:06Z</time></trkpt><trkpt lat="42.04499914023237" lon="3.084533627846633"><ele>9.000000000000002</ele><time>2026-05-02T09:31:07Z</time></trkpt><trkpt lat="42.04501787282467" lon="3.084621401235325"><ele>9.0</ele><time>2026-05-02T09:31:08Z</time></trkpt><trkpt lat="42.045036943795445" lon="3.0847065822067052"><ele>9.000000000000002</ele><time>2026-05-02T09:31:09Z</time></trkpt><trkpt lat="42.04505790150975" lon="3.084797036425998"><ele>9.0</ele><time>2026-05-02T09:31:10Z</time></trkpt><trkpt lat="42.04507737818604" lon="3.084881098343023"><ele>9.0</ele><time>2026-05-02T09:31:11Z</time></trkpt><trkpt lat="42.04509828022652" lon="3.0849713123037166"><ele>9.0</ele><time>2026-05-02T09:31:12Z</time></trkpt><trkpt lat="42.045118123401735" lon="3.0850550918002515"><ele>9.0</ele><time>2026-05-02T09:31:13Z</time></trkpt><trkpt lat="42.04514078756664" lon="3.085145460487769"><ele>9.000000000000002</ele><time>2026-05-02T09:31:14Z</time></trkpt><trkpt lat="42.04516164742111" lon="3.085228634801423"><ele>9.0</ele><time>2026-05-02T09:31:15Z</time></trkpt><trkpt lat="42.04519772701448" lon="3.0853074918530137"><ele>9.142857142857144</ele><time>2026-05-02T09:31:16Z</time></trkpt><trkpt lat="42.045215618341665" lon="3.0853910531343844"><ele>9.285714285714286</ele><time>2026-05-02T09:31:17Z</time></trkpt><trkpt lat="42.04523053321753" lon="3.085480443976396"><ele>9.428571428571429</ele><time>2026-05-02T09:31:18Z</time></trkpt><trkpt lat="42.0452426543789" lon="3.0855687494532087"><ele>9.571428571428573</ele><time>2026-05-02T09:31:19Z</time></trkpt><trkpt lat="42.04524938457916" lon="3.0856574649431234"><ele>9.714285714285715</ele><time>2026-05-02T09:31:20Z</time></trkpt><trkpt lat="42.04525116673178" lon="3.0857499953099747"><ele>9.857142857142858</ele><time>2026-05-02T09:31:21Z</time></trkpt><trkpt lat="42.04525368398873" lon="3.085841514907421"><ele>10.0</ele><time>2026-05-02T09:31:22Z</time></trkpt><trkpt lat="42.04525014676673" lon="3.0859327101322114"><ele>10.142857142857142</ele><time>2026-05-02T09:31:23Z</time></trkpt><trkpt lat="42.04525288748458" lon="3.0860219208797743"><ele>10.285714285714286</ele><time>2026-05-02T09:31:24Z</time></trkpt><trkpt lat="42.0452548342686" lon="3.0861117929167055"><ele>10.428571428571429</ele><time>2026-05-02T09:31:25Z</time></trkpt><trkpt lat="42.04526216795948" lon="3.086204252552268"><ele>10.571428571428571</ele><time>2026-05-02T09:31:26Z</time></trkpt><trkpt lat="42.04524827095028" lon="3.0862956137089803"><ele>10.714285714285714</ele><time>2026-05-02T09:31:27Z</time></trkpt><trkpt lat="42.045248897117446" lon="3.086390899186055"><ele>10.857142857142858</ele><time>2026-05-02T09:31:28Z</time></trkpt><trkpt lat="42.04524952900291" lon="3.0864870547266343"><ele>11.0</ele><time>2026-05-02T09:31:29Z</time></trkpt><trkpt lat="42.04525024420316" lon="3.086580400586853"><ele>10.857142857142858</ele><time>2026-05-02T09:31:30Z</time></trkpt><trkpt lat="42.045251532850784" lon="3.0866758895591415"><ele>10.714285714285714</ele><time>2026-05-02T09:31:31Z</time></trkpt><trkpt lat="42.0452528351493" lon="3.086772389692409"><ele>10.571428571428571</ele><time>2026-05-02T09:31:32Z</time></trkpt><trkpt lat="42.04525411771816" lon="3.0868674279978623"><ele>10.428571428571429</ele><time>2026-05-02T09:31:32.999Z</time></trkpt><trkpt lat="42.04525541371679" lon="3.086963461406633"><ele>10.285714285714286</ele><time>2026-05-02T09:31:33.999Z</time></trkpt><trkpt lat="42.04525674067668" lon="3.087061789407195"><ele>10.142857142857142</ele><time>2026-05-02T09:31:34.999Z</time></trkpt><trkpt lat="42.04525798138902" lon="3.087155028022253"><ele>10.0</ele><time>2026-05-02T09:31:35.999Z</time></trkpt><trkpt lat="42.045259777406976" lon="3.0872531163083816"><ele>10.0</ele><time>2026-05-02T09:31:36.999Z</time></trkpt><trkpt lat="42.045261531518875" lon="3.0873489157587435"><ele>10.0</ele><time>2026-05-02T09:31:37.999Z</time></trkpt><trkpt lat="42.04526332924362" lon="3.0874470971468004"><ele>10.0</ele><time>2026-05-02T09:31:38.999Z</time></trkpt><trkpt lat="42.04526511669724" lon="3.087544717458022"><ele>10.0</ele><time>2026-05-02T09:31:39.999Z</time></trkpt><trkpt lat="42.04526969442383" lon="3.0876422259764222"><ele>10.0</ele><time>2026-05-02T09:31:40.999Z</time></trkpt><trkpt lat="42.04527416115591" lon="3.0877392821971403"><ele>10.0</ele><time>2026-05-02T09:31:41.999Z</time></trkpt><trkpt lat="42.04527833942038" lon="3.087834311995727"><ele>10.0</ele><time>2026-05-02T09:31:42.999Z</time></trkpt><trkpt lat="42.04529632419107" lon="3.0879296279052495"><ele>9.857142857142858</ele><time>2026-05-02T09:31:43.999Z</time></trkpt><trkpt lat="42.04529134429901" lon="3.08802157112899"><ele>9.714285714285715</ele><time>2026-05-02T09:31:44.999Z</time></trkpt><trkpt lat="42.045287115895064" lon="3.0881152981038524"><ele>9.571428571428573</ele><time>2026-05-02T09:31:45.999Z</time></trkpt><trkpt lat="42.04528248869758" lon="3.088210444553085"><ele>9.428571428571429</ele><time>2026-05-02T09:31:46.999Z</time></trkpt><trkpt lat="42.04525982275041" lon="3.0882995383309346"><ele>9.285714285714286</ele><time>2026-05-02T09:31:47.999Z</time></trkpt><trkpt lat="42.04524945826846" lon="3.0883909256689237"><ele>9.142857142857144</ele><time>2026-05-02T09:31:48.999Z</time></trkpt><trkpt lat="42.04523781374347" lon="3.0884786015937116"><ele>9.0</ele><time>2026-05-02T09:31:49.999Z</time></trkpt><trkpt lat="42.04522550551558" lon="3.088569639803071"><ele>9.000000000000002</ele><time>2026-05-02T09:31:50.999Z</time></trkpt><trkpt lat="42.0452135165783" lon="3.0886583162490755"><ele>9.0</ele><time>2026-05-02T09:31:51.999Z</time></trkpt><trkpt lat="42.04520119756273" lon="3.0887494343089705"><ele>9.0</ele><time>2026-05-02T09:31:52.999Z</time></trkpt><trkpt lat="42.045188886572745" lon="3.088840493033831"><ele>9.0</ele><time>2026-05-02T09:31:53.999Z</time></trkpt><trkpt lat="42.04517702342718" lon="3.0889282389865764"><ele>9.0</ele><time>2026-05-02T09:31:54.999Z</time></trkpt><trkpt lat="42.04516481189639" lon="3.0890213177743875"><ele>9.000000000000002</ele><time>2026-05-02T09:31:55.999Z</time></trkpt><trkpt lat="42.04515467081908" lon="3.0891060646500805"><ele>9.0</ele><time>2026-05-02T09:31:56.999Z</time></trkpt><trkpt lat="42.04514485404198" lon="3.089198657443326"><ele>9.000000000000002</ele><time>2026-05-02T09:31:57.999Z</time></trkpt><trkpt lat="42.04513757562333" lon="3.08928656414852"><ele>9.0</ele><time>2026-05-02T09:31:58.999Z</time></trkpt><trkpt lat="42.04513273545109" lon="3.089377655954227"><ele>9.0</ele><time>2026-05-02T09:31:59.999Z</time></trkpt><trkpt lat="42.04512948850755" lon="3.089467031610699"><ele>9.0</ele><time>2026-05-02T09:32:00.999Z</time></trkpt><trkpt lat="42.04512988074001" lon="3.0895626200288837"><ele>9.0</ele><time>2026-05-02T09:32:01.999Z</time></trkpt><trkpt lat="42.04513438264322" lon="3.0896532869281628"><ele>9.000000000000002</ele><time>2026-05-02T09:32:02.999Z</time></trkpt><trkpt lat="42.04514312544671" lon="3.089744741437679"><ele>9.0</ele><time>2026-05-02T09:32:03.999Z</time></trkpt><trkpt lat="42.045156466152584" lon="3.0898369071087783"><ele>9.000000000000002</ele><time>2026-05-02T09:32:04.999Z</time></trkpt><trkpt lat="42.04517428267318" lon="3.089926171722983"><ele>9.0</ele><time>2026-05-02T09:32:05.999Z</time></trkpt><trkpt lat="42.04519507299574" lon="3.0900132714115287"><ele>9.0</ele><time>2026-05-02T09:32:06.999Z</time></trkpt><trkpt lat="42.04523690985306" lon="3.0900936668912817"><ele>9.0</ele><time>2026-05-02T09:32:07.999Z</time></trkpt><trkpt lat="42.04526497929468" lon="3.0901721291896656"><ele>9.0</ele><time>2026-05-02T09:32:08.999Z</time></trkpt><trkpt lat="42.04529482780562" lon="3.090257826203317"><ele>9.000000000000002</ele><time>2026-05-02T09:32:09.999Z</time></trkpt><trkpt lat="42.04530774558388" lon="3.0903452548039967"><ele>9.0</ele><time>2026-05-02T09:32:10.999Z</time></trkpt><trkpt lat="42.04533267863768" lon="3.0904293325977066"><ele>9.0</ele><time>2026-05-02T09:32:11.999Z</time></trkpt><trkpt lat="42.04535851478505" lon="3.0905936647299725"><ele>9.0</ele><time>2026-05-02T09:32:13.999Z</time></trkpt><trkpt lat="42.045363636648304" lon="3.0907668524480214"><ele>9.0</ele><time>2026-05-02T09:32:15.999Z</time></trkpt><trkpt lat="42.04536706373516" lon="3.0908572068396976"><ele>9.0</ele><time>2026-05-02T09:32:16.999Z</time></trkpt><trkpt lat="42.04537111924356" lon="3.0909467284191283"><ele>9.0</ele><time>2026-05-02T09:32:17.999Z</time></trkpt><trkpt lat="42.045375039887084" lon="3.091033273028816"><ele>9.142857142857144</ele><time>2026-05-02T09:32:18.999Z</time></trkpt><trkpt lat="42.04537908283048" lon="3.091122517213185"><ele>9.285714285714286</ele><time>2026-05-02T09:32:19.999Z</time></trkpt><trkpt lat="42.04538306446411" lon="3.0912104081961806"><ele>9.428571428571429</ele><time>2026-05-02T09:32:20.999Z</time></trkpt><trkpt lat="42.045388370587084" lon="3.0912976704973962"><ele>9.571428571428573</ele><time>2026-05-02T09:32:21.999Z</time></trkpt><trkpt lat="42.0453945455805" lon="3.0913851688212093"><ele>9.714285714285715</ele><time>2026-05-02T09:32:22.999Z</time></trkpt><trkpt lat="42.045400819241195" lon="3.0914733415914903"><ele>9.857142857142858</ele><time>2026-05-02T09:32:23.999Z</time></trkpt><trkpt lat="42.045408293836516" lon="3.091560233773377"><ele>10.0</ele><time>2026-05-02T09:32:25Z</time></trkpt><trkpt lat="42.04541653143516" lon="3.091646250929899"><ele>10.142857142857142</ele><time>2026-05-02T09:32:26Z</time></trkpt><trkpt lat="42.045426043377276" lon="3.0917333481556115"><ele>10.285714285714286</ele><time>2026-05-02T09:32:27Z</time></trkpt><trkpt lat="42.0454354562215" lon="3.091819538088856"><ele>10.428571428571429</ele><time>2026-05-02T09:32:28Z</time></trkpt><trkpt lat="42.04544623431404" lon="3.0919066991016573"><ele>10.571428571428571</ele><time>2026-05-02T09:32:29Z</time></trkpt><trkpt lat="42.045457118435586" lon="3.0919919107744893"><ele>10.714285714285714</ele><time>2026-05-02T09:32:30Z</time></trkpt><trkpt lat="42.045468444846506" lon="3.092076324461092"><ele>10.857142857142858</ele><time>2026-05-02T09:32:31Z</time></trkpt><trkpt lat="42.04549576276309" lon="3.0921532914039465"><ele>11.0</ele><time>2026-05-02T09:32:32Z</time></trkpt><trkpt lat="42.04552409773922" lon="3.0923210975588336"><ele>11.0</ele><time>2026-05-02T09:32:34Z</time></trkpt><trkpt lat="42.04553543459941" lon="3.0924071733158085"><ele>11.0</ele><time>2026-05-02T09:32:35Z</time></trkpt><trkpt lat="42.04554598696699" lon="3.0924948456614225"><ele>11.0</ele><time>2026-05-02T09:32:36Z</time></trkpt><trkpt lat="42.04555926469212" lon="3.092578700888339"><ele>11.0</ele><time>2026-05-02T09:32:37Z</time></trkpt><trkpt lat="42.04557613753906" lon="3.092663533160741"><ele>11.0</ele><time>2026-05-02T09:32:38Z</time></trkpt><trkpt lat="42.04557595033902" lon="3.0927546383777402"><ele>11.0</ele><time>2026-05-02T09:32:39Z</time></trkpt><trkpt lat="42.045589098909744" lon="3.0928426765971486"><ele>11.0</ele><time>2026-05-02T09:32:40Z</time></trkpt><trkpt lat="42.04560239747993" lon="3.092931719248117"><ele>10.714285714285715</ele><time>2026-05-02T09:32:41Z</time></trkpt><trkpt lat="42.045615580061956" lon="3.0930199852154905"><ele>10.428571428571429</ele><time>2026-05-02T09:32:42Z</time></trkpt><trkpt lat="42.045629243065335" lon="3.093108848536734"><ele>10.142857142857142</ele><time>2026-05-02T09:32:43Z</time></trkpt><trkpt lat="42.045642495213485" lon="3.0931949633476186"><ele>9.857142857142858</ele><time>2026-05-02T09:32:44Z</time></trkpt><trkpt lat="42.045667932580145" lon="3.0932817629723184"><ele>9.571428571428571</ele><time>2026-05-02T09:32:45Z</time></trkpt><trkpt lat="42.0456834636424" lon="3.0933677564663427"><ele>9.285714285714286</ele><time>2026-05-02T09:32:46Z</time></trkpt><trkpt lat="42.04569912678949" lon="3.093459451601394"><ele>9.0</ele><time>2026-05-02T09:32:47Z</time></trkpt><trkpt lat="42.04569777402338" lon="3.0935541747074105"><ele>9.000000000000002</ele><time>2026-05-02T09:32:48Z</time></trkpt><trkpt lat="42.04571200449822" lon="3.0936466468597428"><ele>9.0</ele><time>2026-05-02T09:32:49Z</time></trkpt><trkpt lat="42.045725862982394" lon="3.0937367016356783"><ele>9.0</ele><time>2026-05-02T09:32:50Z</time></trkpt><trkpt lat="42.04573852543916" lon="3.0938267536563764"><ele>9.0</ele><time>2026-05-02T09:32:51Z</time></trkpt><trkpt lat="42.04575156185378" lon="3.0939192783329768"><ele>9.0</ele><time>2026-05-02T09:32:52Z</time></trkpt><trkpt lat="42.04576480269386" lon="3.094016018804664"><ele>9.000000000000002</ele><time>2026-05-02T09:32:53Z</time></trkpt><trkpt lat="42.0457775328648" lon="3.094110520287518"><ele>9.0</ele><time>2026-05-02T09:32:54Z</time></trkpt><trkpt lat="42.045790253128494" lon="3.094204948175559"><ele>9.000000000000002</ele><time>2026-05-02T09:32:55Z</time></trkpt><trkpt lat="42.045818876760585" lon="3.0942954785992804"><ele>9.0</ele><time>2026-05-02T09:32:56Z</time></trkpt><trkpt lat="42.04582722935882" lon="3.0943927910514035"><ele>9.0</ele><time>2026-05-02T09:32:57Z</time></trkpt><trkpt lat="42.04583836552609" lon="3.0944868614493775"><ele>9.0</ele><time>2026-05-02T09:32:58Z</time></trkpt><trkpt lat="42.04584703818177" lon="3.0945825203519837"><ele>9.0</ele><time>2026-05-02T09:32:59Z</time></trkpt><trkpt lat="42.04586020125148" lon="3.0946793353815227"><ele>9.000000000000002</ele><time>2026-05-02T09:33:00Z</time></trkpt><trkpt lat="42.045874683554544" lon="3.0947740612388994"><ele>9.0</ele><time>2026-05-02T09:33:01Z</time></trkpt><trkpt lat="42.04589065440135" lon="3.094867451104549"><ele>8.857142857142858</ele><time>2026-05-02T09:33:02Z</time></trkpt><trkpt lat="42.04590916624077" lon="3.094961264483331"><ele>8.714285714285715</ele><time>2026-05-02T09:33:03Z</time></trkpt><trkpt lat="42.04592295767624" lon="3.0950573012430334"><ele>8.571428571428571</ele><time>2026-05-02T09:33:04Z</time></trkpt><trkpt lat="42.04593468824588" lon="3.0951539295628114"><ele>8.428571428571429</ele><time>2026-05-02T09:33:05Z</time></trkpt><trkpt lat="42.04594669664232" lon="3.0952495347645237"><ele>8.285714285714285</ele><time>2026-05-02T09:33:06Z</time></trkpt><trkpt lat="42.0459361702466" lon="3.0953449254481447"><ele>8.142857142857142</ele><time>2026-05-02T09:33:07Z</time></trkpt><trkpt lat="42.04592606958839" lon="3.0954321348665403"><ele>8.0</ele><time>2026-05-02T09:33:08Z</time></trkpt><trkpt lat="42.04588705148036" lon="3.0955997602053387"><ele>8.0</ele><time>2026-05-02T09:33:10Z</time></trkpt><trkpt lat="42.04585650868602" lon="3.0956858440390334"><ele>8.0</ele><time>2026-05-02T09:33:11Z</time></trkpt><trkpt lat="42.04582570172309" lon="3.095774129833899"><ele>8.0</ele><time>2026-05-02T09:33:12Z</time></trkpt><trkpt lat="42.04580194351997" lon="3.0958639737503795"><ele>8.0</ele><time>2026-05-02T09:33:13Z</time></trkpt><trkpt lat="42.04577445720321" lon="3.0960304894086073"><ele>8.0</ele><time>2026-05-02T09:33:15Z</time></trkpt><trkpt lat="42.04565485362478" lon="3.0961064706475767"><ele>7.857142857142857</ele><time>2026-05-02T09:33:17Z</time></trkpt><trkpt lat="42.045595551889285" lon="3.096159071619152"><ele>7.7142857142857135</ele><time>2026-05-02T09:33:18Z</time></trkpt><trkpt lat="42.04553891016384" lon="3.0962134145432514"><ele>7.571428571428571</ele><time>2026-05-02T09:33:19Z</time></trkpt><trkpt lat="42.045485296270066" lon="3.096289486636821"><ele>7.428571428571429</ele><time>2026-05-02T09:33:20Z</time></trkpt><trkpt lat="42.0454361944906" lon="3.096364600714462"><ele>7.285714285714286</ele><time>2026-05-02T09:33:21Z</time></trkpt><trkpt lat="42.04538971386586" lon="3.0964414774966853"><ele>7.142857142857142</ele><time>2026-05-02T09:33:22Z</time></trkpt><trkpt lat="42.04534493422683" lon="3.0965186597212293"><ele>7.0</ele><time>2026-05-02T09:33:23Z</time></trkpt><trkpt lat="42.04530172642034" lon="3.0965980487828313"><ele>7.0</ele><time>2026-05-02T09:33:24Z</time></trkpt><trkpt lat="42.04526017591051" lon="3.0966750423935094"><ele>7.0</ele><time>2026-05-02T09:33:25Z</time></trkpt><trkpt lat="42.045217910464615" lon="3.096753360833937"><ele>7.0</ele><time>2026-05-02T09:33:26Z</time></trkpt><trkpt lat="42.045176572755466" lon="3.096827992412041"><ele>7.0</ele><time>2026-05-02T09:33:27Z</time></trkpt><trkpt lat="42.04513307618846" lon="3.0969063918186976"><ele>7.0</ele><time>2026-05-02T09:33:28Z</time></trkpt><trkpt lat="42.04509055038728" lon="3.0969829915061364"><ele>7.0</ele><time>2026-05-02T09:33:29Z</time></trkpt><trkpt lat="42.04504664931588" lon="3.0970606826189764"><ele>7.0</ele><time>2026-05-02T09:33:30Z</time></trkpt><trkpt lat="42.04500196052801" lon="3.0971350026746647"><ele>7.0</ele><time>2026-05-02T09:33:31Z</time></trkpt><trkpt lat="42.04495785712442" lon="3.0972059778735472"><ele>7.0</ele><time>2026-05-02T09:33:32Z</time></trkpt><trkpt lat="42.044911082457155" lon="3.0972783579320957"><ele>7.0</ele><time>2026-05-02T09:33:33Z</time></trkpt><trkpt lat="42.044865756719624" lon="3.0973484959926774"><ele>7.0</ele><time>2026-05-02T09:33:34Z</time></trkpt><trkpt lat="42.044819597821224" lon="3.0974199232357424"><ele>7.0</ele><time>2026-05-02T09:33:35Z</time></trkpt><trkpt lat="42.044774189279195" lon="3.097492958390471"><ele>7.0</ele><time>2026-05-02T09:33:36Z</time></trkpt><trkpt lat="42.04472951337171" lon="3.097568095036714"><ele>7.0</ele><time>2026-05-02T09:33:37Z</time></trkpt><trkpt lat="42.04468728665504" lon="3.097646707041145"><ele>7.0</ele><time>2026-05-02T09:33:38Z</time></trkpt><trkpt lat="42.04464670266502" lon="3.0977289357047813"><ele>7.0</ele><time>2026-05-02T09:33:38.999Z</time></trkpt><trkpt lat="42.04460912081328" lon="3.0978126767784646"><ele>7.0</ele><time>2026-05-02T09:33:39.999Z</time></trkpt><trkpt lat="42.04457600195964" lon="3.0979029920760057"><ele>7.0</ele><time>2026-05-02T09:33:40.999Z</time></trkpt><trkpt lat="42.04455211933274" lon="3.098000201130396"><ele>7.0</ele><time>2026-05-02T09:33:41.999Z</time></trkpt><trkpt lat="42.04453376669886" lon="3.098091763820782"><ele>7.0</ele><time>2026-05-02T09:33:42.999Z</time></trkpt><trkpt lat="42.044515865296844" lon="3.098186295691223"><ele>7.0</ele><time>2026-05-02T09:33:43.999Z</time></trkpt><trkpt lat="42.04449889240275" lon="3.098279737787348"><ele>7.428571428571429</ele><time>2026-05-02T09:33:44.999Z</time></trkpt><trkpt lat="42.04448182035337" lon="3.098373725759404"><ele>7.857142857142858</ele><time>2026-05-02T09:33:45.999Z</time></trkpt><trkpt lat="42.04446491942675" lon="3.0984660544123077"><ele>8.285714285714285</ele><time>2026-05-02T09:33:46.999Z</time></trkpt><trkpt lat="42.04444738986185" lon="3.0985591756090325"><ele>8.714285714285715</ele><time>2026-05-02T09:33:47.999Z</time></trkpt><trkpt lat="42.04442966877857" lon="3.098653314514618"><ele>9.142857142857142</ele><time>2026-05-02T09:33:48.999Z</time></trkpt><trkpt lat="42.04441213777044" lon="3.09874644361241"><ele>9.571428571428571</ele><time>2026-05-02T09:33:49.999Z</time></trkpt><trkpt lat="42.04439440708018" lon="3.0988406334788574"><ele>10.0</ele><time>2026-05-02T09:33:50.999Z</time></trkpt><trkpt lat="42.044377058380526" lon="3.09893279407207"><ele>10.0</ele><time>2026-05-02T09:33:51.999Z</time></trkpt><trkpt lat="42.044359788032885" lon="3.0990245383815185"><ele>10.0</ele><time>2026-05-02T09:33:52.999Z</time></trkpt><trkpt lat="42.044342543517686" lon="3.0991161456179377"><ele>10.0</ele><time>2026-05-02T09:33:53.999Z</time></trkpt><trkpt lat="42.04432479723847" lon="3.099210418264824"><ele>10.0</ele><time>2026-05-02T09:33:54.999Z</time></trkpt><trkpt lat="42.04430779884124" lon="3.0993007179680543"><ele>10.0</ele><time>2026-05-02T09:33:55.999Z</time></trkpt><trkpt lat="42.04429063832032" lon="3.0993918786689982"><ele>10.0</ele><time>2026-05-02T09:33:56.999Z</time></trkpt><trkpt lat="42.04427364294843" lon="3.099482162587595"><ele>10.0</ele><time>2026-05-02T09:33:57.999Z</time></trkpt><trkpt lat="42.044257439720965" lon="3.099571837595924"><ele>9.714285714285714</ele><time>2026-05-02T09:33:58.999Z</time></trkpt><trkpt lat="42.04424169798318" lon="3.099660188887053"><ele>9.428571428571429</ele><time>2026-05-02T09:33:59.999Z</time></trkpt><trkpt lat="42.04422531388254" lon="3.099752145432335"><ele>9.142857142857142</ele><time>2026-05-02T09:34:00.999Z</time></trkpt><trkpt lat="42.04420898496206" lon="3.0998437924220554"><ele>8.857142857142858</ele><time>2026-05-02T09:34:01.999Z</time></trkpt><trkpt lat="42.04419302893101" lon="3.0999333465264693"><ele>8.571428571428571</ele><time>2026-05-02T09:34:02.999Z</time></trkpt><trkpt lat="42.04417694134469" lon="3.1000236388604225"><ele>8.285714285714285</ele><time>2026-05-02T09:34:03.999Z</time></trkpt><trkpt lat="42.04416045512117" lon="3.1001161687220185"><ele>8.0</ele><time>2026-05-02T09:34:04.999Z</time></trkpt><trkpt lat="42.044143751822645" lon="3.1002085041942107"><ele>8.285714285714285</ele><time>2026-05-02T09:34:05.999Z</time></trkpt><trkpt lat="42.04412732435835" lon="3.10029694173501"><ele>8.571428571428571</ele><time>2026-05-02T09:34:06.999Z</time></trkpt><trkpt lat="42.04410938795109" lon="3.100388196515477"><ele>8.857142857142858</ele><time>2026-05-02T09:34:07.999Z</time></trkpt><trkpt lat="42.04409088369156" lon="3.1004800771576893"><ele>9.142857142857142</ele><time>2026-05-02T09:34:08.999Z</time></trkpt><trkpt lat="42.04406855614037" lon="3.100573856191457"><ele>9.428571428571429</ele><time>2026-05-02T09:34:09.999Z</time></trkpt><trkpt lat="42.04404196348662" lon="3.100660627645602"><ele>9.714285714285714</ele><time>2026-05-02T09:34:10.999Z</time></trkpt><trkpt lat="42.04400475531341" lon="3.1007387984036425"><ele>10.0</ele><time>2026-05-02T09:34:11.999Z</time></trkpt><trkpt lat="42.043958549671544" lon="3.1008145666185025"><ele>10.333333333333334</ele><time>2026-05-02T09:34:12.999Z</time></trkpt><trkpt lat="42.04391419938813" lon="3.1008971134388688"><ele>10.666666666666668</ele><time>2026-05-02T09:34:13.999Z</time></trkpt><trkpt lat="42.043872168381675" lon="3.1009850655939775"><ele>11.0</ele><time>2026-05-02T09:34:14.999Z</time></trkpt><trkpt lat="42.04383956678097" lon="3.1010761711535832"><ele>11.333333333333334</ele><time>2026-05-02T09:34:15.999Z</time></trkpt><trkpt lat="42.04381340705822" lon="3.101169063038772"><ele>11.666666666666666</ele><time>2026-05-02T09:34:16.999Z</time></trkpt><trkpt lat="42.043789417537006" lon="3.1012614126641425"><ele>12.0</ele><time>2026-05-02T09:34:17.999Z</time></trkpt><trkpt lat="42.0437664096501" lon="3.101358469795634"><ele>11.999999999999998</ele><time>2026-05-02T09:34:18.999Z</time></trkpt><trkpt lat="42.043743844519476" lon="3.101454334245342"><ele>12.0</ele><time>2026-05-02T09:34:19.999Z</time></trkpt><trkpt lat="42.043721576827274" lon="3.101548935034183"><ele>12.0</ele><time>2026-05-02T09:34:20.999Z</time></trkpt><trkpt lat="42.043699803645225" lon="3.101641434993294"><ele>12.0</ele><time>2026-05-02T09:34:21.999Z</time></trkpt><trkpt lat="42.04367779611537" lon="3.1017332504575257"><ele>12.0</ele><time>2026-05-02T09:34:22.999Z</time></trkpt><trkpt lat="42.04365519814038" lon="3.1018272807141116"><ele>11.999999999999998</ele><time>2026-05-02T09:34:23.999Z</time></trkpt><trkpt lat="42.04363263415803" lon="3.101921169546584"><ele>12.0</ele><time>2026-05-02T09:34:24.999Z</time></trkpt><trkpt lat="42.04360976657502" lon="3.1020110497053577"><ele>11.999999999999998</ele><time>2026-05-02T09:34:25.999Z</time></trkpt><trkpt lat="42.04358628391337" lon="3.102099286699827"><ele>12.0</ele><time>2026-05-02T09:34:26.999Z</time></trkpt><trkpt lat="42.043561807604355" lon="3.1021894967358246"><ele>12.0</ele><time>2026-05-02T09:34:27.999Z</time></trkpt><trkpt lat="42.04353765150748" lon="3.102278526462312"><ele>12.0</ele><time>2026-05-02T09:34:28.999Z</time></trkpt><trkpt lat="42.043513876250906" lon="3.102370395205677"><ele>12.0</ele><time>2026-05-02T09:34:30Z</time></trkpt><trkpt lat="42.04349180850054" lon="3.1024595353169713"><ele>11.999999999999998</ele><time>2026-05-02T09:34:31Z</time></trkpt><trkpt lat="42.0434694126902" lon="3.1025500008913687"><ele>12.0</ele><time>2026-05-02T09:34:32Z</time></trkpt><trkpt lat="42.043446874705005" lon="3.1026410687818347"><ele>11.999999999999998</ele><time>2026-05-02T09:34:33Z</time></trkpt><trkpt lat="42.04342505070607" lon="3.102732462202285"><ele>12.0</ele><time>2026-05-02T09:34:34Z</time></trkpt><trkpt lat="42.04340323588942" lon="3.1028238166884132"><ele>12.0</ele><time>2026-05-02T09:34:35Z</time></trkpt><trkpt lat="42.04338182975591" lon="3.1029179020206965"><ele>12.0</ele><time>2026-05-02T09:34:36Z</time></trkpt><trkpt lat="42.043361456416015" lon="3.103011197433317"><ele>12.0</ele><time>2026-05-02T09:34:37Z</time></trkpt><trkpt lat="42.04334076460557" lon="3.1031059512353876"><ele>11.999999999999998</ele><time>2026-05-02T09:34:38Z</time></trkpt><trkpt lat="42.04332175719211" lon="3.1031994720735745"><ele>12.0</ele><time>2026-05-02T09:34:39Z</time></trkpt><trkpt lat="42.04330455467726" lon="3.103294348184839"><ele>11.428571428571427</ele><time>2026-05-02T09:34:40Z</time></trkpt><trkpt lat="42.043288656751876" lon="3.10339285375608"><ele>10.857142857142858</ele><time>2026-05-02T09:34:41Z</time></trkpt><trkpt lat="42.043275069348205" lon="3.10348885008546"><ele>10.285714285714285</ele><time>2026-05-02T09:34:42Z</time></trkpt><trkpt lat="42.04326365820162" lon="3.1035847659520828"><ele>9.714285714285714</ele><time>2026-05-02T09:34:43Z</time></trkpt><trkpt lat="42.043252664441816" lon="3.1036858488360264"><ele>9.142857142857142</ele><time>2026-05-02T09:34:44Z</time></trkpt><trkpt lat="42.04324304073812" lon="3.1037839136169163"><ele>8.571428571428571</ele><time>2026-05-02T09:34:45Z</time></trkpt><trkpt lat="42.043234293283966" lon="3.103878728861838"><ele>8.0</ele><time>2026-05-02T09:34:46Z</time></trkpt><trkpt lat="42.04322621642856" lon="3.1039704322757258"><ele>8.0</ele><time>2026-05-02T09:34:47Z</time></trkpt><trkpt lat="42.043219753465834" lon="3.1040658284025695"><ele>7.999999999999999</ele><time>2026-05-02T09:34:48Z</time></trkpt><trkpt lat="42.04321302769131" lon="3.104165404060017"><ele>8.0</ele><time>2026-05-02T09:34:49Z</time></trkpt><trkpt lat="42.043206550154615" lon="3.1042613036841167"><ele>8.0</ele><time>2026-05-02T09:34:50Z</time></trkpt><trkpt lat="42.043200088634926" lon="3.1043569668916704"><ele>7.999999999999999</ele><time>2026-05-02T09:34:51Z</time></trkpt><trkpt lat="42.04319392381654" lon="3.1044482377424867"><ele>8.0</ele><time>2026-05-02T09:34:52Z</time></trkpt><trkpt lat="42.043186480440276" lon="3.10454044235046"><ele>8.0</ele><time>2026-05-02T09:34:53Z</time></trkpt><trkpt lat="42.04317821814593" lon="3.1046338357425967"><ele>7.857142857142857</ele><time>2026-05-02T09:34:54Z</time></trkpt><trkpt lat="42.043169881770055" lon="3.1047264730324997"><ele>7.7142857142857135</ele><time>2026-05-02T09:34:55Z</time></trkpt><trkpt lat="42.043160211057284" lon="3.104817931829883"><ele>7.571428571428571</ele><time>2026-05-02T09:34:56Z</time></trkpt><trkpt lat="42.043150365814455" lon="3.1049083009437113"><ele>7.428571428571429</ele><time>2026-05-02T09:34:57Z</time></trkpt><trkpt lat="42.04313838698234" lon="3.1049986160971517"><ele>7.285714285714286</ele><time>2026-05-02T09:34:58Z</time></trkpt><trkpt lat="42.043124941913916" lon="3.1050887531305555"><ele>7.142857142857142</ele><time>2026-05-02T09:34:59Z</time></trkpt><trkpt lat="42.04310974338219" lon="3.105178587673551"><ele>7.0</ele><time>2026-05-02T09:35:00Z</time></trkpt><trkpt lat="42.04309343491964" lon="3.105269206265913"><ele>7.0</ele><time>2026-05-02T09:35:01Z</time></trkpt><trkpt lat="42.04307384361242" lon="3.1053562772595447"><ele>7.0</ele><time>2026-05-02T09:35:02Z</time></trkpt><trkpt lat="42.04305263689682" lon="3.1054429507709345"><ele>7.0</ele><time>2026-05-02T09:35:03Z</time></trkpt><trkpt lat="42.04302780249016" lon="3.105532747334502"><ele>7.0</ele><time>2026-05-02T09:35:04Z</time></trkpt><trkpt lat="42.04300104484046" lon="3.1056229250746696"><ele>7.0</ele><time>2026-05-02T09:35:05Z</time></trkpt><trkpt lat="42.04297155922571" lon="3.105710101391526"><ele>7.0</ele><time>2026-05-02T09:35:06Z</time></trkpt><trkpt lat="42.0429396853371" lon="3.10580290663348"><ele>7.0</ele><time>2026-05-02T09:35:07Z</time></trkpt><trkpt lat="42.04290812635829" lon="3.1058946019025537"><ele>7.0</ele><time>2026-05-02T09:35:08Z</time></trkpt><trkpt lat="42.04287673406696" lon="3.105981389895187"><ele>7.0</ele><time>2026-05-02T09:35:09Z</time></trkpt><trkpt lat="42.04284375751805" lon="3.1060722121460365"><ele>7.0</ele><time>2026-05-02T09:35:10Z</time></trkpt><trkpt lat="42.0428106632691" lon="3.106163358559773"><ele>7.0</ele><time>2026-05-02T09:35:11Z</time></trkpt><trkpt lat="42.04277783422849" lon="3.1062516524285777"><ele>7.0</ele><time>2026-05-02T09:35:12Z</time></trkpt><trkpt lat="42.0427423288849" lon="3.1063456048646096"><ele>7.0</ele><time>2026-05-02T09:35:13Z</time></trkpt><trkpt lat="42.04270857367964" lon="3.106434926326882"><ele>7.0</ele><time>2026-05-02T09:35:14Z</time></trkpt><trkpt lat="42.042674687160236" lon="3.106527944831725"><ele>6.833333333333334</ele><time>2026-05-02T09:35:15Z</time></trkpt><trkpt lat="42.04264258071317" lon="3.1066217105732625"><ele>6.666666666666667</ele><time>2026-05-02T09:35:16Z</time></trkpt><trkpt lat="42.04261183623379" lon="3.106711502951413"><ele>6.5</ele><time>2026-05-02T09:35:17Z</time></trkpt><trkpt lat="42.04258221679147" lon="3.1068097172658926"><ele>6.333333333333334</ele><time>2026-05-02T09:35:18Z</time></trkpt><trkpt lat="42.04255324040102" lon="3.1069009144042936"><ele>6.166666666666667</ele><time>2026-05-02T09:35:19Z</time></trkpt><trkpt lat="42.042523757671745" lon="3.106993705180095"><ele>6.0</ele><time>2026-05-02T09:35:20Z</time></trkpt><trkpt lat="42.04249522851311" lon="3.1070834595162244"><ele>5.999999999999999</ele><time>2026-05-02T09:35:21Z</time></trkpt><trkpt lat="42.042464077604" lon="3.10717400164814"><ele>6.0</ele><time>2026-05-02T09:35:22Z</time></trkpt><trkpt lat="42.0424342097411" lon="3.107260814280492"><ele>6.0</ele><time>2026-05-02T09:35:23Z</time></trkpt><trkpt lat="42.04240534247575" lon="3.1073447187288927"><ele>6.0</ele><time>2026-05-02T09:35:24Z</time></trkpt><trkpt lat="42.04237736246577" lon="3.1074339520717675"><ele>6.0</ele><time>2026-05-02T09:35:25Z</time></trkpt><trkpt lat="42.04235086625477" lon="3.1075230564325693"><ele>5.999999999999999</ele><time>2026-05-02T09:35:26Z</time></trkpt><trkpt lat="42.04232416469873" lon="3.1076128551234103"><ele>6.0</ele><time>2026-05-02T09:35:27Z</time></trkpt><trkpt lat="42.04230184818812" lon="3.1077107319390067"><ele>5.999999999999999</ele><time>2026-05-02T09:35:28Z</time></trkpt><trkpt lat="42.04227624865" lon="3.1078037908881924"><ele>6.0</ele><time>2026-05-02T09:35:29Z</time></trkpt><trkpt lat="42.04225027991406" lon="3.1078980555912725"><ele>6.0</ele><time>2026-05-02T09:35:30Z</time></trkpt><trkpt lat="42.04222463560448" lon="3.1079911425636357"><ele>6.0</ele><time>2026-05-02T09:35:31Z</time></trkpt><trkpt lat="42.04219892136751" lon="3.108084483420541"><ele>6.0</ele><time>2026-05-02T09:35:32Z</time></trkpt><trkpt lat="42.042173194075076" lon="3.1081823448649537"><ele>5.999999999999999</ele><time>2026-05-02T09:35:32.999Z</time></trkpt><trkpt lat="42.04214965699096" lon="3.1082743978331853"><ele>6.0</ele><time>2026-05-02T09:35:33.999Z</time></trkpt><trkpt lat="42.04212734398364" lon="3.1083616664475424"><ele>5.999999999999999</ele><time>2026-05-02T09:35:34.999Z</time></trkpt><trkpt lat="42.04206929169445" lon="3.1084878203548114"><ele>6.0</ele><time>2026-05-02T09:35:36.999Z</time></trkpt><trkpt lat="42.04205860346301" lon="3.1085853855364083"><ele>6.0</ele><time>2026-05-02T09:35:37.999Z</time></trkpt><trkpt lat="42.04206171580797" lon="3.1086747484257744"><ele>6.0</ele><time>2026-05-02T09:35:38.999Z</time></trkpt><trkpt lat="42.042053498463915" lon="3.1087609731976418"><ele>6.0</ele><time>2026-05-02T09:35:39.999Z</time></trkpt><trkpt lat="42.04204264638218" lon="3.1088451801431263"><ele>5.999999999999999</ele><time>2026-05-02T09:35:40.999Z</time></trkpt><trkpt lat="42.042026512960376" lon="3.108928428271311"><ele>6.0</ele><time>2026-05-02T09:35:41.999Z</time></trkpt><trkpt lat="42.04201010704348" lon="3.109013342018496"><ele>6.142857142857142</ele><time>2026-05-02T09:35:42.999Z</time></trkpt><trkpt lat="42.04199315526506" lon="3.1091010810963033"><ele>6.285714285714286</ele><time>2026-05-02T09:35:43.999Z</time></trkpt><trkpt lat="42.04197567660135" lon="3.109184575325338"><ele>6.428571428571429</ele><time>2026-05-02T09:35:44.999Z</time></trkpt><trkpt lat="42.04195695699882" lon="3.1092713150907385"><ele>6.571428571428571</ele><time>2026-05-02T09:35:45.999Z</time></trkpt><trkpt lat="42.04193818353274" lon="3.1093583043559128"><ele>6.714285714285714</ele><time>2026-05-02T09:35:46.999Z</time></trkpt><trkpt lat="42.041919140919916" lon="3.1094465409242176"><ele>6.857142857142857</ele><time>2026-05-02T09:35:47.999Z</time></trkpt><trkpt lat="42.0419000730596" lon="3.109532855814638"><ele>7.0</ele><time>2026-05-02T09:35:48.999Z</time></trkpt><trkpt lat="42.04188040720211" lon="3.10962059671796"><ele>7.0</ele><time>2026-05-02T09:35:49.999Z</time></trkpt><trkpt lat="42.04186159187212" lon="3.109704544121766"><ele>7.0</ele><time>2026-05-02T09:35:50.999Z</time></trkpt><trkpt lat="42.04184264639315" lon="3.1097890712637217"><ele>7.0</ele><time>2026-05-02T09:35:51.999Z</time></trkpt><trkpt lat="42.04182400474581" lon="3.1098722431316874"><ele>7.0</ele><time>2026-05-02T09:35:52.999Z</time></trkpt><trkpt lat="42.04180538668451" lon="3.1099545740998495"><ele>7.0</ele><time>2026-05-02T09:35:53.999Z</time></trkpt><trkpt lat="42.04178658659129" lon="3.110035679340494"><ele>7.0</ele><time>2026-05-02T09:35:54.999Z</time></trkpt><trkpt lat="42.041767207078706" lon="3.1101181041536896"><ele>7.0</ele><time>2026-05-02T09:35:55.999Z</time></trkpt><trkpt lat="42.041745282769746" lon="3.1102051879865287"><ele>7.0</ele><time>2026-05-02T09:35:56.999Z</time></trkpt><trkpt lat="42.04172369085395" lon="3.110289785935979"><ele>7.0</ele><time>2026-05-02T09:35:57.999Z</time></trkpt><trkpt lat="42.04169967574608" lon="3.110378494174467"><ele>7.0</ele><time>2026-05-02T09:35:58.999Z</time></trkpt><trkpt lat="42.041676109492116" lon="3.1104655447630893"><ele>7.0</ele><time>2026-05-02T09:35:59.999Z</time></trkpt><trkpt lat="42.041651830565144" lon="3.1105552277263144"><ele>7.0</ele><time>2026-05-02T09:36:00.999Z</time></trkpt><trkpt lat="42.04162753627427" lon="3.1106433925579546"><ele>7.0</ele><time>2026-05-02T09:36:01.999Z</time></trkpt><trkpt lat="42.04160208843398" lon="3.110734862259944"><ele>7.0</ele><time>2026-05-02T09:36:02.999Z</time></trkpt><trkpt lat="42.04157602296653" lon="3.1108194033294865"><ele>6.571428571428571</ele><time>2026-05-02T09:36:03.999Z</time></trkpt><trkpt lat="42.04154716949585" lon="3.1109084106134284"><ele>6.142857142857142</ele><time>2026-05-02T09:36:04.999Z</time></trkpt><trkpt lat="42.04151800303606" lon="3.1109978936146425"><ele>5.714285714285714</ele><time>2026-05-02T09:36:05.999Z</time></trkpt><trkpt lat="42.04148844046943" lon="3.1110858596233952"><ele>5.285714285714286</ele><time>2026-05-02T09:36:06.999Z</time></trkpt><trkpt lat="42.041457696160634" lon="3.111175953419147"><ele>4.857142857142857</ele><time>2026-05-02T09:36:07.999Z</time></trkpt><trkpt lat="42.04142463208483" lon="3.1112681619233515"><ele>4.428571428571429</ele><time>2026-05-02T09:36:08.999Z</time></trkpt><trkpt lat="42.041391523713564" lon="3.1113581445976544"><ele>4.0</ele><time>2026-05-02T09:36:09.999Z</time></trkpt><trkpt lat="42.04135606338124" lon="3.1114455356882784"><ele>4.0</ele><time>2026-05-02T09:36:10.999Z</time></trkpt><trkpt lat="42.041319556656234" lon="3.1115331316194537"><ele>3.9999999999999996</ele><time>2026-05-02T09:36:11.999Z</time></trkpt><trkpt lat="42.041281203200086" lon="3.1116188539080474"><ele>4.0</ele><time>2026-05-02T09:36:12.999Z</time></trkpt><trkpt lat="42.04123956066458" lon="3.111703361516449"><ele>4.0</ele><time>2026-05-02T09:36:13.999Z</time></trkpt><trkpt lat="42.041194221729306" lon="3.1117794013351614"><ele>3.9999999999999996</ele><time>2026-05-02T09:36:14.999Z</time></trkpt><trkpt lat="42.04114783988607" lon="3.1118566377124637"><ele>4.0</ele><time>2026-05-02T09:36:15.999Z</time></trkpt><trkpt lat="42.04110096501636" lon="3.11193696105439"><ele>4.0</ele><time>2026-05-02T09:36:16.999Z</time></trkpt><trkpt lat="42.04105976326039" lon="3.112024477093093"><ele>4.333333333333333</ele><time>2026-05-02T09:36:17.999Z</time></trkpt><trkpt lat="42.04102261327318" lon="3.112116111251246"><ele>4.666666666666666</ele><time>2026-05-02T09:36:18.999Z</time></trkpt><trkpt lat="42.040993418069505" lon="3.1122133350663694"><ele>5.0</ele><time>2026-05-02T09:36:19.999Z</time></trkpt><trkpt lat="42.04096561961271" lon="3.1123072929735236"><ele>5.333333333333333</ele><time>2026-05-02T09:36:20.999Z</time></trkpt><trkpt lat="42.040939584161386" lon="3.1124033631596455"><ele>5.666666666666667</ele><time>2026-05-02T09:36:21.999Z</time></trkpt><trkpt lat="42.040916889232484" lon="3.112500180535511"><ele>6.0</ele><time>2026-05-02T09:36:22.999Z</time></trkpt><trkpt lat="42.04089611140956" lon="3.1125962967842593"><ele>6.428571428571428</ele><time>2026-05-02T09:36:23.999Z</time></trkpt><trkpt lat="42.04087567382035" lon="3.1126908393428248"><ele>6.857142857142858</ele><time>2026-05-02T09:36:24.999Z</time></trkpt><trkpt lat="42.04085711488167" lon="3.1127766909523897"><ele>7.2857142857142865</ele><time>2026-05-02T09:36:25.999Z</time></trkpt><trkpt lat="42.04083891529933" lon="3.112860879564238"><ele>7.714285714285714</ele><time>2026-05-02T09:36:26.999Z</time></trkpt><trkpt lat="42.04081871802652" lon="3.1129420184272716"><ele>8.142857142857142</ele><time>2026-05-02T09:36:27.999Z</time></trkpt><trkpt lat="42.040800032599705" lon="3.113023153623141"><ele>8.571428571428573</ele><time>2026-05-02T09:36:28.999Z</time></trkpt><trkpt lat="42.04078111615783" lon="3.113105291987841"><ele>9.0</ele><time>2026-05-02T09:36:29.999Z</time></trkpt><trkpt lat="42.040761473946034" lon="3.1131905818025367"><ele>8.333333333333334</ele><time>2026-05-02T09:36:30.999Z</time></trkpt><trkpt lat="42.040742047721196" lon="3.113274933761207"><ele>7.666666666666667</ele><time>2026-05-02T09:36:31.999Z</time></trkpt><trkpt lat="42.0407214397627" lon="3.11336105509858"><ele>7.0</ele><time>2026-05-02T09:36:32.999Z</time></trkpt><trkpt lat="42.04070189992089" lon="3.1134418407576705"><ele>6.333333333333334</ele><time>2026-05-02T09:36:33.999Z</time></trkpt><trkpt lat="42.04068207819664" lon="3.1135237919005525"><ele>5.666666666666667</ele><time>2026-05-02T09:36:34.999Z</time></trkpt><trkpt lat="42.04063746673523" lon="3.1136850971690944"><ele>5.0</ele><time>2026-05-02T09:36:37Z</time></trkpt><trkpt lat="42.04061301541444" lon="3.113768423458387"><ele>5.0</ele><time>2026-05-02T09:36:38Z</time></trkpt><trkpt lat="42.040588003667175" lon="3.1138494723101857"><ele>5.0</ele><time>2026-05-02T09:36:39Z</time></trkpt><trkpt lat="42.04056311174533" lon="3.1139301328278473"><ele>5.0</ele><time>2026-05-02T09:36:40Z</time></trkpt><trkpt lat="42.040538366624126" lon="3.114010317659886"><ele>5.0</ele><time>2026-05-02T09:36:41Z</time></trkpt><trkpt lat="42.04051250284287" lon="3.1140904195511694"><ele>5.0</ele><time>2026-05-02T09:36:42Z</time></trkpt><trkpt lat="42.04048524977738" lon="3.1141749119247133"><ele>5.0</ele><time>2026-05-02T09:36:43Z</time></trkpt><trkpt lat="42.0404591134618" lon="3.1142540168881148"><ele>5.0</ele><time>2026-05-02T09:36:44Z</time></trkpt><trkpt lat="42.04043194895156" lon="3.1143335531818885"><ele>5.166666666666667</ele><time>2026-05-02T09:36:45Z</time></trkpt><trkpt lat="42.040374033648064" lon="3.1144891044491123"><ele>5.333333333333334</ele><time>2026-05-02T09:36:47Z</time></trkpt><trkpt lat="42.040344960384814" lon="3.1145661824045905"><ele>5.5</ele><time>2026-05-02T09:36:48Z</time></trkpt><trkpt lat="42.040316613236186" lon="3.1146440764424965"><ele>5.666666666666667</ele><time>2026-05-02T09:36:49Z</time></trkpt><trkpt lat="42.04028839449832" lon="3.1147246117528815"><ele>5.833333333333333</ele><time>2026-05-02T09:36:50Z</time></trkpt><trkpt lat="42.04025942840083" lon="3.1148072799158752"><ele>6.0</ele><time>2026-05-02T09:36:51Z</time></trkpt><trkpt lat="42.04023039334009" lon="3.1148901449357873"><ele>5.999999999999999</ele><time>2026-05-02T09:36:52Z</time></trkpt><trkpt lat="42.04020067342052" lon="3.1149749645638387"><ele>6.0</ele><time>2026-05-02T09:36:53Z</time></trkpt><trkpt lat="42.0401721640468" lon="3.1150563293126035"><ele>6.0</ele><time>2026-05-02T09:36:54Z</time></trkpt><trkpt lat="42.04014365576804" lon="3.1151371832967825"><ele>6.0</ele><time>2026-05-02T09:36:55Z</time></trkpt><trkpt lat="42.04011343235739" lon="3.115222056814392"><ele>6.0</ele><time>2026-05-02T09:36:56Z</time></trkpt><trkpt lat="42.040083192527746" lon="3.1153069763203414"><ele>5.999999999999999</ele><time>2026-05-02T09:36:57Z</time></trkpt><trkpt lat="42.04005335703506" lon="3.115390760478797"><ele>6.0</ele><time>2026-05-02T09:36:58Z</time></trkpt><trkpt lat="42.04002169619124" lon="3.1154796705881886"><ele>5.999999999999999</ele><time>2026-05-02T09:36:59Z</time></trkpt><trkpt lat="42.03999084247951" lon="3.115566313982947"><ele>6.0</ele><time>2026-05-02T09:37:00Z</time></trkpt><trkpt lat="42.039959116754936" lon="3.115655406312566"><ele>6.0</ele><time>2026-05-02T09:37:01Z</time></trkpt><trkpt lat="42.03992755396496" lon="3.11574404103802"><ele>6.0</ele><time>2026-05-02T09:37:02Z</time></trkpt><trkpt lat="42.03989693801606" lon="3.1158300167923514"><ele>6.0</ele><time>2026-05-02T09:37:03Z</time></trkpt><trkpt lat="42.039865307756024" lon="3.1159148429605428"><ele>5.999999999999999</ele><time>2026-05-02T09:37:04Z</time></trkpt><trkpt lat="42.03983315586996" lon="3.1159984095485838"><ele>6.0</ele><time>2026-05-02T09:37:05Z</time></trkpt><trkpt lat="42.03980088973716" lon="3.116079623181046"><ele>6.0</ele><time>2026-05-02T09:37:06Z</time></trkpt><trkpt lat="42.039740433778235" lon="3.116221910314811"><ele>6.0</ele><time>2026-05-02T09:37:08Z</time></trkpt><trkpt lat="42.03967525487656" lon="3.116373103938967"><ele>6.0</ele><time>2026-05-02T09:37:10Z</time></trkpt><trkpt lat="42.03964100028623" lon="3.1164525633777305"><ele>6.0</ele><time>2026-05-02T09:37:11Z</time></trkpt><trkpt lat="42.0396089170347" lon="3.1165269859734863"><ele>6.0</ele><time>2026-05-02T09:37:12Z</time></trkpt><trkpt lat="42.03957664842389" lon="3.1166018385720884"><ele>6.0</ele><time>2026-05-02T09:37:13Z</time></trkpt><trkpt lat="42.0395145918722" lon="3.1167479138228846"><ele>6.0</ele><time>2026-05-02T09:37:15Z</time></trkpt><trkpt lat="42.039456440335854" lon="3.1168940977092348"><ele>6.0</ele><time>2026-05-02T09:37:17Z</time></trkpt><trkpt lat="42.039405753390746" lon="3.1170243581843673"><ele>6.0</ele><time>2026-05-02T09:37:19Z</time></trkpt><trkpt lat="42.0393496238512" lon="3.1171640479972544"><ele>6.0</ele><time>2026-05-02T09:37:21Z</time></trkpt><trkpt lat="42.039286969317814" lon="3.1173080421743813"><ele>5.999999999999999</ele><time>2026-05-02T09:37:23Z</time></trkpt><trkpt lat="42.039235404891606" lon="3.1174533620169425"><ele>6.0</ele><time>2026-05-02T09:37:25Z</time></trkpt><trkpt lat="42.039197530584694" lon="3.1175227965829864"><ele>6.0</ele><time>2026-05-02T09:37:26Z</time></trkpt><trkpt lat="42.03916286371178" lon="3.1175946285589555"><ele>6.0</ele><time>2026-05-02T09:37:27Z</time></trkpt><trkpt lat="42.039129901024666" lon="3.117673008260423"><ele>6.0</ele><time>2026-05-02T09:37:28Z</time></trkpt><trkpt lat="42.03908443426814" lon="3.117738521560893"><ele>5.999999999999999</ele><time>2026-05-02T09:37:29Z</time></trkpt><trkpt lat="42.039046838429584" lon="3.117814207017436"><ele>6.0</ele><time>2026-05-02T09:37:30Z</time></trkpt><trkpt lat="42.03900837376831" lon="3.117891641531462"><ele>5.999999999999999</ele><time>2026-05-02T09:37:31Z</time></trkpt><trkpt lat="42.03896952618918" lon="3.1179698469027235"><ele>6.0</ele><time>2026-05-02T09:37:32Z</time></trkpt><trkpt lat="42.0389305572911" lon="3.1180482964552017"><ele>6.0</ele><time>2026-05-02T09:37:33Z</time></trkpt><trkpt lat="42.038892110758674" lon="3.1181256944492772"><ele>6.0</ele><time>2026-05-02T09:37:34Z</time></trkpt><trkpt lat="42.03885321101257" lon="3.1182040048029616"><ele>6.0</ele><time>2026-05-02T09:37:35Z</time></trkpt><trkpt lat="42.038814187536566" lon="3.1182825643285756"><ele>5.999999999999999</ele><time>2026-05-02T09:37:36Z</time></trkpt><trkpt lat="42.03877462202523" lon="3.1183632824815612"><ele>6.0</ele><time>2026-05-02T09:37:37Z</time></trkpt><trkpt lat="42.0387363189231" lon="3.1184423899599"><ele>6.0</ele><time>2026-05-02T09:37:38Z</time></trkpt><trkpt lat="42.038699265148566" lon="3.1185189172066563"><ele>6.0</ele><time>2026-05-02T09:37:39Z</time></trkpt><trkpt lat="42.038665211437575" lon="3.1185924070316866"><ele>6.0</ele><time>2026-05-02T09:37:40Z</time></trkpt><trkpt lat="42.038600037474595" lon="3.118736761808932"><ele>6.0</ele><time>2026-05-02T09:37:42Z</time></trkpt><trkpt lat="42.0385372641063" lon="3.1188807176693727"><ele>6.0</ele><time>2026-05-02T09:37:44Z</time></trkpt><trkpt lat="42.038480224197436" lon="3.1190165006346118"><ele>6.0</ele><time>2026-05-02T09:37:46Z</time></trkpt><trkpt lat="42.038435316141715" lon="3.1191269407182163"><ele>6.0</ele><time>2026-05-02T09:37:48Z</time></trkpt><trkpt lat="42.03851604528796" lon="3.119330756493476"><ele>6.0</ele><time>2026-05-02T09:37:50Z</time></trkpt><trkpt lat="42.038609996688905" lon="3.119446240214827"><ele>6.0</ele><time>2026-05-02T09:37:51.999Z</time></trkpt><trkpt lat="42.03863918473257" lon="3.1195249184193163"><ele>6.0</ele><time>2026-05-02T09:37:52.999Z</time></trkpt><trkpt lat="42.0387178402396" lon="3.119652519866404"><ele>6.0</ele><time>2026-05-02T09:37:54.999Z</time></trkpt><trkpt lat="42.03878512575232" lon="3.119780344016721"><ele>6.0</ele><time>2026-05-02T09:37:56.999Z</time></trkpt><trkpt lat="42.038845325463534" lon="3.119899077850637"><ele>6.0</ele><time>2026-05-02T09:37:58.999Z</time></trkpt><trkpt lat="42.03890121634696" lon="3.119997180855232"><ele>6.0</ele><time>2026-05-02T09:38:00.999Z</time></trkpt><trkpt lat="42.03883813838081" lon="3.120089056737084"><ele>6.0</ele><time>2026-05-02T09:38:02.999Z</time></trkpt><trkpt lat="42.038791022025116" lon="3.1201920215307895"><ele>6.0</ele><time>2026-05-02T09:38:04.999Z</time></trkpt><trkpt lat="42.03873423885325" lon="3.120315809921149"><ele>6.0</ele><time>2026-05-02T09:38:06.999Z</time></trkpt><trkpt lat="42.03867255890034" lon="3.1204502733441877"><ele>6.0</ele><time>2026-05-02T09:38:08.999Z</time></trkpt><trkpt lat="42.03860755536993" lon="3.1205916956479878"><ele>6.0</ele><time>2026-05-02T09:38:10.999Z</time></trkpt><trkpt lat="42.03857334188052" lon="3.1206646483179035"><ele>6.25</ele><time>2026-05-02T09:38:11.999Z</time></trkpt><trkpt lat="42.03850957687785" lon="3.120800613084439"><ele>6.5</ele><time>2026-05-02T09:38:13.999Z</time></trkpt><trkpt lat="42.03844871501897" lon="3.1209303874997594"><ele>6.75</ele><time>2026-05-02T09:38:15.999Z</time></trkpt><trkpt lat="42.03838678637778" lon="3.1210624365903152"><ele>7.0</ele><time>2026-05-02T09:38:17.999Z</time></trkpt><trkpt lat="42.03832686650239" lon="3.1211902024417535"><ele>6.75</ele><time>2026-05-02T09:38:19.999Z</time></trkpt><trkpt lat="42.03826646104502" lon="3.1213190036902683"><ele>6.5</ele><time>2026-05-02T09:38:21.999Z</time></trkpt><trkpt lat="42.03820365297111" lon="3.121452927969778"><ele>6.25</ele><time>2026-05-02T09:38:23.999Z</time></trkpt><trkpt lat="42.038140035044265" lon="3.121588579108065"><ele>6.0</ele><time>2026-05-02T09:38:25.999Z</time></trkpt><trkpt lat="42.03807926462971" lon="3.1217181585399367"><ele>6.0</ele><time>2026-05-02T09:38:27.999Z</time></trkpt><trkpt lat="42.03801448768212" lon="3.1218562810267896"><ele>6.0</ele><time>2026-05-02T09:38:29.999Z</time></trkpt><trkpt lat="42.037946209971324" lon="3.122001868094028"><ele>6.0</ele><time>2026-05-02T09:38:31.999Z</time></trkpt><trkpt lat="42.037911504624375" lon="3.12207586956419"><ele>6.0</ele><time>2026-05-02T09:38:32.999Z</time></trkpt><trkpt lat="42.03787606560267" lon="3.1221514354188638"><ele>6.0</ele><time>2026-05-02T09:38:33.999Z</time></trkpt><trkpt lat="42.037839817023965" lon="3.1222287274897007"><ele>6.0</ele><time>2026-05-02T09:38:34.999Z</time></trkpt><trkpt lat="42.037801890145055" lon="3.1223095981510585"><ele>5.999999999999999</ele><time>2026-05-02T09:38:35.999Z</time></trkpt><trkpt lat="42.037763837566345" lon="3.122390257034568"><ele>6.0</ele><time>2026-05-02T09:38:36.999Z</time></trkpt><trkpt lat="42.03772720738022" lon="3.1224675634055274"><ele>6.0</ele><time>2026-05-02T09:38:37.999Z</time></trkpt><trkpt lat="42.0376891807757" lon="3.122547816824397"><ele>6.0</ele><time>2026-05-02T09:38:38.999Z</time></trkpt><trkpt lat="42.03765035518414" lon="3.1226297564842795"><ele>6.0</ele><time>2026-05-02T09:38:39.999Z</time></trkpt><trkpt lat="42.037611467175914" lon="3.1227118278901873"><ele>5.999999999999999</ele><time>2026-05-02T09:38:41Z</time></trkpt><trkpt lat="42.03757248296156" lon="3.122794102314513"><ele>6.0</ele><time>2026-05-02T09:38:42Z</time></trkpt><trkpt lat="42.03753326643675" lon="3.1228768670300022"><ele>5.999999999999999</ele><time>2026-05-02T09:38:43Z</time></trkpt><trkpt lat="42.03749491953715" lon="3.1229579168201758"><ele>6.0</ele><time>2026-05-02T09:38:44Z</time></trkpt><trkpt lat="42.03745772867494" lon="3.1230379056582516"><ele>6.0</ele><time>2026-05-02T09:38:45Z</time></trkpt><trkpt lat="42.03742205863895" lon="3.123114623548033"><ele>6.0</ele><time>2026-05-02T09:38:46Z</time></trkpt><trkpt lat="42.03738647395044" lon="3.1231911578745204"><ele>6.0</ele><time>2026-05-02T09:38:47Z</time></trkpt><trkpt lat="42.03734866701517" lon="3.1232724717217746"><ele>5.999999999999999</ele><time>2026-05-02T09:38:48Z</time></trkpt><trkpt lat="42.03731020535362" lon="3.1233551937518107"><ele>6.0</ele><time>2026-05-02T09:38:49Z</time></trkpt><trkpt lat="42.037270973762304" lon="3.123439571725004"><ele>5.7142857142857135</ele><time>2026-05-02T09:38:50Z</time></trkpt><trkpt lat="42.037232011595336" lon="3.123523370234639"><ele>5.428571428571429</ele><time>2026-05-02T09:38:51Z</time></trkpt><trkpt lat="42.037193144066286" lon="3.1236069651822675"><ele>5.142857142857142</ele><time>2026-05-02T09:38:52Z</time></trkpt><trkpt lat="42.03715385646764" lon="3.1236914636035737"><ele>4.857142857142857</ele><time>2026-05-02T09:38:53Z</time></trkpt><trkpt lat="42.03711342381967" lon="3.1237784247684823"><ele>4.571428571428571</ele><time>2026-05-02T09:38:54Z</time></trkpt><trkpt lat="42.037074652995244" lon="3.123861811669648"><ele>4.285714285714286</ele><time>2026-05-02T09:38:55Z</time></trkpt><trkpt lat="42.037034952838134" lon="3.1239471974552573"><ele>4.0</ele><time>2026-05-02T09:38:56Z</time></trkpt><trkpt lat="42.03699459790181" lon="3.1240339915506055"><ele>4.4</ele><time>2026-05-02T09:38:57Z</time></trkpt><trkpt lat="42.036955057865136" lon="3.1241190332825295"><ele>4.800000000000001</ele><time>2026-05-02T09:38:58Z</time></trkpt><trkpt lat="42.03691802606086" lon="3.1241957667646014"><ele>5.199999999999999</ele><time>2026-05-02T09:38:59Z</time></trkpt><trkpt lat="42.0368491730045" lon="3.1243385776652457"><ele>5.6</ele><time>2026-05-02T09:39:01Z</time></trkpt><trkpt lat="42.03677762088607" lon="3.124484179197454"><ele>6.0</ele><time>2026-05-02T09:39:03Z</time></trkpt><trkpt lat="42.036749672188705" lon="3.1245707206687285"><ele>6.0</ele><time>2026-05-02T09:39:04Z</time></trkpt><trkpt lat="42.0367091390089" lon="3.1246364184336297"><ele>6.0</ele><time>2026-05-02T09:39:05Z</time></trkpt><trkpt lat="42.03664171886547" lon="3.1247842872220835"><ele>6.0</ele><time>2026-05-02T09:39:07Z</time></trkpt><trkpt lat="42.036573885899884" lon="3.1249333602267195"><ele>6.0</ele><time>2026-05-02T09:39:09Z</time></trkpt><trkpt lat="42.03652538944743" lon="3.124993977204707"><ele>6.0</ele><time>2026-05-02T09:39:10Z</time></trkpt><trkpt lat="42.03648800678129" lon="3.125068258453393"><ele>5.857142857142857</ele><time>2026-05-02T09:39:11Z</time></trkpt><trkpt lat="42.03644882290795" lon="3.1251480324418353"><ele>5.714285714285714</ele><time>2026-05-02T09:39:12Z</time></trkpt><trkpt lat="42.03640986480091" lon="3.1252297642682043"><ele>5.571428571428571</ele><time>2026-05-02T09:39:13Z</time></trkpt><trkpt lat="42.03637194790033" lon="3.1253093117460797"><ele>5.428571428571429</ele><time>2026-05-02T09:39:14Z</time></trkpt><trkpt lat="42.03633445585317" lon="3.1253899136540206"><ele>5.285714285714286</ele><time>2026-05-02T09:39:15Z</time></trkpt><trkpt lat="42.03629975333335" lon="3.1254695859757327"><ele>5.142857142857142</ele><time>2026-05-02T09:39:16Z</time></trkpt><trkpt lat="42.03626919505083" lon="3.125555203405854"><ele>5.0</ele><time>2026-05-02T09:39:17Z</time></trkpt><trkpt lat="42.03624875225159" lon="3.1256466535156346"><ele>5.166666666666667</ele><time>2026-05-02T09:39:18Z</time></trkpt><trkpt lat="42.03625214446862" lon="3.1257498591941926"><ele>5.333333333333334</ele><time>2026-05-02T09:39:19Z</time></trkpt><trkpt lat="42.03628277563824" lon="3.1258452726708708"><ele>5.5</ele><time>2026-05-02T09:39:20Z</time></trkpt><trkpt lat="42.036319515872115" lon="3.125931099325272"><ele>5.666666666666667</ele><time>2026-05-02T09:39:21Z</time></trkpt><trkpt lat="42.036366170932475" lon="3.125996725080579"><ele>5.833333333333333</ele><time>2026-05-02T09:39:22Z</time></trkpt><trkpt lat="42.036421194979326" lon="3.1260456484381223"><ele>6.0</ele><time>2026-05-02T09:39:23Z</time></trkpt><trkpt lat="42.03652120694211" lon="3.126144905888186"><ele>6.0</ele><time>2026-05-02T09:39:25Z</time></trkpt><trkpt lat="42.03660943068475" lon="3.1262321608753068"><ele>6.0</ele><time>2026-05-02T09:39:27Z</time></trkpt><trkpt lat="42.036693330822295" lon="3.126267831773329"><ele>6.0</ele><time>2026-05-02T09:39:29Z</time></trkpt><trkpt lat="42.03672070034326" lon="3.1263456074506806"><ele>6.0</ele><time>2026-05-02T09:39:31Z</time></trkpt><trkpt lat="42.036666086611724" lon="3.126408901613217"><ele>6.0</ele><time>2026-05-02T09:39:33Z</time></trkpt><trkpt lat="42.03659398382139" lon="3.1263478078153564"><ele>6.0</ele><time>2026-05-02T09:39:37Z</time></trkpt><trkpt lat="42.036518579766565" lon="3.1263080584386596"><ele>6.0</ele><time>2026-05-02T09:39:39Z</time></trkpt><trkpt lat="42.036425784772256" lon="3.126230855871626"><ele>6.0</ele><time>2026-05-02T09:39:41Z</time></trkpt><trkpt lat="42.03632295469579" lon="3.126153602425596"><ele>6.0</ele><time>2026-05-02T09:39:43Z</time></trkpt><trkpt lat="42.03626611057161" lon="3.126115990391995"><ele>6.0</ele><time>2026-05-02T09:39:44Z</time></trkpt><trkpt lat="42.036209311316604" lon="3.126078939617805"><ele>6.0</ele><time>2026-05-02T09:39:45Z</time></trkpt><trkpt lat="42.03610271576127" lon="3.126003499464117"><ele>6.0</ele><time>2026-05-02T09:39:47Z</time></trkpt><trkpt lat="42.03600814127226" lon="3.1259202422474073"><ele>6.0</ele><time>2026-05-02T09:39:49Z</time></trkpt><trkpt lat="42.03590394953045" lon="3.1258460653364475"><ele>6.0</ele><time>2026-05-02T09:39:51Z</time></trkpt><trkpt lat="42.03580277601099" lon="3.125780039491245"><ele>6.0</ele><time>2026-05-02T09:39:53Z</time></trkpt><trkpt lat="42.035703049074556" lon="3.125708294222801"><ele>5.333333333333333</ele><time>2026-05-02T09:39:55Z</time></trkpt><trkpt lat="42.03559600433637" lon="3.125631213265273"><ele>4.666666666666667</ele><time>2026-05-02T09:39:56.999Z</time></trkpt><trkpt lat="42.03548938250589" lon="3.125553237434465"><ele>4.0</ele><time>2026-05-02T09:39:58.999Z</time></trkpt><trkpt lat="42.035434237251486" lon="3.1255113210561714"><ele>3.333333333333333</ele><time>2026-05-02T09:39:59.999Z</time></trkpt><trkpt lat="42.035379155126066" lon="3.125468244049004"><ele>2.6666666666666665</ele><time>2026-05-02T09:40:00.999Z</time></trkpt><trkpt lat="42.03532104621597" lon="3.1254261751001433"><ele>2.0</ele><time>2026-05-02T09:40:01.999Z</time></trkpt><trkpt lat="42.03526352459879" lon="3.125384204938892"><ele>2.0</ele><time>2026-05-02T09:40:02.999Z</time></trkpt><trkpt lat="42.03515659225707" lon="3.1253027043114523"><ele>2.0</ele><time>2026-05-02T09:40:04.999Z</time></trkpt><trkpt lat="42.03505017142574" lon="3.1252234202722358"><ele>2.0</ele><time>2026-05-02T09:40:06.999Z</time></trkpt><trkpt lat="42.034950056982844" lon="3.1251495432472733"><ele>2.0</ele><time>2026-05-02T09:40:08.999Z</time></trkpt><trkpt lat="42.03485691143215" lon="3.125079302755612"><ele>3.0</ele><time>2026-05-02T09:40:10.999Z</time></trkpt><trkpt lat="42.03476568961626" lon="3.1250117035544536"><ele>4.0</ele><time>2026-05-02T09:40:12.999Z</time></trkpt><trkpt lat="42.034679374014146" lon="3.124948796907896"><ele>4.999999999999999</ele><time>2026-05-02T09:40:14.999Z</time></trkpt><trkpt lat="42.03461855617259" lon="3.1249163507178332"><ele>6.0</ele><time>2026-05-02T09:40:17.999Z</time></trkpt><trkpt lat="42.03461062412449" lon="3.124824366968064"><ele>7.0</ele><time>2026-05-02T09:40:20.999Z</time></trkpt><trkpt lat="42.0346994081717" lon="3.1247040944296063"><ele>7.000000000000001</ele><time>2026-05-02T09:40:22.999Z</time></trkpt><trkpt lat="42.0347376923286" lon="3.124620498322189"><ele>7.0</ele><time>2026-05-02T09:40:23.999Z</time></trkpt><trkpt lat="42.03478447261348" lon="3.1245319086849976"><ele>7.0</ele><time>2026-05-02T09:40:24.999Z</time></trkpt><trkpt lat="42.03483462090792" lon="3.1244448564636955"><ele>7.0</ele><time>2026-05-02T09:40:25.999Z</time></trkpt><trkpt lat="42.03487905913178" lon="3.1243646778224083"><ele>7.000000000000001</ele><time>2026-05-02T09:40:26.999Z</time></trkpt><trkpt lat="42.034929958802955" lon="3.124285043131262"><ele>7.0</ele><time>2026-05-02T09:40:27.999Z</time></trkpt><trkpt lat="42.03497774646145" lon="3.124193326096589"><ele>6.833333333333334</ele><time>2026-05-02T09:40:28.999Z</time></trkpt><trkpt lat="42.03502466788226" lon="3.124098883312104"><ele>6.666666666666667</ele><time>2026-05-02T09:40:29.999Z</time></trkpt><trkpt lat="42.03507067810427" lon="3.1240010491981027"><ele>6.5</ele><time>2026-05-02T09:40:30.999Z</time></trkpt><trkpt lat="42.03511324962926" lon="3.123909371427246"><ele>6.333333333333334</ele><time>2026-05-02T09:40:31.999Z</time></trkpt><trkpt lat="42.035155340349235" lon="3.123813746109588"><ele>6.166666666666667</ele><time>2026-05-02T09:40:32.999Z</time></trkpt><trkpt lat="42.03519896660327" lon="3.1237142656833705"><ele>6.0</ele><time>2026-05-02T09:40:33.999Z</time></trkpt><trkpt lat="42.03524032103321" lon="3.123617566038521"><ele>6.0</ele><time>2026-05-02T09:40:34.999Z</time></trkpt><trkpt lat="42.0352832036692" lon="3.123520104032656"><ele>6.0</ele><time>2026-05-02T09:40:35.999Z</time></trkpt><trkpt lat="42.0353268192038" lon="3.123420962774736"><ele>6.0</ele><time>2026-05-02T09:40:36.999Z</time></trkpt><trkpt lat="42.03536841639674" lon="3.123318182292433"><ele>6.0</ele><time>2026-05-02T09:40:37.999Z</time></trkpt><trkpt lat="42.0354137543185" lon="3.1232196185056433"><ele>6.0</ele><time>2026-05-02T09:40:38.999Z</time></trkpt><trkpt lat="42.0354544498516" lon="3.123120791804051"><ele>6.0</ele><time>2026-05-02T09:40:39.999Z</time></trkpt><trkpt lat="42.03549022482143" lon="3.1230217398247753"><ele>6.166666666666667</ele><time>2026-05-02T09:40:40.999Z</time></trkpt><trkpt lat="42.03552726718839" lon="3.1229259661182547"><ele>6.333333333333334</ele><time>2026-05-02T09:40:41.999Z</time></trkpt><trkpt lat="42.03556392057913" lon="3.122833844117707"><ele>6.5</ele><time>2026-05-02T09:40:42.999Z</time></trkpt><trkpt lat="42.03559806503956" lon="3.122740560259675"><ele>6.666666666666667</ele><time>2026-05-02T09:40:43.999Z</time></trkpt><trkpt lat="42.03563003114481" lon="3.122649357315884"><ele>6.833333333333334</ele><time>2026-05-02T09:40:44.999Z</time></trkpt><trkpt lat="42.03566346855222" lon="3.1225561329604052"><ele>7.0</ele><time>2026-05-02T09:40:45.999Z</time></trkpt><trkpt lat="42.03570202783273" lon="3.122459115067304"><ele>7.000000000000001</ele><time>2026-05-02T09:40:47Z</time></trkpt><trkpt lat="42.0357398127075" lon="3.122359761572146"><ele>7.0</ele><time>2026-05-02T09:40:48Z</time></trkpt><trkpt lat="42.03577574267535" lon="3.1222596037701176"><ele>7.0</ele><time>2026-05-02T09:40:49Z</time></trkpt><trkpt lat="42.035812476997314" lon="3.122161577175772"><ele>7.0</ele><time>2026-05-02T09:40:50Z</time></trkpt><trkpt lat="42.03584955335423" lon="3.1220648766613937"><ele>7.000000000000001</ele><time>2026-05-02T09:40:51Z</time></trkpt><trkpt lat="42.035881913233084" lon="3.1219630662092466"><ele>7.0</ele><time>2026-05-02T09:40:52Z</time></trkpt><trkpt lat="42.03592436364647" lon="3.121860587806371"><ele>7.166666666666667</ele><time>2026-05-02T09:40:53Z</time></trkpt><trkpt lat="42.035967804485345" lon="3.1217596169802677"><ele>7.333333333333334</ele><time>2026-05-02T09:40:54Z</time></trkpt><trkpt lat="42.03600896105518" lon="3.1216597123287597"><ele>7.5</ele><time>2026-05-02T09:40:55Z</time></trkpt><trkpt lat="42.036048187247154" lon="3.121564612516119"><ele>7.666666666666666</ele><time>2026-05-02T09:40:56Z</time></trkpt><trkpt lat="42.036083489641" lon="3.1214664557161362"><ele>7.833333333333333</ele><time>2026-05-02T09:40:57Z</time></trkpt><trkpt lat="42.03611828361286" lon="3.1213670241814224"><ele>8.0</ele><time>2026-05-02T09:40:58Z</time></trkpt><trkpt lat="42.03615449258827" lon="3.1212689377658314"><ele>8.5</ele><time>2026-05-02T09:40:59Z</time></trkpt><trkpt lat="42.03619426248047" lon="3.1211745399695845"><ele>9.0</ele><time>2026-05-02T09:41:00Z</time></trkpt><trkpt lat="42.036232048642525" lon="3.1210786308525775"><ele>9.5</ele><time>2026-05-02T09:41:01Z</time></trkpt><trkpt lat="42.03626677252341" lon="3.120978426955007"><ele>10.0</ele><time>2026-05-02T09:41:02Z</time></trkpt><trkpt lat="42.03630539233059" lon="3.120879546713834"><ele>10.5</ele><time>2026-05-02T09:41:03Z</time></trkpt><trkpt lat="42.03634573765749" lon="3.1207848759408834"><ele>11.0</ele><time>2026-05-02T09:41:04Z</time></trkpt><trkpt lat="42.036385818593885" lon="3.120687552172228"><ele>11.0</ele><time>2026-05-02T09:41:05Z</time></trkpt><trkpt lat="42.03642710993737" lon="3.120600068618278"><ele>11.0</ele><time>2026-05-02T09:41:06Z</time></trkpt><trkpt lat="42.03646790909623" lon="3.1205106732089276"><ele>11.0</ele><time>2026-05-02T09:41:07Z</time></trkpt><trkpt lat="42.036507026910385" lon="3.1204177601657697"><ele>11.0</ele><time>2026-05-02T09:41:08Z</time></trkpt><trkpt lat="42.03655511838308" lon="3.1203235048439177"><ele>11.0</ele><time>2026-05-02T09:41:09Z</time></trkpt><trkpt lat="42.0365978730885" lon="3.120230342973927"><ele>11.0</ele><time>2026-05-02T09:41:10Z</time></trkpt><trkpt lat="42.036643182048145" lon="3.120137283572294"><ele>10.833333333333332</ele><time>2026-05-02T09:41:11Z</time></trkpt><trkpt lat="42.0366803983496" lon="3.1200394246555323"><ele>10.666666666666666</ele><time>2026-05-02T09:41:12Z</time></trkpt><trkpt lat="42.03672445506363" lon="3.1199418012941282"><ele>10.5</ele><time>2026-05-02T09:41:13Z</time></trkpt><trkpt lat="42.036768696135596" lon="3.119850604719874"><ele>10.333333333333334</ele><time>2026-05-02T09:41:14Z</time></trkpt><trkpt lat="42.0368115569464" lon="3.119760776354818"><ele>10.166666666666668</ele><time>2026-05-02T09:41:15Z</time></trkpt><trkpt lat="42.036856678594916" lon="3.1196752021431737"><ele>10.0</ele><time>2026-05-02T09:41:16Z</time></trkpt><trkpt lat="42.03689977618714" lon="3.11958906495618"><ele>10.0</ele><time>2026-05-02T09:41:17Z</time></trkpt><trkpt lat="42.03693881635039" lon="3.119503727707642"><ele>10.0</ele><time>2026-05-02T09:41:18Z</time></trkpt><trkpt lat="42.036976648962614" lon="3.11942386326311"><ele>10.0</ele><time>2026-05-02T09:41:19Z</time></trkpt><trkpt lat="42.037010468667646" lon="3.1193477843482387"><ele>10.0</ele><time>2026-05-02T09:41:20Z</time></trkpt><trkpt lat="42.03704669640584" lon="3.1192687681145506"><ele>10.0</ele><time>2026-05-02T09:41:21Z</time></trkpt><trkpt lat="42.03708481001577" lon="3.119186738181392"><ele>10.0</ele><time>2026-05-02T09:41:22Z</time></trkpt><trkpt lat="42.03712422678657" lon="3.1191038028926212"><ele>10.0</ele><time>2026-05-02T09:41:23Z</time></trkpt><trkpt lat="42.037162283383964" lon="3.119017285373532"><ele>10.0</ele><time>2026-05-02T09:41:24Z</time></trkpt><trkpt lat="42.03719870984494" lon="3.118928821670738"><ele>10.0</ele><time>2026-05-02T09:41:25Z</time></trkpt><trkpt lat="42.03723990175286" lon="3.1188365758290755"><ele>10.0</ele><time>2026-05-02T09:41:26Z</time></trkpt><trkpt lat="42.03727582341312" lon="3.1187455540273"><ele>10.0</ele><time>2026-05-02T09:41:27Z</time></trkpt><trkpt lat="42.03731174310394" lon="3.1186490446312436"><ele>10.0</ele><time>2026-05-02T09:41:28Z</time></trkpt><trkpt lat="42.03734073665816" lon="3.1185439995889785"><ele>10.0</ele><time>2026-05-02T09:41:29Z</time></trkpt><trkpt lat="42.03735891493004" lon="3.1184335979929214"><ele>10.0</ele><time>2026-05-02T09:41:30Z</time></trkpt><trkpt lat="42.03736743793625" lon="3.118316447065423"><ele>10.0</ele><time>2026-05-02T09:41:31Z</time></trkpt><trkpt lat="42.03737154425428" lon="3.118201787149874"><ele>10.0</ele><time>2026-05-02T09:41:32Z</time></trkpt><trkpt lat="42.037371834003636" lon="3.118085471343955"><ele>10.0</ele><time>2026-05-02T09:41:33Z</time></trkpt><trkpt lat="42.037364236971904" lon="3.117966558097066"><ele>10.0</ele><time>2026-05-02T09:41:34Z</time></trkpt><trkpt lat="42.03734959495049" lon="3.117851506868241"><ele>10.0</ele><time>2026-05-02T09:41:35Z</time></trkpt><trkpt lat="42.037322863603734" lon="3.117743307272999"><ele>10.166666666666668</ele><time>2026-05-02T09:41:36Z</time></trkpt><trkpt lat="42.03728639572034" lon="3.11764165060934"><ele>10.333333333333334</ele><time>2026-05-02T09:41:37Z</time></trkpt><trkpt lat="42.03724389812546" lon="3.1175456093726894"><ele>10.5</ele><time>2026-05-02T09:41:38Z</time></trkpt><trkpt lat="42.037204517537674" lon="3.1174477662918387"><ele>10.666666666666666</ele><time>2026-05-02T09:41:39Z</time></trkpt><trkpt lat="42.037160274175335" lon="3.11734996590691"><ele>10.833333333333332</ele><time>2026-05-02T09:41:40Z</time></trkpt><trkpt lat="42.03712139948462" lon="3.1172503424986844"><ele>11.0</ele><time>2026-05-02T09:41:41Z</time></trkpt><trkpt lat="42.03707634039294" lon="3.1171592247044786"><ele>10.333333333333332</ele><time>2026-05-02T09:41:42Z</time></trkpt><trkpt lat="42.03703344464931" lon="3.1170682463574235"><ele>9.666666666666666</ele><time>2026-05-02T09:41:43Z</time></trkpt><trkpt lat="42.03699102086392" lon="3.1169778039751668"><ele>9.0</ele><time>2026-05-02T09:41:44Z</time></trkpt><trkpt lat="42.036944066319535" lon="3.1168855526147103"><ele>8.333333333333334</ele><time>2026-05-02T09:41:45Z</time></trkpt><trkpt lat="42.03689787706372" lon="3.1167942087263696"><ele>7.666666666666667</ele><time>2026-05-02T09:41:46Z</time></trkpt><trkpt lat="42.03685697868655" lon="3.116697826648531"><ele>7.0</ele><time>2026-05-02T09:41:47Z</time></trkpt><trkpt lat="42.03681795237024" lon="3.1165989117697115"><ele>7.000000000000001</ele><time>2026-05-02T09:41:48Z</time></trkpt><trkpt lat="42.03677637523009" lon="3.1165015285077113"><ele>7.0</ele><time>2026-05-02T09:41:49Z</time></trkpt><trkpt lat="42.03673334739395" lon="3.116407242100654"><ele>7.0</ele><time>2026-05-02T09:41:50Z</time></trkpt><trkpt lat="42.036695856629635" lon="3.1163132007686696"><ele>7.0</ele><time>2026-05-02T09:41:51Z</time></trkpt><trkpt lat="42.03666716391839" lon="3.116218008349747"><ele>7.000000000000001</ele><time>2026-05-02T09:41:52Z</time></trkpt><trkpt lat="42.03662874338733" lon="3.116128685913481"><ele>7.0</ele><time>2026-05-02T09:41:53Z</time></trkpt><trkpt lat="42.03658810916111" lon="3.1160404694785657"><ele>7.166666666666667</ele><time>2026-05-02T09:41:54Z</time></trkpt><trkpt lat="42.036547906433995" lon="3.1159533158869146"><ele>7.333333333333334</ele><time>2026-05-02T09:41:55Z</time></trkpt><trkpt lat="42.036507969968035" lon="3.1158643136948596"><ele>7.5</ele><time>2026-05-02T09:41:56Z</time></trkpt><trkpt lat="42.03646798065866" lon="3.115771995154884"><ele>7.666666666666666</ele><time>2026-05-02T09:41:57Z</time></trkpt><trkpt lat="42.036427300938776" lon="3.115680473249005"><ele>7.833333333333333</ele><time>2026-05-02T09:41:58Z</time></trkpt><trkpt lat="42.03638881694621" lon="3.1155881443101094"><ele>8.0</ele><time>2026-05-02T09:41:59Z</time></trkpt><trkpt lat="42.036346921954426" lon="3.1154962726607343"><ele>7.999999999999999</ele><time>2026-05-02T09:42:00Z</time></trkpt><trkpt lat="42.036298459081515" lon="3.11540830236599"><ele>8.0</ele><time>2026-05-02T09:42:01Z</time></trkpt><trkpt lat="42.03625340105469" lon="3.1153178904630887"><ele>8.0</ele><time>2026-05-02T09:42:02Z</time></trkpt><trkpt lat="42.03621517715526" lon="3.1152249897812148"><ele>8.0</ele><time>2026-05-02T09:42:03Z</time></trkpt><trkpt lat="42.036177398299905" lon="3.1151368315702417"><ele>7.999999999999999</ele><time>2026-05-02T09:42:04Z</time></trkpt><trkpt lat="42.03613736854672" lon="3.115048333809421"><ele>8.0</ele><time>2026-05-02T09:42:05Z</time></trkpt><trkpt lat="42.036103841114965" lon="3.1149568434800865"><ele>7.833333333333333</ele><time>2026-05-02T09:42:06Z</time></trkpt><trkpt lat="42.036065675722845" lon="3.1148637406244775"><ele>7.666666666666666</ele><time>2026-05-02T09:42:07Z</time></trkpt><trkpt lat="42.036022505014074" lon="3.1147710770854986"><ele>7.5</ele><time>2026-05-02T09:42:08Z</time></trkpt><trkpt lat="42.03597942153637" lon="3.1146799164400205"><ele>7.333333333333334</ele><time>2026-05-02T09:42:09Z</time></trkpt><trkpt lat="42.03593577711214" lon="3.114584440580303"><ele>7.166666666666667</ele><time>2026-05-02T09:42:09.999Z</time></trkpt><trkpt lat="42.03589321673118" lon="3.114488210924196"><ele>7.0</ele><time>2026-05-02T09:42:10.999Z</time></trkpt><trkpt lat="42.03585251444946" lon="3.114390482264578"><ele>7.000000000000001</ele><time>2026-05-02T09:42:11.999Z</time></trkpt><trkpt lat="42.03581915002288" lon="3.1142918796973706"><ele>7.0</ele><time>2026-05-02T09:42:12.999Z</time></trkpt><trkpt lat="42.03578501329575" lon="3.1141942125129622"><ele>7.0</ele><time>2026-05-02T09:42:13.999Z</time></trkpt><trkpt lat="42.03574587538767" lon="3.114096307637622"><ele>7.0</ele><time>2026-05-02T09:42:14.999Z</time></trkpt><trkpt lat="42.03570141920965" lon="3.113996554296488"><ele>7.000000000000001</ele><time>2026-05-02T09:42:15.999Z</time></trkpt><trkpt lat="42.035655666507026" lon="3.1138982333663554"><ele>7.0</ele><time>2026-05-02T09:42:16.999Z</time></trkpt><trkpt lat="42.035613781674925" lon="3.1137959654014193"><ele>6.833333333333334</ele><time>2026-05-02T09:42:17.999Z</time></trkpt><trkpt lat="42.03557056084933" lon="3.1136965886372505"><ele>6.666666666666667</ele><time>2026-05-02T09:42:18.999Z</time></trkpt><trkpt lat="42.0355256478706" lon="3.113599291152944"><ele>6.5</ele><time>2026-05-02T09:42:19.999Z</time></trkpt><trkpt lat="42.03548396024402" lon="3.113499152642298"><ele>6.333333333333334</ele><time>2026-05-02T09:42:20.999Z</time></trkpt><trkpt lat="42.035443168353645" lon="3.1134069119447307"><ele>6.166666666666667</ele><time>2026-05-02T09:42:21.999Z</time></trkpt><trkpt lat="42.03540278009481" lon="3.1133151913317505"><ele>6.0</ele><time>2026-05-02T09:42:22.999Z</time></trkpt><trkpt lat="42.03536330125412" lon="3.1132211831570538"><ele>6.0</ele><time>2026-05-02T09:42:23.999Z</time></trkpt><trkpt lat="42.03532267464323" lon="3.1131252995347647"><ele>6.0</ele><time>2026-05-02T09:42:24.999Z</time></trkpt><trkpt lat="42.03528081737293" lon="3.1130277953368086"><ele>6.0</ele><time>2026-05-02T09:42:25.999Z</time></trkpt><trkpt lat="42.03523670343083" lon="3.1129298011686295"><ele>6.0</ele><time>2026-05-02T09:42:26.999Z</time></trkpt><trkpt lat="42.035194601600686" lon="3.1128283194925164"><ele>6.0</ele><time>2026-05-02T09:42:27.999Z</time></trkpt><trkpt lat="42.03515623941841" lon="3.1127275007533264"><ele>6.0</ele><time>2026-05-02T09:42:28.999Z</time></trkpt><trkpt lat="42.03511449072328" lon="3.1126273040739134"><ele>6.0</ele><time>2026-05-02T09:42:29.999Z</time></trkpt><trkpt lat="42.03506968751377" lon="3.1125320726900703"><ele>6.0</ele><time>2026-05-02T09:42:30.999Z</time></trkpt><trkpt lat="42.03503154271415" lon="3.1124405740082723"><ele>6.0</ele><time>2026-05-02T09:42:31.999Z</time></trkpt><trkpt lat="42.0349903049698" lon="3.1123485759199"><ele>6.0</ele><time>2026-05-02T09:42:32.999Z</time></trkpt><trkpt lat="42.034949740098455" lon="3.112255262355549"><ele>6.0</ele><time>2026-05-02T09:42:33.999Z</time></trkpt><trkpt lat="42.034907238364724" lon="3.1121625943263393"><ele>6.0</ele><time>2026-05-02T09:42:34.999Z</time></trkpt><trkpt lat="42.03486403209634" lon="3.1120694144888574"><ele>6.166666666666667</ele><time>2026-05-02T09:42:35.999Z</time></trkpt><trkpt lat="42.03482266695616" lon="3.111977162217812"><ele>6.333333333333334</ele><time>2026-05-02T09:42:36.999Z</time></trkpt><trkpt lat="42.0347823468706" lon="3.111880960497062"><ele>6.5</ele><time>2026-05-02T09:42:37.999Z</time></trkpt><trkpt lat="42.03474499178978" lon="3.111785643114415"><ele>6.666666666666667</ele><time>2026-05-02T09:42:38.999Z</time></trkpt><trkpt lat="42.03470338814398" lon="3.1116939396865395"><ele>6.833333333333334</ele><time>2026-05-02T09:42:39.999Z</time></trkpt><trkpt lat="42.034660385559995" lon="3.111598575378414"><ele>7.0</ele><time>2026-05-02T09:42:40.999Z</time></trkpt><trkpt lat="42.03461874683521" lon="3.111503014361312"><ele>7.000000000000001</ele><time>2026-05-02T09:42:41.999Z</time></trkpt><trkpt lat="42.034579479305144" lon="3.1114083509018116"><ele>7.0</ele><time>2026-05-02T09:42:42.999Z</time></trkpt><trkpt lat="42.03453679535521" lon="3.11131795070584"><ele>7.0</ele><time>2026-05-02T09:42:43.999Z</time></trkpt><trkpt lat="42.03449428708334" lon="3.111224859547845"><ele>7.0</ele><time>2026-05-02T09:42:44.999Z</time></trkpt><trkpt lat="42.03445246778474" lon="3.111134802080361"><ele>7.000000000000001</ele><time>2026-05-02T09:42:45.999Z</time></trkpt><trkpt lat="42.03441478107774" lon="3.111044851547817"><ele>7.0</ele><time>2026-05-02T09:42:46.999Z</time></trkpt><trkpt lat="42.03437871104987" lon="3.110958739836527"><ele>7.0</ele><time>2026-05-02T09:42:47.999Z</time></trkpt><trkpt lat="42.034341068897874" lon="3.110882158730817"><ele>6.999999999999999</ele><time>2026-05-02T09:42:48.999Z</time></trkpt><trkpt lat="42.03428847690515" lon="3.1107411961967792"><ele>6.999999999999999</ele><time>2026-05-02T09:42:50.999Z</time></trkpt><trkpt lat="42.03423770293233" lon="3.110604368372273"><ele>7.0</ele><time>2026-05-02T09:42:53Z</time></trkpt><trkpt lat="42.03418165545979" lon="3.1104860065165325"><ele>7.0</ele><time>2026-05-02T09:42:55Z</time></trkpt><trkpt lat="42.03413987812411" lon="3.1103844382836647"><ele>7.000000000000001</ele><time>2026-05-02T09:42:57Z</time></trkpt><trkpt lat="42.034102199026414" lon="3.1103050151418943"><ele>7.0</ele><time>2026-05-02T09:42:59Z</time></trkpt><trkpt lat="42.034065163076654" lon="3.1102085262763848"><ele>7.0</ele><time>2026-05-02T09:43:01Z</time></trkpt><trkpt lat="42.03403241334905" lon="3.110125127406498"><ele>7.0</ele><time>2026-05-02T09:43:03Z</time></trkpt><trkpt lat="42.03400340391073" lon="3.110023959974331"><ele>7.000000000000001</ele><time>2026-05-02T09:43:05Z</time></trkpt><trkpt lat="42.03399820468331" lon="3.1098790755270254"><ele>7.0</ele><time>2026-05-02T09:43:08Z</time></trkpt><trkpt lat="42.0339967555439" lon="3.109744374679413"><ele>7.0</ele><time>2026-05-02T09:43:10Z</time></trkpt><trkpt lat="42.03397861592793" lon="3.1095881384092365"><ele>6.999999999999999</ele><time>2026-05-02T09:43:12Z</time></trkpt><trkpt lat="42.03391514539975" lon="3.1094560316248714"><ele>6.999999999999999</ele><time>2026-05-02T09:43:14Z</time></trkpt><trkpt lat="42.03386874906043" lon="3.1093755068433375"><ele>7.0</ele><time>2026-05-02T09:43:15Z</time></trkpt><trkpt lat="42.03381124040101" lon="3.1093077416955333"><ele>7.0</ele><time>2026-05-02T09:43:16Z</time></trkpt><trkpt lat="42.033764660045755" lon="3.1092400059925316"><ele>7.0</ele><time>2026-05-02T09:43:17Z</time></trkpt><trkpt lat="42.03365741669581" lon="3.109233251181286"><ele>6.999999999999999</ele><time>2026-05-02T09:43:18Z</time></trkpt><trkpt lat="42.03361832021669" lon="3.1090812560810392"><ele>6.999999999999999</ele><time>2026-05-02T09:43:20Z</time></trkpt><trkpt lat="42.03358306629203" lon="3.1089900738813023"><ele>7.0</ele><time>2026-05-02T09:43:21Z</time></trkpt><trkpt lat="42.03354403419774" lon="3.1088955279737642"><ele>7.0</ele><time>2026-05-02T09:43:22Z</time></trkpt><trkpt lat="42.03349578186217" lon="3.1088043378484675"><ele>6.833333333333334</ele><time>2026-05-02T09:43:23Z</time></trkpt><trkpt lat="42.03344450386965" lon="3.1087130320655194"><ele>6.666666666666667</ele><time>2026-05-02T09:43:24Z</time></trkpt><trkpt lat="42.03339971234455" lon="3.1086156042227353"><ele>6.5</ele><time>2026-05-02T09:43:25Z</time></trkpt><trkpt lat="42.03335687646321" lon="3.1085159635726276"><ele>6.333333333333334</ele><time>2026-05-02T09:43:26Z</time></trkpt><trkpt lat="42.03331137378782" lon="3.108419548618061"><ele>6.166666666666667</ele><time>2026-05-02T09:43:27Z</time></trkpt><trkpt lat="42.033262920430154" lon="3.108317574639465"><ele>6.0</ele><time>2026-05-02T09:43:28Z</time></trkpt><trkpt lat="42.03321560220425" lon="3.108212833368189"><ele>6.0</ele><time>2026-05-02T09:43:29Z</time></trkpt><trkpt lat="42.033169235452014" lon="3.1081037582272026"><ele>6.0</ele><time>2026-05-02T09:43:30Z</time></trkpt><trkpt lat="42.03312075796671" lon="3.1079976581446154"><ele>6.0</ele><time>2026-05-02T09:43:31Z</time></trkpt><trkpt lat="42.033071810509234" lon="3.1078877383120798"><ele>6.0</ele><time>2026-05-02T09:43:32Z</time></trkpt><trkpt lat="42.033025213056156" lon="3.107775784503871"><ele>6.0</ele><time>2026-05-02T09:43:33Z</time></trkpt><trkpt lat="42.032977405147534" lon="3.107658345918898"><ele>6.0</ele><time>2026-05-02T09:43:34Z</time></trkpt><trkpt lat="42.032928315934356" lon="3.1075443620211973"><ele>6.0</ele><time>2026-05-02T09:43:35Z</time></trkpt><trkpt lat="42.03287318597021" lon="3.1074282857952094"><ele>6.0</ele><time>2026-05-02T09:43:36Z</time></trkpt><trkpt lat="42.03281790763648" lon="3.107315880442458"><ele>6.0</ele><time>2026-05-02T09:43:37Z</time></trkpt><trkpt lat="42.03276796627882" lon="3.1071934340297607"><ele>6.0</ele><time>2026-05-02T09:43:38Z</time></trkpt><trkpt lat="42.03272190367059" lon="3.1070688059854352"><ele>6.0</ele><time>2026-05-02T09:43:39Z</time></trkpt><trkpt lat="42.03267072669747" lon="3.1069473018160947"><ele>6.0</ele><time>2026-05-02T09:43:40Z</time></trkpt><trkpt lat="42.0326145596875" lon="3.1068319443568173"><ele>6.0</ele><time>2026-05-02T09:43:41Z</time></trkpt><trkpt lat="42.03255977294861" lon="3.1067100833214463"><ele>6.0</ele><time>2026-05-02T09:43:42Z</time></trkpt><trkpt lat="42.03250646006934" lon="3.1065898740236"><ele>6.0</ele><time>2026-05-02T09:43:43Z</time></trkpt><trkpt lat="42.03245456015407" lon="3.1064654684965887"><ele>6.0</ele><time>2026-05-02T09:43:44Z</time></trkpt><trkpt lat="42.03240240810754" lon="3.1063485944024385"><ele>6.0</ele><time>2026-05-02T09:43:45Z</time></trkpt><trkpt lat="42.03235459841127" lon="3.1062360918333236"><ele>6.0</ele><time>2026-05-02T09:43:46Z</time></trkpt><trkpt lat="42.032308234896426" lon="3.1061255116424897"><ele>6.0</ele><time>2026-05-02T09:43:47Z</time></trkpt><trkpt lat="42.032260539195" lon="3.106017863480179"><ele>6.0</ele><time>2026-05-02T09:43:48Z</time></trkpt><trkpt lat="42.03221314333184" lon="3.105915283939486"><ele>6.0</ele><time>2026-05-02T09:43:49Z</time></trkpt><trkpt lat="42.032167689345926" lon="3.1058141947910376"><ele>6.0</ele><time>2026-05-02T09:43:50Z</time></trkpt><trkpt lat="42.03212633902444" lon="3.1057118451209917"><ele>6.0</ele><time>2026-05-02T09:43:51Z</time></trkpt><trkpt lat="42.03208324529879" lon="3.105612724673607"><ele>6.0</ele><time>2026-05-02T09:43:52Z</time></trkpt><trkpt lat="42.03204107242738" lon="3.105515944563734"><ele>6.0</ele><time>2026-05-02T09:43:53Z</time></trkpt><trkpt lat="42.03199894284401" lon="3.1054208276540063"><ele>6.0</ele><time>2026-05-02T09:43:54Z</time></trkpt><trkpt lat="42.03195815765776" lon="3.1053240270960374"><ele>6.166666666666667</ele><time>2026-05-02T09:43:55Z</time></trkpt><trkpt lat="42.03191468330358" lon="3.105227022113246"><ele>6.333333333333334</ele><time>2026-05-02T09:43:56Z</time></trkpt><trkpt lat="42.03187136070726" lon="3.1051288178963046"><ele>6.5</ele><time>2026-05-02T09:43:57Z</time></trkpt><trkpt lat="42.031829970132556" lon="3.1050293584913633"><ele>6.666666666666667</ele><time>2026-05-02T09:43:58Z</time></trkpt><trkpt lat="42.03178838039727" lon="3.1049304684642323"><ele>6.833333333333334</ele><time>2026-05-02T09:43:59Z</time></trkpt><trkpt lat="42.03174475764816" lon="3.104835344622624"><ele>7.0</ele><time>2026-05-02T09:44:00Z</time></trkpt><trkpt lat="42.03170258385195" lon="3.1047363082440467"><ele>7.000000000000001</ele><time>2026-05-02T09:44:01Z</time></trkpt><trkpt lat="42.03166112803408" lon="3.104637907719406"><ele>7.0</ele><time>2026-05-02T09:44:02Z</time></trkpt><trkpt lat="42.03161752055633" lon="3.1045394367103554"><ele>7.0</ele><time>2026-05-02T09:44:03Z</time></trkpt><trkpt lat="42.0315736851584" lon="3.1044422912361624"><ele>7.0</ele><time>2026-05-02T09:44:04Z</time></trkpt><trkpt lat="42.03153058568123" lon="3.1043473886982844"><ele>7.000000000000001</ele><time>2026-05-02T09:44:05Z</time></trkpt><trkpt lat="42.03148928014803" lon="3.1042543785435375"><ele>7.0</ele><time>2026-05-02T09:44:06Z</time></trkpt><trkpt lat="42.03144859540903" lon="3.1041624177219553"><ele>7.142857142857142</ele><time>2026-05-02T09:44:07Z</time></trkpt><trkpt lat="42.03140813276137" lon="3.1040719599786306"><ele>7.285714285714286</ele><time>2026-05-02T09:44:08Z</time></trkpt><trkpt lat="42.031370420065954" lon="3.1039815169001153"><ele>7.428571428571429</ele><time>2026-05-02T09:44:09Z</time></trkpt><trkpt lat="42.031332347648814" lon="3.1038917438123983"><ele>7.571428571428571</ele><time>2026-05-02T09:44:10Z</time></trkpt><trkpt lat="42.03129524516725" lon="3.103806584441202"><ele>7.7142857142857135</ele><time>2026-05-02T09:44:11Z</time></trkpt><trkpt lat="42.031258457321606" lon="3.103727648025573"><ele>7.857142857142857</ele><time>2026-05-02T09:44:12Z</time></trkpt><trkpt lat="42.0312244570031" lon="3.103653572746785"><ele>8.0</ele><time>2026-05-02T09:44:13Z</time></trkpt><trkpt lat="42.03114020016823" lon="3.1035262127970213"><ele>8.0</ele><time>2026-05-02T09:44:15Z</time></trkpt><trkpt lat="42.031029150286436" lon="3.1034418854174923"><ele>8.0</ele><time>2026-05-02T09:44:17Z</time></trkpt><trkpt lat="42.030932638082405" lon="3.103345084527988"><ele>8.0</ele><time>2026-05-02T09:44:19Z</time></trkpt><trkpt lat="42.03082069764469" lon="3.103284749247425"><ele>8.0</ele><time>2026-05-02T09:44:21Z</time></trkpt><trkpt lat="42.03075321163994" lon="3.103283039134892"><ele>8.0</ele><time>2026-05-02T09:44:22Z</time></trkpt><trkpt lat="42.0306563931196" lon="3.1032974048678104"><ele>7.999999999999999</ele><time>2026-05-02T09:44:23.999Z</time></trkpt><trkpt lat="42.03071320993047" lon="3.1032059557169016"><ele>8.0</ele><time>2026-05-02T09:44:28.999Z</time></trkpt><trkpt lat="42.030813387863475" lon="3.103195413630026"><ele>8.0</ele><time>2026-05-02T09:44:30.999Z</time></trkpt><trkpt lat="42.03092016525179" lon="3.1032113801023526"><ele>8.0</ele><time>2026-05-02T09:44:32.999Z</time></trkpt><trkpt lat="42.03098718802418" lon="3.10324425542264"><ele>7.999999999999999</ele><time>2026-05-02T09:44:33.999Z</time></trkpt><trkpt lat="42.0310645622044" lon="3.1032688078565305"><ele>8.0</ele><time>2026-05-02T09:44:34.999Z</time></trkpt><trkpt lat="42.03114683550441" lon="3.103265423689717"><ele>8.166666666666666</ele><time>2026-05-02T09:44:35.999Z</time></trkpt><trkpt lat="42.03122052829828" lon="3.1032424836315182"><ele>8.333333333333332</ele><time>2026-05-02T09:44:36.999Z</time></trkpt><trkpt lat="42.03129714255018" lon="3.1032171252381238"><ele>8.5</ele><time>2026-05-02T09:44:37.999Z</time></trkpt><trkpt lat="42.03136797923059" lon="3.103193119856946"><ele>8.666666666666666</ele><time>2026-05-02T09:44:38.999Z</time></trkpt><trkpt lat="42.03147403169189" lon="3.1031624320073865"><ele>8.833333333333334</ele><time>2026-05-02T09:44:40.999Z</time></trkpt><trkpt lat="42.03151381247039" lon="3.1030627583310775"><ele>9.0</ele><time>2026-05-02T09:44:43.999Z</time></trkpt><trkpt lat="42.03145313883997" lon="3.1029893401529547"><ele>9.0</ele><time>2026-05-02T09:44:45.999Z</time></trkpt><trkpt lat="42.03133926283596" lon="3.102954056792482"><ele>9.0</ele><time>2026-05-02T09:44:47.999Z</time></trkpt><trkpt lat="42.03123855155823" lon="3.102875231985466"><ele>9.0</ele><time>2026-05-02T09:44:49.999Z</time></trkpt><trkpt lat="42.03119079369542" lon="3.1028177364136975"><ele>9.0</ele><time>2026-05-02T09:44:50.999Z</time></trkpt><trkpt lat="42.031148869882955" lon="3.102748148591991"><ele>9.0</ele><time>2026-05-02T09:44:51.999Z</time></trkpt><trkpt lat="42.03111856455323" lon="3.1026704243979997"><ele>9.0</ele><time>2026-05-02T09:44:52.999Z</time></trkpt><trkpt lat="42.031090607040085" lon="3.1025889872818246"><ele>9.0</ele><time>2026-05-02T09:44:53.999Z</time></trkpt><trkpt lat="42.03106432597914" lon="3.1025030968936553"><ele>9.0</ele><time>2026-05-02T09:44:54.999Z</time></trkpt><trkpt lat="42.03103877297968" lon="3.1024101532882957"><ele>9.0</ele><time>2026-05-02T09:44:55.999Z</time></trkpt><trkpt lat="42.03100778529739" lon="3.102317539336409"><ele>9.0</ele><time>2026-05-02T09:44:56.999Z</time></trkpt><trkpt lat="42.030977792926315" lon="3.102222062935236"><ele>9.0</ele><time>2026-05-02T09:44:57.999Z</time></trkpt><trkpt lat="42.03094430863986" lon="3.102128128998328"><ele>9.0</ele><time>2026-05-02T09:44:59Z</time></trkpt><trkpt lat="42.030911451650475" lon="3.102030135258771"><ele>9.0</ele><time>2026-05-02T09:45:00Z</time></trkpt><trkpt lat="42.030876164091694" lon="3.101935711558856"><ele>9.0</ele><time>2026-05-02T09:45:01Z</time></trkpt><trkpt lat="42.03083955801879" lon="3.101841075715472"><ele>9.0</ele><time>2026-05-02T09:45:02Z</time></trkpt><trkpt lat="42.030801209506656" lon="3.1017485285070276"><ele>9.0</ele><time>2026-05-02T09:45:03Z</time></trkpt><trkpt lat="42.030765464396275" lon="3.101655636268453"><ele>9.0</ele><time>2026-05-02T09:45:04Z</time></trkpt><trkpt lat="42.030732092013054" lon="3.1015689045876993"><ele>9.0</ele><time>2026-05-02T09:45:05Z</time></trkpt><trkpt lat="42.03070069886113" lon="3.1014815043125696"><ele>8.714285714285715</ele><time>2026-05-02T09:45:06Z</time></trkpt><trkpt lat="42.030667981849646" lon="3.101397950468956"><ele>8.428571428571429</ele><time>2026-05-02T09:45:07Z</time></trkpt><trkpt lat="42.03063494943679" lon="3.101314973717122"><ele>8.142857142857142</ele><time>2026-05-02T09:45:08Z</time></trkpt><trkpt lat="42.03060109942301" lon="3.1012301774251156"><ele>7.857142857142858</ele><time>2026-05-02T09:45:09Z</time></trkpt><trkpt lat="42.03056878619332" lon="3.1011455734307583"><ele>7.571428571428571</ele><time>2026-05-02T09:45:10Z</time></trkpt><trkpt lat="42.03053766534345" lon="3.1010625744759612"><ele>7.285714285714286</ele><time>2026-05-02T09:45:11Z</time></trkpt><trkpt lat="42.030508816387204" lon="3.1009826522362105"><ele>7.0</ele><time>2026-05-02T09:45:12Z</time></trkpt><trkpt lat="42.03047996804368" lon="3.100898863862241"><ele>7.0</ele><time>2026-05-02T09:45:13Z</time></trkpt><trkpt lat="42.0304492049497" lon="3.1008176275170016"><ele>7.0</ele><time>2026-05-02T09:45:14Z</time></trkpt><trkpt lat="42.03042712418356" lon="3.1007311398625137"><ele>7.0</ele><time>2026-05-02T09:45:15Z</time></trkpt><trkpt lat="42.03040427804388" lon="3.1006494797729487"><ele>7.0</ele><time>2026-05-02T09:45:16Z</time></trkpt><trkpt lat="42.03038486566857" lon="3.100568405682604"><ele>7.0</ele><time>2026-05-02T09:45:17Z</time></trkpt><trkpt lat="42.03036220180506" lon="3.1004851311662955"><ele>7.0</ele><time>2026-05-02T09:45:18Z</time></trkpt><trkpt lat="42.03034041540794" lon="3.100399619073411"><ele>7.0</ele><time>2026-05-02T09:45:19Z</time></trkpt><trkpt lat="42.030316108360815" lon="3.1003115201309352"><ele>7.142857142857142</ele><time>2026-05-02T09:45:20Z</time></trkpt><trkpt lat="42.03028836260209" lon="3.1002263034942508"><ele>7.285714285714286</ele><time>2026-05-02T09:45:21Z</time></trkpt><trkpt lat="42.03025956585331" lon="3.100137630842694"><ele>7.428571428571429</ele><time>2026-05-02T09:45:22Z</time></trkpt><trkpt lat="42.03023200522541" lon="3.1000456391505984"><ele>7.571428571428571</ele><time>2026-05-02T09:45:23Z</time></trkpt><trkpt lat="42.03020549967807" lon="3.0999564281208047"><ele>7.7142857142857135</ele><time>2026-05-02T09:45:24Z</time></trkpt><trkpt lat="42.03018357050602" lon="3.099860575088566"><ele>7.857142857142857</ele><time>2026-05-02T09:45:25Z</time></trkpt><trkpt lat="42.03016441034309" lon="3.099768773929361"><ele>8.0</ele><time>2026-05-02T09:45:26Z</time></trkpt><trkpt lat="42.03013730622486" lon="3.0996752043847713"><ele>7.999999999999999</ele><time>2026-05-02T09:45:27Z</time></trkpt><trkpt lat="42.03011394804495" lon="3.09958345614046"><ele>8.0</ele><time>2026-05-02T09:45:28Z</time></trkpt><trkpt lat="42.030092745728886" lon="3.0994852827450523"><ele>8.0</ele><time>2026-05-02T09:45:29Z</time></trkpt><trkpt lat="42.03009111411533" lon="3.099384141017848"><ele>8.0</ele><time>2026-05-02T09:45:30Z</time></trkpt><trkpt lat="42.030064045453955" lon="3.0992856227123955"><ele>7.999999999999999</ele><time>2026-05-02T09:45:31Z</time></trkpt><trkpt lat="42.03004661515681" lon="3.099181636036984"><ele>8.0</ele><time>2026-05-02T09:45:32Z</time></trkpt><trkpt lat="42.03002831969066" lon="3.0990782548389366"><ele>8.166666666666666</ele><time>2026-05-02T09:45:33Z</time></trkpt><trkpt lat="42.03003099678654" lon="3.098967042328402"><ele>8.333333333333332</ele><time>2026-05-02T09:45:34Z</time></trkpt><trkpt lat="42.03001970609073" lon="3.098862362861207"><ele>8.5</ele><time>2026-05-02T09:45:35Z</time></trkpt><trkpt lat="42.0300094542173" lon="3.0987619078262836"><ele>8.666666666666666</ele><time>2026-05-02T09:45:36Z</time></trkpt><trkpt lat="42.02999941582789" lon="3.0986635446430673"><ele>8.833333333333334</ele><time>2026-05-02T09:45:37Z</time></trkpt><trkpt lat="42.02998911627781" lon="3.0985652557065984"><ele>9.0</ele><time>2026-05-02T09:45:38Z</time></trkpt><trkpt lat="42.029978548531496" lon="3.098465692707131"><ele>9.000000000000002</ele><time>2026-05-02T09:45:39Z</time></trkpt><trkpt lat="42.02995144738574" lon="3.0983677496807673"><ele>9.0</ele><time>2026-05-02T09:45:40Z</time></trkpt><trkpt lat="42.029943598630105" lon="3.0982743255818495"><ele>9.0</ele><time>2026-05-02T09:45:41Z</time></trkpt><trkpt lat="42.029932406782684" lon="3.0981816789031527"><ele>9.0</ele><time>2026-05-02T09:45:42Z</time></trkpt><trkpt lat="42.0299160941796" lon="3.0980866875330957"><ele>9.0</ele><time>2026-05-02T09:45:43Z</time></trkpt><trkpt lat="42.02990299463738" lon="3.09798653919615"><ele>9.000000000000002</ele><time>2026-05-02T09:45:44Z</time></trkpt><trkpt lat="42.0298851344469" lon="3.097889885370669"><ele>9.0</ele><time>2026-05-02T09:45:45Z</time></trkpt><trkpt lat="42.02987004112636" lon="3.0977944265999113"><ele>9.0</ele><time>2026-05-02T09:45:46Z</time></trkpt><trkpt lat="42.0298566942902" lon="3.097695794519995"><ele>9.0</ele><time>2026-05-02T09:45:47Z</time></trkpt><trkpt lat="42.02983970212243" lon="3.097601295317439"><ele>9.0</ele><time>2026-05-02T09:45:48Z</time></trkpt><trkpt lat="42.02982490122451" lon="3.097497458700392"><ele>9.0</ele><time>2026-05-02T09:45:49Z</time></trkpt><trkpt lat="42.0298080669894" lon="3.097399223320444"><ele>9.0</ele><time>2026-05-02T09:45:50Z</time></trkpt><trkpt lat="42.02978644944775" lon="3.097301021354652"><ele>9.0</ele><time>2026-05-02T09:45:51Z</time></trkpt><trkpt lat="42.029759447384635" lon="3.0972003007996864"><ele>9.0</ele><time>2026-05-02T09:45:52Z</time></trkpt><trkpt lat="42.029734174594346" lon="3.0971017524533218"><ele>9.0</ele><time>2026-05-02T09:45:53Z</time></trkpt><trkpt lat="42.0297134808717" lon="3.097000983257442"><ele>9.0</ele><time>2026-05-02T09:45:54Z</time></trkpt><trkpt lat="42.029694979979254" lon="3.0968981390378074"><ele>9.0</ele><time>2026-05-02T09:45:55Z</time></trkpt><trkpt lat="42.029676542869424" lon="3.0968013725854022"><ele>9.0</ele><time>2026-05-02T09:45:56Z</time></trkpt><trkpt lat="42.029655419483866" lon="3.0967059097398923"><ele>9.0</ele><time>2026-05-02T09:45:57Z</time></trkpt><trkpt lat="42.029630657607065" lon="3.096608588594173"><ele>9.0</ele><time>2026-05-02T09:45:58Z</time></trkpt><trkpt lat="42.02960102620532" lon="3.096511739611897"><ele>9.0</ele><time>2026-05-02T09:45:59Z</time></trkpt><trkpt lat="42.029590644482056" lon="3.0964048464166707"><ele>9.0</ele><time>2026-05-02T09:46:00Z</time></trkpt><trkpt lat="42.02956578727144" lon="3.0963045180900863"><ele>9.0</ele><time>2026-05-02T09:46:01Z</time></trkpt><trkpt lat="42.029538962075705" lon="3.0962006404511717"><ele>9.0</ele><time>2026-05-02T09:46:02Z</time></trkpt><trkpt lat="42.029504709703495" lon="3.096100911470435"><ele>9.0</ele><time>2026-05-02T09:46:03Z</time></trkpt><trkpt lat="42.02948117474806" lon="3.0959917410412796"><ele>9.0</ele><time>2026-05-02T09:46:04Z</time></trkpt><trkpt lat="42.02945155630884" lon="3.0958845601972085"><ele>9.0</ele><time>2026-05-02T09:46:05Z</time></trkpt><trkpt lat="42.02941979180783" lon="3.0957786674695904"><ele>9.0</ele><time>2026-05-02T09:46:06Z</time></trkpt><trkpt lat="42.02939032141057" lon="3.095671619026583"><ele>9.0</ele><time>2026-05-02T09:46:07Z</time></trkpt><trkpt lat="42.029360690807955" lon="3.095562416899364"><ele>9.0</ele><time>2026-05-02T09:46:08Z</time></trkpt><trkpt lat="42.02933069706041" lon="3.0954550741721127"><ele>9.0</ele><time>2026-05-02T09:46:09Z</time></trkpt><trkpt lat="42.029313433506054" lon="3.0953424053492324"><ele>9.0</ele><time>2026-05-02T09:46:10Z</time></trkpt><trkpt lat="42.02926977981951" lon="3.0952469216286302"><ele>9.0</ele><time>2026-05-02T09:46:11Z</time></trkpt><trkpt lat="42.029242413996954" lon="3.095140297092844"><ele>9.0</ele><time>2026-05-02T09:46:12Z</time></trkpt><trkpt lat="42.029212433712786" lon="3.0950366054714054"><ele>9.0</ele><time>2026-05-02T09:46:13Z</time></trkpt><trkpt lat="42.02918417004156" lon="3.094931760677433"><ele>9.0</ele><time>2026-05-02T09:46:14Z</time></trkpt><trkpt lat="42.029154712486026" lon="3.094828794597348"><ele>9.0</ele><time>2026-05-02T09:46:15Z</time></trkpt><trkpt lat="42.02912513381304" lon="3.0947259413742665"><ele>9.0</ele><time>2026-05-02T09:46:16Z</time></trkpt><trkpt lat="42.02909579273802" lon="3.0946167034513774"><ele>9.0</ele><time>2026-05-02T09:46:17Z</time></trkpt><trkpt lat="42.02906601543672" lon="3.094508978230465"><ele>9.0</ele><time>2026-05-02T09:46:18Z</time></trkpt><trkpt lat="42.02903606045728" lon="3.0943997919186104"><ele>9.0</ele><time>2026-05-02T09:46:19Z</time></trkpt><trkpt lat="42.02900715570694" lon="3.094290703830995"><ele>9.0</ele><time>2026-05-02T09:46:20Z</time></trkpt><trkpt lat="42.028975654479225" lon="3.0941852104942726"><ele>9.0</ele><time>2026-05-02T09:46:21Z</time></trkpt><trkpt lat="42.02893913275624" lon="3.0940788839431432"><ele>8.666666666666666</ele><time>2026-05-02T09:46:22Z</time></trkpt><trkpt lat="42.02890319516329" lon="3.0939713750310385"><ele>8.333333333333334</ele><time>2026-05-02T09:46:23Z</time></trkpt><trkpt lat="42.028864638891626" lon="3.0938682078875526"><ele>8.0</ele><time>2026-05-02T09:46:24Z</time></trkpt><trkpt lat="42.028824541581514" lon="3.0937702608764828"><ele>7.666666666666667</ele><time>2026-05-02T09:46:25Z</time></trkpt><trkpt lat="42.02878522750704" lon="3.093668945267777"><ele>7.333333333333334</ele><time>2026-05-02T09:46:26Z</time></trkpt><trkpt lat="42.02874477565013" lon="3.0935734990028605"><ele>7.0</ele><time>2026-05-02T09:46:27Z</time></trkpt><trkpt lat="42.028707008842446" lon="3.093482117078501"><ele>7.000000000000001</ele><time>2026-05-02T09:46:28Z</time></trkpt><trkpt lat="42.02866787292524" lon="3.093389095684842"><ele>7.0</ele><time>2026-05-02T09:46:29Z</time></trkpt><trkpt lat="42.028631752803285" lon="3.0932974728209968"><ele>7.0</ele><time>2026-05-02T09:46:29.999Z</time></trkpt><trkpt lat="42.028594330887906" lon="3.0932082106711163"><ele>7.0</ele><time>2026-05-02T09:46:30.999Z</time></trkpt><trkpt lat="42.02855733625169" lon="3.0931187228778225"><ele>7.000000000000001</ele><time>2026-05-02T09:46:31.999Z</time></trkpt><trkpt lat="42.02853257279186" lon="3.0930188569006085"><ele>7.0</ele><time>2026-05-02T09:46:32.999Z</time></trkpt><trkpt lat="42.02849522919514" lon="3.0929233513181953"><ele>7.333333333333334</ele><time>2026-05-02T09:46:33.999Z</time></trkpt><trkpt lat="42.028457978816576" lon="3.092828084214615"><ele>7.666666666666667</ele><time>2026-05-02T09:46:34.999Z</time></trkpt><trkpt lat="42.02842036961723" lon="3.092728902096433"><ele>8.0</ele><time>2026-05-02T09:46:35.999Z</time></trkpt><trkpt lat="42.028382073438124" lon="3.0926279964041963"><ele>8.333333333333334</ele><time>2026-05-02T09:46:36.999Z</time></trkpt><trkpt lat="42.0283434520652" lon="3.0925262338753536"><ele>8.666666666666666</ele><time>2026-05-02T09:46:37.999Z</time></trkpt><trkpt lat="42.0283055302511" lon="3.0924242094936325"><ele>9.0</ele><time>2026-05-02T09:46:38.999Z</time></trkpt><trkpt lat="42.02826947968765" lon="3.0923220033664633"><ele>9.333333333333334</ele><time>2026-05-02T09:46:39.999Z</time></trkpt><trkpt lat="42.028234206450676" lon="3.092218506361502"><ele>9.666666666666666</ele><time>2026-05-02T09:46:40.999Z</time></trkpt><trkpt lat="42.02819870959079" lon="3.0921143531713886"><ele>10.0</ele><time>2026-05-02T09:46:41.999Z</time></trkpt><trkpt lat="42.02816292589041" lon="3.0920126361819538"><ele>10.333333333333332</ele><time>2026-05-02T09:46:42.999Z</time></trkpt><trkpt lat="42.028126681542105" lon="3.091910615057004"><ele>10.666666666666666</ele><time>2026-05-02T09:46:43.999Z</time></trkpt><trkpt lat="42.02807563815998" lon="3.091817933789465"><ele>11.0</ele><time>2026-05-02T09:46:44.999Z</time></trkpt><trkpt lat="42.02803996506833" lon="3.091717912850194"><ele>11.0</ele><time>2026-05-02T09:46:45.999Z</time></trkpt><trkpt lat="42.02801849882224" lon="3.091607981173146"><ele>11.0</ele><time>2026-05-02T09:46:46.999Z</time></trkpt><trkpt lat="42.02798018848895" lon="3.091505700890739"><ele>11.0</ele><time>2026-05-02T09:46:47.999Z</time></trkpt><trkpt lat="42.0279267492625" lon="3.0914130699102107"><ele>11.0</ele><time>2026-05-02T09:46:48.999Z</time></trkpt><trkpt lat="42.02790466046202" lon="3.0913066235135442"><ele>11.0</ele><time>2026-05-02T09:46:49.999Z</time></trkpt><trkpt lat="42.02786627905456" lon="3.0912046308958794"><ele>11.0</ele><time>2026-05-02T09:46:50.999Z</time></trkpt><trkpt lat="42.02781474506234" lon="3.091112002514887"><ele>11.0</ele><time>2026-05-02T09:46:51.999Z</time></trkpt><trkpt lat="42.027776024081334" lon="3.0910118514733633"><ele>11.0</ele><time>2026-05-02T09:46:52.999Z</time></trkpt><trkpt lat="42.02773693084334" lon="3.09090952664203"><ele>11.0</ele><time>2026-05-02T09:46:53.999Z</time></trkpt><trkpt lat="42.027713878077165" lon="3.0907984290198183"><ele>11.0</ele><time>2026-05-02T09:46:54.999Z</time></trkpt><trkpt lat="42.02766538765152" lon="3.09071109342476"><ele>11.0</ele><time>2026-05-02T09:46:55.999Z</time></trkpt><trkpt lat="42.0276302794889" lon="3.090615220801259"><ele>11.0</ele><time>2026-05-02T09:46:56.999Z</time></trkpt><trkpt lat="42.02759283999628" lon="3.09051583437312"><ele>11.0</ele><time>2026-05-02T09:46:57.999Z</time></trkpt><trkpt lat="42.02755517269196" lon="3.0904125940228093"><ele>11.0</ele><time>2026-05-02T09:46:58.999Z</time></trkpt><trkpt lat="42.02751967497883" lon="3.090308201904997"><ele>11.0</ele><time>2026-05-02T09:46:59.999Z</time></trkpt><trkpt lat="42.02748149686888" lon="3.0902046389486646"><ele>11.0</ele><time>2026-05-02T09:47:00.999Z</time></trkpt><trkpt lat="42.02745086559984" lon="3.090105303128482"><ele>11.0</ele><time>2026-05-02T09:47:01.999Z</time></trkpt><trkpt lat="42.02743767626922" lon="3.0899989788783517"><ele>11.0</ele><time>2026-05-02T09:47:02.999Z</time></trkpt><trkpt lat="42.027412155194035" lon="3.089897627437757"><ele>11.333333333333332</ele><time>2026-05-02T09:47:03.999Z</time></trkpt><trkpt lat="42.02738774554118" lon="3.0897927293793557"><ele>11.666666666666666</ele><time>2026-05-02T09:47:05Z</time></trkpt><trkpt lat="42.027364490418044" lon="3.089688164395588"><ele>12.0</ele><time>2026-05-02T09:47:06Z</time></trkpt><trkpt lat="42.02732854092768" lon="3.0895863427863075"><ele>12.333333333333332</ele><time>2026-05-02T09:47:07Z</time></trkpt><trkpt lat="42.027307033232034" lon="3.0894783977608067"><ele>12.666666666666666</ele><time>2026-05-02T09:47:08Z</time></trkpt><trkpt lat="42.02728592228429" lon="3.0893724744898656"><ele>13.0</ele><time>2026-05-02T09:47:09Z</time></trkpt><trkpt lat="42.02726389022781" lon="3.0892710580192286"><ele>13.0</ele><time>2026-05-02T09:47:10Z</time></trkpt><trkpt lat="42.02724480743527" lon="3.089170380072331"><ele>13.0</ele><time>2026-05-02T09:47:11Z</time></trkpt><trkpt lat="42.02722518504129" lon="3.0890734261550996"><ele>13.0</ele><time>2026-05-02T09:47:12Z</time></trkpt><trkpt lat="42.02720367222633" lon="3.088979540848759"><ele>13.0</ele><time>2026-05-02T09:47:13Z</time></trkpt><trkpt lat="42.02718070628548" lon="3.0888847709503655"><ele>13.0</ele><time>2026-05-02T09:47:14Z</time></trkpt><trkpt lat="42.02716188448523" lon="3.088787465583811"><ele>13.0</ele><time>2026-05-02T09:47:15Z</time></trkpt><trkpt lat="42.02714410664691" lon="3.0886909876084805"><ele>13.0</ele><time>2026-05-02T09:47:16Z</time></trkpt><trkpt lat="42.027125563497606" lon="3.0885913748516063"><ele>12.428571428571429</ele><time>2026-05-02T09:47:17Z</time></trkpt><trkpt lat="42.027116442921766" lon="3.088490986472593"><ele>11.857142857142858</ele><time>2026-05-02T09:47:18Z</time></trkpt><trkpt lat="42.027102099995474" lon="3.0883930418121186"><ele>11.285714285714286</ele><time>2026-05-02T09:47:19Z</time></trkpt><trkpt lat="42.02709100703854" lon="3.088296510842107"><ele>10.714285714285715</ele><time>2026-05-02T09:47:20Z</time></trkpt><trkpt lat="42.02708609933603" lon="3.08820355561943"><ele>10.142857142857142</ele><time>2026-05-02T09:47:21Z</time></trkpt><trkpt lat="42.02709182507959" lon="3.0881096268720816"><ele>9.571428571428573</ele><time>2026-05-02T09:47:22Z</time></trkpt><trkpt lat="42.02711848215943" lon="3.0880210550408362"><ele>9.0</ele><time>2026-05-02T09:47:23Z</time></trkpt><trkpt lat="42.02714976435731" lon="3.087875318615984"><ele>9.0</ele><time>2026-05-02T09:47:25Z</time></trkpt><trkpt lat="42.027181883751226" lon="3.0877653052060117"><ele>9.0</ele><time>2026-05-02T09:47:27Z</time></trkpt><trkpt lat="42.02710557628965" lon="3.087644858306465"><ele>9.0</ele><time>2026-05-02T09:47:29Z</time></trkpt><trkpt lat="42.027014236163645" lon="3.0875720777487445"><ele>9.0</ele><time>2026-05-02T09:47:31Z</time></trkpt><trkpt lat="42.026933387042426" lon="3.0874837856420636"><ele>9.0</ele><time>2026-05-02T09:47:33Z</time></trkpt><trkpt lat="42.02688050977354" lon="3.0873470382758152"><ele>9.000000000000002</ele><time>2026-05-02T09:47:35Z</time></trkpt><trkpt lat="42.026841587912976" lon="3.0872751225860644"><ele>9.0</ele><time>2026-05-02T09:47:36Z</time></trkpt><trkpt lat="42.02682240677553" lon="3.087184926383212"><ele>9.0</ele><time>2026-05-02T09:47:37Z</time></trkpt><trkpt lat="42.02679180765696" lon="3.0870995211630357"><ele>9.0</ele><time>2026-05-02T09:47:38Z</time></trkpt><trkpt lat="42.02675177408938" lon="3.087018515984342"><ele>9.0</ele><time>2026-05-02T09:47:39Z</time></trkpt><trkpt lat="42.02671647636013" lon="3.086942082883879"><ele>9.000000000000002</ele><time>2026-05-02T09:47:40Z</time></trkpt><trkpt lat="42.02668147731582" lon="3.086862388010534"><ele>9.0</ele><time>2026-05-02T09:47:41Z</time></trkpt><trkpt lat="42.02664015561283" lon="3.0867819441491453"><ele>9.166666666666666</ele><time>2026-05-02T09:47:42Z</time></trkpt><trkpt lat="42.02661135451808" lon="3.086687506398913"><ele>9.333333333333334</ele><time>2026-05-02T09:47:43Z</time></trkpt><trkpt lat="42.02656964974861" lon="3.086600498858047"><ele>9.5</ele><time>2026-05-02T09:47:44Z</time></trkpt><trkpt lat="42.02652964691561" lon="3.0865170420244032"><ele>9.666666666666668</ele><time>2026-05-02T09:47:45Z</time></trkpt><trkpt lat="42.02648898565963" lon="3.0864322115382476"><ele>9.833333333333334</ele><time>2026-05-02T09:47:46Z</time></trkpt><trkpt lat="42.026446202097716" lon="3.0863429533406603"><ele>10.0</ele><time>2026-05-02T09:47:47Z</time></trkpt><trkpt lat="42.02640390281258" lon="3.0862554371108377"><ele>10.0</ele><time>2026-05-02T09:47:48Z</time></trkpt><trkpt lat="42.026361505678" lon="3.0861692240253484"><ele>10.0</ele><time>2026-05-02T09:47:49Z</time></trkpt><trkpt lat="42.026319997374145" lon="3.0860848183724765"><ele>10.0</ele><time>2026-05-02T09:47:50Z</time></trkpt><trkpt lat="42.02627577501032" lon="3.085998807365578"><ele>10.0</ele><time>2026-05-02T09:47:51Z</time></trkpt><trkpt lat="42.02623063903446" lon="3.085913484513313"><ele>10.0</ele><time>2026-05-02T09:47:52Z</time></trkpt><trkpt lat="42.026186646680415" lon="3.085833015769517"><ele>10.0</ele><time>2026-05-02T09:47:53Z</time></trkpt><trkpt lat="42.02614097790496" lon="3.08575454017112"><ele>10.166666666666668</ele><time>2026-05-02T09:47:54Z</time></trkpt><trkpt lat="42.02609539669093" lon="3.085676301140043"><ele>10.333333333333334</ele><time>2026-05-02T09:47:55Z</time></trkpt><trkpt lat="42.026036220641075" lon="3.0856072211166836"><ele>10.5</ele><time>2026-05-02T09:47:56Z</time></trkpt><trkpt lat="42.02599457334537" lon="3.085519395508622"><ele>10.666666666666666</ele><time>2026-05-02T09:47:57Z</time></trkpt><trkpt lat="42.025954871952294" lon="3.0854329714939985"><ele>10.833333333333332</ele><time>2026-05-02T09:47:58Z</time></trkpt><trkpt lat="42.02592877990535" lon="3.0853372142754303"><ele>11.0</ele><time>2026-05-02T09:47:59Z</time></trkpt><trkpt lat="42.02588936701522" lon="3.0852464883459"><ele>11.0</ele><time>2026-05-02T09:48:00Z</time></trkpt><trkpt lat="42.025851558053255" lon="3.0851561597438746"><ele>11.0</ele><time>2026-05-02T09:48:01Z</time></trkpt><trkpt lat="42.02581426328317" lon="3.085064906584321"><ele>11.0</ele><time>2026-05-02T09:48:02Z</time></trkpt><trkpt lat="42.025777741242486" lon="3.0849727649438154"><ele>11.0</ele><time>2026-05-02T09:48:03Z</time></trkpt><trkpt lat="42.025742069173425" lon="3.0848802723144764"><ele>11.0</ele><time>2026-05-02T09:48:04Z</time></trkpt><trkpt lat="42.02570643836491" lon="3.084785107906217"><ele>11.0</ele><time>2026-05-02T09:48:05Z</time></trkpt><trkpt lat="42.02567305930433" lon="3.084691117853004"><ele>11.0</ele><time>2026-05-02T09:48:06Z</time></trkpt><trkpt lat="42.02564321941952" lon="3.0846028410412467"><ele>11.0</ele><time>2026-05-02T09:48:07Z</time></trkpt><trkpt lat="42.02561549930792" lon="3.0845159884854696"><ele>11.0</ele><time>2026-05-02T09:48:08Z</time></trkpt><trkpt lat="42.025574292589724" lon="3.08443592820126"><ele>11.0</ele><time>2026-05-02T09:48:09Z</time></trkpt><trkpt lat="42.02554745233113" lon="3.0843510454141945"><ele>11.0</ele><time>2026-05-02T09:48:10Z</time></trkpt><trkpt lat="42.02552186306079" lon="3.084259809748061"><ele>11.0</ele><time>2026-05-02T09:48:11Z</time></trkpt><trkpt lat="42.02549682682977" lon="3.0841708513525212"><ele>11.0</ele><time>2026-05-02T09:48:12Z</time></trkpt><trkpt lat="42.02547167272483" lon="3.0840734339187796"><ele>11.0</ele><time>2026-05-02T09:48:13Z</time></trkpt><trkpt lat="42.02544739566988" lon="3.083976180525179"><ele>11.0</ele><time>2026-05-02T09:48:14Z</time></trkpt><trkpt lat="42.02541711518881" lon="3.0838840107587986"><ele>11.0</ele><time>2026-05-02T09:48:15Z</time></trkpt><trkpt lat="42.02540242968614" lon="3.0837812353657976"><ele>11.0</ele><time>2026-05-02T09:48:16Z</time></trkpt><trkpt lat="42.02537885926811" lon="3.0836945275003944"><ele>11.0</ele><time>2026-05-02T09:48:17Z</time></trkpt><trkpt lat="42.02535449489946" lon="3.0836048990551674"><ele>11.0</ele><time>2026-05-02T09:48:18Z</time></trkpt><trkpt lat="42.0253177040587" lon="3.0835210628792957"><ele>11.0</ele><time>2026-05-02T09:48:19Z</time></trkpt><trkpt lat="42.0253036617875" lon="3.0834211634960575"><ele>11.0</ele><time>2026-05-02T09:48:20Z</time></trkpt><trkpt lat="42.025286538754926" lon="3.083318129942726"><ele>11.0</ele><time>2026-05-02T09:48:21Z</time></trkpt><trkpt lat="42.025266264909746" lon="3.083215760487796"><ele>11.0</ele><time>2026-05-02T09:48:22Z</time></trkpt><trkpt lat="42.02524001429315" lon="3.0831143833448236"><ele>11.0</ele><time>2026-05-02T09:48:23Z</time></trkpt><trkpt lat="42.0252215306938" lon="3.0830061854186614"><ele>11.0</ele><time>2026-05-02T09:48:24Z</time></trkpt><trkpt lat="42.02520379734803" lon="3.082895897534762"><ele>11.0</ele><time>2026-05-02T09:48:25Z</time></trkpt><trkpt lat="42.02518644421464" lon="3.0827854713760394"><ele>10.833333333333332</ele><time>2026-05-02T09:48:26Z</time></trkpt><trkpt lat="42.02516712766426" lon="3.0826763116251015"><ele>10.666666666666666</ele><time>2026-05-02T09:48:27Z</time></trkpt><trkpt lat="42.02515084677252" lon="3.0825644817133164"><ele>10.5</ele><time>2026-05-02T09:48:28Z</time></trkpt><trkpt lat="42.02513751104286" lon="3.0824611794388823"><ele>10.333333333333334</ele><time>2026-05-02T09:48:29Z</time></trkpt><trkpt lat="42.02512428489806" lon="3.082359844814789"><ele>10.166666666666668</ele><time>2026-05-02T09:48:30Z</time></trkpt><trkpt lat="42.02510831544157" lon="3.0822576693129102"><ele>10.0</ele><time>2026-05-02T09:48:31Z</time></trkpt><trkpt lat="42.025096807773096" lon="3.0821524214583484"><ele>10.0</ele><time>2026-05-02T09:48:32Z</time></trkpt><trkpt lat="42.02509057451105" lon="3.0820455330343193"><ele>10.0</ele><time>2026-05-02T09:48:33Z</time></trkpt><trkpt lat="42.02508783717915" lon="3.0819410297963246"><ele>10.0</ele><time>2026-05-02T09:48:34Z</time></trkpt><trkpt lat="42.02508576610646" lon="3.081833220056277"><ele>10.0</ele><time>2026-05-02T09:48:35Z</time></trkpt><trkpt lat="42.02508687981339" lon="3.081732763877127"><ele>10.0</ele><time>2026-05-02T09:48:36Z</time></trkpt><trkpt lat="42.0250842862934" lon="3.0816357352255146"><ele>10.0</ele><time>2026-05-02T09:48:37Z</time></trkpt><trkpt lat="42.02507806087" lon="3.081537084154173"><ele>10.166666666666668</ele><time>2026-05-02T09:48:38Z</time></trkpt><trkpt lat="42.02507345153291" lon="3.081438184979956"><ele>10.333333333333334</ele><time>2026-05-02T09:48:39Z</time></trkpt><trkpt lat="42.025071540468296" lon="3.0813379831443837"><ele>10.5</ele><time>2026-05-02T09:48:40Z</time></trkpt><trkpt lat="42.02506936781437" lon="3.0812393450204683"><ele>10.666666666666666</ele><time>2026-05-02T09:48:41Z</time></trkpt><trkpt lat="42.02506866524763" lon="3.0811401781864056"><ele>10.833333333333332</ele><time>2026-05-02T09:48:41.999Z</time></trkpt><trkpt lat="42.02506821862361" lon="3.081036752695415"><ele>11.0</ele><time>2026-05-02T09:48:42.999Z</time></trkpt><trkpt lat="42.02506357373311" lon="3.0809297626257757"><ele>11.0</ele><time>2026-05-02T09:48:43.999Z</time></trkpt><trkpt lat="42.025058203831385" lon="3.0808230390287012"><ele>11.0</ele><time>2026-05-02T09:48:44.999Z</time></trkpt><trkpt lat="42.02505286602847" lon="3.0807174175073913"><ele>11.0</ele><time>2026-05-02T09:48:45.999Z</time></trkpt><trkpt lat="42.0250522291876" lon="3.0806141381841696"><ele>11.0</ele><time>2026-05-02T09:48:46.999Z</time></trkpt><trkpt lat="42.02505042071181" lon="3.0805131790864633"><ele>11.0</ele><time>2026-05-02T09:48:47.999Z</time></trkpt><trkpt lat="42.025045719511894" lon="3.0804039182415734"><ele>11.0</ele><time>2026-05-02T09:48:48.999Z</time></trkpt><trkpt lat="42.02504366304415" lon="3.0802927889178604"><ele>11.0</ele><time>2026-05-02T09:48:49.999Z</time></trkpt><trkpt lat="42.0250444480514" lon="3.080183249331212"><ele>11.0</ele><time>2026-05-02T09:48:50.999Z</time></trkpt><trkpt lat="42.025046208396034" lon="3.08007727469869"><ele>11.0</ele><time>2026-05-02T09:48:51.999Z</time></trkpt><trkpt lat="42.025052136785604" lon="3.079973208861239"><ele>11.0</ele><time>2026-05-02T09:48:52.999Z</time></trkpt><trkpt lat="42.02505880348515" lon="3.07987061081465"><ele>11.0</ele><time>2026-05-02T09:48:53.999Z</time></trkpt><trkpt lat="42.025063795630096" lon="3.079763435884195"><ele>11.0</ele><time>2026-05-02T09:48:54.999Z</time></trkpt><trkpt lat="42.025061843071335" lon="3.079657482391646"><ele>11.0</ele><time>2026-05-02T09:48:55.999Z</time></trkpt><trkpt lat="42.02506635205524" lon="3.0795494111600523"><ele>11.0</ele><time>2026-05-02T09:48:56.999Z</time></trkpt><trkpt lat="42.02507022049419" lon="3.0794399228405878"><ele>11.0</ele><time>2026-05-02T09:48:57.999Z</time></trkpt><trkpt lat="42.02507337783996" lon="3.079331007183033"><ele>11.0</ele><time>2026-05-02T09:48:58.999Z</time></trkpt><trkpt lat="42.0250768687273" lon="3.079226707294466"><ele>11.0</ele><time>2026-05-02T09:48:59.999Z</time></trkpt><trkpt lat="42.02507876371423" lon="3.079121992536961"><ele>11.0</ele><time>2026-05-02T09:49:00.999Z</time></trkpt><trkpt lat="42.025080439913765" lon="3.07901411240578"><ele>10.833333333333332</ele><time>2026-05-02T09:49:01.999Z</time></trkpt><trkpt lat="42.025078412640276" lon="3.078908189017795"><ele>10.666666666666666</ele><time>2026-05-02T09:49:02.999Z</time></trkpt><trkpt lat="42.025074582400045" lon="3.078805788965835"><ele>10.5</ele><time>2026-05-02T09:49:03.999Z</time></trkpt><trkpt lat="42.025076692408405" lon="3.0787006176412492"><ele>10.333333333333334</ele><time>2026-05-02T09:49:04.999Z</time></trkpt><trkpt lat="42.02507938847277" lon="3.078595798711404"><ele>10.166666666666668</ele><time>2026-05-02T09:49:05.999Z</time></trkpt><trkpt lat="42.02508295663438" lon="3.078487793445277"><ele>10.0</ele><time>2026-05-02T09:49:06.999Z</time></trkpt><trkpt lat="42.02508843976738" lon="3.0783807345823564"><ele>10.0</ele><time>2026-05-02T09:49:07.999Z</time></trkpt><trkpt lat="42.02509230941444" lon="3.0782744319108097"><ele>10.0</ele><time>2026-05-02T09:49:08.999Z</time></trkpt><trkpt lat="42.02509619548893" lon="3.0781653808270946"><ele>10.0</ele><time>2026-05-02T09:49:10Z</time></trkpt><trkpt lat="42.025095830810486" lon="3.0780574712057462"><ele>10.0</ele><time>2026-05-02T09:49:11Z</time></trkpt><trkpt lat="42.02509816101223" lon="3.0779533997795094"><ele>10.0</ele><time>2026-05-02T09:49:12Z</time></trkpt><trkpt lat="42.0251016163643" lon="3.077854590252253"><ele>10.0</ele><time>2026-05-02T09:49:13Z</time></trkpt><trkpt lat="42.025104110155574" lon="3.0777488289673376"><ele>10.166666666666668</ele><time>2026-05-02T09:49:14Z</time></trkpt><trkpt lat="42.025107925461384" lon="3.077643411005159"><ele>10.333333333333334</ele><time>2026-05-02T09:49:15Z</time></trkpt><trkpt lat="42.02510670164543" lon="3.077539475444328"><ele>10.5</ele><time>2026-05-02T09:49:16Z</time></trkpt><trkpt lat="42.02510619301191" lon="3.077436153077428"><ele>10.666666666666666</ele><time>2026-05-02T09:49:17Z</time></trkpt><trkpt lat="42.02510871793946" lon="3.077332083871658"><ele>10.833333333333332</ele><time>2026-05-02T09:49:18Z</time></trkpt><trkpt lat="42.025109132438324" lon="3.077231993078948"><ele>11.0</ele><time>2026-05-02T09:49:19Z</time></trkpt><trkpt lat="42.02511111217271" lon="3.0771310923224844"><ele>10.666666666666666</ele><time>2026-05-02T09:49:20Z</time></trkpt><trkpt lat="42.02510799654299" lon="3.0770290401443665"><ele>10.333333333333332</ele><time>2026-05-02T09:49:21Z</time></trkpt><trkpt lat="42.02510889186379" lon="3.0769251549720957"><ele>10.0</ele><time>2026-05-02T09:49:22Z</time></trkpt><trkpt lat="42.02510922506636" lon="3.076819994720549"><ele>9.666666666666666</ele><time>2026-05-02T09:49:23Z</time></trkpt><trkpt lat="42.02511057879942" lon="3.076717367389516"><ele>9.333333333333334</ele><time>2026-05-02T09:49:24Z</time></trkpt><trkpt lat="42.025111510117554" lon="3.076616975267479"><ele>9.0</ele><time>2026-05-02T09:49:25Z</time></trkpt><trkpt lat="42.025112365275824" lon="3.076514627276199"><ele>9.0</ele><time>2026-05-02T09:49:26Z</time></trkpt><trkpt lat="42.02511189734489" lon="3.0764144724539535"><ele>9.0</ele><time>2026-05-02T09:49:27Z</time></trkpt><trkpt lat="42.025111676213776" lon="3.0763115600611504"><ele>9.0</ele><time>2026-05-02T09:49:28Z</time></trkpt><trkpt lat="42.02511126505938" lon="3.0762075894927077"><ele>9.0</ele><time>2026-05-02T09:49:29Z</time></trkpt><trkpt lat="42.02511129251532" lon="3.076109459502474"><ele>9.0</ele><time>2026-05-02T09:49:30Z</time></trkpt><trkpt lat="42.02511280906634" lon="3.0760088617671903"><ele>9.0</ele><time>2026-05-02T09:49:31Z</time></trkpt><trkpt lat="42.02511388585972" lon="3.0759057480596543"><ele>9.0</ele><time>2026-05-02T09:49:32Z</time></trkpt><trkpt lat="42.02511402040606" lon="3.075800378007678"><ele>9.0</ele><time>2026-05-02T09:49:33Z</time></trkpt><trkpt lat="42.02511447288147" lon="3.075694357816565"><ele>9.0</ele><time>2026-05-02T09:49:34Z</time></trkpt><trkpt lat="42.02511392903981" lon="3.0755899127096975"><ele>9.0</ele><time>2026-05-02T09:49:35Z</time></trkpt><trkpt lat="42.02511680571697" lon="3.0754813304685915"><ele>9.0</ele><time>2026-05-02T09:49:36Z</time></trkpt><trkpt lat="42.02511915402805" lon="3.075383068827868"><ele>9.0</ele><time>2026-05-02T09:49:37Z</time></trkpt><trkpt lat="42.02512154017335" lon="3.0752782753388854"><ele>9.333333333333334</ele><time>2026-05-02T09:49:38Z</time></trkpt><trkpt lat="42.025123796420786" lon="3.075172098821607"><ele>9.666666666666666</ele><time>2026-05-02T09:49:39Z</time></trkpt><trkpt lat="42.025126318537836" lon="3.0750629596333168"><ele>10.0</ele><time>2026-05-02T09:49:40Z</time></trkpt><trkpt lat="42.02512432141906" lon="3.074953860323628"><ele>10.333333333333332</ele><time>2026-05-02T09:49:41Z</time></trkpt><trkpt lat="42.02512333616631" lon="3.074844743704044"><ele>10.666666666666666</ele><time>2026-05-02T09:49:42Z</time></trkpt><trkpt lat="42.025124851475205" lon="3.074739144056333"><ele>11.0</ele><time>2026-05-02T09:49:43Z</time></trkpt><trkpt lat="42.025125804657414" lon="3.0746378257659335"><ele>11.5</ele><time>2026-05-02T09:49:44Z</time></trkpt><trkpt lat="42.02512636818959" lon="3.0745366247172896"><ele>12.0</ele><time>2026-05-02T09:49:45Z</time></trkpt><trkpt lat="42.02512935433205" lon="3.0744328614484453"><ele>12.5</ele><time>2026-05-02T09:49:46Z</time></trkpt><trkpt lat="42.025130506991715" lon="3.074326220809099"><ele>13.0</ele><time>2026-05-02T09:49:47Z</time></trkpt><trkpt lat="42.025131640569036" lon="3.074221392846808"><ele>13.500000000000002</ele><time>2026-05-02T09:49:48Z</time></trkpt><trkpt lat="42.02513437501103" lon="3.0741177678435023"><ele>14.0</ele><time>2026-05-02T09:49:49Z</time></trkpt><trkpt lat="42.025136426347274" lon="3.0740146129544947"><ele>14.0</ele><time>2026-05-02T09:49:50Z</time></trkpt><trkpt lat="42.025137230704836" lon="3.0739163365266777"><ele>14.0</ele><time>2026-05-02T09:49:51Z</time></trkpt><trkpt lat="42.02513865088121" lon="3.0738189394078175"><ele>14.0</ele><time>2026-05-02T09:49:52Z</time></trkpt><trkpt lat="42.02514163983378" lon="3.0737198162712063"><ele>14.0</ele><time>2026-05-02T09:49:53Z</time></trkpt><trkpt lat="42.0251426114177" lon="3.0736166867214068"><ele>14.0</ele><time>2026-05-02T09:49:54Z</time></trkpt><trkpt lat="42.025143073798766" lon="3.073515041205528"><ele>14.0</ele><time>2026-05-02T09:49:55Z</time></trkpt><trkpt lat="42.02514261477875" lon="3.0734149690345776"><ele>14.0</ele><time>2026-05-02T09:49:56Z</time></trkpt><trkpt lat="42.025142220148254" lon="3.073315256627581"><ele>13.857142857142858</ele><time>2026-05-02T09:49:57Z</time></trkpt><trkpt lat="42.02514531712218" lon="3.0732143450322"><ele>13.714285714285715</ele><time>2026-05-02T09:49:58Z</time></trkpt><trkpt lat="42.025146702825765" lon="3.0731150890615755"><ele>13.571428571428571</ele><time>2026-05-02T09:49:59Z</time></trkpt><trkpt lat="42.02514957028808" lon="3.0730148681016094"><ele>13.428571428571429</ele><time>2026-05-02T09:50:00Z</time></trkpt><trkpt lat="42.02515248184958" lon="3.072916534912885"><ele>13.285714285714286</ele><time>2026-05-02T09:50:01Z</time></trkpt><trkpt lat="42.02515604518487" lon="3.072822977674033"><ele>13.142857142857142</ele><time>2026-05-02T09:50:02Z</time></trkpt><trkpt lat="42.02515850697571" lon="3.0727225628416712"><ele>13.0</ele><time>2026-05-02T09:50:03Z</time></trkpt><trkpt lat="42.025160285283775" lon="3.0726255530858304"><ele>12.999999999999998</ele><time>2026-05-02T09:50:04Z</time></trkpt><trkpt lat="42.02515997578417" lon="3.0725278431425607"><ele>13.0</ele><time>2026-05-02T09:50:05Z</time></trkpt><trkpt lat="42.02515977813444" lon="3.0724257276476736"><ele>13.0</ele><time>2026-05-02T09:50:06Z</time></trkpt><trkpt lat="42.02516095266039" lon="3.0723211310306686"><ele>13.0</ele><time>2026-05-02T09:50:07Z</time></trkpt><trkpt lat="42.02516590803741" lon="3.072215905315672"><ele>12.999999999999998</ele><time>2026-05-02T09:50:08Z</time></trkpt><trkpt lat="42.025168949087416" lon="3.072109154230006"><ele>13.0</ele><time>2026-05-02T09:50:09Z</time></trkpt><trkpt lat="42.025173829394" lon="3.072004326696145"><ele>12.833333333333332</ele><time>2026-05-02T09:50:10Z</time></trkpt><trkpt lat="42.02517911424879" lon="3.0719040296585414"><ele>12.666666666666666</ele><time>2026-05-02T09:50:11Z</time></trkpt><trkpt lat="42.02518626154672" lon="3.0718097365372983"><ele>12.5</ele><time>2026-05-02T09:50:12Z</time></trkpt><trkpt lat="42.025194426835434" lon="3.071713194779866"><ele>12.333333333333332</ele><time>2026-05-02T09:50:13Z</time></trkpt><trkpt lat="42.02520744193937" lon="3.0716300917911163"><ele>12.166666666666666</ele><time>2026-05-02T09:50:14Z</time></trkpt><trkpt lat="42.025247715857994" lon="3.0714906287295527"><ele>12.0</ele><time>2026-05-02T09:50:16Z</time></trkpt><trkpt lat="42.02526767115856" lon="3.0713836615428702"><ele>12.0</ele><time>2026-05-02T09:50:18Z</time></trkpt><trkpt lat="42.02523796461184" lon="3.0712804081065506"><ele>12.0</ele><time>2026-05-02T09:50:20Z</time></trkpt><trkpt lat="42.02519422295759" lon="3.071149503011387"><ele>12.0</ele><time>2026-05-02T09:50:22Z</time></trkpt><trkpt lat="42.025193044093996" lon="3.07105608083909"><ele>12.0</ele><time>2026-05-02T09:50:23Z</time></trkpt><trkpt lat="42.025201292254884" lon="3.070956951977627"><ele>12.0</ele><time>2026-05-02T09:50:24Z</time></trkpt><trkpt lat="42.025198298312894" lon="3.070867760538173"><ele>12.0</ele><time>2026-05-02T09:50:25Z</time></trkpt><trkpt lat="42.02519666526673" lon="3.0707657385766733"><ele>11.999999999999998</ele><time>2026-05-02T09:50:26Z</time></trkpt><trkpt lat="42.02519614574576" lon="3.070667732312052"><ele>12.0</ele><time>2026-05-02T09:50:27Z</time></trkpt><trkpt lat="42.025194685187884" lon="3.0705720593622337"><ele>12.0</ele><time>2026-05-02T09:50:28Z</time></trkpt><trkpt lat="42.02519430318387" lon="3.0704720900704476"><ele>12.0</ele><time>2026-05-02T09:50:29Z</time></trkpt><trkpt lat="42.025194620486424" lon="3.070372422659559"><ele>12.0</ele><time>2026-05-02T09:50:30Z</time></trkpt><trkpt lat="42.025192840703525" lon="3.070274632819948"><ele>11.999999999999998</ele><time>2026-05-02T09:50:31Z</time></trkpt><trkpt lat="42.02519173067007" lon="3.0701735208831633"><ele>12.0</ele><time>2026-05-02T09:50:32Z</time></trkpt><trkpt lat="42.02518970389068" lon="3.07007041098338"><ele>12.0</ele><time>2026-05-02T09:50:33Z</time></trkpt><trkpt lat="42.02518908012321" lon="3.069965359509109"><ele>12.0</ele><time>2026-05-02T09:50:34Z</time></trkpt><trkpt lat="42.02518942350093" lon="3.0698575844447875"><ele>12.0</ele><time>2026-05-02T09:50:35Z</time></trkpt><trkpt lat="42.025188743164584" lon="3.0697532583176854"><ele>12.0</ele><time>2026-05-02T09:50:36Z</time></trkpt><trkpt lat="42.02518765013754" lon="3.0696458096501966"><ele>12.0</ele><time>2026-05-02T09:50:37Z</time></trkpt><trkpt lat="42.02518874384809" lon="3.0695392981513776"><ele>12.0</ele><time>2026-05-02T09:50:38Z</time></trkpt><trkpt lat="42.02519231403685" lon="3.069429023022452"><ele>12.166666666666666</ele><time>2026-05-02T09:50:39Z</time></trkpt><trkpt lat="42.025197653516116" lon="3.069325644217474"><ele>12.333333333333332</ele><time>2026-05-02T09:50:40Z</time></trkpt><trkpt lat="42.02519767271164" lon="3.069219672909107"><ele>12.5</ele><time>2026-05-02T09:50:41Z</time></trkpt><trkpt lat="42.02520262367635" lon="3.069107912322591"><ele>12.666666666666666</ele><time>2026-05-02T09:50:42Z</time></trkpt><trkpt lat="42.02520286882489" lon="3.068997686196821"><ele>12.833333333333332</ele><time>2026-05-02T09:50:43Z</time></trkpt><trkpt lat="42.02520409523699" lon="3.0688888472446103"><ele>13.0</ele><time>2026-05-02T09:50:44Z</time></trkpt><trkpt lat="42.02520776322944" lon="3.0687786980974066"><ele>12.999999999999998</ele><time>2026-05-02T09:50:45Z</time></trkpt><trkpt lat="42.025212314331775" lon="3.06867378271591"><ele>13.0</ele><time>2026-05-02T09:50:46Z</time></trkpt><trkpt lat="42.025217146274436" lon="3.068568851747085"><ele>13.0</ele><time>2026-05-02T09:50:47Z</time></trkpt><trkpt lat="42.025219644211646" lon="3.0684686467438134"><ele>13.0</ele><time>2026-05-02T09:50:48Z</time></trkpt><trkpt lat="42.02521906066783" lon="3.0683683037471847"><ele>12.999999999999998</ele><time>2026-05-02T09:50:48.999Z</time></trkpt><trkpt lat="42.02521905959058" lon="3.068268040536515"><ele>13.0</ele><time>2026-05-02T09:50:49.999Z</time></trkpt><trkpt lat="42.025220693597575" lon="3.0681725078988853"><ele>12.857142857142856</ele><time>2026-05-02T09:50:50.999Z</time></trkpt><trkpt lat="42.02522209802131" lon="3.0680747252563783"><ele>12.714285714285715</ele><time>2026-05-02T09:50:51.999Z</time></trkpt><trkpt lat="42.02522423306097" lon="3.0679773034974622"><ele>12.571428571428571</ele><time>2026-05-02T09:50:52.999Z</time></trkpt><trkpt lat="42.02522504744873" lon="3.0678776431350463"><ele>12.428571428571427</ele><time>2026-05-02T09:50:53.999Z</time></trkpt><trkpt lat="42.02522556311672" lon="3.0677832833674965"><ele>12.285714285714285</ele><time>2026-05-02T09:50:54.999Z</time></trkpt><trkpt lat="42.02522473515966" lon="3.0676896413805697"><ele>12.142857142857142</ele><time>2026-05-02T09:50:55.999Z</time></trkpt><trkpt lat="42.025224943482854" lon="3.0675999797443905"><ele>12.0</ele><time>2026-05-02T09:50:56.999Z</time></trkpt><trkpt lat="42.025231052642475" lon="3.067508250027367"><ele>12.142857142857142</ele><time>2026-05-02T09:50:57.999Z</time></trkpt><trkpt lat="42.025230947050446" lon="3.0674159105878376"><ele>12.285714285714285</ele><time>2026-05-02T09:50:58.999Z</time></trkpt><trkpt lat="42.025229795720975" lon="3.067316871017917"><ele>12.428571428571427</ele><time>2026-05-02T09:50:59.999Z</time></trkpt><trkpt lat="42.025232022088666" lon="3.0672230647701473"><ele>12.571428571428571</ele><time>2026-05-02T09:51:00.999Z</time></trkpt><trkpt lat="42.02523521875935" lon="3.0671278526910184"><ele>12.714285714285715</ele><time>2026-05-02T09:51:01.999Z</time></trkpt><trkpt lat="42.02523688831475" lon="3.067032897912179"><ele>12.857142857142856</ele><time>2026-05-02T09:51:02.999Z</time></trkpt><trkpt lat="42.02523872236672" lon="3.0669389588819764"><ele>13.0</ele><time>2026-05-02T09:51:03.999Z</time></trkpt><trkpt lat="42.02524222634681" lon="3.0668465331306076"><ele>13.0</ele><time>2026-05-02T09:51:04.999Z</time></trkpt><trkpt lat="42.02524559531393" lon="3.066751163447092"><ele>13.0</ele><time>2026-05-02T09:51:05.999Z</time></trkpt><trkpt lat="42.02525119512029" lon="3.066653472982801"><ele>13.0</ele><time>2026-05-02T09:51:06.999Z</time></trkpt><trkpt lat="42.025255517865936" lon="3.066554335209551"><ele>13.0</ele><time>2026-05-02T09:51:07.999Z</time></trkpt><trkpt lat="42.02526561723728" lon="3.0664544924860855"><ele>13.0</ele><time>2026-05-02T09:51:08.999Z</time></trkpt><trkpt lat="42.02527406051753" lon="3.0663509654333203"><ele>13.0</ele><time>2026-05-02T09:51:09.999Z</time></trkpt><trkpt lat="42.02528451533768" lon="3.066251566750668"><ele>13.0</ele><time>2026-05-02T09:51:10.999Z</time></trkpt><trkpt lat="42.02529181441738" lon="3.0661542572310587"><ele>13.166666666666666</ele><time>2026-05-02T09:51:11.999Z</time></trkpt><trkpt lat="42.02529679999186" lon="3.0660580108374216"><ele>13.333333333333332</ele><time>2026-05-02T09:51:12.999Z</time></trkpt><trkpt lat="42.02529972721975" lon="3.0659527597672787"><ele>13.5</ele><time>2026-05-02T09:51:13.999Z</time></trkpt><trkpt lat="42.02529514963369" lon="3.0658491690620933"><ele>13.666666666666668</ele><time>2026-05-02T09:51:15Z</time></trkpt><trkpt lat="42.025291868542936" lon="3.0657469099569643"><ele>13.833333333333334</ele><time>2026-05-02T09:51:16Z</time></trkpt><trkpt lat="42.025293553722705" lon="3.06564725625886"><ele>14.0</ele><time>2026-05-02T09:51:17Z</time></trkpt><trkpt lat="42.02527126999084" lon="3.06554047355608"><ele>14.000000000000002</ele><time>2026-05-02T09:51:18Z</time></trkpt><trkpt lat="42.025286995895165" lon="3.0654426871104814"><ele>14.0</ele><time>2026-05-02T09:51:19Z</time></trkpt><trkpt lat="42.02530043480387" lon="3.0653515480215505"><ele>14.0</ele><time>2026-05-02T09:51:20Z</time></trkpt><trkpt lat="42.02527245178559" lon="3.0652615670257055"><ele>14.0</ele><time>2026-05-02T09:51:21Z</time></trkpt><trkpt lat="42.02527424149014" lon="3.0651697553673367"><ele>14.000000000000002</ele><time>2026-05-02T09:51:22Z</time></trkpt><trkpt lat="42.02523983395371" lon="3.0650002564397907"><ele>14.0</ele><time>2026-05-02T09:51:24Z</time></trkpt><trkpt lat="42.02521977211144" lon="3.064912962258713"><ele>14.000000000000002</ele><time>2026-05-02T09:51:25Z</time></trkpt><trkpt lat="42.025199449909714" lon="3.0648246029094244"><ele>14.0</ele><time>2026-05-02T09:51:26Z</time></trkpt><trkpt lat="42.025179622938744" lon="3.0647307506849106"><ele>14.0</ele><time>2026-05-02T09:51:27Z</time></trkpt><trkpt lat="42.02515854941947" lon="3.06463099781517"><ele>14.0</ele><time>2026-05-02T09:51:28Z</time></trkpt><trkpt lat="42.02513632281725" lon="3.0645257869236437"><ele>14.000000000000002</ele><time>2026-05-02T09:51:29Z</time></trkpt><trkpt lat="42.02511344434317" lon="3.0644125353670866"><ele>14.0</ele><time>2026-05-02T09:51:30Z</time></trkpt><trkpt lat="42.02509211652166" lon="3.0642951486088523"><ele>14.000000000000002</ele><time>2026-05-02T09:51:31Z</time></trkpt><trkpt lat="42.02507394165693" lon="3.0641829435174124"><ele>14.0</ele><time>2026-05-02T09:51:32Z</time></trkpt><trkpt lat="42.02505516786384" lon="3.064067040873091"><ele>14.0</ele><time>2026-05-02T09:51:33Z</time></trkpt><trkpt lat="42.02503424638234" lon="3.0639441690111298"><ele>14.0</ele><time>2026-05-02T09:51:34Z</time></trkpt><trkpt lat="42.02501431362832" lon="3.0638262464319457"><ele>14.000000000000002</ele><time>2026-05-02T09:51:35Z</time></trkpt><trkpt lat="42.0250064423663" lon="3.0637086403831777"><ele>14.0</ele><time>2026-05-02T09:51:36Z</time></trkpt><trkpt lat="42.02500198412136" lon="3.0635906083674573"><ele>14.2</ele><time>2026-05-02T09:51:37Z</time></trkpt><trkpt lat="42.024948571140136" lon="3.0634715063508344"><ele>14.399999999999999</ele><time>2026-05-02T09:51:38Z</time></trkpt><trkpt lat="42.024903620508155" lon="3.0633733593367563"><ele>14.6</ele><time>2026-05-02T09:51:39Z</time></trkpt><trkpt lat="42.02488893574645" lon="3.0632597520813474"><ele>14.8</ele><time>2026-05-02T09:51:40Z</time></trkpt><trkpt lat="42.02485402637347" lon="3.063149745986065"><ele>15.0</ele><time>2026-05-02T09:51:41Z</time></trkpt><trkpt lat="42.02481615963602" lon="3.063045500347042"><ele>15.0</ele><time>2026-05-02T09:51:42Z</time></trkpt><trkpt lat="42.02477642336766" lon="3.0629414464335154"><ele>15.0</ele><time>2026-05-02T09:51:43Z</time></trkpt><trkpt lat="42.02473093802071" lon="3.06283671711652"><ele>15.0</ele><time>2026-05-02T09:51:44Z</time></trkpt><trkpt lat="42.02468135777295" lon="3.062736904213537"><ele>15.0</ele><time>2026-05-02T09:51:45Z</time></trkpt><trkpt lat="42.024631310370346" lon="3.0626401549730913"><ele>15.0</ele><time>2026-05-02T09:51:46Z</time></trkpt><trkpt lat="42.02458023668828" lon="3.0625458703267348"><ele>15.0</ele><time>2026-05-02T09:51:47Z</time></trkpt><trkpt lat="42.024522845595015" lon="3.0624558467951957"><ele>14.833333333333334</ele><time>2026-05-02T09:51:48Z</time></trkpt><trkpt lat="42.02446654838178" lon="3.062373930073955"><ele>14.666666666666668</ele><time>2026-05-02T09:51:49Z</time></trkpt><trkpt lat="42.02441069363598" lon="3.0622956680921143"><ele>14.5</ele><time>2026-05-02T09:51:50Z</time></trkpt><trkpt lat="42.024355135368765" lon="3.06221981484762"><ele>14.333333333333334</ele><time>2026-05-02T09:51:51Z</time></trkpt><trkpt lat="42.02429706393708" lon="3.062145974585442"><ele>14.166666666666668</ele><time>2026-05-02T09:51:52Z</time></trkpt><trkpt lat="42.02423692529163" lon="3.062071280983951"><ele>14.0</ele><time>2026-05-02T09:51:53Z</time></trkpt><trkpt lat="42.0241774236632" lon="3.0619970095916575"><ele>14.000000000000002</ele><time>2026-05-02T09:51:54Z</time></trkpt><trkpt lat="42.02411549656004" lon="3.061918445764996"><ele>14.0</ele><time>2026-05-02T09:51:55Z</time></trkpt><trkpt lat="42.02405403735608" lon="3.0618404755394213"><ele>14.0</ele><time>2026-05-02T09:51:56Z</time></trkpt><trkpt lat="42.02399340116329" lon="3.0617635494310482"><ele>14.0</ele><time>2026-05-02T09:51:57Z</time></trkpt><trkpt lat="42.023934494048795" lon="3.0616863176627915"><ele>14.000000000000002</ele><time>2026-05-02T09:51:58Z</time></trkpt><trkpt lat="42.02387610158951" lon="3.0616076535832533"><ele>14.0</ele><time>2026-05-02T09:51:59Z</time></trkpt><trkpt lat="42.02382345825706" lon="3.0615319451026455"><ele>14.000000000000002</ele><time>2026-05-02T09:52:00Z</time></trkpt><trkpt lat="42.02377401946796" lon="3.061459845295506"><ele>14.0</ele><time>2026-05-02T09:52:01Z</time></trkpt><trkpt lat="42.02372558414726" lon="3.0613863420415726"><ele>14.0</ele><time>2026-05-02T09:52:02Z</time></trkpt><trkpt lat="42.02367625760155" lon="3.061307004161085"><ele>14.0</ele><time>2026-05-02T09:52:03Z</time></trkpt><trkpt lat="42.0236258549456" lon="3.0612226928787205"><ele>14.000000000000002</ele><time>2026-05-02T09:52:04Z</time></trkpt><trkpt lat="42.02357584704773" lon="3.061134871028252"><ele>14.0</ele><time>2026-05-02T09:52:05Z</time></trkpt><trkpt lat="42.023525841212134" lon="3.061047837445024"><ele>14.000000000000002</ele><time>2026-05-02T09:52:06Z</time></trkpt><trkpt lat="42.023474095352924" lon="3.060961594369791"><ele>14.0</ele><time>2026-05-02T09:52:07Z</time></trkpt><trkpt lat="42.02342150992709" lon="3.0608745538382274"><ele>14.0</ele><time>2026-05-02T09:52:08Z</time></trkpt><trkpt lat="42.02336975145619" lon="3.0607893626811147"><ele>14.0</ele><time>2026-05-02T09:52:09Z</time></trkpt><trkpt lat="42.02331880639343" lon="3.0607060812157085"><ele>14.000000000000002</ele><time>2026-05-02T09:52:10Z</time></trkpt><trkpt lat="42.02326871184261" lon="3.060626223367014"><ele>14.0</ele><time>2026-05-02T09:52:11Z</time></trkpt><trkpt lat="42.023218547548424" lon="3.0605462543500073"><ele>14.166666666666668</ele><time>2026-05-02T09:52:12Z</time></trkpt><trkpt lat="42.023168170718336" lon="3.0604650924469916"><ele>14.333333333333334</ele><time>2026-05-02T09:52:13Z</time></trkpt><trkpt lat="42.02311568258452" lon="3.060380354271307"><ele>14.5</ele><time>2026-05-02T09:52:14Z</time></trkpt><trkpt lat="42.02306375114992" lon="3.060296514877713"><ele>14.666666666666668</ele><time>2026-05-02T09:52:15Z</time></trkpt><trkpt lat="42.02301255821831" lon="3.0602142113760733"><ele>14.833333333333334</ele><time>2026-05-02T09:52:16Z</time></trkpt><trkpt lat="42.02296240332893" lon="3.0601345349348428"><ele>15.0</ele><time>2026-05-02T09:52:17Z</time></trkpt><trkpt lat="42.02291228904164" lon="3.060054923023673"><ele>15.0</ele><time>2026-05-02T09:52:18Z</time></trkpt><trkpt lat="42.0228593827975" lon="3.0599749774692655"><ele>15.0</ele><time>2026-05-02T09:52:19Z</time></trkpt><trkpt lat="42.022804360341304" lon="3.0598959465968303"><ele>15.0</ele><time>2026-05-02T09:52:20Z</time></trkpt><trkpt lat="42.02274690117684" lon="3.059816163374458"><ele>15.0</ele><time>2026-05-02T09:52:21Z</time></trkpt><trkpt lat="42.02268569049839" lon="3.0597328340213688"><ele>15.0</ele><time>2026-05-02T09:52:22Z</time></trkpt><trkpt lat="42.02261960026122" lon="3.0596530316709205"><ele>15.0</ele><time>2026-05-02T09:52:23Z</time></trkpt><trkpt lat="42.02254833824993" lon="3.059583972500506"><ele>14.833333333333334</ele><time>2026-05-02T09:52:24Z</time></trkpt><trkpt lat="42.022473102175724" lon="3.0595211475479878"><ele>14.666666666666668</ele><time>2026-05-02T09:52:25Z</time></trkpt><trkpt lat="42.022399804680695" lon="3.059461641113735"><ele>14.5</ele><time>2026-05-02T09:52:26Z</time></trkpt><trkpt lat="42.022329589794914" lon="3.0594077319007424"><ele>14.333333333333334</ele><time>2026-05-02T09:52:27Z</time></trkpt><trkpt lat="42.02226084279678" lon="3.059357683080879"><ele>14.166666666666668</ele><time>2026-05-02T09:52:28Z</time></trkpt><trkpt lat="42.02219376622291" lon="3.059310001153515"><ele>14.0</ele><time>2026-05-02T09:52:29Z</time></trkpt><trkpt lat="42.022127220447345" lon="3.059262696493095"><ele>14.0</ele><time>2026-05-02T09:52:30Z</time></trkpt><trkpt lat="42.02206181998635" lon="3.059218242451761"><ele>14.0</ele><time>2026-05-02T09:52:31Z</time></trkpt><trkpt lat="42.02199981257" lon="3.059175890531671"><ele>14.0</ele><time>2026-05-02T09:52:32Z</time></trkpt><trkpt lat="42.02193973475704" lon="3.0591310861913072"><ele>14.0</ele><time>2026-05-02T09:52:33Z</time></trkpt><trkpt lat="42.02187645287763" lon="3.059080012912508"><ele>14.0</ele><time>2026-05-02T09:52:34Z</time></trkpt><trkpt lat="42.021816211648776" lon="3.0590239530380194"><ele>14.0</ele><time>2026-05-02T09:52:35Z</time></trkpt><trkpt lat="42.021746841503266" lon="3.0589607936507877"><ele>14.0</ele><time>2026-05-02T09:52:36Z</time></trkpt><trkpt lat="42.02167691510369" lon="3.0588976788383317"><ele>14.000000000000002</ele><time>2026-05-02T09:52:37Z</time></trkpt><trkpt lat="42.02160324360984" lon="3.058831158437377"><ele>14.0</ele><time>2026-05-02T09:52:38Z</time></trkpt><trkpt lat="42.021530912884614" lon="3.0587658486628193"><ele>14.0</ele><time>2026-05-02T09:52:39Z</time></trkpt><trkpt lat="42.02146160557843" lon="3.058696004331137"><ele>14.0</ele><time>2026-05-02T09:52:40Z</time></trkpt><trkpt lat="42.021392685319775" lon="3.0586230799037524"><ele>14.000000000000002</ele><time>2026-05-02T09:52:41Z</time></trkpt><trkpt lat="42.02132312072329" lon="3.058549473702363"><ele>14.0</ele><time>2026-05-02T09:52:42Z</time></trkpt><trkpt lat="42.021255593783" lon="3.0584780235428575"><ele>14.000000000000002</ele><time>2026-05-02T09:52:43Z</time></trkpt><trkpt lat="42.021188442805354" lon="3.0584094215959925"><ele>14.0</ele><time>2026-05-02T09:52:44Z</time></trkpt><trkpt lat="42.021122027016126" lon="3.058343414471542"><ele>14.0</ele><time>2026-05-02T09:52:45Z</time></trkpt><trkpt lat="42.0210568578102" lon="3.058283148280231"><ele>14.0</ele><time>2026-05-02T09:52:46Z</time></trkpt><trkpt lat="42.020988369771516" lon="3.0582246427621373"><ele>14.000000000000002</ele><time>2026-05-02T09:52:47Z</time></trkpt><trkpt lat="42.02092142674405" lon="3.0581702216413817"><ele>14.0</ele><time>2026-05-02T09:52:48Z</time></trkpt><trkpt lat="42.020852424392146" lon="3.058116272652233"><ele>14.166666666666668</ele><time>2026-05-02T09:52:49Z</time></trkpt><trkpt lat="42.02077759494258" lon="3.0580647061289055"><ele>14.333333333333334</ele><time>2026-05-02T09:52:50Z</time></trkpt><trkpt lat="42.020699640357314" lon="3.0580183649351764"><ele>14.5</ele><time>2026-05-02T09:52:51Z</time></trkpt><trkpt lat="42.02062152634971" lon="3.0579792576796803"><ele>14.666666666666668</ele><time>2026-05-02T09:52:52Z</time></trkpt><trkpt lat="42.02053914832948" lon="3.0579482022631197"><ele>14.833333333333334</ele><time>2026-05-02T09:52:53Z</time></trkpt><trkpt lat="42.0204619073367" lon="3.0579221875536904"><ele>15.0</ele><time>2026-05-02T09:52:54Z</time></trkpt><trkpt lat="42.02038317602409" lon="3.057902674426242"><ele>15.0</ele><time>2026-05-02T09:52:55Z</time></trkpt><trkpt lat="42.020300193518395" lon="3.0578924955098614"><ele>15.0</ele><time>2026-05-02T09:52:56Z</time></trkpt><trkpt lat="42.02021710094688" lon="3.057892749430079"><ele>15.0</ele><time>2026-05-02T09:52:57Z</time></trkpt><trkpt lat="42.020140499374726" lon="3.0578849160659103"><ele>15.0</ele><time>2026-05-02T09:52:58Z</time></trkpt><trkpt lat="42.0200625037851" lon="3.0578762443518595"><ele>15.0</ele><time>2026-05-02T09:52:59Z</time></trkpt><trkpt lat="42.01998548399208" lon="3.057866753624506"><ele>15.0</ele><time>2026-05-02T09:52:59.999Z</time></trkpt><trkpt lat="42.019906822971166" lon="3.0578566261352838"><ele>15.166666666666666</ele><time>2026-05-02T09:53:00.999Z</time></trkpt><trkpt lat="42.01982760552039" lon="3.0578464270074743"><ele>15.333333333333332</ele><time>2026-05-02T09:53:01.999Z</time></trkpt><trkpt lat="42.01974797765909" lon="3.0578362923744926"><ele>15.5</ele><time>2026-05-02T09:53:02.999Z</time></trkpt><trkpt lat="42.01967049711824" lon="3.0578241876642895"><ele>15.666666666666666</ele><time>2026-05-02T09:53:03.999Z</time></trkpt><trkpt lat="42.01959260342273" lon="3.0578101584248687"><ele>15.833333333333332</ele><time>2026-05-02T09:53:04.999Z</time></trkpt><trkpt lat="42.019516962373444" lon="3.0577923182881017"><ele>16.0</ele><time>2026-05-02T09:53:05.999Z</time></trkpt><trkpt lat="42.01944016882371" lon="3.0577744595881953"><ele>15.999999999999998</ele><time>2026-05-02T09:53:06.999Z</time></trkpt><trkpt lat="42.01936186429842" lon="3.0577523967090317"><ele>16.0</ele><time>2026-05-02T09:53:07.999Z</time></trkpt><trkpt lat="42.019287576234426" lon="3.057729407426958"><ele>16.0</ele><time>2026-05-02T09:53:08.999Z</time></trkpt><trkpt lat="42.019215408832096" lon="3.0577062908573036"><ele>16.0</ele><time>2026-05-02T09:53:09.999Z</time></trkpt><trkpt lat="42.01914467300033" lon="3.057681705188807"><ele>15.999999999999998</ele><time>2026-05-02T09:53:10.999Z</time></trkpt><trkpt lat="42.01907142503166" lon="3.0576562580054727"><ele>16.0</ele><time>2026-05-02T09:53:11.999Z</time></trkpt><trkpt lat="42.01899612065781" lon="3.057630101300586"><ele>15.833333333333332</ele><time>2026-05-02T09:53:12.999Z</time></trkpt><trkpt lat="42.018920309928745" lon="3.0576020584607475"><ele>15.666666666666666</ele><time>2026-05-02T09:53:13.999Z</time></trkpt><trkpt lat="42.018844013947906" lon="3.0575738361229297"><ele>15.5</ele><time>2026-05-02T09:53:14.999Z</time></trkpt><trkpt lat="42.01876731117796" lon="3.057545998982784"><ele>15.333333333333332</ele><time>2026-05-02T09:53:15.999Z</time></trkpt><trkpt lat="42.01869156975141" lon="3.05751920358443"><ele>15.166666666666666</ele><time>2026-05-02T09:53:16.999Z</time></trkpt><trkpt lat="42.01861804785246" lon="3.0574956985969632"><ele>15.0</ele><time>2026-05-02T09:53:17.999Z</time></trkpt><trkpt lat="42.01854634341346" lon="3.0574732926701316"><ele>15.166666666666666</ele><time>2026-05-02T09:53:18.999Z</time></trkpt><trkpt lat="42.018474447838365" lon="3.0574508270167904"><ele>15.333333333333332</ele><time>2026-05-02T09:53:19.999Z</time></trkpt><trkpt lat="42.01839757381602" lon="3.0574268057166583"><ele>15.5</ele><time>2026-05-02T09:53:21Z</time></trkpt><trkpt lat="42.0183212271838" lon="3.05740215786019"><ele>15.666666666666666</ele><time>2026-05-02T09:53:22Z</time></trkpt><trkpt lat="42.01824151350022" lon="3.057375650891735"><ele>15.833333333333332</ele><time>2026-05-02T09:53:23Z</time></trkpt><trkpt lat="42.01816432230251" lon="3.0573485676892678"><ele>16.0</ele><time>2026-05-02T09:53:24Z</time></trkpt><trkpt lat="42.018089390626244" lon="3.057319956762594"><ele>15.999999999999998</ele><time>2026-05-02T09:53:25Z</time></trkpt><trkpt lat="42.01801414933334" lon="3.057290234375068"><ele>16.0</ele><time>2026-05-02T09:53:26Z</time></trkpt><trkpt lat="42.01794127149088" lon="3.0572590380613214"><ele>16.0</ele><time>2026-05-02T09:53:27Z</time></trkpt><trkpt lat="42.017867405765294" lon="3.0572262602379823"><ele>16.0</ele><time>2026-05-02T09:53:28Z</time></trkpt><trkpt lat="42.01779937421889" lon="3.057193739237203"><ele>15.999999999999998</ele><time>2026-05-02T09:53:29Z</time></trkpt><trkpt lat="42.01772870372622" lon="3.0571554264003526"><ele>16.0</ele><time>2026-05-02T09:53:30Z</time></trkpt><trkpt lat="42.017660576558576" lon="3.0571184923833954"><ele>16.0</ele><time>2026-05-02T09:53:31Z</time></trkpt><trkpt lat="42.01759339657446" lon="3.0570831668423497"><ele>15.999999999999998</ele><time>2026-05-02T09:53:32Z</time></trkpt><trkpt lat="42.01752660880813" lon="3.0570518418320605"><ele>16.0</ele><time>2026-05-02T09:53:33Z</time></trkpt><trkpt lat="42.01745930305616" lon="3.057020273873653"><ele>16.0</ele><time>2026-05-02T09:53:34Z</time></trkpt><trkpt lat="42.01739053573841" lon="3.0569880204072986"><ele>15.999999999999998</ele><time>2026-05-02T09:53:35Z</time></trkpt><trkpt lat="42.01732274115756" lon="3.0569554569988124"><ele>16.0</ele><time>2026-05-02T09:53:36Z</time></trkpt><trkpt lat="42.01725301686896" lon="3.0569203643906677"><ele>16.0</ele><time>2026-05-02T09:53:37Z</time></trkpt><trkpt lat="42.01718160839291" lon="3.0568844225887983"><ele>15.999999999999998</ele><time>2026-05-02T09:53:38Z</time></trkpt><trkpt lat="42.01711305611334" lon="3.056849918374601"><ele>16.0</ele><time>2026-05-02T09:53:39Z</time></trkpt><trkpt lat="42.01703977498464" lon="3.0568130339926163"><ele>16.0</ele><time>2026-05-02T09:53:40Z</time></trkpt><trkpt lat="42.016968103261405" lon="3.0567768828150985"><ele>16.0</ele><time>2026-05-02T09:53:41Z</time></trkpt><trkpt lat="42.01689602121228" lon="3.056737304374187"><ele>15.999999999999998</ele><time>2026-05-02T09:53:42Z</time></trkpt><trkpt lat="42.0168233361264" lon="3.0566973948585345"><ele>16.0</ele><time>2026-05-02T09:53:43Z</time></trkpt><trkpt lat="42.0167518811452" lon="3.0566551998779383"><ele>15.999999999999998</ele><time>2026-05-02T09:53:44Z</time></trkpt><trkpt lat="42.016679026315906" lon="3.0566098292143855"><ele>16.0</ele><time>2026-05-02T09:53:45Z</time></trkpt><trkpt lat="42.0166082433609" lon="3.056563197183405"><ele>16.0</ele><time>2026-05-02T09:53:46Z</time></trkpt><trkpt lat="42.01653384425157" lon="3.056513127862524"><ele>16.0</ele><time>2026-05-02T09:53:47Z</time></trkpt><trkpt lat="42.01646131358545" lon="3.05646431599311"><ele>15.999999999999998</ele><time>2026-05-02T09:53:48Z</time></trkpt><trkpt lat="42.01638772301128" lon="3.0564147908262718"><ele>16.0</ele><time>2026-05-02T09:53:49Z</time></trkpt><trkpt lat="42.01631430444998" lon="3.0563667016076317"><ele>15.999999999999998</ele><time>2026-05-02T09:53:50Z</time></trkpt><trkpt lat="42.01624230977466" lon="3.056319838055643"><ele>16.0</ele><time>2026-05-02T09:53:51Z</time></trkpt><trkpt lat="42.0161677087223" lon="3.0562758587983248"><ele>16.0</ele><time>2026-05-02T09:53:52Z</time></trkpt><trkpt lat="42.01609563552285" lon="3.0562348840414955"><ele>16.0</ele><time>2026-05-02T09:53:53Z</time></trkpt><trkpt lat="42.01602025489521" lon="3.056195243866942"><ele>15.999999999999998</ele><time>2026-05-02T09:53:54Z</time></trkpt><trkpt lat="42.015944305362815" lon="3.056155123209297"><ele>16.0</ele><time>2026-05-02T09:53:55Z</time></trkpt><trkpt lat="42.01586806221468" lon="3.0561133229272217"><ele>16.166666666666664</ele><time>2026-05-02T09:53:56Z</time></trkpt><trkpt lat="42.015793468287534" lon="3.0560733357407344"><ele>16.333333333333332</ele><time>2026-05-02T09:53:57Z</time></trkpt><trkpt lat="42.01571314150735" lon="3.0560424504728156"><ele>16.5</ele><time>2026-05-02T09:53:58Z</time></trkpt><trkpt lat="42.01563734102184" lon="3.056018866683223"><ele>16.666666666666668</ele><time>2026-05-02T09:53:59Z</time></trkpt><trkpt lat="42.01555676539605" lon="3.056005483845275"><ele>16.833333333333336</ele><time>2026-05-02T09:54:00Z</time></trkpt><trkpt lat="42.01547872983494" lon="3.0559962253476485"><ele>17.0</ele><time>2026-05-02T09:54:01Z</time></trkpt><trkpt lat="42.01540036133619" lon="3.055990691807516"><ele>16.999999999999996</ele><time>2026-05-02T09:54:02Z</time></trkpt><trkpt lat="42.015320577248474" lon="3.0559936215516994"><ele>17.0</ele><time>2026-05-02T09:54:03Z</time></trkpt><trkpt lat="42.015243554377264" lon="3.0560001190000237"><ele>17.0</ele><time>2026-05-02T09:54:04Z</time></trkpt><trkpt lat="42.015165180700606" lon="3.056006387341498"><ele>17.0</ele><time>2026-05-02T09:54:05Z</time></trkpt><trkpt lat="42.01509135355509" lon="3.0560113035024967"><ele>17.0</ele><time>2026-05-02T09:54:06Z</time></trkpt><trkpt lat="42.01502235659772" lon="3.0560147395098727"><ele>16.999999999999996</ele><time>2026-05-02T09:54:07Z</time></trkpt><trkpt lat="42.014955087633595" lon="3.0560139458624356"><ele>17.0</ele><time>2026-05-02T09:54:08Z</time></trkpt><trkpt lat="42.01488456479919" lon="3.056004838062303"><ele>17.0</ele><time>2026-05-02T09:54:09Z</time></trkpt><trkpt lat="42.014808422458735" lon="3.0559936642441574"><ele>17.0</ele><time>2026-05-02T09:54:10Z</time></trkpt><trkpt lat="42.01473215624554" lon="3.05598576972639"><ele>17.0</ele><time>2026-05-02T09:54:11Z</time></trkpt><trkpt lat="42.01465739748676" lon="3.05597902710776"><ele>17.0</ele><time>2026-05-02T09:54:12Z</time></trkpt><trkpt lat="42.01458378146903" lon="3.0559755834716085"><ele>17.0</ele><time>2026-05-02T09:54:13Z</time></trkpt><trkpt lat="42.01451023302086" lon="3.0559705287466263"><ele>17.0</ele><time>2026-05-02T09:54:14Z</time></trkpt><trkpt lat="42.01443649677391" lon="3.055956879212135"><ele>17.0</ele><time>2026-05-02T09:54:15Z</time></trkpt><trkpt lat="42.01436110847891" lon="3.055935967725731"><ele>17.0</ele><time>2026-05-02T09:54:16Z</time></trkpt><trkpt lat="42.014282625755726" lon="3.055910328907648"><ele>17.0</ele><time>2026-05-02T09:54:17Z</time></trkpt><trkpt lat="42.01420295289229" lon="3.055881728073459"><ele>17.0</ele><time>2026-05-02T09:54:18Z</time></trkpt><trkpt lat="42.01412488842651" lon="3.0558489799312296"><ele>17.0</ele><time>2026-05-02T09:54:19Z</time></trkpt><trkpt lat="42.01405012961946" lon="3.0558149070057556"><ele>17.0</ele><time>2026-05-02T09:54:20Z</time></trkpt><trkpt lat="42.01397515139675" lon="3.055780734087067"><ele>16.833333333333336</ele><time>2026-05-02T09:54:21Z</time></trkpt><trkpt lat="42.013904146042556" lon="3.055744918974933"><ele>16.666666666666668</ele><time>2026-05-02T09:54:22Z</time></trkpt><trkpt lat="42.01383141963096" lon="3.055708063235245"><ele>16.5</ele><time>2026-05-02T09:54:23Z</time></trkpt><trkpt lat="42.01375629310432" lon="3.0556671340956196"><ele>16.333333333333332</ele><time>2026-05-02T09:54:24Z</time></trkpt><trkpt lat="42.013677713529745" lon="3.055632329973649"><ele>16.166666666666664</ele><time>2026-05-02T09:54:25Z</time></trkpt><trkpt lat="42.01360173094515" lon="3.055602310180396"><ele>16.0</ele><time>2026-05-02T09:54:26Z</time></trkpt><trkpt lat="42.013524085442576" lon="3.055571633394103"><ele>15.999999999999998</ele><time>2026-05-02T09:54:27Z</time></trkpt><trkpt lat="42.01344628427571" lon="3.0555408951122147"><ele>16.0</ele><time>2026-05-02T09:54:28Z</time></trkpt><trkpt lat="42.01336906658917" lon="3.0555147420233086"><ele>16.0</ele><time>2026-05-02T09:54:29Z</time></trkpt><trkpt lat="42.01329295408018" lon="3.05549356174622"><ele>16.0</ele><time>2026-05-02T09:54:30Z</time></trkpt><trkpt lat="42.013214018823035" lon="3.055477901402111"><ele>15.999999999999998</ele><time>2026-05-02T09:54:31Z</time></trkpt><trkpt lat="42.01313478307545" lon="3.055465364832357"><ele>16.0</ele><time>2026-05-02T09:54:32Z</time></trkpt><trkpt lat="42.013055292267275" lon="3.0554530130843838"><ele>16.333333333333332</ele><time>2026-05-02T09:54:33Z</time></trkpt><trkpt lat="42.0129759123953" lon="3.05544067857709"><ele>16.666666666666664</ele><time>2026-05-02T09:54:34Z</time></trkpt><trkpt lat="42.012899559744014" lon="3.055428814456415"><ele>17.0</ele><time>2026-05-02T09:54:35Z</time></trkpt><trkpt lat="42.01282068062611" lon="3.055416845172414"><ele>17.333333333333332</ele><time>2026-05-02T09:54:36Z</time></trkpt><trkpt lat="42.01274232145579" lon="3.0554078004774907"><ele>17.666666666666668</ele><time>2026-05-02T09:54:37Z</time></trkpt><trkpt lat="42.01266688530176" lon="3.0554006113274217"><ele>18.0</ele><time>2026-05-02T09:54:38Z</time></trkpt><trkpt lat="42.012592981024476" lon="3.055393733102891"><ele>18.0</ele><time>2026-05-02T09:54:39Z</time></trkpt><trkpt lat="42.012520061643094" lon="3.0553869465510335"><ele>18.0</ele><time>2026-05-02T09:54:40Z</time></trkpt><trkpt lat="42.01244507867986" lon="3.055379967938937"><ele>18.0</ele><time>2026-05-02T09:54:41Z</time></trkpt><trkpt lat="42.01237147003224" lon="3.055371125630735"><ele>18.0</ele><time>2026-05-02T09:54:42Z</time></trkpt><trkpt lat="42.01229602938384" lon="3.0553616179758243"><ele>18.0</ele><time>2026-05-02T09:54:43Z</time></trkpt><trkpt lat="42.01221920125195" lon="3.055351329523199"><ele>18.0</ele><time>2026-05-02T09:54:44Z</time></trkpt><trkpt lat="42.01214373298884" lon="3.055337631225737"><ele>17.666666666666668</ele><time>2026-05-02T09:54:45Z</time></trkpt><trkpt lat="42.01207595386733" lon="3.0553104120980623"><ele>17.333333333333332</ele><time>2026-05-02T09:54:46Z</time></trkpt><trkpt lat="42.012006858777994" lon="3.0552667673731575"><ele>17.0</ele><time>2026-05-02T09:54:47Z</time></trkpt><trkpt lat="42.01194269422224" lon="3.0552118714622236"><ele>16.666666666666664</ele><time>2026-05-02T09:54:48Z</time></trkpt><trkpt lat="42.0118840916499" lon="3.0551431545709478"><ele>16.333333333333332</ele><time>2026-05-02T09:54:49Z</time></trkpt><trkpt lat="42.01182481827265" lon="3.0550650140367117"><ele>16.0</ele><time>2026-05-02T09:54:50Z</time></trkpt><trkpt lat="42.011773200616005" lon="3.0549808203655235"><ele>16.166666666666664</ele><time>2026-05-02T09:54:51Z</time></trkpt><trkpt lat="42.01172354048169" lon="3.0548885040229794"><ele>16.333333333333332</ele><time>2026-05-02T09:54:52Z</time></trkpt><trkpt lat="42.011675867392434" lon="3.054794345257926"><ele>16.5</ele><time>2026-05-02T09:54:53Z</time></trkpt><trkpt lat="42.01162925086394" lon="3.0546968190699064"><ele>16.666666666666668</ele><time>2026-05-02T09:54:54Z</time></trkpt><trkpt lat="42.01158333940145" lon="3.054596344068633"><ele>16.833333333333336</ele><time>2026-05-02T09:54:55Z</time></trkpt><trkpt lat="42.011542400642455" lon="3.0544973323821383"><ele>17.0</ele><time>2026-05-02T09:54:56Z</time></trkpt><trkpt lat="42.011488708328336" lon="3.054403540136339"><ele>17.0</ele><time>2026-05-02T09:54:57Z</time></trkpt><trkpt lat="42.01146347545039" lon="3.054293847945759"><ele>17.0</ele><time>2026-05-02T09:54:58Z</time></trkpt><trkpt lat="42.011421243522456" lon="3.0541940294440715"><ele>17.0</ele><time>2026-05-02T09:54:59Z</time></trkpt><trkpt lat="42.01137038392722" lon="3.0541000249372745"><ele>17.0</ele><time>2026-05-02T09:55:00Z</time></trkpt><trkpt lat="42.01131282061708" lon="3.0540132844538705"><ele>17.0</ele><time>2026-05-02T09:55:01Z</time></trkpt><trkpt lat="42.0112518034019" lon="3.0539341954278303"><ele>17.0</ele><time>2026-05-02T09:55:02Z</time></trkpt><trkpt lat="42.01118659924719" lon="3.0538569535221036"><ele>17.0</ele><time>2026-05-02T09:55:03Z</time></trkpt><trkpt lat="42.01111919277724" lon="3.053781703156353"><ele>17.0</ele><time>2026-05-02T09:55:04Z</time></trkpt><trkpt lat="42.01105202069782" lon="3.0537093075502226"><ele>17.0</ele><time>2026-05-02T09:55:05Z</time></trkpt><trkpt lat="42.01098595507961" lon="3.0536386351531584"><ele>17.0</ele><time>2026-05-02T09:55:06Z</time></trkpt><trkpt lat="42.01091906263312" lon="3.0535670782637943"><ele>17.0</ele><time>2026-05-02T09:55:06.999Z</time></trkpt><trkpt lat="42.0108529901614" lon="3.0534954053613608"><ele>17.0</ele><time>2026-05-02T09:55:07.999Z</time></trkpt><trkpt lat="42.010783451637785" lon="3.0534234773142734"><ele>16.833333333333336</ele><time>2026-05-02T09:55:08.999Z</time></trkpt><trkpt lat="42.01071314136478" lon="3.053360321584867"><ele>16.666666666666668</ele><time>2026-05-02T09:55:09.998Z</time></trkpt><trkpt lat="42.01063913541054" lon="3.0533026156378082"><ele>16.5</ele><time>2026-05-02T09:55:10.998Z</time></trkpt><trkpt lat="42.01056161948747" lon="3.053251693376289"><ele>16.333333333333332</ele><time>2026-05-02T09:55:11.998Z</time></trkpt><trkpt lat="42.010482680292235" lon="3.053207740806512"><ele>16.166666666666664</ele><time>2026-05-02T09:55:12.998Z</time></trkpt><trkpt lat="42.010405078713326" lon="3.0531651851165207"><ele>16.0</ele><time>2026-05-02T09:55:13.998Z</time></trkpt><trkpt lat="42.010323389060474" lon="3.053125419614699"><ele>15.999999999999998</ele><time>2026-05-02T09:55:14.998Z</time></trkpt><trkpt lat="42.010243123903045" lon="3.0530861482410794"><ele>16.0</ele><time>2026-05-02T09:55:15.998Z</time></trkpt><trkpt lat="42.01016464273211" lon="3.0530453878776878"><ele>16.0</ele><time>2026-05-02T09:55:16.998Z</time></trkpt><trkpt lat="42.01008656179005" lon="3.053003436067454"><ele>16.0</ele><time>2026-05-02T09:55:17.998Z</time></trkpt><trkpt lat="42.010009055578614" lon="3.052957933565688"><ele>15.999999999999998</ele><time>2026-05-02T09:55:18.998Z</time></trkpt><trkpt lat="42.00993874727448" lon="3.0529089154369027"><ele>16.0</ele><time>2026-05-02T09:55:19.998Z</time></trkpt><trkpt lat="42.00986882906484" lon="3.052857650576187"><ele>16.333333333333332</ele><time>2026-05-02T09:55:20.998Z</time></trkpt><trkpt lat="42.0098030786949" lon="3.0528077958341293"><ele>16.666666666666664</ele><time>2026-05-02T09:55:21.998Z</time></trkpt><trkpt lat="42.00973815624299" lon="3.052756719540019"><ele>17.0</ele><time>2026-05-02T09:55:22.998Z</time></trkpt><trkpt lat="42.009669289656955" lon="3.052699585167415"><ele>17.333333333333332</ele><time>2026-05-02T09:55:23.998Z</time></trkpt><trkpt lat="42.00960213077404" lon="3.0526393736189075"><ele>17.666666666666668</ele><time>2026-05-02T09:55:24.998Z</time></trkpt><trkpt lat="42.009536039257156" lon="3.052575330512754"><ele>18.0</ele><time>2026-05-02T09:55:25.998Z</time></trkpt><trkpt lat="42.00947167420235" lon="3.0525100205845916"><ele>18.0</ele><time>2026-05-02T09:55:26.999Z</time></trkpt><trkpt lat="42.009405581706" lon="3.052440381097743"><ele>18.0</ele><time>2026-05-02T09:55:27.999Z</time></trkpt><trkpt lat="42.009340618964" lon="3.052370763940273"><ele>18.0</ele><time>2026-05-02T09:55:28.999Z</time></trkpt><trkpt lat="42.009277064685605" lon="3.052299346757123"><ele>18.0</ele><time>2026-05-02T09:55:29.999Z</time></trkpt><trkpt lat="42.00921589555771" lon="3.0522299548589995"><ele>18.0</ele><time>2026-05-02T09:55:30.999Z</time></trkpt><trkpt lat="42.00915565976316" lon="3.0521626484012785"><ele>18.0</ele><time>2026-05-02T09:55:31.999Z</time></trkpt><trkpt lat="42.009092392859834" lon="3.052093874505325"><ele>18.0</ele><time>2026-05-02T09:55:32.999Z</time></trkpt><trkpt lat="42.00903058524483" lon="3.052026686948192"><ele>18.0</ele><time>2026-05-02T09:55:33.999Z</time></trkpt><trkpt lat="42.00896830361695" lon="3.051964900488916"><ele>18.0</ele><time>2026-05-02T09:55:34.999Z</time></trkpt><trkpt lat="42.00890823307332" lon="3.0519057206798075"><ele>18.0</ele><time>2026-05-02T09:55:35.999Z</time></trkpt><trkpt lat="42.00884727666284" lon="3.051845668092486"><ele>18.0</ele><time>2026-05-02T09:55:36.999Z</time></trkpt><trkpt lat="42.00878432239027" lon="3.0517836472693847"><ele>18.0</ele><time>2026-05-02T09:55:37.999Z</time></trkpt><trkpt lat="42.008723297417966" lon="3.051723527050407"><ele>18.0</ele><time>2026-05-02T09:55:38.999Z</time></trkpt><trkpt lat="42.008662144371" lon="3.051659064742982"><ele>18.0</ele><time>2026-05-02T09:55:39.999Z</time></trkpt><trkpt lat="42.00859805960841" lon="3.0515935083956607"><ele>18.0</ele><time>2026-05-02T09:55:40.999Z</time></trkpt><trkpt lat="42.00852990930073" lon="3.051531220239164"><ele>18.0</ele><time>2026-05-02T09:55:41.999Z</time></trkpt><trkpt lat="42.00846189275912" lon="3.051472748882324"><ele>18.0</ele><time>2026-05-02T09:55:42.999Z</time></trkpt><trkpt lat="42.00839370087282" lon="3.051415226481053"><ele>18.0</ele><time>2026-05-02T09:55:43.999Z</time></trkpt><trkpt lat="42.00832843609438" lon="3.051358428665699"><ele>18.0</ele><time>2026-05-02T09:55:44.999Z</time></trkpt><trkpt lat="42.00825882322376" lon="3.0512964900391206"><ele>18.0</ele><time>2026-05-02T09:55:45.999Z</time></trkpt><trkpt lat="42.00819218593077" lon="3.051234502561402"><ele>18.0</ele><time>2026-05-02T09:55:46.999Z</time></trkpt><trkpt lat="42.00812588195333" lon="3.051168114182524"><ele>18.0</ele><time>2026-05-02T09:55:47.999Z</time></trkpt><trkpt lat="42.008058252195674" lon="3.0510979292993214"><ele>18.0</ele><time>2026-05-02T09:55:48.999Z</time></trkpt><trkpt lat="42.00799169455144" lon="3.0510256995626324"><ele>18.0</ele><time>2026-05-02T09:55:49.999Z</time></trkpt><trkpt lat="42.00792839952187" lon="3.050949118058716"><ele>18.0</ele><time>2026-05-02T09:55:50.999Z</time></trkpt><trkpt lat="42.00786177874232" lon="3.05086834876614"><ele>18.0</ele><time>2026-05-02T09:55:51.999Z</time></trkpt><trkpt lat="42.00779213045537" lon="3.0507983834605703"><ele>18.0</ele><time>2026-05-02T09:55:52.999Z</time></trkpt><trkpt lat="42.00772582535358" lon="3.0507391866712092"><ele>18.0</ele><time>2026-05-02T09:55:53.999Z</time></trkpt><trkpt lat="42.00765285127709" lon="3.0506858227620954"><ele>18.0</ele><time>2026-05-02T09:55:54.999Z</time></trkpt><trkpt lat="42.00757410938623" lon="3.0506422659243295"><ele>18.0</ele><time>2026-05-02T09:55:55.999Z</time></trkpt><trkpt lat="42.00748775814434" lon="3.0506140696921364"><ele>18.166666666666668</ele><time>2026-05-02T09:55:56.999Z</time></trkpt><trkpt lat="42.00739690137094" lon="3.0506124019184164"><ele>18.333333333333332</ele><time>2026-05-02T09:55:57.999Z</time></trkpt><trkpt lat="42.007308087403004" lon="3.05061446005779"><ele>18.5</ele><time>2026-05-02T09:55:58.999Z</time></trkpt><trkpt lat="42.00722005575621" lon="3.0506201171142586"><ele>18.666666666666664</ele><time>2026-05-02T09:55:59.999Z</time></trkpt><trkpt lat="42.00713463223825" lon="3.0506291876793052"><ele>18.833333333333332</ele><time>2026-05-02T09:56:00.999Z</time></trkpt><trkpt lat="42.007051238753434" lon="3.0506396395602127"><ele>19.0</ele><time>2026-05-02T09:56:01.999Z</time></trkpt><trkpt lat="42.006965918435824" lon="3.0506503546766477"><ele>19.0</ele><time>2026-05-02T09:56:02.999Z</time></trkpt><trkpt lat="42.00688062108216" lon="3.0506624062719974"><ele>19.0</ele><time>2026-05-02T09:56:03.999Z</time></trkpt><trkpt lat="42.00679795253836" lon="3.0506741398709196"><ele>19.0</ele><time>2026-05-02T09:56:04.999Z</time></trkpt><trkpt lat="42.00671386011419" lon="3.0506806149034618"><ele>19.0</ele><time>2026-05-02T09:56:05.999Z</time></trkpt><trkpt lat="42.006631380105034" lon="3.050681568235231"><ele>19.0</ele><time>2026-05-02T09:56:06.999Z</time></trkpt><trkpt lat="42.00654685563189" lon="3.0506771097571708"><ele>19.0</ele><time>2026-05-02T09:56:07.999Z</time></trkpt><trkpt lat="42.0064610965607" lon="3.050669269353364"><ele>19.0</ele><time>2026-05-02T09:56:08.999Z</time></trkpt><trkpt lat="42.006381269336316" lon="3.0506566705355023"><ele>19.0</ele><time>2026-05-02T09:56:09.999Z</time></trkpt><trkpt lat="42.00630319743719" lon="3.0506380471361942"><ele>19.0</ele><time>2026-05-02T09:56:10.999Z</time></trkpt><trkpt lat="42.006224296505714" lon="3.050617213972282"><ele>19.0</ele><time>2026-05-02T09:56:11.999Z</time></trkpt><trkpt lat="42.00614439472915" lon="3.050596116518517"><ele>19.0</ele><time>2026-05-02T09:56:12.999Z</time></trkpt><trkpt lat="42.00606887610705" lon="3.0505748680277454"><ele>19.0</ele><time>2026-05-02T09:56:13.999Z</time></trkpt><trkpt lat="42.005990537739635" lon="3.050552335917536"><ele>19.0</ele><time>2026-05-02T09:56:14.999Z</time></trkpt><trkpt lat="42.005916379006194" lon="3.050528131541579"><ele>19.0</ele><time>2026-05-02T09:56:15.999Z</time></trkpt><trkpt lat="42.00584424689858" lon="3.0505021997073833"><ele>19.0</ele><time>2026-05-02T09:56:16.999Z</time></trkpt><trkpt lat="42.00577031912826" lon="3.050472221192358"><ele>19.0</ele><time>2026-05-02T09:56:17.999Z</time></trkpt><trkpt lat="42.00569567308046" lon="3.0504419514386134"><ele>19.0</ele><time>2026-05-02T09:56:18.999Z</time></trkpt><trkpt lat="42.00562270252934" lon="3.050412361096983"><ele>19.0</ele><time>2026-05-02T09:56:19.999Z</time></trkpt><trkpt lat="42.0055487383473" lon="3.050382367847465"><ele>19.0</ele><time>2026-05-02T09:56:20.999Z</time></trkpt><trkpt lat="42.00547648774723" lon="3.050352111414273"><ele>19.0</ele><time>2026-05-02T09:56:21.999Z</time></trkpt><trkpt lat="42.00540479006115" lon="3.0503218615399854"><ele>19.0</ele><time>2026-05-02T09:56:22.999Z</time></trkpt><trkpt lat="42.00533403868049" lon="3.050291093025117"><ele>19.0</ele><time>2026-05-02T09:56:23.999Z</time></trkpt><trkpt lat="42.005264219265484" lon="3.0502561966854578"><ele>19.0</ele><time>2026-05-02T09:56:24.999Z</time></trkpt><trkpt lat="42.005194854747316" lon="3.0502147621820868"><ele>19.0</ele><time>2026-05-02T09:56:25.999Z</time></trkpt><trkpt lat="42.00512721606301" lon="3.050167874966355"><ele>19.0</ele><time>2026-05-02T09:56:26.999Z</time></trkpt><trkpt lat="42.00505891034475" lon="3.050118012402793"><ele>19.0</ele><time>2026-05-02T09:56:27.999Z</time></trkpt><trkpt lat="42.00499700452262" lon="3.0500580656712155"><ele>19.0</ele><time>2026-05-02T09:56:28.999Z</time></trkpt><trkpt lat="42.0049382463107" lon="3.0499894819571223"><ele>19.0</ele><time>2026-05-02T09:56:29.999Z</time></trkpt><trkpt lat="42.00488041755186" lon="3.0499116364312835"><ele>19.0</ele><time>2026-05-02T09:56:30.999Z</time></trkpt><trkpt lat="42.004822239180655" lon="3.0498313743078023"><ele>19.0</ele><time>2026-05-02T09:56:31.999Z</time></trkpt><trkpt lat="42.004765992339216" lon="3.0497522257206175"><ele>18.666666666666664</ele><time>2026-05-02T09:56:32.999Z</time></trkpt><trkpt lat="42.004707955838235" lon="3.0496705586160533"><ele>18.333333333333332</ele><time>2026-05-02T09:56:33.999Z</time></trkpt><trkpt lat="42.00465101292911" lon="3.0495878065929927"><ele>18.0</ele><time>2026-05-02T09:56:34.999Z</time></trkpt><trkpt lat="42.00458853069704" lon="3.0495222358170206"><ele>17.666666666666668</ele><time>2026-05-02T09:56:35.999Z</time></trkpt><trkpt lat="42.00453125525447" lon="3.049447305571785"><ele>17.333333333333336</ele><time>2026-05-02T09:56:36.999Z</time></trkpt><trkpt lat="42.00448772757454" lon="3.0493534414641243"><ele>17.0</ele><time>2026-05-02T09:56:37.999Z</time></trkpt><trkpt lat="42.00443097941367" lon="3.0492726673488577"><ele>17.0</ele><time>2026-05-02T09:56:38.999Z</time></trkpt><trkpt lat="42.004375927923455" lon="3.0491943082017503"><ele>17.0</ele><time>2026-05-02T09:56:39.999Z</time></trkpt><trkpt lat="42.00432219316449" lon="3.0491178232872675"><ele>17.0</ele><time>2026-05-02T09:56:40.999Z</time></trkpt><trkpt lat="42.004270380714175" lon="3.049044074582955"><ele>17.0</ele><time>2026-05-02T09:56:41.999Z</time></trkpt><trkpt lat="42.00421955626118" lon="3.048970474331276"><ele>17.0</ele><time>2026-05-02T09:56:42.999Z</time></trkpt><trkpt lat="42.00416592623475" lon="3.0488905875971946"><ele>17.0</ele><time>2026-05-02T09:56:43.999Z</time></trkpt><trkpt lat="42.00411160415321" lon="3.0488096699653005"><ele>17.166666666666668</ele><time>2026-05-02T09:56:44.999Z</time></trkpt><trkpt lat="42.004058035800526" lon="3.0487298751685277"><ele>17.333333333333336</ele><time>2026-05-02T09:56:45.999Z</time></trkpt><trkpt lat="42.00400835968499" lon="3.048655878073231"><ele>17.5</ele><time>2026-05-02T09:56:46.999Z</time></trkpt><trkpt lat="42.00395706134367" lon="3.048579464684725"><ele>17.666666666666668</ele><time>2026-05-02T09:56:47.999Z</time></trkpt><trkpt lat="42.003906022286586" lon="3.0485034373941593"><ele>17.833333333333332</ele><time>2026-05-02T09:56:48.999Z</time></trkpt><trkpt lat="42.00385472116587" lon="3.0484289352811254"><ele>18.0</ele><time>2026-05-02T09:56:49.999Z</time></trkpt><trkpt lat="42.00380758510057" lon="3.0483610939530488"><ele>18.000000000000004</ele><time>2026-05-02T09:56:50.999Z</time></trkpt><trkpt lat="42.00376120687663" lon="3.0482943434594736"><ele>18.0</ele><time>2026-05-02T09:56:51.999Z</time></trkpt><trkpt lat="42.00371804515613" lon="3.0482287342010483"><ele>18.0</ele><time>2026-05-02T09:56:52.999Z</time></trkpt><trkpt lat="42.00367350031701" lon="3.0481599481044204"><ele>18.0</ele><time>2026-05-02T09:56:53.999Z</time></trkpt><trkpt lat="42.00362617872809" lon="3.0480875656356874"><ele>18.0</ele><time>2026-05-02T09:56:54.999Z</time></trkpt><trkpt lat="42.0035772406707" lon="3.048014031123816"><ele>18.000000000000004</ele><time>2026-05-02T09:56:55.999Z</time></trkpt><trkpt lat="42.003531692988766" lon="3.047945590098206"><ele>18.0</ele><time>2026-05-02T09:56:56.999Z</time></trkpt><trkpt lat="42.003429248032496" lon="3.047849216356569"><ele>18.2</ele><time>2026-05-02T09:56:58.999Z</time></trkpt><trkpt lat="42.00332382952848" lon="3.047771111004141"><ele>18.4</ele><time>2026-05-02T09:57:00.999Z</time></trkpt><trkpt lat="42.00321326705124" lon="3.0476910436248335"><ele>18.599999999999998</ele><time>2026-05-02T09:57:02.999Z</time></trkpt><trkpt lat="42.00315264951392" lon="3.0476445132495287"><ele>18.8</ele><time>2026-05-02T09:57:03.999Z</time></trkpt><trkpt lat="42.003091631079265" lon="3.0475981394612957"><ele>19.0</ele><time>2026-05-02T09:57:04.999Z</time></trkpt><trkpt lat="42.00302670368782" lon="3.0475535046327713"><ele>19.0</ele><time>2026-05-02T09:57:05.999Z</time></trkpt><trkpt lat="42.00296021335659" lon="3.0475137909279604"><ele>19.0</ele><time>2026-05-02T09:57:06.999Z</time></trkpt><trkpt lat="42.00289443828986" lon="3.047474266094712"><ele>19.0</ele><time>2026-05-02T09:57:07.999Z</time></trkpt><trkpt lat="42.00282745689923" lon="3.0474326755208665"><ele>19.0</ele><time>2026-05-02T09:57:08.999Z</time></trkpt><trkpt lat="42.002758217902" lon="3.047390498147742"><ele>19.0</ele><time>2026-05-02T09:57:09.999Z</time></trkpt><trkpt lat="42.00268646813999" lon="3.047351763587031"><ele>19.0</ele><time>2026-05-02T09:57:10.999Z</time></trkpt><trkpt lat="42.002612547614035" lon="3.0473146469885624"><ele>19.166666666666664</ele><time>2026-05-02T09:57:11.999Z</time></trkpt><trkpt lat="42.00253802933119" lon="3.0472766553742288"><ele>19.333333333333332</ele><time>2026-05-02T09:57:12.999Z</time></trkpt><trkpt lat="42.002465255198736" lon="3.0472384228313"><ele>19.5</ele><time>2026-05-02T09:57:13.999Z</time></trkpt><trkpt lat="42.00238997424419" lon="3.0471988733154634"><ele>19.666666666666668</ele><time>2026-05-02T09:57:14.999Z</time></trkpt><trkpt lat="42.002309715616015" lon="3.047160315441975"><ele>19.833333333333336</ele><time>2026-05-02T09:57:15.999Z</time></trkpt><trkpt lat="42.00222767405582" lon="3.0471265443787448"><ele>20.0</ele><time>2026-05-02T09:57:16.999Z</time></trkpt><trkpt lat="42.00214666021448" lon="3.047097983285758"><ele>20.0</ele><time>2026-05-02T09:57:17.999Z</time></trkpt><trkpt lat="42.00206483216203" lon="3.0470706591430825"><ele>20.0</ele><time>2026-05-02T09:57:18.999Z</time></trkpt><trkpt lat="42.00197729817665" lon="3.0470480459926312"><ele>20.0</ele><time>2026-05-02T09:57:19.999Z</time></trkpt><trkpt lat="42.00189252579185" lon="3.0470241893436345"><ele>20.0</ele><time>2026-05-02T09:57:20.999Z</time></trkpt><trkpt lat="42.001808576487505" lon="3.046999194621672"><ele>20.0</ele><time>2026-05-02T09:57:21.999Z</time></trkpt><trkpt lat="42.00172509080059" lon="3.0469743380528342"><ele>20.0</ele><time>2026-05-02T09:57:22.999Z</time></trkpt><trkpt lat="42.00163946414261" lon="3.046952568299329"><ele>20.0</ele><time>2026-05-02T09:57:23.999Z</time></trkpt><trkpt lat="42.001552693369405" lon="3.0469311332263564"><ele>20.0</ele><time>2026-05-02T09:57:24.999Z</time></trkpt><trkpt lat="42.00146791420085" lon="3.046908504924448"><ele>20.0</ele><time>2026-05-02T09:57:25.998Z</time></trkpt><trkpt lat="42.00138441851868" lon="3.046886037924033"><ele>20.0</ele><time>2026-05-02T09:57:26.998Z</time></trkpt><trkpt lat="42.00129845192738" lon="3.0468629060807517"><ele>20.0</ele><time>2026-05-02T09:57:27.998Z</time></trkpt><trkpt lat="42.00121620344146" lon="3.0468423077932845"><ele>20.0</ele><time>2026-05-02T09:57:28.998Z</time></trkpt><trkpt lat="42.00113374094486" lon="3.0468255402569664"><ele>20.0</ele><time>2026-05-02T09:57:29.998Z</time></trkpt><trkpt lat="42.00105804027898" lon="3.046811983883921"><ele>20.0</ele><time>2026-05-02T09:57:30.998Z</time></trkpt><trkpt lat="42.000983336558214" lon="3.0467986060303676"><ele>20.0</ele><time>2026-05-02T09:57:31.998Z</time></trkpt><trkpt lat="42.00090965446074" lon="3.0467854135642547"><ele>20.0</ele><time>2026-05-02T09:57:32.999Z</time></trkpt><trkpt lat="42.00083577816336" lon="3.0467702822610363"><ele>20.0</ele><time>2026-05-02T09:57:33.999Z</time></trkpt><trkpt lat="42.00076261137782" lon="3.0467547959831007"><ele>20.0</ele><time>2026-05-02T09:57:34.999Z</time></trkpt><trkpt lat="42.00068895715215" lon="3.04673808942867"><ele>20.0</ele><time>2026-05-02T09:57:35.999Z</time></trkpt><trkpt lat="42.00061648460492" lon="3.046721650868114"><ele>20.0</ele><time>2026-05-02T09:57:36.999Z</time></trkpt><trkpt lat="42.00054179980417" lon="3.0467047105342298"><ele>20.0</ele><time>2026-05-02T09:57:37.999Z</time></trkpt><trkpt lat="42.000465470538366" lon="3.046687397185938"><ele>20.0</ele><time>2026-05-02T09:57:38.999Z</time></trkpt><trkpt lat="42.000392769873365" lon="3.046669609604657"><ele>20.0</ele><time>2026-05-02T09:57:39.999Z</time></trkpt><trkpt lat="42.000317424311" lon="3.046649915297414"><ele>20.0</ele><time>2026-05-02T09:57:40.999Z</time></trkpt><trkpt lat="42.00024398751419" lon="3.0466305318426805"><ele>20.142857142857142</ele><time>2026-05-02T09:57:41.999Z</time></trkpt><trkpt lat="42.00017041707633" lon="3.0466111131003797"><ele>20.285714285714285</ele><time>2026-05-02T09:57:42.999Z</time></trkpt><trkpt lat="42.000100373824566" lon="3.046591644286417"><ele>20.42857142857143</ele><time>2026-05-02T09:57:43.999Z</time></trkpt><trkpt lat="42.000030693216786" lon="3.0465687016573177"><ele>20.57142857142857</ele><time>2026-05-02T09:57:44.999Z</time></trkpt><trkpt lat="41.99996402141344" lon="3.046543961294777"><ele>20.714285714285715</ele><time>2026-05-02T09:57:45.999Z</time></trkpt><trkpt lat="41.99990261024545" lon="3.0465170226878353"><ele>20.857142857142858</ele><time>2026-05-02T09:57:46.999Z</time></trkpt><trkpt lat="41.99984192180402" lon="3.046485292536758"><ele>21.0</ele><time>2026-05-02T09:57:47.999Z</time></trkpt><trkpt lat="41.99978222782018" lon="3.0464497201065655"><ele>21.0</ele><time>2026-05-02T09:57:48.999Z</time></trkpt><trkpt lat="41.99972293934736" lon="3.0464118680487107"><ele>21.0</ele><time>2026-05-02T09:57:49.999Z</time></trkpt><trkpt lat="41.999663874720966" lon="3.0463730514970817"><ele>21.0</ele><time>2026-05-02T09:57:50.999Z</time></trkpt><trkpt lat="41.99960241338123" lon="3.0463313810268864"><ele>21.0</ele><time>2026-05-02T09:57:51.999Z</time></trkpt><trkpt lat="41.99954124887465" lon="3.0462865156532777"><ele>21.0</ele><time>2026-05-02T09:57:52.999Z</time></trkpt><trkpt lat="41.99948261200809" lon="3.0462431526814613"><ele>21.0</ele><time>2026-05-02T09:57:53.999Z</time></trkpt><trkpt lat="41.99942444206626" lon="3.046204676195495"><ele>21.0</ele><time>2026-05-02T09:57:54.999Z</time></trkpt><trkpt lat="41.99936262868487" lon="3.046169413002804"><ele>21.0</ele><time>2026-05-02T09:57:55.999Z</time></trkpt><trkpt lat="41.99929960262695" lon="3.04613630924458"><ele>21.0</ele><time>2026-05-02T09:57:56.999Z</time></trkpt><trkpt lat="41.99924020666541" lon="3.0461069533848764"><ele>21.0</ele><time>2026-05-02T09:57:57.999Z</time></trkpt><trkpt lat="41.999175630633346" lon="3.046079039411487"><ele>21.0</ele><time>2026-05-02T09:57:58.999Z</time></trkpt><trkpt lat="41.99910728312529" lon="3.0460547533471622"><ele>21.0</ele><time>2026-05-02T09:57:59.999Z</time></trkpt><trkpt lat="41.99903950344376" lon="3.0460355114185536"><ele>21.0</ele><time>2026-05-02T09:58:00.999Z</time></trkpt><trkpt lat="41.99896480757472" lon="3.0460228171303902"><ele>21.0</ele><time>2026-05-02T09:58:01.999Z</time></trkpt><trkpt lat="41.99889003181163" lon="3.04601352397268"><ele>21.0</ele><time>2026-05-02T09:58:02.999Z</time></trkpt><trkpt lat="41.998816698287406" lon="3.046005636361376"><ele>21.0</ele><time>2026-05-02T09:58:03.999Z</time></trkpt><trkpt lat="41.99874178523837" lon="3.0459991859000772"><ele>21.0</ele><time>2026-05-02T09:58:04.999Z</time></trkpt><trkpt lat="41.99866798328556" lon="3.0459935088220975"><ele>21.0</ele><time>2026-05-02T09:58:05.999Z</time></trkpt><trkpt lat="41.99859213625304" lon="3.0459876744363013"><ele>21.0</ele><time>2026-05-02T09:58:06.999Z</time></trkpt><trkpt lat="41.99851663172375" lon="3.045982507058714"><ele>21.0</ele><time>2026-05-02T09:58:07.999Z</time></trkpt><trkpt lat="41.998440775249705" lon="3.0459776221442816"><ele>21.0</ele><time>2026-05-02T09:58:08.999Z</time></trkpt><trkpt lat="41.998363755341664" lon="3.045972662316124"><ele>21.0</ele><time>2026-05-02T09:58:09.999Z</time></trkpt><trkpt lat="41.99828518689998" lon="3.0459677237171374"><ele>21.0</ele><time>2026-05-02T09:58:10.999Z</time></trkpt><trkpt lat="41.99820874249024" lon="3.045963555628234"><ele>21.0</ele><time>2026-05-02T09:58:11.999Z</time></trkpt><trkpt lat="41.99813153716482" lon="3.045959346059222"><ele>21.0</ele><time>2026-05-02T09:58:12.999Z</time></trkpt><trkpt lat="41.99805633878582" lon="3.0459541813767075"><ele>21.0</ele><time>2026-05-02T09:58:13.999Z</time></trkpt><trkpt lat="41.99798118958194" lon="3.0459449935961067"><ele>21.571428571428573</ele><time>2026-05-02T09:58:14.999Z</time></trkpt><trkpt lat="41.997911212306825" lon="3.0459319371495415"><ele>22.142857142857142</ele><time>2026-05-02T09:58:15.999Z</time></trkpt><trkpt lat="41.99784027943716" lon="3.0459154533634907"><ele>22.714285714285715</ele><time>2026-05-02T09:58:16.999Z</time></trkpt><trkpt lat="41.99776734431998" lon="3.0458968571791467"><ele>23.285714285714285</ele><time>2026-05-02T09:58:17.999Z</time></trkpt><trkpt lat="41.99769728788163" lon="3.0458731973630475"><ele>23.857142857142858</ele><time>2026-05-02T09:58:18.999Z</time></trkpt><trkpt lat="41.997626221266245" lon="3.045846370462731"><ele>24.42857142857143</ele><time>2026-05-02T09:58:19.999Z</time></trkpt><trkpt lat="41.997556390944126" lon="3.045814338993377"><ele>25.0</ele><time>2026-05-02T09:58:20.999Z</time></trkpt><trkpt lat="41.997486521455976" lon="3.045782153135566"><ele>25.000000000000004</ele><time>2026-05-02T09:58:21.999Z</time></trkpt><trkpt lat="41.99741618964014" lon="3.0457525626595983"><ele>25.0</ele><time>2026-05-02T09:58:22.999Z</time></trkpt><trkpt lat="41.99734655282484" lon="3.045723264604179"><ele>25.0</ele><time>2026-05-02T09:58:23.999Z</time></trkpt><trkpt lat="41.9972785083854" lon="3.045694636614116"><ele>25.0</ele><time>2026-05-02T09:58:24.999Z</time></trkpt><trkpt lat="41.997210898917" lon="3.0456683505607343"><ele>25.0</ele><time>2026-05-02T09:58:25.999Z</time></trkpt><trkpt lat="41.997142380373916" lon="3.0456458414275542"><ele>25.000000000000004</ele><time>2026-05-02T09:58:26.999Z</time></trkpt><trkpt lat="41.997080243912265" lon="3.0456296986292997"><ele>25.0</ele><time>2026-05-02T09:58:27.999Z</time></trkpt><trkpt lat="41.99696140213602" lon="3.045578538161392"><ele>25.0</ele><time>2026-05-02T09:58:29.999Z</time></trkpt><trkpt lat="41.99684477817538" lon="3.0455141649140227"><ele>25.0</ele><time>2026-05-02T09:58:31.999Z</time></trkpt><trkpt lat="41.996740566459636" lon="3.045430499963167"><ele>25.0</ele><time>2026-05-02T09:58:33.999Z</time></trkpt><trkpt lat="41.99668650190702" lon="3.0453794042509315"><ele>25.0</ele><time>2026-05-02T09:58:34.999Z</time></trkpt><trkpt lat="41.99663593824185" lon="3.0453237374332955"><ele>25.0</ele><time>2026-05-02T09:58:35.999Z</time></trkpt><trkpt lat="41.99660065640866" lon="3.0452388569144984"><ele>24.666666666666668</ele><time>2026-05-02T09:58:36.999Z</time></trkpt><trkpt lat="41.996575279157085" lon="3.045146693755973"><ele>24.333333333333336</ele><time>2026-05-02T09:58:37.999Z</time></trkpt><trkpt lat="41.99656630989284" lon="3.045048367970408"><ele>24.0</ele><time>2026-05-02T09:58:38.999Z</time></trkpt><trkpt lat="41.996578762566685" lon="3.044945328936988"><ele>23.666666666666668</ele><time>2026-05-02T09:58:39.999Z</time></trkpt><trkpt lat="41.99660561114408" lon="3.044843379693119"><ele>23.333333333333336</ele><time>2026-05-02T09:58:40.999Z</time></trkpt><trkpt lat="41.99663366174746" lon="3.044743360560538"><ele>23.0</ele><time>2026-05-02T09:58:41.999Z</time></trkpt><trkpt lat="41.99666300894203" lon="3.0446420776659826"><ele>22.666666666666668</ele><time>2026-05-02T09:58:42.999Z</time></trkpt><trkpt lat="41.99668347985812" lon="3.044535021977229"><ele>22.333333333333336</ele><time>2026-05-02T09:58:43.999Z</time></trkpt><trkpt lat="41.99669937492419" lon="3.044433369392256"><ele>22.0</ele><time>2026-05-02T09:58:44.999Z</time></trkpt><trkpt lat="41.996705661776126" lon="3.044328000093298"><ele>21.666666666666668</ele><time>2026-05-02T09:58:45.999Z</time></trkpt><trkpt lat="41.99670164650187" lon="3.0442206501445574"><ele>21.333333333333332</ele><time>2026-05-02T09:58:46.999Z</time></trkpt><trkpt lat="41.99669559857715" lon="3.0441139666701034"><ele>21.0</ele><time>2026-05-02T09:58:47.999Z</time></trkpt><trkpt lat="41.99668785872515" lon="3.0440074762280545"><ele>20.857142857142858</ele><time>2026-05-02T09:58:48.999Z</time></trkpt><trkpt lat="41.996681455155" lon="3.0439070341902013"><ele>20.714285714285715</ele><time>2026-05-02T09:58:49.999Z</time></trkpt><trkpt lat="41.99667459003458" lon="3.043804567559232"><ele>20.57142857142857</ele><time>2026-05-02T09:58:50.999Z</time></trkpt><trkpt lat="41.99666577341952" lon="3.0437047677670686"><ele>20.42857142857143</ele><time>2026-05-02T09:58:51.999Z</time></trkpt><trkpt lat="41.99665772932156" lon="3.043608411138"><ele>20.285714285714285</ele><time>2026-05-02T09:58:52.999Z</time></trkpt><trkpt lat="41.996645824522034" lon="3.0435136378581387"><ele>20.142857142857142</ele><time>2026-05-02T09:58:53.999Z</time></trkpt><trkpt lat="41.996637639529844" lon="3.0434196555064865"><ele>20.0</ele><time>2026-05-02T09:58:54.999Z</time></trkpt><trkpt lat="41.996635108927" lon="3.0433276711790938"><ele>20.666666666666668</ele><time>2026-05-02T09:58:55.999Z</time></trkpt><trkpt lat="41.9966335031295" lon="3.0432331841631104"><ele>21.333333333333336</ele><time>2026-05-02T09:58:56.999Z</time></trkpt><trkpt lat="41.99662562599881" lon="3.0431392054588478"><ele>22.0</ele><time>2026-05-02T09:58:57.999Z</time></trkpt><trkpt lat="41.99662460766577" lon="3.0430498242631865"><ele>22.666666666666668</ele><time>2026-05-02T09:58:58.999Z</time></trkpt><trkpt lat="41.99661735456272" lon="3.0428822593384717"><ele>23.333333333333332</ele><time>2026-05-02T09:59:00.999Z</time></trkpt><trkpt lat="41.996600880011584" lon="3.042791480308657"><ele>24.0</ele><time>2026-05-02T09:59:01.999Z</time></trkpt><trkpt lat="41.99657363929596" lon="3.042702143061982"><ele>24.0</ele><time>2026-05-02T09:59:02.999Z</time></trkpt><trkpt lat="41.99653884478405" lon="3.0426150884067713"><ele>24.0</ele><time>2026-05-02T09:59:03.999Z</time></trkpt><trkpt lat="41.99652197565569" lon="3.0425147984531975"><ele>24.0</ele><time>2026-05-02T09:59:04.999Z</time></trkpt><trkpt lat="41.99648970102024" lon="3.042421687221789"><ele>24.0</ele><time>2026-05-02T09:59:05.999Z</time></trkpt><trkpt lat="41.996452994259805" lon="3.0423272675467414"><ele>24.0</ele><time>2026-05-02T09:59:06.999Z</time></trkpt><trkpt lat="41.99641957099486" lon="3.0422412932857363"><ele>24.0</ele><time>2026-05-02T09:59:07.999Z</time></trkpt><trkpt lat="41.99637693759868" lon="3.0421596804959923"><ele>23.71428571428571</ele><time>2026-05-02T09:59:08.999Z</time></trkpt><trkpt lat="41.99632211747765" lon="3.0420874812347916"><ele>23.428571428571427</ele><time>2026-05-02T09:59:09.999Z</time></trkpt><trkpt lat="41.99626553610905" lon="3.042024403451634"><ele>23.142857142857142</ele><time>2026-05-02T09:59:10.999Z</time></trkpt><trkpt lat="41.996201944562586" lon="3.041967462571979"><ele>22.857142857142854</ele><time>2026-05-02T09:59:11.999Z</time></trkpt><trkpt lat="41.996140185247874" lon="3.041915755466648"><ele>22.57142857142857</ele><time>2026-05-02T09:59:12.999Z</time></trkpt><trkpt lat="41.99608576994744" lon="3.0418607563599633"><ele>22.285714285714285</ele><time>2026-05-02T09:59:13.999Z</time></trkpt><trkpt lat="41.99602955735099" lon="3.041803518234639"><ele>22.0</ele><time>2026-05-02T09:59:14.999Z</time></trkpt><trkpt lat="41.99598007711868" lon="3.041738496515762"><ele>22.0</ele><time>2026-05-02T09:59:15.999Z</time></trkpt><trkpt lat="41.995937570571776" lon="3.0416651206906695"><ele>22.0</ele><time>2026-05-02T09:59:16.999Z</time></trkpt><trkpt lat="41.99590637788033" lon="3.0415895465791754"><ele>22.0</ele><time>2026-05-02T09:59:17.999Z</time></trkpt><trkpt lat="41.99586614834178" lon="3.0415035448840873"><ele>22.0</ele><time>2026-05-02T09:59:18.999Z</time></trkpt><trkpt lat="41.995843657771516" lon="3.0414044479806726"><ele>22.0</ele><time>2026-05-02T09:59:19.999Z</time></trkpt><trkpt lat="41.99582960508518" lon="3.0413015102280774"><ele>22.0</ele><time>2026-05-02T09:59:20.999Z</time></trkpt><trkpt lat="41.99581902993985" lon="3.0411956555461646"><ele>22.0</ele><time>2026-05-02T09:59:21.999Z</time></trkpt><trkpt lat="41.995810028365774" lon="3.041089074734195"><ele>22.166666666666664</ele><time>2026-05-02T09:59:22.999Z</time></trkpt><trkpt lat="41.99579776107032" lon="3.0409782679107553"><ele>22.333333333333332</ele><time>2026-05-02T09:59:23.999Z</time></trkpt><trkpt lat="41.99578201918712" lon="3.0408712051041804"><ele>22.5</ele><time>2026-05-02T09:59:24.999Z</time></trkpt><trkpt lat="41.995769405722946" lon="3.0407636167878915"><ele>22.666666666666668</ele><time>2026-05-02T09:59:25.999Z</time></trkpt><trkpt lat="41.99575632835634" lon="3.0406600902727"><ele>22.833333333333336</ele><time>2026-05-02T09:59:26.999Z</time></trkpt><trkpt lat="41.99574396759469" lon="3.040557730218948"><ele>23.0</ele><time>2026-05-02T09:59:27.999Z</time></trkpt><trkpt lat="41.99573851299588" lon="3.040458744232884"><ele>23.0</ele><time>2026-05-02T09:59:28.999Z</time></trkpt><trkpt lat="41.99574218691399" lon="3.0403638071723025"><ele>23.0</ele><time>2026-05-02T09:59:29.999Z</time></trkpt><trkpt lat="41.99574388513593" lon="3.0402724136716093"><ele>23.0</ele><time>2026-05-02T09:59:30.999Z</time></trkpt><trkpt lat="41.99574295434038" lon="3.0401842154847416"><ele>23.0</ele><time>2026-05-02T09:59:31.999Z</time></trkpt><trkpt lat="41.995755144037894" lon="3.040029133719671"><ele>23.0</ele><time>2026-05-02T09:59:33.999Z</time></trkpt><trkpt lat="41.995751519442614" lon="3.039892990261549"><ele>23.0</ele><time>2026-05-02T09:59:34.999Z</time></trkpt><trkpt lat="41.99572802069334" lon="3.03978867150814"><ele>23.0</ele><time>2026-05-02T09:59:35.999Z</time></trkpt><trkpt lat="41.9957332426619" lon="3.039693793326175"><ele>23.0</ele><time>2026-05-02T09:59:36.999Z</time></trkpt><trkpt lat="41.99572834667054" lon="3.039597243093967"><ele>23.0</ele><time>2026-05-02T09:59:38Z</time></trkpt><trkpt lat="41.995745399323724" lon="3.0395024389653966"><ele>23.0</ele><time>2026-05-02T09:59:39Z</time></trkpt><trkpt lat="41.99575048223364" lon="3.039401858961214"><ele>23.0</ele><time>2026-05-02T09:59:40Z</time></trkpt><trkpt lat="41.99575665711773" lon="3.0392951175415535"><ele>23.0</ele><time>2026-05-02T09:59:41Z</time></trkpt><trkpt lat="41.99575134086391" lon="3.039193981723193"><ele>23.0</ele><time>2026-05-02T09:59:42Z</time></trkpt><trkpt lat="41.99575682134779" lon="3.0391023841243476"><ele>23.0</ele><time>2026-05-02T09:59:43Z</time></trkpt><trkpt lat="41.995769518890505" lon="3.0390049698440214"><ele>23.0</ele><time>2026-05-02T09:59:44Z</time></trkpt><trkpt lat="41.995782197121116" lon="3.0389085000037466"><ele>23.0</ele><time>2026-05-02T09:59:45Z</time></trkpt><trkpt lat="41.99579438139744" lon="3.038811658049775"><ele>23.0</ele><time>2026-05-02T09:59:46Z</time></trkpt><trkpt lat="41.995805111452285" lon="3.0387187174154477"><ele>23.0</ele><time>2026-05-02T09:59:47Z</time></trkpt><trkpt lat="41.99581098304555" lon="3.0386268391136686"><ele>23.0</ele><time>2026-05-02T09:59:48Z</time></trkpt><trkpt lat="41.99581240740121" lon="3.0384589895274674"><ele>23.0</ele><time>2026-05-02T09:59:50Z</time></trkpt><trkpt lat="41.995816781322766" lon="3.038304315210768"><ele>23.0</ele><time>2026-05-02T09:59:52Z</time></trkpt><trkpt lat="41.99583006670537" lon="3.0381537902773674"><ele>23.0</ele><time>2026-05-02T09:59:54Z</time></trkpt><trkpt lat="41.99584010252853" lon="3.0380030452156164"><ele>23.0</ele><time>2026-05-02T09:59:56Z</time></trkpt><trkpt lat="41.99585638187651" lon="3.0378796348422803"><ele>23.0</ele><time>2026-05-02T09:59:57.999Z</time></trkpt><trkpt lat="41.9958713791256" lon="3.0377563966121"><ele>22.799999999999997</ele><time>2026-05-02T09:59:59.999Z</time></trkpt><trkpt lat="41.99593803129037" lon="3.0376274789535804"><ele>22.6</ele><time>2026-05-02T10:00:01.999Z</time></trkpt><trkpt lat="41.99597880770585" lon="3.037561770590554"><ele>22.4</ele><time>2026-05-02T10:00:02.999Z</time></trkpt><trkpt lat="41.996067882439" lon="3.03743967769194"><ele>22.200000000000003</ele><time>2026-05-02T10:00:04.999Z</time></trkpt><trkpt lat="41.99611860959216" lon="3.0373763192261065"><ele>22.0</ele><time>2026-05-02T10:00:05.999Z</time></trkpt><trkpt lat="41.996170171892" lon="3.0373024837598073"><ele>22.0</ele><time>2026-05-02T10:00:06.999Z</time></trkpt><trkpt lat="41.99622082833866" lon="3.0372312030852355"><ele>22.0</ele><time>2026-05-02T10:00:07.999Z</time></trkpt><trkpt lat="41.99627245449363" lon="3.0371586717725045"><ele>22.0</ele><time>2026-05-02T10:00:08.999Z</time></trkpt><trkpt lat="41.996319357418514" lon="3.037076967496103"><ele>22.0</ele><time>2026-05-02T10:00:09.999Z</time></trkpt><trkpt lat="41.99636538539329" lon="3.0370076015493543"><ele>22.0</ele><time>2026-05-02T10:00:10.999Z</time></trkpt><trkpt lat="41.99641321661544" lon="3.0369343750539666"><ele>22.0</ele><time>2026-05-02T10:00:11.999Z</time></trkpt><trkpt lat="41.99646572503771" lon="3.0368613791045576"><ele>22.0</ele><time>2026-05-02T10:00:12.999Z</time></trkpt><trkpt lat="41.99651756851073" lon="3.0367908317567593"><ele>22.0</ele><time>2026-05-02T10:00:13.999Z</time></trkpt><trkpt lat="41.996565402182" lon="3.036717592482176"><ele>22.0</ele><time>2026-05-02T10:00:14.999Z</time></trkpt><trkpt lat="41.99661328718122" lon="3.036640513125773"><ele>22.0</ele><time>2026-05-02T10:00:15.999Z</time></trkpt><trkpt lat="41.996666508331586" lon="3.036562764284849"><ele>22.0</ele><time>2026-05-02T10:00:16.999Z</time></trkpt><trkpt lat="41.99672193981601" lon="3.0364864828397917"><ele>22.0</ele><time>2026-05-02T10:00:17.999Z</time></trkpt><trkpt lat="41.996777098192965" lon="3.0364067669001464"><ele>22.0</ele><time>2026-05-02T10:00:18.999Z</time></trkpt><trkpt lat="41.99682959653573" lon="3.0363225790343433"><ele>22.333333333333332</ele><time>2026-05-02T10:00:19.999Z</time></trkpt><trkpt lat="41.99687954416674" lon="3.036236401140321"><ele>22.666666666666664</ele><time>2026-05-02T10:00:20.999Z</time></trkpt><trkpt lat="41.99693418878135" lon="3.036153778906201"><ele>23.0</ele><time>2026-05-02T10:00:21.999Z</time></trkpt><trkpt lat="41.996984628082245" lon="3.036072946661093"><ele>23.333333333333332</ele><time>2026-05-02T10:00:22.999Z</time></trkpt><trkpt lat="41.99703341829531" lon="3.0359999886478453"><ele>23.666666666666668</ele><time>2026-05-02T10:00:23.999Z</time></trkpt><trkpt lat="41.99708390444432" lon="3.0359300468716084"><ele>24.0</ele><time>2026-05-02T10:00:24.999Z</time></trkpt><trkpt lat="41.99713495862184" lon="3.035861027389086"><ele>24.0</ele><time>2026-05-02T10:00:25.999Z</time></trkpt><trkpt lat="41.997182830406814" lon="3.035790828497822"><ele>24.0</ele><time>2026-05-02T10:00:26.999Z</time></trkpt><trkpt lat="41.997228573443905" lon="3.0357202975326034"><ele>24.0</ele><time>2026-05-02T10:00:27.999Z</time></trkpt><trkpt lat="41.99727652367914" lon="3.035651503423439"><ele>24.0</ele><time>2026-05-02T10:00:28.999Z</time></trkpt><trkpt lat="41.9973236829568" lon="3.035584478142326"><ele>24.0</ele><time>2026-05-02T10:00:29.999Z</time></trkpt><trkpt lat="41.99740787493002" lon="3.0354603378001537"><ele>24.0</ele><time>2026-05-02T10:00:31.999Z</time></trkpt><trkpt lat="41.9974595156067" lon="3.0353958639712815"><ele>24.142857142857142</ele><time>2026-05-02T10:00:32.999Z</time></trkpt><trkpt lat="41.99751453488561" lon="3.0353282204170697"><ele>24.285714285714285</ele><time>2026-05-02T10:00:33.999Z</time></trkpt><trkpt lat="41.99757142716137" lon="3.0352590440317493"><ele>24.42857142857143</ele><time>2026-05-02T10:00:34.999Z</time></trkpt><trkpt lat="41.99762789584897" lon="3.035190036312487"><ele>24.57142857142857</ele><time>2026-05-02T10:00:35.999Z</time></trkpt><trkpt lat="41.99768550229478" lon="3.0351296441092663"><ele>24.714285714285715</ele><time>2026-05-02T10:00:36.999Z</time></trkpt><trkpt lat="41.99774035977524" lon="3.0350730864358977"><ele>24.857142857142858</ele><time>2026-05-02T10:00:37.999Z</time></trkpt><trkpt lat="41.997796257316054" lon="3.0350235633558533"><ele>25.0</ele><time>2026-05-02T10:00:38.999Z</time></trkpt><trkpt lat="41.9978475369793" lon="3.034968159916451"><ele>26.000000000000004</ele><time>2026-05-02T10:00:39.999Z</time></trkpt><trkpt lat="41.99789882854707" lon="3.034918748061818"><ele>27.0</ele><time>2026-05-02T10:00:40.999Z</time></trkpt><trkpt lat="41.99795463805602" lon="3.034866478563589"><ele>28.0</ele><time>2026-05-02T10:00:41.999Z</time></trkpt><trkpt lat="41.998007022509356" lon="3.0348117449922967"><ele>29.0</ele><time>2026-05-02T10:00:42.999Z</time></trkpt><trkpt lat="41.99806066937267" lon="3.0347548655705308"><ele>30.000000000000004</ele><time>2026-05-02T10:00:43.999Z</time></trkpt><trkpt lat="41.99814877183424" lon="3.0346433508091524"><ele>31.0</ele><time>2026-05-02T10:00:45.999Z</time></trkpt><trkpt lat="41.998231309209096" lon="3.0345493512521586"><ele>31.0</ele><time>2026-05-02T10:00:47.999Z</time></trkpt><trkpt lat="41.99829563039027" lon="3.0344652065723583"><ele>31.0</ele><time>2026-05-02T10:00:49.999Z</time></trkpt><trkpt lat="41.99835290982222" lon="3.0343772233732706"><ele>31.0</ele><time>2026-05-02T10:00:51.999Z</time></trkpt><trkpt lat="41.998416105465886" lon="3.034284596978541"><ele>31.0</ele><time>2026-05-02T10:00:53.999Z</time></trkpt><trkpt lat="41.99848579824148" lon="3.0341963836443124"><ele>31.0</ele><time>2026-05-02T10:00:55.999Z</time></trkpt><trkpt lat="41.998549236191415" lon="3.0341049700180913"><ele>32.8</ele><time>2026-05-02T10:00:57.999Z</time></trkpt><trkpt lat="41.99860998608968" lon="3.034009785284324"><ele>34.6</ele><time>2026-05-02T10:00:59.999Z</time></trkpt><trkpt lat="41.99867227085525" lon="3.0339139025202395"><ele>36.4</ele><time>2026-05-02T10:01:01.999Z</time></trkpt><trkpt lat="41.99874249025792" lon="3.0338241979654312"><ele>38.2</ele><time>2026-05-02T10:01:04.999Z</time></trkpt><trkpt lat="41.99883147491314" lon="3.0337001977871156"><ele>40.0</ele><time>2026-05-02T10:01:06.999Z</time></trkpt><trkpt lat="41.998883295442276" lon="3.0336157340247074"><ele>40.0</ele><time>2026-05-02T10:01:08.999Z</time></trkpt><trkpt lat="41.99893468528345" lon="3.033531170275307"><ele>40.0</ele><time>2026-05-02T10:01:10.999Z</time></trkpt><trkpt lat="41.998984721520394" lon="3.0334470005768526"><ele>40.0</ele><time>2026-05-02T10:01:12.999Z</time></trkpt><trkpt lat="41.9990304223852" lon="3.033367155024399"><ele>40.0</ele><time>2026-05-02T10:01:14.999Z</time></trkpt><trkpt lat="41.99902005454296" lon="3.033262931735888"><ele>40.0</ele><time>2026-05-02T10:01:16.999Z</time></trkpt><trkpt lat="41.998982355461855" lon="3.0331422253479046"><ele>40.0</ele><time>2026-05-02T10:01:18.999Z</time></trkpt><trkpt lat="41.99895580306813" lon="3.033008466585656"><ele>39.5</ele><time>2026-05-02T10:01:20.999Z</time></trkpt><trkpt lat="41.998924457484904" lon="3.0328664668616203"><ele>39.0</ele><time>2026-05-02T10:01:22.999Z</time></trkpt><trkpt lat="41.99888977667275" lon="3.0327095145882392"><ele>38.5</ele><time>2026-05-02T10:01:24.999Z</time></trkpt><trkpt lat="41.99886644607119" lon="3.0325663332135098"><ele>38.0</ele><time>2026-05-02T10:01:26.999Z</time></trkpt><trkpt lat="41.998832132271495" lon="3.0324146246789114"><ele>37.6</ele><time>2026-05-02T10:01:28.999Z</time></trkpt><trkpt lat="41.9987854479514" lon="3.032278498271343"><ele>37.199999999999996</ele><time>2026-05-02T10:01:30.999Z</time></trkpt><trkpt lat="41.99875023455764" lon="3.0321212177544346"><ele>36.8</ele><time>2026-05-02T10:01:32.999Z</time></trkpt><trkpt lat="41.998730626317304" lon="3.03196608845214"><ele>36.4</ele><time>2026-05-02T10:01:34.999Z</time></trkpt><trkpt lat="41.99871185906885" lon="3.031882705517937"><ele>36.0</ele><time>2026-05-02T10:01:35.999Z</time></trkpt><trkpt lat="41.998679913740354" lon="3.031741250834386"><ele>35.85714285714286</ele><time>2026-05-02T10:01:37.999Z</time></trkpt><trkpt lat="41.99865696956797" lon="3.0316196045765182"><ele>35.714285714285715</ele><time>2026-05-02T10:01:39.999Z</time></trkpt><trkpt lat="41.9986475995011" lon="3.031521105263386"><ele>35.57142857142857</ele><time>2026-05-02T10:01:44Z</time></trkpt><trkpt lat="41.99862707038051" lon="3.03143020185137"><ele>35.42857142857143</ele><time>2026-05-02T10:01:50Z</time></trkpt><trkpt lat="41.9986742211953" lon="3.031344034406607"><ele>35.285714285714285</ele><time>2026-05-02T10:01:53Z</time></trkpt><trkpt lat="41.99872686411457" lon="3.031293722492644"><ele>35.142857142857146</ele><time>2026-05-02T10:02:13.999Z</time></trkpt><trkpt lat="41.9987105101572" lon="3.031210943270731"><ele>35.0</ele><time>2026-05-02T10:02:41.999Z</time></trkpt><trkpt lat="41.998787084533525" lon="3.0311976929555895"><ele>35.0</ele><time>2026-05-02T10:03:17.999Z</time></trkpt><trkpt lat="41.99877790073412" lon="3.0311129677749635"><ele>35.0</ele><time>2026-05-02T10:04:50.999Z</time></trkpt><trkpt lat="41.99873889515261" lon="3.031186945231711"><ele>35.0</ele><time>2026-05-02T10:04:58.999Z</time></trkpt><trkpt lat="41.99867551987936" lon="3.031218470799505"><ele>35.0</ele><time>2026-05-02T10:05:09.999Z</time></trkpt><trkpt lat="41.99862131438463" lon="3.0311685558329247"><ele>35.0</ele><time>2026-05-02T10:05:36.999Z</time></trkpt><trkpt lat="41.99856601489695" lon="3.031102088852392"><ele>35.0</ele><time>2026-05-02T10:06:35Z</time></trkpt><trkpt lat="41.99853459902306" lon="3.031028650600427"><ele>35.0</ele><time>2026-05-02T10:06:43Z</time></trkpt><trkpt lat="41.99850939369697" lon="3.0309423717236785"><ele>35.0</ele><time>2026-05-02T10:06:46Z</time></trkpt><trkpt lat="41.998487073317456" lon="3.030843624667489"><ele>35.0</ele><time>2026-05-02T10:06:48Z</time></trkpt><trkpt lat="41.99847164685516" lon="3.0307527294734564"><ele>35.0</ele><time>2026-05-02T10:06:50Z</time></trkpt><trkpt lat="41.9984432054878" lon="3.0306618403617493"><ele>35.0</ele><time>2026-05-02T10:06:52Z</time></trkpt><trkpt lat="41.99839537801418" lon="3.030573894024045"><ele>35.0</ele><time>2026-05-02T10:06:53.999Z</time></trkpt><trkpt lat="41.9983221344539" lon="3.0305163607368115"><ele>35.0</ele><time>2026-05-02T10:06:55.999Z</time></trkpt><trkpt lat="41.99822027792948" lon="3.0305197215050135"><ele>34.5</ele><time>2026-05-02T10:06:57.999Z</time></trkpt><trkpt lat="41.9980950966347" lon="3.030533978427407"><ele>34.0</ele><time>2026-05-02T10:06:59.999Z</time></trkpt><trkpt lat="41.99802402951663" lon="3.0304482557601484"><ele>33.5</ele><time>2026-05-02T10:07:00.999Z</time></trkpt><trkpt lat="41.99795523897707" lon="3.030452139871686"><ele>33.0</ele><time>2026-05-02T10:07:01.999Z</time></trkpt><trkpt lat="41.99788802229284" lon="3.0304559351303917"><ele>32.5</ele><time>2026-05-02T10:07:02.999Z</time></trkpt><trkpt lat="41.99781875912163" lon="3.030464328708308"><ele>32.0</ele><time>2026-05-02T10:07:03.999Z</time></trkpt><trkpt lat="41.99775037115998" lon="3.030475720341877"><ele>32.0</ele><time>2026-05-02T10:07:04.999Z</time></trkpt><trkpt lat="41.99768033117472" lon="3.030491293624062"><ele>31.999999999999996</ele><time>2026-05-02T10:07:05.999Z</time></trkpt><trkpt lat="41.997609151763925" lon="3.0305109914931054"><ele>32.0</ele><time>2026-05-02T10:07:06.999Z</time></trkpt><trkpt lat="41.9975387307061" lon="3.0305276707518254"><ele>32.0</ele><time>2026-05-02T10:07:07.999Z</time></trkpt><trkpt lat="41.99746500967402" lon="3.0305444513982294"><ele>31.999999999999996</ele><time>2026-05-02T10:07:08.999Z</time></trkpt><trkpt lat="41.99739106087087" lon="3.0305585831835"><ele>32.0</ele><time>2026-05-02T10:07:09.999Z</time></trkpt><trkpt lat="41.99731711231246" lon="3.0305673739091135"><ele>32.0</ele><time>2026-05-02T10:07:10.999Z</time></trkpt><trkpt lat="41.9972481976141" lon="3.0305677322645566"><ele>31.428571428571427</ele><time>2026-05-02T10:07:11.999Z</time></trkpt><trkpt lat="41.99718069456871" lon="3.030555289547085"><ele>30.857142857142854</ele><time>2026-05-02T10:07:12.999Z</time></trkpt><trkpt lat="41.997113319659384" lon="3.030535991364541"><ele>30.285714285714285</ele><time>2026-05-02T10:07:13.999Z</time></trkpt><trkpt lat="41.99704835026267" lon="3.030507863933898"><ele>29.714285714285715</ele><time>2026-05-02T10:07:14.999Z</time></trkpt><trkpt lat="41.996986836965" lon="3.030466783862977"><ele>29.142857142857142</ele><time>2026-05-02T10:07:15.999Z</time></trkpt><trkpt lat="41.99692200267729" lon="3.0304239938490927"><ele>28.57142857142857</ele><time>2026-05-02T10:07:16.999Z</time></trkpt><trkpt lat="41.996848729015404" lon="3.030380831926757"><ele>28.0</ele><time>2026-05-02T10:07:17.999Z</time></trkpt><trkpt lat="41.99676166228292" lon="3.030371364538083"><ele>28.0</ele><time>2026-05-02T10:07:18.999Z</time></trkpt><trkpt lat="41.99666254866321" lon="3.0304602642046428"><ele>27.999999999999996</ele><time>2026-05-02T10:07:19.999Z</time></trkpt><trkpt lat="41.99658831301173" lon="3.0305292048712618"><ele>27.999999999999996</ele><time>2026-05-02T10:07:20.999Z</time></trkpt><trkpt lat="41.996516841888" lon="3.0305918528315483"><ele>28.0</ele><time>2026-05-02T10:07:21.999Z</time></trkpt><trkpt lat="41.996448128207405" lon="3.0306520837085813"><ele>28.0</ele><time>2026-05-02T10:07:22.999Z</time></trkpt><trkpt lat="41.99637962792932" lon="3.0307121274263444"><ele>28.000000000000004</ele><time>2026-05-02T10:07:23.999Z</time></trkpt><trkpt lat="41.99631046729717" lon="3.0307727499962818"><ele>28.0</ele><time>2026-05-02T10:07:24.999Z</time></trkpt><trkpt lat="41.99624154495324" lon="3.0308331637551715"><ele>28.0</ele><time>2026-05-02T10:07:25.999Z</time></trkpt><trkpt lat="41.9961746697811" lon="3.03089178309416"><ele>28.0</ele><time>2026-05-02T10:07:26.999Z</time></trkpt><trkpt lat="41.996109207927404" lon="3.030949163568545"><ele>28.000000000000004</ele><time>2026-05-02T10:07:27.999Z</time></trkpt><trkpt lat="41.99604166377876" lon="3.031008369203868"><ele>28.0</ele><time>2026-05-02T10:07:28.999Z</time></trkpt><trkpt lat="41.995973783246896" lon="3.031067869863671"><ele>27.857142857142858</ele><time>2026-05-02T10:07:29.999Z</time></trkpt><trkpt lat="41.99590806065572" lon="3.031125478853092"><ele>27.714285714285715</ele><time>2026-05-02T10:07:30.999Z</time></trkpt><trkpt lat="41.99584418570585" lon="3.0311814682443528"><ele>27.57142857142857</ele><time>2026-05-02T10:07:31.999Z</time></trkpt><trkpt lat="41.99578226062875" lon="3.0312357485580543"><ele>27.42857142857143</ele><time>2026-05-02T10:07:32.999Z</time></trkpt><trkpt lat="41.99572160761519" lon="3.031288913849361"><ele>27.285714285714285</ele><time>2026-05-02T10:07:33.999Z</time></trkpt><trkpt lat="41.995661196380915" lon="3.031341867175736"><ele>27.142857142857142</ele><time>2026-05-02T10:07:34.999Z</time></trkpt><trkpt lat="41.99559955390336" lon="3.031395899727704"><ele>27.0</ele><time>2026-05-02T10:07:35.999Z</time></trkpt><trkpt lat="41.99553738252938" lon="3.031450396020276"><ele>26.857142857142858</ele><time>2026-05-02T10:07:36.999Z</time></trkpt><trkpt lat="41.995475645023014" lon="3.0315045118784765"><ele>26.714285714285715</ele><time>2026-05-02T10:07:37.999Z</time></trkpt><trkpt lat="41.99541460075529" lon="3.031558020105919"><ele>26.57142857142857</ele><time>2026-05-02T10:07:38.999Z</time></trkpt><trkpt lat="41.995355342163556" lon="3.0316099631085796"><ele>26.42857142857143</ele><time>2026-05-02T10:07:39.999Z</time></trkpt><trkpt lat="41.9952956756914" lon="3.0316607454627227"><ele>26.28571428571429</ele><time>2026-05-02T10:07:40.999Z</time></trkpt><trkpt lat="41.9952364701427" lon="3.031708144871015"><ele>26.142857142857142</ele><time>2026-05-02T10:07:41.999Z</time></trkpt><trkpt lat="41.99517645344896" lon="3.031753692225899"><ele>26.0</ele><time>2026-05-02T10:07:42.999Z</time></trkpt><trkpt lat="41.995115196554295" lon="3.0317853610188394"><ele>25.999999999999996</ele><time>2026-05-02T10:07:43.999Z</time></trkpt><trkpt lat="41.99504461988985" lon="3.0318251024374687"><ele>26.0</ele><time>2026-05-02T10:07:44.999Z</time></trkpt><trkpt lat="41.99497317312852" lon="3.0318653338587667"><ele>26.0</ele><time>2026-05-02T10:07:45.999Z</time></trkpt><trkpt lat="41.994901619336616" lon="3.031905625516697"><ele>26.0</ele><time>2026-05-02T10:07:46.999Z</time></trkpt><trkpt lat="41.99482823681822" lon="3.0319469468904674"><ele>25.999999999999996</ele><time>2026-05-02T10:07:47.999Z</time></trkpt><trkpt lat="41.994755844668006" lon="3.0319876131024763"><ele>26.0</ele><time>2026-05-02T10:07:48.999Z</time></trkpt><trkpt lat="41.994686664281346" lon="3.032026354747155"><ele>26.0</ele><time>2026-05-02T10:07:49.999Z</time></trkpt><trkpt lat="41.994618783729294" lon="3.0320643684229562"><ele>26.0</ele><time>2026-05-02T10:07:50.999Z</time></trkpt><trkpt lat="41.99455187710862" lon="3.032101836844476"><ele>26.0</ele><time>2026-05-02T10:07:51.999Z</time></trkpt><trkpt lat="41.99448577325998" lon="3.032138855482345"><ele>26.0</ele><time>2026-05-02T10:07:52.999Z</time></trkpt><trkpt lat="41.99441889952405" lon="3.0321763055525683"><ele>26.0</ele><time>2026-05-02T10:07:53.999Z</time></trkpt><trkpt lat="41.99435083466067" lon="3.0322147714955086"><ele>26.0</ele><time>2026-05-02T10:07:54.999Z</time></trkpt><trkpt lat="41.99428634445598" lon="3.0322523937585304"><ele>26.0</ele><time>2026-05-02T10:07:55.999Z</time></trkpt><trkpt lat="41.994224504721636" lon="3.032288469802217"><ele>25.857142857142858</ele><time>2026-05-02T10:07:56.999Z</time></trkpt><trkpt lat="41.994161586955535" lon="3.0323251747226423"><ele>25.714285714285715</ele><time>2026-05-02T10:07:57.999Z</time></trkpt><trkpt lat="41.99409805022232" lon="3.0323622407809565"><ele>25.571428571428573</ele><time>2026-05-02T10:07:58.999Z</time></trkpt><trkpt lat="41.994034808980146" lon="3.0323991344443915"><ele>25.42857142857143</ele><time>2026-05-02T10:07:59.999Z</time></trkpt><trkpt lat="41.99397512739019" lon="3.0324339514004803"><ele>25.285714285714285</ele><time>2026-05-02T10:08:00.999Z</time></trkpt><trkpt lat="41.99391699409493" lon="3.0324678652021637"><ele>25.142857142857146</ele><time>2026-05-02T10:08:02Z</time></trkpt><trkpt lat="41.993857117302" lon="3.03250279614558"><ele>25.0</ele><time>2026-05-02T10:08:03Z</time></trkpt><trkpt lat="41.99379841445266" lon="3.032536288820472"><ele>25.0</ele><time>2026-05-02T10:08:04Z</time></trkpt><trkpt lat="41.99368585656026" lon="3.0325988213221398"><ele>25.0</ele><time>2026-05-02T10:08:06Z</time></trkpt><trkpt lat="41.99358105828467" lon="3.0326413802257304"><ele>25.0</ele><time>2026-05-02T10:08:08Z</time></trkpt><trkpt lat="41.9935038690313" lon="3.032651330894035"><ele>25.0</ele><time>2026-05-02T10:08:10Z</time></trkpt><trkpt lat="41.99348537768795" lon="3.032487629901897"><ele>25.0</ele><time>2026-05-02T10:08:12Z</time></trkpt><trkpt lat="41.99343180971149" lon="3.0323341360372704"><ele>25.000000000000004</ele><time>2026-05-02T10:08:14Z</time></trkpt><trkpt lat="41.99341779445795" lon="3.0322499256585975"><ele>25.0</ele><time>2026-05-02T10:08:15Z</time></trkpt><trkpt lat="41.993366900517884" lon="3.032177117507729"><ele>25.0</ele><time>2026-05-02T10:08:16Z</time></trkpt><trkpt lat="41.99328679106461" lon="3.032129341528732"><ele>25.0</ele><time>2026-05-02T10:08:17Z</time></trkpt><trkpt lat="41.993198727805186" lon="3.0321252397271072"><ele>25.000000000000004</ele><time>2026-05-02T10:08:18Z</time></trkpt><trkpt lat="41.993120433419456" lon="3.0321515860521413"><ele>25.0</ele><time>2026-05-02T10:08:19Z</time></trkpt><trkpt lat="41.99305492569762" lon="3.032169095668995"><ele>25.000000000000004</ele><time>2026-05-02T10:08:20Z</time></trkpt><trkpt lat="41.99299187385177" lon="3.032184748612465"><ele>25.0</ele><time>2026-05-02T10:08:21Z</time></trkpt><trkpt lat="41.99292667211018" lon="3.032198398107861"><ele>25.0</ele><time>2026-05-02T10:08:22Z</time></trkpt><trkpt lat="41.992859969410716" lon="3.032212227044614"><ele>25.0</ele><time>2026-05-02T10:08:23Z</time></trkpt><trkpt lat="41.99279201968914" lon="3.032226206825816"><ele>25.0</ele><time>2026-05-02T10:08:24Z</time></trkpt><trkpt lat="41.99272422202944" lon="3.0322401553499976"><ele>25.000000000000004</ele><time>2026-05-02T10:08:25Z</time></trkpt><trkpt lat="41.99265467270572" lon="3.0322544642628313"><ele>25.0</ele><time>2026-05-02T10:08:26Z</time></trkpt><trkpt lat="41.99258587332844" lon="3.0322686188482284"><ele>25.000000000000004</ele><time>2026-05-02T10:08:27Z</time></trkpt><trkpt lat="41.992515258573796" lon="3.0322831469308595"><ele>25.0</ele><time>2026-05-02T10:08:28Z</time></trkpt><trkpt lat="41.99244296243359" lon="3.032298020924348"><ele>25.0</ele><time>2026-05-02T10:08:29Z</time></trkpt><trkpt lat="41.992371318526565" lon="3.0323127607162705"><ele>25.0</ele><time>2026-05-02T10:08:30Z</time></trkpt><trkpt lat="41.992300450532454" lon="3.032326828672901"><ele>25.0</ele><time>2026-05-02T10:08:31Z</time></trkpt><trkpt lat="41.992228424692435" lon="3.032340904354633"><ele>25.000000000000004</ele><time>2026-05-02T10:08:32Z</time></trkpt><trkpt lat="41.99215724625881" lon="3.0323548144892456"><ele>25.0</ele><time>2026-05-02T10:08:33Z</time></trkpt><trkpt lat="41.992084124568066" lon="3.0323681832330194"><ele>25.000000000000004</ele><time>2026-05-02T10:08:34Z</time></trkpt><trkpt lat="41.992012446562484" lon="3.0323813078061086"><ele>25.0</ele><time>2026-05-02T10:08:35Z</time></trkpt><trkpt lat="41.99194005249967" lon="3.0323935934374395"><ele>25.0</ele><time>2026-05-02T10:08:36Z</time></trkpt><trkpt lat="41.99186679924541" lon="3.0324060249089704"><ele>25.0</ele><time>2026-05-02T10:08:37Z</time></trkpt><trkpt lat="41.9917946788677" lon="3.0324150284842317"><ele>25.0</ele><time>2026-05-02T10:08:38Z</time></trkpt><trkpt lat="41.99172010348497" lon="3.032423433151994"><ele>25.000000000000004</ele><time>2026-05-02T10:08:39Z</time></trkpt><trkpt lat="41.99164321818003" lon="3.032431940623271"><ele>25.0</ele><time>2026-05-02T10:08:40Z</time></trkpt><trkpt lat="41.99156948236504" lon="3.0324404312628284"><ele>25.000000000000004</ele><time>2026-05-02T10:08:41Z</time></trkpt><trkpt lat="41.99149544848159" lon="3.032449736511456"><ele>25.0</ele><time>2026-05-02T10:08:42Z</time></trkpt><trkpt lat="41.991423642094674" lon="3.032458761786872"><ele>25.0</ele><time>2026-05-02T10:08:43Z</time></trkpt><trkpt lat="41.99135146368646" lon="3.032469771369382"><ele>25.0</ele><time>2026-05-02T10:08:44Z</time></trkpt><trkpt lat="41.99128013742519" lon="3.0324811035872217"><ele>25.0</ele><time>2026-05-02T10:08:45Z</time></trkpt><trkpt lat="41.991209262965775" lon="3.0324929885993743"><ele>25.000000000000004</ele><time>2026-05-02T10:08:46Z</time></trkpt><trkpt lat="41.991140758610555" lon="3.032504948007148"><ele>25.0</ele><time>2026-05-02T10:08:47Z</time></trkpt><trkpt lat="41.991071217349656" lon="3.0325193457311306"><ele>24.857142857142858</ele><time>2026-05-02T10:08:48Z</time></trkpt><trkpt lat="41.99100478263311" lon="3.032534145335325"><ele>24.714285714285715</ele><time>2026-05-02T10:08:49Z</time></trkpt><trkpt lat="41.99093491380213" lon="3.032550845615855"><ele>24.57142857142857</ele><time>2026-05-02T10:08:50Z</time></trkpt><trkpt lat="41.990867881124096" lon="3.032569580976499"><ele>24.42857142857143</ele><time>2026-05-02T10:08:51Z</time></trkpt><trkpt lat="41.99080040101776" lon="3.0325884413091035"><ele>24.285714285714285</ele><time>2026-05-02T10:08:52Z</time></trkpt><trkpt lat="41.99073174036978" lon="3.0326110799019683"><ele>24.142857142857142</ele><time>2026-05-02T10:08:53Z</time></trkpt><trkpt lat="41.99066568311289" lon="3.0326330991666457"><ele>24.0</ele><time>2026-05-02T10:08:54Z</time></trkpt><trkpt lat="41.990547107685636" lon="3.0326745077639545"><ele>23.999999999999996</ele><time>2026-05-02T10:08:56Z</time></trkpt><trkpt lat="41.99048250574929" lon="3.032685856554525"><ele>24.0</ele><time>2026-05-02T10:08:57Z</time></trkpt><trkpt lat="41.99041295403795" lon="3.0326234267958125"><ele>24.0</ele><time>2026-05-02T10:08:58Z</time></trkpt><trkpt lat="41.990349062841055" lon="3.0325909129900395"><ele>24.0</ele><time>2026-05-02T10:08:59Z</time></trkpt><trkpt lat="41.99028425999903" lon="3.032561454380754"><ele>24.0</ele><time>2026-05-02T10:09:00Z</time></trkpt><trkpt lat="41.99021850511092" lon="3.0325313513436734"><ele>23.999999999999996</ele><time>2026-05-02T10:09:01Z</time></trkpt><trkpt lat="41.9901513691737" lon="3.032501046728567"><ele>24.0</ele><time>2026-05-02T10:09:02Z</time></trkpt><trkpt lat="41.99008594901331" lon="3.0324677457084444"><ele>24.142857142857142</ele><time>2026-05-02T10:09:03Z</time></trkpt><trkpt lat="41.99001952582599" lon="3.032434930549978"><ele>24.285714285714285</ele><time>2026-05-02T10:09:04Z</time></trkpt><trkpt lat="41.989955398659504" lon="3.03240184061546"><ele>24.42857142857143</ele><time>2026-05-02T10:09:05Z</time></trkpt><trkpt lat="41.98988866662054" lon="3.0323639747856204"><ele>24.57142857142857</ele><time>2026-05-02T10:09:06Z</time></trkpt><trkpt lat="41.989821130549466" lon="3.0323303864967213"><ele>24.714285714285715</ele><time>2026-05-02T10:09:06.999Z</time></trkpt><trkpt lat="41.98975452396701" lon="3.032297215923233"><ele>24.857142857142858</ele><time>2026-05-02T10:09:07.999Z</time></trkpt><trkpt lat="41.98969652343849" lon="3.03224215386207"><ele>25.0</ele><time>2026-05-02T10:09:08.999Z</time></trkpt><trkpt lat="41.98963179046391" lon="3.0322072217271345"><ele>25.142857142857146</ele><time>2026-05-02T10:09:09.999Z</time></trkpt><trkpt lat="41.98956229098452" lon="3.032187279791844"><ele>25.285714285714285</ele><time>2026-05-02T10:09:10.999Z</time></trkpt><trkpt lat="41.98949982408817" lon="3.0321495571632573"><ele>25.42857142857143</ele><time>2026-05-02T10:09:11.999Z</time></trkpt><trkpt lat="41.98943652066121" lon="3.03211549605454"><ele>25.571428571428573</ele><time>2026-05-02T10:09:12.999Z</time></trkpt><trkpt lat="41.98936943181035" lon="3.032086523718713"><ele>25.714285714285715</ele><time>2026-05-02T10:09:13.999Z</time></trkpt><trkpt lat="41.989303988447496" lon="3.0320527587850146"><ele>25.857142857142858</ele><time>2026-05-02T10:09:14.999Z</time></trkpt><trkpt lat="41.98924108621987" lon="3.032014309531844"><ele>26.0</ele><time>2026-05-02T10:09:15.999Z</time></trkpt><trkpt lat="41.989177010000766" lon="3.0319758360328994"><ele>26.428571428571427</ele><time>2026-05-02T10:09:16.999Z</time></trkpt><trkpt lat="41.98911291258743" lon="3.03193771714972"><ele>26.85714285714286</ele><time>2026-05-02T10:09:17.999Z</time></trkpt><trkpt lat="41.98904732052044" lon="3.0319002279757754"><ele>27.28571428571429</ele><time>2026-05-02T10:09:18.999Z</time></trkpt><trkpt lat="41.98898077135323" lon="3.0318645843440324"><ele>27.714285714285715</ele><time>2026-05-02T10:09:19.999Z</time></trkpt><trkpt lat="41.98891424652183" lon="3.0318287098978076"><ele>28.142857142857146</ele><time>2026-05-02T10:09:20.999Z</time></trkpt><trkpt lat="41.98884896712718" lon="3.0317934825778017"><ele>28.571428571428577</ele><time>2026-05-02T10:09:21.999Z</time></trkpt><trkpt lat="41.988782490976405" lon="3.031756919817897"><ele>29.000000000000004</ele><time>2026-05-02T10:09:22.999Z</time></trkpt><trkpt lat="41.98871569439563" lon="3.031724993418501"><ele>29.000000000000004</ele><time>2026-05-02T10:09:23.999Z</time></trkpt><trkpt lat="41.98864930297967" lon="3.0316911687621997"><ele>29.0</ele><time>2026-05-02T10:09:24.999Z</time></trkpt><trkpt lat="41.98858241116567" lon="3.0316557237141435"><ele>29.000000000000004</ele><time>2026-05-02T10:09:25.999Z</time></trkpt><trkpt lat="41.98851709797113" lon="3.0316217402331582"><ele>29.000000000000004</ele><time>2026-05-02T10:09:26.999Z</time></trkpt><trkpt lat="41.988451835568775" lon="3.0315854573290677"><ele>29.0</ele><time>2026-05-02T10:09:27.999Z</time></trkpt><trkpt lat="41.9883871338393" lon="3.0315487216097257"><ele>29.000000000000004</ele><time>2026-05-02T10:09:28.999Z</time></trkpt><trkpt lat="41.988322915539044" lon="3.0315097979691745"><ele>29.000000000000004</ele><time>2026-05-02T10:09:29.999Z</time></trkpt><trkpt lat="41.988268520702675" lon="3.03144421201778"><ele>28.999999999999996</ele><time>2026-05-02T10:09:30.999Z</time></trkpt><trkpt lat="41.98812631571712" lon="3.0313977590651806"><ele>29.0</ele><time>2026-05-02T10:09:32.999Z</time></trkpt><trkpt lat="41.988063512889674" lon="3.031361062365804"><ele>29.0</ele><time>2026-05-02T10:09:33.999Z</time></trkpt><trkpt lat="41.988008117083595" lon="3.0313141372253085"><ele>29.0</ele><time>2026-05-02T10:09:34.999Z</time></trkpt><trkpt lat="41.98795736985182" lon="3.0312490455263474"><ele>28.999999999999996</ele><time>2026-05-02T10:09:35.999Z</time></trkpt><trkpt lat="41.987903492544106" lon="3.031192657537844"><ele>29.0</ele><time>2026-05-02T10:09:36.999Z</time></trkpt><trkpt lat="41.98785066491911" lon="3.0311452610821754"><ele>29.000000000000004</ele><time>2026-05-02T10:09:37.999Z</time></trkpt><trkpt lat="41.98779554065938" lon="3.031092870052091"><ele>29.0</ele><time>2026-05-02T10:09:38.999Z</time></trkpt><trkpt lat="41.987737519264506" lon="3.0310469287050283"><ele>29.000000000000004</ele><time>2026-05-02T10:09:39.999Z</time></trkpt><trkpt lat="41.98767811081505" lon="3.0310031029335276"><ele>29.000000000000004</ele><time>2026-05-02T10:09:40.999Z</time></trkpt><trkpt lat="41.98761943498951" lon="3.0309546199417228"><ele>29.0</ele><time>2026-05-02T10:09:41.999Z</time></trkpt><trkpt lat="41.98755626328879" lon="3.030915739863004"><ele>29.000000000000004</ele><time>2026-05-02T10:09:42.999Z</time></trkpt><trkpt lat="41.98750515450637" lon="3.030861344463043"><ele>29.000000000000004</ele><time>2026-05-02T10:09:43.999Z</time></trkpt><trkpt lat="41.987446331509176" lon="3.0308191732647156"><ele>28.85714285714286</ele><time>2026-05-02T10:09:44.999Z</time></trkpt><trkpt lat="41.98738050258373" lon="3.030796942127041"><ele>28.714285714285715</ele><time>2026-05-02T10:09:45.999Z</time></trkpt><trkpt lat="41.98732951517245" lon="3.03073542566775"><ele>28.571428571428573</ele><time>2026-05-02T10:09:46.999Z</time></trkpt><trkpt lat="41.987266770335815" lon="3.030690442751448"><ele>28.42857142857143</ele><time>2026-05-02T10:09:47.999Z</time></trkpt><trkpt lat="41.98720697414446" lon="3.03064757391531"><ele>28.285714285714285</ele><time>2026-05-02T10:09:48.999Z</time></trkpt><trkpt lat="41.9871472153542" lon="3.030604731763164"><ele>28.142857142857142</ele><time>2026-05-02T10:09:49.999Z</time></trkpt><trkpt lat="41.98708593432879" lon="3.0305607983902383"><ele>28.0</ele><time>2026-05-02T10:09:50.999Z</time></trkpt><trkpt lat="41.987024107134005" lon="3.0305164734356627"><ele>28.0</ele><time>2026-05-02T10:09:51.999Z</time></trkpt><trkpt lat="41.986960349881144" lon="3.03047160026513"><ele>28.0</ele><time>2026-05-02T10:09:52.999Z</time></trkpt><trkpt lat="41.98689638010454" lon="3.030426621952784"><ele>28.0</ele><time>2026-05-02T10:09:53.999Z</time></trkpt><trkpt lat="41.986832334553185" lon="3.0303815904347156"><ele>28.0</ele><time>2026-05-02T10:09:54.999Z</time></trkpt><trkpt lat="41.98676906963176" lon="3.0303350863224723"><ele>28.0</ele><time>2026-05-02T10:09:55.999Z</time></trkpt><trkpt lat="41.98670629328851" lon="3.0302868198135147"><ele>28.0</ele><time>2026-05-02T10:09:56.999Z</time></trkpt><trkpt lat="41.9866445710076" lon="3.0302347529725435"><ele>28.0</ele><time>2026-05-02T10:09:57.999Z</time></trkpt><trkpt lat="41.986586403246825" lon="3.0301774740442187"><ele>28.285714285714285</ele><time>2026-05-02T10:09:58.999Z</time></trkpt><trkpt lat="41.98652606506962" lon="3.030115103388467"><ele>28.57142857142857</ele><time>2026-05-02T10:09:59.999Z</time></trkpt><trkpt lat="41.986469864821146" lon="3.030057010433497"><ele>28.857142857142858</ele><time>2026-05-02T10:10:00.999Z</time></trkpt><trkpt lat="41.98640468717067" lon="3.0300201845957155"><ele>29.142857142857142</ele><time>2026-05-02T10:10:01.999Z</time></trkpt><trkpt lat="41.98635035668199" lon="3.0299649004859868"><ele>29.428571428571427</ele><time>2026-05-02T10:10:02.999Z</time></trkpt><trkpt lat="41.98629098421573" lon="3.0299193968669567"><ele>29.714285714285715</ele><time>2026-05-02T10:10:03.999Z</time></trkpt><trkpt lat="41.98622987191772" lon="3.029859624054954"><ele>30.0</ele><time>2026-05-02T10:10:04.999Z</time></trkpt><trkpt lat="41.98615780149776" lon="3.029829873877649"><ele>30.0</ele><time>2026-05-02T10:10:05.999Z</time></trkpt><trkpt lat="41.986081862317" lon="3.0298349329946284"><ele>30.0</ele><time>2026-05-02T10:10:07Z</time></trkpt><trkpt lat="41.98600945239954" lon="3.0298635527734694"><ele>30.0</ele><time>2026-05-02T10:10:08Z</time></trkpt><trkpt lat="41.9859332492319" lon="3.0298801772286654"><ele>30.0</ele><time>2026-05-02T10:10:09Z</time></trkpt><trkpt lat="41.98585096242451" lon="3.029900500827183"><ele>30.0</ele><time>2026-05-02T10:10:10Z</time></trkpt><trkpt lat="41.98577160506766" lon="3.029919966453362"><ele>30.0</ele><time>2026-05-02T10:10:11Z</time></trkpt><trkpt lat="41.98569354538985" lon="3.02993550547833"><ele>30.0</ele><time>2026-05-02T10:10:12Z</time></trkpt><trkpt lat="41.98562517625081" lon="3.0299597031800185"><ele>30.0</ele><time>2026-05-02T10:10:13Z</time></trkpt><trkpt lat="41.98551190906443" lon="3.029958074736958"><ele>30.0</ele><time>2026-05-02T10:10:15Z</time></trkpt><trkpt lat="41.9854219316717" lon="3.029916033172304"><ele>30.0</ele><time>2026-05-02T10:10:17Z</time></trkpt><trkpt lat="41.985315213243766" lon="3.029886175522168"><ele>30.0</ele><time>2026-05-02T10:10:19Z</time></trkpt><trkpt lat="41.98520171868924" lon="3.0298523842696854"><ele>30.0</ele><time>2026-05-02T10:10:21Z</time></trkpt><trkpt lat="41.9850793027447" lon="3.0298189667867197"><ele>30.0</ele><time>2026-05-02T10:10:23Z</time></trkpt><trkpt lat="41.985015858316736" lon="3.029802752180475"><ele>30.0</ele><time>2026-05-02T10:10:24Z</time></trkpt><trkpt lat="41.98495187064832" lon="3.029786398783795"><ele>30.0</ele><time>2026-05-02T10:10:25Z</time></trkpt><trkpt lat="41.98488824723692" lon="3.0297905859776773"><ele>30.0</ele><time>2026-05-02T10:10:26Z</time></trkpt><trkpt lat="41.98482497777744" lon="3.029774789897273"><ele>30.0</ele><time>2026-05-02T10:10:27Z</time></trkpt><trkpt lat="41.98476140525505" lon="3.0297601489839807"><ele>30.0</ele><time>2026-05-02T10:10:28Z</time></trkpt><trkpt lat="41.984693333384705" lon="3.0297487974374215"><ele>30.166666666666668</ele><time>2026-05-02T10:10:29Z</time></trkpt><trkpt lat="41.984628081392444" lon="3.0297204658857213"><ele>30.333333333333336</ele><time>2026-05-02T10:10:30Z</time></trkpt><trkpt lat="41.98455870313054" lon="3.0297137003768038"><ele>30.5</ele><time>2026-05-02T10:10:31Z</time></trkpt><trkpt lat="41.9844915264358" lon="3.0297117024787177"><ele>30.666666666666668</ele><time>2026-05-02T10:10:32Z</time></trkpt><trkpt lat="41.98442347885955" lon="3.0297162912716247"><ele>30.833333333333336</ele><time>2026-05-02T10:10:33Z</time></trkpt><trkpt lat="41.98430054479241" lon="3.029732729864767"><ele>31.0</ele><time>2026-05-02T10:10:35Z</time></trkpt><trkpt lat="41.98420259517643" lon="3.0297498916695536"><ele>30.833333333333336</ele><time>2026-05-02T10:10:37Z</time></trkpt><trkpt lat="41.984076668839705" lon="3.0297745540158827"><ele>30.666666666666668</ele><time>2026-05-02T10:10:39Z</time></trkpt><trkpt lat="41.98401217894705" lon="3.0297874519915964"><ele>30.5</ele><time>2026-05-02T10:10:40Z</time></trkpt><trkpt lat="41.98394569540067" lon="3.029801449273464"><ele>30.333333333333336</ele><time>2026-05-02T10:10:41Z</time></trkpt><trkpt lat="41.98387878917199" lon="3.029815848254196"><ele>30.166666666666668</ele><time>2026-05-02T10:10:42Z</time></trkpt><trkpt lat="41.98381186026659" lon="3.029830252121485"><ele>30.0</ele><time>2026-05-02T10:10:43Z</time></trkpt><trkpt lat="41.983744081795315" lon="3.029844840462317"><ele>30.0</ele><time>2026-05-02T10:10:44Z</time></trkpt><trkpt lat="41.983674841300505" lon="3.029859366199608"><ele>30.0</ele><time>2026-05-02T10:10:45Z</time></trkpt><trkpt lat="41.9836025025417" lon="3.029873788499606"><ele>30.0</ele><time>2026-05-02T10:10:46Z</time></trkpt><trkpt lat="41.983531136278636" lon="3.029888016919823"><ele>30.0</ele><time>2026-05-02T10:10:47Z</time></trkpt><trkpt lat="41.98345909262275" lon="3.0299023803877145"><ele>30.0</ele><time>2026-05-02T10:10:48Z</time></trkpt><trkpt lat="41.98338753693104" lon="3.029916646570292"><ele>30.0</ele><time>2026-05-02T10:10:49Z</time></trkpt><trkpt lat="41.9833187549465" lon="3.0299303597588114"><ele>30.0</ele><time>2026-05-02T10:10:50Z</time></trkpt><trkpt lat="41.98325231751331" lon="3.0299436054962166"><ele>30.0</ele><time>2026-05-02T10:10:51Z</time></trkpt><trkpt lat="41.983186293675246" lon="3.0299576353200095"><ele>30.0</ele><time>2026-05-02T10:10:52Z</time></trkpt><trkpt lat="41.983120058339495" lon="3.029972494537063"><ele>30.0</ele><time>2026-05-02T10:10:53Z</time></trkpt><trkpt lat="41.98305147495817" lon="3.029987880508959"><ele>30.0</ele><time>2026-05-02T10:10:54Z</time></trkpt><trkpt lat="41.982983077932516" lon="3.03000322467416"><ele>30.0</ele><time>2026-05-02T10:10:55Z</time></trkpt><trkpt lat="41.98291757452855" lon="3.030018041251314"><ele>30.0</ele><time>2026-05-02T10:10:56Z</time></trkpt><trkpt lat="41.98285385541716" lon="3.0300342745993025"><ele>30.0</ele><time>2026-05-02T10:10:57Z</time></trkpt><trkpt lat="41.98276683998967" lon="3.0300397835851456"><ele>30.0</ele><time>2026-05-02T10:10:59Z</time></trkpt><trkpt lat="41.98276140417741" lon="3.029930913760915"><ele>30.0</ele><time>2026-05-02T10:11:02Z</time></trkpt><trkpt lat="41.98280184598769" lon="3.0298279483591766"><ele>30.0</ele><time>2026-05-02T10:11:04Z</time></trkpt><trkpt lat="41.98282846343826" lon="3.029691097088096"><ele>30.0</ele><time>2026-05-02T10:11:06Z</time></trkpt><trkpt lat="41.98287457341021" lon="3.0295725091350576"><ele>30.0</ele><time>2026-05-02T10:11:08Z</time></trkpt><trkpt lat="41.98291127717674" lon="3.0294271142240943"><ele>30.0</ele><time>2026-05-02T10:11:10Z</time></trkpt><trkpt lat="41.98294361760081" lon="3.029269427005875"><ele>30.0</ele><time>2026-05-02T10:11:12Z</time></trkpt><trkpt lat="41.98294742979584" lon="3.029180703756176"><ele>30.0</ele><time>2026-05-02T10:11:13Z</time></trkpt><trkpt lat="41.9829381308246" lon="3.0290914173970394"><ele>30.0</ele><time>2026-05-02T10:11:14Z</time></trkpt><trkpt lat="41.982899980495276" lon="3.028931745616821"><ele>30.0</ele><time>2026-05-02T10:11:16Z</time></trkpt><trkpt lat="41.98284941896768" lon="3.028775051228249"><ele>30.0</ele><time>2026-05-02T10:11:18Z</time></trkpt><trkpt lat="41.98282649966071" lon="3.0286952125592417"><ele>30.0</ele><time>2026-05-02T10:11:19Z</time></trkpt><trkpt lat="41.9827864277095" lon="3.0285383061150206"><ele>30.0</ele><time>2026-05-02T10:11:20.999Z</time></trkpt><trkpt lat="41.9827488907261" lon="3.0283819905343536"><ele>30.0</ele><time>2026-05-02T10:11:22.999Z</time></trkpt><trkpt lat="41.982706768895966" lon="3.028226613857777"><ele>30.0</ele><time>2026-05-02T10:11:24.999Z</time></trkpt><trkpt lat="41.98266706824701" lon="3.0280760029697045"><ele>30.0</ele><time>2026-05-02T10:11:26.999Z</time></trkpt><trkpt lat="41.98263145987695" lon="3.0279360783516966"><ele>30.0</ele><time>2026-05-02T10:11:28.999Z</time></trkpt><trkpt lat="41.98259666156252" lon="3.0278050108128083"><ele>30.0</ele><time>2026-05-02T10:11:30.999Z</time></trkpt><trkpt lat="41.98258681744245" lon="3.0277001682302"><ele>30.0</ele><time>2026-05-02T10:11:32.999Z</time></trkpt><trkpt lat="41.98271176732647" lon="3.0276454225590146"><ele>30.0</ele><time>2026-05-02T10:11:35.999Z</time></trkpt><trkpt lat="41.98282266118618" lon="3.0275972962088127"><ele>30.0</ele><time>2026-05-02T10:11:37.999Z</time></trkpt><trkpt lat="41.982882407366766" lon="3.0275637851981565"><ele>30.0</ele><time>2026-05-02T10:11:38.999Z</time></trkpt><trkpt lat="41.98294568474883" lon="3.0275387223392265"><ele>30.0</ele><time>2026-05-02T10:11:39.999Z</time></trkpt><trkpt lat="41.98300999250455" lon="3.0275153936278043"><ele>30.0</ele><time>2026-05-02T10:11:40.999Z</time></trkpt><trkpt lat="41.98307120426969" lon="3.027495472322956"><ele>30.0</ele><time>2026-05-02T10:11:41.999Z</time></trkpt><trkpt lat="41.983168884571" lon="3.0274464676047366"><ele>30.0</ele><time>2026-05-02T10:11:43.999Z</time></trkpt><trkpt lat="41.983033257950346" lon="3.0268855920645663"><ele>30.4</ele><time>2026-05-02T10:11:52.999Z</time></trkpt><trkpt lat="41.982998824981024" lon="3.0268134306158556"><ele>30.8</ele><time>2026-05-02T10:11:53.999Z</time></trkpt><trkpt lat="41.98293594619261" lon="3.026671957936268"><ele>31.200000000000003</ele><time>2026-05-02T10:11:55.999Z</time></trkpt><trkpt lat="41.98287769914806" lon="3.026525401020657"><ele>31.6</ele><time>2026-05-02T10:11:57.999Z</time></trkpt><trkpt lat="41.98284823961514" lon="3.0264497786504547"><ele>32.0</ele><time>2026-05-02T10:11:58.999Z</time></trkpt><trkpt lat="41.98278363166314" lon="3.0263106610192634"><ele>32.14285714285714</ele><time>2026-05-02T10:12:00.999Z</time></trkpt><trkpt lat="41.98270455952884" lon="3.0261770786132147"><ele>32.285714285714285</ele><time>2026-05-02T10:12:02.999Z</time></trkpt><trkpt lat="41.98267300238324" lon="3.026101644977123"><ele>32.42857142857143</ele><time>2026-05-02T10:12:03.999Z</time></trkpt><trkpt lat="41.98264430207324" lon="3.026020117761225"><ele>32.57142857142857</ele><time>2026-05-02T10:12:04.999Z</time></trkpt><trkpt lat="41.98261341695198" lon="3.0259452640593496"><ele>32.714285714285715</ele><time>2026-05-02T10:12:05.999Z</time></trkpt><trkpt lat="41.98258269944772" lon="3.025870342861233"><ele>32.857142857142854</ele><time>2026-05-02T10:12:06.999Z</time></trkpt><trkpt lat="41.982550669487104" lon="3.0257966548523707"><ele>33.0</ele><time>2026-05-02T10:12:07.999Z</time></trkpt><trkpt lat="41.9824934483184" lon="3.0256561755096207"><ele>33.0</ele><time>2026-05-02T10:12:09.999Z</time></trkpt><trkpt lat="41.982422638953906" lon="3.025516829912182"><ele>33.0</ele><time>2026-05-02T10:12:11.999Z</time></trkpt><trkpt lat="41.98238997944786" lon="3.0254439318138675"><ele>33.0</ele><time>2026-05-02T10:12:13Z</time></trkpt><trkpt lat="41.98235206936187" lon="3.0253746258836784"><ele>33.0</ele><time>2026-05-02T10:12:14Z</time></trkpt><trkpt lat="41.982316238309124" lon="3.0252990090326963"><ele>33.0</ele><time>2026-05-02T10:12:15Z</time></trkpt><trkpt lat="41.98227311017631" lon="3.0252274415335423"><ele>33.0</ele><time>2026-05-02T10:12:16Z</time></trkpt><trkpt lat="41.98223208121651" lon="3.0251497165884182"><ele>33.0</ele><time>2026-05-02T10:12:17Z</time></trkpt><trkpt lat="41.9821917390604" lon="3.0250740554619298"><ele>33.0</ele><time>2026-05-02T10:12:18Z</time></trkpt><trkpt lat="41.98214731264767" lon="3.0250039837290346"><ele>33.0</ele><time>2026-05-02T10:12:19Z</time></trkpt><trkpt lat="41.982107238658024" lon="3.0249315559426115"><ele>33.0</ele><time>2026-05-02T10:12:20Z</time></trkpt><trkpt lat="41.98207157321837" lon="3.024858816951827"><ele>33.0</ele><time>2026-05-02T10:12:21Z</time></trkpt><trkpt lat="41.98203027486412" lon="3.024790197938546"><ele>33.0</ele><time>2026-05-02T10:12:22Z</time></trkpt><trkpt lat="41.98199112199683" lon="3.024720452987588"><ele>33.0</ele><time>2026-05-02T10:12:23Z</time></trkpt><trkpt lat="41.981947322284405" lon="3.0246502523480747"><ele>32.857142857142854</ele><time>2026-05-02T10:12:24Z</time></trkpt><trkpt lat="41.98190319464219" lon="3.024582390527485"><ele>32.714285714285715</ele><time>2026-05-02T10:12:25Z</time></trkpt><trkpt lat="41.98186249255213" lon="3.0245085389356325"><ele>32.57142857142857</ele><time>2026-05-02T10:12:26Z</time></trkpt><trkpt lat="41.981819095463585" lon="3.0244416492521875"><ele>32.42857142857143</ele><time>2026-05-02T10:12:27Z</time></trkpt><trkpt lat="41.98177644623743" lon="3.02437470531293"><ele>32.285714285714285</ele><time>2026-05-02T10:12:28Z</time></trkpt><trkpt lat="41.98173634295709" lon="3.0243034155291246"><ele>32.14285714285714</ele><time>2026-05-02T10:12:29Z</time></trkpt><trkpt lat="41.981694137169114" lon="3.024238277763465"><ele>32.0</ele><time>2026-05-02T10:12:30Z</time></trkpt><trkpt lat="41.98164616849457" lon="3.024180685733107"><ele>32.14285714285714</ele><time>2026-05-02T10:12:31Z</time></trkpt><trkpt lat="41.98160444381245" lon="3.0241146970221924"><ele>32.285714285714285</ele><time>2026-05-02T10:12:32Z</time></trkpt><trkpt lat="41.98156390565651" lon="3.0240432119210623"><ele>32.42857142857143</ele><time>2026-05-02T10:12:33Z</time></trkpt><trkpt lat="41.98152308030385" lon="3.0239729452949606"><ele>32.57142857142857</ele><time>2026-05-02T10:12:34Z</time></trkpt><trkpt lat="41.98148401521096" lon="3.0239059421231085"><ele>32.714285714285715</ele><time>2026-05-02T10:12:35Z</time></trkpt><trkpt lat="41.981447739878966" lon="3.023835389472413"><ele>32.857142857142854</ele><time>2026-05-02T10:12:36Z</time></trkpt><trkpt lat="41.98141036965554" lon="3.023761815565304"><ele>33.0</ele><time>2026-05-02T10:12:37Z</time></trkpt><trkpt lat="41.98136896712149" lon="3.0236956322374864"><ele>33.0</ele><time>2026-05-02T10:12:38Z</time></trkpt><trkpt lat="41.98132837377006" lon="3.023627985271203"><ele>33.0</ele><time>2026-05-02T10:12:39Z</time></trkpt><trkpt lat="41.981285916061545" lon="3.023559181597627"><ele>33.0</ele><time>2026-05-02T10:12:40Z</time></trkpt><trkpt lat="41.98124552961872" lon="3.0234878649813983"><ele>33.0</ele><time>2026-05-02T10:12:41Z</time></trkpt><trkpt lat="41.98116718880604" lon="3.023366514624067"><ele>33.0</ele><time>2026-05-02T10:12:43Z</time></trkpt><trkpt lat="41.98108186321973" lon="3.023256503091257"><ele>33.0</ele><time>2026-05-02T10:12:45Z</time></trkpt><trkpt lat="41.980990537539085" lon="3.023160306662343"><ele>33.0</ele><time>2026-05-02T10:12:47Z</time></trkpt><trkpt lat="41.98090150428917" lon="3.023065466867739"><ele>33.0</ele><time>2026-05-02T10:12:49Z</time></trkpt><trkpt lat="41.980817538527646" lon="3.0229470241691927"><ele>33.0</ele><time>2026-05-02T10:12:51Z</time></trkpt><trkpt lat="41.980806942580415" lon="3.0228631660209415"><ele>33.0</ele><time>2026-05-02T10:12:52Z</time></trkpt><trkpt lat="41.98077779807681" lon="3.022714265935623"><ele>33.0</ele><time>2026-05-02T10:12:54Z</time></trkpt><trkpt lat="41.98076086873712" lon="3.022579589919497"><ele>32.6</ele><time>2026-05-02T10:12:56Z</time></trkpt><trkpt lat="41.98071222705123" lon="3.0224708280473056"><ele>32.199999999999996</ele><time>2026-05-02T10:12:58Z</time></trkpt><trkpt lat="41.98066183070851" lon="3.0223756483796684"><ele>31.8</ele><time>2026-05-02T10:13:00Z</time></trkpt><trkpt lat="41.98063242560511" lon="3.0222351859932903"><ele>31.4</ele><time>2026-05-02T10:13:02Z</time></trkpt><trkpt lat="41.98061652737441" lon="3.0220701753055192"><ele>31.0</ele><time>2026-05-02T10:13:04Z</time></trkpt><trkpt lat="41.980580974929616" lon="3.021914205275419"><ele>31.0</ele><time>2026-05-02T10:13:06Z</time></trkpt><trkpt lat="41.98054271767582" lon="3.021750758022324"><ele>31.0</ele><time>2026-05-02T10:13:08Z</time></trkpt><trkpt lat="41.98051244097546" lon="3.021592879441328"><ele>31.0</ele><time>2026-05-02T10:13:10Z</time></trkpt><trkpt lat="41.98047912528684" lon="3.021433271593354"><ele>31.0</ele><time>2026-05-02T10:13:12Z</time></trkpt><trkpt lat="41.98046224317895" lon="3.0213508454958755"><ele>31.0</ele><time>2026-05-02T10:13:13Z</time></trkpt><trkpt lat="41.98041198085892" lon="3.0211918900014187"><ele>31.0</ele><time>2026-05-02T10:13:15Z</time></trkpt><trkpt lat="41.980395882697664" lon="3.0211096644174655"><ele>31.000000000000004</ele><time>2026-05-02T10:13:16Z</time></trkpt><trkpt lat="41.980379703688726" lon="3.0210270258476126"><ele>31.0</ele><time>2026-05-02T10:13:17Z</time></trkpt><trkpt lat="41.980348337286934" lon="3.020868296535855"><ele>31.0</ele><time>2026-05-02T10:13:19Z</time></trkpt><trkpt lat="41.98033125377038" lon="3.0207818560537727"><ele>31.000000000000004</ele><time>2026-05-02T10:13:20Z</time></trkpt><trkpt lat="41.980314002401435" lon="3.0206945662959073"><ele>31.0</ele><time>2026-05-02T10:13:21Z</time></trkpt><trkpt lat="41.98029693792129" lon="3.020608218701065"><ele>31.0</ele><time>2026-05-02T10:13:22Z</time></trkpt><trkpt lat="41.98027984537635" lon="3.020524331612703"><ele>31.28571428571429</ele><time>2026-05-02T10:13:23Z</time></trkpt><trkpt lat="41.980273943403745" lon="3.0204336331001698"><ele>31.571428571428577</ele><time>2026-05-02T10:13:24Z</time></trkpt><trkpt lat="41.98025708506857" lon="3.0203464272056793"><ele>31.857142857142858</ele><time>2026-05-02T10:13:25Z</time></trkpt><trkpt lat="41.98023940738817" lon="3.0202562338290435"><ele>32.142857142857146</ele><time>2026-05-02T10:13:26Z</time></trkpt><trkpt lat="41.98022224032892" lon="3.0201702340764647"><ele>32.42857142857143</ele><time>2026-05-02T10:13:27Z</time></trkpt><trkpt lat="41.98020287025717" lon="3.0200852832260945"><ele>32.714285714285715</ele><time>2026-05-02T10:13:27.999Z</time></trkpt><trkpt lat="41.980183662675735" lon="3.0200010877910315"><ele>33.0</ele><time>2026-05-02T10:13:28.999Z</time></trkpt><trkpt lat="41.98016457996876" lon="3.019914655149186"><ele>33.0</ele><time>2026-05-02T10:13:29.999Z</time></trkpt><trkpt lat="41.980147548055896" lon="3.019825435682731"><ele>33.0</ele><time>2026-05-02T10:13:30.999Z</time></trkpt><trkpt lat="41.98012522534768" lon="3.019740435172452"><ele>33.0</ele><time>2026-05-02T10:13:31.999Z</time></trkpt><trkpt lat="41.98010233705241" lon="3.0196531389868246"><ele>33.0</ele><time>2026-05-02T10:13:32.999Z</time></trkpt><trkpt lat="41.98007869525977" lon="3.0195607424960866"><ele>33.0</ele><time>2026-05-02T10:13:33.999Z</time></trkpt><trkpt lat="41.98005561423555" lon="3.019471549614154"><ele>33.0</ele><time>2026-05-02T10:13:34.999Z</time></trkpt><trkpt lat="41.980031657721696" lon="3.019383160781889"><ele>33.0</ele><time>2026-05-02T10:13:35.999Z</time></trkpt><trkpt lat="41.98000537427" lon="3.01929777410392"><ele>33.0</ele><time>2026-05-02T10:13:36.999Z</time></trkpt><trkpt lat="41.979991072521315" lon="3.0191545073213675"><ele>33.0</ele><time>2026-05-02T10:13:38.999Z</time></trkpt><trkpt lat="41.97982563809504" lon="3.0191182735581057"><ele>33.0</ele><time>2026-05-02T10:13:39.999Z</time></trkpt><trkpt lat="41.97975627246698" lon="3.019140903321428"><ele>33.0</ele><time>2026-05-02T10:13:40.999Z</time></trkpt><trkpt lat="41.9796884756734" lon="3.019162886346764"><ele>33.0</ele><time>2026-05-02T10:13:41.999Z</time></trkpt><trkpt lat="41.979620113987586" lon="3.019185789123101"><ele>33.0</ele><time>2026-05-02T10:13:42.999Z</time></trkpt><trkpt lat="41.97955121193514" lon="3.0192153756342424"><ele>33.0</ele><time>2026-05-02T10:13:43.999Z</time></trkpt><trkpt lat="41.97948449218473" lon="3.0192536612274337"><ele>33.0</ele><time>2026-05-02T10:13:44.999Z</time></trkpt><trkpt lat="41.97942054539371" lon="3.019297111371857"><ele>33.0</ele><time>2026-05-02T10:13:45.999Z</time></trkpt><trkpt lat="41.97935744085942" lon="3.019343577767655"><ele>33.0</ele><time>2026-05-02T10:13:46.999Z</time></trkpt><trkpt lat="41.979294917533785" lon="3.0193910756518223"><ele>33.0</ele><time>2026-05-02T10:13:47.999Z</time></trkpt><trkpt lat="41.97923186690336" lon="3.0194416362637293"><ele>33.0</ele><time>2026-05-02T10:13:48.999Z</time></trkpt><trkpt lat="41.97917141552878" lon="3.0194906601204106"><ele>33.42857142857143</ele><time>2026-05-02T10:13:49.999Z</time></trkpt><trkpt lat="41.979109171110565" lon="3.0195411381078827"><ele>33.85714285714286</ele><time>2026-05-02T10:13:50.999Z</time></trkpt><trkpt lat="41.97904762706114" lon="3.019591048038732"><ele>34.28571428571429</ele><time>2026-05-02T10:13:51.999Z</time></trkpt><trkpt lat="41.978985682014326" lon="3.0196412832393"><ele>34.714285714285715</ele><time>2026-05-02T10:13:52.999Z</time></trkpt><trkpt lat="41.978933371469054" lon="3.0197064876892683"><ele>35.142857142857146</ele><time>2026-05-02T10:13:53.999Z</time></trkpt><trkpt lat="41.97887308647362" lon="3.019751079373531"><ele>35.57142857142858</ele><time>2026-05-02T10:13:54.999Z</time></trkpt><trkpt lat="41.97881136348873" lon="3.019796787005392"><ele>36.0</ele><time>2026-05-02T10:13:55.999Z</time></trkpt><trkpt lat="41.97875398741956" lon="3.019846960369485"><ele>36.00000000000001</ele><time>2026-05-02T10:13:56.999Z</time></trkpt><trkpt lat="41.97869617687427" lon="3.0198979755603137"><ele>36.0</ele><time>2026-05-02T10:13:57.999Z</time></trkpt><trkpt lat="41.978635272173456" lon="3.01994641011963"><ele>36.0</ele><time>2026-05-02T10:13:58.999Z</time></trkpt><trkpt lat="41.978575504694746" lon="3.0199938635871115"><ele>36.0</ele><time>2026-05-02T10:13:59.999Z</time></trkpt><trkpt lat="41.978505866757764" lon="3.0200238538572415"><ele>36.0</ele><time>2026-05-02T10:14:00.999Z</time></trkpt><trkpt lat="41.97844264793567" lon="3.0200736982896745"><ele>36.00000000000001</ele><time>2026-05-02T10:14:01.999Z</time></trkpt><trkpt lat="41.97838246234795" lon="3.0201211510714896"><ele>36.0</ele><time>2026-05-02T10:14:02.999Z</time></trkpt><trkpt lat="41.978320171788496" lon="3.0201692740521238"><ele>36.57142857142858</ele><time>2026-05-02T10:14:03.999Z</time></trkpt><trkpt lat="41.97825809970867" lon="3.0202168604715425"><ele>37.142857142857146</ele><time>2026-05-02T10:14:04.999Z</time></trkpt><trkpt lat="41.978194995793004" lon="3.0202652379937045"><ele>37.714285714285715</ele><time>2026-05-02T10:14:05.999Z</time></trkpt><trkpt lat="41.9781335122453" lon="3.0203106073874046"><ele>38.28571428571429</ele><time>2026-05-02T10:14:06.999Z</time></trkpt><trkpt lat="41.978069722798615" lon="3.020356687521269"><ele>38.85714285714286</ele><time>2026-05-02T10:14:07.999Z</time></trkpt><trkpt lat="41.978006698727654" lon="3.0203987702567963"><ele>39.42857142857143</ele><time>2026-05-02T10:14:08.999Z</time></trkpt><trkpt lat="41.97794216713407" lon="3.020436940757177"><ele>40.0</ele><time>2026-05-02T10:14:09.999Z</time></trkpt><trkpt lat="41.977877008311154" lon="3.02047006461552"><ele>40.0</ele><time>2026-05-02T10:14:10.999Z</time></trkpt><trkpt lat="41.97780908314698" lon="3.020500076262216"><ele>40.0</ele><time>2026-05-02T10:14:11.999Z</time></trkpt><trkpt lat="41.97774096796836" lon="3.020529109862212"><ele>40.0</ele><time>2026-05-02T10:14:12.999Z</time></trkpt><trkpt lat="41.977673182218645" lon="3.0205580021567395"><ele>40.0</ele><time>2026-05-02T10:14:13.999Z</time></trkpt><trkpt lat="41.97760915769018" lon="3.020605036963714"><ele>40.0</ele><time>2026-05-02T10:14:14.999Z</time></trkpt><trkpt lat="41.97754016027614" lon="3.020630667179507"><ele>40.0</ele><time>2026-05-02T10:14:15.999Z</time></trkpt><trkpt lat="41.97746880817624" lon="3.0206374497993975"><ele>40.0</ele><time>2026-05-02T10:14:16.999Z</time></trkpt><trkpt lat="41.977403864333816" lon="3.0206632520399492"><ele>40.0</ele><time>2026-05-02T10:14:17.999Z</time></trkpt><trkpt lat="41.977339295577906" lon="3.0206889052502173"><ele>40.0</ele><time>2026-05-02T10:14:19Z</time></trkpt><trkpt lat="41.97727845941914" lon="3.020712339813505"><ele>40.0</ele><time>2026-05-02T10:14:20Z</time></trkpt><trkpt lat="41.97715924918501" lon="3.020762790901199"><ele>40.0</ele><time>2026-05-02T10:14:22Z</time></trkpt><trkpt lat="41.977046709574886" lon="3.020832175247943"><ele>40.0</ele><time>2026-05-02T10:14:24Z</time></trkpt><trkpt lat="41.97693033736132" lon="3.020881925680482"><ele>40.2</ele><time>2026-05-02T10:14:26Z</time></trkpt><trkpt lat="41.97681469009033" lon="3.020906270921878"><ele>40.4</ele><time>2026-05-02T10:14:28Z</time></trkpt><trkpt lat="41.97671181590601" lon="3.0209484183435644"><ele>40.599999999999994</ele><time>2026-05-02T10:14:30Z</time></trkpt><trkpt lat="41.976617522212166" lon="3.0209870502798974"><ele>40.8</ele><time>2026-05-02T10:14:32Z</time></trkpt><trkpt lat="41.976526527131625" lon="3.021024330915452"><ele>41.0</ele><time>2026-05-02T10:14:34Z</time></trkpt><trkpt lat="41.97643449112016" lon="3.021062037832872"><ele>41.4</ele><time>2026-05-02T10:14:36Z</time></trkpt><trkpt lat="41.976338325442434" lon="3.0211014367573537"><ele>41.8</ele><time>2026-05-02T10:14:38Z</time></trkpt><trkpt lat="41.97624182084607" lon="3.0211409745113245"><ele>42.199999999999996</ele><time>2026-05-02T10:14:40Z</time></trkpt><trkpt lat="41.97614639417378" lon="3.0211800718992197"><ele>42.599999999999994</ele><time>2026-05-02T10:14:42Z</time></trkpt><trkpt lat="41.97605284990911" lon="3.0212183882065826"><ele>43.0</ele><time>2026-05-02T10:14:44Z</time></trkpt><trkpt lat="41.97596032120923" lon="3.0212568443301784"><ele>43.0</ele><time>2026-05-02T10:14:46Z</time></trkpt><trkpt lat="41.97587022246337" lon="3.021294290533331"><ele>43.0</ele><time>2026-05-02T10:14:48Z</time></trkpt><trkpt lat="41.975783864949776" lon="3.0213299901907305"><ele>43.0</ele><time>2026-05-02T10:14:50Z</time></trkpt><trkpt lat="41.97570053518636" lon="3.0213847232321127"><ele>43.0</ele><time>2026-05-02T10:14:52Z</time></trkpt><trkpt lat="41.975610983899436" lon="3.0214200820543575"><ele>43.0</ele><time>2026-05-02T10:14:54Z</time></trkpt><trkpt lat="41.97552200520738" lon="3.021455406125521"><ele>43.599999999999994</ele><time>2026-05-02T10:14:56Z</time></trkpt><trkpt lat="41.9754362753821" lon="3.021493530061721"><ele>44.199999999999996</ele><time>2026-05-02T10:14:58Z</time></trkpt><trkpt lat="41.97534410096198" lon="3.0215117711771073"><ele>44.8</ele><time>2026-05-02T10:15:00Z</time></trkpt><trkpt lat="41.97525942941813" lon="3.0215758838395907"><ele>45.4</ele><time>2026-05-02T10:15:02Z</time></trkpt><trkpt lat="41.975167012372005" lon="3.021610228453455"><ele>46.0</ele><time>2026-05-02T10:15:04Z</time></trkpt><trkpt lat="41.97507135347071" lon="3.0216423030012076"><ele>46.599999999999994</ele><time>2026-05-02T10:15:06Z</time></trkpt><trkpt lat="41.97497513689992" lon="3.021678414015667"><ele>47.2</ele><time>2026-05-02T10:15:08Z</time></trkpt><trkpt lat="41.97488004510416" lon="3.021722535721047"><ele>47.8</ele><time>2026-05-02T10:15:10Z</time></trkpt><trkpt lat="41.97478159042968" lon="3.0217610280525062"><ele>48.400000000000006</ele><time>2026-05-02T10:15:12Z</time></trkpt><trkpt lat="41.97468723722739" lon="3.0218023830461074"><ele>49.0</ele><time>2026-05-02T10:15:14Z</time></trkpt><trkpt lat="41.974587325347386" lon="3.021839586622142"><ele>49.0</ele><time>2026-05-02T10:15:16Z</time></trkpt><trkpt lat="41.97448159008999" lon="3.021876546208846"><ele>49.0</ele><time>2026-05-02T10:15:18Z</time></trkpt><trkpt lat="41.97436786407109" lon="3.0219194461880643"><ele>49.0</ele><time>2026-05-02T10:15:20Z</time></trkpt><trkpt lat="41.974251400582055" lon="3.021970439711879"><ele>49.0</ele><time>2026-05-02T10:15:22Z</time></trkpt><trkpt lat="41.97413538225278" lon="3.0219969727400593"><ele>48.75</ele><time>2026-05-02T10:15:24Z</time></trkpt><trkpt lat="41.97401604617494" lon="3.0220114327614125"><ele>48.5</ele><time>2026-05-02T10:15:26Z</time></trkpt><trkpt lat="41.97390027493197" lon="3.022019617140552"><ele>48.25</ele><time>2026-05-02T10:15:28Z</time></trkpt><trkpt lat="41.97377979039987" lon="3.0220271227868274"><ele>48.0</ele><time>2026-05-02T10:15:30Z</time></trkpt><trkpt lat="41.97366180704073" lon="3.0220371646449835"><ele>48.0</ele><time>2026-05-02T10:15:32Z</time></trkpt><trkpt lat="41.9735379180945" lon="3.0220411315796656"><ele>48.0</ele><time>2026-05-02T10:15:33.999Z</time></trkpt><trkpt lat="41.97341563568521" lon="3.0220527913769226"><ele>48.0</ele><time>2026-05-02T10:15:35.999Z</time></trkpt><trkpt lat="41.973296231537546" lon="3.022057272359392"><ele>48.0</ele><time>2026-05-02T10:15:37.999Z</time></trkpt><trkpt lat="41.973177362582156" lon="3.022066381055723"><ele>48.0</ele><time>2026-05-02T10:15:39.999Z</time></trkpt><trkpt lat="41.973053822034174" lon="3.0220888693734986"><ele>48.0</ele><time>2026-05-02T10:15:41.999Z</time></trkpt><trkpt lat="41.97293021096985" lon="3.022083464129095"><ele>48.0</ele><time>2026-05-02T10:15:43.999Z</time></trkpt><trkpt lat="41.9728033638427" lon="3.022095350935758"><ele>48.0</ele><time>2026-05-02T10:15:45.999Z</time></trkpt><trkpt lat="41.97273744984122" lon="3.022102326631119"><ele>48.0</ele><time>2026-05-02T10:15:46.999Z</time></trkpt><trkpt lat="41.97267039217848" lon="3.022110870442096"><ele>48.0</ele><time>2026-05-02T10:15:47.999Z</time></trkpt><trkpt lat="41.97260234569307" lon="3.0221226859484793"><ele>48.0</ele><time>2026-05-02T10:15:48.999Z</time></trkpt><trkpt lat="41.97253704961759" lon="3.0221366684817705"><ele>48.0</ele><time>2026-05-02T10:15:49.999Z</time></trkpt><trkpt lat="41.97247436860596" lon="3.0221531403475588"><ele>48.0</ele><time>2026-05-02T10:15:50.999Z</time></trkpt><trkpt lat="41.97235514040011" lon="3.0221919897400396"><ele>48.0</ele><time>2026-05-02T10:15:52.999Z</time></trkpt><trkpt lat="41.97224103599303" lon="3.0222318046255"><ele>48.0</ele><time>2026-05-02T10:15:54.999Z</time></trkpt><trkpt lat="41.97212783073451" lon="3.0222723502222246"><ele>47.75</ele><time>2026-05-02T10:15:56.999Z</time></trkpt><trkpt lat="41.97200832307192" lon="3.0223167925243866"><ele>47.5</ele><time>2026-05-02T10:15:58.999Z</time></trkpt><trkpt lat="41.971889041167024" lon="3.0223605279872134"><ele>47.25</ele><time>2026-05-02T10:16:00.999Z</time></trkpt><trkpt lat="41.97177395637168" lon="3.022401951299099"><ele>47.0</ele><time>2026-05-02T10:16:02.999Z</time></trkpt><trkpt lat="41.971659402713925" lon="3.022442068491912"><ele>47.0</ele><time>2026-05-02T10:16:04.999Z</time></trkpt><trkpt lat="41.9715514153959" lon="3.0224770676909176"><ele>47.0</ele><time>2026-05-02T10:16:06.999Z</time></trkpt><trkpt lat="41.97143685824267" lon="3.022477055696794"><ele>47.0</ele><time>2026-05-02T10:16:08.999Z</time></trkpt><trkpt lat="41.971316498129255" lon="3.0224727957288455"><ele>47.0</ele><time>2026-05-02T10:16:10.999Z</time></trkpt><trkpt lat="41.971195657063774" lon="3.0224589059765608"><ele>47.0</ele><time>2026-05-02T10:16:12.999Z</time></trkpt><trkpt lat="41.97107472107648" lon="3.0224449489035683"><ele>47.0</ele><time>2026-05-02T10:16:14.999Z</time></trkpt><trkpt lat="41.97096422431043" lon="3.0224281809282574"><ele>47.0</ele><time>2026-05-02T10:16:16.999Z</time></trkpt><trkpt lat="41.97085728713073" lon="3.022411440476067"><ele>47.0</ele><time>2026-05-02T10:16:18.999Z</time></trkpt><trkpt lat="41.97075252267312" lon="3.022390079873152"><ele>47.0</ele><time>2026-05-02T10:16:20.999Z</time></trkpt><trkpt lat="41.97064744299473" lon="3.022379314987729"><ele>47.5</ele><time>2026-05-02T10:16:22.999Z</time></trkpt><trkpt lat="41.97053882515514" lon="3.022367598111622"><ele>48.0</ele><time>2026-05-02T10:16:25Z</time></trkpt><trkpt lat="41.97042628100206" lon="3.0223620526602097"><ele>48.5</ele><time>2026-05-02T10:16:27Z</time></trkpt><trkpt lat="41.97031081703673" lon="3.022365086932443"><ele>49.0</ele><time>2026-05-02T10:16:29Z</time></trkpt><trkpt lat="41.97019839874879" lon="3.0223480682040997"><ele>49.0</ele><time>2026-05-02T10:16:31Z</time></trkpt><trkpt lat="41.97009977817568" lon="3.0223518668190468"><ele>49.0</ele><time>2026-05-02T10:16:33Z</time></trkpt><trkpt lat="41.969983110476115" lon="3.022363332010741"><ele>49.0</ele><time>2026-05-02T10:16:35Z</time></trkpt><trkpt lat="41.96987229896734" lon="3.0223861958918996"><ele>49.0</ele><time>2026-05-02T10:16:37Z</time></trkpt><trkpt lat="41.96975955568906" lon="3.0224103013399426"><ele>49.0</ele><time>2026-05-02T10:16:39Z</time></trkpt><trkpt lat="41.96965220070032" lon="3.0224340782456003"><ele>49.25</ele><time>2026-05-02T10:16:41Z</time></trkpt><trkpt lat="41.969544847981915" lon="3.0224576135397596"><ele>49.5</ele><time>2026-05-02T10:16:43Z</time></trkpt><trkpt lat="41.96943274804219" lon="3.022480445345257"><ele>49.75</ele><time>2026-05-02T10:16:45Z</time></trkpt><trkpt lat="41.96931848002237" lon="3.022503720454777"><ele>50.0</ele><time>2026-05-02T10:16:47Z</time></trkpt><trkpt lat="41.96920464218656" lon="3.0225302756771075"><ele>51.25</ele><time>2026-05-02T10:16:49Z</time></trkpt><trkpt lat="41.969088902181866" lon="3.0225575628814623"><ele>52.5</ele><time>2026-05-02T10:16:51Z</time></trkpt><trkpt lat="41.9689731221393" lon="3.0225819623580654"><ele>53.75</ele><time>2026-05-02T10:16:53Z</time></trkpt><trkpt lat="41.968861915737705" lon="3.022603265372116"><ele>55.0</ele><time>2026-05-02T10:16:55Z</time></trkpt><trkpt lat="41.968749489032305" lon="3.0226129514238944"><ele>55.0</ele><time>2026-05-02T10:16:57Z</time></trkpt><trkpt lat="41.96863277057772" lon="3.0226146488690837"><ele>55.0</ele><time>2026-05-02T10:16:59Z</time></trkpt><trkpt lat="41.96851725589606" lon="3.022612748182919"><ele>55.0</ele><time>2026-05-02T10:17:01Z</time></trkpt><trkpt lat="41.96840049900705" lon="3.0226086056904204"><ele>55.0</ele><time>2026-05-02T10:17:03Z</time></trkpt><trkpt lat="41.96828901830495" lon="3.0226046504018247"><ele>55.2</ele><time>2026-05-02T10:17:05Z</time></trkpt><trkpt lat="41.968183517672124" lon="3.022597470408186"><ele>55.4</ele><time>2026-05-02T10:17:07Z</time></trkpt><trkpt lat="41.96807414847105" lon="3.0226085204075726"><ele>55.599999999999994</ele><time>2026-05-02T10:17:09Z</time></trkpt><trkpt lat="41.96796875345208" lon="3.02259514804349"><ele>55.8</ele><time>2026-05-02T10:17:11Z</time></trkpt><trkpt lat="41.96786242520044" lon="3.022568066429095"><ele>56.0</ele><time>2026-05-02T10:17:13Z</time></trkpt><trkpt lat="41.9677598048131" lon="3.022554740960552"><ele>56.0</ele><time>2026-05-02T10:17:15Z</time></trkpt><trkpt lat="41.967658045501565" lon="3.022541540550049"><ele>55.99999999999999</ele><time>2026-05-02T10:17:17Z</time></trkpt><trkpt lat="41.9675560657506" lon="3.0225260661587487"><ele>55.99999999999999</ele><time>2026-05-02T10:17:19Z</time></trkpt><trkpt lat="41.96745227370246" lon="3.022502090373083"><ele>56.0</ele><time>2026-05-02T10:17:21Z</time></trkpt><trkpt lat="41.96734542210911" lon="3.0224734135980085"><ele>56.0</ele><time>2026-05-02T10:17:23Z</time></trkpt><trkpt lat="41.96723760257612" lon="3.022437481957133"><ele>57.4</ele><time>2026-05-02T10:17:25Z</time></trkpt><trkpt lat="41.967129123272144" lon="3.0223975080841337"><ele>58.8</ele><time>2026-05-02T10:17:27Z</time></trkpt><trkpt lat="41.96702568456013" lon="3.0223704702726812"><ele>60.199999999999996</ele><time>2026-05-02T10:17:29Z</time></trkpt><trkpt lat="41.96692688768871" lon="3.0223550041501577"><ele>61.599999999999994</ele><time>2026-05-02T10:17:31Z</time></trkpt><trkpt lat="41.96682309638548" lon="3.022340741442434"><ele>63.0</ele><time>2026-05-02T10:17:33Z</time></trkpt><trkpt lat="41.96671240781246" lon="3.022359231082016"><ele>61.2</ele><time>2026-05-02T10:17:35Z</time></trkpt><trkpt lat="41.966600898036965" lon="3.022341096447665"><ele>59.4</ele><time>2026-05-02T10:17:37Z</time></trkpt><trkpt lat="41.966492687672336" lon="3.0223205834160347"><ele>57.60000000000001</ele><time>2026-05-02T10:17:39Z</time></trkpt><trkpt lat="41.96638686790578" lon="3.0223037834498685"><ele>55.800000000000004</ele><time>2026-05-02T10:17:40.999Z</time></trkpt><trkpt lat="41.96627981938732" lon="3.0222675731573654"><ele>54.0</ele><time>2026-05-02T10:17:42.999Z</time></trkpt><trkpt lat="41.96616528528459" lon="3.0222501824085857"><ele>54.0</ele><time>2026-05-02T10:17:44.999Z</time></trkpt><trkpt lat="41.966051920311614" lon="3.0222333435960964"><ele>54.0</ele><time>2026-05-02T10:17:46.999Z</time></trkpt><trkpt lat="41.965940787017594" lon="3.022221349535164"><ele>54.0</ele><time>2026-05-02T10:17:48.999Z</time></trkpt><trkpt lat="41.965825128258004" lon="3.022216303752619"><ele>54.0</ele><time>2026-05-02T10:17:50.999Z</time></trkpt><trkpt lat="41.965707540595716" lon="3.022215149253591"><ele>53.0</ele><time>2026-05-02T10:17:52.999Z</time></trkpt><trkpt lat="41.96558701392368" lon="3.022218267666554"><ele>52.00000000000001</ele><time>2026-05-02T10:17:54.999Z</time></trkpt><trkpt lat="41.96546436480868" lon="3.0222267606275284"><ele>51.0</ele><time>2026-05-02T10:17:56.999Z</time></trkpt><trkpt lat="41.96534159010831" lon="3.022238663990342"><ele>50.0</ele><time>2026-05-02T10:17:58.999Z</time></trkpt><trkpt lat="41.9652781714542" lon="3.022247323314346"><ele>49.0</ele><time>2026-05-02T10:17:59.999Z</time></trkpt><trkpt lat="41.965156517086506" lon="3.0222653628459817"><ele>49.0</ele><time>2026-05-02T10:18:01.999Z</time></trkpt><trkpt lat="41.96503362256284" lon="3.0222765175528696"><ele>49.0</ele><time>2026-05-02T10:18:03.999Z</time></trkpt><trkpt lat="41.96491783722769" lon="3.0222692197759975"><ele>49.0</ele><time>2026-05-02T10:18:05.999Z</time></trkpt><trkpt lat="41.964797604032164" lon="3.0222426077761506"><ele>49.0</ele><time>2026-05-02T10:18:07.999Z</time></trkpt><trkpt lat="41.96473554018287" lon="3.022226056293947"><ele>49.0</ele><time>2026-05-02T10:18:08.999Z</time></trkpt><trkpt lat="41.9646730490388" lon="3.02220785828521"><ele>48.714285714285715</ele><time>2026-05-02T10:18:09.999Z</time></trkpt><trkpt lat="41.96460959749043" lon="3.0221880056506625"><ele>48.42857142857143</ele><time>2026-05-02T10:18:10.999Z</time></trkpt><trkpt lat="41.964548473249415" lon="3.022167344150599"><ele>48.14285714285714</ele><time>2026-05-02T10:18:11.999Z</time></trkpt><trkpt lat="41.96448706456402" lon="3.0221448173552172"><ele>47.85714285714286</ele><time>2026-05-02T10:18:12.999Z</time></trkpt><trkpt lat="41.964425339374706" lon="3.0221206390186133"><ele>47.57142857142857</ele><time>2026-05-02T10:18:13.999Z</time></trkpt><trkpt lat="41.96436173945375" lon="3.0220957246550038"><ele>47.285714285714285</ele><time>2026-05-02T10:18:14.999Z</time></trkpt><trkpt lat="41.964299689675784" lon="3.022071733715533"><ele>47.0</ele><time>2026-05-02T10:18:15.999Z</time></trkpt><trkpt lat="41.964235099877605" lon="3.022047554282408"><ele>48.57142857142857</ele><time>2026-05-02T10:18:16.999Z</time></trkpt><trkpt lat="41.9641713541863" lon="3.0220248503448817"><ele>50.14285714285714</ele><time>2026-05-02T10:18:17.999Z</time></trkpt><trkpt lat="41.96410968716458" lon="3.022003206745047"><ele>51.71428571428572</ele><time>2026-05-02T10:18:18.999Z</time></trkpt><trkpt lat="41.964048375638" lon="3.02198168791226"><ele>53.28571428571429</ele><time>2026-05-02T10:18:19.999Z</time></trkpt><trkpt lat="41.96398632561064" lon="3.021959909881054"><ele>54.85714285714286</ele><time>2026-05-02T10:18:20.999Z</time></trkpt><trkpt lat="41.96392495084839" lon="3.0219383688517696"><ele>56.42857142857144</ele><time>2026-05-02T10:18:21.999Z</time></trkpt><trkpt lat="41.9638623121615" lon="3.021916384214599"><ele>58.00000000000001</ele><time>2026-05-02T10:18:22.999Z</time></trkpt><trkpt lat="41.963799930614044" lon="3.0218944898344113"><ele>58.00000000000001</ele><time>2026-05-02T10:18:23.999Z</time></trkpt><trkpt lat="41.963738470208014" lon="3.0218729187452604"><ele>58.0</ele><time>2026-05-02T10:18:24.999Z</time></trkpt><trkpt lat="41.963677247544375" lon="3.021851431099678"><ele>58.00000000000001</ele><time>2026-05-02T10:18:25.999Z</time></trkpt><trkpt lat="41.963615438873155" lon="3.021829737778183"><ele>58.00000000000001</ele><time>2026-05-02T10:18:26.999Z</time></trkpt><trkpt lat="41.96355176588155" lon="3.0218073895624733"><ele>58.0</ele><time>2026-05-02T10:18:27.999Z</time></trkpt><trkpt lat="41.96348898071551" lon="3.0217853489621826"><ele>58.00000000000001</ele><time>2026-05-02T10:18:28.999Z</time></trkpt><trkpt lat="41.96342596548281" lon="3.0217631795050313"><ele>58.00000000000001</ele><time>2026-05-02T10:18:29.999Z</time></trkpt><trkpt lat="41.96336482036968" lon="3.0217357578799064"><ele>58.85714285714286</ele><time>2026-05-02T10:18:31Z</time></trkpt><trkpt lat="41.963300127595645" lon="3.0217216577984525"><ele>59.714285714285715</ele><time>2026-05-02T10:18:32Z</time></trkpt><trkpt lat="41.96324223353388" lon="3.0216840977867836"><ele>60.57142857142857</ele><time>2026-05-02T10:18:33Z</time></trkpt><trkpt lat="41.96318316214325" lon="3.0216465382102227"><ele>61.42857142857143</ele><time>2026-05-02T10:18:34Z</time></trkpt><trkpt lat="41.963124368999736" lon="3.021611667114856"><ele>62.28571428571428</ele><time>2026-05-02T10:18:35Z</time></trkpt><trkpt lat="41.96307153155707" lon="3.0215607165731746"><ele>63.14285714285714</ele><time>2026-05-02T10:18:36Z</time></trkpt><trkpt lat="41.96300476677269" lon="3.0215446724377224"><ele>64.0</ele><time>2026-05-02T10:18:37Z</time></trkpt><trkpt lat="41.96293879889799" lon="3.0215278172380597"><ele>63.857142857142854</ele><time>2026-05-02T10:18:38Z</time></trkpt><trkpt lat="41.96287102930923" lon="3.0215085965479327"><ele>63.71428571428571</ele><time>2026-05-02T10:18:39Z</time></trkpt><trkpt lat="41.962804067862606" lon="3.021489605080907"><ele>63.57142857142857</ele><time>2026-05-02T10:18:40Z</time></trkpt><trkpt lat="41.9627389664555" lon="3.021462451471154"><ele>63.42857142857143</ele><time>2026-05-02T10:18:41Z</time></trkpt><trkpt lat="41.96267452716345" lon="3.0214304954406455"><ele>63.285714285714285</ele><time>2026-05-02T10:18:42Z</time></trkpt><trkpt lat="41.962603743799406" lon="3.021409871973852"><ele>63.14285714285714</ele><time>2026-05-02T10:18:43Z</time></trkpt><trkpt lat="41.962537367905085" lon="3.021369500991205"><ele>63.0</ele><time>2026-05-02T10:18:44Z</time></trkpt><trkpt lat="41.96247231721609" lon="3.021328290447249"><ele>63.0</ele><time>2026-05-02T10:18:45Z</time></trkpt><trkpt lat="41.96240530575169" lon="3.0212827863317635"><ele>63.0</ele><time>2026-05-02T10:18:46Z</time></trkpt><trkpt lat="41.96233834002422" lon="3.0212354729133195"><ele>63.0</ele><time>2026-05-02T10:18:47Z</time></trkpt><trkpt lat="41.962268565231064" lon="3.021185877216507"><ele>63.0</ele><time>2026-05-02T10:18:48Z</time></trkpt><trkpt lat="41.962206985409104" lon="3.021116465988406"><ele>63.0</ele><time>2026-05-02T10:18:49Z</time></trkpt><trkpt lat="41.96213546707892" lon="3.0210574817510976"><ele>63.0</ele><time>2026-05-02T10:18:50Z</time></trkpt><trkpt lat="41.962060285988954" lon="3.0210026656987443"><ele>63.0</ele><time>2026-05-02T10:18:51Z</time></trkpt><trkpt lat="41.96198451880533" lon="3.0209517002760995"><ele>63.0</ele><time>2026-05-02T10:18:52Z</time></trkpt><trkpt lat="41.96190483070528" lon="3.0209008000540454"><ele>63.0</ele><time>2026-05-02T10:18:53Z</time></trkpt><trkpt lat="41.96182469271173" lon="3.020850173110139"><ele>63.0</ele><time>2026-05-02T10:18:54Z</time></trkpt><trkpt lat="41.96174344715016" lon="3.0207988465656754"><ele>63.0</ele><time>2026-05-02T10:18:55Z</time></trkpt><trkpt lat="41.96166164481885" lon="3.0207471682681977"><ele>63.0</ele><time>2026-05-02T10:18:56Z</time></trkpt><trkpt lat="41.96157953038099" lon="3.0206945156879996"><ele>62.0</ele><time>2026-05-02T10:18:57Z</time></trkpt><trkpt lat="41.96149781634997" lon="3.020638166648881"><ele>61.0</ele><time>2026-05-02T10:18:58Z</time></trkpt><trkpt lat="41.96141643680288" lon="3.0205804428980296"><ele>60.0</ele><time>2026-05-02T10:18:59Z</time></trkpt><trkpt lat="41.96133695842768" lon="3.0205175788973713"><ele>59.0</ele><time>2026-05-02T10:19:00Z</time></trkpt><trkpt lat="41.96126193085238" lon="3.020442816504477"><ele>58.0</ele><time>2026-05-02T10:19:01Z</time></trkpt><trkpt lat="41.96119071299985" lon="3.020362365124847"><ele>58.0</ele><time>2026-05-02T10:19:02Z</time></trkpt><trkpt lat="41.96111171551399" lon="3.02029193513013"><ele>58.0</ele><time>2026-05-02T10:19:03Z</time></trkpt><trkpt lat="41.96104550604944" lon="3.020206546751359"><ele>58.0</ele><time>2026-05-02T10:19:04Z</time></trkpt><trkpt lat="41.96097967802148" lon="3.0201210500695748"><ele>58.0</ele><time>2026-05-02T10:19:05Z</time></trkpt><trkpt lat="41.960918891697936" lon="3.020033952915995"><ele>58.0</ele><time>2026-05-02T10:19:06Z</time></trkpt><trkpt lat="41.96085283934422" lon="3.0199502787891346"><ele>57.99999999999999</ele><time>2026-05-02T10:19:07Z</time></trkpt><trkpt lat="41.96078245882504" lon="3.019880822777522"><ele>58.0</ele><time>2026-05-02T10:19:08Z</time></trkpt><trkpt lat="41.96072134522867" lon="3.019796882800226"><ele>58.0</ele><time>2026-05-02T10:19:09Z</time></trkpt><trkpt lat="41.960644256519615" lon="3.019736718111678"><ele>58.0</ele><time>2026-05-02T10:19:10Z</time></trkpt><trkpt lat="41.96056648026438" lon="3.0196820839619045"><ele>57.99999999999999</ele><time>2026-05-02T10:19:11Z</time></trkpt><trkpt lat="41.96048752666687" lon="3.0196315424422067"><ele>58.0</ele><time>2026-05-02T10:19:12Z</time></trkpt><trkpt lat="41.9604084672051" lon="3.01958278565719"><ele>57.99999999999999</ele><time>2026-05-02T10:19:13Z</time></trkpt><trkpt lat="41.96033545613016" lon="3.0195375360444165"><ele>58.0</ele><time>2026-05-02T10:19:14Z</time></trkpt><trkpt lat="41.96026131532488" lon="3.0194905867863917"><ele>58.0</ele><time>2026-05-02T10:19:15Z</time></trkpt><trkpt lat="41.960188798531966" lon="3.0194446659402856"><ele>58.0</ele><time>2026-05-02T10:19:16Z</time></trkpt><trkpt lat="41.960112216138036" lon="3.019396170026461"><ele>57.99999999999999</ele><time>2026-05-02T10:19:17Z</time></trkpt><trkpt lat="41.960038048337104" lon="3.019345205527199"><ele>58.0</ele><time>2026-05-02T10:19:18Z</time></trkpt><trkpt lat="41.95996534071125" lon="3.019291724878228"><ele>57.49999999999999</ele><time>2026-05-02T10:19:19Z</time></trkpt><trkpt lat="41.9598956119261" lon="3.019237013818325"><ele>57.0</ele><time>2026-05-02T10:19:20Z</time></trkpt><trkpt lat="41.959829331981055" lon="3.019177475244004"><ele>56.5</ele><time>2026-05-02T10:19:21Z</time></trkpt><trkpt lat="41.95976435368213" lon="3.019109747192614"><ele>56.0</ele><time>2026-05-02T10:19:22Z</time></trkpt><trkpt lat="41.95969137152036" lon="3.0190520203969475"><ele>55.49999999999999</ele><time>2026-05-02T10:19:23Z</time></trkpt><trkpt lat="41.95963165405373" lon="3.018973032558611"><ele>55.0</ele><time>2026-05-02T10:19:24Z</time></trkpt><trkpt lat="41.95957412230396" lon="3.0188908813050976"><ele>54.83333333333333</ele><time>2026-05-02T10:19:25Z</time></trkpt><trkpt lat="41.959516500249755" lon="3.0188062584289903"><ele>54.666666666666664</ele><time>2026-05-02T10:19:26Z</time></trkpt><trkpt lat="41.9594569576776" lon="3.018726236164539"><ele>54.5</ele><time>2026-05-02T10:19:27Z</time></trkpt><trkpt lat="41.95939563920051" lon="3.018647754577143"><ele>54.33333333333333</ele><time>2026-05-02T10:19:28Z</time></trkpt><trkpt lat="41.95933640823171" lon="3.0185647840003376"><ele>54.166666666666664</ele><time>2026-05-02T10:19:29Z</time></trkpt><trkpt lat="41.959278174115425" lon="3.0184824943893775"><ele>54.0</ele><time>2026-05-02T10:19:30Z</time></trkpt><trkpt lat="41.95922320294886" lon="3.018400332735051"><ele>53.57142857142857</ele><time>2026-05-02T10:19:31Z</time></trkpt><trkpt lat="41.959166867613625" lon="3.018325070624895"><ele>53.14285714285714</ele><time>2026-05-02T10:19:32Z</time></trkpt><trkpt lat="41.95910907555108" lon="3.0182558668257258"><ele>52.714285714285715</ele><time>2026-05-02T10:19:33Z</time></trkpt><trkpt lat="41.95906460550715" lon="3.0181766517232944"><ele>52.285714285714285</ele><time>2026-05-02T10:19:34Z</time></trkpt><trkpt lat="41.959008809277066" lon="3.01812074074644"><ele>51.85714285714286</ele><time>2026-05-02T10:19:35Z</time></trkpt><trkpt lat="41.95895335277001" lon="3.0180792995556596"><ele>51.42857142857143</ele><time>2026-05-02T10:19:36Z</time></trkpt><trkpt lat="41.9589245103452" lon="3.017999089392595"><ele>51.0</ele><time>2026-05-02T10:19:37Z</time></trkpt><trkpt lat="41.95892482836787" lon="3.0178321851171552"><ele>51.0</ele><time>2026-05-02T10:19:39Z</time></trkpt><trkpt lat="41.958926164228686" lon="3.017745258889841"><ele>51.0</ele><time>2026-05-02T10:19:40Z</time></trkpt><trkpt lat="41.958937436066634" lon="3.0176602372364747"><ele>51.0</ele><time>2026-05-02T10:19:41Z</time></trkpt><trkpt lat="41.958967809737466" lon="3.0175283877523698"><ele>51.0</ele><time>2026-05-02T10:19:43Z</time></trkpt><trkpt lat="41.958928657572294" lon="3.0173968928886103"><ele>51.0</ele><time>2026-05-02T10:19:46Z</time></trkpt><trkpt lat="41.958828754284674" lon="3.0173636647989253"><ele>51.0</ele><time>2026-05-02T10:19:48Z</time></trkpt><trkpt lat="41.958713247100455" lon="3.017332072357924"><ele>51.714285714285715</ele><time>2026-05-02T10:19:49.999Z</time></trkpt><trkpt lat="41.958592817184396" lon="3.0173041856266134"><ele>52.42857142857143</ele><time>2026-05-02T10:19:51.999Z</time></trkpt><trkpt lat="41.95852622693364" lon="3.0172967951371046"><ele>53.14285714285714</ele><time>2026-05-02T10:19:52.999Z</time></trkpt><trkpt lat="41.95847875347695" lon="3.0172384492135316"><ele>53.85714285714286</ele><time>2026-05-02T10:19:53.999Z</time></trkpt><trkpt lat="41.958422271704116" lon="3.01719265594409"><ele>54.57142857142857</ele><time>2026-05-02T10:19:54.999Z</time></trkpt><trkpt lat="41.95837453112802" lon="3.017137143372588"><ele>55.285714285714285</ele><time>2026-05-02T10:19:55.999Z</time></trkpt><trkpt lat="41.95832523059009" lon="3.017083622231598"><ele>56.0</ele><time>2026-05-02T10:19:56.999Z</time></trkpt><trkpt lat="41.95822661043231" lon="3.016983797275501"><ele>56.0</ele><time>2026-05-02T10:19:58.999Z</time></trkpt><trkpt lat="41.95813189984594" lon="3.016887929617371"><ele>55.99999999999999</ele><time>2026-05-02T10:20:00.999Z</time></trkpt><trkpt lat="41.95808129906075" lon="3.0168367106269414"><ele>55.99999999999999</ele><time>2026-05-02T10:20:01.999Z</time></trkpt><trkpt lat="41.95798377867652" lon="3.0167374024554405"><ele>56.0</ele><time>2026-05-02T10:20:03.999Z</time></trkpt><trkpt lat="41.95793299319452" lon="3.0166854933326874"><ele>56.0</ele><time>2026-05-02T10:20:04.999Z</time></trkpt><trkpt lat="41.95783830387083" lon="3.0165887090051124"><ele>56.25</ele><time>2026-05-02T10:20:06.999Z</time></trkpt><trkpt lat="41.9577400324151" lon="3.0164882632643812"><ele>56.5</ele><time>2026-05-02T10:20:08.999Z</time></trkpt><trkpt lat="41.957643564901396" lon="3.0163906532292426"><ele>56.75</ele><time>2026-05-02T10:20:10.999Z</time></trkpt><trkpt lat="41.95754679045726" lon="3.0162945402748154"><ele>57.0</ele><time>2026-05-02T10:20:12.999Z</time></trkpt><trkpt lat="41.957447246136745" lon="3.0161956764016593"><ele>57.0</ele><time>2026-05-02T10:20:14.999Z</time></trkpt><trkpt lat="41.9573535286962" lon="3.0161025995885526"><ele>57.0</ele><time>2026-05-02T10:20:16.999Z</time></trkpt><trkpt lat="41.957260326377714" lon="3.0160048177050647"><ele>57.0</ele><time>2026-05-02T10:20:18.999Z</time></trkpt><trkpt lat="41.95716232197456" lon="3.0159055771323366"><ele>57.0</ele><time>2026-05-02T10:20:20.999Z</time></trkpt><trkpt lat="41.957062183420945" lon="3.015806312470638"><ele>58.0</ele><time>2026-05-02T10:20:22.999Z</time></trkpt><trkpt lat="41.95696871091305" lon="3.015704413138571"><ele>59.0</ele><time>2026-05-02T10:20:24.999Z</time></trkpt><trkpt lat="41.95688698657488" lon="3.0155914919069087"><ele>60.0</ele><time>2026-05-02T10:20:26.999Z</time></trkpt><trkpt lat="41.95679886603012" lon="3.015484090625739"><ele>61.0</ele><time>2026-05-02T10:20:28.999Z</time></trkpt><trkpt lat="41.956755634858624" lon="3.01542084046796"><ele>62.0</ele><time>2026-05-02T10:20:29.999Z</time></trkpt><trkpt lat="41.9567139082336" lon="3.015356358007946"><ele>62.0</ele><time>2026-05-02T10:20:30.999Z</time></trkpt><trkpt lat="41.95667411409646" lon="3.015288054029145"><ele>62.0</ele><time>2026-05-02T10:20:31.999Z</time></trkpt><trkpt lat="41.95663010634762" lon="3.0152243989700525"><ele>62.0</ele><time>2026-05-02T10:20:32.999Z</time></trkpt><trkpt lat="41.9565569760006" lon="3.015100045238855"><ele>62.0</ele><time>2026-05-02T10:20:34.999Z</time></trkpt><trkpt lat="41.95649551163984" lon="3.014970021464587"><ele>62.0</ele><time>2026-05-02T10:20:37Z</time></trkpt><trkpt lat="41.95643519196149" lon="3.014843340117482"><ele>62.0</ele><time>2026-05-02T10:20:39Z</time></trkpt><trkpt lat="41.95628154164481" lon="3.0148453671344737"><ele>62.0</ele><time>2026-05-02T10:20:42Z</time></trkpt><trkpt lat="41.95617866153747" lon="3.0149486283865077"><ele>62.0</ele><time>2026-05-02T10:20:44Z</time></trkpt><trkpt lat="41.95607855530478" lon="3.01504910547399"><ele>62.0</ele><time>2026-05-02T10:20:46Z</time></trkpt><trkpt lat="41.95598044827271" lon="3.0151475759622604"><ele>62.2</ele><time>2026-05-02T10:20:48Z</time></trkpt><trkpt lat="41.95589488598057" lon="3.015227805636045"><ele>62.400000000000006</ele><time>2026-05-02T10:20:50Z</time></trkpt><trkpt lat="41.95582554657847" lon="3.015289906488965"><ele>62.599999999999994</ele><time>2026-05-02T10:20:52Z</time></trkpt><trkpt lat="41.9557419934848" lon="3.015364737192365"><ele>62.8</ele><time>2026-05-02T10:20:54Z</time></trkpt><trkpt lat="41.95566035548783" lon="3.015417127266328"><ele>63.0</ele><time>2026-05-02T10:20:56Z</time></trkpt><trkpt lat="41.95585983247632" lon="3.015656492482539"><ele>63.0</ele><time>2026-05-02T10:20:57Z</time></trkpt><trkpt lat="41.955882965571455" lon="3.0157882898181994"><ele>63.0</ele><time>2026-05-02T10:20:59Z</time></trkpt><trkpt lat="41.95590472250664" lon="3.0159403038887556"><ele>63.0</ele><time>2026-05-02T10:21:01Z</time></trkpt><trkpt lat="41.95562122688003" lon="3.016280025027481"><ele>62.0</ele><time>2026-05-02T10:21:03Z</time></trkpt><trkpt lat="41.95559774634023" lon="3.0163699704399822"><ele>61.0</ele><time>2026-05-02T10:21:04Z</time></trkpt><trkpt lat="41.95557618206857" lon="3.016470162441959"><ele>60.0</ele><time>2026-05-02T10:21:05Z</time></trkpt><trkpt lat="41.95555253368703" lon="3.0165683345394503"><ele>59.0</ele><time>2026-05-02T10:21:06Z</time></trkpt><trkpt lat="41.955532928372" lon="3.0166686013632678"><ele>58.0</ele><time>2026-05-02T10:21:07Z</time></trkpt><trkpt lat="41.955514076764764" lon="3.016766264534601"><ele>57.0</ele><time>2026-05-02T10:21:08Z</time></trkpt><trkpt lat="41.95548652979893" lon="3.016862600169257"><ele>56.666666666666664</ele><time>2026-05-02T10:21:09Z</time></trkpt><trkpt lat="41.95544788173668" lon="3.0169500739097166"><ele>56.33333333333333</ele><time>2026-05-02T10:21:10Z</time></trkpt><trkpt lat="41.955405097112944" lon="3.017035996505717"><ele>56.0</ele><time>2026-05-02T10:21:11Z</time></trkpt><trkpt lat="41.95536704781885" lon="3.017126445939747"><ele>55.666666666666664</ele><time>2026-05-02T10:21:12Z</time></trkpt><trkpt lat="41.955336152605966" lon="3.017219854363286"><ele>55.33333333333333</ele><time>2026-05-02T10:21:13Z</time></trkpt><trkpt lat="41.95531604334091" lon="3.0173183502094885"><ele>55.0</ele><time>2026-05-02T10:21:14Z</time></trkpt><trkpt lat="41.95530680536275" lon="3.017424338388617"><ele>54.4</ele><time>2026-05-02T10:21:15Z</time></trkpt><trkpt lat="41.9552898822883" lon="3.0175247860893606"><ele>53.8</ele><time>2026-05-02T10:21:16Z</time></trkpt><trkpt lat="41.95527910029672" lon="3.017681459296581"><ele>53.2</ele><time>2026-05-02T10:21:18Z</time></trkpt><trkpt lat="41.95524978949575" lon="3.01779758126511"><ele>52.6</ele><time>2026-05-02T10:21:20Z</time></trkpt><trkpt lat="41.95514919629702" lon="3.0178531503402932"><ele>52.0</ele><time>2026-05-02T10:21:22Z</time></trkpt><trkpt lat="41.95504488945074" lon="3.017908580308134"><ele>51.49999999999999</ele><time>2026-05-02T10:21:24Z</time></trkpt><trkpt lat="41.954943611660724" lon="3.0180315674371676"><ele>51.0</ele><time>2026-05-02T10:21:26Z</time></trkpt><trkpt lat="41.95490180357022" lon="3.018104056706522"><ele>50.5</ele><time>2026-05-02T10:21:27Z</time></trkpt><trkpt lat="41.95485812126111" lon="3.0181792904125877"><ele>50.0</ele><time>2026-05-02T10:21:28Z</time></trkpt><trkpt lat="41.95482331777841" lon="3.018252840581869"><ele>49.49999999999999</ele><time>2026-05-02T10:21:29Z</time></trkpt><trkpt lat="41.954787935954265" lon="3.018336329935375"><ele>49.0</ele><time>2026-05-02T10:21:30Z</time></trkpt><trkpt lat="41.954760800383454" lon="3.0184193275329725"><ele>48.49999999999999</ele><time>2026-05-02T10:21:31Z</time></trkpt><trkpt lat="41.954741830222396" lon="3.0185101834990813"><ele>48.0</ele><time>2026-05-02T10:21:32Z</time></trkpt><trkpt lat="41.95473027767664" lon="3.0186066804956746"><ele>47.5</ele><time>2026-05-02T10:21:33Z</time></trkpt><trkpt lat="41.95471792421282" lon="3.018701984896829"><ele>47.0</ele><time>2026-05-02T10:21:34Z</time></trkpt><trkpt lat="41.954708925967104" lon="3.018790121239202"><ele>46.5</ele><time>2026-05-02T10:21:35Z</time></trkpt><trkpt lat="41.95468752154671" lon="3.0189269560021756"><ele>46.0</ele><time>2026-05-02T10:21:37Z</time></trkpt><trkpt lat="41.954625958105765" lon="3.01899599133514"><ele>46.0</ele><time>2026-05-02T10:21:40Z</time></trkpt><trkpt lat="41.95457067459239" lon="3.0189340023844102"><ele>46.0</ele><time>2026-05-02T10:21:42Z</time></trkpt><trkpt lat="41.95452603645727" lon="3.018829460332608"><ele>46.0</ele><time>2026-05-02T10:21:44Z</time></trkpt><trkpt lat="41.95444070788746" lon="3.01874382039989"><ele>46.0</ele><time>2026-05-02T10:21:46Z</time></trkpt><trkpt lat="41.95433750992953" lon="3.0186615238516947"><ele>46.0</ele><time>2026-05-02T10:21:48Z</time></trkpt><trkpt lat="41.954237898674016" lon="3.0185700618893017"><ele>45.8</ele><time>2026-05-02T10:21:50Z</time></trkpt><trkpt lat="41.9541896682905" lon="3.018511512206274"><ele>45.599999999999994</ele><time>2026-05-02T10:21:51Z</time></trkpt><trkpt lat="41.95410981197446" lon="3.0183848841628746"><ele>45.4</ele><time>2026-05-02T10:21:52.999Z</time></trkpt><trkpt lat="41.95405058943643" lon="3.018241675771586"><ele>45.2</ele><time>2026-05-02T10:21:54.999Z</time></trkpt><trkpt lat="41.95399001551986" lon="3.0180977286149164"><ele>45.0</ele><time>2026-05-02T10:21:56.999Z</time></trkpt><trkpt lat="41.95393873485099" lon="3.017945213827122"><ele>45.0</ele><time>2026-05-02T10:21:58.999Z</time></trkpt><trkpt lat="41.95388414474354" lon="3.0178094874496133"><ele>45.0</ele><time>2026-05-02T10:22:00.999Z</time></trkpt><trkpt lat="41.95384672423841" lon="3.0176642243395726"><ele>45.0</ele><time>2026-05-02T10:22:02.999Z</time></trkpt><trkpt lat="41.95381921901977" lon="3.017504522440412"><ele>45.0</ele><time>2026-05-02T10:22:04.999Z</time></trkpt><trkpt lat="41.95380864764019" lon="3.0174210073028545"><ele>45.0</ele><time>2026-05-02T10:22:05.999Z</time></trkpt><trkpt lat="41.95378664372928" lon="3.0172584690531297"><ele>45.0</ele><time>2026-05-02T10:22:07.999Z</time></trkpt><trkpt lat="41.953757449352466" lon="3.0170982562702604"><ele>45.0</ele><time>2026-05-02T10:22:09.999Z</time></trkpt><trkpt lat="41.953726506773094" lon="3.0169390624010024"><ele>45.0</ele><time>2026-05-02T10:22:11.999Z</time></trkpt><trkpt lat="41.953685934021394" lon="3.016788280543096"><ele>45.0</ele><time>2026-05-02T10:22:13.999Z</time></trkpt><trkpt lat="41.95364139997062" lon="3.0166577587606014"><ele>45.2</ele><time>2026-05-02T10:22:15.999Z</time></trkpt><trkpt lat="41.953600866184495" lon="3.0165306469521656"><ele>45.4</ele><time>2026-05-02T10:22:17.999Z</time></trkpt><trkpt lat="41.95355410575798" lon="3.016395888348317"><ele>45.599999999999994</ele><time>2026-05-02T10:22:19.999Z</time></trkpt><trkpt lat="41.9535024527872" lon="3.0162555106957694"><ele>45.8</ele><time>2026-05-02T10:22:21.999Z</time></trkpt><trkpt lat="41.95346601405426" lon="3.0161027085983574"><ele>46.0</ele><time>2026-05-02T10:22:23.999Z</time></trkpt><trkpt lat="41.95343603692441" lon="3.0159416244337414"><ele>46.75</ele><time>2026-05-02T10:22:25.999Z</time></trkpt><trkpt lat="41.95340513115806" lon="3.015786722505806"><ele>47.5</ele><time>2026-05-02T10:22:27.999Z</time></trkpt><trkpt lat="41.95348253001734" lon="3.0156502018538243"><ele>48.25</ele><time>2026-05-02T10:22:28.999Z</time></trkpt><trkpt lat="41.95344634040652" lon="3.0155162771490724"><ele>49.0</ele><time>2026-05-02T10:22:30.999Z</time></trkpt><trkpt lat="41.95342674042525" lon="3.015349397625738"><ele>49.0</ele><time>2026-05-02T10:22:32.999Z</time></trkpt><trkpt lat="41.95341748844138" lon="3.015263045801994"><ele>49.0</ele><time>2026-05-02T10:22:33.999Z</time></trkpt><trkpt lat="41.953406308516236" lon="3.015101794012109"><ele>49.0</ele><time>2026-05-02T10:22:35.999Z</time></trkpt><trkpt lat="41.95340709514024" lon="3.014938022116888"><ele>49.0</ele><time>2026-05-02T10:22:37.999Z</time></trkpt><trkpt lat="41.953371073605275" lon="3.0147706202170164"><ele>49.0</ele><time>2026-05-02T10:22:39.999Z</time></trkpt><trkpt lat="41.95338172477046" lon="3.0146863899036362"><ele>49.285714285714285</ele><time>2026-05-02T10:22:40.999Z</time></trkpt><trkpt lat="41.953389845953595" lon="3.014599130084679"><ele>49.57142857142857</ele><time>2026-05-02T10:22:42Z</time></trkpt><trkpt lat="41.95342067845391" lon="3.0145175340924144"><ele>49.85714285714286</ele><time>2026-05-02T10:22:43Z</time></trkpt><trkpt lat="41.953420734346835" lon="3.014429249413961"><ele>50.14285714285714</ele><time>2026-05-02T10:22:44Z</time></trkpt><trkpt lat="41.953443058785936" lon="3.0143449168343697"><ele>50.42857142857143</ele><time>2026-05-02T10:22:45Z</time></trkpt><trkpt lat="41.95345656787865" lon="3.014257231367937"><ele>50.714285714285715</ele><time>2026-05-02T10:22:46Z</time></trkpt><trkpt lat="41.95344226124857" lon="3.014104624480638"><ele>51.0</ele><time>2026-05-02T10:22:48Z</time></trkpt><trkpt lat="41.95341651034248" lon="3.013950925061889"><ele>51.0</ele><time>2026-05-02T10:22:50Z</time></trkpt><trkpt lat="41.953391999503495" lon="3.0137983880572237"><ele>51.0</ele><time>2026-05-02T10:22:52Z</time></trkpt><trkpt lat="41.953364929969275" lon="3.01366903663921"><ele>51.0</ele><time>2026-05-02T10:22:54Z</time></trkpt><trkpt lat="41.953328175613514" lon="3.013567144927829"><ele>51.0</ele><time>2026-05-02T10:22:56Z</time></trkpt><trkpt lat="41.95327713829806" lon="3.013453620429166"><ele>51.0</ele><time>2026-05-02T10:22:58Z</time></trkpt><trkpt lat="41.95321581644358" lon="3.0133294201272016"><ele>51.4</ele><time>2026-05-02T10:23:00Z</time></trkpt><trkpt lat="41.9531556678948" lon="3.013220085056154"><ele>51.8</ele><time>2026-05-02T10:23:02Z</time></trkpt><trkpt lat="41.95309425341543" lon="3.013114434106949"><ele>52.199999999999996</ele><time>2026-05-02T10:23:04Z</time></trkpt><trkpt lat="41.95305928864358" lon="3.0130096152794916"><ele>52.599999999999994</ele><time>2026-05-02T10:23:06Z</time></trkpt><trkpt lat="41.95299333958528" lon="3.012880639253584"><ele>53.0</ele><time>2026-05-02T10:23:08Z</time></trkpt><trkpt lat="41.95292728723655" lon="3.0127581725913344"><ele>53.0</ele><time>2026-05-02T10:23:10Z</time></trkpt><trkpt lat="41.95285768232081" lon="3.012632025341252"><ele>53.0</ele><time>2026-05-02T10:23:12Z</time></trkpt><trkpt lat="41.952782649817436" lon="3.0125177680301904"><ele>53.0</ele><time>2026-05-02T10:23:14Z</time></trkpt><trkpt lat="41.95269341675312" lon="3.0125155370097247"><ele>53.0</ele><time>2026-05-02T10:23:17Z</time></trkpt><trkpt lat="41.952643151672454" lon="3.0126226702769374"><ele>53.0</ele><time>2026-05-02T10:23:19Z</time></trkpt><trkpt lat="41.9525871942442" lon="3.012768157896113"><ele>52.142857142857146</ele><time>2026-05-02T10:23:21Z</time></trkpt><trkpt lat="41.952520832452684" lon="3.012801613970619"><ele>51.285714285714285</ele><time>2026-05-02T10:23:22Z</time></trkpt><trkpt lat="41.95248422936261" lon="3.0128734285239775"><ele>50.42857142857143</ele><time>2026-05-02T10:23:23Z</time></trkpt><trkpt lat="41.95244608727203" lon="3.012949975329995"><ele>49.57142857142857</ele><time>2026-05-02T10:23:24Z</time></trkpt><trkpt lat="41.95240877115233" lon="3.0130254639450627"><ele>48.71428571428571</ele><time>2026-05-02T10:23:25Z</time></trkpt><trkpt lat="41.9523690807566" lon="3.013105755722964"><ele>47.857142857142854</ele><time>2026-05-02T10:23:26Z</time></trkpt><trkpt lat="41.95233085229552" lon="3.0131830900401266"><ele>47.0</ele><time>2026-05-02T10:23:27Z</time></trkpt><trkpt lat="41.952293510422365" lon="3.0132586308065803"><ele>46.857142857142854</ele><time>2026-05-02T10:23:28Z</time></trkpt><trkpt lat="41.952254884042574" lon="3.0133367700321902"><ele>46.71428571428571</ele><time>2026-05-02T10:23:29Z</time></trkpt><trkpt lat="41.95221804972029" lon="3.0134112840411342"><ele>46.57142857142857</ele><time>2026-05-02T10:23:30Z</time></trkpt><trkpt lat="41.9521826317278" lon="3.013482932930998"><ele>46.42857142857143</ele><time>2026-05-02T10:23:31Z</time></trkpt><trkpt lat="41.95214656536771" lon="3.01355589341039"><ele>46.285714285714285</ele><time>2026-05-02T10:23:32Z</time></trkpt><trkpt lat="41.952109462550276" lon="3.0136309505957843"><ele>46.142857142857146</ele><time>2026-05-02T10:23:33Z</time></trkpt><trkpt lat="41.95206952496839" lon="3.0137117423588164"><ele>46.0</ele><time>2026-05-02T10:23:34Z</time></trkpt><trkpt lat="41.95202737507244" lon="3.013797009544621"><ele>46.0</ele><time>2026-05-02T10:23:35Z</time></trkpt><trkpt lat="41.9519866847481" lon="3.0138793240389337"><ele>46.0</ele><time>2026-05-02T10:23:36Z</time></trkpt><trkpt lat="41.951945940943226" lon="3.0139617467556654"><ele>46.0</ele><time>2026-05-02T10:23:37Z</time></trkpt><trkpt lat="41.95190655755338" lon="3.0140414173707453"><ele>46.0</ele><time>2026-05-02T10:23:38Z</time></trkpt><trkpt lat="41.951867013823076" lon="3.014123311668415"><ele>46.0</ele><time>2026-05-02T10:23:39Z</time></trkpt><trkpt lat="41.95182749993082" lon="3.014205972445454"><ele>46.0</ele><time>2026-05-02T10:23:40Z</time></trkpt><trkpt lat="41.95178843534134" lon="3.014288620120874"><ele>46.0</ele><time>2026-05-02T10:23:41Z</time></trkpt><trkpt lat="41.951748965614875" lon="3.014375189727037"><ele>45.57142857142858</ele><time>2026-05-02T10:23:42Z</time></trkpt><trkpt lat="41.95171128272893" lon="3.0144578401694995"><ele>45.14285714285714</ele><time>2026-05-02T10:23:43Z</time></trkpt><trkpt lat="41.95167445874887" lon="3.0145380631640593"><ele>44.714285714285715</ele><time>2026-05-02T10:23:44Z</time></trkpt><trkpt lat="41.95163484809084" lon="3.0146232008853353"><ele>44.28571428571429</ele><time>2026-05-02T10:23:45Z</time></trkpt><trkpt lat="41.95159618564947" lon="3.014701620956717"><ele>43.85714285714286</ele><time>2026-05-02T10:23:46Z</time></trkpt><trkpt lat="41.95155428893713" lon="3.0147842123074833"><ele>43.42857142857143</ele><time>2026-05-02T10:23:47Z</time></trkpt><trkpt lat="41.9515130857699" lon="3.0148622769280493"><ele>43.0</ele><time>2026-05-02T10:23:48Z</time></trkpt><trkpt lat="41.95146850307192" lon="3.014944197042647"><ele>42.85714285714286</ele><time>2026-05-02T10:23:49Z</time></trkpt><trkpt lat="41.95142635264878" lon="3.0150216478268717"><ele>42.714285714285715</ele><time>2026-05-02T10:23:50Z</time></trkpt><trkpt lat="41.951383690782784" lon="3.015100038397941"><ele>42.57142857142857</ele><time>2026-05-02T10:23:51Z</time></trkpt><trkpt lat="41.951339073578865" lon="3.0151831198198975"><ele>42.42857142857143</ele><time>2026-05-02T10:23:52Z</time></trkpt><trkpt lat="41.9513260303528" lon="3.0152831853531543"><ele>42.285714285714285</ele><time>2026-05-02T10:23:52.999Z</time></trkpt><trkpt lat="41.95128881417469" lon="3.0153594804133426"><ele>42.142857142857146</ele><time>2026-05-02T10:23:53.999Z</time></trkpt><trkpt lat="41.95125241165327" lon="3.015454483721185"><ele>42.0</ele><time>2026-05-02T10:23:54.999Z</time></trkpt><trkpt lat="41.951209428842596" lon="3.0155327476995337"><ele>42.0</ele><time>2026-05-02T10:23:55.999Z</time></trkpt><trkpt lat="41.95116449269426" lon="3.0156157054366415"><ele>42.0</ele><time>2026-05-02T10:23:56.999Z</time></trkpt><trkpt lat="41.951120360824" lon="3.015698545681049"><ele>42.0</ele><time>2026-05-02T10:23:57.999Z</time></trkpt><trkpt lat="41.95107643958091" lon="3.0157831322094433"><ele>42.0</ele><time>2026-05-02T10:23:58.999Z</time></trkpt><trkpt lat="41.95099458528568" lon="3.015826698072533"><ele>42.0</ele><time>2026-05-02T10:23:59.999Z</time></trkpt><trkpt lat="41.95094676387198" lon="3.0159077149541242"><ele>42.0</ele><time>2026-05-02T10:24:00.999Z</time></trkpt><trkpt lat="41.95090074534443" lon="3.015984829728456"><ele>42.285714285714285</ele><time>2026-05-02T10:24:01.999Z</time></trkpt><trkpt lat="41.95085194925471" lon="3.016060931765276"><ele>42.57142857142857</ele><time>2026-05-02T10:24:02.999Z</time></trkpt><trkpt lat="41.950803392895345" lon="3.0161335071257542"><ele>42.85714285714286</ele><time>2026-05-02T10:24:03.999Z</time></trkpt><trkpt lat="41.9507539477922" lon="3.016206196639746"><ele>43.14285714285714</ele><time>2026-05-02T10:24:04.999Z</time></trkpt><trkpt lat="41.950703957359735" lon="3.0162796878528506"><ele>43.42857142857143</ele><time>2026-05-02T10:24:05.999Z</time></trkpt><trkpt lat="41.95066117207745" lon="3.0163422647008793"><ele>43.714285714285715</ele><time>2026-05-02T10:24:06.999Z</time></trkpt><trkpt lat="41.950616929085065" lon="3.016403473233168"><ele>44.0</ele><time>2026-05-02T10:24:07.999Z</time></trkpt><trkpt lat="41.95057193207856" lon="3.016463597148318"><ele>44.0</ele><time>2026-05-02T10:24:08.999Z</time></trkpt><trkpt lat="41.95049856882104" lon="3.016570280670281"><ele>44.0</ele><time>2026-05-02T10:24:10.999Z</time></trkpt><trkpt lat="41.950408098485575" lon="3.016542014715886"><ele>44.0</ele><time>2026-05-02T10:24:13.999Z</time></trkpt><trkpt lat="41.9503454038768" lon="3.0164368231910683"><ele>44.0</ele><time>2026-05-02T10:24:15.999Z</time></trkpt><trkpt lat="41.95028170932561" lon="3.0163135924147437"><ele>44.0</ele><time>2026-05-02T10:24:17.999Z</time></trkpt><trkpt lat="41.950228947051535" lon="3.0161645946436795"><ele>44.0</ele><time>2026-05-02T10:24:19.999Z</time></trkpt><trkpt lat="41.95015678909879" lon="3.0160269596863953"><ele>44.0</ele><time>2026-05-02T10:24:21.999Z</time></trkpt><trkpt lat="41.95008208717786" lon="3.0159028462200146"><ele>44.0</ele><time>2026-05-02T10:24:23.999Z</time></trkpt><trkpt lat="41.95002061525053" lon="3.0157877944814713"><ele>44.0</ele><time>2026-05-02T10:24:25.999Z</time></trkpt><trkpt lat="41.949924454394974" lon="3.015742433246251"><ele>43.800000000000004</ele><time>2026-05-02T10:24:27.999Z</time></trkpt><trkpt lat="41.949843699766944" lon="3.0157414723021625"><ele>43.6</ele><time>2026-05-02T10:24:29.999Z</time></trkpt><trkpt lat="41.94976933848731" lon="3.0157927719977904"><ele>43.4</ele><time>2026-05-02T10:24:31.999Z</time></trkpt><trkpt lat="41.94969274950971" lon="3.0157940712733415"><ele>43.2</ele><time>2026-05-02T10:24:33.999Z</time></trkpt><trkpt lat="41.949578658415106" lon="3.0157757045884157"><ele>43.0</ele><time>2026-05-02T10:24:35.999Z</time></trkpt><trkpt lat="41.94948871781144" lon="3.0157182124472017"><ele>43.0</ele><time>2026-05-02T10:24:37.999Z</time></trkpt><trkpt lat="41.94936403905716" lon="3.0156606769073524"><ele>43.0</ele><time>2026-05-02T10:24:39.999Z</time></trkpt><trkpt lat="41.94926810610833" lon="3.015579869164547"><ele>43.0</ele><time>2026-05-02T10:24:41.999Z</time></trkpt><trkpt lat="41.94916810885541" lon="3.0155119765828564"><ele>43.0</ele><time>2026-05-02T10:24:43.999Z</time></trkpt><trkpt lat="41.94907017608896" lon="3.0154272562361233"><ele>43.0</ele><time>2026-05-02T10:24:45.999Z</time></trkpt><trkpt lat="41.94896273045611" lon="3.0153604611025204"><ele>43.0</ele><time>2026-05-02T10:24:48Z</time></trkpt><trkpt lat="41.94890405832349" lon="3.015327240063268"><ele>43.0</ele><time>2026-05-02T10:24:49Z</time></trkpt><trkpt lat="41.94884371523902" lon="3.0152947269364128"><ele>43.0</ele><time>2026-05-02T10:24:50Z</time></trkpt><trkpt lat="41.948761318471774" lon="3.0152217991811567"><ele>43.0</ele><time>2026-05-02T10:24:52Z</time></trkpt><trkpt lat="41.94867482519376" lon="3.015149152511194"><ele>43.0</ele><time>2026-05-02T10:24:54Z</time></trkpt><trkpt lat="41.94857598759491" lon="3.0150586171951628"><ele>43.0</ele><time>2026-05-02T10:24:56Z</time></trkpt><trkpt lat="41.94853098748807" lon="3.0149971923189303"><ele>43.0</ele><time>2026-05-02T10:24:57Z</time></trkpt><trkpt lat="41.94847949767878" lon="3.0149391521157627"><ele>43.0</ele><time>2026-05-02T10:24:58Z</time></trkpt><trkpt lat="41.94839138735178" lon="3.0148370432738734"><ele>43.0</ele><time>2026-05-02T10:25:00Z</time></trkpt><trkpt lat="41.948303598861294" lon="3.014722293021101"><ele>43.0</ele><time>2026-05-02T10:25:02Z</time></trkpt><trkpt lat="41.94822301576105" lon="3.014603382026031"><ele>43.5</ele><time>2026-05-02T10:25:04Z</time></trkpt><trkpt lat="41.94818231121725" lon="3.014537654544701"><ele>44.0</ele><time>2026-05-02T10:25:05Z</time></trkpt><trkpt lat="41.94813810114995" lon="3.0144680032111273"><ele>44.5</ele><time>2026-05-02T10:25:06Z</time></trkpt><trkpt lat="41.94806022217423" lon="3.0143356986120367"><ele>45.0</ele><time>2026-05-02T10:25:08Z</time></trkpt><trkpt lat="41.947992357359865" lon="3.014210138607882"><ele>45.5</ele><time>2026-05-02T10:25:10Z</time></trkpt><trkpt lat="41.947951977984836" lon="3.0141415847485082"><ele>46.0</ele><time>2026-05-02T10:25:11Z</time></trkpt><trkpt lat="41.947870507479756" lon="3.0140440933161603"><ele>46.0</ele><time>2026-05-02T10:25:13Z</time></trkpt><trkpt lat="41.94775188855426" lon="3.0139789139468514"><ele>46.0</ele><time>2026-05-02T10:25:15Z</time></trkpt><trkpt lat="41.94763854560716" lon="3.01397470568154"><ele>46.0</ele><time>2026-05-02T10:25:17Z</time></trkpt><trkpt lat="41.94753204292748" lon="3.013890441273428"><ele>46.0</ele><time>2026-05-02T10:25:19Z</time></trkpt><trkpt lat="41.94746943691478" lon="3.013796750768504"><ele>46.199999999999996</ele><time>2026-05-02T10:25:21Z</time></trkpt><trkpt lat="41.947422173941526" lon="3.013662976227946"><ele>46.4</ele><time>2026-05-02T10:25:23Z</time></trkpt><trkpt lat="41.94737832189097" lon="3.013531880999268"><ele>46.6</ele><time>2026-05-02T10:25:25Z</time></trkpt><trkpt lat="41.947326986563766" lon="3.0134156875811438"><ele>46.8</ele><time>2026-05-02T10:25:27Z</time></trkpt><trkpt lat="41.94730416867795" lon="3.0132803692580663"><ele>47.0</ele><time>2026-05-02T10:25:29Z</time></trkpt><trkpt lat="41.94721750917642" lon="3.013155132976929"><ele>47.0</ele><time>2026-05-02T10:25:31Z</time></trkpt><trkpt lat="41.947159624851906" lon="3.0131091868673368"><ele>47.0</ele><time>2026-05-02T10:25:32Z</time></trkpt><trkpt lat="41.94705086292463" lon="3.013066880135561"><ele>47.0</ele><time>2026-05-02T10:25:34Z</time></trkpt><trkpt lat="41.946927073529196" lon="3.013054988970576"><ele>47.0</ele><time>2026-05-02T10:25:36Z</time></trkpt><trkpt lat="41.94680497576324" lon="3.0130432003756966"><ele>47.0</ele><time>2026-05-02T10:25:38Z</time></trkpt><trkpt lat="41.9467397696852" lon="3.0130461965042246"><ele>46.83333333333333</ele><time>2026-05-02T10:25:39Z</time></trkpt><trkpt lat="41.946674043690166" lon="3.013049994557957"><ele>46.666666666666664</ele><time>2026-05-02T10:25:40Z</time></trkpt><trkpt lat="41.946609724742636" lon="3.0130370998367253"><ele>46.5</ele><time>2026-05-02T10:25:41Z</time></trkpt><trkpt lat="41.946508253747055" lon="3.012988566745675"><ele>46.333333333333336</ele><time>2026-05-02T10:25:43Z</time></trkpt><trkpt lat="41.94641805896468" lon="3.012941713436795"><ele>46.16666666666667</ele><time>2026-05-02T10:25:45Z</time></trkpt><trkpt lat="41.94634120458826" lon="3.01291651042763"><ele>46.0</ele><time>2026-05-02T10:25:47Z</time></trkpt><trkpt lat="41.94627317619396" lon="3.012910577433718"><ele>46.0</ele><time>2026-05-02T10:25:48Z</time></trkpt><trkpt lat="41.9462182666441" lon="3.0128608482052046"><ele>46.0</ele><time>2026-05-02T10:25:50Z</time></trkpt><trkpt lat="41.94616522193588" lon="3.012798380140894"><ele>46.0</ele><time>2026-05-02T10:25:56Z</time></trkpt><trkpt lat="41.94611214738623" lon="3.012719752357424"><ele>46.0</ele><time>2026-05-02T10:26:00Z</time></trkpt><trkpt lat="41.94605975313899" lon="3.012665689296885"><ele>46.0</ele><time>2026-05-02T10:26:02.999Z</time></trkpt><trkpt lat="41.945999337255515" lon="3.0126357440854568"><ele>46.0</ele><time>2026-05-02T10:26:10.999Z</time></trkpt><trkpt lat="41.94593682534373" lon="3.01260058886476"><ele>46.0</ele><time>2026-05-02T10:26:14.999Z</time></trkpt><trkpt lat="41.945857853291315" lon="3.0125424333427873"><ele>46.333333333333336</ele><time>2026-05-02T10:26:17.999Z</time></trkpt><trkpt lat="41.94579546493639" lon="3.0124778023038754"><ele>46.66666666666667</ele><time>2026-05-02T10:26:20.999Z</time></trkpt><trkpt lat="41.94572102175319" lon="3.0124313929449955"><ele>47.0</ele><time>2026-05-02T10:26:24.999Z</time></trkpt><trkpt lat="41.94565014633691" lon="3.0123682999565555"><ele>47.333333333333336</ele><time>2026-05-02T10:26:27.999Z</time></trkpt><trkpt lat="41.94560687784901" lon="3.0122858601904303"><ele>47.666666666666664</ele><time>2026-05-02T10:26:29.999Z</time></trkpt><trkpt lat="41.94558091296261" lon="3.012182472940957"><ele>48.0</ele><time>2026-05-02T10:26:32.999Z</time></trkpt><trkpt lat="41.945524599189476" lon="3.0121084264548963"><ele>48.0</ele><time>2026-05-02T10:26:36.999Z</time></trkpt><trkpt lat="41.945468604110715" lon="3.0120364222314713"><ele>48.0</ele><time>2026-05-02T10:26:39.999Z</time></trkpt><trkpt lat="41.94539614470621" lon="3.0119610271145087"><ele>48.0</ele><time>2026-05-02T10:26:41.999Z</time></trkpt><trkpt lat="41.94531300242443" lon="3.011881084346232"><ele>48.0</ele><time>2026-05-02T10:26:43.999Z</time></trkpt><trkpt lat="41.94524026035042" lon="3.011804146263873"><ele>48.0</ele><time>2026-05-02T10:26:45.999Z</time></trkpt><trkpt lat="41.9451664660787" lon="3.0117255425154736"><ele>48.0</ele><time>2026-05-02T10:26:47.999Z</time></trkpt><trkpt lat="41.94510950548108" lon="3.0116327919739825"><ele>48.0</ele><time>2026-05-02T10:26:49.999Z</time></trkpt><trkpt lat="41.94506920630522" lon="3.0115157420420746"><ele>48.0</ele><time>2026-05-02T10:26:51.999Z</time></trkpt><trkpt lat="41.945040595894426" lon="3.0113761064473517"><ele>48.0</ele><time>2026-05-02T10:26:54Z</time></trkpt><trkpt lat="41.94498053322962" lon="3.0112663236260686"><ele>48.0</ele><time>2026-05-02T10:26:56Z</time></trkpt><trkpt lat="41.94490335035339" lon="3.011164005056037"><ele>48.0</ele><time>2026-05-02T10:26:58Z</time></trkpt><trkpt lat="41.94484069248683" lon="3.011075480123805"><ele>48.0</ele><time>2026-05-02T10:27:00Z</time></trkpt><trkpt lat="41.944785926994484" lon="3.011009280900018"><ele>48.0</ele><time>2026-05-02T10:27:02Z</time></trkpt><trkpt lat="41.9447231580501" lon="3.010976976815762"><ele>48.0</ele><time>2026-05-02T10:27:04Z</time></trkpt><trkpt lat="41.94464519501432" lon="3.0108826823798065"><ele>48.0</ele><time>2026-05-02T10:27:05Z</time></trkpt><trkpt lat="41.94457554630164" lon="3.010789843955547"><ele>48.0</ele><time>2026-05-02T10:27:07Z</time></trkpt><trkpt lat="41.94450328831642" lon="3.0107018369353216"><ele>48.0</ele><time>2026-05-02T10:27:09Z</time></trkpt><trkpt lat="41.944464617958495" lon="3.010575189848833"><ele>48.0</ele><time>2026-05-02T10:27:11Z</time></trkpt><trkpt lat="41.944404407880704" lon="3.010467834109466"><ele>48.0</ele><time>2026-05-02T10:27:13Z</time></trkpt><trkpt lat="41.94431702208036" lon="3.010401849291584"><ele>48.0</ele><time>2026-05-02T10:27:15Z</time></trkpt><trkpt lat="41.944239306436245" lon="3.0102864487986616"><ele>48.0</ele><time>2026-05-02T10:27:17Z</time></trkpt><trkpt lat="41.94416136493244" lon="3.0101890722197004"><ele>48.2</ele><time>2026-05-02T10:27:19Z</time></trkpt><trkpt lat="41.9440714162594" lon="3.0100984065309797"><ele>48.4</ele><time>2026-05-02T10:27:21Z</time></trkpt><trkpt lat="41.944005095849725" lon="3.0099773045357843"><ele>48.6</ele><time>2026-05-02T10:27:23Z</time></trkpt><trkpt lat="41.94394518571527" lon="3.0098692392229207"><ele>48.800000000000004</ele><time>2026-05-02T10:27:25Z</time></trkpt><trkpt lat="41.94389791160776" lon="3.0097578175743562"><ele>49.0</ele><time>2026-05-02T10:27:27Z</time></trkpt><trkpt lat="41.9438591404841" lon="3.009640575566237"><ele>49.0</ele><time>2026-05-02T10:27:29Z</time></trkpt><trkpt lat="41.94380106240472" lon="3.0095171523780446"><ele>49.0</ele><time>2026-05-02T10:27:32Z</time></trkpt><trkpt lat="41.94373235159645" lon="3.0093244983731813"><ele>49.0</ele><time>2026-05-02T10:27:35Z</time></trkpt><trkpt lat="41.94369316534505" lon="3.0092359197011938"><ele>49.0</ele><time>2026-05-02T10:27:37Z</time></trkpt><trkpt lat="41.94363411801469" lon="3.009192217239414"><ele>49.0</ele><time>2026-05-02T10:27:39Z</time></trkpt><trkpt lat="41.9435312320225" lon="3.009201627686146"><ele>48.99999999999999</ele><time>2026-05-02T10:27:41Z</time></trkpt><trkpt lat="41.9434013791899" lon="3.009206316744967"><ele>49.0</ele><time>2026-05-02T10:27:43Z</time></trkpt><trkpt lat="41.94333674951673" lon="3.0092117707243333"><ele>49.0</ele><time>2026-05-02T10:27:44Z</time></trkpt><trkpt lat="41.94326645871176" lon="3.00922146981194"><ele>49.0</ele><time>2026-05-02T10:27:45Z</time></trkpt><trkpt lat="41.94318294645225" lon="3.0092368753865117"><ele>48.99999999999999</ele><time>2026-05-02T10:27:46Z</time></trkpt><trkpt lat="41.943103031888995" lon="3.0092541732374927"><ele>49.0</ele><time>2026-05-02T10:27:47Z</time></trkpt><trkpt lat="41.94303494108371" lon="3.0092692082582784"><ele>48.83333333333333</ele><time>2026-05-02T10:27:48Z</time></trkpt><trkpt lat="41.94296808485446" lon="3.0092840024741294"><ele>48.666666666666664</ele><time>2026-05-02T10:27:49Z</time></trkpt><trkpt lat="41.94290268276564" lon="3.0092984907497398"><ele>48.5</ele><time>2026-05-02T10:27:50Z</time></trkpt><trkpt lat="41.942789858849466" lon="3.00932397931065"><ele>48.33333333333333</ele><time>2026-05-02T10:27:52Z</time></trkpt><trkpt lat="41.942721209484496" lon="3.00934150651468"><ele>48.166666666666664</ele><time>2026-05-02T10:27:54Z</time></trkpt><trkpt lat="41.942630096922265" lon="3.009365924563282"><ele>48.0</ele><time>2026-05-02T10:27:57Z</time></trkpt><trkpt lat="41.9425468617588" lon="3.009391225570229"><ele>48.333333333333336</ele><time>2026-05-02T10:28:00Z</time></trkpt><trkpt lat="41.942478892142326" lon="3.0094053695443623"><ele>48.66666666666667</ele><time>2026-05-02T10:28:02Z</time></trkpt><trkpt lat="41.94241000960643" lon="3.0094100340937913"><ele>49.0</ele><time>2026-05-02T10:28:04Z</time></trkpt><trkpt lat="41.9423260961129" lon="3.0094052990402984"><ele>49.333333333333336</ele><time>2026-05-02T10:28:06Z</time></trkpt><trkpt lat="41.94223886229772" lon="3.009419896125886"><ele>49.66666666666667</ele><time>2026-05-02T10:28:08Z</time></trkpt><trkpt lat="41.942156786949205" lon="3.0093313613339805"><ele>50.0</ele><time>2026-05-02T10:28:10Z</time></trkpt><trkpt lat="41.94209274070199" lon="3.0093169364883905"><ele>50.0</ele><time>2026-05-02T10:28:11Z</time></trkpt><trkpt lat="41.94197977039027" lon="3.0092979097544954"><ele>50.0</ele><time>2026-05-02T10:28:13Z</time></trkpt><trkpt lat="41.94190906539237" lon="3.009287422181229"><ele>50.0</ele><time>2026-05-02T10:28:15Z</time></trkpt><trkpt lat="41.94181617835555" lon="3.0092828204006232"><ele>50.0</ele><time>2026-05-02T10:28:17Z</time></trkpt><trkpt lat="41.94172292614515" lon="3.0092672807840715"><ele>50.0</ele><time>2026-05-02T10:28:19Z</time></trkpt><trkpt lat="41.94162241638754" lon="3.0092482215455574"><ele>50.2</ele><time>2026-05-02T10:28:20.999Z</time></trkpt><trkpt lat="41.94153160535211" lon="3.0092341771904736"><ele>50.4</ele><time>2026-05-02T10:28:22.999Z</time></trkpt><trkpt lat="41.941433661826736" lon="3.0092027307685894"><ele>50.599999999999994</ele><time>2026-05-02T10:28:24.999Z</time></trkpt><trkpt lat="41.94132931641945" lon="3.00917909123603"><ele>50.8</ele><time>2026-05-02T10:28:26.999Z</time></trkpt><trkpt lat="41.941226069735464" lon="3.0091614337745085"><ele>51.0</ele><time>2026-05-02T10:28:28.999Z</time></trkpt><trkpt lat="41.941119905882715" lon="3.009149057185039"><ele>51.4</ele><time>2026-05-02T10:28:30.999Z</time></trkpt><trkpt lat="41.94101720082115" lon="3.0091398390737223"><ele>51.8</ele><time>2026-05-02T10:28:32.999Z</time></trkpt><trkpt lat="41.94092831907244" lon="3.0091328125805386"><ele>52.199999999999996</ele><time>2026-05-02T10:28:34.999Z</time></trkpt><trkpt lat="41.94082891258457" lon="3.009121557931203"><ele>52.599999999999994</ele><time>2026-05-02T10:28:36.999Z</time></trkpt><trkpt lat="41.940745907735334" lon="3.009112186419713"><ele>53.0</ele><time>2026-05-02T10:28:38.999Z</time></trkpt><trkpt lat="41.940662575341754" lon="3.0091015733931283"><ele>54.00000000000001</ele><time>2026-05-02T10:28:40.999Z</time></trkpt><trkpt lat="41.940588144851546" lon="3.009088917002657"><ele>55.0</ele><time>2026-05-02T10:28:42.999Z</time></trkpt><trkpt lat="41.940489583070445" lon="3.0090715420023595"><ele>56.0</ele><time>2026-05-02T10:28:46.999Z</time></trkpt><trkpt lat="41.940415948004144" lon="3.0090581804734686"><ele>57.0</ele><time>2026-05-02T10:28:48.999Z</time></trkpt><trkpt lat="41.9403538147167" lon="3.00909080739286"><ele>58.00000000000001</ele><time>2026-05-02T10:28:50.999Z</time></trkpt><trkpt lat="41.94027753101191" lon="3.0090835244421386"><ele>59.0</ele><time>2026-05-02T10:28:53.999Z</time></trkpt><trkpt lat="41.94020315037216" lon="3.0090749708222106"><ele>59.00000000000001</ele><time>2026-05-02T10:28:56.999Z</time></trkpt><trkpt lat="41.94012976529684" lon="3.0090514807064386"><ele>59.0</ele><time>2026-05-02T10:29:00Z</time></trkpt><trkpt lat="41.94005620704563" lon="3.0090165384170158"><ele>59.0</ele><time>2026-05-02T10:29:03Z</time></trkpt><trkpt lat="41.93997578050358" lon="3.009010307061114"><ele>59.0</ele><time>2026-05-02T10:29:06Z</time></trkpt><trkpt lat="41.93989441082267" lon="3.0089950806862316"><ele>59.00000000000001</ele><time>2026-05-02T10:29:09Z</time></trkpt><trkpt lat="41.93982448345536" lon="3.0089793661666335"><ele>59.0</ele><time>2026-05-02T10:29:12Z</time></trkpt><trkpt lat="41.939717546682" lon="3.0089620316044767"><ele>59.00000000000001</ele><time>2026-05-02T10:29:15Z</time></trkpt><trkpt lat="41.939654579172775" lon="3.008955838999604"><ele>59.0</ele><time>2026-05-02T10:29:17Z</time></trkpt><trkpt lat="41.93956445331702" lon="3.008946007143081"><ele>59.0</ele><time>2026-05-02T10:29:20Z</time></trkpt><trkpt lat="41.939498382969404" lon="3.008942512304545"><ele>59.0</ele><time>2026-05-02T10:29:22Z</time></trkpt><trkpt lat="41.93940664394712" lon="3.00894385162423"><ele>59.00000000000001</ele><time>2026-05-02T10:29:25Z</time></trkpt><trkpt lat="41.93931536773617" lon="3.0089529733260125"><ele>59.0</ele><time>2026-05-02T10:29:28Z</time></trkpt><trkpt lat="41.939236753866574" lon="3.0089629620763083"><ele>60.00000000000001</ele><time>2026-05-02T10:29:31Z</time></trkpt><trkpt lat="41.93913826988626" lon="3.008960622932715"><ele>61.0</ele><time>2026-05-02T10:29:34Z</time></trkpt><trkpt lat="41.93907088692641" lon="3.0089520518760984"><ele>62.0</ele><time>2026-05-02T10:29:36Z</time></trkpt><trkpt lat="41.93899974840557" lon="3.0089431036481744"><ele>63.0</ele><time>2026-05-02T10:29:38Z</time></trkpt><trkpt lat="41.93893269129989" lon="3.0089221446250805"><ele>64.0</ele><time>2026-05-02T10:29:40Z</time></trkpt><trkpt lat="41.938845060033074" lon="3.0088914268261977"><ele>65.0</ele><time>2026-05-02T10:29:43Z</time></trkpt><trkpt lat="41.93878268397205" lon="3.008871052778696"><ele>65.0</ele><time>2026-05-02T10:29:45Z</time></trkpt><trkpt lat="41.93868906340745" lon="3.008846174010726"><ele>65.0</ele><time>2026-05-02T10:29:48Z</time></trkpt><trkpt lat="41.938619325460564" lon="3.008811398785791"><ele>65.0</ele><time>2026-05-02T10:29:50Z</time></trkpt><trkpt lat="41.93854721619947" lon="3.0087586916018196"><ele>65.0</ele><time>2026-05-02T10:29:52Z</time></trkpt><trkpt lat="41.93845752085998" lon="3.008691036983904"><ele>65.0</ele><time>2026-05-02T10:29:54Z</time></trkpt><trkpt lat="41.938397974231144" lon="3.0086270690431007"><ele>65.0</ele><time>2026-05-02T10:29:56Z</time></trkpt><trkpt lat="41.93836316554831" lon="3.008525320212983"><ele>65.0</ele><time>2026-05-02T10:29:58Z</time></trkpt><trkpt lat="41.93828905718464" lon="3.0084667077278318"><ele>65.0</ele><time>2026-05-02T10:29:59Z</time></trkpt><trkpt lat="41.93823308596961" lon="3.008421476363243"><ele>65.0</ele><time>2026-05-02T10:30:00Z</time></trkpt><trkpt lat="41.938129334426" lon="3.0083502116255727"><ele>65.0</ele><time>2026-05-02T10:30:02Z</time></trkpt><trkpt lat="41.93802879754874" lon="3.008263395890436"><ele>65.0</ele><time>2026-05-02T10:30:04Z</time></trkpt><trkpt lat="41.937925390390134" lon="3.0081836540528135"><ele>65.0</ele><time>2026-05-02T10:30:06Z</time></trkpt><trkpt lat="41.93782247104461" lon="3.008095183433008"><ele>65.0</ele><time>2026-05-02T10:30:08Z</time></trkpt><trkpt lat="41.937708202726405" lon="3.0080421859459077"><ele>65.0</ele><time>2026-05-02T10:30:10Z</time></trkpt><trkpt lat="41.93759500975067" lon="3.0080080093836585"><ele>65.0</ele><time>2026-05-02T10:30:12Z</time></trkpt><trkpt lat="41.937498278074756" lon="3.007918630142021"><ele>66.4</ele><time>2026-05-02T10:30:14Z</time></trkpt><trkpt lat="41.937406751167906" lon="3.0078279886254085"><ele>67.8</ele><time>2026-05-02T10:30:16Z</time></trkpt><trkpt lat="41.937310422417355" lon="3.007736429354746"><ele>69.2</ele><time>2026-05-02T10:30:18Z</time></trkpt><trkpt lat="41.9372578726585" lon="3.007689024799217"><ele>70.6</ele><time>2026-05-02T10:30:19Z</time></trkpt><trkpt lat="41.93716247927449" lon="3.007585192409987"><ele>72.0</ele><time>2026-05-02T10:30:21Z</time></trkpt><trkpt lat="41.93711289252394" lon="3.0075312382084594"><ele>71.8</ele><time>2026-05-02T10:30:22Z</time></trkpt><trkpt lat="41.937062131191865" lon="3.0074768856170095"><ele>71.6</ele><time>2026-05-02T10:30:23Z</time></trkpt><trkpt lat="41.93701219598888" lon="3.0074185609558595"><ele>71.39999999999999</ele><time>2026-05-02T10:30:24Z</time></trkpt><trkpt lat="41.93691198370156" lon="3.00732297647145"><ele>71.2</ele><time>2026-05-02T10:30:25.999Z</time></trkpt><trkpt lat="41.93681803353249" lon="3.0072282390878637"><ele>71.0</ele><time>2026-05-02T10:30:27.999Z</time></trkpt><trkpt lat="41.93672940747414" lon="3.0071196589909057"><ele>71.2</ele><time>2026-05-02T10:30:29.999Z</time></trkpt><trkpt lat="41.93664148990736" lon="3.007018320856595"><ele>71.39999999999999</ele><time>2026-05-02T10:30:31.999Z</time></trkpt><trkpt lat="41.936551006234176" lon="3.006933407113446"><ele>71.6</ele><time>2026-05-02T10:30:33.999Z</time></trkpt><trkpt lat="41.93645226655435" lon="3.006876983149886"><ele>71.8</ele><time>2026-05-02T10:30:35.999Z</time></trkpt><trkpt lat="41.936365296735936" lon="3.0068083255229183"><ele>72.0</ele><time>2026-05-02T10:30:37.999Z</time></trkpt><trkpt lat="41.93627942369237" lon="3.006752315698265"><ele>72.0</ele><time>2026-05-02T10:30:39.999Z</time></trkpt><trkpt lat="41.93620259835306" lon="3.006693764968004"><ele>72.0</ele><time>2026-05-02T10:30:41.999Z</time></trkpt><trkpt lat="41.936133580371155" lon="3.0066415814867016"><ele>72.0</ele><time>2026-05-02T10:30:43.999Z</time></trkpt><trkpt lat="41.93606973415859" lon="3.0065898945696"><ele>72.0</ele><time>2026-05-02T10:30:45.999Z</time></trkpt><trkpt lat="41.936007041323265" lon="3.006551752596425"><ele>72.0</ele><time>2026-05-02T10:30:47.999Z</time></trkpt><trkpt lat="41.935943859692" lon="3.0065076693109822"><ele>72.0</ele><time>2026-05-02T10:30:49.999Z</time></trkpt><trkpt lat="41.93587715109956" lon="3.0064696557656685"><ele>72.16666666666667</ele><time>2026-05-02T10:30:51.999Z</time></trkpt><trkpt lat="41.935811536781515" lon="3.0064199817944557"><ele>72.33333333333333</ele><time>2026-05-02T10:30:53.999Z</time></trkpt><trkpt lat="41.93573157238346" lon="3.0064316356449683"><ele>72.5</ele><time>2026-05-02T10:30:55.999Z</time></trkpt><trkpt lat="41.93566201080518" lon="3.006424855749626"><ele>72.66666666666666</ele><time>2026-05-02T10:30:57.999Z</time></trkpt><trkpt lat="41.935592021808645" lon="3.0064202549642185"><ele>72.83333333333333</ele><time>2026-05-02T10:30:59.999Z</time></trkpt><trkpt lat="41.935526510508126" lon="3.0064085671527834"><ele>73.0</ele><time>2026-05-02T10:31:01.999Z</time></trkpt><trkpt lat="41.9354407061863" lon="3.006379482061007"><ele>73.0</ele><time>2026-05-02T10:31:03.999Z</time></trkpt><trkpt lat="41.93537919791146" lon="3.006317784492083"><ele>73.0</ele><time>2026-05-02T10:31:06Z</time></trkpt><trkpt lat="41.935306348860216" lon="3.006263990838662"><ele>73.0</ele><time>2026-05-02T10:31:08Z</time></trkpt><trkpt lat="41.93523898701086" lon="3.006208322430443"><ele>73.0</ele><time>2026-05-02T10:31:10Z</time></trkpt><trkpt lat="41.93517383701941" lon="3.006153904788787"><ele>73.0</ele><time>2026-05-02T10:31:12Z</time></trkpt><trkpt lat="41.93511272956548" lon="3.0061123287705693"><ele>73.0</ele><time>2026-05-02T10:31:14Z</time></trkpt><trkpt lat="41.93502415260867" lon="3.006056647911112"><ele>73.85714285714286</ele><time>2026-05-02T10:31:17Z</time></trkpt><trkpt lat="41.93496189288897" lon="3.0060139721158246"><ele>74.71428571428572</ele><time>2026-05-02T10:31:19Z</time></trkpt><trkpt lat="41.93489895810844" lon="3.005967082747802"><ele>75.57142857142858</ele><time>2026-05-02T10:31:21Z</time></trkpt><trkpt lat="41.934838151195386" lon="3.005906238746057"><ele>76.42857142857143</ele><time>2026-05-02T10:31:23Z</time></trkpt><trkpt lat="41.934779713154136" lon="3.0058376944390726"><ele>77.28571428571429</ele><time>2026-05-02T10:31:25Z</time></trkpt><trkpt lat="41.93472457108396" lon="3.0057720831974675"><ele>78.14285714285715</ele><time>2026-05-02T10:31:27Z</time></trkpt><trkpt lat="41.93466519097836" lon="3.005720239475794"><ele>79.0</ele><time>2026-05-02T10:31:29Z</time></trkpt><trkpt lat="41.93459966508126" lon="3.0056784987211866"><ele>79.14285714285715</ele><time>2026-05-02T10:31:31Z</time></trkpt><trkpt lat="41.93453995650199" lon="3.005630431361954"><ele>79.28571428571429</ele><time>2026-05-02T10:31:33Z</time></trkpt><trkpt lat="41.934490691820876" lon="3.005564286203734"><ele>79.42857142857143</ele><time>2026-05-02T10:31:35Z</time></trkpt><trkpt lat="41.93444969819267" lon="3.0054941809206612"><ele>79.57142857142858</ele><time>2026-05-02T10:31:37Z</time></trkpt><trkpt lat="41.934418031225725" lon="3.0054075158857283"><ele>79.71428571428572</ele><time>2026-05-02T10:31:39Z</time></trkpt><trkpt lat="41.93438524759493" lon="3.0053166980919466"><ele>79.85714285714286</ele><time>2026-05-02T10:31:41Z</time></trkpt><trkpt lat="41.934351293872986" lon="3.0052304499211147"><ele>80.0</ele><time>2026-05-02T10:31:43Z</time></trkpt><trkpt lat="41.934316588915976" lon="3.0051413530353717"><ele>80.0</ele><time>2026-05-02T10:31:45Z</time></trkpt><trkpt lat="41.93428160157412" lon="3.005057359209317"><ele>80.0</ele><time>2026-05-02T10:31:47Z</time></trkpt><trkpt lat="41.93424928246426" lon="3.0049802925580833"><ele>80.0</ele><time>2026-05-02T10:31:50Z</time></trkpt><trkpt lat="41.934203953541974" lon="3.004905777189576"><ele>80.0</ele><time>2026-05-02T10:31:52Z</time></trkpt><trkpt lat="41.934157528006125" lon="3.0047029193128996"><ele>80.0</ele><time>2026-05-02T10:31:55Z</time></trkpt><trkpt lat="41.934131231901425" lon="3.004595947048181"><ele>82.0</ele><time>2026-05-02T10:31:57Z</time></trkpt><trkpt lat="41.93410901536847" lon="3.0044812476888443"><ele>84.0</ele><time>2026-05-02T10:31:59Z</time></trkpt><trkpt lat="41.93408601934547" lon="3.0043548479974627"><ele>86.0</ele><time>2026-05-02T10:32:01Z</time></trkpt><trkpt lat="41.93404837694345" lon="3.0042280769770713"><ele>88.0</ele><time>2026-05-02T10:32:03Z</time></trkpt><trkpt lat="41.933972650102184" lon="3.004123584076626"><ele>90.0</ele><time>2026-05-02T10:32:05Z</time></trkpt><trkpt lat="41.93387653247798" lon="3.0040639700921505"><ele>90.5</ele><time>2026-05-02T10:32:07Z</time></trkpt><trkpt lat="41.93379144960902" lon="3.0039897570961913"><ele>91.0</ele><time>2026-05-02T10:32:09Z</time></trkpt><trkpt lat="41.9337184199229" lon="3.0039222094024915"><ele>91.5</ele><time>2026-05-02T10:32:11Z</time></trkpt><trkpt lat="41.933656339678635" lon="3.003849959468272"><ele>92.0</ele><time>2026-05-02T10:32:13Z</time></trkpt><trkpt lat="41.933610585265306" lon="3.0037629804786374"><ele>92.5</ele><time>2026-05-02T10:32:18Z</time></trkpt><trkpt lat="41.93356329152484" lon="3.003699313182563"><ele>93.0</ele><time>2026-05-02T10:32:22Z</time></trkpt><trkpt lat="41.933506205851494" lon="3.0036283018764083"><ele>93.00000000000001</ele><time>2026-05-02T10:32:26Z</time></trkpt><trkpt lat="41.933458983060355" lon="3.0035700802183802"><ele>93.0</ele><time>2026-05-02T10:32:29Z</time></trkpt><trkpt lat="41.93341167864382" lon="3.0035134480903487"><ele>93.0</ele><time>2026-05-02T10:32:32Z</time></trkpt><trkpt lat="41.93335264776905" lon="3.0034448622084793"><ele>93.0</ele><time>2026-05-02T10:32:35Z</time></trkpt><trkpt lat="41.93333197277588" lon="3.00334005803202"><ele>93.0</ele><time>2026-05-02T10:32:39Z</time></trkpt><trkpt lat="41.93332348719245" lon="3.0032558923595376"><ele>93.00000000000001</ele><time>2026-05-02T10:32:42Z</time></trkpt><trkpt lat="41.93330444034132" lon="3.0031495620938355"><ele>93.0</ele><time>2026-05-02T10:32:45.999Z</time></trkpt><trkpt lat="41.933271558262994" lon="3.0030551025532826"><ele>96.0</ele><time>2026-05-02T10:32:49.999Z</time></trkpt><trkpt lat="41.9332352436083" lon="3.002970724602937"><ele>99.0</ele><time>2026-05-02T10:32:53.999Z</time></trkpt><trkpt lat="41.93319824128047" lon="3.002902251985652"><ele>102.0</ele><time>2026-05-02T10:32:56.999Z</time></trkpt><trkpt lat="41.9331590597458" lon="3.002815321357255"><ele>105.0</ele><time>2026-05-02T10:32:59.999Z</time></trkpt><trkpt lat="41.93310904512322" lon="3.0027220528226426"><ele>108.0</ele><time>2026-05-02T10:33:02.999Z</time></trkpt><trkpt lat="41.933068048565204" lon="3.0026493073199494"><ele>111.0</ele><time>2026-05-02T10:33:04.999Z</time></trkpt><trkpt lat="41.93301527752033" lon="3.0025583510686764"><ele>111.66666666666667</ele><time>2026-05-02T10:33:07.999Z</time></trkpt><trkpt lat="41.93296158245838" lon="3.0024725135076142"><ele>112.33333333333334</ele><time>2026-05-02T10:33:10.999Z</time></trkpt><trkpt lat="41.9329071487401" lon="3.002371177776311"><ele>113.0</ele><time>2026-05-02T10:33:14Z</time></trkpt><trkpt lat="41.93286129940848" lon="3.0023049986512063"><ele>113.66666666666667</ele><time>2026-05-02T10:33:16Z</time></trkpt><trkpt lat="41.932819382677614" lon="3.002235829422308"><ele>114.33333333333334</ele><time>2026-05-02T10:33:19Z</time></trkpt><trkpt lat="41.93276064632473" lon="3.0021462925075064"><ele>115.0</ele><time>2026-05-02T10:33:22Z</time></trkpt><trkpt lat="41.93271684575007" lon="3.0020122538636045"><ele>114.99999999999999</ele><time>2026-05-02T10:33:23Z</time></trkpt><trkpt lat="41.932672395805575" lon="3.001935387614334"><ele>115.0</ele><time>2026-05-02T10:33:25Z</time></trkpt><trkpt lat="41.93262885609538" lon="3.0018708119011306"><ele>114.99999999999999</ele><time>2026-05-02T10:33:27Z</time></trkpt><trkpt lat="41.932583420025715" lon="3.0018064412006122"><ele>114.99999999999999</ele><time>2026-05-02T10:33:29Z</time></trkpt><trkpt lat="41.932546687220295" lon="3.0017338811197445"><ele>115.0</ele><time>2026-05-02T10:33:31Z</time></trkpt><trkpt lat="41.932513489714914" lon="3.001658983416024"><ele>114.99999999999999</ele><time>2026-05-02T10:33:33Z</time></trkpt><trkpt lat="41.93247868710882" lon="3.001568825878611"><ele>114.99999999999999</ele><time>2026-05-02T10:33:35Z</time></trkpt><trkpt lat="41.932446623384735" lon="3.001488015597119"><ele>114.50000000000001</ele><time>2026-05-02T10:33:37Z</time></trkpt><trkpt lat="41.93240819693511" lon="3.0014048469897654"><ele>114.0</ele><time>2026-05-02T10:33:39Z</time></trkpt><trkpt lat="41.932364072028975" lon="3.0013164602318434"><ele>113.5</ele><time>2026-05-02T10:33:41Z</time></trkpt><trkpt lat="41.932318467453165" lon="3.00124226708811"><ele>113.0</ele><time>2026-05-02T10:33:43Z</time></trkpt><trkpt lat="41.93227750118835" lon="3.0011518655736587"><ele>112.50000000000001</ele><time>2026-05-02T10:33:45Z</time></trkpt><trkpt lat="41.93223154859608" lon="3.001041042652523"><ele>112.0</ele><time>2026-05-02T10:33:47Z</time></trkpt><trkpt lat="41.93219085803126" lon="3.000937495430818"><ele>112.00000000000001</ele><time>2026-05-02T10:33:49Z</time></trkpt><trkpt lat="41.932151266942" lon="3.0008381643255824"><ele>112.0</ele><time>2026-05-02T10:33:51Z</time></trkpt><trkpt lat="41.93212332603798" lon="3.0007468360572056"><ele>112.0</ele><time>2026-05-02T10:33:53Z</time></trkpt><trkpt lat="41.932084330247996" lon="3.000654382410194"><ele>112.0</ele><time>2026-05-02T10:33:55Z</time></trkpt><trkpt lat="41.93202890844042" lon="3.000563080225153"><ele>112.00000000000001</ele><time>2026-05-02T10:33:58Z</time></trkpt><trkpt lat="41.93198785993189" lon="3.000484034806251"><ele>112.0</ele><time>2026-05-02T10:34:01Z</time></trkpt><trkpt lat="41.931949364491864" lon="3.0004035366410933"><ele>113.33333333333334</ele><time>2026-05-02T10:34:04Z</time></trkpt><trkpt lat="41.931911952909225" lon="3.000293231466439"><ele>114.66666666666667</ele><time>2026-05-02T10:34:07Z</time></trkpt><trkpt lat="41.93188225433661" lon="3.0002105107400827"><ele>116.0</ele><time>2026-05-02T10:34:09Z</time></trkpt><trkpt lat="41.93186743614019" lon="3.000088428741877"><ele>117.33333333333334</ele><time>2026-05-02T10:34:12Z</time></trkpt><trkpt lat="41.93185792015529" lon="2.9999741515565876"><ele>118.66666666666667</ele><time>2026-05-02T10:34:15Z</time></trkpt><trkpt lat="41.93184256231538" lon="2.999878366366898"><ele>120.0</ele><time>2026-05-02T10:34:18Z</time></trkpt><trkpt lat="41.93184327967523" lon="2.9997695483677123"><ele>120.0</ele><time>2026-05-02T10:34:21Z</time></trkpt><trkpt lat="41.93186415769191" lon="2.9996588648400375"><ele>120.0</ele><time>2026-05-02T10:34:24Z</time></trkpt><trkpt lat="41.931883261794475" lon="2.99954659249515"><ele>120.0</ele><time>2026-05-02T10:34:27Z</time></trkpt><trkpt lat="41.931900343963825" lon="2.9994600171233214"><ele>120.0</ele><time>2026-05-02T10:34:30Z</time></trkpt><trkpt lat="41.93190856273854" lon="2.9993719839200885"><ele>120.0</ele><time>2026-05-02T10:34:33Z</time></trkpt><trkpt lat="41.93189388337996" lon="2.999260945310926"><ele>120.0</ele><time>2026-05-02T10:34:36Z</time></trkpt><trkpt lat="41.93186304881263" lon="2.99918673209562"><ele>120.0</ele><time>2026-05-02T10:34:38Z</time></trkpt><trkpt lat="41.93181870370078" lon="2.99912079357575"><ele>120.0</ele><time>2026-05-02T10:34:40Z</time></trkpt><trkpt lat="41.9317727630035" lon="2.999058432508113"><ele>120.0</ele><time>2026-05-02T10:34:42Z</time></trkpt><trkpt lat="41.931726627302304" lon="2.998999455988657"><ele>120.0</ele><time>2026-05-02T10:34:44Z</time></trkpt><trkpt lat="41.931676571786255" lon="2.99894316843843"><ele>120.0</ele><time>2026-05-02T10:34:46Z</time></trkpt><trkpt lat="41.93159995330753" lon="2.998877535451209"><ele>120.0</ele><time>2026-05-02T10:34:49Z</time></trkpt><trkpt lat="41.93154362622432" lon="2.9988257227593573"><ele>120.0</ele><time>2026-05-02T10:34:51Z</time></trkpt><trkpt lat="41.931464467540316" lon="2.9987567508929005"><ele>120.0</ele><time>2026-05-02T10:34:54Z</time></trkpt><trkpt lat="41.931410075478894" lon="2.9986671769575794"><ele>120.0</ele><time>2026-05-02T10:34:56.999Z</time></trkpt><trkpt lat="41.931381130289296" lon="2.998586452966995"><ele>120.0</ele><time>2026-05-02T10:34:59.999Z</time></trkpt><trkpt lat="41.931366165587875" lon="2.9985014038165527"><ele>120.0</ele><time>2026-05-02T10:35:02.999Z</time></trkpt><trkpt lat="41.93134498238414" lon="2.9984060812465576"><ele>120.0</ele><time>2026-05-02T10:35:05.999Z</time></trkpt><trkpt lat="41.93131023009658" lon="2.998302927479121"><ele>120.0</ele><time>2026-05-02T10:35:10.999Z</time></trkpt><trkpt lat="41.93127216259714" lon="2.998224670442384"><ele>120.0</ele><time>2026-05-02T10:35:13.999Z</time></trkpt><trkpt lat="41.93123644182388" lon="2.9981526654313173"><ele>122.16666666666667</ele><time>2026-05-02T10:35:17Z</time></trkpt><trkpt lat="41.93120129998143" lon="2.998074615968614"><ele>124.33333333333334</ele><time>2026-05-02T10:35:20Z</time></trkpt><trkpt lat="41.931138922099215" lon="2.9979753206665443"><ele>126.5</ele><time>2026-05-02T10:35:23Z</time></trkpt><trkpt lat="41.93109156898055" lon="2.997897025156904"><ele>128.66666666666669</ele><time>2026-05-02T10:35:27Z</time></trkpt><trkpt lat="41.931058466034266" lon="2.997798557929477"><ele>130.83333333333334</ele><time>2026-05-02T10:35:31Z</time></trkpt><trkpt lat="41.931028199658215" lon="2.9977103743407048"><ele>133.0</ele><time>2026-05-02T10:35:35Z</time></trkpt><trkpt lat="41.93100487791171" lon="2.997621054835649"><ele>133.0</ele><time>2026-05-02T10:35:39Z</time></trkpt><trkpt lat="41.930988401030184" lon="2.997515506379838"><ele>133.0</ele><time>2026-05-02T10:35:43Z</time></trkpt><trkpt lat="41.93097409446858" lon="2.997411840887588"><ele>133.0</ele><time>2026-05-02T10:35:46Z</time></trkpt><trkpt lat="41.93097148195198" lon="2.9973266245917167"><ele>133.0</ele><time>2026-05-02T10:35:49Z</time></trkpt><trkpt lat="41.9309698855479" lon="2.997238589766153"><ele>133.0</ele><time>2026-05-02T10:35:52Z</time></trkpt><trkpt lat="41.93096815150566" lon="2.997148277352689"><ele>133.0</ele><time>2026-05-02T10:35:55Z</time></trkpt><trkpt lat="41.930969248612314" lon="2.9970517975067357"><ele>133.0</ele><time>2026-05-02T10:35:58Z</time></trkpt><trkpt lat="41.9309450911873" lon="2.996956441189563"><ele>133.16666666666669</ele><time>2026-05-02T10:36:01Z</time></trkpt><trkpt lat="41.930902209425895" lon="2.9968580402154332"><ele>133.33333333333334</ele><time>2026-05-02T10:36:04Z</time></trkpt><trkpt lat="41.93086901322571" lon="2.996760705242511"><ele>133.5</ele><time>2026-05-02T10:36:07Z</time></trkpt><trkpt lat="41.930836491498034" lon="2.996660157882878"><ele>133.66666666666666</ele><time>2026-05-02T10:36:11Z</time></trkpt><trkpt lat="41.93080466622999" lon="2.996547444617206"><ele>133.83333333333331</ele><time>2026-05-02T10:36:14Z</time></trkpt><trkpt lat="41.930790601252866" lon="2.996432259139217"><ele>134.0</ele><time>2026-05-02T10:36:17Z</time></trkpt><trkpt lat="41.930781967912615" lon="2.9963435485218275"><ele>135.5</ele><time>2026-05-02T10:36:19Z</time></trkpt><trkpt lat="41.93077939705149" lon="2.996250881793598"><ele>137.0</ele><time>2026-05-02T10:36:21Z</time></trkpt><trkpt lat="41.93077512691509" lon="2.996165824677902"><ele>138.5</ele><time>2026-05-02T10:36:23Z</time></trkpt><trkpt lat="41.93077245583869" lon="2.9959946925029137"><ele>140.0</ele><time>2026-05-02T10:36:26Z</time></trkpt><trkpt lat="41.9307764238809" lon="2.9958895074986365"><ele>141.5</ele><time>2026-05-02T10:36:28Z</time></trkpt><trkpt lat="41.93079864311" lon="2.9957933224376276"><ele>143.0</ele><time>2026-05-02T10:36:30Z</time></trkpt><trkpt lat="41.93081315051836" lon="2.995689693853314"><ele>143.66666666666666</ele><time>2026-05-02T10:36:32Z</time></trkpt><trkpt lat="41.93083385132407" lon="2.9955780516786197"><ele>144.33333333333331</ele><time>2026-05-02T10:36:34Z</time></trkpt><trkpt lat="41.93085160763131" lon="2.995468552768692"><ele>145.0</ele><time>2026-05-02T10:36:36Z</time></trkpt><trkpt lat="41.930865657047015" lon="2.995358633694266"><ele>145.66666666666666</ele><time>2026-05-02T10:36:38Z</time></trkpt><trkpt lat="41.930871501001256" lon="2.9952360146159536"><ele>146.33333333333334</ele><time>2026-05-02T10:36:40Z</time></trkpt><trkpt lat="41.930871573342294" lon="2.995112323217995"><ele>147.0</ele><time>2026-05-02T10:36:42Z</time></trkpt><trkpt lat="41.93089159658879" lon="2.99499157651687"><ele>146.79999999999998</ele><time>2026-05-02T10:36:44Z</time></trkpt><trkpt lat="41.930912805012575" lon="2.994854553513353"><ele>146.6</ele><time>2026-05-02T10:36:46Z</time></trkpt><trkpt lat="41.9308931308897" lon="2.9947100425751034"><ele>146.39999999999998</ele><time>2026-05-02T10:36:48Z</time></trkpt><trkpt lat="41.93085602607544" lon="2.9945951786595493"><ele>146.2</ele><time>2026-05-02T10:36:50Z</time></trkpt><trkpt lat="41.93076819673959" lon="2.9944932761965597"><ele>146.0</ele><time>2026-05-02T10:36:53Z</time></trkpt><trkpt lat="41.9306788196687" lon="2.994443043256003"><ele>146.0</ele><time>2026-05-02T10:36:55Z</time></trkpt><trkpt lat="41.93061753243138" lon="2.9943896809429664"><ele>146.0</ele><time>2026-05-02T10:36:57Z</time></trkpt><trkpt lat="41.9305586156118" lon="2.9943544923549084"><ele>146.0</ele><time>2026-05-02T10:36:59Z</time></trkpt><trkpt lat="41.930488502556805" lon="2.994311931591107"><ele>146.0</ele><time>2026-05-02T10:37:02Z</time></trkpt><trkpt lat="41.930429592527936" lon="2.9942748023845254"><ele>146.0</ele><time>2026-05-02T10:37:05Z</time></trkpt><trkpt lat="41.930371319426044" lon="2.9942379461115567"><ele>146.0</ele><time>2026-05-02T10:37:07.999Z</time></trkpt><trkpt lat="41.93029841508102" lon="2.994195299394081"><ele>146.0</ele><time>2026-05-02T10:37:11.999Z</time></trkpt><trkpt lat="41.93023820100024" lon="2.9941624201280055"><ele>146.0</ele><time>2026-05-02T10:37:14.999Z</time></trkpt><trkpt lat="41.930184588290004" lon="2.9942068939876787"><ele>146.0</ele><time>2026-05-02T10:37:16.999Z</time></trkpt><trkpt lat="41.930106979285966" lon="2.9941942491249782"><ele>146.0</ele><time>2026-05-02T10:37:20.999Z</time></trkpt><trkpt lat="41.930037646614586" lon="2.994188371156607"><ele>146.0</ele><time>2026-05-02T10:37:25Z</time></trkpt><trkpt lat="41.92996124497442" lon="2.994188012576106"><ele>146.0</ele><time>2026-05-02T10:37:29Z</time></trkpt><trkpt lat="41.92988550141934" lon="2.9941771210827253"><ele>146.0</ele><time>2026-05-02T10:37:33Z</time></trkpt><trkpt lat="41.92979854759673" lon="2.994145035376564"><ele>147.42857142857142</ele><time>2026-05-02T10:37:37Z</time></trkpt><trkpt lat="41.92974699953843" lon="2.994088751894238"><ele>148.85714285714286</ele><time>2026-05-02T10:37:40Z</time></trkpt><trkpt lat="41.92970481512903" lon="2.994022923955947"><ele>150.28571428571428</ele><time>2026-05-02T10:37:43Z</time></trkpt><trkpt lat="41.92965942650908" lon="2.993955956745868"><ele>151.71428571428572</ele><time>2026-05-02T10:37:46Z</time></trkpt><trkpt lat="41.929629677941655" lon="2.9938768603016768"><ele>153.14285714285714</ele><time>2026-05-02T10:37:49Z</time></trkpt><trkpt lat="41.92961004690178" lon="2.9937923633747694"><ele>154.57142857142858</ele><time>2026-05-02T10:37:52Z</time></trkpt><trkpt lat="41.92959998279683" lon="2.99370532391847"><ele>156.0</ele><time>2026-05-02T10:37:55Z</time></trkpt><trkpt lat="41.92961036793878" lon="2.993610032630951"><ele>156.0</ele><time>2026-05-02T10:37:58Z</time></trkpt><trkpt lat="41.92962441225419" lon="2.9935195790945652"><ele>156.0</ele><time>2026-05-02T10:38:01Z</time></trkpt><trkpt lat="41.92965295753245" lon="2.9934196839642953"><ele>156.0</ele><time>2026-05-02T10:38:05Z</time></trkpt><trkpt lat="41.92968297086175" lon="2.9933413856929785"><ele>156.0</ele><time>2026-05-02T10:38:07Z</time></trkpt><trkpt lat="41.92970560705774" lon="2.993225939096085"><ele>156.0</ele><time>2026-05-02T10:38:10Z</time></trkpt><trkpt lat="41.92972301713708" lon="2.9931393673379665"><ele>156.0</ele><time>2026-05-02T10:38:12Z</time></trkpt><trkpt lat="41.92972840640296" lon="2.993053508983193"><ele>156.0</ele><time>2026-05-02T10:38:15Z</time></trkpt><trkpt lat="41.92972298688229" lon="2.9929162270509435"><ele>158.0</ele><time>2026-05-02T10:38:18Z</time></trkpt><trkpt lat="41.92971600613267" lon="2.9928304742180925"><ele>160.0</ele><time>2026-05-02T10:38:19Z</time></trkpt><trkpt lat="41.92969408057591" lon="2.992701877282531"><ele>162.0</ele><time>2026-05-02T10:38:22Z</time></trkpt><trkpt lat="41.92966606290635" lon="2.9926067748015037"><ele>164.0</ele><time>2026-05-02T10:38:24Z</time></trkpt><trkpt lat="41.929635412538524" lon="2.9925141270145743"><ele>166.0</ele><time>2026-05-02T10:38:26Z</time></trkpt><trkpt lat="41.92960027014868" lon="2.9924299877028107"><ele>168.0</ele><time>2026-05-02T10:38:28Z</time></trkpt><trkpt lat="41.92956113033099" lon="2.9923506861015055"><ele>168.0</ele><time>2026-05-02T10:38:29.999Z</time></trkpt><trkpt lat="41.92950273510922" lon="2.9922572967771934"><ele>168.0</ele><time>2026-05-02T10:38:32.999Z</time></trkpt><trkpt lat="41.92945572812748" lon="2.9921751417504576"><ele>168.0</ele><time>2026-05-02T10:38:35.999Z</time></trkpt><trkpt lat="41.92942865395999" lon="2.9920774072454526"><ele>168.0</ele><time>2026-05-02T10:38:38.999Z</time></trkpt><trkpt lat="41.92941454591698" lon="2.991969502322241"><ele>168.0</ele><time>2026-05-02T10:38:41.999Z</time></trkpt><trkpt lat="41.929413447311056" lon="2.9918827092816755"><ele>168.0</ele><time>2026-05-02T10:38:43.999Z</time></trkpt><trkpt lat="41.929391030708395" lon="2.991789061757643"><ele>168.0</ele><time>2026-05-02T10:38:45.999Z</time></trkpt><trkpt lat="41.92934993378359" lon="2.9916795676564907"><ele>168.0</ele><time>2026-05-02T10:38:47.999Z</time></trkpt><trkpt lat="41.92928725331418" lon="2.9915729315522355"><ele>168.0</ele><time>2026-05-02T10:38:49.999Z</time></trkpt><trkpt lat="41.92922560360051" lon="2.991452276802865"><ele>168.0</ele><time>2026-05-02T10:38:51.999Z</time></trkpt><trkpt lat="41.92920468728268" lon="2.991321412980282"><ele>168.0</ele><time>2026-05-02T10:38:53.999Z</time></trkpt><trkpt lat="41.929202625407775" lon="2.9911969615914455"><ele>168.2</ele><time>2026-05-02T10:38:55.999Z</time></trkpt><trkpt lat="41.92920943450299" lon="2.991077178498799"><ele>168.4</ele><time>2026-05-02T10:38:57.999Z</time></trkpt><trkpt lat="41.92923696557106" lon="2.9909586846708196"><ele>168.6</ele><time>2026-05-02T10:38:59.999Z</time></trkpt><trkpt lat="41.929282730035105" lon="2.990841069302232"><ele>168.79999999999998</ele><time>2026-05-02T10:39:01.999Z</time></trkpt><trkpt lat="41.92935374605874" lon="2.990763016477086"><ele>169.0</ele><time>2026-05-02T10:39:03.999Z</time></trkpt><trkpt lat="41.929438220711795" lon="2.9907344280063337"><ele>169.0</ele><time>2026-05-02T10:39:05.999Z</time></trkpt><trkpt lat="41.92951226119468" lon="2.9907104105809217"><ele>169.0</ele><time>2026-05-02T10:39:07.999Z</time></trkpt><trkpt lat="41.929581795715954" lon="2.9906913991010353"><ele>169.0</ele><time>2026-05-02T10:39:09.999Z</time></trkpt><trkpt lat="41.929656346359415" lon="2.9906810319183172"><ele>169.0</ele><time>2026-05-02T10:39:11.999Z</time></trkpt><trkpt lat="41.92973407989216" lon="2.990671785784444"><ele>169.0</ele><time>2026-05-02T10:39:13.999Z</time></trkpt><trkpt lat="41.92981029099584" lon="2.9906640043009363"><ele>169.0</ele><time>2026-05-02T10:39:15.999Z</time></trkpt><trkpt lat="41.92988916792545" lon="2.9906773525146773"><ele>169.0</ele><time>2026-05-02T10:39:17.999Z</time></trkpt><trkpt lat="41.92996494575042" lon="2.990610254497432"><ele>169.0</ele><time>2026-05-02T10:39:19.999Z</time></trkpt><trkpt lat="41.929950074942425" lon="2.990481656452904"><ele>169.0</ele><time>2026-05-02T10:39:21.998Z</time></trkpt><trkpt lat="41.92990638530712" lon="2.990402940879703"><ele>169.0</ele><time>2026-05-02T10:39:23.998Z</time></trkpt><trkpt lat="41.92986440312328" lon="2.990335469057673"><ele>169.0</ele><time>2026-05-02T10:39:25.998Z</time></trkpt><trkpt lat="41.92980954420518" lon="2.9902474257718765"><ele>169.0</ele><time>2026-05-02T10:39:28.999Z</time></trkpt><trkpt lat="41.92972984137644" lon="2.9901859781855054"><ele>169.0</ele><time>2026-05-02T10:39:31.999Z</time></trkpt><trkpt lat="41.92965446195912" lon="2.990165470381157"><ele>169.0</ele><time>2026-05-02T10:39:34.999Z</time></trkpt><trkpt lat="41.92957439543885" lon="2.99016377184381"><ele>169.0</ele><time>2026-05-02T10:39:37.999Z</time></trkpt><trkpt lat="41.9295012740379" lon="2.990163235959345"><ele>169.0</ele><time>2026-05-02T10:39:40.999Z</time></trkpt><trkpt lat="41.92941098730489" lon="2.990152876688203"><ele>169.0</ele><time>2026-05-02T10:39:43.999Z</time></trkpt><trkpt lat="41.92934669013261" lon="2.9901108948064588"><ele>169.0</ele><time>2026-05-02T10:39:46.999Z</time></trkpt><trkpt lat="41.92928193269684" lon="2.9900571627790873"><ele>171.5</ele><time>2026-05-02T10:39:49.999Z</time></trkpt><trkpt lat="41.92922479458184" lon="2.98998803478799"><ele>174.0</ele><time>2026-05-02T10:39:52.999Z</time></trkpt><trkpt lat="41.92916838329994" lon="2.989920942874038"><ele>176.5</ele><time>2026-05-02T10:39:55.999Z</time></trkpt><trkpt lat="41.92910392584894" lon="2.989881561385064"><ele>179.0</ele><time>2026-05-02T10:39:58.999Z</time></trkpt><trkpt lat="41.92902291035832" lon="2.9898616944522507"><ele>181.5</ele><time>2026-05-02T10:40:02.999Z</time></trkpt><trkpt lat="41.928940973320245" lon="2.98986351111002"><ele>184.0</ele><time>2026-05-02T10:40:06.999Z</time></trkpt><trkpt lat="41.92887211459644" lon="2.989817174009498"><ele>184.0</ele><time>2026-05-02T10:40:10.999Z</time></trkpt><trkpt lat="41.92881933248998" lon="2.9897284944636824"><ele>184.0</ele><time>2026-05-02T10:40:14.999Z</time></trkpt><trkpt lat="41.92877399105629" lon="2.989656111560356"><ele>184.0</ele><time>2026-05-02T10:40:18.999Z</time></trkpt><trkpt lat="41.928742765039054" lon="2.989564972085659"><ele>184.0</ele><time>2026-05-02T10:40:22.999Z</time></trkpt><trkpt lat="41.92869930535794" lon="2.989475104607843"><ele>184.0</ele><time>2026-05-02T10:40:26.999Z</time></trkpt><trkpt lat="41.92867242361402" lon="2.9893956534890163"><ele>184.0</ele><time>2026-05-02T10:40:30.999Z</time></trkpt><trkpt lat="41.92864066784685" lon="2.9893213984599565"><ele>184.0</ele><time>2026-05-02T10:40:33.999Z</time></trkpt><trkpt lat="41.92860389358534" lon="2.989252510168363"><ele>184.0</ele><time>2026-05-02T10:40:36.999Z</time></trkpt><trkpt lat="41.92856657774791" lon="2.9891799664366108"><ele>184.0</ele><time>2026-05-02T10:40:39.999Z</time></trkpt><trkpt lat="41.928524450146014" lon="2.989096002718263"><ele>184.0</ele><time>2026-05-02T10:40:43.999Z</time></trkpt><trkpt lat="41.92846467973739" lon="2.9890267185898525"><ele>184.0</ele><time>2026-05-02T10:40:47.999Z</time></trkpt><trkpt lat="41.928406323176226" lon="2.988962223568602"><ele>184.0</ele><time>2026-05-02T10:40:50.999Z</time></trkpt><trkpt lat="41.92834051372955" lon="2.988890438468687"><ele>184.0</ele><time>2026-05-02T10:40:54.999Z</time></trkpt><trkpt lat="41.92829079806072" lon="2.988827736867734"><ele>184.0</ele><time>2026-05-02T10:40:57.999Z</time></trkpt><trkpt lat="41.92823569050036" lon="2.988765984488037"><ele>185.57142857142858</ele><time>2026-05-02T10:41:00.999Z</time></trkpt><trkpt lat="41.928181372363795" lon="2.98870887903966"><ele>187.14285714285714</ele><time>2026-05-02T10:41:03.999Z</time></trkpt><trkpt lat="41.92812772745556" lon="2.9886524700601798"><ele>188.71428571428572</ele><time>2026-05-02T10:41:06.999Z</time></trkpt><trkpt lat="41.92807104383474" lon="2.98859833809312"><ele>190.28571428571428</ele><time>2026-05-02T10:41:09.999Z</time></trkpt><trkpt lat="41.92800602514107" lon="2.988545771178222"><ele>191.85714285714283</ele><time>2026-05-02T10:41:12.999Z</time></trkpt><trkpt lat="41.92793383363222" lon="2.988498450764037"><ele>193.42857142857142</ele><time>2026-05-02T10:41:15.999Z</time></trkpt><trkpt lat="41.927855567949344" lon="2.988459953228429"><ele>195.0</ele><time>2026-05-02T10:41:18.999Z</time></trkpt><trkpt lat="41.927794485975355" lon="2.9884375870920126"><ele>195.0</ele><time>2026-05-02T10:41:20.999Z</time></trkpt><trkpt lat="41.92772551347201" lon="2.988405621267773"><ele>195.0</ele><time>2026-05-02T10:41:22.999Z</time></trkpt><trkpt lat="41.92765383039814" lon="2.988410964609052"><ele>195.0</ele><time>2026-05-02T10:41:24.999Z</time></trkpt><trkpt lat="41.92756938622996" lon="2.988419516848722"><ele>195.0</ele><time>2026-05-02T10:41:26.999Z</time></trkpt><trkpt lat="41.92747635215646" lon="2.9884370577579027"><ele>195.0</ele><time>2026-05-02T10:41:28.999Z</time></trkpt><trkpt lat="41.927406948817946" lon="2.9884383522285125"><ele>195.0</ele><time>2026-05-02T10:41:30.999Z</time></trkpt><trkpt lat="41.92724137656962" lon="2.9884033155428487"><ele>196.33333333333334</ele><time>2026-05-02T10:41:32.998Z</time></trkpt><trkpt lat="41.92714411029816" lon="2.988403024500057"><ele>197.66666666666669</ele><time>2026-05-02T10:41:34.999Z</time></trkpt><trkpt lat="41.92706167400267" lon="2.9884001998162244"><ele>199.0</ele><time>2026-05-02T10:41:36.999Z</time></trkpt><trkpt lat="41.92698835715051" lon="2.988384513435455"><ele>200.33333333333334</ele><time>2026-05-02T10:41:39.999Z</time></trkpt><trkpt lat="41.926905777384306" lon="2.988361321161914"><ele>201.66666666666669</ele><time>2026-05-02T10:41:42.999Z</time></trkpt><trkpt lat="41.926822046253534" lon="2.9883133707235023"><ele>203.0</ele><time>2026-05-02T10:41:45.999Z</time></trkpt><trkpt lat="41.92675300072453" lon="2.9882794139473092"><ele>204.00000000000003</ele><time>2026-05-02T10:41:48.999Z</time></trkpt><trkpt lat="41.92667318301494" lon="2.98823616763998"><ele>205.0</ele><time>2026-05-02T10:41:51.999Z</time></trkpt><trkpt lat="41.92659836577319" lon="2.9881777972248362"><ele>206.0</ele><time>2026-05-02T10:41:57.999Z</time></trkpt><trkpt lat="41.9265144624208" lon="2.988148470175634"><ele>207.0</ele><time>2026-05-02T10:41:59.999Z</time></trkpt><trkpt lat="41.92642441561385" lon="2.988117035972742"><ele>208.00000000000003</ele><time>2026-05-02T10:42:02.999Z</time></trkpt><trkpt lat="41.92634421259435" lon="2.9881086295750334"><ele>209.0</ele><time>2026-05-02T10:42:04.999Z</time></trkpt><trkpt lat="41.92625706374688" lon="2.988093516889518"><ele>209.0</ele><time>2026-05-02T10:42:06.999Z</time></trkpt><trkpt lat="41.92613739054605" lon="2.9880773030939003"><ele>209.0</ele><time>2026-05-02T10:42:08.999Z</time></trkpt><trkpt lat="41.926018807095595" lon="2.988077306737774"><ele>209.0</ele><time>2026-05-02T10:42:10.999Z</time></trkpt><trkpt lat="41.92596472385968" lon="2.988022202917711"><ele>209.0</ele><time>2026-05-02T10:42:11.999Z</time></trkpt><trkpt lat="41.92585172291213" lon="2.988008862092675"><ele>209.0</ele><time>2026-05-02T10:42:13.999Z</time></trkpt><trkpt lat="41.925740000764144" lon="2.9879918742912923"><ele>208.39999999999998</ele><time>2026-05-02T10:42:15.999Z</time></trkpt><trkpt lat="41.9256168721319" lon="2.9879723054562564"><ele>207.8</ele><time>2026-05-02T10:42:17.999Z</time></trkpt><trkpt lat="41.92555433419051" lon="2.987962098844315"><ele>207.2</ele><time>2026-05-02T10:42:18.999Z</time></trkpt><trkpt lat="41.92543469277782" lon="2.987938198675854"><ele>206.60000000000002</ele><time>2026-05-02T10:42:20.999Z</time></trkpt><trkpt lat="41.92532365764857" lon="2.9879144476032278"><ele>206.0</ele><time>2026-05-02T10:42:22.999Z</time></trkpt><trkpt lat="41.92526084214282" lon="2.987901010988457"><ele>206.0</ele><time>2026-05-02T10:42:23.999Z</time></trkpt><trkpt lat="41.925145737420024" lon="2.9878781276964568"><ele>206.0</ele><time>2026-05-02T10:42:25.999Z</time></trkpt><trkpt lat="41.925043229780954" lon="2.987855364241075"><ele>206.0</ele><time>2026-05-02T10:42:27.999Z</time></trkpt><trkpt lat="41.92494627488133" lon="2.987827406676227"><ele>206.0</ele><time>2026-05-02T10:42:29.999Z</time></trkpt><trkpt lat="41.924854847541724" lon="2.9877969452946562"><ele>206.0</ele><time>2026-05-02T10:42:31.999Z</time></trkpt><trkpt lat="41.92477459524347" lon="2.987765459396177"><ele>205.85714285714283</ele><time>2026-05-02T10:42:33.999Z</time></trkpt><trkpt lat="41.92471000266702" lon="2.9877312834823173"><ele>205.71428571428572</ele><time>2026-05-02T10:42:35.999Z</time></trkpt><trkpt lat="41.924652040565476" lon="2.9876979096118825"><ele>205.57142857142856</ele><time>2026-05-02T10:42:37.999Z</time></trkpt><trkpt lat="41.92458901685796" lon="2.987719787365613"><ele>205.42857142857142</ele><time>2026-05-02T10:42:39.999Z</time></trkpt><trkpt lat="41.92451724850371" lon="2.9876912232882886"><ele>205.28571428571428</ele><time>2026-05-02T10:42:42.999Z</time></trkpt><trkpt lat="41.924454076228876" lon="2.987674628282858"><ele>205.14285714285714</ele><time>2026-05-02T10:42:45.999Z</time></trkpt><trkpt lat="41.9243803589127" lon="2.9876397957664036"><ele>205.0</ele><time>2026-05-02T10:42:49.999Z</time></trkpt><trkpt lat="41.92430753542346" lon="2.9876158775258372"><ele>205.0</ele><time>2026-05-02T10:42:52.999Z</time></trkpt><trkpt lat="41.924242651412285" lon="2.987588676998064"><ele>205.0</ele><time>2026-05-02T10:42:55.999Z</time></trkpt><trkpt lat="41.92418232978596" lon="2.987548067931421"><ele>205.0</ele><time>2026-05-02T10:42:58.999Z</time></trkpt><trkpt lat="41.92412751939743" lon="2.9874924843058546"><ele>205.0</ele><time>2026-05-02T10:43:01.999Z</time></trkpt><trkpt lat="41.92405973534366" lon="2.9874283495464398"><ele>205.0</ele><time>2026-05-02T10:43:05.999Z</time></trkpt><trkpt lat="41.924000938962266" lon="2.987381476099577"><ele>205.0</ele><time>2026-05-02T10:43:08.999Z</time></trkpt><trkpt lat="41.92392747181139" lon="2.9873565533000908"><ele>205.0</ele><time>2026-05-02T10:43:11.999Z</time></trkpt><trkpt lat="41.923842214701885" lon="2.9873595500159826"><ele>204.49999999999997</ele><time>2026-05-02T10:43:14.999Z</time></trkpt><trkpt lat="41.923771414092045" lon="2.9873937769738337"><ele>204.0</ele><time>2026-05-02T10:43:16.999Z</time></trkpt><trkpt lat="41.92369860055858" lon="2.98743154097755"><ele>203.5</ele><time>2026-05-02T10:43:18.999Z</time></trkpt><trkpt lat="41.92362342966004" lon="2.9874700517809947"><ele>203.0</ele><time>2026-05-02T10:43:20.999Z</time></trkpt><trkpt lat="41.92354985455036" lon="2.987510377579742"><ele>202.49999999999997</ele><time>2026-05-02T10:43:22.999Z</time></trkpt><trkpt lat="41.923465695785055" lon="2.9875216466807055"><ele>202.0</ele><time>2026-05-02T10:43:24.999Z</time></trkpt><trkpt lat="41.9233682711818" lon="2.9875270911260943"><ele>201.99999999999997</ele><time>2026-05-02T10:43:26.999Z</time></trkpt><trkpt lat="41.92327409077407" lon="2.9875276150226173"><ele>202.0</ele><time>2026-05-02T10:43:28.999Z</time></trkpt><trkpt lat="41.92319079486274" lon="2.987544481704838"><ele>202.0</ele><time>2026-05-02T10:43:30.999Z</time></trkpt><trkpt lat="41.92311261781067" lon="2.9875501950634726"><ele>202.0</ele><time>2026-05-02T10:43:33.999Z</time></trkpt><trkpt lat="41.92300042590288" lon="2.987547353494761"><ele>201.99999999999997</ele><time>2026-05-02T10:43:35.999Z</time></trkpt><trkpt lat="41.9229255395076" lon="2.9875331837828916"><ele>202.0</ele><time>2026-05-02T10:43:37.999Z</time></trkpt><trkpt lat="41.922849466098825" lon="2.987527055599846"><ele>202.0</ele><time>2026-05-02T10:43:39.999Z</time></trkpt><trkpt lat="41.92276573224257" lon="2.9875173388073932"><ele>202.0</ele><time>2026-05-02T10:43:42.999Z</time></trkpt><trkpt lat="41.92269020122577" lon="2.987517858060226"><ele>202.0</ele><time>2026-05-02T10:43:45.999Z</time></trkpt><trkpt lat="41.92257474495008" lon="2.9875229298592356"><ele>202.0</ele><time>2026-05-02T10:43:47.999Z</time></trkpt><trkpt lat="41.92249210481981" lon="2.9874627741539004"><ele>202.0</ele><time>2026-05-02T10:43:49.999Z</time></trkpt><trkpt lat="41.922407332246976" lon="2.9874607728395275"><ele>206.2</ele><time>2026-05-02T10:43:51.999Z</time></trkpt><trkpt lat="41.92231534620025" lon="2.9874573414686694"><ele>210.39999999999998</ele><time>2026-05-02T10:43:53.999Z</time></trkpt><trkpt lat="41.922214949368424" lon="2.9874519975803246"><ele>214.60000000000002</ele><time>2026-05-02T10:43:55.999Z</time></trkpt><trkpt lat="41.92211277318692" lon="2.9874436855979996"><ele>218.8</ele><time>2026-05-02T10:43:57.999Z</time></trkpt><trkpt lat="41.92201463780258" lon="2.9874343721285905"><ele>223.0</ele><time>2026-05-02T10:43:59.999Z</time></trkpt><trkpt lat="41.921911935687994" lon="2.9874135049437833"><ele>223.0</ele><time>2026-05-02T10:44:01.999Z</time></trkpt><trkpt lat="41.92184686768104" lon="2.987401897509614"><ele>223.0</ele><time>2026-05-02T10:44:02.999Z</time></trkpt><trkpt lat="41.92173878762646" lon="2.987479956686066"><ele>223.0</ele><time>2026-05-02T10:44:04.999Z</time></trkpt><trkpt lat="41.92164167218518" lon="2.987492228776489"><ele>223.0</ele><time>2026-05-02T10:44:06.999Z</time></trkpt><trkpt lat="41.92154083893404" lon="2.9875071303182694"><ele>223.0</ele><time>2026-05-02T10:44:08.999Z</time></trkpt><trkpt lat="41.92143690948588" lon="2.9875308150123647"><ele>221.49999999999997</ele><time>2026-05-02T10:44:10.999Z</time></trkpt><trkpt lat="41.921338600906665" lon="2.98754421306746"><ele>220.0</ele><time>2026-05-02T10:44:12.999Z</time></trkpt><trkpt lat="41.92125354223667" lon="2.9875671678330367"><ele>218.5</ele><time>2026-05-02T10:44:14.999Z</time></trkpt><trkpt lat="41.92117357622503" lon="2.9875912623364105"><ele>217.0</ele><time>2026-05-02T10:44:16.999Z</time></trkpt><trkpt lat="41.9210851636854" lon="2.987598018996856"><ele>215.49999999999997</ele><time>2026-05-02T10:44:18.999Z</time></trkpt><trkpt lat="41.920995446290746" lon="2.9875894758594708"><ele>214.0</ele><time>2026-05-02T10:44:20.999Z</time></trkpt><trkpt lat="41.920917532335054" lon="2.987555159901386"><ele>215.71428571428572</ele><time>2026-05-02T10:44:22.999Z</time></trkpt><trkpt lat="41.9208523663163" lon="2.987503985620796"><ele>217.42857142857144</ele><time>2026-05-02T10:44:24.999Z</time></trkpt><trkpt lat="41.92079026982965" lon="2.987433046173114"><ele>219.14285714285717</ele><time>2026-05-02T10:44:27.999Z</time></trkpt><trkpt lat="41.92075092088674" lon="2.9873563715253204"><ele>220.85714285714286</ele><time>2026-05-02T10:44:29.999Z</time></trkpt><trkpt lat="41.92071337167385" lon="2.987274571448421"><ele>222.57142857142856</ele><time>2026-05-02T10:44:32.999Z</time></trkpt><trkpt lat="41.92068212585206" lon="2.9871892523138337"><ele>224.2857142857143</ele><time>2026-05-02T10:44:35.999Z</time></trkpt><trkpt lat="41.92064447176921" lon="2.987100191189187"><ele>226.0</ele><time>2026-05-02T10:44:38.999Z</time></trkpt><trkpt lat="41.92058187433435" lon="2.9870163798622014"><ele>226.0</ele><time>2026-05-02T10:44:42.999Z</time></trkpt><trkpt lat="41.92051428159472" lon="2.986975086544004"><ele>226.00000000000003</ele><time>2026-05-02T10:44:45.999Z</time></trkpt><trkpt lat="41.92043075853603" lon="2.9869909616423036"><ele>226.00000000000003</ele><time>2026-05-02T10:44:48.999Z</time></trkpt><trkpt lat="41.92036848820905" lon="2.9870450159527615"><ele>226.0</ele><time>2026-05-02T10:44:50.999Z</time></trkpt><trkpt lat="41.92028471093124" lon="2.987117566939389"><ele>226.0</ele><time>2026-05-02T10:44:52.999Z</time></trkpt><trkpt lat="41.92017537829863" lon="2.987194046997606"><ele>226.0</ele><time>2026-05-02T10:44:54.999Z</time></trkpt><trkpt lat="41.920079769522616" lon="2.9871532754261905"><ele>226.0</ele><time>2026-05-02T10:44:55.999Z</time></trkpt><trkpt lat="41.92001990870695" lon="2.9871994774745"><ele>226.0</ele><time>2026-05-02T10:44:56.999Z</time></trkpt><trkpt lat="41.91996002212305" lon="2.9872456995316092"><ele>226.0</ele><time>2026-05-02T10:44:57.999Z</time></trkpt><trkpt lat="41.91989912208916" lon="2.9872965698441125"><ele>226.0</ele><time>2026-05-02T10:44:58.999Z</time></trkpt><trkpt lat="41.91984621157766" lon="2.9873425757282597"><ele>226.0</ele><time>2026-05-02T10:44:59.999Z</time></trkpt><trkpt lat="41.91978738379055" lon="2.987378896710407"><ele>226.0</ele><time>2026-05-02T10:45:00.999Z</time></trkpt><trkpt lat="41.91972379897706" lon="2.98740187128821"><ele>226.16666666666666</ele><time>2026-05-02T10:45:01.999Z</time></trkpt><trkpt lat="41.91966078939938" lon="2.987418853285879"><ele>226.33333333333331</ele><time>2026-05-02T10:45:02.999Z</time></trkpt><trkpt lat="41.919592508047394" lon="2.987427252196821"><ele>226.5</ele><time>2026-05-02T10:45:03.999Z</time></trkpt><trkpt lat="41.91951297983714" lon="2.987449720692886"><ele>226.66666666666669</ele><time>2026-05-02T10:45:04.999Z</time></trkpt><trkpt lat="41.919444958745736" lon="2.9874922013074756"><ele>226.83333333333334</ele><time>2026-05-02T10:45:05.999Z</time></trkpt><trkpt lat="41.91937052592179" lon="2.9875947028449827"><ele>227.0</ele><time>2026-05-02T10:45:06.999Z</time></trkpt><trkpt lat="41.91932688208635" lon="2.9877066895823856"><ele>225.83333333333334</ele><time>2026-05-02T10:45:07.999Z</time></trkpt><trkpt lat="41.919292036046265" lon="2.987796371944243"><ele>224.66666666666669</ele><time>2026-05-02T10:45:08.999Z</time></trkpt><trkpt lat="41.91925829276329" lon="2.987892164329485"><ele>223.5</ele><time>2026-05-02T10:45:09.999Z</time></trkpt><trkpt lat="41.91920989847656" lon="2.988025902769344"><ele>222.33333333333331</ele><time>2026-05-02T10:45:11.999Z</time></trkpt><trkpt lat="41.91914204789109" lon="2.9880710388140526"><ele>221.16666666666666</ele><time>2026-05-02T10:45:13.999Z</time></trkpt><trkpt lat="41.91904661773137" lon="2.988085431903761"><ele>220.0</ele><time>2026-05-02T10:45:15.999Z</time></trkpt><trkpt lat="41.918931081526395" lon="2.9880855810133107"><ele>220.0</ele><time>2026-05-02T10:45:17.999Z</time></trkpt><trkpt lat="41.918827368989" lon="2.988094158107675"><ele>220.0</ele><time>2026-05-02T10:45:19.999Z</time></trkpt><trkpt lat="41.918722395153495" lon="2.98813805917302"><ele>220.0</ele><time>2026-05-02T10:45:21.999Z</time></trkpt><trkpt lat="41.91860541315467" lon="2.988217629677975"><ele>220.0</ele><time>2026-05-02T10:45:23.999Z</time></trkpt><trkpt lat="41.91854714974776" lon="2.988279919101028"><ele>220.0</ele><time>2026-05-02T10:45:24.999Z</time></trkpt><trkpt lat="41.918495414352336" lon="2.9883396354831637"><ele>219.2</ele><time>2026-05-02T10:45:25.999Z</time></trkpt><trkpt lat="41.91844338299116" lon="2.988405219278014"><ele>218.4</ele><time>2026-05-02T10:45:26.999Z</time></trkpt><trkpt lat="41.91839554905605" lon="2.988465818080165"><ele>217.60000000000002</ele><time>2026-05-02T10:45:27.999Z</time></trkpt><trkpt lat="41.91830171887375" lon="2.9885601093141374"><ele>216.8</ele><time>2026-05-02T10:45:29.999Z</time></trkpt><trkpt lat="41.918191246786435" lon="2.988639589350238"><ele>216.0</ele><time>2026-05-02T10:45:31.999Z</time></trkpt><trkpt lat="41.918128414603565" lon="2.9886818197125047"><ele>216.0</ele><time>2026-05-02T10:45:32.999Z</time></trkpt><trkpt lat="41.91806403234106" lon="2.9887250918766477"><ele>216.0</ele><time>2026-05-02T10:45:33.999Z</time></trkpt><trkpt lat="41.918004936047275" lon="2.9887639458505326"><ele>216.0</ele><time>2026-05-02T10:45:34.999Z</time></trkpt><trkpt lat="41.91794528890833" lon="2.988796270078002"><ele>216.0</ele><time>2026-05-02T10:45:35.999Z</time></trkpt><trkpt lat="41.917828642167045" lon="2.9888266759105204"><ele>216.0</ele><time>2026-05-02T10:45:37.999Z</time></trkpt><trkpt lat="41.91770507162086" lon="2.988832999151402"><ele>216.0</ele><time>2026-05-02T10:45:39.999Z</time></trkpt><trkpt lat="41.91758710012377" lon="2.988823050211084"><ele>217.20000000000002</ele><time>2026-05-02T10:45:41.999Z</time></trkpt><trkpt lat="41.91751894570035" lon="2.988830908638312"><ele>218.40000000000003</ele><time>2026-05-02T10:45:42.999Z</time></trkpt><trkpt lat="41.917408997363324" lon="2.988856711347673"><ele>219.6</ele><time>2026-05-02T10:45:44.999Z</time></trkpt><trkpt lat="41.91730341017945" lon="2.988891160818028"><ele>220.8</ele><time>2026-05-02T10:45:47Z</time></trkpt><trkpt lat="41.917193999241434" lon="2.9889386545669945"><ele>222.0</ele><time>2026-05-02T10:45:49Z</time></trkpt><trkpt lat="41.91708468440099" lon="2.988996049472594"><ele>222.0</ele><time>2026-05-02T10:45:51Z</time></trkpt><trkpt lat="41.91697001875836" lon="2.9890672246324894"><ele>222.0</ele><time>2026-05-02T10:45:53Z</time></trkpt><trkpt lat="41.91685347421525" lon="2.9891319213594354"><ele>222.0</ele><time>2026-05-02T10:45:55Z</time></trkpt><trkpt lat="41.91673813180423" lon="2.9891643681516946"><ele>222.0</ele><time>2026-05-02T10:45:57Z</time></trkpt><trkpt lat="41.91662922149368" lon="2.9891307492401444"><ele>222.25</ele><time>2026-05-02T10:45:59Z</time></trkpt><trkpt lat="41.9165089262331" lon="2.9890880651197715"><ele>222.5</ele><time>2026-05-02T10:46:01Z</time></trkpt><trkpt lat="41.91640121678329" lon="2.989039462165299"><ele>222.75</ele><time>2026-05-02T10:46:03Z</time></trkpt><trkpt lat="41.916300628719824" lon="2.988979839478168"><ele>223.0</ele><time>2026-05-02T10:46:05Z</time></trkpt><trkpt lat="41.91619847074188" lon="2.988904507910218"><ele>222.99999999999997</ele><time>2026-05-02T10:46:07Z</time></trkpt><trkpt lat="41.91609021446972" lon="2.9888107818623415"><ele>223.0</ele><time>2026-05-02T10:46:09Z</time></trkpt><trkpt lat="41.91603546437116" lon="2.9887580345337335"><ele>223.0</ele><time>2026-05-02T10:46:10Z</time></trkpt><trkpt lat="41.915979308779846" lon="2.9886966957229077"><ele>223.0</ele><time>2026-05-02T10:46:11Z</time></trkpt><trkpt lat="41.91593050286386" lon="2.9886313983349457"><ele>222.99999999999997</ele><time>2026-05-02T10:46:12Z</time></trkpt><trkpt lat="41.915893295035794" lon="2.9885582496390612"><ele>223.0</ele><time>2026-05-02T10:46:12.999Z</time></trkpt><trkpt lat="41.91589821717797" lon="2.988468041564683"><ele>223.16666666666666</ele><time>2026-05-02T10:46:13.999Z</time></trkpt><trkpt lat="41.915896428432376" lon="2.9883812822946907"><ele>223.33333333333331</ele><time>2026-05-02T10:46:14.999Z</time></trkpt><trkpt lat="41.915938425552405" lon="2.988302983302074"><ele>223.5</ele><time>2026-05-02T10:46:15.999Z</time></trkpt><trkpt lat="41.91600786535432" lon="2.988177910220846"><ele>223.66666666666669</ele><time>2026-05-02T10:46:17.999Z</time></trkpt><trkpt lat="41.91601900661122" lon="2.9880333044976717"><ele>223.83333333333334</ele><time>2026-05-02T10:46:19.999Z</time></trkpt><trkpt lat="41.916015246132645" lon="2.9879208617063586"><ele>224.0</ele><time>2026-05-02T10:46:21.999Z</time></trkpt><trkpt lat="41.916001974964935" lon="2.9878352171535374"><ele>224.16666666666669</ele><time>2026-05-02T10:46:23.999Z</time></trkpt><trkpt lat="41.91597385500647" lon="2.987739274684237"><ele>224.33333333333334</ele><time>2026-05-02T10:46:26.999Z</time></trkpt><trkpt lat="41.915930990240184" lon="2.9876252219308084"><ele>224.5</ele><time>2026-05-02T10:46:29.999Z</time></trkpt><trkpt lat="41.91587962490927" lon="2.9875396027249774"><ele>224.66666666666669</ele><time>2026-05-02T10:46:32.999Z</time></trkpt><trkpt lat="41.91583554146013" lon="2.9874554497402457"><ele>224.83333333333334</ele><time>2026-05-02T10:46:35.999Z</time></trkpt><trkpt lat="41.915796926632474" lon="2.98736779812858"><ele>225.0</ele><time>2026-05-02T10:46:38.999Z</time></trkpt><trkpt lat="41.915762899292034" lon="2.9872810089351796"><ele>225.83333333333334</ele><time>2026-05-02T10:46:41.999Z</time></trkpt><trkpt lat="41.91572282101265" lon="2.987193749626058"><ele>226.66666666666669</ele><time>2026-05-02T10:46:44.999Z</time></trkpt><trkpt lat="41.915675364871035" lon="2.9871151093711568"><ele>227.5</ele><time>2026-05-02T10:46:47.999Z</time></trkpt><trkpt lat="41.9156277426906" lon="2.9870378815091736"><ele>228.33333333333334</ele><time>2026-05-02T10:46:50.999Z</time></trkpt><trkpt lat="41.9155794925065" lon="2.986965611959667"><ele>229.16666666666669</ele><time>2026-05-02T10:46:53.999Z</time></trkpt><trkpt lat="41.915499522417036" lon="2.986887901443139"><ele>230.0</ele><time>2026-05-02T10:46:57.999Z</time></trkpt><trkpt lat="41.91544168760677" lon="2.9868232739067984"><ele>229.99999999999997</ele><time>2026-05-02T10:47:00.999Z</time></trkpt><trkpt lat="41.91538492355538" lon="2.9867660295705893"><ele>230.0</ele><time>2026-05-02T10:47:03.999Z</time></trkpt><trkpt lat="41.915330296469264" lon="2.986717816648466"><ele>229.99999999999997</ele><time>2026-05-02T10:47:06.999Z</time></trkpt><trkpt lat="41.91526155964224" lon="2.9866557261775393"><ele>229.99999999999997</ele><time>2026-05-02T10:47:10.999Z</time></trkpt><trkpt lat="41.91519156453849" lon="2.986596448294074"><ele>230.0</ele><time>2026-05-02T10:47:14.999Z</time></trkpt><trkpt lat="41.915141198924374" lon="2.9865409530986406"><ele>229.99999999999997</ele><time>2026-05-02T10:47:17.999Z</time></trkpt><trkpt lat="41.915086696801225" lon="2.986486041064356"><ele>229.99999999999997</ele><time>2026-05-02T10:47:20.999Z</time></trkpt><trkpt lat="41.91503319059434" lon="2.9864342164827624"><ele>231.00000000000003</ele><time>2026-05-02T10:47:23.999Z</time></trkpt><trkpt lat="41.914995657169044" lon="2.9863615719003382"><ele>232.0</ele><time>2026-05-02T10:47:26.999Z</time></trkpt><trkpt lat="41.91496374487778" lon="2.9862869047167924"><ele>233.0</ele><time>2026-05-02T10:47:29.999Z</time></trkpt><trkpt lat="41.9149343630457" lon="2.986200870452382"><ele>234.0</ele><time>2026-05-02T10:47:32.999Z</time></trkpt><trkpt lat="41.914919758248416" lon="2.986082189555074"><ele>235.00000000000003</ele><time>2026-05-02T10:47:35.999Z</time></trkpt><trkpt lat="41.914902154466404" lon="2.985974090892967"><ele>236.0</ele><time>2026-05-02T10:47:38.999Z</time></trkpt><trkpt lat="41.91489312248819" lon="2.9858662419935715"><ele>237.33333333333334</ele><time>2026-05-02T10:47:41.999Z</time></trkpt><trkpt lat="41.914892922442604" lon="2.9857604443665826"><ele>238.66666666666669</ele><time>2026-05-02T10:47:44.999Z</time></trkpt><trkpt lat="41.914909439482656" lon="2.9856585175492594"><ele>240.0</ele><time>2026-05-02T10:47:47.999Z</time></trkpt><trkpt lat="41.914940436506534" lon="2.985559151746156"><ele>241.33333333333331</ele><time>2026-05-02T10:47:50.999Z</time></trkpt><trkpt lat="41.9149716436272" lon="2.985460592261838"><ele>242.66666666666666</ele><time>2026-05-02T10:47:54Z</time></trkpt><trkpt lat="41.91501998398247" lon="2.985379065596887"><ele>244.0</ele><time>2026-05-02T10:47:57Z</time></trkpt><trkpt lat="41.91506920135607" lon="2.985311268653419"><ele>243.16666666666666</ele><time>2026-05-02T10:48:00Z</time></trkpt><trkpt lat="41.91511827315376" lon="2.98525781996675"><ele>242.33333333333331</ele><time>2026-05-02T10:48:03Z</time></trkpt><trkpt lat="41.91516793771554" lon="2.9852006033479275"><ele>241.5</ele><time>2026-05-02T10:48:06Z</time></trkpt><trkpt lat="41.9152092336146" lon="2.9851189998407643"><ele>240.66666666666669</ele><time>2026-05-02T10:48:09Z</time></trkpt><trkpt lat="41.91523822255377" lon="2.985025122174113"><ele>239.83333333333334</ele><time>2026-05-02T10:48:12Z</time></trkpt><trkpt lat="41.91524631052922" lon="2.984910910119659"><ele>239.0</ele><time>2026-05-02T10:48:15Z</time></trkpt><trkpt lat="41.91520029127209" lon="2.9848083362831446"><ele>239.00000000000003</ele><time>2026-05-02T10:48:18Z</time></trkpt><trkpt lat="41.915136504080365" lon="2.9847403016439364"><ele>239.0</ele><time>2026-05-02T10:48:21Z</time></trkpt><trkpt lat="41.91506635006518" lon="2.9846769667164255"><ele>239.0</ele><time>2026-05-02T10:48:24Z</time></trkpt><trkpt lat="41.91501465987409" lon="2.984626347074547"><ele>239.0</ele><time>2026-05-02T10:48:27Z</time></trkpt><trkpt lat="41.91494947489452" lon="2.9845612831286634"><ele>239.00000000000003</ele><time>2026-05-02T10:48:29Z</time></trkpt><trkpt lat="41.91488756308994" lon="2.984500454229981"><ele>239.0</ele><time>2026-05-02T10:48:32Z</time></trkpt><trkpt lat="41.91482386005483" lon="2.9844535180252247"><ele>241.33333333333334</ele><time>2026-05-02T10:48:35Z</time></trkpt><trkpt lat="41.91475732241304" lon="2.984406261246861"><ele>243.66666666666669</ele><time>2026-05-02T10:48:38Z</time></trkpt><trkpt lat="41.91468598839582" lon="2.9843461473134614"><ele>246.0</ele><time>2026-05-02T10:48:41.999Z</time></trkpt><trkpt lat="41.914632640524985" lon="2.984277890337067"><ele>248.33333333333331</ele><time>2026-05-02T10:48:44.999Z</time></trkpt><trkpt lat="41.914615201746315" lon="2.98419275379445"><ele>250.66666666666666</ele><time>2026-05-02T10:48:46.999Z</time></trkpt><trkpt lat="41.914595174564454" lon="2.98407698813715"><ele>253.0</ele><time>2026-05-02T10:48:48.999Z</time></trkpt><trkpt lat="41.914564557572895" lon="2.9839749670076636"><ele>252.8</ele><time>2026-05-02T10:48:50.999Z</time></trkpt><trkpt lat="41.914509150969025" lon="2.9838798793026773"><ele>252.60000000000002</ele><time>2026-05-02T10:48:52.999Z</time></trkpt><trkpt lat="41.914442259883344" lon="2.9838110857702342"><ele>252.39999999999998</ele><time>2026-05-02T10:48:54.999Z</time></trkpt><trkpt lat="41.91436102972994" lon="2.983757698229648"><ele>252.2</ele><time>2026-05-02T10:48:56.999Z</time></trkpt><trkpt lat="41.914268508156724" lon="2.9837301738633606"><ele>252.0</ele><time>2026-05-02T10:48:58.999Z</time></trkpt><trkpt lat="41.91417500250713" lon="2.983712905261738"><ele>252.0</ele><time>2026-05-02T10:49:00.999Z</time></trkpt><trkpt lat="41.914079265365565" lon="2.9836960097642904"><ele>252.0</ele><time>2026-05-02T10:49:02.999Z</time></trkpt><trkpt lat="41.91398795121136" lon="2.9836902733257764"><ele>252.0</ele><time>2026-05-02T10:49:04.999Z</time></trkpt><trkpt lat="41.91389974223481" lon="2.983682174864266"><ele>252.0</ele><time>2026-05-02T10:49:06.999Z</time></trkpt><trkpt lat="41.913815829158494" lon="2.983659281844085"><ele>252.0</ele><time>2026-05-02T10:49:08.999Z</time></trkpt><trkpt lat="41.91373261031856" lon="2.983636454865794"><ele>252.0</ele><time>2026-05-02T10:49:10.999Z</time></trkpt><trkpt lat="41.913637832263845" lon="2.9836213026629457"><ele>252.0</ele><time>2026-05-02T10:49:12.999Z</time></trkpt><trkpt lat="41.913524753541125" lon="2.9836060900526866"><ele>252.0</ele><time>2026-05-02T10:49:14.999Z</time></trkpt><trkpt lat="41.91340944058163" lon="2.9835143521343697"><ele>252.0</ele><time>2026-05-02T10:49:16.999Z</time></trkpt><trkpt lat="41.91334301738433" lon="2.9835111112728305"><ele>252.0</ele><time>2026-05-02T10:49:17.999Z</time></trkpt><trkpt lat="41.913278885236316" lon="2.983508386567261"><ele>252.0</ele><time>2026-05-02T10:49:18.999Z</time></trkpt><trkpt lat="41.91321033860024" lon="2.9835068009562526"><ele>252.0</ele><time>2026-05-02T10:49:19.999Z</time></trkpt><trkpt lat="41.913145626175314" lon="2.98350680095761"><ele>251.14285714285714</ele><time>2026-05-02T10:49:20.999Z</time></trkpt><trkpt lat="41.913081978125824" lon="2.9835079420456205"><ele>250.28571428571428</ele><time>2026-05-02T10:49:21.999Z</time></trkpt><trkpt lat="41.913015404452736" lon="2.98351198353615"><ele>249.42857142857144</ele><time>2026-05-02T10:49:22.999Z</time></trkpt><trkpt lat="41.91294706191346" lon="2.9835238470334957"><ele>248.57142857142858</ele><time>2026-05-02T10:49:23.999Z</time></trkpt><trkpt lat="41.912875172042995" lon="2.9835480115580566"><ele>247.71428571428572</ele><time>2026-05-02T10:49:24.999Z</time></trkpt><trkpt lat="41.91281153590585" lon="2.9835732157154577"><ele>246.8571428571429</ele><time>2026-05-02T10:49:25.999Z</time></trkpt><trkpt lat="41.91274508260626" lon="2.983593131148682"><ele>246.00000000000003</ele><time>2026-05-02T10:49:26.999Z</time></trkpt><trkpt lat="41.91268082393432" lon="2.9836119633315885"><ele>245.83333333333334</ele><time>2026-05-02T10:49:27.999Z</time></trkpt><trkpt lat="41.91255740024851" lon="2.9836262009586894"><ele>245.66666666666669</ele><time>2026-05-02T10:49:29.999Z</time></trkpt><trkpt lat="41.91243325046572" lon="2.98359749568907"><ele>245.5</ele><time>2026-05-02T10:49:31.999Z</time></trkpt><trkpt lat="41.912374761309486" lon="2.983559184226435"><ele>245.33333333333334</ele><time>2026-05-02T10:49:32.999Z</time></trkpt><trkpt lat="41.91232139461063" lon="2.9835127156570245"><ele>245.16666666666669</ele><time>2026-05-02T10:49:33.999Z</time></trkpt><trkpt lat="41.91226696123881" lon="2.98345688439313"><ele>245.0</ele><time>2026-05-02T10:49:34.999Z</time></trkpt><trkpt lat="41.91221996940878" lon="2.983397987039378"><ele>247.14285714285714</ele><time>2026-05-02T10:49:35.999Z</time></trkpt><trkpt lat="41.91216205587922" lon="2.983340872718454"><ele>249.28571428571428</ele><time>2026-05-02T10:49:36.999Z</time></trkpt><trkpt lat="41.912118337119836" lon="2.9832736405231723"><ele>251.42857142857144</ele><time>2026-05-02T10:49:37.999Z</time></trkpt><trkpt lat="41.912089058242465" lon="2.983189236991167"><ele>253.57142857142858</ele><time>2026-05-02T10:49:38.999Z</time></trkpt><trkpt lat="41.91203484314136" lon="2.9831301345514323"><ele>255.71428571428572</ele><time>2026-05-02T10:49:39.999Z</time></trkpt><trkpt lat="41.91199374225821" lon="2.9830539877537685"><ele>257.8571428571429</ele><time>2026-05-02T10:49:40.999Z</time></trkpt><trkpt lat="41.91195438117809" lon="2.9829782704986316"><ele>260.0</ele><time>2026-05-02T10:49:41.999Z</time></trkpt><trkpt lat="41.911923565418526" lon="2.982898872832204"><ele>260.0</ele><time>2026-05-02T10:49:42.999Z</time></trkpt><trkpt lat="41.91188875035626" lon="2.982824749947772"><ele>260.0</ele><time>2026-05-02T10:49:43.999Z</time></trkpt><trkpt lat="41.91185177657686" lon="2.9827548489620135"><ele>260.0</ele><time>2026-05-02T10:49:44.999Z</time></trkpt><trkpt lat="41.911830416252684" lon="2.982674452814922"><ele>260.0</ele><time>2026-05-02T10:49:45.999Z</time></trkpt><trkpt lat="41.911745630657165" lon="2.982553560234763"><ele>260.0</ele><time>2026-05-02T10:49:47.999Z</time></trkpt><trkpt lat="41.911678325996476" lon="2.9824171086710716"><ele>260.0</ele><time>2026-05-02T10:49:49.999Z</time></trkpt><trkpt lat="41.911625627387735" lon="2.9822780265573283"><ele>259.83333333333337</ele><time>2026-05-02T10:49:51.999Z</time></trkpt><trkpt lat="41.911598171746014" lon="2.982138816638485"><ele>259.6666666666667</ele><time>2026-05-02T10:49:53.999Z</time></trkpt><trkpt lat="41.911601743564" lon="2.9820078443783733"><ele>259.5</ele><time>2026-05-02T10:49:55.999Z</time></trkpt><trkpt lat="41.91160588686499" lon="2.9818944341969753"><ele>259.3333333333333</ele><time>2026-05-02T10:49:58Z</time></trkpt><trkpt lat="41.91161595963065" lon="2.981802966733138"><ele>259.16666666666663</ele><time>2026-05-02T10:50:00Z</time></trkpt><trkpt lat="41.911615552470316" lon="2.9817171128579787"><ele>259.0</ele><time>2026-05-02T10:50:03Z</time></trkpt><trkpt lat="41.91160958090843" lon="2.981602657467931"><ele>259.8333333333333</ele><time>2026-05-02T10:50:07Z</time></trkpt><trkpt lat="41.91160209080851" lon="2.981502682198284"><ele>260.66666666666663</ele><time>2026-05-02T10:50:11Z</time></trkpt><trkpt lat="41.91159333682015" lon="2.9813983763925638"><ele>261.5</ele><time>2026-05-02T10:50:16Z</time></trkpt><trkpt lat="41.91157137995679" lon="2.9812860817067834"><ele>262.3333333333333</ele><time>2026-05-02T10:50:19.999Z</time></trkpt><trkpt lat="41.91155199283239" lon="2.9811937458832714"><ele>263.1666666666667</ele><time>2026-05-02T10:50:23.999Z</time></trkpt><trkpt lat="41.91152956872274" lon="2.9811030015663373"><ele>264.0</ele><time>2026-05-02T10:50:27.999Z</time></trkpt><trkpt lat="41.91148600166143" lon="2.981032673358381"><ele>264.0</ele><time>2026-05-02T10:50:31.999Z</time></trkpt><trkpt lat="41.91144314789533" lon="2.9809576615469777"><ele>264.0</ele><time>2026-05-02T10:50:36.999Z</time></trkpt><trkpt lat="41.911399989117434" lon="2.9808922833935347"><ele>264.0</ele><time>2026-05-02T10:50:40.999Z</time></trkpt><trkpt lat="41.91134246345234" lon="2.9808363778316007"><ele>264.0</ele><time>2026-05-02T10:50:45.999Z</time></trkpt><trkpt lat="41.91127696276256" lon="2.98080594006566"><ele>264.0</ele><time>2026-05-02T10:50:50.999Z</time></trkpt><trkpt lat="41.9112043359958" lon="2.980817319251376"><ele>264.0</ele><time>2026-05-02T10:50:55.999Z</time></trkpt><trkpt lat="41.911139081603075" lon="2.9808656785498764"><ele>264.0</ele><time>2026-05-02T10:51:00.999Z</time></trkpt><trkpt lat="41.91107951850624" lon="2.9809223042642383"><ele>264.0</ele><time>2026-05-02T10:51:05.999Z</time></trkpt><trkpt lat="41.91102055798152" lon="2.980986633318527"><ele>264.0</ele><time>2026-05-02T10:51:10.999Z</time></trkpt><trkpt lat="41.91096641974461" lon="2.9810300988456633"><ele>264.0</ele><time>2026-05-02T10:51:14.999Z</time></trkpt><trkpt lat="41.910904180583096" lon="2.981052407925102"><ele>264.0</ele><time>2026-05-02T10:51:18.999Z</time></trkpt><trkpt lat="41.91083155366802" lon="2.9810598639281616"><ele>264.0</ele><time>2026-05-02T10:51:22.999Z</time></trkpt><trkpt lat="41.91075970840009" lon="2.9810537122118417"><ele>264.0</ele><time>2026-05-02T10:51:26.999Z</time></trkpt><trkpt lat="41.91068314620996" lon="2.9810392165944064"><ele>264.0</ele><time>2026-05-02T10:51:30.999Z</time></trkpt><trkpt lat="41.9106059608531" lon="2.981011152643797"><ele>264.7142857142857</ele><time>2026-05-02T10:51:34.999Z</time></trkpt><trkpt lat="41.910534213782476" lon="2.9809825453666647"><ele>265.42857142857144</ele><time>2026-05-02T10:51:37.999Z</time></trkpt><trkpt lat="41.910475335291274" lon="2.9809359031622416"><ele>266.14285714285717</ele><time>2026-05-02T10:51:40.999Z</time></trkpt><trkpt lat="41.910414700916256" lon="2.980876205763034"><ele>266.8571428571429</ele><time>2026-05-02T10:51:43.999Z</time></trkpt><trkpt lat="41.91036725637056" lon="2.980807791169033"><ele>267.5714285714286</ele><time>2026-05-02T10:51:47.998Z</time></trkpt><trkpt lat="41.91032053481266" lon="2.980723586029937"><ele>268.2857142857143</ele><time>2026-05-02T10:51:51.998Z</time></trkpt><trkpt lat="41.91030493142565" lon="2.9806402440159356"><ele>269.0</ele><time>2026-05-02T10:51:55.998Z</time></trkpt><trkpt lat="41.91028399809274" lon="2.9805559334929295"><ele>270.7142857142857</ele><time>2026-05-02T10:51:59.998Z</time></trkpt><trkpt lat="41.91025481096743" lon="2.9804543920557385"><ele>272.42857142857144</ele><time>2026-05-02T10:52:04.999Z</time></trkpt><trkpt lat="41.910212672174154" lon="2.980374069037708"><ele>274.14285714285717</ele><time>2026-05-02T10:52:09.999Z</time></trkpt><trkpt lat="41.91014838621938" lon="2.980351356066838"><ele>275.8571428571429</ele><time>2026-05-02T10:52:14.999Z</time></trkpt><trkpt lat="41.910091237547626" lon="2.9804077751313502"><ele>277.57142857142856</ele><time>2026-05-02T10:52:20Z</time></trkpt><trkpt lat="41.91006379931768" lon="2.9804947443364975"><ele>279.28571428571433</ele><time>2026-05-02T10:52:25Z</time></trkpt><trkpt lat="41.91003700947463" lon="2.9805763379762475"><ele>281.0</ele><time>2026-05-02T10:52:30Z</time></trkpt><trkpt lat="41.90999918858906" lon="2.9806497000607886"><ele>283.42857142857144</ele><time>2026-05-02T10:52:35Z</time></trkpt><trkpt lat="41.909954261116624" lon="2.980722071140077"><ele>285.8571428571429</ele><time>2026-05-02T10:52:40Z</time></trkpt><trkpt lat="41.90989713369417" lon="2.9807744740355964"><ele>288.2857142857143</ele><time>2026-05-02T10:52:44Z</time></trkpt><trkpt lat="41.90983336583427" lon="2.980830044515238"><ele>290.7142857142857</ele><time>2026-05-02T10:52:49Z</time></trkpt><trkpt lat="41.90975470940196" lon="2.9808253018839506"><ele>293.1428571428571</ele><time>2026-05-02T10:52:54Z</time></trkpt><trkpt lat="41.909725446483705" lon="2.9807479557307532"><ele>295.57142857142856</ele><time>2026-05-02T10:52:58Z</time></trkpt><trkpt lat="41.90970604760399" lon="2.980665389015196"><ele>298.0</ele><time>2026-05-02T10:53:02Z</time></trkpt><trkpt lat="41.90966887052764" lon="2.980566027662415"><ele>298.0</ele><time>2026-05-02T10:53:07Z</time></trkpt><trkpt lat="41.90962591729826" lon="2.9804838850014623"><ele>298.0</ele><time>2026-05-02T10:53:11Z</time></trkpt><trkpt lat="41.90957642200798" lon="2.9804071141661717"><ele>298.0</ele><time>2026-05-02T10:53:14Z</time></trkpt><trkpt lat="41.90949530517963" lon="2.9802791475176496"><ele>298.0</ele><time>2026-05-02T10:53:16Z</time></trkpt><trkpt lat="41.90943886225207" lon="2.9802112747111678"><ele>298.0</ele><time>2026-05-02T10:53:18Z</time></trkpt><trkpt lat="41.90937413737174" lon="2.980150791697583"><ele>298.0</ele><time>2026-05-02T10:53:20Z</time></trkpt><trkpt lat="41.90931155478481" lon="2.980072198187552"><ele>299.4</ele><time>2026-05-02T10:53:22Z</time></trkpt><trkpt lat="41.90924512515018" lon="2.979995558504473"><ele>300.8</ele><time>2026-05-02T10:53:23.999Z</time></trkpt><trkpt lat="41.9091841580031" lon="2.9799199324366996"><ele>302.2</ele><time>2026-05-02T10:53:25.999Z</time></trkpt><trkpt lat="41.90911213510108" lon="2.9798440809847015"><ele>303.6</ele><time>2026-05-02T10:53:27.999Z</time></trkpt><trkpt lat="41.90902468595757" lon="2.9797613565330443"><ele>305.0</ele><time>2026-05-02T10:53:29.999Z</time></trkpt><trkpt lat="41.90892401754237" lon="2.979699036792651"><ele>306.33333333333337</ele><time>2026-05-02T10:53:31.999Z</time></trkpt><trkpt lat="41.908818961715525" lon="2.9796721333907588"><ele>307.6666666666667</ele><time>2026-05-02T10:53:33.999Z</time></trkpt><trkpt lat="41.90872679113321" lon="2.9796642593867078"><ele>309.0</ele><time>2026-05-02T10:53:35.999Z</time></trkpt><trkpt lat="41.90863686831914" lon="2.979654739894116"><ele>310.3333333333333</ele><time>2026-05-02T10:53:38.999Z</time></trkpt><trkpt lat="41.90856689145505" lon="2.979653087938657"><ele>311.66666666666663</ele><time>2026-05-02T10:53:41.999Z</time></trkpt><trkpt lat="41.90849071196026" lon="2.9796463568343388"><ele>313.0</ele><time>2026-05-02T10:53:45.999Z</time></trkpt><trkpt lat="41.90842737802531" lon="2.979646421165678"><ele>313.42857142857144</ele><time>2026-05-02T10:53:48.999Z</time></trkpt><trkpt lat="41.90835031939072" lon="2.9796472255873"><ele>313.8571428571429</ele><time>2026-05-02T10:53:52.999Z</time></trkpt><trkpt lat="41.90827239126107" lon="2.9796587161297827"><ele>314.28571428571433</ele><time>2026-05-02T10:53:56.999Z</time></trkpt><trkpt lat="41.90819750971212" lon="2.97969903053357"><ele>314.7142857142857</ele><time>2026-05-02T10:54:00.999Z</time></trkpt><trkpt lat="41.90813846238031" lon="2.979728763802034"><ele>315.14285714285717</ele><time>2026-05-02T10:54:03.999Z</time></trkpt><trkpt lat="41.90807864249666" lon="2.979764236703178"><ele>315.5714285714286</ele><time>2026-05-02T10:54:06.999Z</time></trkpt><trkpt lat="41.90801776290326" lon="2.9798110491514747"><ele>316.0</ele><time>2026-05-02T10:54:10Z</time></trkpt><trkpt lat="41.90795447439496" lon="2.9798463752821482"><ele>316.00000000000006</ele><time>2026-05-02T10:54:13Z</time></trkpt><trkpt lat="41.90789693535622" lon="2.9798903020108916"><ele>316.0</ele><time>2026-05-02T10:54:16Z</time></trkpt><trkpt lat="41.90782250493314" lon="2.9799295007390874"><ele>316.0</ele><time>2026-05-02T10:54:20Z</time></trkpt><trkpt lat="41.90774463535164" lon="2.9799722283064023"><ele>316.0</ele><time>2026-05-02T10:54:24Z</time></trkpt><trkpt lat="41.90768336139945" lon="2.9800116422668492"><ele>316.0</ele><time>2026-05-02T10:54:28Z</time></trkpt><trkpt lat="41.907614203657786" lon="2.980036712341165"><ele>316.00000000000006</ele><time>2026-05-02T10:54:32Z</time></trkpt><trkpt lat="41.907541597884276" lon="2.9800198574896606"><ele>316.0</ele><time>2026-05-02T10:54:36Z</time></trkpt><trkpt lat="41.907482789340385" lon="2.9799634313997254"><ele>317.16666666666663</ele><time>2026-05-02T10:54:40Z</time></trkpt><trkpt lat="41.90743608454195" lon="2.9798783340220445"><ele>318.3333333333333</ele><time>2026-05-02T10:54:45Z</time></trkpt><trkpt lat="41.907399195699654" lon="2.979793811174935"><ele>319.5</ele><time>2026-05-02T10:54:49Z</time></trkpt><trkpt lat="41.90735084688704" lon="2.9797093253626"><ele>320.6666666666667</ele><time>2026-05-02T10:54:53Z</time></trkpt><trkpt lat="41.90730211889969" lon="2.97962725334428"><ele>321.83333333333337</ele><time>2026-05-02T10:54:57Z</time></trkpt><trkpt lat="41.90724079022558" lon="2.979560381517395"><ele>323.0</ele><time>2026-05-02T10:55:01Z</time></trkpt><trkpt lat="41.90717367054605" lon="2.9795177042309806"><ele>323.00000000000006</ele><time>2026-05-02T10:55:04Z</time></trkpt><trkpt lat="41.90710215551382" lon="2.9795026928945747"><ele>323.0</ele><time>2026-05-02T10:55:07Z</time></trkpt><trkpt lat="41.9070285049593" lon="2.9794668688440082"><ele>323.0</ele><time>2026-05-02T10:55:11Z</time></trkpt><trkpt lat="41.90697300766687" lon="2.9794050798586147"><ele>323.0</ele><time>2026-05-02T10:55:15Z</time></trkpt><trkpt lat="41.906931880186185" lon="2.9793287623178646"><ele>323.0</ele><time>2026-05-02T10:55:20Z</time></trkpt><trkpt lat="41.906900449439135" lon="2.979252598305029"><ele>323.00000000000006</ele><time>2026-05-02T10:55:24Z</time></trkpt><trkpt lat="41.9068794383958" lon="2.9791553707305574"><ele>323.0</ele><time>2026-05-02T10:55:29Z</time></trkpt><trkpt lat="41.906853869771375" lon="2.9790761735197564"><ele>325.33333333333337</ele><time>2026-05-02T10:55:33Z</time></trkpt><trkpt lat="41.90683000470582" lon="2.978976793907567"><ele>327.6666666666667</ele><time>2026-05-02T10:55:36.999Z</time></trkpt><trkpt lat="41.90679675438593" lon="2.978873459773587"><ele>330.0</ele><time>2026-05-02T10:55:39.999Z</time></trkpt><trkpt lat="41.906771013195815" lon="2.978768669137225"><ele>332.3333333333333</ele><time>2026-05-02T10:55:42.999Z</time></trkpt><trkpt lat="41.90673550873809" lon="2.9786515290876565"><ele>334.66666666666663</ele><time>2026-05-02T10:55:45.999Z</time></trkpt><trkpt lat="41.90669686718941" lon="2.978583533472004"><ele>337.0</ele><time>2026-05-02T10:55:47.999Z</time></trkpt><trkpt lat="41.90663442792209" lon="2.978526390573998"><ele>337.0</ele><time>2026-05-02T10:55:49.999Z</time></trkpt><trkpt lat="41.906548948456226" lon="2.9784672002692907"><ele>337.0</ele><time>2026-05-02T10:55:51.999Z</time></trkpt><trkpt lat="41.906464150474164" lon="2.9783776303710057"><ele>337.0</ele><time>2026-05-02T10:55:53.999Z</time></trkpt><trkpt lat="41.906412047172665" lon="2.978263369638792"><ele>337.0</ele><time>2026-05-02T10:55:55.999Z</time></trkpt><trkpt lat="41.906382775694794" lon="2.9781317509631533"><ele>337.0</ele><time>2026-05-02T10:55:57.999Z</time></trkpt><trkpt lat="41.90637688663346" lon="2.977975138574071"><ele>337.16666666666663</ele><time>2026-05-02T10:55:59.999Z</time></trkpt><trkpt lat="41.90637166954198" lon="2.977878569436421"><ele>337.3333333333333</ele><time>2026-05-02T10:56:00.999Z</time></trkpt><trkpt lat="41.90635266826609" lon="2.977786823473338"><ele>337.5</ele><time>2026-05-02T10:56:01.999Z</time></trkpt><trkpt lat="41.90632219384537" lon="2.9777118432685197"><ele>337.6666666666667</ele><time>2026-05-02T10:56:02.999Z</time></trkpt><trkpt lat="41.906259211894216" lon="2.9775789809922975"><ele>337.83333333333337</ele><time>2026-05-02T10:56:04.999Z</time></trkpt><trkpt lat="41.906189405044024" lon="2.9774594440923203"><ele>338.0</ele><time>2026-05-02T10:56:06.999Z</time></trkpt><trkpt lat="41.90614660909468" lon="2.9773581397154962"><ele>338.0</ele><time>2026-05-02T10:56:08.999Z</time></trkpt><trkpt lat="41.90611842232481" lon="2.977266913756901"><ele>338.0</ele><time>2026-05-02T10:56:10.999Z</time></trkpt><trkpt lat="41.90610812218661" lon="2.977143537773233"><ele>338.0</ele><time>2026-05-02T10:56:12.999Z</time></trkpt><trkpt lat="41.90612377572721" lon="2.9770077368947505"><ele>338.0</ele><time>2026-05-02T10:56:14.999Z</time></trkpt><trkpt lat="41.90609461428827" lon="2.9768578254519875"><ele>338.0</ele><time>2026-05-02T10:56:17Z</time></trkpt><trkpt lat="41.9060618101498" lon="2.976725094928343"><ele>338.0</ele><time>2026-05-02T10:56:19Z</time></trkpt><trkpt lat="41.9060131333481" lon="2.9765912500980285"><ele>338.0</ele><time>2026-05-02T10:56:21Z</time></trkpt><trkpt lat="41.905970270730194" lon="2.9764672677451545"><ele>338.0</ele><time>2026-05-02T10:56:23Z</time></trkpt><trkpt lat="41.9059300415052" lon="2.97633358447254"><ele>338.0</ele><time>2026-05-02T10:56:25Z</time></trkpt><trkpt lat="41.90589405938842" lon="2.9762015022241406"><ele>338.0</ele><time>2026-05-02T10:56:27Z</time></trkpt><trkpt lat="41.905831249985276" lon="2.976090222205109"><ele>337.59999999999997</ele><time>2026-05-02T10:56:29Z</time></trkpt><trkpt lat="41.90575162356408" lon="2.9760021541919395"><ele>337.2</ele><time>2026-05-02T10:56:31Z</time></trkpt><trkpt lat="41.90567418104193" lon="2.9758905797528157"><ele>336.8</ele><time>2026-05-02T10:56:33Z</time></trkpt><trkpt lat="41.905616900515064" lon="2.975759594241182"><ele>336.4</ele><time>2026-05-02T10:56:35Z</time></trkpt><trkpt lat="41.905603634900984" lon="2.9756115203242772"><ele>336.0</ele><time>2026-05-02T10:56:37Z</time></trkpt><trkpt lat="41.90560791812623" lon="2.9754675847145817"><ele>336.42857142857144</ele><time>2026-05-02T10:56:39Z</time></trkpt><trkpt lat="41.9055940909045" lon="2.9753828941492806"><ele>336.8571428571429</ele><time>2026-05-02T10:56:40Z</time></trkpt><trkpt lat="41.90556634844665" lon="2.9752967735271967"><ele>337.2857142857143</ele><time>2026-05-02T10:56:41Z</time></trkpt><trkpt lat="41.90552874658233" lon="2.975208650501192"><ele>337.7142857142857</ele><time>2026-05-02T10:56:42Z</time></trkpt><trkpt lat="41.90548828316038" lon="2.9751346626296136"><ele>338.14285714285717</ele><time>2026-05-02T10:56:43Z</time></trkpt><trkpt lat="41.90544525045466" lon="2.975050327504913"><ele>338.57142857142856</ele><time>2026-05-02T10:56:44Z</time></trkpt><trkpt lat="41.905401145681616" lon="2.974960776911239"><ele>339.0</ele><time>2026-05-02T10:56:45Z</time></trkpt><trkpt lat="41.90535979411579" lon="2.974881064928217"><ele>339.0</ele><time>2026-05-02T10:56:46Z</time></trkpt><trkpt lat="41.905323621868206" lon="2.974795738874563"><ele>339.0</ele><time>2026-05-02T10:56:47Z</time></trkpt><trkpt lat="41.905299738614964" lon="2.974700776093351"><ele>339.0</ele><time>2026-05-02T10:56:48Z</time></trkpt><trkpt lat="41.90529010383032" lon="2.9746129741155998"><ele>339.0</ele><time>2026-05-02T10:56:49Z</time></trkpt><trkpt lat="41.905269704950854" lon="2.9744587438531096"><ele>339.0</ele><time>2026-05-02T10:56:51Z</time></trkpt><trkpt lat="41.90523735137317" lon="2.9743261418013254"><ele>339.0</ele><time>2026-05-02T10:56:53Z</time></trkpt><trkpt lat="41.9052084365883" lon="2.974216364714884"><ele>339.0</ele><time>2026-05-02T10:56:55Z</time></trkpt><trkpt lat="41.90516191882248" lon="2.974129407908819"><ele>339.0</ele><time>2026-05-02T10:56:58Z</time></trkpt><trkpt lat="41.905115393959406" lon="2.9740571222764456"><ele>339.0</ele><time>2026-05-02T10:57:01Z</time></trkpt><trkpt lat="41.90505345363863" lon="2.9740026183202164"><ele>339.0</ele><time>2026-05-02T10:57:05Z</time></trkpt><trkpt lat="41.904981934242464" lon="2.9739572305571285"><ele>339.0</ele><time>2026-05-02T10:57:09Z</time></trkpt><trkpt lat="41.90491481121591" lon="2.973924458891696"><ele>339.0</ele><time>2026-05-02T10:57:13Z</time></trkpt><trkpt lat="41.90483859585657" lon="2.9738948971947927"><ele>340.1666666666667</ele><time>2026-05-02T10:57:17Z</time></trkpt><trkpt lat="41.90476218532022" lon="2.9738746442050483"><ele>341.3333333333333</ele><time>2026-05-02T10:57:21Z</time></trkpt><trkpt lat="41.90469060716501" lon="2.973861127093587"><ele>342.5</ele><time>2026-05-02T10:57:25Z</time></trkpt><trkpt lat="41.90461775126606" lon="2.9738520890373876"><ele>343.66666666666663</ele><time>2026-05-02T10:57:29Z</time></trkpt><trkpt lat="41.904532934585966" lon="2.9738330839726874"><ele>344.8333333333333</ele><time>2026-05-02T10:57:33Z</time></trkpt><trkpt lat="41.90445711859611" lon="2.973793423062582"><ele>346.0</ele><time>2026-05-02T10:57:37Z</time></trkpt><trkpt lat="41.90441186048273" lon="2.9737336010613604"><ele>346.0</ele><time>2026-05-02T10:57:39.999Z</time></trkpt><trkpt lat="41.904410288617264" lon="2.9736234646476016"><ele>346.0</ele><time>2026-05-02T10:57:43.999Z</time></trkpt><trkpt lat="41.9044473497648" lon="2.9735412460065356"><ele>346.0</ele><time>2026-05-02T10:57:46.999Z</time></trkpt><trkpt lat="41.90449705156009" lon="2.973460194198688"><ele>346.0</ele><time>2026-05-02T10:57:48.999Z</time></trkpt><trkpt lat="41.90455152172048" lon="2.9733924544020955"><ele>346.0</ele><time>2026-05-02T10:57:50.999Z</time></trkpt><trkpt lat="41.90460115551056" lon="2.973336528844712"><ele>346.0</ele><time>2026-05-02T10:57:52.999Z</time></trkpt><trkpt lat="41.904668664745316" lon="2.9732556683748457"><ele>348.6</ele><time>2026-05-02T10:57:54.999Z</time></trkpt><trkpt lat="41.904737981965745" lon="2.9731479065430446"><ele>351.20000000000005</ele><time>2026-05-02T10:57:56.999Z</time></trkpt><trkpt lat="41.90480311516831" lon="2.9730249098878923"><ele>353.79999999999995</ele><time>2026-05-02T10:57:58.999Z</time></trkpt><trkpt lat="41.90484507553601" lon="2.972907772186316"><ele>356.4</ele><time>2026-05-02T10:58:00.999Z</time></trkpt><trkpt lat="41.9048912734808" lon="2.9727977012743256"><ele>359.0</ele><time>2026-05-02T10:58:02.999Z</time></trkpt><trkpt lat="41.904915142146685" lon="2.9726752935364944"><ele>359.0</ele><time>2026-05-02T10:58:04.999Z</time></trkpt><trkpt lat="41.9048998039441" lon="2.972572308897675"><ele>359.0</ele><time>2026-05-02T10:58:06.999Z</time></trkpt><trkpt lat="41.9048104749888" lon="2.9725498467787834"><ele>359.0</ele><time>2026-05-02T10:58:08.999Z</time></trkpt><trkpt lat="41.904721498779935" lon="2.9726119092763885"><ele>359.0</ele><time>2026-05-02T10:58:10.999Z</time></trkpt><trkpt lat="41.904634441861425" lon="2.9727078999181162"><ele>359.0</ele><time>2026-05-02T10:58:12.999Z</time></trkpt><trkpt lat="41.90453759256115" lon="2.9727863825638057"><ele>359.0</ele><time>2026-05-02T10:58:14.999Z</time></trkpt><trkpt lat="41.904443934239715" lon="2.972805537549861"><ele>359.0</ele><time>2026-05-02T10:58:16.999Z</time></trkpt><trkpt lat="41.90433691526224" lon="2.97279363764758"><ele>359.0</ele><time>2026-05-02T10:58:18.999Z</time></trkpt><trkpt lat="41.90423060813182" lon="2.972783437123889"><ele>359.0</ele><time>2026-05-02T10:58:20.999Z</time></trkpt><trkpt lat="41.90412849256447" lon="2.972747907002384"><ele>359.0</ele><time>2026-05-02T10:58:23Z</time></trkpt><trkpt lat="41.90404202766055" lon="2.972692289749359"><ele>359.2</ele><time>2026-05-02T10:58:25Z</time></trkpt><trkpt lat="41.90398068462824" lon="2.9726234955232926"><ele>359.4</ele><time>2026-05-02T10:58:27Z</time></trkpt><trkpt lat="41.903923960137256" lon="2.972561676083115"><ele>359.6</ele><time>2026-05-02T10:58:29Z</time></trkpt><trkpt lat="41.90385406744358" lon="2.9724850126790474"><ele>359.8</ele><time>2026-05-02T10:58:31Z</time></trkpt><trkpt lat="41.903766603569935" lon="2.9724061400586126"><ele>360.0</ele><time>2026-05-02T10:58:33Z</time></trkpt><trkpt lat="41.9036703811485" lon="2.972341229652038"><ele>360.0</ele><time>2026-05-02T10:58:35Z</time></trkpt><trkpt lat="41.90356288852556" lon="2.972317068762174"><ele>360.0</ele><time>2026-05-02T10:58:37Z</time></trkpt><trkpt lat="41.90344945004416" lon="2.9723711144040763"><ele>360.0</ele><time>2026-05-02T10:58:39Z</time></trkpt><trkpt lat="41.90340964023437" lon="2.9724385223569136"><ele>360.0</ele><time>2026-05-02T10:58:40Z</time></trkpt><trkpt lat="41.90336340761296" lon="2.9725424099441495"><ele>360.0</ele><time>2026-05-02T10:58:42Z</time></trkpt><trkpt lat="41.90332120711877" lon="2.9726179298035547"><ele>357.0</ele><time>2026-05-02T10:58:44Z</time></trkpt><trkpt lat="41.90326878136489" lon="2.972694259230702"><ele>354.0</ele><time>2026-05-02T10:58:47Z</time></trkpt><trkpt lat="41.903215005252584" lon="2.972749943522378"><ele>351.0</ele><time>2026-05-02T10:58:50Z</time></trkpt><trkpt lat="41.903149469217624" lon="2.9727707073007212"><ele>348.0</ele><time>2026-05-02T10:58:53Z</time></trkpt><trkpt lat="41.9030860682144" lon="2.972787928405068"><ele>345.0</ele><time>2026-05-02T10:58:56Z</time></trkpt><trkpt lat="41.90301959653577" lon="2.972804165528076"><ele>342.0</ele><time>2026-05-02T10:58:59Z</time></trkpt><trkpt lat="41.90295115922311" lon="2.972807046552286"><ele>339.0</ele><time>2026-05-02T10:59:02Z</time></trkpt><trkpt lat="41.902880971434016" lon="2.972802185012074"><ele>339.0</ele><time>2026-05-02T10:59:05Z</time></trkpt><trkpt lat="41.9028174929519" lon="2.972787019081351"><ele>339.0</ele><time>2026-05-02T10:59:08Z</time></trkpt><trkpt lat="41.902755610288544" lon="2.9727688236468865"><ele>339.0</ele><time>2026-05-02T10:59:11Z</time></trkpt><trkpt lat="41.90267720587244" lon="2.9727445203533"><ele>339.0</ele><time>2026-05-02T10:59:15Z</time></trkpt><trkpt lat="41.90261276593511" lon="2.972743248739892"><ele>339.0</ele><time>2026-05-02T10:59:18Z</time></trkpt><trkpt lat="41.90253558040372" lon="2.9727110771261636"><ele>339.0</ele><time>2026-05-02T10:59:22Z</time></trkpt><trkpt lat="41.902473837224484" lon="2.972687184120666"><ele>339.0</ele><time>2026-05-02T10:59:26Z</time></trkpt><trkpt lat="41.902410969691715" lon="2.9726648174027437"><ele>340.7142857142857</ele><time>2026-05-02T10:59:29Z</time></trkpt><trkpt lat="41.902350959238866" lon="2.9726306220471814"><ele>342.42857142857144</ele><time>2026-05-02T10:59:33Z</time></trkpt><trkpt lat="41.90229039584111" lon="2.9725825354775663"><ele>344.14285714285717</ele><time>2026-05-02T10:59:36Z</time></trkpt><trkpt lat="41.902239530689435" lon="2.9725302741958575"><ele>345.8571428571429</ele><time>2026-05-02T10:59:40Z</time></trkpt><trkpt lat="41.90220027603454" lon="2.9724583150441823"><ele>347.57142857142856</ele><time>2026-05-02T10:59:44Z</time></trkpt><trkpt lat="41.90216876834384" lon="2.972375463892258"><ele>349.28571428571433</ele><time>2026-05-02T10:59:48Z</time></trkpt><trkpt lat="41.902144518826375" lon="2.972288062048793"><ele>351.0</ele><time>2026-05-02T10:59:52Z</time></trkpt><trkpt lat="41.90211908529138" lon="2.972193127649432"><ele>353.14285714285717</ele><time>2026-05-02T10:59:56Z</time></trkpt><trkpt lat="41.90209454188235" lon="2.972108048509542"><ele>355.2857142857143</ele><time>2026-05-02T11:00:00Z</time></trkpt><trkpt lat="41.902066327535714" lon="2.972022662907133"><ele>357.42857142857144</ele><time>2026-05-02T11:00:04Z</time></trkpt><trkpt lat="41.9020401869248" lon="2.971943063810688"><ele>359.57142857142856</ele><time>2026-05-02T11:00:08Z</time></trkpt><trkpt lat="41.902016535831166" lon="2.9718498082821667"><ele>361.7142857142857</ele><time>2026-05-02T11:00:11.999Z</time></trkpt><trkpt lat="41.90201874519353" lon="2.9717494086836416"><ele>363.8571428571429</ele><time>2026-05-02T11:00:15.999Z</time></trkpt><trkpt lat="41.9020280986167" lon="2.971659730426322"><ele>366.0</ele><time>2026-05-02T11:00:18.999Z</time></trkpt><trkpt lat="41.9020298736632" lon="2.9715519812298234"><ele>368.1666666666667</ele><time>2026-05-02T11:00:21.999Z</time></trkpt><trkpt lat="41.902029398335735" lon="2.9714256540856394"><ele>370.3333333333333</ele><time>2026-05-02T11:00:24.999Z</time></trkpt><trkpt lat="41.90201709950327" lon="2.971309123237722"><ele>372.5</ele><time>2026-05-02T11:00:28Z</time></trkpt><trkpt lat="41.90199819043587" lon="2.971218522548634"><ele>374.66666666666663</ele><time>2026-05-02T11:00:31Z</time></trkpt><trkpt lat="41.90198231871774" lon="2.9711232919075146"><ele>376.8333333333333</ele><time>2026-05-02T11:00:35Z</time></trkpt><trkpt lat="41.90195883435675" lon="2.971033585398686"><ele>379.0</ele><time>2026-05-02T11:00:38Z</time></trkpt><trkpt lat="41.90193850569126" lon="2.970951346700101"><ele>381.16666666666663</ele><time>2026-05-02T11:00:41Z</time></trkpt><trkpt lat="41.90190238256149" lon="2.970855075115434"><ele>383.3333333333333</ele><time>2026-05-02T11:00:45Z</time></trkpt><trkpt lat="41.90186493237297" lon="2.970762936760478"><ele>385.5</ele><time>2026-05-02T11:00:49Z</time></trkpt><trkpt lat="41.90184274377063" lon="2.970663538094019"><ele>387.66666666666663</ele><time>2026-05-02T11:00:53Z</time></trkpt><trkpt lat="41.901830681079396" lon="2.970551327024799"><ele>389.8333333333333</ele><time>2026-05-02T11:00:57Z</time></trkpt><trkpt lat="41.90183516912455" lon="2.9704533450322086"><ele>392.0</ele><time>2026-05-02T11:01:01Z</time></trkpt><trkpt lat="41.90184684192731" lon="2.9703575531542112"><ele>391.99999999999994</ele><time>2026-05-02T11:01:04Z</time></trkpt><trkpt lat="41.90186330472819" lon="2.970270031500513"><ele>392.0</ele><time>2026-05-02T11:01:06Z</time></trkpt><trkpt lat="41.9019012758942" lon="2.970140175737915"><ele>392.0</ele><time>2026-05-02T11:01:09Z</time></trkpt><trkpt lat="41.90193760354511" lon="2.9700395112828053"><ele>392.0</ele><time>2026-05-02T11:01:11Z</time></trkpt><trkpt lat="41.90198365637064" lon="2.969943388799381"><ele>391.99999999999994</ele><time>2026-05-02T11:01:13Z</time></trkpt><trkpt lat="41.902021587738595" lon="2.969824147775001"><ele>392.0</ele><time>2026-05-02T11:01:15Z</time></trkpt><trkpt lat="41.902048688624056" lon="2.9696836669900493"><ele>392.16666666666663</ele><time>2026-05-02T11:01:17Z</time></trkpt><trkpt lat="41.90206887439044" lon="2.969603549185172"><ele>392.3333333333333</ele><time>2026-05-02T11:01:18Z</time></trkpt><trkpt lat="41.902101211859964" lon="2.969438975948658"><ele>392.5</ele><time>2026-05-02T11:01:20Z</time></trkpt><trkpt lat="41.90212669007454" lon="2.969345281143792"><ele>392.66666666666663</ele><time>2026-05-02T11:01:21Z</time></trkpt><trkpt lat="41.90216478520731" lon="2.9692459070263233"><ele>392.8333333333333</ele><time>2026-05-02T11:01:22Z</time></trkpt><trkpt lat="41.9022003397352" lon="2.9691427318318886"><ele>393.0</ele><time>2026-05-02T11:01:23Z</time></trkpt><trkpt lat="41.902224614116896" lon="2.9690421380261265"><ele>393.0</ele><time>2026-05-02T11:01:24Z</time></trkpt><trkpt lat="41.90223248427282" lon="2.968938829333588"><ele>393.0</ele><time>2026-05-02T11:01:25Z</time></trkpt><trkpt lat="41.90223635618498" lon="2.968847882499808"><ele>393.0</ele><time>2026-05-02T11:01:26Z</time></trkpt><trkpt lat="41.90222758808782" lon="2.9686898693532995"><ele>393.0</ele><time>2026-05-02T11:01:28Z</time></trkpt><trkpt lat="41.902249257947595" lon="2.9685251162835984"><ele>393.0</ele><time>2026-05-02T11:01:30Z</time></trkpt><trkpt lat="41.90227197144709" lon="2.968437567010324"><ele>392.1666666666667</ele><time>2026-05-02T11:01:31Z</time></trkpt><trkpt lat="41.90230601396296" lon="2.9683549919547425"><ele>391.33333333333337</ele><time>2026-05-02T11:01:32Z</time></trkpt><trkpt lat="41.902347913651994" lon="2.9682779052992685"><ele>390.5</ele><time>2026-05-02T11:01:33Z</time></trkpt><trkpt lat="41.902399477580545" lon="2.9682140702316397"><ele>389.6666666666667</ele><time>2026-05-02T11:01:34Z</time></trkpt><trkpt lat="41.9024746632491" lon="2.9681024979179766"><ele>388.83333333333337</ele><time>2026-05-02T11:01:36Z</time></trkpt><trkpt lat="41.90252836807411" lon="2.9680149934152236"><ele>388.0</ele><time>2026-05-02T11:01:38Z</time></trkpt><trkpt lat="41.902561934914864" lon="2.967917037613183"><ele>388.1666666666667</ele><time>2026-05-02T11:01:40Z</time></trkpt><trkpt lat="41.90260269381282" lon="2.96782208088778"><ele>388.33333333333337</ele><time>2026-05-02T11:01:42Z</time></trkpt><trkpt lat="41.90266326079624" lon="2.9677317396255543"><ele>388.5</ele><time>2026-05-02T11:01:44Z</time></trkpt><trkpt lat="41.902710713322776" lon="2.967637809161777"><ele>388.66666666666663</ele><time>2026-05-02T11:01:46Z</time></trkpt><trkpt lat="41.90273036478517" lon="2.9675369329302144"><ele>388.8333333333333</ele><time>2026-05-02T11:01:48Z</time></trkpt><trkpt lat="41.90270198249766" lon="2.9674103691491305"><ele>389.0</ele><time>2026-05-02T11:01:50Z</time></trkpt><trkpt lat="41.90264204586713" lon="2.967303422034512"><ele>389.16666666666663</ele><time>2026-05-02T11:01:52Z</time></trkpt><trkpt lat="41.902547548575015" lon="2.9672698555424124"><ele>389.3333333333333</ele><time>2026-05-02T11:01:54Z</time></trkpt><trkpt lat="41.902466774410115" lon="2.9673127746478376"><ele>389.5</ele><time>2026-05-02T11:01:56Z</time></trkpt><trkpt lat="41.902371375275564" lon="2.967333887531684"><ele>389.66666666666663</ele><time>2026-05-02T11:01:58Z</time></trkpt><trkpt lat="41.902285565258666" lon="2.967336082874258"><ele>389.8333333333333</ele><time>2026-05-02T11:02:00Z</time></trkpt><trkpt lat="41.90221425966342" lon="2.967327249994531"><ele>390.0</ele><time>2026-05-02T11:02:02Z</time></trkpt><trkpt lat="41.90213884733237" lon="2.967282150763461"><ele>390.0</ele><time>2026-05-02T11:02:05Z</time></trkpt><trkpt lat="41.902065618585986" lon="2.967222414210615"><ele>390.0</ele><time>2026-05-02T11:02:08Z</time></trkpt><trkpt lat="41.90200984317622" lon="2.967147046329282"><ele>390.0</ele><time>2026-05-02T11:02:12Z</time></trkpt><trkpt lat="41.90196028488398" lon="2.967073627882678"><ele>390.0</ele><time>2026-05-02T11:02:15Z</time></trkpt><trkpt lat="41.901905077531715" lon="2.9669942023854374"><ele>390.0</ele><time>2026-05-02T11:02:18Z</time></trkpt><trkpt lat="41.90185184047358" lon="2.9669273800342997"><ele>390.0</ele><time>2026-05-02T11:02:20Z</time></trkpt><trkpt lat="41.90179923575766" lon="2.9668399141412336"><ele>389.8333333333333</ele><time>2026-05-02T11:02:23Z</time></trkpt><trkpt lat="41.90173708602612" lon="2.9667600288033604"><ele>389.66666666666663</ele><time>2026-05-02T11:02:26Z</time></trkpt><trkpt lat="41.901675214049924" lon="2.9666714496744278"><ele>389.5</ele><time>2026-05-02T11:02:28.999Z</time></trkpt><trkpt lat="41.90160140894036" lon="2.9666098331426265"><ele>389.3333333333333</ele><time>2026-05-02T11:02:31.999Z</time></trkpt><trkpt lat="41.90151636038188" lon="2.966554640452924"><ele>389.16666666666663</ele><time>2026-05-02T11:02:35Z</time></trkpt><trkpt lat="41.90145468879172" lon="2.966530646657412"><ele>389.0</ele><time>2026-05-02T11:02:37Z</time></trkpt><trkpt lat="41.90136661324872" lon="2.966500479975659"><ele>390.3333333333333</ele><time>2026-05-02T11:02:40Z</time></trkpt><trkpt lat="41.901283700056084" lon="2.9664713370293336"><ele>391.66666666666663</ele><time>2026-05-02T11:02:43Z</time></trkpt><trkpt lat="41.9012204689187" lon="2.966444120677759"><ele>393.0</ele><time>2026-05-02T11:02:45Z</time></trkpt><trkpt lat="41.901149367457506" lon="2.966402961648327"><ele>394.33333333333337</ele><time>2026-05-02T11:02:47Z</time></trkpt><trkpt lat="41.90109489014519" lon="2.9663402294626775"><ele>395.6666666666667</ele><time>2026-05-02T11:02:49Z</time></trkpt><trkpt lat="41.90105312494013" lon="2.966243268278117"><ele>397.0</ele><time>2026-05-02T11:02:51Z</time></trkpt><trkpt lat="41.901017364374745" lon="2.9661278706141267"><ele>397.0</ele><time>2026-05-02T11:02:54Z</time></trkpt><trkpt lat="41.90096510099893" lon="2.9659408016204982"><ele>397.0</ele><time>2026-05-02T11:02:56Z</time></trkpt><trkpt lat="41.900957016607606" lon="2.9657903693210415"><ele>397.0</ele><time>2026-05-02T11:02:58Z</time></trkpt><trkpt lat="41.900948255808615" lon="2.965631904443381"><ele>397.0</ele><time>2026-05-02T11:03:00Z</time></trkpt><trkpt lat="41.90094299360509" lon="2.9654892854459503"><ele>397.1666666666667</ele><time>2026-05-02T11:03:02Z</time></trkpt><trkpt lat="41.90089394185296" lon="2.9653464715365754"><ele>397.33333333333337</ele><time>2026-05-02T11:03:04Z</time></trkpt><trkpt lat="41.90082967290112" lon="2.965302256118253"><ele>397.5</ele><time>2026-05-02T11:03:05Z</time></trkpt><trkpt lat="41.90076675559828" lon="2.965282444985246"><ele>397.66666666666663</ele><time>2026-05-02T11:03:06Z</time></trkpt><trkpt lat="41.900696425503426" lon="2.96530675303529"><ele>397.8333333333333</ele><time>2026-05-02T11:03:07Z</time></trkpt><trkpt lat="41.90060009041699" lon="2.9653986663794036"><ele>398.0</ele><time>2026-05-02T11:03:09Z</time></trkpt><trkpt lat="41.90049578169155" lon="2.9654913211551466"><ele>398.0</ele><time>2026-05-02T11:03:11Z</time></trkpt><trkpt lat="41.90042240245611" lon="2.965512226616035"><ele>398.0</ele><time>2026-05-02T11:03:13Z</time></trkpt><trkpt lat="41.900339771787245" lon="2.965472662498066"><ele>398.0</ele><time>2026-05-02T11:03:15Z</time></trkpt><trkpt lat="41.90027321253916" lon="2.9653484374190286"><ele>398.0</ele><time>2026-05-02T11:03:17Z</time></trkpt><trkpt lat="41.90021358508062" lon="2.9652209649255243"><ele>398.0</ele><time>2026-05-02T11:03:19Z</time></trkpt><trkpt lat="41.90017149920851" lon="2.9651531786175456"><ele>397.99999999999994</ele><time>2026-05-02T11:03:20Z</time></trkpt><trkpt lat="41.90013148004282" lon="2.9650711751749927"><ele>398.0</ele><time>2026-05-02T11:03:21Z</time></trkpt><trkpt lat="41.90009650114139" lon="2.9649798865281407"><ele>398.0</ele><time>2026-05-02T11:03:22Z</time></trkpt><trkpt lat="41.90006937957965" lon="2.964898440754684"><ele>398.0</ele><time>2026-05-02T11:03:23Z</time></trkpt><trkpt lat="41.90005076214461" lon="2.964817139127469"><ele>397.99999999999994</ele><time>2026-05-02T11:03:24Z</time></trkpt><trkpt lat="41.90003578839147" lon="2.9646748705670825"><ele>398.0</ele><time>2026-05-02T11:03:26Z</time></trkpt><trkpt lat="41.89997642529316" lon="2.964547124692442"><ele>396.79999999999995</ele><time>2026-05-02T11:03:28Z</time></trkpt><trkpt lat="41.89992470364057" lon="2.9644931258744918"><ele>395.6</ele><time>2026-05-02T11:03:29Z</time></trkpt><trkpt lat="41.89982042522597" lon="2.9645052445350393"><ele>394.4</ele><time>2026-05-02T11:03:31Z</time></trkpt><trkpt lat="41.89974592746154" lon="2.9645828243082546"><ele>393.20000000000005</ele><time>2026-05-02T11:03:33Z</time></trkpt><trkpt lat="41.899684339992035" lon="2.9646855495670037"><ele>392.0</ele><time>2026-05-02T11:03:35Z</time></trkpt><trkpt lat="41.899681025652264" lon="2.9648144550309046"><ele>392.0</ele><time>2026-05-02T11:03:37Z</time></trkpt><trkpt lat="41.89968006300201" lon="2.964932676324779"><ele>392.0</ele><time>2026-05-02T11:03:39Z</time></trkpt><trkpt lat="41.899673554568004" lon="2.965024934652513"><ele>392.0</ele><time>2026-05-02T11:03:41Z</time></trkpt><trkpt lat="41.89966027378573" lon="2.965112518157195"><ele>392.0</ele><time>2026-05-02T11:03:44Z</time></trkpt><trkpt lat="41.899602461973366" lon="2.9651530206522394"><ele>392.0</ele><time>2026-05-02T11:03:47Z</time></trkpt><trkpt lat="41.89953046939241" lon="2.96511803977347"><ele>392.0</ele><time>2026-05-02T11:03:51Z</time></trkpt><trkpt lat="41.899469569856464" lon="2.965055011265788"><ele>392.0</ele><time>2026-05-02T11:03:55Z</time></trkpt><trkpt lat="41.89941035826153" lon="2.9649853778197435"><ele>391.99999999999994</ele><time>2026-05-02T11:03:59Z</time></trkpt><trkpt lat="41.89934541452397" lon="2.9649198269758883"><ele>392.0</ele><time>2026-05-02T11:04:04Z</time></trkpt><trkpt lat="41.899289491558704" lon="2.964859934764653"><ele>392.0</ele><time>2026-05-02T11:04:07Z</time></trkpt><trkpt lat="41.89923618252708" lon="2.9648146208120876"><ele>392.0</ele><time>2026-05-02T11:04:11Z</time></trkpt><trkpt lat="41.89917267459922" lon="2.964743192414839"><ele>391.99999999999994</ele><time>2026-05-02T11:04:16Z</time></trkpt><trkpt lat="41.89911278064853" lon="2.964692356060476"><ele>392.0</ele><time>2026-05-02T11:04:20Z</time></trkpt><trkpt lat="41.899046062355794" lon="2.964619119790621"><ele>392.66666666666663</ele><time>2026-05-02T11:04:24Z</time></trkpt><trkpt lat="41.89899086552368" lon="2.964552420836105"><ele>393.3333333333333</ele><time>2026-05-02T11:04:27Z</time></trkpt><trkpt lat="41.89893635457639" lon="2.964471792453114"><ele>394.0</ele><time>2026-05-02T11:04:30Z</time></trkpt><trkpt lat="41.89885277136519" lon="2.96439708903479"><ele>394.66666666666663</ele><time>2026-05-02T11:04:33Z</time></trkpt><trkpt lat="41.89879433008399" lon="2.964355469403516"><ele>395.3333333333333</ele><time>2026-05-02T11:04:35Z</time></trkpt><trkpt lat="41.89874458347271" lon="2.9643031261718082"><ele>396.0</ele><time>2026-05-02T11:04:37Z</time></trkpt><trkpt lat="41.898704309678436" lon="2.964218207450539"><ele>396.5714285714286</ele><time>2026-05-02T11:04:40Z</time></trkpt><trkpt lat="41.89868391011103" lon="2.9641169432282526"><ele>397.1428571428571</ele><time>2026-05-02T11:04:44Z</time></trkpt><trkpt lat="41.89867877780026" lon="2.9640242196817876"><ele>397.7142857142857</ele><time>2026-05-02T11:04:48Z</time></trkpt><trkpt lat="41.89865790747043" lon="2.9639327552388166"><ele>398.28571428571433</ele><time>2026-05-02T11:04:52Z</time></trkpt><trkpt lat="41.8986465145372" lon="2.9638372598190568"><ele>398.8571428571429</ele><time>2026-05-02T11:04:56Z</time></trkpt><trkpt lat="41.8986346106808" lon="2.9637395057646283"><ele>399.42857142857144</ele><time>2026-05-02T11:05:00Z</time></trkpt><trkpt lat="41.89863954010911" lon="2.963633110666119"><ele>400.0</ele><time>2026-05-02T11:05:04Z</time></trkpt><trkpt lat="41.898674873793766" lon="2.9635480850444904"><ele>400.00000000000006</ele><time>2026-05-02T11:05:08Z</time></trkpt><trkpt lat="41.89873020055663" lon="2.9634646383570096"><ele>400.0</ele><time>2026-05-02T11:05:12Z</time></trkpt><trkpt lat="41.89878803297667" lon="2.9634163217375358"><ele>400.0</ele><time>2026-05-02T11:05:14Z</time></trkpt><trkpt lat="41.89884640913096" lon="2.9633661299985903"><ele>400.0</ele><time>2026-05-02T11:05:17Z</time></trkpt><trkpt lat="41.898908707694375" lon="2.9633339031227686"><ele>400.00000000000006</ele><time>2026-05-02T11:05:19Z</time></trkpt><trkpt lat="41.89896550068418" lon="2.963289581132659"><ele>400.0</ele><time>2026-05-02T11:05:21Z</time></trkpt><trkpt lat="41.8990479304418" lon="2.963208588095444"><ele>401.0</ele><time>2026-05-02T11:05:24Z</time></trkpt><trkpt lat="41.89912608226292" lon="2.9631295024899065"><ele>402.0</ele><time>2026-05-02T11:05:26Z</time></trkpt><trkpt lat="41.89922426409812" lon="2.9630486410443457"><ele>403.0</ele><time>2026-05-02T11:05:28Z</time></trkpt><trkpt lat="41.89932014717116" lon="2.9629994468053584"><ele>404.0</ele><time>2026-05-02T11:05:30Z</time></trkpt><trkpt lat="41.899411654839405" lon="2.962957825139635"><ele>405.0</ele><time>2026-05-02T11:05:32Z</time></trkpt><trkpt lat="41.899481496928345" lon="2.9628911668928564"><ele>405.0</ele><time>2026-05-02T11:05:34Z</time></trkpt><trkpt lat="41.89954666627265" lon="2.9628183967255555"><ele>405.0</ele><time>2026-05-02T11:05:36Z</time></trkpt><trkpt lat="41.899624749706234" lon="2.9627203745808357"><ele>405.0</ele><time>2026-05-02T11:05:38Z</time></trkpt><trkpt lat="41.89972899408279" lon="2.9626775675863577"><ele>405.0</ele><time>2026-05-02T11:05:40Z</time></trkpt><trkpt lat="41.89982683381622" lon="2.962694290704782"><ele>405.0</ele><time>2026-05-02T11:05:42Z</time></trkpt><trkpt lat="41.899908183453405" lon="2.9627321791815984"><ele>405.0</ele><time>2026-05-02T11:05:44Z</time></trkpt><trkpt lat="41.89999515958595" lon="2.962753308671248"><ele>405.0</ele><time>2026-05-02T11:05:46Z</time></trkpt><trkpt lat="41.900094348894925" lon="2.9627735740507766"><ele>405.0</ele><time>2026-05-02T11:05:48Z</time></trkpt><trkpt lat="41.90019171895188" lon="2.9627747501309125"><ele>405.0</ele><time>2026-05-02T11:05:50Z</time></trkpt><trkpt lat="41.9002850559096" lon="2.962757499353262"><ele>405.0</ele><time>2026-05-02T11:05:52Z</time></trkpt><trkpt lat="41.900378388910745" lon="2.9627364708543915"><ele>405.4</ele><time>2026-05-02T11:05:54Z</time></trkpt><trkpt lat="41.90046896823789" lon="2.9627273811639596"><ele>405.8</ele><time>2026-05-02T11:05:56Z</time></trkpt><trkpt lat="41.90057180261478" lon="2.962708095595689"><ele>406.20000000000005</ele><time>2026-05-02T11:05:58Z</time></trkpt><trkpt lat="41.90068409123762" lon="2.9626804661545187"><ele>406.6</ele><time>2026-05-02T11:06:00Z</time></trkpt><trkpt lat="41.90079485759353" lon="2.962638082521521"><ele>407.0</ele><time>2026-05-02T11:06:02Z</time></trkpt><trkpt lat="41.900900232946356" lon="2.9625827737797934"><ele>408.6</ele><time>2026-05-02T11:06:04Z</time></trkpt><trkpt lat="41.90099940109674" lon="2.962526174969975"><ele>410.20000000000005</ele><time>2026-05-02T11:06:06Z</time></trkpt><trkpt lat="41.90109528648622" lon="2.9624642365444283"><ele>411.8</ele><time>2026-05-02T11:06:08Z</time></trkpt><trkpt lat="41.901187569076576" lon="2.962404980271656"><ele>413.4</ele><time>2026-05-02T11:06:10Z</time></trkpt><trkpt lat="41.90126420615239" lon="2.962329885946589"><ele>415.0</ele><time>2026-05-02T11:06:12Z</time></trkpt><trkpt lat="41.90132356359654" lon="2.9622475880791432"><ele>415.00000000000006</ele><time>2026-05-02T11:06:14Z</time></trkpt><trkpt lat="41.90138487182152" lon="2.9621666477108377"><ele>415.0</ele><time>2026-05-02T11:06:16Z</time></trkpt><trkpt lat="41.90144030964251" lon="2.962113564930612"><ele>415.0</ele><time>2026-05-02T11:06:18Z</time></trkpt><trkpt lat="41.901502455225035" lon="2.962074180639098"><ele>415.0</ele><time>2026-05-02T11:06:20Z</time></trkpt><trkpt lat="41.90157319849451" lon="2.9620532596111024"><ele>415.00000000000006</ele><time>2026-05-02T11:06:22Z</time></trkpt><trkpt lat="41.90165289536491" lon="2.962050273560612"><ele>415.0</ele><time>2026-05-02T11:06:24Z</time></trkpt><trkpt lat="41.90172754679806" lon="2.962058654292782"><ele>415.50000000000006</ele><time>2026-05-02T11:06:26Z</time></trkpt><trkpt lat="41.901800626146574" lon="2.962043100105813"><ele>416.0</ele><time>2026-05-02T11:06:28Z</time></trkpt><trkpt lat="41.90187278922933" lon="2.962044404985437"><ele>416.5</ele><time>2026-05-02T11:06:30Z</time></trkpt><trkpt lat="41.90195372185503" lon="2.962035705742823"><ele>417.0</ele><time>2026-05-02T11:06:32Z</time></trkpt><trkpt lat="41.902028272381095" lon="2.9620414233599814"><ele>417.50000000000006</ele><time>2026-05-02T11:06:34Z</time></trkpt><trkpt lat="41.90210185704082" lon="2.9620546217853727"><ele>418.0</ele><time>2026-05-02T11:06:36Z</time></trkpt><trkpt lat="41.9021758226839" lon="2.9620790306213496"><ele>418.00000000000006</ele><time>2026-05-02T11:06:38Z</time></trkpt><trkpt lat="41.902256159968516" lon="2.9621160858123545"><ele>418.0</ele><time>2026-05-02T11:06:41Z</time></trkpt><trkpt lat="41.9023442327314" lon="2.9621456123547487"><ele>418.0</ele><time>2026-05-02T11:06:44Z</time></trkpt><trkpt lat="41.90241461581212" lon="2.962175844172751"><ele>418.0</ele><time>2026-05-02T11:06:46Z</time></trkpt><trkpt lat="41.902479661953926" lon="2.9621702987747742"><ele>418.00000000000006</ele><time>2026-05-02T11:06:48Z</time></trkpt><trkpt lat="41.90255119170609" lon="2.9621550947364392"><ele>418.0</ele><time>2026-05-02T11:06:50Z</time></trkpt><trkpt lat="41.90262040398593" lon="2.9620836070820893"><ele>418.00000000000006</ele><time>2026-05-02T11:06:53Z</time></trkpt><trkpt lat="41.90264605563568" lon="2.9619871389263137"><ele>418.0</ele><time>2026-05-02T11:06:56Z</time></trkpt><trkpt lat="41.90263723412784" lon="2.9618697206357076"><ele>418.0</ele><time>2026-05-02T11:06:59Z</time></trkpt><trkpt lat="41.90258369970335" lon="2.9618113851667736"><ele>418.0</ele><time>2026-05-02T11:07:02Z</time></trkpt><trkpt lat="41.90254592759349" lon="2.9617204358053755"><ele>418.00000000000006</ele><time>2026-05-02T11:07:29Z</time></trkpt><trkpt lat="41.9024779805881" lon="2.961654385850043"><ele>418.0</ele><time>2026-05-02T11:07:32Z</time></trkpt><trkpt lat="41.90241043560391" lon="2.9615979602534757"><ele>417.79999999999995</ele><time>2026-05-02T11:07:34Z</time></trkpt><trkpt lat="41.90231381754829" lon="2.9615313303238096"><ele>417.6</ele><time>2026-05-02T11:07:36Z</time></trkpt><trkpt lat="41.902208563410454" lon="2.961472258326868"><ele>417.4</ele><time>2026-05-02T11:07:38Z</time></trkpt><trkpt lat="41.90208278759577" lon="2.9614185432928055"><ele>417.20000000000005</ele><time>2026-05-02T11:07:40Z</time></trkpt><trkpt lat="41.902019026842055" lon="2.9613978559272045"><ele>417.0</ele><time>2026-05-02T11:07:41Z</time></trkpt><trkpt lat="41.90189497076568" lon="2.9613640590203247"><ele>417.0</ele><time>2026-05-02T11:07:43Z</time></trkpt><trkpt lat="41.90183004622641" lon="2.9613433132260494"><ele>417.0</ele><time>2026-05-02T11:07:44Z</time></trkpt><trkpt lat="41.90176435955768" lon="2.9613269192854523"><ele>417.0</ele><time>2026-05-02T11:07:45Z</time></trkpt><trkpt lat="41.9016887959909" lon="2.9613022804999947"><ele>417.0</ele><time>2026-05-02T11:07:46Z</time></trkpt><trkpt lat="41.90160860620685" lon="2.9612858623199356"><ele>417.0</ele><time>2026-05-02T11:07:47Z</time></trkpt><trkpt lat="41.90152642809033" lon="2.9612621964036587"><ele>417.0</ele><time>2026-05-02T11:07:48Z</time></trkpt><trkpt lat="41.90144757557017" lon="2.961248050368575"><ele>416.1666666666667</ele><time>2026-05-02T11:07:49Z</time></trkpt><trkpt lat="41.90137417943464" lon="2.961228847908824"><ele>415.33333333333337</ele><time>2026-05-02T11:07:50Z</time></trkpt><trkpt lat="41.901304861772864" lon="2.9612069467671533"><ele>414.5</ele><time>2026-05-02T11:07:51Z</time></trkpt><trkpt lat="41.90118808518346" lon="2.9611355232147747"><ele>413.6666666666667</ele><time>2026-05-02T11:07:53Z</time></trkpt><trkpt lat="41.901130504917546" lon="2.961097980577327"><ele>412.83333333333337</ele><time>2026-05-02T11:07:54Z</time></trkpt><trkpt lat="41.90106653456233" lon="2.961063304784087"><ele>412.0</ele><time>2026-05-02T11:07:55Z</time></trkpt><trkpt lat="41.90099674793018" lon="2.9610284037340437"><ele>411.1666666666667</ele><time>2026-05-02T11:07:56Z</time></trkpt><trkpt lat="41.900915753167666" lon="2.961005488788648"><ele>410.33333333333337</ele><time>2026-05-02T11:07:57Z</time></trkpt><trkpt lat="41.90082941669678" lon="2.960989007612848"><ele>409.5</ele><time>2026-05-02T11:07:58Z</time></trkpt><trkpt lat="41.90074508180673" lon="2.960981949413903"><ele>408.66666666666663</ele><time>2026-05-02T11:07:59Z</time></trkpt><trkpt lat="41.9006654854962" lon="2.9609796018280043"><ele>407.8333333333333</ele><time>2026-05-02T11:08:00Z</time></trkpt><trkpt lat="41.90058374373928" lon="2.9609823350510447"><ele>407.0</ele><time>2026-05-02T11:08:01Z</time></trkpt><trkpt lat="41.90050028913479" lon="2.960994630357356"><ele>407.0</ele><time>2026-05-02T11:08:02Z</time></trkpt><trkpt lat="41.90040694191084" lon="2.9610064316760143"><ele>407.0</ele><time>2026-05-02T11:08:03Z</time></trkpt><trkpt lat="41.90032192805413" lon="2.9610095863332173"><ele>407.0</ele><time>2026-05-02T11:08:04Z</time></trkpt><trkpt lat="41.90023351057901" lon="2.9610105288962303"><ele>407.0</ele><time>2026-05-02T11:08:05Z</time></trkpt><trkpt lat="41.9001355403427" lon="2.9610064374719625"><ele>407.0</ele><time>2026-05-02T11:08:06Z</time></trkpt><trkpt lat="41.90004918933684" lon="2.961006733685231"><ele>405.99999999999994</ele><time>2026-05-02T11:08:07Z</time></trkpt><trkpt lat="41.899963811020136" lon="2.961011390999999"><ele>405.0</ele><time>2026-05-02T11:08:08Z</time></trkpt><trkpt lat="41.89989135173487" lon="2.961011948460238"><ele>404.0</ele><time>2026-05-02T11:08:09Z</time></trkpt><trkpt lat="41.899813294845195" lon="2.961016467267957"><ele>403.0</ele><time>2026-05-02T11:08:10Z</time></trkpt><trkpt lat="41.899732762473825" lon="2.9610134550670915"><ele>401.99999999999994</ele><time>2026-05-02T11:08:11Z</time></trkpt><trkpt lat="41.899661635552064" lon="2.961011104476294"><ele>401.0</ele><time>2026-05-02T11:08:12Z</time></trkpt><trkpt lat="41.899588380679795" lon="2.9609912527847633"><ele>400.99999999999994</ele><time>2026-05-02T11:08:13Z</time></trkpt><trkpt lat="41.89951191481749" lon="2.96095863906777"><ele>401.0</ele><time>2026-05-02T11:08:14Z</time></trkpt><trkpt lat="41.89943829424057" lon="2.9609242231427144"><ele>401.0</ele><time>2026-05-02T11:08:15Z</time></trkpt><trkpt lat="41.89936331093626" lon="2.9608963829639294"><ele>401.0</ele><time>2026-05-02T11:08:16Z</time></trkpt><trkpt lat="41.89928340468633" lon="2.960875920600088"><ele>400.99999999999994</ele><time>2026-05-02T11:08:17Z</time></trkpt><trkpt lat="41.899199692504375" lon="2.9608588124617725"><ele>401.0</ele><time>2026-05-02T11:08:18Z</time></trkpt><trkpt lat="41.899114376297284" lon="2.9608576315525346"><ele>401.16666666666663</ele><time>2026-05-02T11:08:19Z</time></trkpt><trkpt lat="41.89902390774343" lon="2.9608599565385156"><ele>401.3333333333333</ele><time>2026-05-02T11:08:20Z</time></trkpt><trkpt lat="41.89893091222153" lon="2.9608584284102704"><ele>401.5</ele><time>2026-05-02T11:08:21Z</time></trkpt><trkpt lat="41.89883850983346" lon="2.9608588352554777"><ele>401.66666666666663</ele><time>2026-05-02T11:08:22Z</time></trkpt><trkpt lat="41.89875231085317" lon="2.9608650905335407"><ele>401.8333333333333</ele><time>2026-05-02T11:08:23Z</time></trkpt><trkpt lat="41.89867585439426" lon="2.9608705861968314"><ele>402.0</ele><time>2026-05-02T11:08:24Z</time></trkpt><trkpt lat="41.89860285625113" lon="2.960882018654606"><ele>402.0</ele><time>2026-05-02T11:08:25Z</time></trkpt><trkpt lat="41.898529605374875" lon="2.9608931961024982"><ele>402.0</ele><time>2026-05-02T11:08:26Z</time></trkpt><trkpt lat="41.89845871680422" lon="2.960918533316116"><ele>402.0</ele><time>2026-05-02T11:08:27Z</time></trkpt><trkpt lat="41.89839238356963" lon="2.960954395174048"><ele>402.0</ele><time>2026-05-02T11:08:28Z</time></trkpt><trkpt lat="41.89832414803688" lon="2.9609972220025544"><ele>402.0</ele><time>2026-05-02T11:08:29Z</time></trkpt><trkpt lat="41.898257038203404" lon="2.9610422769309706"><ele>402.0</ele><time>2026-05-02T11:08:30Z</time></trkpt><trkpt lat="41.89819420155132" lon="2.961089918667633"><ele>402.0</ele><time>2026-05-02T11:08:31Z</time></trkpt><trkpt lat="41.89813367055493" lon="2.96113158831792"><ele>400.2857142857143</ele><time>2026-05-02T11:08:32Z</time></trkpt><trkpt lat="41.89807259491412" lon="2.9611693247304727"><ele>398.5714285714286</ele><time>2026-05-02T11:08:33Z</time></trkpt><trkpt lat="41.89800624799392" lon="2.961182829916223"><ele>396.8571428571429</ele><time>2026-05-02T11:08:34Z</time></trkpt><trkpt lat="41.89793787803113" lon="2.961185062939744"><ele>395.1428571428571</ele><time>2026-05-02T11:08:35Z</time></trkpt><trkpt lat="41.897860778179684" lon="2.9611807007987956"><ele>393.42857142857144</ele><time>2026-05-02T11:08:36Z</time></trkpt><trkpt lat="41.89778115414788" lon="2.961183394985123"><ele>391.7142857142857</ele><time>2026-05-02T11:08:37Z</time></trkpt><trkpt lat="41.8977040040642" lon="2.961197092520076"><ele>390.0</ele><time>2026-05-02T11:08:38Z</time></trkpt><trkpt lat="41.89763591723836" lon="2.9612222590154302"><ele>385.8333333333333</ele><time>2026-05-02T11:08:39Z</time></trkpt><trkpt lat="41.897571173011194" lon="2.961252351729533"><ele>381.6666666666667</ele><time>2026-05-02T11:08:40Z</time></trkpt><trkpt lat="41.89750955057363" lon="2.961279923680365"><ele>377.5</ele><time>2026-05-02T11:08:41Z</time></trkpt><trkpt lat="41.89739332355692" lon="2.9613461746597376"><ele>373.33333333333337</ele><time>2026-05-02T11:08:43Z</time></trkpt><trkpt lat="41.89733960752835" lon="2.9613916678633605"><ele>369.1666666666667</ele><time>2026-05-02T11:08:44Z</time></trkpt><trkpt lat="41.89726908015004" lon="2.961515072989542"><ele>365.0</ele><time>2026-05-02T11:08:46Z</time></trkpt><trkpt lat="41.89724464818415" lon="2.961655589205584"><ele>365.0</ele><time>2026-05-02T11:08:48Z</time></trkpt><trkpt lat="41.89720658964343" lon="2.961758527285439"><ele>365.0</ele><time>2026-05-02T11:08:50Z</time></trkpt><trkpt lat="41.89712293680948" lon="2.9617679864652358"><ele>365.0</ele><time>2026-05-02T11:08:52Z</time></trkpt><trkpt lat="41.897013906415175" lon="2.961685748793163"><ele>365.0</ele><time>2026-05-02T11:08:54Z</time></trkpt><trkpt lat="41.89690883569174" lon="2.96169833143274"><ele>365.0</ele><time>2026-05-02T11:08:56Z</time></trkpt><trkpt lat="41.89684568415466" lon="2.961718081021145"><ele>365.6666666666667</ele><time>2026-05-02T11:08:57Z</time></trkpt><trkpt lat="41.89672390272991" lon="2.961766286306549"><ele>366.33333333333337</ele><time>2026-05-02T11:08:59Z</time></trkpt><trkpt lat="41.89665891858811" lon="2.961800843801418"><ele>367.0</ele><time>2026-05-02T11:09:00Z</time></trkpt><trkpt lat="41.896590136818844" lon="2.961831026176017"><ele>367.6666666666667</ele><time>2026-05-02T11:09:01Z</time></trkpt><trkpt lat="41.896516437817226" lon="2.961844176913441"><ele>368.3333333333333</ele><time>2026-05-02T11:09:02Z</time></trkpt><trkpt lat="41.89644494260866" lon="2.961852735093696"><ele>369.0</ele><time>2026-05-02T11:09:03Z</time></trkpt><trkpt lat="41.89637348874012" lon="2.961867884385408"><ele>369.0</ele><time>2026-05-02T11:09:04Z</time></trkpt><trkpt lat="41.89629990091578" lon="2.961887587373437"><ele>369.0</ele><time>2026-05-02T11:09:05Z</time></trkpt><trkpt lat="41.8961746233251" lon="2.9619296425753325"><ele>369.0</ele><time>2026-05-02T11:09:07Z</time></trkpt><trkpt lat="41.896105572767816" lon="2.9619440012909966"><ele>369.0</ele><time>2026-05-02T11:09:08Z</time></trkpt><trkpt lat="41.89603838664618" lon="2.9619515716222407"><ele>369.0</ele><time>2026-05-02T11:09:09Z</time></trkpt><trkpt lat="41.89596514215627" lon="2.961959815918437"><ele>369.0</ele><time>2026-05-02T11:09:10Z</time></trkpt><trkpt lat="41.89589779615944" lon="2.9619772343983137"><ele>365.6</ele><time>2026-05-02T11:09:11Z</time></trkpt><trkpt lat="41.895789964999565" lon="2.9620225063122354"><ele>362.2</ele><time>2026-05-02T11:09:13Z</time></trkpt><trkpt lat="41.89570599344116" lon="2.9620977720907935"><ele>358.8</ele><time>2026-05-02T11:09:15Z</time></trkpt><trkpt lat="41.89565169705347" lon="2.9621921222112046"><ele>355.40000000000003</ele><time>2026-05-02T11:09:17Z</time></trkpt><trkpt lat="41.89560601834848" lon="2.9622759229566356"><ele>352.0</ele><time>2026-05-02T11:09:19Z</time></trkpt><trkpt lat="41.89553904156243" lon="2.962356970315442"><ele>352.0</ele><time>2026-05-02T11:09:22Z</time></trkpt><trkpt lat="41.8954730417042" lon="2.9623252179684627"><ele>352.0</ele><time>2026-05-02T11:09:24Z</time></trkpt><trkpt lat="41.89543952344705" lon="2.9622338270380326"><ele>352.0</ele><time>2026-05-02T11:09:26Z</time></trkpt><trkpt lat="41.89541471249242" lon="2.9621408647788416"><ele>352.0</ele><time>2026-05-02T11:09:28Z</time></trkpt><trkpt lat="41.89539955783846" lon="2.962009139713144"><ele>352.0</ele><time>2026-05-02T11:09:30Z</time></trkpt><trkpt lat="41.895375125278704" lon="2.961863503968452"><ele>352.0</ele><time>2026-05-02T11:09:32Z</time></trkpt><trkpt lat="41.89534970269253" lon="2.9617010892048805"><ele>349.20000000000005</ele><time>2026-05-02T11:09:34Z</time></trkpt><trkpt lat="41.895320743195676" lon="2.961547576587446"><ele>346.4</ele><time>2026-05-02T11:09:36Z</time></trkpt><trkpt lat="41.895288207961585" lon="2.9614271853313734"><ele>343.6</ele><time>2026-05-02T11:09:38Z</time></trkpt><trkpt lat="41.89522953454662" lon="2.961333978831495"><ele>340.79999999999995</ele><time>2026-05-02T11:09:40Z</time></trkpt><trkpt lat="41.895140545353755" lon="2.9612781104061066"><ele>338.0</ele><time>2026-05-02T11:09:42Z</time></trkpt><trkpt lat="41.89504497229374" lon="2.961270238596995"><ele>338.0</ele><time>2026-05-02T11:09:44Z</time></trkpt><trkpt lat="41.89494563445086" lon="2.9612556529528136"><ele>338.0</ele><time>2026-05-02T11:09:46Z</time></trkpt><trkpt lat="41.89485249673686" lon="2.961211132594983"><ele>338.0</ele><time>2026-05-02T11:09:48Z</time></trkpt><trkpt lat="41.894757716899925" lon="2.961173669580916"><ele>338.0</ele><time>2026-05-02T11:09:50Z</time></trkpt><trkpt lat="41.89467170414592" lon="2.961118938682393"><ele>338.0</ele><time>2026-05-02T11:09:52Z</time></trkpt><trkpt lat="41.89459151467508" lon="2.9610659857723594"><ele>338.0</ele><time>2026-05-02T11:09:54Z</time></trkpt><trkpt lat="41.89451055282637" lon="2.961022479556916"><ele>338.0</ele><time>2026-05-02T11:09:56Z</time></trkpt><trkpt lat="41.89440746816719" lon="2.961017441500349"><ele>338.0</ele><time>2026-05-02T11:09:58Z</time></trkpt><trkpt lat="41.89430792717776" lon="2.9610628802440377"><ele>338.0</ele><time>2026-05-02T11:10:00Z</time></trkpt><trkpt lat="41.894227583718425" lon="2.961104051822692"><ele>338.0</ele><time>2026-05-02T11:10:02Z</time></trkpt><trkpt lat="41.894150613282285" lon="2.96107323943414"><ele>339.0</ele><time>2026-05-02T11:10:04Z</time></trkpt><trkpt lat="41.89409542778977" lon="2.9609529338288665"><ele>340.0</ele><time>2026-05-02T11:10:06Z</time></trkpt><trkpt lat="41.89406502282594" lon="2.9608202513207065"><ele>341.0</ele><time>2026-05-02T11:10:08Z</time></trkpt><trkpt lat="41.89407769154738" lon="2.9606914487713034"><ele>342.0</ele><time>2026-05-02T11:10:10Z</time></trkpt><trkpt lat="41.89410566405376" lon="2.9605690646920184"><ele>343.0</ele><time>2026-05-02T11:10:12Z</time></trkpt><trkpt lat="41.89410325426678" lon="2.960484203150285"><ele>337.59999999999997</ele><time>2026-05-02T11:10:13Z</time></trkpt><trkpt lat="41.89409732395237" lon="2.9603520504020358"><ele>332.2</ele><time>2026-05-02T11:10:15Z</time></trkpt><trkpt lat="41.89405914850216" lon="2.9602345291690066"><ele>326.8</ele><time>2026-05-02T11:10:17Z</time></trkpt><trkpt lat="41.89398342891537" lon="2.9601313691259543"><ele>321.4</ele><time>2026-05-02T11:10:19Z</time></trkpt><trkpt lat="41.893887078726586" lon="2.960029933558588"><ele>316.0</ele><time>2026-05-02T11:10:21Z</time></trkpt><trkpt lat="41.893835695388134" lon="2.9599743136595524"><ele>315.16666666666663</ele><time>2026-05-02T11:10:22Z</time></trkpt><trkpt lat="41.89378612423962" lon="2.959905392616081"><ele>314.3333333333333</ele><time>2026-05-02T11:10:23Z</time></trkpt><trkpt lat="41.89372884563882" lon="2.9598445530202837"><ele>313.5</ele><time>2026-05-02T11:10:24Z</time></trkpt><trkpt lat="41.8936725448002" lon="2.9597726665588144"><ele>312.6666666666667</ele><time>2026-05-02T11:10:25Z</time></trkpt><trkpt lat="41.8936249358595" lon="2.959706103437841"><ele>311.83333333333337</ele><time>2026-05-02T11:10:26Z</time></trkpt><trkpt lat="41.893528603851664" lon="2.959619607000917"><ele>311.0</ele><time>2026-05-02T11:10:28Z</time></trkpt><trkpt lat="41.89339926000693" lon="2.959608440660235"><ele>311.0</ele><time>2026-05-02T11:10:30Z</time></trkpt><trkpt lat="41.8933298968189" lon="2.9596279942084744"><ele>311.0</ele><time>2026-05-02T11:10:31Z</time></trkpt><trkpt lat="41.89326718646074" lon="2.959639864954798"><ele>311.0</ele><time>2026-05-02T11:10:32Z</time></trkpt><trkpt lat="41.89319325312667" lon="2.9596193847679664"><ele>311.0</ele><time>2026-05-02T11:10:33Z</time></trkpt><trkpt lat="41.893127641482856" lon="2.9595810530953663"><ele>311.0</ele><time>2026-05-02T11:10:34Z</time></trkpt><trkpt lat="41.89301672340094" lon="2.95955375845978"><ele>311.0</ele><time>2026-05-02T11:10:36Z</time></trkpt><trkpt lat="41.89295338051366" lon="2.9595783927575496"><ele>311.0</ele><time>2026-05-02T11:10:37Z</time></trkpt><trkpt lat="41.892878278690766" lon="2.9595987043523477"><ele>311.0</ele><time>2026-05-02T11:10:38Z</time></trkpt><trkpt lat="41.892754377229835" lon="2.9596049212486224"><ele>311.0</ele><time>2026-05-02T11:10:40Z</time></trkpt><trkpt lat="41.89264574315851" lon="2.9596164787121615"><ele>311.0</ele><time>2026-05-02T11:10:42Z</time></trkpt><trkpt lat="41.892542384296036" lon="2.9596369710598087"><ele>311.0</ele><time>2026-05-02T11:10:44Z</time></trkpt><trkpt lat="41.89244082110205" lon="2.959668224408834"><ele>310.0</ele><time>2026-05-02T11:10:46Z</time></trkpt><trkpt lat="41.89233847332856" lon="2.959711869772654"><ele>309.0</ele><time>2026-05-02T11:10:48Z</time></trkpt><trkpt lat="41.89225756992451" lon="2.9597968500011214"><ele>308.0</ele><time>2026-05-02T11:10:50Z</time></trkpt><trkpt lat="41.89218830945112" lon="2.959861704425536"><ele>307.0</ele><time>2026-05-02T11:10:52Z</time></trkpt><trkpt lat="41.892109276300786" lon="2.9598390378088983"><ele>306.0</ele><time>2026-05-02T11:10:55Z</time></trkpt><trkpt lat="41.89210333509088" lon="2.959732736077851"><ele>306.0</ele><time>2026-05-02T11:10:57Z</time></trkpt><trkpt lat="41.892126720771884" lon="2.9596152795248516"><ele>306.0</ele><time>2026-05-02T11:10:59Z</time></trkpt><trkpt lat="41.892126472853626" lon="2.95949983362063"><ele>306.0</ele><time>2026-05-02T11:11:01Z</time></trkpt><trkpt lat="41.892143136846215" lon="2.9593436920260636"><ele>306.0</ele><time>2026-05-02T11:11:03Z</time></trkpt><trkpt lat="41.892157455184694" lon="2.959251836497517"><ele>306.0</ele><time>2026-05-02T11:11:04Z</time></trkpt><trkpt lat="41.892192461675606" lon="2.959093910484431"><ele>302.7142857142857</ele><time>2026-05-02T11:11:06Z</time></trkpt><trkpt lat="41.892219022611734" lon="2.9590166046204067"><ele>299.42857142857144</ele><time>2026-05-02T11:11:07Z</time></trkpt><trkpt lat="41.89225959091713" lon="2.958937321797313"><ele>296.14285714285717</ele><time>2026-05-02T11:11:08Z</time></trkpt><trkpt lat="41.89230055965061" lon="2.958869705920415"><ele>292.8571428571429</ele><time>2026-05-02T11:11:09Z</time></trkpt><trkpt lat="41.892352873758526" lon="2.9588020895928238"><ele>289.5714285714286</ele><time>2026-05-02T11:11:10Z</time></trkpt><trkpt lat="41.89240558316436" lon="2.9587366266666377"><ele>286.2857142857143</ele><time>2026-05-02T11:11:11Z</time></trkpt><trkpt lat="41.89245606182168" lon="2.9586841804125195"><ele>283.0</ele><time>2026-05-02T11:11:12Z</time></trkpt><trkpt lat="41.892524248965664" lon="2.958572142526475"><ele>283.0</ele><time>2026-05-02T11:11:14Z</time></trkpt><trkpt lat="41.89253991616506" lon="2.958490089966681"><ele>283.0</ele><time>2026-05-02T11:11:15Z</time></trkpt><trkpt lat="41.89252966101601" lon="2.958342050826727"><ele>283.0</ele><time>2026-05-02T11:11:17Z</time></trkpt><trkpt lat="41.892544533794705" lon="2.9582110473074157"><ele>283.0</ele><time>2026-05-02T11:11:19Z</time></trkpt><trkpt lat="41.892582714419845" lon="2.958117206600649"><ele>283.0</ele><time>2026-05-02T11:11:21Z</time></trkpt><trkpt lat="41.89264819556531" lon="2.958056968394639"><ele>283.0</ele><time>2026-05-02T11:11:24Z</time></trkpt><trkpt lat="41.892707317716756" lon="2.9580024157282487"><ele>281.14285714285717</ele><time>2026-05-02T11:11:27Z</time></trkpt><trkpt lat="41.89279680237423" lon="2.9579620391375987"><ele>279.28571428571433</ele><time>2026-05-02T11:11:30Z</time></trkpt><trkpt lat="41.892863048402525" lon="2.957942104457702"><ele>277.42857142857144</ele><time>2026-05-02T11:11:32Z</time></trkpt><trkpt lat="41.892932334124126" lon="2.957917897216421"><ele>275.57142857142856</ele><time>2026-05-02T11:11:34Z</time></trkpt><trkpt lat="41.893008436816025" lon="2.957893225020618"><ele>273.71428571428567</ele><time>2026-05-02T11:11:36Z</time></trkpt><trkpt lat="41.893071944221916" lon="2.9578473336473596"><ele>271.85714285714283</ele><time>2026-05-02T11:11:38Z</time></trkpt><trkpt lat="41.893117050408186" lon="2.9577866590433266"><ele>270.0</ele><time>2026-05-02T11:11:40Z</time></trkpt><trkpt lat="41.893137330272516" lon="2.9576821805458975"><ele>270.0</ele><time>2026-05-02T11:11:43Z</time></trkpt><trkpt lat="41.893110400748" lon="2.957597205786532"><ele>270.0</ele><time>2026-05-02T11:11:46Z</time></trkpt><trkpt lat="41.89306479359485" lon="2.9574964424588197"><ele>270.0</ele><time>2026-05-02T11:11:50Z</time></trkpt><trkpt lat="41.89301367837395" lon="2.9574392001274323"><ele>270.0</ele><time>2026-05-02T11:11:53Z</time></trkpt><trkpt lat="41.89296858852867" lon="2.9573544887371015"><ele>270.0</ele><time>2026-05-02T11:11:57Z</time></trkpt><trkpt lat="41.89292301392605" lon="2.957285202924173"><ele>270.0</ele><time>2026-05-02T11:12:00Z</time></trkpt><trkpt lat="41.89295358442851" lon="2.957194716396004"><ele>270.0</ele><time>2026-05-02T11:12:03Z</time></trkpt><trkpt lat="41.893013355098674" lon="2.957167751276865"><ele>270.85714285714283</ele><time>2026-05-02T11:12:06Z</time></trkpt><trkpt lat="41.89308412032072" lon="2.9572042656021855"><ele>271.71428571428567</ele><time>2026-05-02T11:12:11Z</time></trkpt><trkpt lat="41.893160799315666" lon="2.95720356340608"><ele>272.57142857142856</ele><time>2026-05-02T11:12:15Z</time></trkpt><trkpt lat="41.893224199067724" lon="2.9571700675679526"><ele>273.42857142857144</ele><time>2026-05-02T11:12:18Z</time></trkpt><trkpt lat="41.89328112933988" lon="2.9571053139610046"><ele>274.28571428571433</ele><time>2026-05-02T11:12:21Z</time></trkpt><trkpt lat="41.89332069523752" lon="2.957038145532809"><ele>275.14285714285717</ele><time>2026-05-02T11:12:24Z</time></trkpt><trkpt lat="41.89335763342049" lon="2.9569643069414626"><ele>276.0</ele><time>2026-05-02T11:12:27Z</time></trkpt><trkpt lat="41.89339234849556" lon="2.956868878294003"><ele>276.2857142857143</ele><time>2026-05-02T11:12:31Z</time></trkpt><trkpt lat="41.89342790978135" lon="2.956783143947928"><ele>276.5714285714286</ele><time>2026-05-02T11:12:35Z</time></trkpt><trkpt lat="41.893455729054246" lon="2.956689901676701"><ele>276.8571428571429</ele><time>2026-05-02T11:12:39Z</time></trkpt><trkpt lat="41.89347917069937" lon="2.9566045508631182"><ele>277.14285714285717</ele><time>2026-05-02T11:12:43Z</time></trkpt><trkpt lat="41.89350389689791" lon="2.9565052637330655"><ele>277.42857142857144</ele><time>2026-05-02T11:12:48Z</time></trkpt><trkpt lat="41.893544464334944" lon="2.9564160696932635"><ele>277.7142857142857</ele><time>2026-05-02T11:12:53Z</time></trkpt><trkpt lat="41.893542044899135" lon="2.956318879925585"><ele>278.0</ele><time>2026-05-02T11:12:58Z</time></trkpt><trkpt lat="41.89353663942683" lon="2.956229053204224"><ele>277.1428571428571</ele><time>2026-05-02T11:13:02Z</time></trkpt><trkpt lat="41.89351473700688" lon="2.9561366321089975"><ele>276.2857142857143</ele><time>2026-05-02T11:13:06.001Z</time></trkpt><trkpt lat="41.893476658113954" lon="2.956057854695985"><ele>275.42857142857144</ele><time>2026-05-02T11:13:10.001Z</time></trkpt><trkpt lat="41.89343071359148" lon="2.9559941514253993"><ele>274.57142857142856</ele><time>2026-05-02T11:13:14.001Z</time></trkpt><trkpt lat="41.89336076686748" lon="2.9559657125427647"><ele>273.7142857142857</ele><time>2026-05-02T11:13:18.001Z</time></trkpt><trkpt lat="41.893286401200584" lon="2.9559516792977676"><ele>272.85714285714283</ele><time>2026-05-02T11:13:23.001Z</time></trkpt><trkpt lat="41.89322184180466" lon="2.95595362673781"><ele>272.0</ele><time>2026-05-02T11:13:27Z</time></trkpt><trkpt lat="41.89315166537108" lon="2.9559282774642868"><ele>274.57142857142856</ele><time>2026-05-02T11:13:32Z</time></trkpt><trkpt lat="41.893087486921765" lon="2.955910856350154"><ele>277.1428571428571</ele><time>2026-05-02T11:13:36Z</time></trkpt><trkpt lat="41.8930195763168" lon="2.9558812359551196"><ele>279.7142857142857</ele><time>2026-05-02T11:13:40Z</time></trkpt><trkpt lat="41.89295707139087" lon="2.955838766967804"><ele>282.2857142857143</ele><time>2026-05-02T11:13:44Z</time></trkpt><trkpt lat="41.89288452984405" lon="2.9558046130138234"><ele>284.8571428571429</ele><time>2026-05-02T11:13:48Z</time></trkpt><trkpt lat="41.89281877054041" lon="2.9557496023969874"><ele>287.42857142857144</ele><time>2026-05-02T11:13:52Z</time></trkpt><trkpt lat="41.89276745165603" lon="2.955668813914991"><ele>290.0</ele><time>2026-05-02T11:13:56Z</time></trkpt><trkpt lat="41.89270095557881" lon="2.9555704892296006"><ele>290.5</ele><time>2026-05-02T11:13:59Z</time></trkpt><trkpt lat="41.892643180774684" lon="2.9554884801143397"><ele>291.0</ele><time>2026-05-02T11:14:02Z</time></trkpt><trkpt lat="41.89258922485828" lon="2.9553850924132545"><ele>291.5</ele><time>2026-05-02T11:14:05Z</time></trkpt><trkpt lat="41.89253718043277" lon="2.9553062796281075"><ele>292.0</ele><time>2026-05-02T11:14:07Z</time></trkpt><trkpt lat="41.8924884807682" lon="2.955226661440523"><ele>292.5</ele><time>2026-05-02T11:14:09Z</time></trkpt><trkpt lat="41.89243569347193" lon="2.9551553161787725"><ele>293.0</ele><time>2026-05-02T11:14:11Z</time></trkpt><trkpt lat="41.89236635395869" lon="2.955092153821001"><ele>295.4</ele><time>2026-05-02T11:14:13Z</time></trkpt><trkpt lat="41.89229410836246" lon="2.955024367727486"><ele>297.8</ele><time>2026-05-02T11:14:15Z</time></trkpt><trkpt lat="41.89222199358333" lon="2.9549471832523855"><ele>300.2</ele><time>2026-05-02T11:14:17Z</time></trkpt><trkpt lat="41.89217510395382" lon="2.9548294110723123"><ele>302.6</ele><time>2026-05-02T11:14:19Z</time></trkpt><trkpt lat="41.89221651806488" lon="2.954733307293294"><ele>305.0</ele><time>2026-05-02T11:14:21Z</time></trkpt><trkpt lat="41.892278162658904" lon="2.9546346409171447"><ele>305.0</ele><time>2026-05-02T11:14:24Z</time></trkpt><trkpt lat="41.8923162644301" lon="2.9545621695826814"><ele>305.0</ele><time>2026-05-02T11:14:26Z</time></trkpt><trkpt lat="41.89235009319161" lon="2.9544900081573693"><ele>305.0</ele><time>2026-05-02T11:14:28Z</time></trkpt><trkpt lat="41.8923705381049" lon="2.9543871841025897"><ele>305.0</ele><time>2026-05-02T11:14:30Z</time></trkpt><trkpt lat="41.89239475864169" lon="2.9542705281393182"><ele>305.0</ele><time>2026-05-02T11:14:32Z</time></trkpt><trkpt lat="41.89243831225599" lon="2.9541895110203136"><ele>305.0</ele><time>2026-05-02T11:14:34Z</time></trkpt><trkpt lat="41.89248335917147" lon="2.9541284001477304"><ele>305.0</ele><time>2026-05-02T11:14:36Z</time></trkpt><trkpt lat="41.892533851308464" lon="2.9540554242309245"><ele>305.33333333333337</ele><time>2026-05-02T11:14:38Z</time></trkpt><trkpt lat="41.892549882858916" lon="2.9539522323707703"><ele>305.6666666666667</ele><time>2026-05-02T11:14:40Z</time></trkpt><trkpt lat="41.89254532175787" lon="2.9538403151356207"><ele>306.0</ele><time>2026-05-02T11:14:42Z</time></trkpt><trkpt lat="41.8925420803074" lon="2.953719632371823"><ele>306.3333333333333</ele><time>2026-05-02T11:14:44Z</time></trkpt><trkpt lat="41.89256533691938" lon="2.953601152173962"><ele>306.66666666666663</ele><time>2026-05-02T11:14:46Z</time></trkpt><trkpt lat="41.89260838342111" lon="2.9534911999620657"><ele>307.0</ele><time>2026-05-02T11:14:48Z</time></trkpt><trkpt lat="41.892655604428384" lon="2.953398036207725"><ele>308.5</ele><time>2026-05-02T11:14:50Z</time></trkpt><trkpt lat="41.89269470784945" lon="2.9532980735552408"><ele>310.0</ele><time>2026-05-02T11:14:52Z</time></trkpt><trkpt lat="41.89270666840144" lon="2.953199159909482"><ele>311.5</ele><time>2026-05-02T11:14:54Z</time></trkpt><trkpt lat="41.892709205324564" lon="2.9530868944226705"><ele>313.0</ele><time>2026-05-02T11:14:56Z</time></trkpt><trkpt lat="41.89268879675145" lon="2.9529734966336703"><ele>314.5</ele><time>2026-05-02T11:14:58Z</time></trkpt><trkpt lat="41.89262014719662" lon="2.952893167063099"><ele>316.0</ele><time>2026-05-02T11:15:00Z</time></trkpt><trkpt lat="41.89253910735794" lon="2.9528422654115873"><ele>316.0</ele><time>2026-05-02T11:15:03Z</time></trkpt><trkpt lat="41.89246472161385" lon="2.952826104136429"><ele>316.0</ele><time>2026-05-02T11:15:05Z</time></trkpt><trkpt lat="41.89239822095299" lon="2.9528045219965007"><ele>316.0</ele><time>2026-05-02T11:15:07Z</time></trkpt><trkpt lat="41.892324036431695" lon="2.952742789766538"><ele>316.0</ele><time>2026-05-02T11:15:10.001Z</time></trkpt><trkpt lat="41.89226371119464" lon="2.9526679351298806"><ele>316.0</ele><time>2026-05-02T11:15:15.001Z</time></trkpt><trkpt lat="41.892202035157865" lon="2.95259931315264"><ele>316.0</ele><time>2026-05-02T11:15:19.001Z</time></trkpt><trkpt lat="41.89214958920828" lon="2.952523581936791"><ele>315.8333333333333</ele><time>2026-05-02T11:15:23.001Z</time></trkpt><trkpt lat="41.89208761729698" lon="2.952468589661887"><ele>315.66666666666663</ele><time>2026-05-02T11:15:27.001Z</time></trkpt><trkpt lat="41.892010090991356" lon="2.952447501299139"><ele>315.5</ele><time>2026-05-02T11:15:31.001Z</time></trkpt><trkpt lat="41.89192525016326" lon="2.9524701879420836"><ele>315.3333333333333</ele><time>2026-05-02T11:15:35.001Z</time></trkpt><trkpt lat="41.89185827568577" lon="2.952458295869874"><ele>315.1666666666667</ele><time>2026-05-02T11:15:38Z</time></trkpt><trkpt lat="41.8917786795492" lon="2.952471905783932"><ele>315.0</ele><time>2026-05-02T11:15:41Z</time></trkpt><trkpt lat="41.891698704840515" lon="2.9524611748830925"><ele>316.8333333333333</ele><time>2026-05-02T11:15:43Z</time></trkpt><trkpt lat="41.8916320863463" lon="2.952462621499648"><ele>318.6666666666667</ele><time>2026-05-02T11:15:45Z</time></trkpt><trkpt lat="41.89155831107531" lon="2.9524171528814387"><ele>320.5</ele><time>2026-05-02T11:15:48Z</time></trkpt><trkpt lat="41.89150611979767" lon="2.952320807631621"><ele>322.33333333333337</ele><time>2026-05-02T11:15:51Z</time></trkpt><trkpt lat="41.89146225406301" lon="2.952215984816783"><ele>324.1666666666667</ele><time>2026-05-02T11:15:54Z</time></trkpt><trkpt lat="41.89141852156569" lon="2.952123472061875"><ele>326.0</ele><time>2026-05-02T11:15:57Z</time></trkpt><trkpt lat="41.89136090506698" lon="2.952033296865617"><ele>326.0</ele><time>2026-05-02T11:16:00Z</time></trkpt><trkpt lat="41.89130312567536" lon="2.9519840703446794"><ele>326.0</ele><time>2026-05-02T11:16:02Z</time></trkpt><trkpt lat="41.89122721275766" lon="2.9519351369444466"><ele>326.0</ele><time>2026-05-02T11:16:05Z</time></trkpt><trkpt lat="41.891162744468275" lon="2.9519042686120653"><ele>326.0</ele><time>2026-05-02T11:16:07Z</time></trkpt><trkpt lat="41.89108342371384" lon="2.951856384398059"><ele>326.0</ele><time>2026-05-02T11:16:10Z</time></trkpt><trkpt lat="41.8910182762075" lon="2.95178510161062"><ele>326.0</ele><time>2026-05-02T11:16:13Z</time></trkpt><trkpt lat="41.89099018085115" lon="2.951690898989027"><ele>324.5</ele><time>2026-05-02T11:16:16Z</time></trkpt><trkpt lat="41.89097732677589" lon="2.9515877331525364"><ele>323.0</ele><time>2026-05-02T11:16:19Z</time></trkpt><trkpt lat="41.890976119875056" lon="2.9514839244730435"><ele>321.5</ele><time>2026-05-02T11:16:22Z</time></trkpt><trkpt lat="41.8909615244772" lon="2.951372552269563"><ele>320.0</ele><time>2026-05-02T11:16:25Z</time></trkpt><trkpt lat="41.890940486493726" lon="2.9512665717300375"><ele>318.5</ele><time>2026-05-02T11:16:28Z</time></trkpt><trkpt lat="41.8909199159435" lon="2.9511845312754903"><ele>317.0</ele><time>2026-05-02T11:16:30Z</time></trkpt><trkpt lat="41.89089587004535" lon="2.951102764389315"><ele>319.6666666666667</ele><time>2026-05-02T11:16:32Z</time></trkpt><trkpt lat="41.89084608692263" lon="2.9510011369454223"><ele>322.33333333333337</ele><time>2026-05-02T11:16:35Z</time></trkpt><trkpt lat="41.89081899170443" lon="2.950913861874024"><ele>325.0</ele><time>2026-05-02T11:16:37Z</time></trkpt><trkpt lat="41.89075894232258" lon="2.950812713811374"><ele>327.6666666666667</ele><time>2026-05-02T11:16:40Z</time></trkpt><trkpt lat="41.89071422150306" lon="2.950725861261761"><ele>330.3333333333333</ele><time>2026-05-02T11:16:42.999Z</time></trkpt><trkpt lat="41.89065976018376" lon="2.950643628190689"><ele>333.0</ele><time>2026-05-02T11:16:44.999Z</time></trkpt><trkpt lat="41.89058022796163" lon="2.950616139566759"><ele>333.0</ele><time>2026-05-02T11:16:47.999Z</time></trkpt><trkpt lat="41.89051851622659" lon="2.95058714539484"><ele>333.0</ele><time>2026-05-02T11:16:49.999Z</time></trkpt><trkpt lat="41.89043777357768" lon="2.9505715515860804"><ele>333.0</ele><time>2026-05-02T11:16:52.999Z</time></trkpt><trkpt lat="41.89034381931339" lon="2.9505437561145365"><ele>333.0</ele><time>2026-05-02T11:16:55.999Z</time></trkpt><trkpt lat="41.89027872701631" lon="2.9505393120750205"><ele>333.0</ele><time>2026-05-02T11:16:57.999Z</time></trkpt><trkpt lat="41.890208842693674" lon="2.9505138790465844"><ele>333.0</ele><time>2026-05-02T11:17:01.999Z</time></trkpt><trkpt lat="41.89012723811496" lon="2.9505021496691652"><ele>335.4</ele><time>2026-05-02T11:17:04.999Z</time></trkpt><trkpt lat="41.89005457024163" lon="2.950468147125417"><ele>337.79999999999995</ele><time>2026-05-02T11:17:07.999Z</time></trkpt><trkpt lat="41.88997456249201" lon="2.9504270814013913"><ele>340.2</ele><time>2026-05-02T11:17:10.999Z</time></trkpt><trkpt lat="41.889868029775386" lon="2.950391888860884"><ele>342.6</ele><time>2026-05-02T11:17:12.999Z</time></trkpt><trkpt lat="41.889779967568" lon="2.9503774068483066"><ele>345.0</ele><time>2026-05-02T11:17:15.999Z</time></trkpt><trkpt lat="41.88969099932834" lon="2.9503825935861947"><ele>345.0</ele><time>2026-05-02T11:17:18.999Z</time></trkpt><trkpt lat="41.889598890351" lon="2.950401077364441"><ele>345.0</ele><time>2026-05-02T11:17:21.999Z</time></trkpt><trkpt lat="41.889513678428706" lon="2.9504251593772444"><ele>345.0</ele><time>2026-05-02T11:17:24.999Z</time></trkpt><trkpt lat="41.88926456934724" lon="2.9504510288634234"><ele>345.0</ele><time>2026-05-02T11:17:27.999Z</time></trkpt><trkpt lat="41.88919748486796" lon="2.9504446952819867"><ele>345.57142857142856</ele><time>2026-05-02T11:17:29.999Z</time></trkpt><trkpt lat="41.88911926767013" lon="2.9503989026085997"><ele>346.1428571428571</ele><time>2026-05-02T11:17:32.999Z</time></trkpt><trkpt lat="41.889063842811844" lon="2.9503546124442788"><ele>346.71428571428567</ele><time>2026-05-02T11:17:34.999Z</time></trkpt><trkpt lat="41.889010849072974" lon="2.9502991535809593"><ele>347.2857142857143</ele><time>2026-05-02T11:17:36.999Z</time></trkpt><trkpt lat="41.888953899500315" lon="2.950243349486014"><ele>347.85714285714283</ele><time>2026-05-02T11:17:38.999Z</time></trkpt><trkpt lat="41.88889503774421" lon="2.9501934255934215"><ele>348.4285714285714</ele><time>2026-05-02T11:17:40.999Z</time></trkpt><trkpt lat="41.88881833059679" lon="2.9501442688401363"><ele>349.0</ele><time>2026-05-02T11:17:42.999Z</time></trkpt><trkpt lat="41.88873747158527" lon="2.950096757397544"><ele>349.0</ele><time>2026-05-02T11:17:44.999Z</time></trkpt><trkpt lat="41.88866406729448" lon="2.9500753435596443"><ele>349.0</ele><time>2026-05-02T11:17:46.999Z</time></trkpt><trkpt lat="41.888576792778196" lon="2.950056695154925"><ele>349.0</ele><time>2026-05-02T11:17:48.999Z</time></trkpt><trkpt lat="41.88849355128392" lon="2.950012317598881"><ele>349.0</ele><time>2026-05-02T11:17:50.999Z</time></trkpt><trkpt lat="41.88845492892103" lon="2.9499403209655504"><ele>349.0</ele><time>2026-05-02T11:17:53.999Z</time></trkpt><trkpt lat="41.8883582447885" lon="2.9498917993808185"><ele>349.0</ele><time>2026-05-02T11:17:55.999Z</time></trkpt><trkpt lat="41.88827898427161" lon="2.9498236199799575"><ele>348.4</ele><time>2026-05-02T11:17:57.999Z</time></trkpt><trkpt lat="41.88820482765047" lon="2.9497666951196138"><ele>347.79999999999995</ele><time>2026-05-02T11:17:59.999Z</time></trkpt><trkpt lat="41.88813099436789" lon="2.949691757138371"><ele>347.20000000000005</ele><time>2026-05-02T11:18:01.999Z</time></trkpt><trkpt lat="41.88807956246258" lon="2.949615589089316"><ele>346.6</ele><time>2026-05-02T11:18:03.999Z</time></trkpt><trkpt lat="41.887964284432975" lon="2.949543146771847"><ele>346.0</ele><time>2026-05-02T11:20:16.999Z</time></trkpt><trkpt lat="41.88799850086318" lon="2.949450447339821"><ele>346.0</ele><time>2026-05-02T11:20:44.999Z</time></trkpt><trkpt lat="41.88801672992249" lon="2.9493079095857047"><ele>346.0</ele><time>2026-05-02T11:20:46.999Z</time></trkpt><trkpt lat="41.88803295400258" lon="2.9491431162300676"><ele>346.0</ele><time>2026-05-02T11:20:48.999Z</time></trkpt><trkpt lat="41.88803989394259" lon="2.9490574285050264"><ele>346.0</ele><time>2026-05-02T11:20:49.999Z</time></trkpt><trkpt lat="41.88805502432443" lon="2.9488856623464232"><ele>346.0</ele><time>2026-05-02T11:20:51.999Z</time></trkpt><trkpt lat="41.888065542755484" lon="2.9487941963435382"><ele>345.4285714285714</ele><time>2026-05-02T11:20:52.999Z</time></trkpt><trkpt lat="41.888077236983094" lon="2.9486994765703134"><ele>344.8571428571429</ele><time>2026-05-02T11:20:53.999Z</time></trkpt><trkpt lat="41.88808828699049" lon="2.948602713920855"><ele>344.2857142857143</ele><time>2026-05-02T11:20:54.999Z</time></trkpt><trkpt lat="41.888098238028235" lon="2.948507868672854"><ele>343.71428571428567</ele><time>2026-05-02T11:20:55.999Z</time></trkpt><trkpt lat="41.888107118763756" lon="2.9484135839596277"><ele>343.1428571428571</ele><time>2026-05-02T11:20:56.999Z</time></trkpt><trkpt lat="41.88811790745878" lon="2.9483162272790353"><ele>342.57142857142856</ele><time>2026-05-02T11:20:57.999Z</time></trkpt><trkpt lat="41.888125132708986" lon="2.9482189150602562"><ele>342.0</ele><time>2026-05-02T11:20:58.999Z</time></trkpt><trkpt lat="41.88813493513121" lon="2.948122915136505"><ele>341.6666666666667</ele><time>2026-05-02T11:20:59.999Z</time></trkpt><trkpt lat="41.88814483801538" lon="2.94802670549312"><ele>341.3333333333333</ele><time>2026-05-02T11:21:00.999Z</time></trkpt><trkpt lat="41.8881583466267" lon="2.947928646879593"><ele>341.0</ele><time>2026-05-02T11:21:01.999Z</time></trkpt><trkpt lat="41.88816671981512" lon="2.9478250422901966"><ele>340.66666666666663</ele><time>2026-05-02T11:21:02.999Z</time></trkpt><trkpt lat="41.88818062114881" lon="2.947727582871177"><ele>340.3333333333333</ele><time>2026-05-02T11:21:03.999Z</time></trkpt><trkpt lat="41.888192534967686" lon="2.9476251010344976"><ele>340.0</ele><time>2026-05-02T11:21:04.999Z</time></trkpt><trkpt lat="41.88820865109415" lon="2.94752592582219"><ele>339.7142857142857</ele><time>2026-05-02T11:21:05.999Z</time></trkpt><trkpt lat="41.88823091738305" lon="2.947431254343887"><ele>339.4285714285714</ele><time>2026-05-02T11:21:06.999Z</time></trkpt><trkpt lat="41.88826833580919" lon="2.947340991033539"><ele>339.1428571428571</ele><time>2026-05-02T11:21:07.999Z</time></trkpt><trkpt lat="41.88830690370884" lon="2.94725812508945"><ele>338.8571428571429</ele><time>2026-05-02T11:21:08.999Z</time></trkpt><trkpt lat="41.88835209427046" lon="2.947178620660179"><ele>338.57142857142856</ele><time>2026-05-02T11:21:09.999Z</time></trkpt><trkpt lat="41.888405464802304" lon="2.94710988056288"><ele>338.2857142857143</ele><time>2026-05-02T11:21:10.999Z</time></trkpt><trkpt lat="41.88845625738749" lon="2.9470348383790954"><ele>338.0</ele><time>2026-05-02T11:21:11.999Z</time></trkpt><trkpt lat="41.88850602734579" lon="2.946956238920764"><ele>336.6666666666667</ele><time>2026-05-02T11:21:12.999Z</time></trkpt><trkpt lat="41.888543398320365" lon="2.9468674391039236"><ele>335.33333333333337</ele><time>2026-05-02T11:21:13.999Z</time></trkpt><trkpt lat="41.88857275330242" lon="2.9467715582252696"><ele>334.0</ele><time>2026-05-02T11:21:14.999Z</time></trkpt><trkpt lat="41.888600565245476" lon="2.9466600498288673"><ele>332.6666666666667</ele><time>2026-05-02T11:21:15.999Z</time></trkpt><trkpt lat="41.88862818547858" lon="2.9465478565422756"><ele>331.3333333333333</ele><time>2026-05-02T11:21:16.999Z</time></trkpt><trkpt lat="41.888636154349335" lon="2.9464341954343625"><ele>330.0</ele><time>2026-05-02T11:21:17.999Z</time></trkpt><trkpt lat="41.8886357761778" lon="2.9463152816589004"><ele>330.0</ele><time>2026-05-02T11:21:18.999Z</time></trkpt><trkpt lat="41.888624280866146" lon="2.946201457914988"><ele>330.0</ele><time>2026-05-02T11:21:19.999Z</time></trkpt><trkpt lat="41.88859363085465" lon="2.9460984452085235"><ele>330.0</ele><time>2026-05-02T11:21:20.999Z</time></trkpt><trkpt lat="41.88855912338546" lon="2.94599906330083"><ele>330.0</ele><time>2026-05-02T11:21:21.999Z</time></trkpt><trkpt lat="41.88853691055023" lon="2.9458898943482605"><ele>330.0</ele><time>2026-05-02T11:21:22.999Z</time></trkpt><trkpt lat="41.88852172127592" lon="2.9457798846039007"><ele>330.0</ele><time>2026-05-02T11:21:23.999Z</time></trkpt><trkpt lat="41.888501915670645" lon="2.9456774713652543"><ele>330.0</ele><time>2026-05-02T11:21:24.999Z</time></trkpt><trkpt lat="41.888493188923285" lon="2.94557652092388"><ele>330.0</ele><time>2026-05-02T11:21:25.999Z</time></trkpt><trkpt lat="41.88848178602518" lon="2.9454786137415097"><ele>330.0</ele><time>2026-05-02T11:21:26.999Z</time></trkpt><trkpt lat="41.88847322858567" lon="2.9453861904373335"><ele>330.0</ele><time>2026-05-02T11:21:27.998Z</time></trkpt><trkpt lat="41.88844870192518" lon="2.9452519639680594"><ele>330.0</ele><time>2026-05-02T11:21:29.998Z</time></trkpt><trkpt lat="41.88831300961396" lon="2.9452589295113563"><ele>330.1666666666667</ele><time>2026-05-02T11:21:34.999Z</time></trkpt><trkpt lat="41.888240613177395" lon="2.945302000515017"><ele>330.3333333333333</ele><time>2026-05-02T11:21:36.999Z</time></trkpt><trkpt lat="41.888128741677725" lon="2.945342749355004"><ele>330.5</ele><time>2026-05-02T11:21:38.999Z</time></trkpt><trkpt lat="41.88806177990167" lon="2.945367299270769"><ele>330.66666666666663</ele><time>2026-05-02T11:21:39.999Z</time></trkpt><trkpt lat="41.887986530024506" lon="2.945397257328913"><ele>330.8333333333333</ele><time>2026-05-02T11:21:40.999Z</time></trkpt><trkpt lat="41.88792189011001" lon="2.9454081208005323"><ele>331.0</ele><time>2026-05-02T11:21:41.999Z</time></trkpt><trkpt lat="41.887857730085386" lon="2.9454155676128764"><ele>331.0</ele><time>2026-05-02T11:21:42.999Z</time></trkpt><trkpt lat="41.8877363023086" lon="2.9454015803884617"><ele>331.0</ele><time>2026-05-02T11:21:44.999Z</time></trkpt><trkpt lat="41.88763743524676" lon="2.9454296482046693"><ele>331.0</ele><time>2026-05-02T11:21:46.999Z</time></trkpt><trkpt lat="41.88752137906859" lon="2.9454416478293473"><ele>331.0</ele><time>2026-05-02T11:21:48.999Z</time></trkpt><trkpt lat="41.887450833293606" lon="2.9454190749737394"><ele>331.0</ele><time>2026-05-02T11:21:49.999Z</time></trkpt><trkpt lat="41.88737931074178" lon="2.945380153802907"><ele>330.3333333333333</ele><time>2026-05-02T11:21:50.999Z</time></trkpt><trkpt lat="41.887301492581145" lon="2.9453520606230894"><ele>329.66666666666663</ele><time>2026-05-02T11:21:51.999Z</time></trkpt><trkpt lat="41.88721922514254" lon="2.9453296007813434"><ele>329.0</ele><time>2026-05-02T11:21:52.999Z</time></trkpt><trkpt lat="41.88713879283994" lon="2.945308481083085"><ele>328.3333333333333</ele><time>2026-05-02T11:21:53.999Z</time></trkpt><trkpt lat="41.8870639641782" lon="2.9452957543454708"><ele>327.6666666666667</ele><time>2026-05-02T11:21:54.999Z</time></trkpt><trkpt lat="41.88699463139456" lon="2.9452914533110808"><ele>327.0</ele><time>2026-05-02T11:21:55.999Z</time></trkpt><trkpt lat="41.88692964555986" lon="2.9452862668410336"><ele>327.0</ele><time>2026-05-02T11:21:56.999Z</time></trkpt><trkpt lat="41.88682857706445" lon="2.945256456020463"><ele>327.0</ele><time>2026-05-02T11:21:58.999Z</time></trkpt><trkpt lat="41.8867508228308" lon="2.9452118440819466"><ele>327.0</ele><time>2026-05-02T11:22:00.999Z</time></trkpt><trkpt lat="41.886697407953626" lon="2.9451071858035087"><ele>327.0</ele><time>2026-05-02T11:22:02.999Z</time></trkpt><trkpt lat="41.88667402365613" lon="2.9449565963172883"><ele>327.0</ele><time>2026-05-02T11:22:04.999Z</time></trkpt><trkpt lat="41.886637065902406" lon="2.94480049297985"><ele>325.85714285714283</ele><time>2026-05-02T11:22:06.999Z</time></trkpt><trkpt lat="41.88661135056023" lon="2.9447192071226636"><ele>324.7142857142857</ele><time>2026-05-02T11:22:07.999Z</time></trkpt><trkpt lat="41.88658456958325" lon="2.944638431259271"><ele>323.57142857142856</ele><time>2026-05-02T11:22:08.999Z</time></trkpt><trkpt lat="41.88655766780226" lon="2.944556447296211"><ele>322.42857142857144</ele><time>2026-05-02T11:22:09.999Z</time></trkpt><trkpt lat="41.88652287877807" lon="2.9444850302980923"><ele>321.2857142857143</ele><time>2026-05-02T11:22:10.999Z</time></trkpt><trkpt lat="41.88647060559749" lon="2.944431691906948"><ele>320.14285714285717</ele><time>2026-05-02T11:22:11.999Z</time></trkpt><trkpt lat="41.886422607854016" lon="2.944375056450197"><ele>319.0</ele><time>2026-05-02T11:22:12.999Z</time></trkpt><trkpt lat="41.88637910979904" lon="2.944262093033815"><ele>318.8</ele><time>2026-05-02T11:22:14.999Z</time></trkpt><trkpt lat="41.88639480355765" lon="2.944133981019142"><ele>318.59999999999997</ele><time>2026-05-02T11:22:16.999Z</time></trkpt><trkpt lat="41.8864244933429" lon="2.9439756381147792"><ele>318.4</ele><time>2026-05-02T11:22:18.999Z</time></trkpt><trkpt lat="41.88641277041988" lon="2.943889653458794"><ele>318.2</ele><time>2026-05-02T11:22:19.999Z</time></trkpt><trkpt lat="41.88639281909022" lon="2.9438086153235976"><ele>318.0</ele><time>2026-05-02T11:22:20.999Z</time></trkpt><trkpt lat="41.886337489541646" lon="2.9436612044161485"><ele>318.0</ele><time>2026-05-02T11:22:22.999Z</time></trkpt><trkpt lat="41.886250614409285" lon="2.9435574661243855"><ele>318.0</ele><time>2026-05-02T11:22:24.999Z</time></trkpt><trkpt lat="41.88614659699021" lon="2.9435312133300036"><ele>318.0</ele><time>2026-05-02T11:22:26.999Z</time></trkpt><trkpt lat="41.88604033630014" lon="2.943540781677606"><ele>318.0</ele><time>2026-05-02T11:22:28.999Z</time></trkpt><trkpt lat="41.88597641235962" lon="2.9435298038137034"><ele>318.0</ele><time>2026-05-02T11:22:29.999Z</time></trkpt><trkpt lat="41.88590732552443" lon="2.9435111022755085"><ele>316.85714285714283</ele><time>2026-05-02T11:22:30.999Z</time></trkpt><trkpt lat="41.88583720868836" lon="2.943479463984686"><ele>315.7142857142857</ele><time>2026-05-02T11:22:31.999Z</time></trkpt><trkpt lat="41.885770409019656" lon="2.943452223268926"><ele>314.57142857142856</ele><time>2026-05-02T11:22:32.999Z</time></trkpt><trkpt lat="41.885705999265426" lon="2.943428930260047"><ele>313.42857142857144</ele><time>2026-05-02T11:22:33.999Z</time></trkpt><trkpt lat="41.885640527819895" lon="2.9434062959951426"><ele>312.2857142857143</ele><time>2026-05-02T11:22:34.999Z</time></trkpt><trkpt lat="41.88557541143141" lon="2.9433863597149745"><ele>311.14285714285717</ele><time>2026-05-02T11:22:35.999Z</time></trkpt><trkpt lat="41.88551472009501" lon="2.9433618244693385"><ele>310.0</ele><time>2026-05-02T11:22:36.999Z</time></trkpt><trkpt lat="41.88545508529757" lon="2.9433233826977037"><ele>310.0</ele><time>2026-05-02T11:22:37.999Z</time></trkpt><trkpt lat="41.88540462620798" lon="2.943260669363461"><ele>310.0</ele><time>2026-05-02T11:22:38.999Z</time></trkpt><trkpt lat="41.88535577651177" lon="2.943189114690606"><ele>310.0</ele><time>2026-05-02T11:22:39.999Z</time></trkpt><trkpt lat="41.88530390333871" lon="2.9431276925605134"><ele>310.0</ele><time>2026-05-02T11:22:40.999Z</time></trkpt><trkpt lat="41.88524833545142" lon="2.94307800738094"><ele>310.0</ele><time>2026-05-02T11:22:41.999Z</time></trkpt><trkpt lat="41.885192144896294" lon="2.943039215348189"><ele>310.0</ele><time>2026-05-02T11:22:42.999Z</time></trkpt><trkpt lat="41.88508459644653" lon="2.942958349006047"><ele>306.8</ele><time>2026-05-02T11:22:44.999Z</time></trkpt><trkpt lat="41.885027792756745" lon="2.942911696097668"><ele>303.6</ele><time>2026-05-02T11:22:45.999Z</time></trkpt><trkpt lat="41.88497161732648" lon="2.9428662499864773"><ele>300.4</ele><time>2026-05-02T11:22:46.999Z</time></trkpt><trkpt lat="41.88486098324844" lon="2.9428009568692155"><ele>297.2</ele><time>2026-05-02T11:22:48.999Z</time></trkpt><trkpt lat="41.88476604769343" lon="2.942732365480251"><ele>294.0</ele><time>2026-05-02T11:22:50.999Z</time></trkpt><trkpt lat="41.88469391735927" lon="2.942633805040053"><ele>295.0</ele><time>2026-05-02T11:22:52.999Z</time></trkpt><trkpt lat="41.884610586508934" lon="2.9425172909771016"><ele>296.0</ele><time>2026-05-02T11:22:54.999Z</time></trkpt><trkpt lat="41.88457678078331" lon="2.942444006937362"><ele>297.0</ele><time>2026-05-02T11:22:55.999Z</time></trkpt><trkpt lat="41.884516959006696" lon="2.9422953189811656"><ele>298.0</ele><time>2026-05-02T11:22:57.999Z</time></trkpt><trkpt lat="41.88447937998196" lon="2.9422197926348685"><ele>299.0</ele><time>2026-05-02T11:22:58.999Z</time></trkpt><trkpt lat="41.88443727441927" lon="2.94213660879585"><ele>299.0</ele><time>2026-05-02T11:22:59.999Z</time></trkpt><trkpt lat="41.88439325425182" lon="2.9420505565896216"><ele>299.0</ele><time>2026-05-02T11:23:00.999Z</time></trkpt><trkpt lat="41.88435001723141" lon="2.9419659342180475"><ele>299.0</ele><time>2026-05-02T11:23:01.999Z</time></trkpt><trkpt lat="41.88430530223549" lon="2.941885847690678"><ele>299.0</ele><time>2026-05-02T11:23:02.999Z</time></trkpt><trkpt lat="41.88424753236356" lon="2.94181927317918"><ele>299.0</ele><time>2026-05-02T11:23:03.999Z</time></trkpt><trkpt lat="41.88418412643247" lon="2.9417544357255583"><ele>299.0</ele><time>2026-05-02T11:23:04.999Z</time></trkpt><trkpt lat="41.884121232569186" lon="2.9416847924142147"><ele>296.6666666666667</ele><time>2026-05-02T11:23:05.999Z</time></trkpt><trkpt lat="41.88405897937487" lon="2.9416140670280195"><ele>294.33333333333337</ele><time>2026-05-02T11:23:06.999Z</time></trkpt><trkpt lat="41.88399658902695" lon="2.9415432572725155"><ele>292.0</ele><time>2026-05-02T11:23:07.999Z</time></trkpt><trkpt lat="41.883933256057716" lon="2.941473765402372"><ele>289.6666666666667</ele><time>2026-05-02T11:23:08.999Z</time></trkpt><trkpt lat="41.88387136784332" lon="2.9414099621432523"><ele>287.3333333333333</ele><time>2026-05-02T11:23:09.999Z</time></trkpt><trkpt lat="41.88382024663343" lon="2.941346921470036"><ele>285.0</ele><time>2026-05-02T11:23:10.999Z</time></trkpt><trkpt lat="41.883752189422275" lon="2.941215178101524"><ele>285.0</ele><time>2026-05-02T11:23:12.999Z</time></trkpt><trkpt lat="41.88368798155524" lon="2.941060116337212"><ele>285.0</ele><time>2026-05-02T11:23:14.999Z</time></trkpt><trkpt lat="41.883650367929214" lon="2.9409692679107806"><ele>285.0</ele><time>2026-05-02T11:23:15.999Z</time></trkpt><trkpt lat="41.88360974379037" lon="2.9408699300016954"><ele>285.0</ele><time>2026-05-02T11:23:16.999Z</time></trkpt><trkpt lat="41.883560015998476" lon="2.9407728421637405"><ele>285.0</ele><time>2026-05-02T11:23:17.999Z</time></trkpt><trkpt lat="41.88350830388919" lon="2.9406718539843544"><ele>284.8333333333333</ele><time>2026-05-02T11:23:18.999Z</time></trkpt><trkpt lat="41.883464876008546" lon="2.9405663067891434"><ele>284.6666666666667</ele><time>2026-05-02T11:23:19.999Z</time></trkpt><trkpt lat="41.883429974280986" lon="2.9404647615071626"><ele>284.5</ele><time>2026-05-02T11:23:20.999Z</time></trkpt><trkpt lat="41.8833995602114" lon="2.9403656990665636"><ele>284.33333333333337</ele><time>2026-05-02T11:23:21.999Z</time></trkpt><trkpt lat="41.883376246726485" lon="2.9402644057607015"><ele>284.1666666666667</ele><time>2026-05-02T11:23:22.999Z</time></trkpt><trkpt lat="41.88336077895983" lon="2.940159683353604"><ele>284.0</ele><time>2026-05-02T11:23:23.999Z</time></trkpt><trkpt lat="41.88335072412412" lon="2.9400589695872745"><ele>283.1666666666667</ele><time>2026-05-02T11:23:24.999Z</time></trkpt><trkpt lat="41.88333668948494" lon="2.9399625672538576"><ele>282.33333333333337</ele><time>2026-05-02T11:23:25.999Z</time></trkpt><trkpt lat="41.88331034690473" lon="2.9398767490841458"><ele>281.5</ele><time>2026-05-02T11:23:26.999Z</time></trkpt><trkpt lat="41.88327838512499" lon="2.939783803875191"><ele>280.6666666666667</ele><time>2026-05-02T11:23:27.999Z</time></trkpt><trkpt lat="41.88324465993196" lon="2.939689942651095"><ele>279.8333333333333</ele><time>2026-05-02T11:23:28.999Z</time></trkpt><trkpt lat="41.88320259397149" lon="2.939595078323733"><ele>279.0</ele><time>2026-05-02T11:23:29.999Z</time></trkpt><trkpt lat="41.88315956156029" lon="2.939499431596657"><ele>279.0</ele><time>2026-05-02T11:23:30.999Z</time></trkpt><trkpt lat="41.88312827773636" lon="2.9394032350865262"><ele>279.0</ele><time>2026-05-02T11:23:31.999Z</time></trkpt><trkpt lat="41.8831000638052" lon="2.9392976009755545"><ele>279.0</ele><time>2026-05-02T11:23:32.999Z</time></trkpt><trkpt lat="41.88307169316024" lon="2.939187805440415"><ele>279.0</ele><time>2026-05-02T11:23:33.999Z</time></trkpt><trkpt lat="41.88303809568258" lon="2.939083675100327"><ele>279.0</ele><time>2026-05-02T11:23:34.999Z</time></trkpt><trkpt lat="41.88300512587719" lon="2.9389739419173284"><ele>279.0</ele><time>2026-05-02T11:23:35.999Z</time></trkpt><trkpt lat="41.882975770262604" lon="2.938870214726053"><ele>278.3333333333333</ele><time>2026-05-02T11:23:36.999Z</time></trkpt><trkpt lat="41.88295835604705" lon="2.938774883895332"><ele>277.6666666666667</ele><time>2026-05-02T11:23:37.999Z</time></trkpt><trkpt lat="41.88295314197825" lon="2.938685527092296"><ele>277.0</ele><time>2026-05-02T11:23:38.999Z</time></trkpt><trkpt lat="41.882950993322666" lon="2.9385952665908133"><ele>276.33333333333337</ele><time>2026-05-02T11:23:39.999Z</time></trkpt><trkpt lat="41.88291101105913" lon="2.938460796529291"><ele>275.6666666666667</ele><time>2026-05-02T11:23:41.999Z</time></trkpt><trkpt lat="41.882857265595035" lon="2.938385078003465"><ele>275.0</ele><time>2026-05-02T11:23:43.999Z</time></trkpt><trkpt lat="41.88281552160769" lon="2.938302709962259"><ele>274.0</ele><time>2026-05-02T11:23:45.999Z</time></trkpt><trkpt lat="41.88280521876483" lon="2.938161664142406"><ele>273.0</ele><time>2026-05-02T11:23:47.999Z</time></trkpt><trkpt lat="41.882825015341" lon="2.9380564515156404"><ele>272.0</ele><time>2026-05-02T11:23:49.999Z</time></trkpt><trkpt lat="41.88287047104751" lon="2.937958796236736"><ele>271.0</ele><time>2026-05-02T11:23:51.999Z</time></trkpt><trkpt lat="41.882944074554295" lon="2.937855458605405"><ele>270.0</ele><time>2026-05-02T11:23:53.999Z</time></trkpt><trkpt lat="41.88294530880039" lon="2.9377198162488405"><ele>270.0</ele><time>2026-05-02T11:23:55.999Z</time></trkpt><trkpt lat="41.882883106538564" lon="2.9376059017099867"><ele>270.0</ele><time>2026-05-02T11:23:57.999Z</time></trkpt><trkpt lat="41.88279898741291" lon="2.9375481367242693"><ele>270.0</ele><time>2026-05-02T11:23:59.999Z</time></trkpt><trkpt lat="41.88269190884478" lon="2.937505176758774"><ele>270.0</ele><time>2026-05-02T11:24:01.999Z</time></trkpt><trkpt lat="41.882601671276475" lon="2.9374368358715746"><ele>270.0</ele><time>2026-05-02T11:24:03.999Z</time></trkpt><trkpt lat="41.88250185098312" lon="2.9373521111936616"><ele>269.6666666666667</ele><time>2026-05-02T11:24:05.999Z</time></trkpt><trkpt lat="41.88244410942713" lon="2.9373049170330545"><ele>269.3333333333333</ele><time>2026-05-02T11:24:06.999Z</time></trkpt><trkpt lat="41.88238363202981" lon="2.9372625016140232"><ele>269.0</ele><time>2026-05-02T11:24:07.999Z</time></trkpt><trkpt lat="41.882317149171854" lon="2.9372315487465745"><ele>268.66666666666663</ele><time>2026-05-02T11:24:08.999Z</time></trkpt><trkpt lat="41.88225477320666" lon="2.9372061819243207"><ele>268.3333333333333</ele><time>2026-05-02T11:24:09.999Z</time></trkpt><trkpt lat="41.88216816169747" lon="2.9371257466279173"><ele>268.0</ele><time>2026-05-02T11:24:11.999Z</time></trkpt><trkpt lat="41.88211414219687" lon="2.936980570108341"><ele>268.0</ele><time>2026-05-02T11:24:13.999Z</time></trkpt><trkpt lat="41.8820917877224" lon="2.9368882692459484"><ele>268.0</ele><time>2026-05-02T11:24:14.999Z</time></trkpt><trkpt lat="41.882070473701134" lon="2.9367969484309104"><ele>268.0</ele><time>2026-05-02T11:24:15.999Z</time></trkpt><trkpt lat="41.882041191912194" lon="2.9367120369296877"><ele>268.0</ele><time>2026-05-02T11:24:16.999Z</time></trkpt><trkpt lat="41.88200851992719" lon="2.936628387739088"><ele>268.0</ele><time>2026-05-02T11:24:17.999Z</time></trkpt><trkpt lat="41.88197505689051" lon="2.9365501049928184"><ele>268.0</ele><time>2026-05-02T11:24:18.999Z</time></trkpt><trkpt lat="41.88194129462679" lon="2.9364757588902437"><ele>268.0</ele><time>2026-05-02T11:24:19.999Z</time></trkpt><trkpt lat="41.88189274677266" lon="2.93641556902141"><ele>267.42857142857144</ele><time>2026-05-02T11:24:20.999Z</time></trkpt><trkpt lat="41.88183896615311" lon="2.936365422805178"><ele>266.85714285714283</ele><time>2026-05-02T11:24:21.999Z</time></trkpt><trkpt lat="41.881774355635976" lon="2.936312384090705"><ele>266.2857142857143</ele><time>2026-05-02T11:24:22.999Z</time></trkpt><trkpt lat="41.88172304805665" lon="2.9362393993377065"><ele>265.7142857142857</ele><time>2026-05-02T11:24:23.999Z</time></trkpt><trkpt lat="41.88168342321883" lon="2.936153530967523"><ele>265.14285714285717</ele><time>2026-05-02T11:24:24.999Z</time></trkpt><trkpt lat="41.88164635006753" lon="2.936070939141263"><ele>264.57142857142856</ele><time>2026-05-02T11:24:25.999Z</time></trkpt><trkpt lat="41.88160755332596" lon="2.9359949490525707"><ele>264.0</ele><time>2026-05-02T11:24:26.999Z</time></trkpt><trkpt lat="41.88156874534271" lon="2.935917207876559"><ele>263.0</ele><time>2026-05-02T11:24:27.999Z</time></trkpt><trkpt lat="41.88149037059933" lon="2.93579621421071"><ele>262.0</ele><time>2026-05-02T11:24:29.999Z</time></trkpt><trkpt lat="41.881393867453305" lon="2.935733867538906"><ele>261.0</ele><time>2026-05-02T11:24:31.999Z</time></trkpt><trkpt lat="41.88130371091136" lon="2.935706849670951"><ele>260.0</ele><time>2026-05-02T11:24:33.999Z</time></trkpt><trkpt lat="41.88121612784671" lon="2.9356908016608676"><ele>259.0</ele><time>2026-05-02T11:24:35.999Z</time></trkpt><trkpt lat="41.88113952446399" lon="2.9356101524165537"><ele>259.0</ele><time>2026-05-02T11:24:37.999Z</time></trkpt><trkpt lat="41.881099553977975" lon="2.93548978078518"><ele>259.0</ele><time>2026-05-02T11:24:39.999Z</time></trkpt><trkpt lat="41.88107824677774" lon="2.9353713183491075"><ele>259.0</ele><time>2026-05-02T11:24:41.999Z</time></trkpt><trkpt lat="41.881060351538274" lon="2.9352758833926944"><ele>259.0</ele><time>2026-05-02T11:24:44.999Z</time></trkpt><trkpt lat="41.88100727676005" lon="2.9351054168769872"><ele>259.0</ele><time>2026-05-02T11:24:45.999Z</time></trkpt><trkpt lat="41.880976049856066" lon="2.9349817233195195"><ele>258.3333333333333</ele><time>2026-05-02T11:24:47.999Z</time></trkpt><trkpt lat="41.88094347251231" lon="2.934866590283235"><ele>257.66666666666663</ele><time>2026-05-02T11:24:49.999Z</time></trkpt><trkpt lat="41.88091412917189" lon="2.9347648000745283"><ele>257.0</ele><time>2026-05-02T11:24:51.999Z</time></trkpt><trkpt lat="41.880880009550026" lon="2.934684643462437"><ele>256.3333333333333</ele><time>2026-05-02T11:24:53.999Z</time></trkpt><trkpt lat="41.88084081122378" lon="2.9346064631012108"><ele>255.66666666666666</ele><time>2026-05-02T11:24:55.999Z</time></trkpt><trkpt lat="41.880804406409496" lon="2.9345196032557896"><ele>255.0</ele><time>2026-05-02T11:24:57.999Z</time></trkpt><trkpt lat="41.88076338262866" lon="2.934431639489353"><ele>257.0</ele><time>2026-05-02T11:24:59.999Z</time></trkpt><trkpt lat="41.88071887797808" lon="2.9343515876840214"><ele>259.0</ele><time>2026-05-02T11:25:01.999Z</time></trkpt><trkpt lat="41.880675422665604" lon="2.934255071892633"><ele>261.0</ele><time>2026-05-02T11:25:03.999Z</time></trkpt><trkpt lat="41.88065807335091" lon="2.9341449700867313"><ele>263.0</ele><time>2026-05-02T11:25:05.999Z</time></trkpt><trkpt lat="41.88061749107207" lon="2.934037067255191"><ele>265.0</ele><time>2026-05-02T11:25:07.999Z</time></trkpt><trkpt lat="41.88056696148407" lon="2.9339554708977102"><ele>267.0</ele><time>2026-05-02T11:25:09.999Z</time></trkpt><trkpt lat="41.880450546683065" lon="2.9338478503638497"><ele>267.0</ele><time>2026-05-02T11:25:12.999Z</time></trkpt><trkpt lat="41.880341545504585" lon="2.933767027763571"><ele>267.0</ele><time>2026-05-02T11:25:14.999Z</time></trkpt><trkpt lat="41.88027532475818" lon="2.933719728928158"><ele>267.0</ele><time>2026-05-02T11:25:15.999Z</time></trkpt><trkpt lat="41.88020742392946" lon="2.933690736763551"><ele>267.0</ele><time>2026-05-02T11:25:16.999Z</time></trkpt><trkpt lat="41.880140121089106" lon="2.93366009014947"><ele>267.0</ele><time>2026-05-02T11:25:17.999Z</time></trkpt><trkpt lat="41.88007380866584" lon="2.9336342828644093"><ele>267.0</ele><time>2026-05-02T11:25:18.999Z</time></trkpt><trkpt lat="41.880005483588754" lon="2.9336086658142344"><ele>267.0</ele><time>2026-05-02T11:25:19.999Z</time></trkpt><trkpt lat="41.87993720754502" lon="2.9335810560662674"><ele>267.0</ele><time>2026-05-02T11:25:20.999Z</time></trkpt><trkpt lat="41.8798691499831" lon="2.9335530881173772"><ele>267.0</ele><time>2026-05-02T11:25:21.999Z</time></trkpt><trkpt lat="41.8798018655035" lon="2.933527032333612"><ele>267.0</ele><time>2026-05-02T11:25:22.999Z</time></trkpt><trkpt lat="41.87973483860363" lon="2.933480471107783"><ele>267.0</ele><time>2026-05-02T11:25:23.999Z</time></trkpt><trkpt lat="41.87968566802969" lon="2.933423829641071"><ele>267.0</ele><time>2026-05-02T11:25:24.999Z</time></trkpt><trkpt lat="41.87958006534137" lon="2.9333455137287094"><ele>267.0</ele><time>2026-05-02T11:25:26.999Z</time></trkpt><trkpt lat="41.87946797975757" lon="2.9332639167529706"><ele>267.0</ele><time>2026-05-02T11:25:28.999Z</time></trkpt><trkpt lat="41.87937466922443" lon="2.9331817495879116"><ele>267.0</ele><time>2026-05-02T11:25:30.999Z</time></trkpt><trkpt lat="41.879283907396974" lon="2.9330764591263403"><ele>267.0</ele><time>2026-05-02T11:25:32.999Z</time></trkpt><trkpt lat="41.87918641754449" lon="2.932987552173539"><ele>266.0</ele><time>2026-05-02T11:25:34.999Z</time></trkpt><trkpt lat="41.879071729892644" lon="2.932927748323891"><ele>265.0</ele><time>2026-05-02T11:25:36.999Z</time></trkpt><trkpt lat="41.87895163718021" lon="2.9329068318461515"><ele>264.0</ele><time>2026-05-02T11:25:38.999Z</time></trkpt><trkpt lat="41.87888819979543" lon="2.9329158821926007"><ele>263.0</ele><time>2026-05-02T11:25:40Z</time></trkpt><trkpt lat="41.87877492095616" lon="2.9329607961795254"><ele>262.0</ele><time>2026-05-02T11:25:42Z</time></trkpt><trkpt lat="41.87866008302874" lon="2.933011531430684"><ele>262.0</ele><time>2026-05-02T11:25:44Z</time></trkpt><trkpt lat="41.87855367738389" lon="2.933040327335674"><ele>262.0</ele><time>2026-05-02T11:25:46Z</time></trkpt><trkpt lat="41.8784595050209" lon="2.9330013614461627"><ele>262.0</ele><time>2026-05-02T11:25:48Z</time></trkpt><trkpt lat="41.8783822794979" lon="2.932872798868701"><ele>262.0</ele><time>2026-05-02T11:25:50Z</time></trkpt><trkpt lat="41.878354630594835" lon="2.93278336879641"><ele>262.0</ele><time>2026-05-02T11:25:51Z</time></trkpt><trkpt lat="41.87832192854833" lon="2.9326727758740323"><ele>261.5</ele><time>2026-05-02T11:25:52Z</time></trkpt><trkpt lat="41.87828138402465" lon="2.932552330074831"><ele>261.0</ele><time>2026-05-02T11:25:53Z</time></trkpt><trkpt lat="41.87824176890655" lon="2.93243580847735"><ele>260.5</ele><time>2026-05-02T11:25:54Z</time></trkpt><trkpt lat="41.878204335106666" lon="2.932339959230317"><ele>260.0</ele><time>2026-05-02T11:25:55Z</time></trkpt><trkpt lat="41.87817212786466" lon="2.9322566157502323"><ele>259.5</ele><time>2026-05-02T11:25:56Z</time></trkpt><trkpt lat="41.87813727003309" lon="2.9321802634496046"><ele>259.0</ele><time>2026-05-02T11:25:57Z</time></trkpt><trkpt lat="41.87811793473852" lon="2.932099217135162"><ele>259.0</ele><time>2026-05-02T11:25:58Z</time></trkpt><trkpt lat="41.878096855083975" lon="2.9319342680446767"><ele>259.0</ele><time>2026-05-02T11:26:00Z</time></trkpt><trkpt lat="41.87809537585113" lon="2.9318437942607987"><ele>259.0</ele><time>2026-05-02T11:26:01Z</time></trkpt><trkpt lat="41.878093261910685" lon="2.931754074946365"><ele>259.0</ele><time>2026-05-02T11:26:02Z</time></trkpt><trkpt lat="41.87808187182208" lon="2.931667219085505"><ele>259.0</ele><time>2026-05-02T11:26:03Z</time></trkpt><trkpt lat="41.87806133512262" lon="2.931583289271199"><ele>259.0</ele><time>2026-05-02T11:26:04Z</time></trkpt><trkpt lat="41.878016967842406" lon="2.931432907876732"><ele>257.66666666666663</ele><time>2026-05-02T11:26:06Z</time></trkpt><trkpt lat="41.87795885449918" lon="2.931294197102738"><ele>256.3333333333333</ele><time>2026-05-02T11:26:08Z</time></trkpt><trkpt lat="41.87791127658958" lon="2.93122918838451"><ele>255.0</ele><time>2026-05-02T11:26:09Z</time></trkpt><trkpt lat="41.87785175982281" lon="2.931159199865249"><ele>253.66666666666669</ele><time>2026-05-02T11:26:10Z</time></trkpt><trkpt lat="41.87779089017515" lon="2.9310959669143135"><ele>252.33333333333334</ele><time>2026-05-02T11:26:11Z</time></trkpt><trkpt lat="41.877728604671354" lon="2.9310348390918017"><ele>251.0</ele><time>2026-05-02T11:26:12Z</time></trkpt><trkpt lat="41.87766543410982" lon="2.93098334636882"><ele>251.00000000000003</ele><time>2026-05-02T11:26:13Z</time></trkpt><trkpt lat="41.877604881118444" lon="2.930926770838094"><ele>251.0</ele><time>2026-05-02T11:26:14Z</time></trkpt><trkpt lat="41.87755210793938" lon="2.930866125593658"><ele>251.0</ele><time>2026-05-02T11:26:15Z</time></trkpt><trkpt lat="41.87750195316996" lon="2.9307972817157366"><ele>251.0</ele><time>2026-05-02T11:26:16Z</time></trkpt><trkpt lat="41.87743285076129" lon="2.930677977373704"><ele>251.00000000000003</ele><time>2026-05-02T11:26:18Z</time></trkpt><trkpt lat="41.87737642333121" lon="2.9305763910584237"><ele>251.0</ele><time>2026-05-02T11:26:20Z</time></trkpt><trkpt lat="41.87730917213475" lon="2.9304814656349354"><ele>248.16666666666669</ele><time>2026-05-02T11:26:22Z</time></trkpt><trkpt lat="41.877244895715734" lon="2.930431707390902"><ele>245.33333333333334</ele><time>2026-05-02T11:26:23Z</time></trkpt><trkpt lat="41.87716900759036" lon="2.93038358460367"><ele>242.5</ele><time>2026-05-02T11:26:24Z</time></trkpt><trkpt lat="41.87709601497264" lon="2.930340356696849"><ele>239.66666666666669</ele><time>2026-05-02T11:26:25Z</time></trkpt><trkpt lat="41.87703718474285" lon="2.9303007058736426"><ele>236.83333333333334</ele><time>2026-05-02T11:26:26Z</time></trkpt><trkpt lat="41.87693162072043" lon="2.930240267079751"><ele>234.0</ele><time>2026-05-02T11:26:28Z</time></trkpt><trkpt lat="41.87681894028073" lon="2.9302344596871235"><ele>231.66666666666666</ele><time>2026-05-02T11:26:30Z</time></trkpt><trkpt lat="41.87670541127973" lon="2.9303005439627903"><ele>229.33333333333331</ele><time>2026-05-02T11:26:32Z</time></trkpt><trkpt lat="41.87665008158772" lon="2.9303507139753555"><ele>227.0</ele><time>2026-05-02T11:26:33Z</time></trkpt><trkpt lat="41.876596338657414" lon="2.930399543155022"><ele>224.66666666666666</ele><time>2026-05-02T11:26:34Z</time></trkpt><trkpt lat="41.876540563099425" lon="2.930445137846479"><ele>222.33333333333331</ele><time>2026-05-02T11:26:35Z</time></trkpt><trkpt lat="41.876482883558054" lon="2.9304808181873745"><ele>220.0</ele><time>2026-05-02T11:26:36Z</time></trkpt><trkpt lat="41.87637428722257" lon="2.9305600312201054"><ele>220.0</ele><time>2026-05-02T11:26:38Z</time></trkpt><trkpt lat="41.876272618471354" lon="2.930651863113536"><ele>220.0</ele><time>2026-05-02T11:26:40Z</time></trkpt><trkpt lat="41.876186956815914" lon="2.930729308546935"><ele>220.0</ele><time>2026-05-02T11:26:42Z</time></trkpt><trkpt lat="41.87609943700679" lon="2.9307257028319835"><ele>220.0</ele><time>2026-05-02T11:26:44Z</time></trkpt><trkpt lat="41.87602740802037" lon="2.930657144286569"><ele>220.0</ele><time>2026-05-02T11:26:46Z</time></trkpt><trkpt lat="41.87598441694455" lon="2.9305401383437104"><ele>219.99999999999997</ele><time>2026-05-02T11:26:48Z</time></trkpt><trkpt lat="41.875975591604806" lon="2.930409061733242"><ele>220.0</ele><time>2026-05-02T11:26:50Z</time></trkpt><trkpt lat="41.875968103303066" lon="2.9302861687113837"><ele>220.0</ele><time>2026-05-02T11:26:52Z</time></trkpt><trkpt lat="41.87595992042564" lon="2.930167251978711"><ele>220.0</ele><time>2026-05-02T11:26:54Z</time></trkpt><trkpt lat="41.87594499615728" lon="2.9300618313510647"><ele>219.99999999999997</ele><time>2026-05-02T11:26:56Z</time></trkpt><trkpt lat="41.875919572481195" lon="2.9299745622030766"><ele>220.0</ele><time>2026-05-02T11:26:58Z</time></trkpt><trkpt lat="41.87586858853295" lon="2.9298696745874824"><ele>217.66666666666666</ele><time>2026-05-02T11:27:00Z</time></trkpt><trkpt lat="41.87581125120607" lon="2.92976716104747"><ele>215.33333333333331</ele><time>2026-05-02T11:27:02Z</time></trkpt><trkpt lat="41.87573963398344" lon="2.929708555883116"><ele>213.0</ele><time>2026-05-02T11:27:04Z</time></trkpt><trkpt lat="41.87566240120117" lon="2.92967063142802"><ele>210.66666666666669</ele><time>2026-05-02T11:27:06Z</time></trkpt><trkpt lat="41.87559746980684" lon="2.929645202082796"><ele>208.33333333333334</ele><time>2026-05-02T11:27:08Z</time></trkpt><trkpt lat="41.87554050697064" lon="2.9297355214613345"><ele>206.0</ele><time>2026-05-02T11:27:11Z</time></trkpt><trkpt lat="41.87548818077787" lon="2.9298472864381235"><ele>206.0</ele><time>2026-05-02T11:27:13Z</time></trkpt><trkpt lat="41.87537718490616" lon="2.9299215556501887"><ele>206.0</ele><time>2026-05-02T11:27:15Z</time></trkpt><trkpt lat="41.87530340198549" lon="2.929876230803313"><ele>206.0</ele><time>2026-05-02T11:27:16Z</time></trkpt><trkpt lat="41.875171837564864" lon="2.9298581752234387"><ele>206.0</ele><time>2026-05-02T11:27:18Z</time></trkpt><trkpt lat="41.875048908438046" lon="2.929853901430169"><ele>203.00000000000003</ele><time>2026-05-02T11:27:20Z</time></trkpt><trkpt lat="41.87497843998864" lon="2.9299017731815287"><ele>200.0</ele><time>2026-05-02T11:27:21Z</time></trkpt><trkpt lat="41.87492776733784" lon="2.9299842137523475"><ele>197.0</ele><time>2026-05-02T11:27:22Z</time></trkpt><trkpt lat="41.87490855684493" lon="2.9300819082112555"><ele>194.0</ele><time>2026-05-02T11:27:23Z</time></trkpt><trkpt lat="41.874940006687844" lon="2.9301855603376703"><ele>191.0</ele><time>2026-05-02T11:27:24Z</time></trkpt><trkpt lat="41.87493671784188" lon="2.930285519218352"><ele>188.0</ele><time>2026-05-02T11:27:25Z</time></trkpt><trkpt lat="41.87495826100933" lon="2.9303822512894926"><ele>187.66666666666666</ele><time>2026-05-02T11:27:26Z</time></trkpt><trkpt lat="41.87497561937466" lon="2.930483808507409"><ele>187.33333333333331</ele><time>2026-05-02T11:27:27Z</time></trkpt><trkpt lat="41.87499991762201" lon="2.930582765667917"><ele>187.0</ele><time>2026-05-02T11:27:28Z</time></trkpt><trkpt lat="41.875030833271936" lon="2.9306783609225615"><ele>186.66666666666666</ele><time>2026-05-02T11:27:29Z</time></trkpt><trkpt lat="41.875055424706645" lon="2.9307773958053005"><ele>186.33333333333334</ele><time>2026-05-02T11:27:30Z</time></trkpt><trkpt lat="41.87507828595935" lon="2.930883546570973"><ele>186.0</ele><time>2026-05-02T11:27:31Z</time></trkpt><trkpt lat="41.87510181045394" lon="2.930988388963332"><ele>187.20000000000002</ele><time>2026-05-02T11:27:32Z</time></trkpt><trkpt lat="41.87512804109828" lon="2.9310857881624055"><ele>188.4</ele><time>2026-05-02T11:27:33Z</time></trkpt><trkpt lat="41.87512934382664" lon="2.931173206694392"><ele>189.6</ele><time>2026-05-02T11:27:34Z</time></trkpt><trkpt lat="41.87510556521456" lon="2.931317088914431"><ele>190.8</ele><time>2026-05-02T11:27:36Z</time></trkpt><trkpt lat="41.875030226951" lon="2.93142438985409"><ele>192.0</ele><time>2026-05-02T11:27:38Z</time></trkpt><trkpt lat="41.874941961811174" lon="2.931480916330646"><ele>192.0</ele><time>2026-05-02T11:27:40Z</time></trkpt><trkpt lat="41.87486853816231" lon="2.9315031820089144"><ele>192.0</ele><time>2026-05-02T11:27:42Z</time></trkpt><trkpt lat="41.87481449475941" lon="2.931566082336281"><ele>192.0</ele><time>2026-05-02T11:27:44Z</time></trkpt><trkpt lat="41.87472271458276" lon="2.931561758276034"><ele>192.0</ele><time>2026-05-02T11:27:47Z</time></trkpt><trkpt lat="41.87465033376528" lon="2.93155677022784"><ele>192.0</ele><time>2026-05-02T11:27:49Z</time></trkpt><trkpt lat="41.874577178013055" lon="2.9315466374253356"><ele>192.0</ele><time>2026-05-02T11:27:51Z</time></trkpt><trkpt lat="41.87450136001768" lon="2.931542842819288"><ele>192.0</ele><time>2026-05-02T11:27:53Z</time></trkpt><trkpt lat="41.87441560368023" lon="2.93154002404033"><ele>192.0</ele><time>2026-05-02T11:27:55Z</time></trkpt><trkpt lat="41.87432708995389" lon="2.931534182703666"><ele>192.0</ele><time>2026-05-02T11:27:57Z</time></trkpt><trkpt lat="41.874234042570116" lon="2.93152192919439"><ele>192.0</ele><time>2026-05-02T11:27:59Z</time></trkpt><trkpt lat="41.8741462190279" lon="2.9314908623853575"><ele>192.0</ele><time>2026-05-02T11:28:01Z</time></trkpt><trkpt lat="41.87405986317889" lon="2.9314605258672763"><ele>192.0</ele><time>2026-05-02T11:28:03Z</time></trkpt><trkpt lat="41.87398977821547" lon="2.9314288876468875"><ele>192.14285714285714</ele><time>2026-05-02T11:28:05Z</time></trkpt><trkpt lat="41.873925636657034" lon="2.9313970514098338"><ele>192.28571428571428</ele><time>2026-05-02T11:28:08Z</time></trkpt><trkpt lat="41.873849126068045" lon="2.9314259885019"><ele>192.42857142857144</ele><time>2026-05-02T11:28:12Z</time></trkpt><trkpt lat="41.87379192853467" lon="2.9314930343169863"><ele>192.57142857142856</ele><time>2026-05-02T11:28:15Z</time></trkpt><trkpt lat="41.873764958393735" lon="2.931571586788835"><ele>192.71428571428572</ele><time>2026-05-02T11:28:18Z</time></trkpt><trkpt lat="41.87374067899249" lon="2.931671466892465"><ele>192.85714285714286</ele><time>2026-05-02T11:28:22Z</time></trkpt><trkpt lat="41.873726106095894" lon="2.931771503176542"><ele>193.0</ele><time>2026-05-02T11:28:26Z</time></trkpt><trkpt lat="41.87369964631893" lon="2.931864999343491"><ele>194.83333333333331</ele><time>2026-05-02T11:28:30Z</time></trkpt><trkpt lat="41.87366565974735" lon="2.931958126518069"><ele>196.66666666666666</ele><time>2026-05-02T11:28:34Z</time></trkpt><trkpt lat="41.87363064693915" lon="2.9320506343620814"><ele>198.5</ele><time>2026-05-02T11:28:38Z</time></trkpt><trkpt lat="41.873587694341694" lon="2.932136913729813"><ele>200.33333333333331</ele><time>2026-05-02T11:28:42Z</time></trkpt><trkpt lat="41.87354907840288" lon="2.9322066638434907"><ele>202.16666666666666</ele><time>2026-05-02T11:28:45Z</time></trkpt><trkpt lat="41.873514429403784" lon="2.9322804688945836"><ele>204.0</ele><time>2026-05-02T11:28:48Z</time></trkpt><trkpt lat="41.87347279882263" lon="2.9323863925375195"><ele>204.0</ele><time>2026-05-02T11:28:51Z</time></trkpt><trkpt lat="41.873445026060864" lon="2.9324646090963626"><ele>204.0</ele><time>2026-05-02T11:28:53Z</time></trkpt><trkpt lat="41.87341338740609" lon="2.932541545679244"><ele>204.0</ele><time>2026-05-02T11:28:55Z</time></trkpt><trkpt lat="41.87338964556213" lon="2.9326435438563867"><ele>204.0</ele><time>2026-05-02T11:28:57Z</time></trkpt><trkpt lat="41.87337350993592" lon="2.9327704931949263"><ele>204.0</ele><time>2026-05-02T11:28:59Z</time></trkpt><trkpt lat="41.87333349224678" lon="2.9329127573386344"><ele>204.0</ele><time>2026-05-02T11:29:01Z</time></trkpt><trkpt lat="41.87326140876701" lon="2.9329416562332624"><ele>203.79999999999998</ele><time>2026-05-02T11:29:02Z</time></trkpt><trkpt lat="41.87317835333388" lon="2.9330408074451957"><ele>203.6</ele><time>2026-05-02T11:29:04Z</time></trkpt><trkpt lat="41.87308747421163" lon="2.933110854971776"><ele>203.4</ele><time>2026-05-02T11:29:06Z</time></trkpt><trkpt lat="41.87298643919893" lon="2.933114014741057"><ele>203.2</ele><time>2026-05-02T11:29:08Z</time></trkpt><trkpt lat="41.87287694962801" lon="2.9331094711403973"><ele>203.0</ele><time>2026-05-02T11:29:10Z</time></trkpt><trkpt lat="41.87276621206668" lon="2.9330593742351483"><ele>203.00000000000003</ele><time>2026-05-02T11:29:12Z</time></trkpt><trkpt lat="41.87266844183433" lon="2.9329669671040643"><ele>203.0</ele><time>2026-05-02T11:29:14Z</time></trkpt><trkpt lat="41.87256446619843" lon="2.9328802747506875"><ele>203.0</ele><time>2026-05-02T11:29:16Z</time></trkpt><trkpt lat="41.87250488611227" lon="2.9328423017553984"><ele>203.0</ele><time>2026-05-02T11:29:17Z</time></trkpt><trkpt lat="41.8724378714077" lon="2.9328218016121688"><ele>203.00000000000003</ele><time>2026-05-02T11:29:18Z</time></trkpt><trkpt lat="41.872373698323706" lon="2.9328063108859657"><ele>203.0</ele><time>2026-05-02T11:29:19Z</time></trkpt><trkpt lat="41.87231088960817" lon="2.9327962894555695"><ele>203.00000000000003</ele><time>2026-05-02T11:29:20Z</time></trkpt><trkpt lat="41.8722456173399" lon="2.9327873578585577"><ele>203.0</ele><time>2026-05-02T11:29:21Z</time></trkpt><trkpt lat="41.87218146767063" lon="2.9327837880352963"><ele>203.0</ele><time>2026-05-02T11:29:22Z</time></trkpt><trkpt lat="41.87205738155554" lon="2.9327810117056274"><ele>203.0</ele><time>2026-05-02T11:29:24Z</time></trkpt><trkpt lat="41.87199156455597" lon="2.9327803627276063"><ele>203.00000000000003</ele><time>2026-05-02T11:29:25Z</time></trkpt><trkpt lat="41.87192214441736" lon="2.932781366577148"><ele>203.0</ele><time>2026-05-02T11:29:26Z</time></trkpt><trkpt lat="41.871850671885035" lon="2.9327864438560183"><ele>203.00000000000003</ele><time>2026-05-02T11:29:27Z</time></trkpt><trkpt lat="41.87177544542493" lon="2.932805800363976"><ele>203.0</ele><time>2026-05-02T11:29:28Z</time></trkpt><trkpt lat="41.87170054840104" lon="2.932842535407415"><ele>203.0</ele><time>2026-05-02T11:29:29Z</time></trkpt><trkpt lat="41.871631464815536" lon="2.932898444020437"><ele>203.0</ele><time>2026-05-02T11:29:30Z</time></trkpt><trkpt lat="41.87156880285915" lon="2.9329659562543737"><ele>203.00000000000003</ele><time>2026-05-02T11:29:31Z</time></trkpt><trkpt lat="41.87151295888375" lon="2.9330402631997727"><ele>203.0</ele><time>2026-05-02T11:29:32Z</time></trkpt><trkpt lat="41.871462916239274" lon="2.933129906790066"><ele>203.14285714285714</ele><time>2026-05-02T11:29:33Z</time></trkpt><trkpt lat="41.871423837306025" lon="2.933218534630374"><ele>203.28571428571428</ele><time>2026-05-02T11:29:34Z</time></trkpt><trkpt lat="41.87139060405722" lon="2.9333165818774467"><ele>203.42857142857144</ele><time>2026-05-02T11:29:35Z</time></trkpt><trkpt lat="41.87137554190623" lon="2.933411504829872"><ele>203.57142857142856</ele><time>2026-05-02T11:29:36Z</time></trkpt><trkpt lat="41.87134694734042" lon="2.933501641277196"><ele>203.71428571428572</ele><time>2026-05-02T11:29:37Z</time></trkpt><trkpt lat="41.87130552541554" lon="2.9335777293454575"><ele>203.85714285714286</ele><time>2026-05-02T11:29:38Z</time></trkpt><trkpt lat="41.87127366183961" lon="2.933658615680108"><ele>204.0</ele><time>2026-05-02T11:29:39Z</time></trkpt><trkpt lat="41.87118328628563" lon="2.9337530799790508"><ele>204.0</ele><time>2026-05-02T11:29:41Z</time></trkpt><trkpt lat="41.8710857691627" lon="2.9338418626259384"><ele>204.0</ele><time>2026-05-02T11:29:43Z</time></trkpt><trkpt lat="41.8710324044899" lon="2.9338915243425414"><ele>204.0</ele><time>2026-05-02T11:29:44Z</time></trkpt><trkpt lat="41.87094041408968" lon="2.9339801835685555"><ele>204.0</ele><time>2026-05-02T11:29:46Z</time></trkpt><trkpt lat="41.87085448833342" lon="2.934068411976256"><ele>204.0</ele><time>2026-05-02T11:29:48Z</time></trkpt><trkpt lat="41.87076645935885" lon="2.934161132591666"><ele>204.0</ele><time>2026-05-02T11:29:50Z</time></trkpt><trkpt lat="41.87068007500499" lon="2.9342544463855162"><ele>204.0</ele><time>2026-05-02T11:29:52Z</time></trkpt><trkpt lat="41.87060051070595" lon="2.9343433974902124"><ele>204.0</ele><time>2026-05-02T11:29:54Z</time></trkpt><trkpt lat="41.87052290860609" lon="2.9344338785673068"><ele>204.0</ele><time>2026-05-02T11:29:56Z</time></trkpt><trkpt lat="41.870453492326504" lon="2.934514071575581"><ele>204.0</ele><time>2026-05-02T11:29:58Z</time></trkpt><trkpt lat="41.870372072219425" lon="2.934470984005325"><ele>204.0</ele><time>2026-05-02T11:30:00Z</time></trkpt><trkpt lat="41.87033498008444" lon="2.9343883899460184"><ele>204.0</ele><time>2026-05-02T11:30:02Z</time></trkpt><trkpt lat="41.870299603264606" lon="2.9342992421799257"><ele>204.0</ele><time>2026-05-02T11:30:04Z</time></trkpt><trkpt lat="41.87027525188608" lon="2.934199101469673"><ele>204.0</ele><time>2026-05-02T11:30:06Z</time></trkpt><trkpt lat="41.870246288256986" lon="2.9340908341417467"><ele>204.0</ele><time>2026-05-02T11:30:08Z</time></trkpt><trkpt lat="41.870206656518974" lon="2.9339767307540314"><ele>204.0</ele><time>2026-05-02T11:30:10Z</time></trkpt><trkpt lat="41.87016422891719" lon="2.933850419554313"><ele>203.5</ele><time>2026-05-02T11:30:12Z</time></trkpt><trkpt lat="41.87011679008182" lon="2.933720441345535"><ele>203.0</ele><time>2026-05-02T11:30:14Z</time></trkpt><trkpt lat="41.87006048664774" lon="2.9335865622173567"><ele>202.5</ele><time>2026-05-02T11:30:16Z</time></trkpt><trkpt lat="41.86999307621962" lon="2.933459961275276"><ele>202.0</ele><time>2026-05-02T11:30:18Z</time></trkpt><trkpt lat="41.869909037654374" lon="2.933347661230516"><ele>202.0</ele><time>2026-05-02T11:30:20Z</time></trkpt><trkpt lat="41.86981475988509" lon="2.933260447366108"><ele>202.0</ele><time>2026-05-02T11:30:22Z</time></trkpt><trkpt lat="41.86970106896958" lon="2.9332361097148696"><ele>202.0</ele><time>2026-05-02T11:30:24Z</time></trkpt><trkpt lat="41.86959617878592" lon="2.9332157243356676"><ele>202.0</ele><time>2026-05-02T11:30:26Z</time></trkpt><trkpt lat="41.86952077247295" lon="2.9331135616504183"><ele>202.0</ele><time>2026-05-02T11:30:28Z</time></trkpt><trkpt lat="41.8694785179387" lon="2.932989282968451"><ele>201.99999999999997</ele><time>2026-05-02T11:30:30Z</time></trkpt><trkpt lat="41.869451497228155" lon="2.932874767383518"><ele>202.0</ele><time>2026-05-02T11:30:32Z</time></trkpt><trkpt lat="41.86943257183829" lon="2.93278094029474"><ele>202.0</ele><time>2026-05-02T11:30:34Z</time></trkpt><trkpt lat="41.869403799332666" lon="2.9326835397287048"><ele>202.0</ele><time>2026-05-02T11:30:37Z</time></trkpt><trkpt lat="41.86939265024002" lon="2.932585037939871"><ele>201.99999999999997</ele><time>2026-05-02T11:30:40Z</time></trkpt><trkpt lat="41.86937645814864" lon="2.9324804119872545"><ele>202.0</ele><time>2026-05-02T11:30:43Z</time></trkpt><trkpt lat="41.869359275874395" lon="2.9323735929437076"><ele>202.16666666666666</ele><time>2026-05-02T11:30:46Z</time></trkpt><trkpt lat="41.869347111451304" lon="2.932272730600316"><ele>202.33333333333331</ele><time>2026-05-02T11:30:49Z</time></trkpt><trkpt lat="41.869330856342735" lon="2.932171924007234"><ele>202.5</ele><time>2026-05-02T11:30:52Z</time></trkpt><trkpt lat="41.869314370630924" lon="2.9320726857161015"><ele>202.66666666666669</ele><time>2026-05-02T11:30:55Z</time></trkpt><trkpt lat="41.869302811091295" lon="2.9319662735404766"><ele>202.83333333333334</ele><time>2026-05-02T11:30:58Z</time></trkpt><trkpt lat="41.869304474844" lon="2.931877892915242"><ele>203.0</ele><time>2026-05-02T11:31:00Z</time></trkpt><trkpt lat="41.869296571214946" lon="2.9317598858710316"><ele>203.66666666666669</ele><time>2026-05-02T11:31:02Z</time></trkpt><trkpt lat="41.8692591204842" lon="2.931611329947105"><ele>204.33333333333334</ele><time>2026-05-02T11:31:04Z</time></trkpt><trkpt lat="41.86924320939992" lon="2.9315256847639106"><ele>205.0</ele><time>2026-05-02T11:31:05Z</time></trkpt><trkpt lat="41.8692214755927" lon="2.931437473159083"><ele>205.66666666666669</ele><time>2026-05-02T11:31:06Z</time></trkpt><trkpt lat="41.86919138532251" lon="2.931344501197581"><ele>206.33333333333334</ele><time>2026-05-02T11:31:07Z</time></trkpt><trkpt lat="41.869159994290605" lon="2.9312498867590517"><ele>207.0</ele><time>2026-05-02T11:31:08Z</time></trkpt><trkpt lat="41.869135480526" lon="2.931145077291108"><ele>207.0</ele><time>2026-05-02T11:31:09Z</time></trkpt><trkpt lat="41.869111801320244" lon="2.9310448369403503"><ele>207.0</ele><time>2026-05-02T11:31:10Z</time></trkpt><trkpt lat="41.86908575471565" lon="2.9309405790532397"><ele>207.0</ele><time>2026-05-02T11:31:11Z</time></trkpt><trkpt lat="41.869052326193" lon="2.930842432734089"><ele>207.0</ele><time>2026-05-02T11:31:12Z</time></trkpt><trkpt lat="41.86901295122688" lon="2.930742766262247"><ele>207.0</ele><time>2026-05-02T11:31:13Z</time></trkpt><trkpt lat="41.868974094088394" lon="2.9306441901992044"><ele>207.0</ele><time>2026-05-02T11:31:14Z</time></trkpt><trkpt lat="41.868937324276246" lon="2.9305434641702157"><ele>206.85714285714286</ele><time>2026-05-02T11:31:15Z</time></trkpt><trkpt lat="41.868905003189276" lon="2.930452926437237"><ele>206.71428571428572</ele><time>2026-05-02T11:31:16Z</time></trkpt><trkpt lat="41.868868561714876" lon="2.9303718610044345"><ele>206.57142857142856</ele><time>2026-05-02T11:31:17Z</time></trkpt><trkpt lat="41.868845483613676" lon="2.9302843212108796"><ele>206.42857142857144</ele><time>2026-05-02T11:31:18Z</time></trkpt><trkpt lat="41.86879198246736" lon="2.930205694576563"><ele>206.28571428571428</ele><time>2026-05-02T11:31:19Z</time></trkpt><trkpt lat="41.86873875286983" lon="2.930131128262529"><ele>206.14285714285714</ele><time>2026-05-02T11:31:20Z</time></trkpt><trkpt lat="41.86868461503119" lon="2.9300583785038015"><ele>206.0</ele><time>2026-05-02T11:31:21Z</time></trkpt><trkpt lat="41.868629204484265" lon="2.929988742353053"><ele>205.83333333333334</ele><time>2026-05-02T11:31:22Z</time></trkpt><trkpt lat="41.868575420696324" lon="2.929921628255478"><ele>205.66666666666669</ele><time>2026-05-02T11:31:23Z</time></trkpt><trkpt lat="41.86852670548716" lon="2.9298558623012605"><ele>205.5</ele><time>2026-05-02T11:31:24Z</time></trkpt><trkpt lat="41.86844157626538" lon="2.929724141322007"><ele>205.33333333333331</ele><time>2026-05-02T11:31:26Z</time></trkpt><trkpt lat="41.86840992675251" lon="2.929644955553462"><ele>205.16666666666666</ele><time>2026-05-02T11:31:27Z</time></trkpt><trkpt lat="41.868368425938634" lon="2.9295698902139744"><ele>205.0</ele><time>2026-05-02T11:31:28Z</time></trkpt><trkpt lat="41.868329048985345" lon="2.9294930323108197"><ele>204.99999999999997</ele><time>2026-05-02T11:31:29Z</time></trkpt><trkpt lat="41.86829370393515" lon="2.929409923004876"><ele>205.0</ele><time>2026-05-02T11:31:30Z</time></trkpt><trkpt lat="41.86825166425975" lon="2.929324021325433"><ele>205.0</ele><time>2026-05-02T11:31:31Z</time></trkpt><trkpt lat="41.86821745798649" lon="2.929236213355114"><ele>205.0</ele><time>2026-05-02T11:31:32Z</time></trkpt><trkpt lat="41.868178125118654" lon="2.929148130606936"><ele>204.99999999999997</ele><time>2026-05-02T11:31:33Z</time></trkpt><trkpt lat="41.868158920127236" lon="2.9290451672283613"><ele>205.0</ele><time>2026-05-02T11:31:34Z</time></trkpt><trkpt lat="41.86812542571883" lon="2.928953331141039"><ele>204.57142857142858</ele><time>2026-05-02T11:31:35Z</time></trkpt><trkpt lat="41.86809162389368" lon="2.92886319152913"><ele>204.14285714285714</ele><time>2026-05-02T11:31:36Z</time></trkpt><trkpt lat="41.86804463859004" lon="2.928788781023487"><ele>203.71428571428572</ele><time>2026-05-02T11:31:37Z</time></trkpt><trkpt lat="41.86801277907981" lon="2.9286981149203672"><ele>203.28571428571428</ele><time>2026-05-02T11:31:38Z</time></trkpt><trkpt lat="41.867984385575426" lon="2.9286085037558203"><ele>202.85714285714283</ele><time>2026-05-02T11:31:39Z</time></trkpt><trkpt lat="41.86795445710946" lon="2.928513093621408"><ele>202.42857142857142</ele><time>2026-05-02T11:31:40Z</time></trkpt><trkpt lat="41.867941454346564" lon="2.928410641003895"><ele>202.0</ele><time>2026-05-02T11:31:41Z</time></trkpt><trkpt lat="41.86791403703072" lon="2.9283152431411605"><ele>201.49999999999997</ele><time>2026-05-02T11:31:42Z</time></trkpt><trkpt lat="41.86787436985241" lon="2.928228262139122"><ele>201.0</ele><time>2026-05-02T11:31:43Z</time></trkpt><trkpt lat="41.86786510119806" lon="2.928127890665376"><ele>200.5</ele><time>2026-05-02T11:31:44Z</time></trkpt><trkpt lat="41.867885458334776" lon="2.9280271495757613"><ele>200.0</ele><time>2026-05-02T11:31:45Z</time></trkpt><trkpt lat="41.86787927344515" lon="2.9279303951572166"><ele>199.49999999999997</ele><time>2026-05-02T11:31:46Z</time></trkpt><trkpt lat="41.867867210712234" lon="2.9278343367760713"><ele>199.0</ele><time>2026-05-02T11:31:47Z</time></trkpt><trkpt lat="41.867833970352244" lon="2.9277334746824852"><ele>198.99999999999997</ele><time>2026-05-02T11:31:48Z</time></trkpt><trkpt lat="41.86777613255991" lon="2.927647237680255"><ele>199.0</ele><time>2026-05-02T11:31:49Z</time></trkpt><trkpt lat="41.867703604952055" lon="2.927580065353901"><ele>199.0</ele><time>2026-05-02T11:31:50Z</time></trkpt><trkpt lat="41.867639926017574" lon="2.927506844784429"><ele>199.0</ele><time>2026-05-02T11:31:51Z</time></trkpt><trkpt lat="41.86757376452371" lon="2.927433642971115"><ele>198.99999999999997</ele><time>2026-05-02T11:31:52Z</time></trkpt><trkpt lat="41.86750421189394" lon="2.9273608054220523"><ele>199.0</ele><time>2026-05-02T11:31:53Z</time></trkpt><trkpt lat="41.86743374885659" lon="2.927286454037609"><ele>198.16666666666666</ele><time>2026-05-02T11:31:54Z</time></trkpt><trkpt lat="41.86736511024743" lon="2.9272103465872084"><ele>197.33333333333331</ele><time>2026-05-02T11:31:55Z</time></trkpt><trkpt lat="41.86729933555801" lon="2.9271325910507477"><ele>196.5</ele><time>2026-05-02T11:31:56Z</time></trkpt><trkpt lat="41.86724075866195" lon="2.9270503754925574"><ele>195.66666666666669</ele><time>2026-05-02T11:31:57Z</time></trkpt><trkpt lat="41.86718729649873" lon="2.9269651731565722"><ele>194.83333333333334</ele><time>2026-05-02T11:31:58Z</time></trkpt><trkpt lat="41.86713770786517" lon="2.926878168377325"><ele>194.0</ele><time>2026-05-02T11:31:59Z</time></trkpt><trkpt lat="41.86708866815644" lon="2.9267879168248516"><ele>193.50000000000003</ele><time>2026-05-02T11:32:00Z</time></trkpt><trkpt lat="41.86703917687789" lon="2.9266928808884103"><ele>193.0</ele><time>2026-05-02T11:32:01Z</time></trkpt><trkpt lat="41.86698907904223" lon="2.926596680206898"><ele>192.5</ele><time>2026-05-02T11:32:02Z</time></trkpt><trkpt lat="41.866938763719034" lon="2.9265000619085804"><ele>192.0</ele><time>2026-05-02T11:32:03Z</time></trkpt><trkpt lat="41.866885375919814" lon="2.92640566906341"><ele>191.5</ele><time>2026-05-02T11:32:04Z</time></trkpt><trkpt lat="41.866831522369374" lon="2.926313940502449"><ele>191.0</ele><time>2026-05-02T11:32:05Z</time></trkpt><trkpt lat="41.866778989754714" lon="2.9262208639226572"><ele>191.16666666666666</ele><time>2026-05-02T11:32:06Z</time></trkpt><trkpt lat="41.86672629733174" lon="2.9261239891280346"><ele>191.33333333333331</ele><time>2026-05-02T11:32:07Z</time></trkpt><trkpt lat="41.86668055613594" lon="2.926019069498252"><ele>191.5</ele><time>2026-05-02T11:32:08Z</time></trkpt><trkpt lat="41.866650147282385" lon="2.92590743790284"><ele>191.66666666666666</ele><time>2026-05-02T11:32:09Z</time></trkpt><trkpt lat="41.866628838436824" lon="2.9257910861293412"><ele>191.83333333333334</ele><time>2026-05-02T11:32:10Z</time></trkpt><trkpt lat="41.86660897817476" lon="2.9256724727726398"><ele>192.0</ele><time>2026-05-02T11:32:11Z</time></trkpt><trkpt lat="41.866589206111506" lon="2.9255589307599768"><ele>192.0</ele><time>2026-05-02T11:32:12Z</time></trkpt><trkpt lat="41.86657334859371" lon="2.925448175221331"><ele>192.0</ele><time>2026-05-02T11:32:13Z</time></trkpt><trkpt lat="41.86655842763696" lon="2.9253319995762963"><ele>192.0</ele><time>2026-05-02T11:32:14Z</time></trkpt><trkpt lat="41.86654352331065" lon="2.9252130133663137"><ele>192.0</ele><time>2026-05-02T11:32:15Z</time></trkpt><trkpt lat="41.86652894727403" lon="2.925096648003266"><ele>192.0</ele><time>2026-05-02T11:32:16Z</time></trkpt><trkpt lat="41.86650983014703" lon="2.9249822816826416"><ele>192.0</ele><time>2026-05-02T11:32:17Z</time></trkpt><trkpt lat="41.866489533404845" lon="2.9248705155541406"><ele>192.0</ele><time>2026-05-02T11:32:18Z</time></trkpt><trkpt lat="41.866469034778284" lon="2.9247581804741647"><ele>192.0</ele><time>2026-05-02T11:32:19Z</time></trkpt><trkpt lat="41.866448638910136" lon="2.924646408515179"><ele>192.0</ele><time>2026-05-02T11:32:20Z</time></trkpt><trkpt lat="41.86643157491493" lon="2.9245384473941445"><ele>192.0</ele><time>2026-05-02T11:32:21Z</time></trkpt><trkpt lat="41.866413396964006" lon="2.924433736221801"><ele>192.0</ele><time>2026-05-02T11:32:22Z</time></trkpt><trkpt lat="41.86642232309894" lon="2.924324209740935"><ele>192.0</ele><time>2026-05-02T11:32:23Z</time></trkpt><trkpt lat="41.866434887041436" lon="2.924209281276436"><ele>191.6</ele><time>2026-05-02T11:32:24Z</time></trkpt><trkpt lat="41.86644711293018" lon="2.924090172116893"><ele>191.2</ele><time>2026-05-02T11:32:25Z</time></trkpt><trkpt lat="41.8664604586639" lon="2.923964077629606"><ele>190.8</ele><time>2026-05-02T11:32:26Z</time></trkpt><trkpt lat="41.866473192945854" lon="2.9238399559432713"><ele>190.4</ele><time>2026-05-02T11:32:27Z</time></trkpt><trkpt lat="41.866483695794855" lon="2.923716948152249"><ele>190.0</ele><time>2026-05-02T11:32:28Z</time></trkpt><trkpt lat="41.86649128374954" lon="2.9235945301543986"><ele>190.0</ele><time>2026-05-02T11:32:29Z</time></trkpt><trkpt lat="41.866513743577364" lon="2.923473879607189"><ele>190.0</ele><time>2026-05-02T11:32:30Z</time></trkpt><trkpt lat="41.8665205199511" lon="2.923350856375091"><ele>190.0</ele><time>2026-05-02T11:32:31Z</time></trkpt><trkpt lat="41.86651481622044" lon="2.923228024509989"><ele>190.0</ele><time>2026-05-02T11:32:32Z</time></trkpt><trkpt lat="41.866523087550846" lon="2.923102872426844"><ele>190.0</ele><time>2026-05-02T11:32:33Z</time></trkpt><trkpt lat="41.86652827421304" lon="2.922985088928686"><ele>189.66666666666669</ele><time>2026-05-02T11:32:34Z</time></trkpt><trkpt lat="41.86655148556446" lon="2.922870963205524"><ele>189.33333333333334</ele><time>2026-05-02T11:32:35Z</time></trkpt><trkpt lat="41.86656401743972" lon="2.9227557057549047"><ele>189.0</ele><time>2026-05-02T11:32:36Z</time></trkpt><trkpt lat="41.86657566146091" lon="2.922648614024299"><ele>188.66666666666666</ele><time>2026-05-02T11:32:37Z</time></trkpt><trkpt lat="41.866587685116535" lon="2.9225427183019854"><ele>188.33333333333331</ele><time>2026-05-02T11:32:38Z</time></trkpt><trkpt lat="41.86660130086374" lon="2.922434160331303"><ele>188.0</ele><time>2026-05-02T11:32:39Z</time></trkpt><trkpt lat="41.86661470762624" lon="2.9223258905993545"><ele>187.66666666666666</ele><time>2026-05-02T11:32:40Z</time></trkpt><trkpt lat="41.86662729099062" lon="2.9222220778517825"><ele>187.33333333333331</ele><time>2026-05-02T11:32:41Z</time></trkpt><trkpt lat="41.86663950780978" lon="2.922115072292992"><ele>187.0</ele><time>2026-05-02T11:32:42Z</time></trkpt><trkpt lat="41.866650225016784" lon="2.9219999679756246"><ele>186.66666666666666</ele><time>2026-05-02T11:32:43Z</time></trkpt><trkpt lat="41.866658159547896" lon="2.921893588628504"><ele>186.33333333333334</ele><time>2026-05-02T11:32:44Z</time></trkpt><trkpt lat="41.86665512312694" lon="2.921786301362406"><ele>186.0</ele><time>2026-05-02T11:32:45Z</time></trkpt><trkpt lat="41.86667723876447" lon="2.9216833223964334"><ele>185.5</ele><time>2026-05-02T11:32:46Z</time></trkpt><trkpt lat="41.86671212802108" lon="2.921589662909094"><ele>185.0</ele><time>2026-05-02T11:32:47Z</time></trkpt><trkpt lat="41.86678073398226" lon="2.921509836867748"><ele>184.5</ele><time>2026-05-02T11:32:48Z</time></trkpt><trkpt lat="41.86681237673243" lon="2.921402434425674"><ele>184.0</ele><time>2026-05-02T11:32:49Z</time></trkpt><trkpt lat="41.86684317052756" lon="2.9213065224708346"><ele>183.5</ele><time>2026-05-02T11:32:50Z</time></trkpt><trkpt lat="41.86688148951131" lon="2.9212169289052694"><ele>183.0</ele><time>2026-05-02T11:32:51Z</time></trkpt><trkpt lat="41.86688221423549" lon="2.921117775315185"><ele>182.57142857142858</ele><time>2026-05-02T11:32:52Z</time></trkpt><trkpt lat="41.86686553750544" lon="2.921024342352196"><ele>182.14285714285717</ele><time>2026-05-02T11:32:53Z</time></trkpt><trkpt lat="41.86683098150787" lon="2.9209381683263667"><ele>181.71428571428572</ele><time>2026-05-02T11:32:54Z</time></trkpt><trkpt lat="41.86678828727133" lon="2.9208603245110774"><ele>181.28571428571428</ele><time>2026-05-02T11:32:55Z</time></trkpt><trkpt lat="41.86675097156182" lon="2.9207828029712912"><ele>180.85714285714286</ele><time>2026-05-02T11:32:56Z</time></trkpt><trkpt lat="41.866706714432176" lon="2.9207083803203475"><ele>180.42857142857142</ele><time>2026-05-02T11:32:57Z</time></trkpt><trkpt lat="41.866685311756534" lon="2.920611468776694"><ele>180.0</ele><time>2026-05-02T11:32:58Z</time></trkpt><trkpt lat="41.86666857048509" lon="2.9205121476247125"><ele>180.0</ele><time>2026-05-02T11:32:59Z</time></trkpt><trkpt lat="41.86666014772855" lon="2.9204059643877436"><ele>180.0</ele><time>2026-05-02T11:33:00Z</time></trkpt><trkpt lat="41.86666436410755" lon="2.920296447241558"><ele>180.0</ele><time>2026-05-02T11:33:01Z</time></trkpt><trkpt lat="41.86668310566869" lon="2.9201914222847365"><ele>180.0</ele><time>2026-05-02T11:33:02Z</time></trkpt><trkpt lat="41.86670850443975" lon="2.9200883638864146"><ele>180.0</ele><time>2026-05-02T11:33:03Z</time></trkpt><trkpt lat="41.8667508452598" lon="2.9200002984418156"><ele>180.0</ele><time>2026-05-02T11:33:04Z</time></trkpt><trkpt lat="41.86678180725471" lon="2.9199035224186822"><ele>179.0</ele><time>2026-05-02T11:33:05Z</time></trkpt><trkpt lat="41.866812850172764" lon="2.919806493455435"><ele>178.0</ele><time>2026-05-02T11:33:06Z</time></trkpt><trkpt lat="41.866844303277695" lon="2.91970818238848"><ele>177.0</ele><time>2026-05-02T11:33:07Z</time></trkpt><trkpt lat="41.86687419285536" lon="2.9196121253520855"><ele>176.0</ele><time>2026-05-02T11:33:08Z</time></trkpt><trkpt lat="41.86690291128144" lon="2.9195199028054737"><ele>175.0</ele><time>2026-05-02T11:33:09Z</time></trkpt><trkpt lat="41.86691984716231" lon="2.9194123733708053"><ele>174.0</ele><time>2026-05-02T11:33:10Z</time></trkpt><trkpt lat="41.866948823003256" lon="2.919311569167903"><ele>173.79999999999998</ele><time>2026-05-02T11:33:11Z</time></trkpt><trkpt lat="41.86698297225349" lon="2.919204705758431"><ele>173.6</ele><time>2026-05-02T11:33:12Z</time></trkpt><trkpt lat="41.86702805597536" lon="2.9190926212775126"><ele>173.4</ele><time>2026-05-02T11:33:13Z</time></trkpt><trkpt lat="41.86707669042977" lon="2.918979300885289"><ele>173.2</ele><time>2026-05-02T11:33:14Z</time></trkpt><trkpt lat="41.867121705226545" lon="2.9188687474538644"><ele>173.0</ele><time>2026-05-02T11:33:15Z</time></trkpt><trkpt lat="41.867165200014966" lon="2.918759021333076"><ele>173.0</ele><time>2026-05-02T11:33:16Z</time></trkpt><trkpt lat="41.86720774815566" lon="2.9186503750578034"><ele>173.0</ele><time>2026-05-02T11:33:17Z</time></trkpt><trkpt lat="41.86724564521486" lon="2.9185423297798816"><ele>173.0</ele><time>2026-05-02T11:33:18Z</time></trkpt><trkpt lat="41.867275098576144" lon="2.9184309158014927"><ele>173.0</ele><time>2026-05-02T11:33:19Z</time></trkpt><trkpt lat="41.867291575047815" lon="2.918310894257236"><ele>173.0</ele><time>2026-05-02T11:33:20Z</time></trkpt><trkpt lat="41.86731610251816" lon="2.91818918165092"><ele>172.60000000000002</ele><time>2026-05-02T11:33:21Z</time></trkpt><trkpt lat="41.86729586782352" lon="2.91806018082868"><ele>172.20000000000002</ele><time>2026-05-02T11:33:22Z</time></trkpt><trkpt lat="41.8672909062682" lon="2.917930153211526"><ele>171.8</ele><time>2026-05-02T11:33:23Z</time></trkpt><trkpt lat="41.8672795578628" lon="2.9177992507086676"><ele>171.4</ele><time>2026-05-02T11:33:24Z</time></trkpt><trkpt lat="41.86727231176872" lon="2.917665923462339"><ele>171.0</ele><time>2026-05-02T11:33:25Z</time></trkpt><trkpt lat="41.86727711551795" lon="2.9175351882662546"><ele>170.66666666666666</ele><time>2026-05-02T11:33:26Z</time></trkpt><trkpt lat="41.86729811364916" lon="2.917409816340931"><ele>170.33333333333334</ele><time>2026-05-02T11:33:27Z</time></trkpt><trkpt lat="41.8673187800479" lon="2.9172863411650307"><ele>170.0</ele><time>2026-05-02T11:33:28Z</time></trkpt><trkpt lat="41.86735175533492" lon="2.9171769374297"><ele>169.66666666666669</ele><time>2026-05-02T11:33:29Z</time></trkpt><trkpt lat="41.86736059235089" lon="2.9170603876122017"><ele>169.33333333333334</ele><time>2026-05-02T11:33:30Z</time></trkpt><trkpt lat="41.86738454639722" lon="2.916954168419622"><ele>169.0</ele><time>2026-05-02T11:33:31Z</time></trkpt><trkpt lat="41.86740948155607" lon="2.9168458847885708"><ele>169.0</ele><time>2026-05-02T11:33:32Z</time></trkpt><trkpt lat="41.86744487778462" lon="2.9167463493854635"><ele>169.0</ele><time>2026-05-02T11:33:33Z</time></trkpt><trkpt lat="41.86747087778106" lon="2.9166402733688006"><ele>169.0</ele><time>2026-05-02T11:33:34Z</time></trkpt><trkpt lat="41.86749785739039" lon="2.9165304226875737"><ele>169.0</ele><time>2026-05-02T11:33:35Z</time></trkpt><trkpt lat="41.86752507420955" lon="2.9164167401112415"><ele>169.0</ele><time>2026-05-02T11:33:36Z</time></trkpt><trkpt lat="41.86755043090348" lon="2.916292395412437"><ele>169.0</ele><time>2026-05-02T11:33:37Z</time></trkpt><trkpt lat="41.86756692210101" lon="2.9161650606340546"><ele>168.79999999999998</ele><time>2026-05-02T11:33:38Z</time></trkpt><trkpt lat="41.86757850590114" lon="2.9160284311401248"><ele>168.6</ele><time>2026-05-02T11:33:39Z</time></trkpt><trkpt lat="41.86758831373115" lon="2.915890304157772"><ele>168.4</ele><time>2026-05-02T11:33:40Z</time></trkpt><trkpt lat="41.867596233781214" lon="2.9157552003462666"><ele>168.2</ele><time>2026-05-02T11:33:41Z</time></trkpt><trkpt lat="41.86758755284421" lon="2.915615092118425"><ele>168.0</ele><time>2026-05-02T11:33:42Z</time></trkpt><trkpt lat="41.86759641009541" lon="2.9154752339838303"><ele>167.4</ele><time>2026-05-02T11:33:43Z</time></trkpt><trkpt lat="41.86760083275834" lon="2.9153356141164273"><ele>166.8</ele><time>2026-05-02T11:33:44Z</time></trkpt><trkpt lat="41.86760293806031" lon="2.9151967916634987"><ele>166.2</ele><time>2026-05-02T11:33:45Z</time></trkpt><trkpt lat="41.86759710326227" lon="2.9150594325658794"><ele>165.6</ele><time>2026-05-02T11:33:46Z</time></trkpt><trkpt lat="41.86759233921058" lon="2.914920238537896"><ele>165.0</ele><time>2026-05-02T11:33:47Z</time></trkpt><trkpt lat="41.86757927596456" lon="2.91478223901953"><ele>164.4</ele><time>2026-05-02T11:33:48Z</time></trkpt><trkpt lat="41.86755879742602" lon="2.9146494595035395"><ele>163.8</ele><time>2026-05-02T11:33:49Z</time></trkpt><trkpt lat="41.867548457344405" lon="2.9145149649340145"><ele>163.2</ele><time>2026-05-02T11:33:50Z</time></trkpt><trkpt lat="41.867517951517705" lon="2.9143819013157617"><ele>162.6</ele><time>2026-05-02T11:33:51Z</time></trkpt><trkpt lat="41.86748558732412" lon="2.914258997150926"><ele>162.0</ele><time>2026-05-02T11:33:52Z</time></trkpt><trkpt lat="41.86743842761685" lon="2.914156101670224"><ele>161.5</ele><time>2026-05-02T11:33:53Z</time></trkpt><trkpt lat="41.86742773686285" lon="2.9140505531807754"><ele>161.0</ele><time>2026-05-02T11:33:54Z</time></trkpt><trkpt lat="41.867403712692706" lon="2.9139589656963296"><ele>160.5</ele><time>2026-05-02T11:33:55Z</time></trkpt><trkpt lat="41.867425350267375" lon="2.9138617761369336"><ele>160.0</ele><time>2026-05-02T11:33:56Z</time></trkpt><trkpt lat="41.8674749807018" lon="2.9137715201148"><ele>159.5</ele><time>2026-05-02T11:33:57Z</time></trkpt><trkpt lat="41.86753423032582" lon="2.9136912237983874"><ele>159.0</ele><time>2026-05-02T11:33:58Z</time></trkpt><trkpt lat="41.8675849276491" lon="2.913608691275972"><ele>159.0</ele><time>2026-05-02T11:33:59Z</time></trkpt><trkpt lat="41.86763733004872" lon="2.913521772443053"><ele>159.0</ele><time>2026-05-02T11:34:00Z</time></trkpt><trkpt lat="41.867692457577085" lon="2.9134403202142405"><ele>159.0</ele><time>2026-05-02T11:34:01Z</time></trkpt><trkpt lat="41.86774810812688" lon="2.913363645591585"><ele>159.0</ele><time>2026-05-02T11:34:02Z</time></trkpt><trkpt lat="41.867805014617666" lon="2.9132895000934638"><ele>159.0</ele><time>2026-05-02T11:34:03Z</time></trkpt><trkpt lat="41.86786351891219" lon="2.9132125728102993"><ele>159.0</ele><time>2026-05-02T11:34:04Z</time></trkpt><trkpt lat="41.867925586060174" lon="2.913138628984906"><ele>158.83333333333334</ele><time>2026-05-02T11:34:05Z</time></trkpt><trkpt lat="41.86798694734048" lon="2.913070528215759"><ele>158.66666666666666</ele><time>2026-05-02T11:34:06Z</time></trkpt><trkpt lat="41.868046009883265" lon="2.9130029059988587"><ele>158.5</ele><time>2026-05-02T11:34:07Z</time></trkpt><trkpt lat="41.86810246006143" lon="2.9129344259177112"><ele>158.33333333333331</ele><time>2026-05-02T11:34:08Z</time></trkpt><trkpt lat="41.86815604049168" lon="2.912863898178981"><ele>158.16666666666666</ele><time>2026-05-02T11:34:09Z</time></trkpt><trkpt lat="41.868207491042774" lon="2.9127933916120328"><ele>158.0</ele><time>2026-05-02T11:34:10Z</time></trkpt><trkpt lat="41.86826274059536" lon="2.91272737688962"><ele>158.00000000000003</ele><time>2026-05-02T11:34:11Z</time></trkpt><trkpt lat="41.868318370357706" lon="2.912664589704271"><ele>158.0</ele><time>2026-05-02T11:34:12Z</time></trkpt><trkpt lat="41.868365629244316" lon="2.9125962755458397"><ele>158.0</ele><time>2026-05-02T11:34:13Z</time></trkpt><trkpt lat="41.86841885501266" lon="2.912529873422689"><ele>158.0</ele><time>2026-05-02T11:34:14Z</time></trkpt><trkpt lat="41.86845175094725" lon="2.912439943338714"><ele>158.0</ele><time>2026-05-02T11:34:15Z</time></trkpt><trkpt lat="41.8684730866753" lon="2.912335733417534"><ele>158.00000000000003</ele><time>2026-05-02T11:34:16Z</time></trkpt><trkpt lat="41.86849503576575" lon="2.9122342446139573"><ele>158.0</ele><time>2026-05-02T11:34:17Z</time></trkpt><trkpt lat="41.868511959671814" lon="2.912133976677086"><ele>158.0</ele><time>2026-05-02T11:34:18Z</time></trkpt><trkpt lat="41.86852728073393" lon="2.912035940715764"><ele>158.0</ele><time>2026-05-02T11:34:19Z</time></trkpt><trkpt lat="41.86854005735147" lon="2.9119367465196104"><ele>158.0</ele><time>2026-05-02T11:34:20Z</time></trkpt><trkpt lat="41.86855068902609" lon="2.91183208299855"><ele>158.0</ele><time>2026-05-02T11:34:21Z</time></trkpt><trkpt lat="41.86855888754729" lon="2.9117322716720637"><ele>158.0</ele><time>2026-05-02T11:34:22Z</time></trkpt><trkpt lat="41.868565310345915" lon="2.9116283205464217"><ele>158.0</ele><time>2026-05-02T11:34:23Z</time></trkpt><trkpt lat="41.868558624986846" lon="2.911522101501049"><ele>158.16666666666666</ele><time>2026-05-02T11:34:24Z</time></trkpt><trkpt lat="41.86857982804717" lon="2.9114145364563875"><ele>158.33333333333331</ele><time>2026-05-02T11:34:25Z</time></trkpt><trkpt lat="41.86861819021717" lon="2.9113153354141197"><ele>158.5</ele><time>2026-05-02T11:34:26Z</time></trkpt><trkpt lat="41.86864415144688" lon="2.911212752239856"><ele>158.66666666666666</ele><time>2026-05-02T11:34:27Z</time></trkpt><trkpt lat="41.86865577088132" lon="2.911099459757492"><ele>158.83333333333334</ele><time>2026-05-02T11:34:28Z</time></trkpt><trkpt lat="41.868685793024206" lon="2.9109938366866324"><ele>159.0</ele><time>2026-05-02T11:34:29Z</time></trkpt><trkpt lat="41.86873313816591" lon="2.9108946039744246"><ele>158.66666666666666</ele><time>2026-05-02T11:34:30Z</time></trkpt><trkpt lat="41.86876614226951" lon="2.910787750262317"><ele>158.33333333333334</ele><time>2026-05-02T11:34:31Z</time></trkpt><trkpt lat="41.86880030872815" lon="2.9106835009372873"><ele>158.0</ele><time>2026-05-02T11:34:32Z</time></trkpt><trkpt lat="41.86883661399234" lon="2.9105745158686678"><ele>157.66666666666669</ele><time>2026-05-02T11:34:33Z</time></trkpt><trkpt lat="41.86886417789177" lon="2.9104621144761107"><ele>157.33333333333334</ele><time>2026-05-02T11:34:34Z</time></trkpt><trkpt lat="41.868870128807856" lon="2.9103462964448674"><ele>157.0</ele><time>2026-05-02T11:34:35Z</time></trkpt><trkpt lat="41.86889466410991" lon="2.910238917039801"><ele>157.0</ele><time>2026-05-02T11:34:36Z</time></trkpt><trkpt lat="41.86891376803671" lon="2.9101341388596027"><ele>157.0</ele><time>2026-05-02T11:34:37Z</time></trkpt><trkpt lat="41.868936560478815" lon="2.910028042317826"><ele>157.0</ele><time>2026-05-02T11:34:38Z</time></trkpt><trkpt lat="41.86895917419507" lon="2.909922308427619"><ele>157.0</ele><time>2026-05-02T11:34:39Z</time></trkpt><trkpt lat="41.868982645246795" lon="2.909819005109689"><ele>157.0</ele><time>2026-05-02T11:34:40Z</time></trkpt><trkpt lat="41.86900205514004" lon="2.909709823548958"><ele>157.0</ele><time>2026-05-02T11:34:41Z</time></trkpt><trkpt lat="41.86902297572298" lon="2.909601625458948"><ele>157.0</ele><time>2026-05-02T11:34:42Z</time></trkpt><trkpt lat="41.86904757485636" lon="2.909495213157906"><ele>157.0</ele><time>2026-05-02T11:34:43Z</time></trkpt><trkpt lat="41.869079469141475" lon="2.9093909867767973"><ele>157.0</ele><time>2026-05-02T11:34:44Z</time></trkpt><trkpt lat="41.8691313887428" lon="2.9093015824053134"><ele>157.0</ele><time>2026-05-02T11:34:45Z</time></trkpt><trkpt lat="41.86916003780007" lon="2.9091942012242162"><ele>157.0</ele><time>2026-05-02T11:34:46Z</time></trkpt><trkpt lat="41.86920067659604" lon="2.9091003657361205"><ele>157.0</ele><time>2026-05-02T11:34:47Z</time></trkpt><trkpt lat="41.86923808576096" lon="2.909006725404866"><ele>157.0</ele><time>2026-05-02T11:34:48Z</time></trkpt><trkpt lat="41.869272692366906" lon="2.908914699427611"><ele>157.0</ele><time>2026-05-02T11:34:49Z</time></trkpt><trkpt lat="41.869303877461746" lon="2.908820684325066"><ele>157.0</ele><time>2026-05-02T11:34:50Z</time></trkpt><trkpt lat="41.86933792544819" lon="2.908724349896972"><ele>157.0</ele><time>2026-05-02T11:34:51Z</time></trkpt><trkpt lat="41.8693678064265" lon="2.9086273606976434"><ele>157.0</ele><time>2026-05-02T11:34:52Z</time></trkpt><trkpt lat="41.86939731756895" lon="2.9085302187195494"><ele>157.0</ele><time>2026-05-02T11:34:53Z</time></trkpt><trkpt lat="41.86942817089688" lon="2.9084334064154502"><ele>157.16666666666669</ele><time>2026-05-02T11:34:54Z</time></trkpt><trkpt lat="41.86945990429866" lon="2.908337827019737"><ele>157.33333333333334</ele><time>2026-05-02T11:34:55Z</time></trkpt><trkpt lat="41.86949198682894" lon="2.9082410161429837"><ele>157.5</ele><time>2026-05-02T11:34:56Z</time></trkpt><trkpt lat="41.869539692770935" lon="2.9081522498068706"><ele>157.66666666666666</ele><time>2026-05-02T11:34:57Z</time></trkpt><trkpt lat="41.86957239806567" lon="2.908056822284167"><ele>157.83333333333331</ele><time>2026-05-02T11:34:58Z</time></trkpt><trkpt lat="41.86960614648351" lon="2.90796216349172"><ele>158.0</ele><time>2026-05-02T11:34:59Z</time></trkpt><trkpt lat="41.86964114107593" lon="2.9078666089571352"><ele>158.0</ele><time>2026-05-02T11:35:00Z</time></trkpt><trkpt lat="41.86967632485856" lon="2.9077735936381264"><ele>158.0</ele><time>2026-05-02T11:35:01Z</time></trkpt><trkpt lat="41.86969879535899" lon="2.9076691145379905"><ele>158.0</ele><time>2026-05-02T11:35:02Z</time></trkpt><trkpt lat="41.869738778888134" lon="2.9075825619119815"><ele>158.0</ele><time>2026-05-02T11:35:03Z</time></trkpt><trkpt lat="41.86977743869791" lon="2.907498535447612"><ele>158.0</ele><time>2026-05-02T11:35:04Z</time></trkpt><trkpt lat="41.86981970895886" lon="2.9074157297739465"><ele>158.0</ele><time>2026-05-02T11:35:05Z</time></trkpt><trkpt lat="41.86985929747647" lon="2.9073353859024493"><ele>158.2857142857143</ele><time>2026-05-02T11:35:06Z</time></trkpt><trkpt lat="41.86991323390739" lon="2.9072654503844166"><ele>158.57142857142858</ele><time>2026-05-02T11:35:07Z</time></trkpt><trkpt lat="41.869941944239294" lon="2.9071680329146643"><ele>158.85714285714286</ele><time>2026-05-02T11:35:08Z</time></trkpt><trkpt lat="41.86998133292747" lon="2.9070911341853862"><ele>159.14285714285717</ele><time>2026-05-02T11:35:09Z</time></trkpt><trkpt lat="41.870023549579635" lon="2.9070122085982506"><ele>159.42857142857144</ele><time>2026-05-02T11:35:10Z</time></trkpt><trkpt lat="41.87006862234029" lon="2.906930888534991"><ele>159.71428571428572</ele><time>2026-05-02T11:35:11Z</time></trkpt><trkpt lat="41.870106310305886" lon="2.9068449882040355"><ele>160.0</ele><time>2026-05-02T11:35:12Z</time></trkpt><trkpt lat="41.870148761410654" lon="2.90676374693869"><ele>159.8</ele><time>2026-05-02T11:35:13Z</time></trkpt><trkpt lat="41.87019926439532" lon="2.906676362768714"><ele>159.6</ele><time>2026-05-02T11:35:14Z</time></trkpt><trkpt lat="41.87028489877939" lon="2.906530309988513"><ele>159.4</ele><time>2026-05-02T11:35:16Z</time></trkpt><trkpt lat="41.87033408529847" lon="2.9064455862102565"><ele>159.2</ele><time>2026-05-02T11:35:17Z</time></trkpt><trkpt lat="41.87038552761545" lon="2.906360315169122"><ele>159.0</ele><time>2026-05-02T11:35:18Z</time></trkpt><trkpt lat="41.87045188899074" lon="2.9063024412421075"><ele>159.0</ele><time>2026-05-02T11:35:19Z</time></trkpt><trkpt lat="41.8704894916195" lon="2.906208365568811"><ele>159.0</ele><time>2026-05-02T11:35:20Z</time></trkpt><trkpt lat="41.87054988047241" lon="2.9061316068076093"><ele>159.0</ele><time>2026-05-02T11:35:21Z</time></trkpt><trkpt lat="41.87059386157741" lon="2.906037582974122"><ele>159.0</ele><time>2026-05-02T11:35:22Z</time></trkpt><trkpt lat="41.87061236643308" lon="2.905937643566801"><ele>159.0</ele><time>2026-05-02T11:35:23Z</time></trkpt><trkpt lat="41.87063725699849" lon="2.9058582200079166"><ele>159.0</ele><time>2026-05-02T11:35:24Z</time></trkpt><trkpt lat="41.87066118683775" lon="2.905730207030724"><ele>158.8</ele><time>2026-05-02T11:35:26Z</time></trkpt><trkpt lat="41.870702059834215" lon="2.9056381273544556"><ele>158.60000000000002</ele><time>2026-05-02T11:35:28Z</time></trkpt><trkpt lat="41.87060118901984" lon="2.905510778605857"><ele>158.4</ele><time>2026-05-02T11:35:29Z</time></trkpt><trkpt lat="41.87050940267147" lon="2.905398943223079"><ele>158.20000000000002</ele><time>2026-05-02T11:35:31Z</time></trkpt><trkpt lat="41.8704557730771" lon="2.9053355384200166"><ele>158.0</ele><time>2026-05-02T11:35:32Z</time></trkpt><trkpt lat="41.87039734218813" lon="2.9052695845671503"><ele>158.0</ele><time>2026-05-02T11:35:33Z</time></trkpt><trkpt lat="41.87033315287163" lon="2.9052032566446733"><ele>158.0</ele><time>2026-05-02T11:35:34Z</time></trkpt><trkpt lat="41.870267267859106" lon="2.9051352781533146"><ele>158.0</ele><time>2026-05-02T11:35:35Z</time></trkpt><trkpt lat="41.870203844426" lon="2.9050669635548987"><ele>158.0</ele><time>2026-05-02T11:35:36Z</time></trkpt><trkpt lat="41.87013847104742" lon="2.90499654863084"><ele>158.0</ele><time>2026-05-02T11:35:37Z</time></trkpt><trkpt lat="41.87005774933165" lon="2.904939765171728"><ele>158.0</ele><time>2026-05-02T11:35:38Z</time></trkpt><trkpt lat="41.86999758897798" lon="2.904852967529118"><ele>157.66666666666666</ele><time>2026-05-02T11:35:39Z</time></trkpt><trkpt lat="41.869930273880506" lon="2.9047824149230954"><ele>157.33333333333331</ele><time>2026-05-02T11:35:40Z</time></trkpt><trkpt lat="41.86986782492102" lon="2.904713959637374"><ele>157.0</ele><time>2026-05-02T11:35:41Z</time></trkpt><trkpt lat="41.86981382427385" lon="2.904636030052846"><ele>156.66666666666666</ele><time>2026-05-02T11:35:42Z</time></trkpt><trkpt lat="41.86975627150691" lon="2.904551217820671"><ele>156.33333333333334</ele><time>2026-05-02T11:35:43Z</time></trkpt><trkpt lat="41.86969841232436" lon="2.904467993839383"><ele>156.0</ele><time>2026-05-02T11:35:44Z</time></trkpt><trkpt lat="41.86963877224667" lon="2.904382208211378"><ele>156.0</ele><time>2026-05-02T11:35:45Z</time></trkpt><trkpt lat="41.869582506625" lon="2.90429725201196"><ele>156.0</ele><time>2026-05-02T11:35:46Z</time></trkpt><trkpt lat="41.86952999373315" lon="2.9042070737034282"><ele>156.0</ele><time>2026-05-02T11:35:47Z</time></trkpt><trkpt lat="41.869483554343155" lon="2.9041129017009935"><ele>156.0</ele><time>2026-05-02T11:35:48Z</time></trkpt><trkpt lat="41.86944327764393" lon="2.9040122804528203"><ele>156.0</ele><time>2026-05-02T11:35:49Z</time></trkpt><trkpt lat="41.86939858645496" lon="2.9039119573558714"><ele>156.0</ele><time>2026-05-02T11:35:50Z</time></trkpt><trkpt lat="41.869339185691366" lon="2.9038256824471103"><ele>155.66666666666666</ele><time>2026-05-02T11:35:51Z</time></trkpt><trkpt lat="41.869287229884854" lon="2.9037327787733105"><ele>155.33333333333334</ele><time>2026-05-02T11:35:52Z</time></trkpt><trkpt lat="41.86923233132647" lon="2.9036448433585207"><ele>155.0</ele><time>2026-05-02T11:35:53Z</time></trkpt><trkpt lat="41.86919353495271" lon="2.9035484195107704"><ele>154.66666666666669</ele><time>2026-05-02T11:35:54Z</time></trkpt><trkpt lat="41.86914511282384" lon="2.9034420770409115"><ele>154.33333333333334</ele><time>2026-05-02T11:35:55Z</time></trkpt><trkpt lat="41.869078897332564" lon="2.9033549709761335"><ele>154.0</ele><time>2026-05-02T11:35:56Z</time></trkpt><trkpt lat="41.86903429189261" lon="2.9032396783057175"><ele>153.0</ele><time>2026-05-02T11:35:57Z</time></trkpt><trkpt lat="41.86898042906403" lon="2.903128528985781"><ele>152.0</ele><time>2026-05-02T11:35:58Z</time></trkpt><trkpt lat="41.868923150780745" lon="2.9030162006499323"><ele>151.0</ele><time>2026-05-02T11:35:59Z</time></trkpt><trkpt lat="41.86887266679545" lon="2.9029020712137896"><ele>150.0</ele><time>2026-05-02T11:36:00Z</time></trkpt><trkpt lat="41.8688092539652" lon="2.902792955391963"><ele>149.0</ele><time>2026-05-02T11:36:01Z</time></trkpt><trkpt lat="41.868738406694106" lon="2.902703144388851"><ele>149.0</ele><time>2026-05-02T11:36:02Z</time></trkpt><trkpt lat="41.86866374962805" lon="2.902616399039749"><ele>149.0</ele><time>2026-05-02T11:36:03Z</time></trkpt><trkpt lat="41.86858586109418" lon="2.902529964840892"><ele>149.0</ele><time>2026-05-02T11:36:04Z</time></trkpt><trkpt lat="41.86855130223205" lon="2.9024283903808383"><ele>149.0</ele><time>2026-05-02T11:36:05Z</time></trkpt><trkpt lat="41.86852524748002" lon="2.902331615676883"><ele>149.0</ele><time>2026-05-02T11:36:06Z</time></trkpt><trkpt lat="41.86851353210835" lon="2.902220003182957"><ele>149.0</ele><time>2026-05-02T11:36:07Z</time></trkpt><trkpt lat="41.868482925968564" lon="2.9020975680905394"><ele>148.33333333333331</ele><time>2026-05-02T11:36:08Z</time></trkpt><trkpt lat="41.86844632829663" lon="2.901982166497354"><ele>147.66666666666666</ele><time>2026-05-02T11:36:09Z</time></trkpt><trkpt lat="41.86841290728438" lon="2.901876026800618"><ele>147.0</ele><time>2026-05-02T11:36:10Z</time></trkpt><trkpt lat="41.868375835685" lon="2.901771700118715"><ele>146.33333333333334</ele><time>2026-05-02T11:36:11Z</time></trkpt><trkpt lat="41.86832402021251" lon="2.901686597575659"><ele>145.66666666666669</ele><time>2026-05-02T11:36:12Z</time></trkpt><trkpt lat="41.86827947712859" lon="2.9016067273630792"><ele>145.0</ele><time>2026-05-02T11:36:13Z</time></trkpt><trkpt lat="41.868244184806926" lon="2.901532234674515"><ele>143.25</ele><time>2026-05-02T11:36:14Z</time></trkpt><trkpt lat="41.86822378624471" lon="2.9013858031879014"><ele>141.5</ele><time>2026-05-02T11:36:16Z</time></trkpt><trkpt lat="41.8682582931063" lon="2.901234782817292"><ele>139.75</ele><time>2026-05-02T11:36:18Z</time></trkpt><trkpt lat="41.86830756382779" lon="2.901086937704003"><ele>138.0</ele><time>2026-05-02T11:36:20Z</time></trkpt><trkpt lat="41.86835580872083" lon="2.900933622291736"><ele>137.85714285714286</ele><time>2026-05-02T11:36:22Z</time></trkpt><trkpt lat="41.868378965729136" lon="2.9008538538945365"><ele>137.71428571428572</ele><time>2026-05-02T11:36:23Z</time></trkpt><trkpt lat="41.86840352660369" lon="2.9007725525645696"><ele>137.57142857142858</ele><time>2026-05-02T11:36:24Z</time></trkpt><trkpt lat="41.86842950187324" lon="2.9006878804042033"><ele>137.42857142857144</ele><time>2026-05-02T11:36:25Z</time></trkpt><trkpt lat="41.86845661560039" lon="2.900599497189985"><ele>137.28571428571428</ele><time>2026-05-02T11:36:26Z</time></trkpt><trkpt lat="41.86848282232871" lon="2.9005182857573426"><ele>137.14285714285717</ele><time>2026-05-02T11:36:27Z</time></trkpt><trkpt lat="41.86850959174576" lon="2.90043783557458"><ele>137.0</ele><time>2026-05-02T11:36:28Z</time></trkpt><trkpt lat="41.868535460232714" lon="2.900355754447512"><ele>136.79999999999998</ele><time>2026-05-02T11:36:29Z</time></trkpt><trkpt lat="41.8685773139677" lon="2.9002024444376615"><ele>136.6</ele><time>2026-05-02T11:36:31Z</time></trkpt><trkpt lat="41.86854795585664" lon="2.9000320747311945"><ele>136.39999999999998</ele><time>2026-05-02T11:36:33Z</time></trkpt><trkpt lat="41.86848115001167" lon="2.8999791156529393"><ele>136.2</ele><time>2026-05-02T11:36:34Z</time></trkpt><trkpt lat="41.86839580827704" lon="2.8999056039379476"><ele>136.0</ele><time>2026-05-02T11:36:36Z</time></trkpt><trkpt lat="41.86837933698433" lon="2.8997560278430607"><ele>136.0</ele><time>2026-05-02T11:36:38Z</time></trkpt><trkpt lat="41.86843419258648" lon="2.8996138355065777"><ele>136.0</ele><time>2026-05-02T11:36:40Z</time></trkpt><trkpt lat="41.8684982421193" lon="2.899464485499833"><ele>136.0</ele><time>2026-05-02T11:36:42Z</time></trkpt><trkpt lat="41.86852956011678" lon="2.8993860784728525"><ele>136.0</ele><time>2026-05-02T11:36:43Z</time></trkpt><trkpt lat="41.86855589137938" lon="2.899306087542143"><ele>136.0</ele><time>2026-05-02T11:36:44Z</time></trkpt><trkpt lat="41.868578596155125" lon="2.899219700335955"><ele>136.0</ele><time>2026-05-02T11:36:45Z</time></trkpt><trkpt lat="41.868596558016726" lon="2.8991336103924485"><ele>136.42857142857142</ele><time>2026-05-02T11:36:46Z</time></trkpt><trkpt lat="41.868613164488146" lon="2.899042640409385"><ele>136.85714285714286</ele><time>2026-05-02T11:36:47Z</time></trkpt><trkpt lat="41.86862585742858" lon="2.8989518917459987"><ele>137.28571428571428</ele><time>2026-05-02T11:36:48Z</time></trkpt><trkpt lat="41.86865548803178" lon="2.8988662322657035"><ele>137.71428571428572</ele><time>2026-05-02T11:36:49Z</time></trkpt><trkpt lat="41.86867662816513" lon="2.8987795328534016"><ele>138.14285714285714</ele><time>2026-05-02T11:36:50Z</time></trkpt><trkpt lat="41.86870318702876" lon="2.898693347570889"><ele>138.57142857142856</ele><time>2026-05-02T11:36:51Z</time></trkpt><trkpt lat="41.868732662015184" lon="2.898605874899476"><ele>139.0</ele><time>2026-05-02T11:36:52Z</time></trkpt><trkpt lat="41.868762650789044" lon="2.898516872369801"><ele>139.0</ele><time>2026-05-02T11:36:53Z</time></trkpt><trkpt lat="41.86879121725296" lon="2.898429289271068"><ele>139.0</ele><time>2026-05-02T11:36:54Z</time></trkpt><trkpt lat="41.86881600816072" lon="2.89834596715757"><ele>139.0</ele><time>2026-05-02T11:36:55Z</time></trkpt><trkpt lat="41.8688385565542" lon="2.898259694123879"><ele>139.0</ele><time>2026-05-02T11:36:56Z</time></trkpt><trkpt lat="41.8688554877743" lon="2.8981585429046914"><ele>139.0</ele><time>2026-05-02T11:36:57Z</time></trkpt><trkpt lat="41.86885735569373" lon="2.8980495810558073"><ele>139.0</ele><time>2026-05-02T11:36:58Z</time></trkpt><trkpt lat="41.868837260042675" lon="2.897942466612651"><ele>139.0</ele><time>2026-05-02T11:36:59Z</time></trkpt><trkpt lat="41.86881905801107" lon="2.8978518004772678"><ele>138.66666666666669</ele><time>2026-05-02T11:37:00Z</time></trkpt><trkpt lat="41.86880088844546" lon="2.897766585318709"><ele>138.33333333333334</ele><time>2026-05-02T11:37:01Z</time></trkpt><trkpt lat="41.86877899483974" lon="2.897685412529829"><ele>138.0</ele><time>2026-05-02T11:37:02Z</time></trkpt><trkpt lat="41.86875461656238" lon="2.8976056340174847"><ele>137.66666666666666</ele><time>2026-05-02T11:37:03Z</time></trkpt><trkpt lat="41.86871851088154" lon="2.897533704932956"><ele>137.33333333333331</ele><time>2026-05-02T11:37:04Z</time></trkpt><trkpt lat="41.868673905960065" lon="2.8973781818659146"><ele>137.0</ele><time>2026-05-02T11:37:06Z</time></trkpt><trkpt lat="41.86863300466837" lon="2.897223835321485"><ele>137.0</ele><time>2026-05-02T11:37:08Z</time></trkpt><trkpt lat="41.86863451123196" lon="2.8970638862803564"><ele>137.0</ele><time>2026-05-02T11:37:10Z</time></trkpt><trkpt lat="41.868713149365625" lon="2.8969547547633345"><ele>137.0</ele><time>2026-05-02T11:37:12Z</time></trkpt><trkpt lat="41.86876884405703" lon="2.8968633863287803"><ele>137.0</ele><time>2026-05-02T11:37:14Z</time></trkpt><trkpt lat="41.86883672013794" lon="2.8967640884524894"><ele>137.0</ele><time>2026-05-02T11:37:16Z</time></trkpt><trkpt lat="41.8689022172844" lon="2.8966420847554604"><ele>137.0</ele><time>2026-05-02T11:37:18Z</time></trkpt><trkpt lat="41.86894734916374" lon="2.8965146857243687"><ele>137.0</ele><time>2026-05-02T11:37:20Z</time></trkpt><trkpt lat="41.86898337795225" lon="2.896378834522522"><ele>137.0</ele><time>2026-05-02T11:37:22Z</time></trkpt><trkpt lat="41.86901218565324" lon="2.89623553032786"><ele>137.0</ele><time>2026-05-02T11:37:24Z</time></trkpt><trkpt lat="41.869017381011474" lon="2.8960878140242"><ele>137.0</ele><time>2026-05-02T11:37:26Z</time></trkpt><trkpt lat="41.86904259684178" lon="2.8959360433629024"><ele>137.79999999999998</ele><time>2026-05-02T11:37:28Z</time></trkpt><trkpt lat="41.869064204918345" lon="2.895796127908223"><ele>138.6</ele><time>2026-05-02T11:37:30Z</time></trkpt><trkpt lat="41.86909444789303" lon="2.8956611087926594"><ele>139.39999999999998</ele><time>2026-05-02T11:37:32Z</time></trkpt><trkpt lat="41.86912447963256" lon="2.8955138738607067"><ele>140.2</ele><time>2026-05-02T11:37:34Z</time></trkpt><trkpt lat="41.86916557017093" lon="2.8953595985175005"><ele>141.0</ele><time>2026-05-02T11:37:36Z</time></trkpt><trkpt lat="41.86920625604297" lon="2.895213845122898"><ele>140.0</ele><time>2026-05-02T11:37:38Z</time></trkpt><trkpt lat="41.86927824246882" lon="2.895097637193888"><ele>139.0</ele><time>2026-05-02T11:37:40Z</time></trkpt><trkpt lat="41.86933558689009" lon="2.8949653207579593"><ele>138.0</ele><time>2026-05-02T11:37:42Z</time></trkpt><trkpt lat="41.86937780943212" lon="2.894802648979731"><ele>137.0</ele><time>2026-05-02T11:37:44Z</time></trkpt><trkpt lat="41.86938557895295" lon="2.8947138171213402"><ele>136.0</ele><time>2026-05-02T11:37:45Z</time></trkpt><trkpt lat="41.86938400691586" lon="2.89461394632466"><ele>136.0</ele><time>2026-05-02T11:37:46Z</time></trkpt><trkpt lat="41.869371910908164" lon="2.8945211852275015"><ele>136.0</ele><time>2026-05-02T11:37:47Z</time></trkpt><trkpt lat="41.869388138997685" lon="2.894350276022561"><ele>136.0</ele><time>2026-05-02T11:37:49Z</time></trkpt><trkpt lat="41.869419021869746" lon="2.8942699617002328"><ele>136.0</ele><time>2026-05-02T11:37:50Z</time></trkpt><trkpt lat="41.86943450765477" lon="2.8941782043599935"><ele>136.0</ele><time>2026-05-02T11:37:51Z</time></trkpt><trkpt lat="41.86947049463106" lon="2.894090407765805"><ele>136.0</ele><time>2026-05-02T11:37:52Z</time></trkpt><trkpt lat="41.86950303150437" lon="2.8940004734441054"><ele>135.66666666666669</ele><time>2026-05-02T11:37:53Z</time></trkpt><trkpt lat="41.86954547747042" lon="2.8939203594445555"><ele>135.33333333333334</ele><time>2026-05-02T11:37:54Z</time></trkpt><trkpt lat="41.86957775953986" lon="2.8938360939758665"><ele>135.0</ele><time>2026-05-02T11:37:55Z</time></trkpt><trkpt lat="41.86960730992602" lon="2.8937547794781495"><ele>134.66666666666666</ele><time>2026-05-02T11:37:56Z</time></trkpt><trkpt lat="41.86963684048913" lon="2.893673519492395"><ele>134.33333333333331</ele><time>2026-05-02T11:37:57Z</time></trkpt><trkpt lat="41.86966963080698" lon="2.8935980778280053"><ele>134.0</ele><time>2026-05-02T11:37:58Z</time></trkpt><trkpt lat="41.86975372596752" lon="2.8934671856913043"><ele>134.57142857142858</ele><time>2026-05-02T11:38:00Z</time></trkpt><trkpt lat="41.86977498907059" lon="2.893374951192263"><ele>135.14285714285714</ele><time>2026-05-02T11:38:01Z</time></trkpt><trkpt lat="41.869815428990606" lon="2.893300777782519"><ele>135.71428571428572</ele><time>2026-05-02T11:38:02Z</time></trkpt><trkpt lat="41.869813458975365" lon="2.8932036478665615"><ele>136.28571428571428</ele><time>2026-05-02T11:38:03Z</time></trkpt><trkpt lat="41.8698344452496" lon="2.8931210500249156"><ele>136.85714285714286</ele><time>2026-05-02T11:38:04Z</time></trkpt><trkpt lat="41.86981714366798" lon="2.8930264638989502"><ele>137.42857142857144</ele><time>2026-05-02T11:38:05Z</time></trkpt><trkpt lat="41.869780669832515" lon="2.8929552493251074"><ele>138.0</ele><time>2026-05-02T11:38:06Z</time></trkpt><trkpt lat="41.869767542041615" lon="2.89279519588402"><ele>138.0</ele><time>2026-05-02T11:38:08Z</time></trkpt><trkpt lat="41.869744043063264" lon="2.8926453828600573"><ele>138.0</ele><time>2026-05-02T11:38:10Z</time></trkpt><trkpt lat="41.86971063372094" lon="2.892493250372369"><ele>138.0</ele><time>2026-05-02T11:38:12Z</time></trkpt><trkpt lat="41.869696781184096" lon="2.892333476978028"><ele>138.0</ele><time>2026-05-02T11:38:14Z</time></trkpt><trkpt lat="41.86970764892212" lon="2.8922500842423626"><ele>138.0</ele><time>2026-05-02T11:38:15Z</time></trkpt><trkpt lat="41.86968799483109" lon="2.892089467289352"><ele>138.75</ele><time>2026-05-02T11:38:17Z</time></trkpt><trkpt lat="41.86965049608955" lon="2.8919355750881577"><ele>139.5</ele><time>2026-05-02T11:38:19Z</time></trkpt><trkpt lat="41.86965327227517" lon="2.8917768222849682"><ele>140.25</ele><time>2026-05-02T11:38:21Z</time></trkpt><trkpt lat="41.86962423362347" lon="2.891621432513929"><ele>141.0</ele><time>2026-05-02T11:38:23Z</time></trkpt><trkpt lat="41.869611036648834" lon="2.89146395668254"><ele>141.0</ele><time>2026-05-02T11:38:25Z</time></trkpt><trkpt lat="41.86959954601395" lon="2.8913093459997428"><ele>141.0</ele><time>2026-05-02T11:38:27Z</time></trkpt><trkpt lat="41.86955181612188" lon="2.8911376387951173"><ele>141.0</ele><time>2026-05-02T11:38:29Z</time></trkpt><trkpt lat="41.869498519360725" lon="2.8910692869064096"><ele>141.0</ele><time>2026-05-02T11:38:30Z</time></trkpt><trkpt lat="41.869418975510364" lon="2.8910439255115725"><ele>141.0</ele><time>2026-05-02T11:38:31Z</time></trkpt><trkpt lat="41.86929908376928" lon="2.890993440160094"><ele>141.33333333333334</ele><time>2026-05-02T11:38:33Z</time></trkpt><trkpt lat="41.86924680653827" lon="2.8909376891816674"><ele>141.66666666666666</ele><time>2026-05-02T11:38:34Z</time></trkpt><trkpt lat="41.86914111948987" lon="2.8908562261173265"><ele>142.0</ele><time>2026-05-02T11:38:36Z</time></trkpt><trkpt lat="41.8690847904319" lon="2.8908101350206135"><ele>142.33333333333331</ele><time>2026-05-02T11:38:37Z</time></trkpt><trkpt lat="41.86902519208723" lon="2.8907673307633472"><ele>142.66666666666666</ele><time>2026-05-02T11:38:38Z</time></trkpt><trkpt lat="41.868959933231494" lon="2.890727481134799"><ele>143.0</ele><time>2026-05-02T11:38:39Z</time></trkpt><trkpt lat="41.86889462275687" lon="2.8906898939988155"><ele>143.0</ele><time>2026-05-02T11:38:40Z</time></trkpt><trkpt lat="41.86882992857197" lon="2.890652661533268"><ele>143.0</ele><time>2026-05-02T11:38:41Z</time></trkpt><trkpt lat="41.86877091391727" lon="2.89061398507143"><ele>143.0</ele><time>2026-05-02T11:38:42Z</time></trkpt><trkpt lat="41.86871158102139" lon="2.89057943243684"><ele>143.0</ele><time>2026-05-02T11:38:43Z</time></trkpt><trkpt lat="41.86866996650748" lon="2.890509704569462"><ele>143.0</ele><time>2026-05-02T11:38:44Z</time></trkpt><trkpt lat="41.86863275738974" lon="2.8904385938319606"><ele>143.0</ele><time>2026-05-02T11:38:45Z</time></trkpt><trkpt lat="41.86857379191108" lon="2.890283558272794"><ele>143.0</ele><time>2026-05-02T11:38:47Z</time></trkpt><trkpt lat="41.86855027576487" lon="2.8901937504891535"><ele>143.0</ele><time>2026-05-02T11:38:48Z</time></trkpt><trkpt lat="41.868509988831455" lon="2.8901088503915604"><ele>143.0</ele><time>2026-05-02T11:38:49Z</time></trkpt><trkpt lat="41.868461051146355" lon="2.8900233877415267"><ele>143.0</ele><time>2026-05-02T11:38:50Z</time></trkpt><trkpt lat="41.868403389973764" lon="2.889948501141866"><ele>143.0</ele><time>2026-05-02T11:38:51Z</time></trkpt><trkpt lat="41.868353374791845" lon="2.8898797183864042"><ele>143.0</ele><time>2026-05-02T11:38:52Z</time></trkpt><trkpt lat="41.86830288815498" lon="2.889802688240509"><ele>142.83333333333331</ele><time>2026-05-02T11:38:53Z</time></trkpt><trkpt lat="41.868253487967486" lon="2.889727409883008"><ele>142.66666666666666</ele><time>2026-05-02T11:38:54Z</time></trkpt><trkpt lat="41.86819357743471" lon="2.889648409494056"><ele>142.5</ele><time>2026-05-02T11:38:55Z</time></trkpt><trkpt lat="41.86812476538205" lon="2.8895879962058837"><ele>142.33333333333334</ele><time>2026-05-02T11:38:56Z</time></trkpt><trkpt lat="41.86806420260097" lon="2.8895103256542956"><ele>142.16666666666669</ele><time>2026-05-02T11:38:57Z</time></trkpt><trkpt lat="41.868012037929006" lon="2.8894230748918797"><ele>142.0</ele><time>2026-05-02T11:38:58Z</time></trkpt><trkpt lat="41.867951324365734" lon="2.8893446365338815"><ele>142.0</ele><time>2026-05-02T11:38:59Z</time></trkpt><trkpt lat="41.86789355789719" lon="2.8892704667011944"><ele>142.0</ele><time>2026-05-02T11:39:00Z</time></trkpt><trkpt lat="41.86783716116395" lon="2.8891980768644663"><ele>142.0</ele><time>2026-05-02T11:39:01Z</time></trkpt><trkpt lat="41.86778968164772" lon="2.889123250091533"><ele>142.0</ele><time>2026-05-02T11:39:02Z</time></trkpt><trkpt lat="41.86774637619162" lon="2.889038272432683"><ele>142.0</ele><time>2026-05-02T11:39:03Z</time></trkpt><trkpt lat="41.86770249406762" lon="2.888949068263299"><ele>142.0</ele><time>2026-05-02T11:39:04Z</time></trkpt><trkpt lat="41.867663664005605" lon="2.8888579436630692"><ele>142.0</ele><time>2026-05-02T11:39:05Z</time></trkpt><trkpt lat="41.86763101245096" lon="2.8887614367342542"><ele>142.0</ele><time>2026-05-02T11:39:06Z</time></trkpt><trkpt lat="41.86759654765254" lon="2.888666107680753"><ele>142.0</ele><time>2026-05-02T11:39:07Z</time></trkpt><trkpt lat="41.86756126700824" lon="2.8885746809557746"><ele>142.0</ele><time>2026-05-02T11:39:08Z</time></trkpt><trkpt lat="41.86752615819087" lon="2.8884846185184276"><ele>142.0</ele><time>2026-05-02T11:39:09Z</time></trkpt><trkpt lat="41.86748882475617" lon="2.8883953549143353"><ele>142.0</ele><time>2026-05-02T11:39:10Z</time></trkpt><trkpt lat="41.86744997515619" lon="2.8883057511213592"><ele>142.16666666666669</ele><time>2026-05-02T11:39:11Z</time></trkpt><trkpt lat="41.86741473244635" lon="2.8882185065428216"><ele>142.33333333333334</ele><time>2026-05-02T11:39:12Z</time></trkpt><trkpt lat="41.867365249407854" lon="2.888133434375045"><ele>142.5</ele><time>2026-05-02T11:39:13Z</time></trkpt><trkpt lat="41.86733469914654" lon="2.888038043416118"><ele>142.66666666666666</ele><time>2026-05-02T11:39:14Z</time></trkpt><trkpt lat="41.86730104066371" lon="2.887940612667744"><ele>142.83333333333331</ele><time>2026-05-02T11:39:15Z</time></trkpt><trkpt lat="41.86727153599779" lon="2.8878448061342943"><ele>143.0</ele><time>2026-05-02T11:39:16Z</time></trkpt><trkpt lat="41.86724306910318" lon="2.8877459553409124"><ele>143.0</ele><time>2026-05-02T11:39:17Z</time></trkpt><trkpt lat="41.86721561688213" lon="2.8876416332526476"><ele>143.0</ele><time>2026-05-02T11:39:18Z</time></trkpt><trkpt lat="41.867185249891605" lon="2.887539538110734"><ele>143.0</ele><time>2026-05-02T11:39:19Z</time></trkpt><trkpt lat="41.8671513095638" lon="2.887436487195349"><ele>143.0</ele><time>2026-05-02T11:39:20Z</time></trkpt><trkpt lat="41.867129972948774" lon="2.8873268799381027"><ele>143.0</ele><time>2026-05-02T11:39:21Z</time></trkpt><trkpt lat="41.86709763695931" lon="2.887219460992635"><ele>143.0</ele><time>2026-05-02T11:39:22Z</time></trkpt><trkpt lat="41.86707290045838" lon="2.887111759650139"><ele>143.0</ele><time>2026-05-02T11:39:23Z</time></trkpt><trkpt lat="41.86706048780295" lon="2.887016791368428"><ele>143.0</ele><time>2026-05-02T11:39:24Z</time></trkpt><trkpt lat="41.867017484860234" lon="2.8868907317993613"><ele>143.0</ele><time>2026-05-02T11:39:25Z</time></trkpt><trkpt lat="41.86694421656058" lon="2.8868019997207433"><ele>143.0</ele><time>2026-05-02T11:39:26Z</time></trkpt><trkpt lat="41.86686671352385" lon="2.886749447036581"><ele>143.0</ele><time>2026-05-02T11:39:27Z</time></trkpt><trkpt lat="41.86680679557898" lon="2.8866974254787654"><ele>143.0</ele><time>2026-05-02T11:39:28Z</time></trkpt><trkpt lat="41.86675288055376" lon="2.8866371212831354"><ele>142.66666666666666</ele><time>2026-05-02T11:39:29Z</time></trkpt><trkpt lat="41.8666952285572" lon="2.886570712845608"><ele>142.33333333333331</ele><time>2026-05-02T11:39:30Z</time></trkpt><trkpt lat="41.866633228560936" lon="2.8865060844884547"><ele>142.0</ele><time>2026-05-02T11:39:31Z</time></trkpt><trkpt lat="41.866566890185055" lon="2.8864481767650134"><ele>141.66666666666666</ele><time>2026-05-02T11:39:32Z</time></trkpt><trkpt lat="41.86648347400348" lon="2.886412316811133"><ele>141.33333333333334</ele><time>2026-05-02T11:39:33Z</time></trkpt><trkpt lat="41.86641915029632" lon="2.886381352285902"><ele>141.0</ele><time>2026-05-02T11:39:34Z</time></trkpt><trkpt lat="41.86632774408626" lon="2.8862706274827437"><ele>141.0</ele><time>2026-05-02T11:39:36Z</time></trkpt><trkpt lat="41.86630735056601" lon="2.8861833761409277"><ele>141.0</ele><time>2026-05-02T11:39:37Z</time></trkpt><trkpt lat="41.86631725511016" lon="2.8860928168584024"><ele>141.0</ele><time>2026-05-02T11:39:38Z</time></trkpt><trkpt lat="41.866324570997875" lon="2.8859920476503027"><ele>141.0</ele><time>2026-05-02T11:39:39Z</time></trkpt><trkpt lat="41.86633551833044" lon="2.885882420915184"><ele>141.0</ele><time>2026-05-02T11:39:40Z</time></trkpt><trkpt lat="41.86634550520985" lon="2.8857657507805166"><ele>141.0</ele><time>2026-05-02T11:39:41Z</time></trkpt><trkpt lat="41.866353787463794" lon="2.8856518697925067"><ele>140.4</ele><time>2026-05-02T11:39:42Z</time></trkpt><trkpt lat="41.86635821179056" lon="2.8855319460205693"><ele>139.8</ele><time>2026-05-02T11:39:43Z</time></trkpt><trkpt lat="41.86636125570243" lon="2.8854065185217976"><ele>139.20000000000002</ele><time>2026-05-02T11:39:44Z</time></trkpt><trkpt lat="41.86635767559781" lon="2.885272987511063"><ele>138.6</ele><time>2026-05-02T11:39:45Z</time></trkpt><trkpt lat="41.86634232566181" lon="2.8851501663531924"><ele>138.0</ele><time>2026-05-02T11:39:46Z</time></trkpt><trkpt lat="41.866323627438014" lon="2.885048802924857"><ele>137.5</ele><time>2026-05-02T11:39:47Z</time></trkpt><trkpt lat="41.86630544556307" lon="2.8849601438119574"><ele>137.0</ele><time>2026-05-02T11:39:48Z</time></trkpt><trkpt lat="41.86628776048504" lon="2.884876399760102"><ele>136.5</ele><time>2026-05-02T11:39:49Z</time></trkpt><trkpt lat="41.86627286118714" lon="2.8847910083643544"><ele>136.0</ele><time>2026-05-02T11:39:50Z</time></trkpt><trkpt lat="41.86626105384412" lon="2.884706870482796"><ele>135.5</ele><time>2026-05-02T11:39:51Z</time></trkpt><trkpt lat="41.866244555330645" lon="2.884558366751193"><ele>135.0</ele><time>2026-05-02T11:39:53Z</time></trkpt><trkpt lat="41.86624221587013" lon="2.884453626752581"><ele>135.0</ele><time>2026-05-02T11:39:55Z</time></trkpt><trkpt lat="41.86616747003452" lon="2.8843961434835"><ele>135.0</ele><time>2026-05-02T11:41:31Z</time></trkpt><trkpt lat="41.86616747003452" lon="2.8843961434835"><ele>135.0</ele><time>2026-05-02T11:41:31Z</time></trkpt><trkpt lat="41.86616747003452" lon="2.8843961434835"><ele>135.0</ele><time>2026-05-02T11:41:31Z</time></trkpt><trkpt lat="41.86616747003452" lon="2.8843961434835"><ele>135.0</ele><time>2026-05-02T11:41:31Z</time></trkpt><trkpt lat="41.86616747003452" lon="2.8843961434835"><ele>135.0</ele><time>2026-05-02T11:41:31Z</time></trkpt><trkpt lat="41.86616747003452" lon="2.8843961434835"><ele>135.0</ele><time>2026-05-02T11:41:31Z</time></trkpt><trkpt lat="41.86616747003452" lon="2.8843961434835"><ele>135.0</ele><time>2026-05-02T11:41:31Z</time></trkpt><trkpt lat="41.86616747003452" lon="2.8843961434835"><ele>135.0</ele><time>2026-05-02T11:41:31Z</time></trkpt><trkpt lat="41.86616747003452" lon="2.8843961434835"><ele>135.0</ele><time>2026-05-02T11:41:31Z</time></trkpt><trkpt lat="41.86616747003452" lon="2.8843961434835"><ele>135.0</ele><time>2026-05-02T11:41:31Z</time></trkpt><trkpt lat="41.86616747003452" lon="2.8843961434835"><ele>135.0</ele><time>2026-05-02T11:41:31Z</time></trkpt><trkpt lat="41.86616747003452" lon="2.8843961434835"><ele>135.0</ele><time>2026-05-02T11:41:31Z</time></trkpt><trkpt lat="41.86616747003452" lon="2.8843961434835"><ele>135.0</ele><time>2026-05-02T11:41:31Z</time></trkpt><trkpt lat="41.86616747003452" lon="2.8843961434835"><ele>135.0</ele><time>2026-05-02T11:41:31Z</time></trkpt><trkpt lat="41.86616747003452" lon="2.8843961434835"><ele>135.0</ele><time>2026-05-02T11:41:31Z</time></trkpt><trkpt lat="41.86616747003452" lon="2.8843961434835"><ele>135.0</ele><time>2026-05-02T11:41:31Z</time></trkpt><trkpt lat="41.86616747003452" lon="2.8843961434835"><ele>135.0</ele><time>2026-05-02T11:41:31Z</time></trkpt><trkpt lat="41.86616747003452" lon="2.8843961434835"><ele>135.0</ele><time>2026-05-02T11:41:31Z</time></trkpt><trkpt lat="41.86616747003452" lon="2.8843961434835"><ele>135.0</ele><time>2026-05-02T11:41:31Z</time></trkpt><trkpt lat="41.86616747003452" lon="2.8843961434835"><ele>135.0</ele><time>2026-05-02T11:41:31Z</time></trkpt><trkpt lat="41.86616747003452" lon="2.8843961434835"><ele>135.0</ele><time>2026-05-02T11:41:31Z</time></trkpt><trkpt lat="41.86616747003452" lon="2.8843961434835"><ele>135.0</ele><time>2026-05-02T11:41:31Z</time></trkpt></trkseg></trk></gpx>